<?xml version='1.0' encoding='UTF-8'?><gpx version="1.1" creator="JPX - https://github.com/jenetics/jpx" xmlns="http://www.topografix.com/GPX/1/1"><trk><trkseg><trkpt lat="45.141994500115025" lon="5.730576572732967"><ele>228.0</ele><time>2026-04-25T08:16:31.999Z</time></trkpt><trkpt lat="45.14206738236478" lon="5.730567879485172"><ele>228.0</ele><time>2026-04-25T08:16:32.999Z</time></trkpt><trkpt lat="45.142131669310956" lon="5.730569407559576"><ele>228.0</ele><time>2026-04-25T08:16:33.999Z</time></trkpt><trkpt lat="45.14223525790901" lon="5.730586963604098"><ele>228.0</ele><time>2026-04-25T08:16:35.999Z</time></trkpt><trkpt lat="45.14231652424454" lon="5.730586400044288"><ele>228.0</ele><time>2026-04-25T08:16:38.999Z</time></trkpt><trkpt lat="45.14233566378317" lon="5.730729497268596"><ele>228.0</ele><time>2026-04-25T08:16:39.999Z</time></trkpt><trkpt lat="45.14235628506874" lon="5.730839859016481"><ele>228.0</ele><time>2026-04-25T08:16:40.999Z</time></trkpt><trkpt lat="45.14237687661072" lon="5.730965255881053"><ele>228.0</ele><time>2026-04-25T08:16:41.999Z</time></trkpt><trkpt lat="45.142400766825894" lon="5.731101848840669"><ele>228.0</ele><time>2026-04-25T08:16:42.999Z</time></trkpt><trkpt lat="45.142416584304044" lon="5.731230871384436"><ele>228.0</ele><time>2026-04-25T08:16:43.999Z</time></trkpt><trkpt lat="45.142430509571376" lon="5.73133950088664"><ele>228.0</ele><time>2026-04-25T08:16:44.999Z</time></trkpt><trkpt lat="45.1424422342889" lon="5.7314555325458265"><ele>228.0</ele><time>2026-04-25T08:16:45.999Z</time></trkpt><trkpt lat="45.14245433682897" lon="5.731577266933775"><ele>228.0</ele><time>2026-04-25T08:16:46.999Z</time></trkpt><trkpt lat="45.1424698901376" lon="5.731710285687306"><ele>228.0</ele><time>2026-04-25T08:16:47.999Z</time></trkpt><trkpt lat="45.1424808636572" lon="5.731843670603921"><ele>228.0</ele><time>2026-04-25T08:16:48.999Z</time></trkpt><trkpt lat="45.14248693669361" lon="5.73197720421902"><ele>228.0</ele><time>2026-04-25T08:16:49.999Z</time></trkpt><trkpt lat="45.14247278553506" lon="5.732124346680098"><ele>228.0</ele><time>2026-04-25T08:16:50.999Z</time></trkpt><trkpt lat="45.14247630788883" lon="5.732249579327859"><ele>228.0</ele><time>2026-04-25T08:16:51.999Z</time></trkpt><trkpt lat="45.142468813590774" lon="5.732372854849245"><ele>228.0</ele><time>2026-04-25T08:16:52.999Z</time></trkpt><trkpt lat="45.14246631171369" lon="5.732476017034628"><ele>228.0</ele><time>2026-04-25T08:16:53.999Z</time></trkpt><trkpt lat="45.142457434573146" lon="5.732576433023195"><ele>228.0</ele><time>2026-04-25T08:16:54.999Z</time></trkpt><trkpt lat="45.142451539900506" lon="5.732687659814357"><ele>228.0</ele><time>2026-04-25T08:16:55.999Z</time></trkpt><trkpt lat="45.14244774816483" lon="5.732816431486623"><ele>228.0</ele><time>2026-04-25T08:16:56.999Z</time></trkpt><trkpt lat="45.14244219087714" lon="5.732939092377841"><ele>228.16666666666666</ele><time>2026-04-25T08:16:57.999Z</time></trkpt><trkpt lat="45.142437673903316" lon="5.733067082940429"><ele>228.33333333333331</ele><time>2026-04-25T08:16:58.999Z</time></trkpt><trkpt lat="45.14243441601508" lon="5.733192353348266"><ele>228.5</ele><time>2026-04-25T08:16:59.999Z</time></trkpt><trkpt lat="45.142429506079786" lon="5.733290409789334"><ele>228.66666666666666</ele><time>2026-04-25T08:17:00.999Z</time></trkpt><trkpt lat="45.14242104388723" lon="5.733412915549912"><ele>228.83333333333331</ele><time>2026-04-25T08:17:02.999Z</time></trkpt><trkpt lat="45.14242057807068" lon="5.7335427348386245"><ele>229.0</ele><time>2026-04-25T08:17:10.999Z</time></trkpt><trkpt lat="45.14241527880661" lon="5.733633611118915"><ele>229.2</ele><time>2026-04-25T08:17:11.999Z</time></trkpt><trkpt lat="45.14240031042666" lon="5.733751924260196"><ele>229.39999999999998</ele><time>2026-04-25T08:17:12.999Z</time></trkpt><trkpt lat="45.142394530061715" lon="5.733880777773278"><ele>229.6</ele><time>2026-04-25T08:17:13.999Z</time></trkpt><trkpt lat="45.14240117293051" lon="5.73402435028945"><ele>229.8</ele><time>2026-04-25T08:17:14.999Z</time></trkpt><trkpt lat="45.14242202079796" lon="5.734176487638362"><ele>230.0</ele><time>2026-04-25T08:17:15.999Z</time></trkpt><trkpt lat="45.14244771732125" lon="5.734313857048816"><ele>230.0</ele><time>2026-04-25T08:17:16.999Z</time></trkpt><trkpt lat="45.142473442280846" lon="5.734455537216247"><ele>230.0</ele><time>2026-04-25T08:17:17.999Z</time></trkpt><trkpt lat="45.142497657016435" lon="5.734598164989811"><ele>230.0</ele><time>2026-04-25T08:17:18.999Z</time></trkpt><trkpt lat="45.14251951226509" lon="5.734749901735928"><ele>230.0</ele><time>2026-04-25T08:17:19.999Z</time></trkpt><trkpt lat="45.14253686508572" lon="5.734902740534471"><ele>230.0</ele><time>2026-04-25T08:17:20.998Z</time></trkpt><trkpt lat="45.14255637974153" lon="5.735059031423315"><ele>230.0</ele><time>2026-04-25T08:17:21.998Z</time></trkpt><trkpt lat="45.142581876081614" lon="5.73521332883559"><ele>230.0</ele><time>2026-04-25T08:17:22.998Z</time></trkpt><trkpt lat="45.142609671925825" lon="5.735364891226567"><ele>230.0</ele><time>2026-04-25T08:17:23.998Z</time></trkpt><trkpt lat="45.14264577669381" lon="5.735516282716671"><ele>230.0</ele><time>2026-04-25T08:17:24.998Z</time></trkpt><trkpt lat="45.14269088774517" lon="5.735673813842112"><ele>229.25</ele><time>2026-04-25T08:17:25.998Z</time></trkpt><trkpt lat="45.1427338695724" lon="5.735831189531922"><ele>228.5</ele><time>2026-04-25T08:17:26.998Z</time></trkpt><trkpt lat="45.1427844262341" lon="5.735989733355369"><ele>227.75</ele><time>2026-04-25T08:17:27.998Z</time></trkpt><trkpt lat="45.14284071904742" lon="5.7361479618379585"><ele>227.0</ele><time>2026-04-25T08:17:28.998Z</time></trkpt><trkpt lat="45.142883855351315" lon="5.736312905702518"><ele>227.0</ele><time>2026-04-25T08:17:29.998Z</time></trkpt><trkpt lat="45.142927297298804" lon="5.736482845245937"><ele>227.0</ele><time>2026-04-25T08:17:30.998Z</time></trkpt><trkpt lat="45.14297193501555" lon="5.736656171462777"><ele>227.0</ele><time>2026-04-25T08:17:31.998Z</time></trkpt><trkpt lat="45.14301568247342" lon="5.736832098450289"><ele>227.0</ele><time>2026-04-25T08:17:32.998Z</time></trkpt><trkpt lat="45.14305405422991" lon="5.737014316442637"><ele>227.0</ele><time>2026-04-25T08:17:33.998Z</time></trkpt><trkpt lat="45.143104359135414" lon="5.737184578234315"><ele>227.0</ele><time>2026-04-25T08:17:34.998Z</time></trkpt><trkpt lat="45.14315525426826" lon="5.737371032746597"><ele>227.0</ele><time>2026-04-25T08:17:36Z</time></trkpt><trkpt lat="45.143202051037456" lon="5.737551266407938"><ele>227.0</ele><time>2026-04-25T08:17:37Z</time></trkpt><trkpt lat="45.14325595861509" lon="5.737720452416678"><ele>227.25</ele><time>2026-04-25T08:17:38Z</time></trkpt><trkpt lat="45.14330571351972" lon="5.737900854113171"><ele>227.5</ele><time>2026-04-25T08:17:39Z</time></trkpt><trkpt lat="45.143350771477756" lon="5.738076320030253"><ele>227.75</ele><time>2026-04-25T08:17:40Z</time></trkpt><trkpt lat="45.143393508328955" lon="5.738256581581088"><ele>228.0</ele><time>2026-04-25T08:17:41Z</time></trkpt><trkpt lat="45.14344367337942" lon="5.738421771993054"><ele>228.25</ele><time>2026-04-25T08:17:42Z</time></trkpt><trkpt lat="45.14349331330787" lon="5.7385944888025975"><ele>228.5</ele><time>2026-04-25T08:17:43Z</time></trkpt><trkpt lat="45.14354229245623" lon="5.738761450064452"><ele>228.75</ele><time>2026-04-25T08:17:44Z</time></trkpt><trkpt lat="45.143594844894906" lon="5.738922760085638"><ele>229.0</ele><time>2026-04-25T08:17:45Z</time></trkpt><trkpt lat="45.14363700171238" lon="5.739057174511432"><ele>228.99999999999997</ele><time>2026-04-25T08:17:46Z</time></trkpt><trkpt lat="45.14367167583552" lon="5.739174003220906"><ele>229.0</ele><time>2026-04-25T08:17:47Z</time></trkpt><trkpt lat="45.143700289806524" lon="5.739259528015787"><ele>229.0</ele><time>2026-04-25T08:17:48Z</time></trkpt><trkpt lat="45.143733289777444" lon="5.739372995038083"><ele>229.0</ele><time>2026-04-25T08:17:50Z</time></trkpt><trkpt lat="45.143769710886545" lon="5.739455345794794"><ele>228.99999999999997</ele><time>2026-04-25T08:17:53Z</time></trkpt><trkpt lat="45.14379304344235" lon="5.73954118323258"><ele>229.0</ele><time>2026-04-25T08:17:55Z</time></trkpt><trkpt lat="45.14393028780274" lon="5.739483176457202"><ele>228.6</ele><time>2026-04-25T08:17:56Z</time></trkpt><trkpt lat="45.14400991862882" lon="5.739429395848452"><ele>228.2</ele><time>2026-04-25T08:17:57Z</time></trkpt><trkpt lat="45.14408343972062" lon="5.739366473192428"><ele>227.79999999999998</ele><time>2026-04-25T08:17:58Z</time></trkpt><trkpt lat="45.14416422370691" lon="5.739292385897798"><ele>227.39999999999998</ele><time>2026-04-25T08:17:59Z</time></trkpt><trkpt lat="45.14425430423206" lon="5.739227069097317"><ele>227.0</ele><time>2026-04-25T08:18:00Z</time></trkpt><trkpt lat="45.144337947194074" lon="5.739123166328955"><ele>227.0</ele><time>2026-04-25T08:18:01Z</time></trkpt><trkpt lat="45.14443356500841" lon="5.739033872075603"><ele>227.0</ele><time>2026-04-25T08:18:02Z</time></trkpt><trkpt lat="45.144532148896076" lon="5.738952618746625"><ele>227.0</ele><time>2026-04-25T08:18:03Z</time></trkpt><trkpt lat="45.14462932559146" lon="5.738855587885212"><ele>227.0</ele><time>2026-04-25T08:18:04Z</time></trkpt><trkpt lat="45.14473493568404" lon="5.738759202754798"><ele>227.0</ele><time>2026-04-25T08:18:05Z</time></trkpt><trkpt lat="45.14484765348942" lon="5.738658765392261"><ele>227.0</ele><time>2026-04-25T08:18:06Z</time></trkpt><trkpt lat="45.14497117429627" lon="5.7385537222128145"><ele>227.0</ele><time>2026-04-25T08:18:07Z</time></trkpt><trkpt lat="45.14508954460275" lon="5.738450047383358"><ele>227.0</ele><time>2026-04-25T08:18:08Z</time></trkpt><trkpt lat="45.14520934580913" lon="5.738343834249538"><ele>227.25</ele><time>2026-04-25T08:18:09Z</time></trkpt><trkpt lat="45.145330966878646" lon="5.738237636172"><ele>227.5</ele><time>2026-04-25T08:18:10Z</time></trkpt><trkpt lat="45.145439407651054" lon="5.738131616916881"><ele>227.75</ele><time>2026-04-25T08:18:11Z</time></trkpt><trkpt lat="45.14555147929106" lon="5.738027895947465"><ele>228.0</ele><time>2026-04-25T08:18:12Z</time></trkpt><trkpt lat="45.14566363604129" lon="5.7379183066288855"><ele>227.5</ele><time>2026-04-25T08:18:13Z</time></trkpt><trkpt lat="45.145780022148216" lon="5.737824856035886"><ele>227.0</ele><time>2026-04-25T08:18:14Z</time></trkpt><trkpt lat="45.14589932206163" lon="5.737730325508692"><ele>226.5</ele><time>2026-04-25T08:18:15Z</time></trkpt><trkpt lat="45.14601101257049" lon="5.737612131301174"><ele>226.0</ele><time>2026-04-25T08:18:16Z</time></trkpt><trkpt lat="45.146125493458165" lon="5.737505608295586"><ele>226.0</ele><time>2026-04-25T08:18:17Z</time></trkpt><trkpt lat="45.14624252845535" lon="5.73739835964981"><ele>226.0</ele><time>2026-04-25T08:18:18Z</time></trkpt><trkpt lat="45.14635467358599" lon="5.737287217134921"><ele>226.0</ele><time>2026-04-25T08:18:19Z</time></trkpt><trkpt lat="45.146466095452844" lon="5.737174528515187"><ele>226.0</ele><time>2026-04-25T08:18:20Z</time></trkpt><trkpt lat="45.14657991788001" lon="5.737065862992071"><ele>226.0</ele><time>2026-04-25T08:18:20.999Z</time></trkpt><trkpt lat="45.146692790789714" lon="5.736963508938458"><ele>226.0</ele><time>2026-04-25T08:18:21.999Z</time></trkpt><trkpt lat="45.14680755394714" lon="5.736858441739949"><ele>226.0</ele><time>2026-04-25T08:18:22.999Z</time></trkpt><trkpt lat="45.146920411168004" lon="5.736738995871189"><ele>226.0</ele><time>2026-04-25T08:18:23.999Z</time></trkpt><trkpt lat="45.14703487597765" lon="5.736636295152138"><ele>226.0</ele><time>2026-04-25T08:18:24.999Z</time></trkpt><trkpt lat="45.14714774543099" lon="5.736533264347011"><ele>226.0</ele><time>2026-04-25T08:18:25.999Z</time></trkpt><trkpt lat="45.14725582322664" lon="5.736435199749638"><ele>226.0</ele><time>2026-04-25T08:18:26.999Z</time></trkpt><trkpt lat="45.14735511733133" lon="5.736337392934709"><ele>226.0</ele><time>2026-04-25T08:18:27.999Z</time></trkpt><trkpt lat="45.14744153338685" lon="5.736258351804814"><ele>225.60000000000002</ele><time>2026-04-25T08:18:28.999Z</time></trkpt><trkpt lat="45.14752100985945" lon="5.736196506994472"><ele>225.20000000000002</ele><time>2026-04-25T08:18:29.999Z</time></trkpt><trkpt lat="45.14759239075825" lon="5.736149119745064"><ele>224.79999999999998</ele><time>2026-04-25T08:18:30.999Z</time></trkpt><trkpt lat="45.14765721613299" lon="5.736107620067741"><ele>224.39999999999998</ele><time>2026-04-25T08:18:31.999Z</time></trkpt><trkpt lat="45.147763592415366" lon="5.736050027326099"><ele>224.0</ele><time>2026-04-25T08:18:33.999Z</time></trkpt><trkpt lat="45.14785782773034" lon="5.7359709506963945"><ele>224.00000000000003</ele><time>2026-04-25T08:18:35.999Z</time></trkpt><trkpt lat="45.147965766535144" lon="5.735910676664163"><ele>224.0</ele><time>2026-04-25T08:18:37.999Z</time></trkpt><trkpt lat="45.14803949363065" lon="5.735914444150951"><ele>224.0</ele><time>2026-04-25T08:18:38.999Z</time></trkpt><trkpt lat="45.14812161545123" lon="5.735939740223442"><ele>224.0</ele><time>2026-04-25T08:18:39.999Z</time></trkpt><trkpt lat="45.14820301269664" lon="5.735953269148743"><ele>224.00000000000003</ele><time>2026-04-25T08:18:40.999Z</time></trkpt><trkpt lat="45.14827793522706" lon="5.735905825728798"><ele>224.0</ele><time>2026-04-25T08:18:41.999Z</time></trkpt><trkpt lat="45.14832740142251" lon="5.735824706624097"><ele>224.2</ele><time>2026-04-25T08:18:42.999Z</time></trkpt><trkpt lat="45.14836884151698" lon="5.735725308945011"><ele>224.39999999999998</ele><time>2026-04-25T08:18:43.999Z</time></trkpt><trkpt lat="45.14841944551398" lon="5.735617205790666"><ele>224.6</ele><time>2026-04-25T08:18:44.999Z</time></trkpt><trkpt lat="45.14851012566462" lon="5.735511810226612"><ele>224.8</ele><time>2026-04-25T08:18:45.999Z</time></trkpt><trkpt lat="45.148623225497495" lon="5.735402309434819"><ele>225.0</ele><time>2026-04-25T08:18:46.999Z</time></trkpt><trkpt lat="45.14875197180745" lon="5.7353066152650065"><ele>224.66666666666669</ele><time>2026-04-25T08:18:47.999Z</time></trkpt><trkpt lat="45.14890832634631" lon="5.735219093616063"><ele>224.33333333333334</ele><time>2026-04-25T08:18:48.999Z</time></trkpt><trkpt lat="45.1490636625815" lon="5.7350718063705575"><ele>224.0</ele><time>2026-04-25T08:18:49.999Z</time></trkpt><trkpt lat="45.14926567824717" lon="5.734932587644977"><ele>222.0</ele><time>2026-04-25T08:18:50.999Z</time></trkpt><trkpt lat="45.149470706043886" lon="5.734768856141786"><ele>220.0</ele><time>2026-04-25T08:18:51.999Z</time></trkpt><trkpt lat="45.14966890892605" lon="5.734629905024365"><ele>220.0</ele><time>2026-04-25T08:18:52.999Z</time></trkpt><trkpt lat="45.14984093213891" lon="5.734514792591088"><ele>220.0</ele><time>2026-04-25T08:18:53.999Z</time></trkpt><trkpt lat="45.14999874685935" lon="5.734414089809599"><ele>220.0</ele><time>2026-04-25T08:18:54.999Z</time></trkpt><trkpt lat="45.15012890107729" lon="5.734342191372013"><ele>220.5</ele><time>2026-04-25T08:18:55.999Z</time></trkpt><trkpt lat="45.15025525002129" lon="5.734287202665264"><ele>221.0</ele><time>2026-04-25T08:18:56.999Z</time></trkpt><trkpt lat="45.15036761434704" lon="5.734244053076938"><ele>221.5</ele><time>2026-04-25T08:18:57.999Z</time></trkpt><trkpt lat="45.15048253408095" lon="5.7342421195311095"><ele>222.0</ele><time>2026-04-25T08:18:58.999Z</time></trkpt><trkpt lat="45.15059235492369" lon="5.734258482488473"><ele>222.5</ele><time>2026-04-25T08:18:59.999Z</time></trkpt><trkpt lat="45.15067160637515" lon="5.734391871538803"><ele>223.0</ele><time>2026-04-25T08:19:00.999Z</time></trkpt><trkpt lat="45.15076915586167" lon="5.7344866190430395"><ele>223.5</ele><time>2026-04-25T08:19:01.999Z</time></trkpt><trkpt lat="45.15087806621027" lon="5.7345292851408365"><ele>224.0</ele><time>2026-04-25T08:19:02.999Z</time></trkpt><trkpt lat="45.150994133565774" lon="5.73452292570445"><ele>224.75</ele><time>2026-04-25T08:19:03.999Z</time></trkpt><trkpt lat="45.151106524274" lon="5.734495662728596"><ele>225.5</ele><time>2026-04-25T08:19:04.999Z</time></trkpt><trkpt lat="45.15120520385823" lon="5.734405423299593"><ele>226.25</ele><time>2026-04-25T08:19:05.999Z</time></trkpt><trkpt lat="45.151284992926385" lon="5.734272352279122"><ele>227.0</ele><time>2026-04-25T08:19:06.999Z</time></trkpt><trkpt lat="45.151332555795214" lon="5.734115411223932"><ele>227.0</ele><time>2026-04-25T08:19:07.999Z</time></trkpt><trkpt lat="45.151333285090196" lon="5.733951412991665"><ele>227.0</ele><time>2026-04-25T08:19:08.999Z</time></trkpt><trkpt lat="45.151289560588815" lon="5.7338013805665256"><ele>227.0</ele><time>2026-04-25T08:19:09.999Z</time></trkpt><trkpt lat="45.151240211720605" lon="5.733675146887886"><ele>227.0</ele><time>2026-04-25T08:19:10.999Z</time></trkpt><trkpt lat="45.151168387042716" lon="5.733570023596128"><ele>227.0</ele><time>2026-04-25T08:19:11.999Z</time></trkpt><trkpt lat="45.15108461266828" lon="5.733483472508901"><ele>227.0</ele><time>2026-04-25T08:19:12.999Z</time></trkpt><trkpt lat="45.15101669454706" lon="5.73336086802444"><ele>227.0</ele><time>2026-04-25T08:19:13.999Z</time></trkpt><trkpt lat="45.15097161265861" lon="5.733205252820178"><ele>227.0</ele><time>2026-04-25T08:19:14.999Z</time></trkpt><trkpt lat="45.150950591973576" lon="5.7330326513241054"><ele>227.0</ele><time>2026-04-25T08:19:15.999Z</time></trkpt><trkpt lat="45.15092920603244" lon="5.732792365364141"><ele>225.66666666666669</ele><time>2026-04-25T08:19:16.999Z</time></trkpt><trkpt lat="45.15090619657794" lon="5.7325161704132075"><ele>224.33333333333331</ele><time>2026-04-25T08:19:17.999Z</time></trkpt><trkpt lat="45.15088520519374" lon="5.732221883060513"><ele>223.0</ele><time>2026-04-25T08:19:18.999Z</time></trkpt><trkpt lat="45.15086582284887" lon="5.731929811039456"><ele>222.66666666666666</ele><time>2026-04-25T08:19:19.999Z</time></trkpt><trkpt lat="45.15085208869231" lon="5.731677615254615"><ele>222.33333333333331</ele><time>2026-04-25T08:19:20.999Z</time></trkpt><trkpt lat="45.15083627745469" lon="5.7314294213311685"><ele>222.0</ele><time>2026-04-25T08:19:21.999Z</time></trkpt><trkpt lat="45.150829141884294" lon="5.731216844163707"><ele>221.33333333333331</ele><time>2026-04-25T08:19:22.999Z</time></trkpt><trkpt lat="45.150790349392146" lon="5.73090169677197"><ele>220.66666666666666</ele><time>2026-04-25T08:19:23.999Z</time></trkpt><trkpt lat="45.15078344221935" lon="5.730598609110303"><ele>220.0</ele><time>2026-04-25T08:19:24.999Z</time></trkpt><trkpt lat="45.15076716785712" lon="5.730259364376267"><ele>221.5</ele><time>2026-04-25T08:19:25.999Z</time></trkpt><trkpt lat="45.150740305812" lon="5.729895350387431"><ele>223.0</ele><time>2026-04-25T08:19:26.999Z</time></trkpt><trkpt lat="45.15073901312649" lon="5.729521661117627"><ele>225.0</ele><time>2026-04-25T08:19:27.999Z</time></trkpt><trkpt lat="45.15074438676222" lon="5.7291436053938325"><ele>227.0</ele><time>2026-04-25T08:19:28.999Z</time></trkpt><trkpt lat="45.150752222320385" lon="5.728770972415458"><ele>226.5</ele><time>2026-04-25T08:19:29.999Z</time></trkpt><trkpt lat="45.15076155707376" lon="5.728411280573297"><ele>226.0</ele><time>2026-04-25T08:19:30.999Z</time></trkpt><trkpt lat="45.15076776389008" lon="5.728058245668156"><ele>225.5</ele><time>2026-04-25T08:19:31.999Z</time></trkpt><trkpt lat="45.15076863008846" lon="5.727705271183343"><ele>225.0</ele><time>2026-04-25T08:19:32.999Z</time></trkpt><trkpt lat="45.150770931976474" lon="5.727347905080035"><ele>225.0</ele><time>2026-04-25T08:19:33.999Z</time></trkpt><trkpt lat="45.150784366030265" lon="5.726986211843656"><ele>225.0</ele><time>2026-04-25T08:19:34.999Z</time></trkpt><trkpt lat="45.150809330039365" lon="5.726630370596885"><ele>224.5</ele><time>2026-04-25T08:19:35.999Z</time></trkpt><trkpt lat="45.15084467924842" lon="5.7262710362719895"><ele>224.0</ele><time>2026-04-25T08:19:36.998Z</time></trkpt><trkpt lat="45.15088383630698" lon="5.72591574804859"><ele>223.5</ele><time>2026-04-25T08:19:37.998Z</time></trkpt><trkpt lat="45.150925698677" lon="5.72556248738985"><ele>223.0</ele><time>2026-04-25T08:19:38.998Z</time></trkpt><trkpt lat="45.15097179733424" lon="5.725212144659674"><ele>224.0</ele><time>2026-04-25T08:19:39.998Z</time></trkpt><trkpt lat="45.15102398969851" lon="5.724876824778436"><ele>225.0</ele><time>2026-04-25T08:19:40.998Z</time></trkpt><trkpt lat="45.15106931435934" lon="5.7245517030781885"><ele>227.0</ele><time>2026-04-25T08:19:42Z</time></trkpt><trkpt lat="45.15113235154902" lon="5.724218914671896"><ele>229.0</ele><time>2026-04-25T08:19:43Z</time></trkpt><trkpt lat="45.15119116722324" lon="5.723888475343183"><ele>228.5</ele><time>2026-04-25T08:19:44Z</time></trkpt><trkpt lat="45.151259518070134" lon="5.723553099154137"><ele>228.0</ele><time>2026-04-25T08:19:45Z</time></trkpt><trkpt lat="45.151344706916184" lon="5.723211157434995"><ele>228.0</ele><time>2026-04-25T08:19:46Z</time></trkpt><trkpt lat="45.15141680466157" lon="5.722869565724987"><ele>228.0</ele><time>2026-04-25T08:19:47Z</time></trkpt><trkpt lat="45.15149557697253" lon="5.7225394464795"><ele>227.66666666666669</ele><time>2026-04-25T08:19:48Z</time></trkpt><trkpt lat="45.15156165958286" lon="5.7222425256535825"><ele>227.33333333333334</ele><time>2026-04-25T08:19:49Z</time></trkpt><trkpt lat="45.1516232492518" lon="5.721957973671415"><ele>227.0</ele><time>2026-04-25T08:19:50Z</time></trkpt><trkpt lat="45.15168592159657" lon="5.721672853372852"><ele>227.0</ele><time>2026-04-25T08:19:51Z</time></trkpt><trkpt lat="45.15173892190134" lon="5.721379300562287"><ele>227.0</ele><time>2026-04-25T08:19:52Z</time></trkpt><trkpt lat="45.151802030561605" lon="5.721075452554714"><ele>227.0</ele><time>2026-04-25T08:19:53Z</time></trkpt><trkpt lat="45.15186368619926" lon="5.720776665506212"><ele>227.0</ele><time>2026-04-25T08:19:54Z</time></trkpt><trkpt lat="45.15191297378268" lon="5.72047118321625"><ele>227.0</ele><time>2026-04-25T08:19:55Z</time></trkpt><trkpt lat="45.151963342030555" lon="5.720172650842772"><ele>227.0</ele><time>2026-04-25T08:19:56Z</time></trkpt><trkpt lat="45.152008656445254" lon="5.719872292884751"><ele>227.0</ele><time>2026-04-25T08:19:57Z</time></trkpt><trkpt lat="45.15205546408555" lon="5.719581772701363"><ele>227.0</ele><time>2026-04-25T08:19:58Z</time></trkpt><trkpt lat="45.152091232378446" lon="5.719307193159814"><ele>227.0</ele><time>2026-04-25T08:19:59Z</time></trkpt><trkpt lat="45.15213463974758" lon="5.719028699684726"><ele>226.66666666666669</ele><time>2026-04-25T08:20:00Z</time></trkpt><trkpt lat="45.15218521051258" lon="5.718763208540626"><ele>226.33333333333331</ele><time>2026-04-25T08:20:01Z</time></trkpt><trkpt lat="45.15224851472753" lon="5.71850863743687"><ele>226.0</ele><time>2026-04-25T08:20:02Z</time></trkpt><trkpt lat="45.15232427187041" lon="5.718270914603335"><ele>227.0</ele><time>2026-04-25T08:20:03Z</time></trkpt><trkpt lat="45.15240915925104" lon="5.718035431118472"><ele>228.0</ele><time>2026-04-25T08:20:04Z</time></trkpt><trkpt lat="45.15249068237656" lon="5.717822914721301"><ele>229.0</ele><time>2026-04-25T08:20:05Z</time></trkpt><trkpt lat="45.15257612882545" lon="5.717601221658762"><ele>229.0</ele><time>2026-04-25T08:20:06Z</time></trkpt><trkpt lat="45.15267572809453" lon="5.717367741637451"><ele>229.0</ele><time>2026-04-25T08:20:07Z</time></trkpt><trkpt lat="45.15279614176821" lon="5.717138457715059"><ele>229.0</ele><time>2026-04-25T08:20:08Z</time></trkpt><trkpt lat="45.15293134900247" lon="5.716901029478491"><ele>228.66666666666666</ele><time>2026-04-25T08:20:09Z</time></trkpt><trkpt lat="45.15307758246589" lon="5.716663194232545"><ele>228.33333333333331</ele><time>2026-04-25T08:20:10Z</time></trkpt><trkpt lat="45.153233859785665" lon="5.716439895163641"><ele>228.0</ele><time>2026-04-25T08:20:11Z</time></trkpt><trkpt lat="45.15340256379811" lon="5.716229213305903"><ele>228.5</ele><time>2026-04-25T08:20:12Z</time></trkpt><trkpt lat="45.15358189974769" lon="5.716025271930576"><ele>229.0</ele><time>2026-04-25T08:20:13Z</time></trkpt><trkpt lat="45.153758301025334" lon="5.7158273681244"><ele>229.0</ele><time>2026-04-25T08:20:14Z</time></trkpt><trkpt lat="45.15393584432439" lon="5.715628149148501"><ele>229.0</ele><time>2026-04-25T08:20:15Z</time></trkpt><trkpt lat="45.15410703315917" lon="5.7154389590982575"><ele>229.0</ele><time>2026-04-25T08:20:16Z</time></trkpt><trkpt lat="45.15427853488566" lon="5.715249884126488"><ele>228.66666666666666</ele><time>2026-04-25T08:20:17Z</time></trkpt><trkpt lat="45.15444364572378" lon="5.7150601824577025"><ele>228.33333333333331</ele><time>2026-04-25T08:20:18Z</time></trkpt><trkpt lat="45.154605891923296" lon="5.714875592142678"><ele>228.0</ele><time>2026-04-25T08:20:19Z</time></trkpt><trkpt lat="45.1547720710158" lon="5.714692208344413"><ele>227.66666666666669</ele><time>2026-04-25T08:20:20Z</time></trkpt><trkpt lat="45.154938844886956" lon="5.714510978960642"><ele>227.33333333333334</ele><time>2026-04-25T08:20:21Z</time></trkpt><trkpt lat="45.155107942249444" lon="5.714323983157791"><ele>227.0</ele><time>2026-04-25T08:20:21.999Z</time></trkpt><trkpt lat="45.15528488210942" lon="5.714142755925792"><ele>227.66666666666669</ele><time>2026-04-25T08:20:22.999Z</time></trkpt><trkpt lat="45.15546411794012" lon="5.713973219695056"><ele>228.33333333333331</ele><time>2026-04-25T08:20:23.999Z</time></trkpt><trkpt lat="45.15565064186524" lon="5.713813941468946"><ele>229.0</ele><time>2026-04-25T08:20:24.999Z</time></trkpt><trkpt lat="45.15583599548963" lon="5.713665401986659"><ele>227.66666666666666</ele><time>2026-04-25T08:20:25.999Z</time></trkpt><trkpt lat="45.15601043894209" lon="5.713522769502417"><ele>226.33333333333331</ele><time>2026-04-25T08:20:26.999Z</time></trkpt><trkpt lat="45.1561759309877" lon="5.713389017140412"><ele>225.0</ele><time>2026-04-25T08:20:27.999Z</time></trkpt><trkpt lat="45.156336820727795" lon="5.713265780351391"><ele>225.0</ele><time>2026-04-25T08:20:28.999Z</time></trkpt><trkpt lat="45.156499321727225" lon="5.713150218543151"><ele>225.0</ele><time>2026-04-25T08:20:29.999Z</time></trkpt><trkpt lat="45.156658594278205" lon="5.713027997852284"><ele>225.0</ele><time>2026-04-25T08:20:30.999Z</time></trkpt><trkpt lat="45.15680610016258" lon="5.712893958329858"><ele>225.0</ele><time>2026-04-25T08:20:31.999Z</time></trkpt><trkpt lat="45.15694782931721" lon="5.712742088450387"><ele>225.0</ele><time>2026-04-25T08:20:32.999Z</time></trkpt><trkpt lat="45.15708847528609" lon="5.712576438302233"><ele>225.0</ele><time>2026-04-25T08:20:33.999Z</time></trkpt><trkpt lat="45.15722037722813" lon="5.712396309759303"><ele>225.0</ele><time>2026-04-25T08:20:34.999Z</time></trkpt><trkpt lat="45.157344678091704" lon="5.712233200660951"><ele>225.0</ele><time>2026-04-25T08:20:35.999Z</time></trkpt><trkpt lat="45.15747281404335" lon="5.712044719972654"><ele>225.0</ele><time>2026-04-25T08:20:36.999Z</time></trkpt><trkpt lat="45.15760438368169" lon="5.711834114271226"><ele>225.0</ele><time>2026-04-25T08:20:37.999Z</time></trkpt><trkpt lat="45.157735308193615" lon="5.711604255059539"><ele>225.0</ele><time>2026-04-25T08:20:38.999Z</time></trkpt><trkpt lat="45.15786844798254" lon="5.711360683870587"><ele>225.0</ele><time>2026-04-25T08:20:39.999Z</time></trkpt><trkpt lat="45.15799409021507" lon="5.711102236089167"><ele>224.5</ele><time>2026-04-25T08:20:40.999Z</time></trkpt><trkpt lat="45.15811320474479" lon="5.710834655899237"><ele>224.0</ele><time>2026-04-25T08:20:41.999Z</time></trkpt><trkpt lat="45.15822327023256" lon="5.7105495800619055"><ele>224.0</ele><time>2026-04-25T08:20:42.999Z</time></trkpt><trkpt lat="45.15832532857499" lon="5.710257018630462"><ele>224.0</ele><time>2026-04-25T08:20:43.999Z</time></trkpt><trkpt lat="45.158429113804154" lon="5.709957303082485"><ele>223.5</ele><time>2026-04-25T08:20:44.999Z</time></trkpt><trkpt lat="45.15848364158418" lon="5.709630413323569"><ele>223.0</ele><time>2026-04-25T08:20:45.999Z</time></trkpt><trkpt lat="45.15856182012304" lon="5.709316765363765"><ele>223.0</ele><time>2026-04-25T08:20:46.999Z</time></trkpt><trkpt lat="45.158624987578854" lon="5.708986564415953"><ele>223.0</ele><time>2026-04-25T08:20:47.999Z</time></trkpt><trkpt lat="45.15868375915014" lon="5.708663130510156"><ele>225.0</ele><time>2026-04-25T08:20:48.999Z</time></trkpt><trkpt lat="45.15872418097729" lon="5.708334101679716"><ele>227.0</ele><time>2026-04-25T08:20:49.999Z</time></trkpt><trkpt lat="45.158715945140706" lon="5.708026418321748"><ele>227.33333333333334</ele><time>2026-04-25T08:20:50.999Z</time></trkpt><trkpt lat="45.15872826224369" lon="5.707712639968808"><ele>227.66666666666669</ele><time>2026-04-25T08:20:51.999Z</time></trkpt><trkpt lat="45.158738742271844" lon="5.707392648837739"><ele>228.0</ele><time>2026-04-25T08:20:52.999Z</time></trkpt><trkpt lat="45.15873576125984" lon="5.707077423457699"><ele>227.66666666666669</ele><time>2026-04-25T08:20:53.999Z</time></trkpt><trkpt lat="45.158732646285195" lon="5.706767108551957"><ele>227.33333333333334</ele><time>2026-04-25T08:20:54.999Z</time></trkpt><trkpt lat="45.15872973605251" lon="5.706452799346478"><ele>227.0</ele><time>2026-04-25T08:20:55.999Z</time></trkpt><trkpt lat="45.15872992550858" lon="5.706133548655484"><ele>227.0</ele><time>2026-04-25T08:20:57.015Z</time></trkpt><trkpt lat="45.15873768015346" lon="5.705814502548404"><ele>227.0</ele><time>2026-04-25T08:20:58.016Z</time></trkpt><trkpt lat="45.158735720300214" lon="5.705501423709347"><ele>227.0</ele><time>2026-04-25T08:20:59.013Z</time></trkpt><trkpt lat="45.15874030254013" lon="5.705184728763683"><ele>229.0</ele><time>2026-04-25T08:21:00.016Z</time></trkpt><trkpt lat="45.158880940717474" lon="5.703081558012506"><ele>229.0</ele><time>2026-04-25T08:21:10.477Z</time></trkpt><trkpt lat="45.15881657138947" lon="5.702962176879591"><ele>228.99999999999997</ele><time>2026-04-25T08:21:10.999Z</time></trkpt><trkpt lat="45.15885185157187" lon="5.702801350864701"><ele>228.99999999999997</ele><time>2026-04-25T08:21:11.999Z</time></trkpt><trkpt lat="45.15891443412343" lon="5.7026692185437895"><ele>229.0</ele><time>2026-04-25T08:21:12.999Z</time></trkpt><trkpt lat="45.158978278668016" lon="5.702541885605303"><ele>229.0</ele><time>2026-04-25T08:21:13.999Z</time></trkpt><trkpt lat="45.15904783453945" lon="5.702412147133248"><ele>228.75</ele><time>2026-04-25T08:21:14.999Z</time></trkpt><trkpt lat="45.15911644621172" lon="5.70224778200282"><ele>228.5</ele><time>2026-04-25T08:21:15.999Z</time></trkpt><trkpt lat="45.15920612046814" lon="5.702078994270127"><ele>228.25</ele><time>2026-04-25T08:21:16.999Z</time></trkpt><trkpt lat="45.15928773148426" lon="5.701925303483741"><ele>228.0</ele><time>2026-04-25T08:21:17.999Z</time></trkpt><trkpt lat="45.15936431453148" lon="5.7017785614650665"><ele>228.60000000000002</ele><time>2026-04-25T08:21:18.999Z</time></trkpt><trkpt lat="45.15942991370435" lon="5.701657747848864"><ele>229.20000000000002</ele><time>2026-04-25T08:21:19.999Z</time></trkpt><trkpt lat="45.159496946716835" lon="5.701531895370175"><ele>229.8</ele><time>2026-04-25T08:21:20.999Z</time></trkpt><trkpt lat="45.15955773849738" lon="5.701393016714178"><ele>230.4</ele><time>2026-04-25T08:21:21.999Z</time></trkpt><trkpt lat="45.159599427422904" lon="5.701248126757444"><ele>231.0</ele><time>2026-04-25T08:21:22.999Z</time></trkpt><trkpt lat="45.159619878079226" lon="5.701101573452564"><ele>230.0</ele><time>2026-04-25T08:21:23.999Z</time></trkpt><trkpt lat="45.15962022111291" lon="5.700941424542589"><ele>229.0</ele><time>2026-04-25T08:21:24.999Z</time></trkpt><trkpt lat="45.15959320831311" lon="5.700776570288994"><ele>228.0</ele><time>2026-04-25T08:21:25.999Z</time></trkpt><trkpt lat="45.15954142996659" lon="5.700632286953821"><ele>227.0</ele><time>2026-04-25T08:21:26.999Z</time></trkpt><trkpt lat="45.15946320454751" lon="5.700508617792267"><ele>227.0</ele><time>2026-04-25T08:21:27.999Z</time></trkpt><trkpt lat="45.15936670915679" lon="5.700395867978562"><ele>227.0</ele><time>2026-04-25T08:21:28.999Z</time></trkpt><trkpt lat="45.15925188140669" lon="5.700296264603243"><ele>227.0</ele><time>2026-04-25T08:21:29.999Z</time></trkpt><trkpt lat="45.15911147467958" lon="5.700232639508861"><ele>227.0</ele><time>2026-04-25T08:21:30.999Z</time></trkpt><trkpt lat="45.158958701175195" lon="5.700188299724106"><ele>226.5</ele><time>2026-04-25T08:21:31.999Z</time></trkpt><trkpt lat="45.15881937968009" lon="5.700136609894399"><ele>226.0</ele><time>2026-04-25T08:21:32.999Z</time></trkpt><trkpt lat="45.158698102814995" lon="5.700087551312141"><ele>225.5</ele><time>2026-04-25T08:21:33.999Z</time></trkpt><trkpt lat="45.15857401624428" lon="5.7000625140652605"><ele>225.0</ele><time>2026-04-25T08:21:34.999Z</time></trkpt><trkpt lat="45.158459428714465" lon="5.7000715609857675"><ele>225.0</ele><time>2026-04-25T08:21:35.999Z</time></trkpt><trkpt lat="45.158334164213414" lon="5.700138934419243"><ele>225.0</ele><time>2026-04-25T08:21:36.999Z</time></trkpt><trkpt lat="45.15821848477819" lon="5.7002354483406"><ele>225.0</ele><time>2026-04-25T08:21:37.999Z</time></trkpt><trkpt lat="45.158119657592124" lon="5.7003535817732995"><ele>225.0</ele><time>2026-04-25T08:21:38.998Z</time></trkpt><trkpt lat="45.15800841361817" lon="5.700440231738595"><ele>225.25</ele><time>2026-04-25T08:21:39.998Z</time></trkpt><trkpt lat="45.157874682557036" lon="5.70047223530603"><ele>225.5</ele><time>2026-04-25T08:21:40.998Z</time></trkpt><trkpt lat="45.15774440175427" lon="5.700466924257742"><ele>225.75</ele><time>2026-04-25T08:21:41.998Z</time></trkpt><trkpt lat="45.15761774543044" lon="5.700418397422952"><ele>226.0</ele><time>2026-04-25T08:21:42.998Z</time></trkpt><trkpt lat="45.15750550081598" lon="5.700322512614005"><ele>226.33333333333331</ele><time>2026-04-25T08:21:43.998Z</time></trkpt><trkpt lat="45.15736423237842" lon="5.700223975012896"><ele>226.66666666666669</ele><time>2026-04-25T08:21:44.998Z</time></trkpt><trkpt lat="45.15718212641526" lon="5.700108325923884"><ele>227.0</ele><time>2026-04-25T08:21:45.998Z</time></trkpt><trkpt lat="45.156977040724584" lon="5.69997355821715"><ele>227.0</ele><time>2026-04-25T08:21:46.998Z</time></trkpt><trkpt lat="45.15676748036529" lon="5.69981560298807"><ele>227.0</ele><time>2026-04-25T08:21:48Z</time></trkpt><trkpt lat="45.156556070308184" lon="5.699668605623202"><ele>227.66666666666669</ele><time>2026-04-25T08:21:49Z</time></trkpt><trkpt lat="45.156352123439085" lon="5.699570561366706"><ele>228.33333333333331</ele><time>2026-04-25T08:21:50Z</time></trkpt><trkpt lat="45.15616998101657" lon="5.699461889383131"><ele>229.0</ele><time>2026-04-25T08:21:51Z</time></trkpt><trkpt lat="45.15596915086391" lon="5.699354777448887"><ele>227.5</ele><time>2026-04-25T08:21:52Z</time></trkpt><trkpt lat="45.15575451860209" lon="5.699262565343693"><ele>226.0</ele><time>2026-04-25T08:21:53Z</time></trkpt><trkpt lat="45.15553706520422" lon="5.699179220526433"><ele>226.0</ele><time>2026-04-25T08:21:54Z</time></trkpt><trkpt lat="45.15532105096954" lon="5.699124429104595"><ele>226.0</ele><time>2026-04-25T08:21:55Z</time></trkpt><trkpt lat="45.155123361312" lon="5.699027928758721"><ele>226.0</ele><time>2026-04-25T08:21:56Z</time></trkpt><trkpt lat="45.15492548051486" lon="5.6989252371512755"><ele>227.66666666666666</ele><time>2026-04-25T08:21:57Z</time></trkpt><trkpt lat="45.154729350623086" lon="5.698840918927946"><ele>229.33333333333331</ele><time>2026-04-25T08:21:58Z</time></trkpt><trkpt lat="45.15453187419601" lon="5.698743910269178"><ele>231.0</ele><time>2026-04-25T08:21:59Z</time></trkpt><trkpt lat="45.15432942116575" lon="5.698644517579947"><ele>230.33333333333331</ele><time>2026-04-25T08:22:00Z</time></trkpt><trkpt lat="45.154130011395246" lon="5.698549966510381"><ele>229.66666666666666</ele><time>2026-04-25T08:22:01Z</time></trkpt><trkpt lat="45.15392997265856" lon="5.6984575817522405"><ele>229.0</ele><time>2026-04-25T08:22:02Z</time></trkpt><trkpt lat="45.15372596180756" lon="5.698357855133359"><ele>229.0</ele><time>2026-04-25T08:22:03Z</time></trkpt><trkpt lat="45.15353579672896" lon="5.698264709389051"><ele>229.0</ele><time>2026-04-25T08:22:04Z</time></trkpt><trkpt lat="45.153350836544476" lon="5.698176010076145"><ele>229.0</ele><time>2026-04-25T08:22:05Z</time></trkpt><trkpt lat="45.15315775958212" lon="5.698082857067171"><ele>229.66666666666666</ele><time>2026-04-25T08:22:06Z</time></trkpt><trkpt lat="45.1529685549391" lon="5.697994940416394"><ele>230.33333333333331</ele><time>2026-04-25T08:22:07Z</time></trkpt><trkpt lat="45.1527846440594" lon="5.697902426409603"><ele>231.0</ele><time>2026-04-25T08:22:08Z</time></trkpt><trkpt lat="45.152601605352125" lon="5.697813430408402"><ele>230.33333333333331</ele><time>2026-04-25T08:22:09Z</time></trkpt><trkpt lat="45.15241372205001" lon="5.697721588563142"><ele>229.66666666666666</ele><time>2026-04-25T08:22:10Z</time></trkpt><trkpt lat="45.152231999049576" lon="5.69763761051089"><ele>229.0</ele><time>2026-04-25T08:22:11Z</time></trkpt><trkpt lat="45.152071400114316" lon="5.697474083512981"><ele>229.0</ele><time>2026-04-25T08:22:12Z</time></trkpt><trkpt lat="45.15187938011429" lon="5.6973634377970175"><ele>229.0</ele><time>2026-04-25T08:22:13Z</time></trkpt><trkpt lat="45.151648071772" lon="5.697362865036941"><ele>229.0</ele><time>2026-04-25T08:22:14Z</time></trkpt><trkpt lat="45.15144397190991" lon="5.697268932391215"><ele>229.0</ele><time>2026-04-25T08:22:15Z</time></trkpt><trkpt lat="45.15124310093765" lon="5.697177772809052"><ele>229.0</ele><time>2026-04-25T08:22:16Z</time></trkpt><trkpt lat="45.1510312136062" lon="5.697074485226958"><ele>229.0</ele><time>2026-04-25T08:22:17Z</time></trkpt><trkpt lat="45.15080920385921" lon="5.696969761737688"><ele>228.5</ele><time>2026-04-25T08:22:18Z</time></trkpt><trkpt lat="45.15059367462064" lon="5.696869742103992"><ele>228.0</ele><time>2026-04-25T08:22:19Z</time></trkpt><trkpt lat="45.1503675774494" lon="5.696756906846366"><ele>228.0</ele><time>2026-04-25T08:22:20Z</time></trkpt><trkpt lat="45.1501251924803" lon="5.696642943775256"><ele>228.0</ele><time>2026-04-25T08:22:21Z</time></trkpt><trkpt lat="45.14985297394662" lon="5.696516740898605"><ele>228.0</ele><time>2026-04-25T08:22:22Z</time></trkpt><trkpt lat="45.149576166247655" lon="5.696385534018584"><ele>228.0</ele><time>2026-04-25T08:22:23Z</time></trkpt><trkpt lat="45.14929259672449" lon="5.696253659798191"><ele>229.5</ele><time>2026-04-25T08:22:24Z</time></trkpt><trkpt lat="45.14901241255859" lon="5.696123020285133"><ele>231.0</ele><time>2026-04-25T08:22:25Z</time></trkpt><trkpt lat="45.14873604030455" lon="5.69599329824369"><ele>231.0</ele><time>2026-04-25T08:22:26Z</time></trkpt><trkpt lat="45.14846377487136" lon="5.695863451498673"><ele>231.0</ele><time>2026-04-25T08:22:27Z</time></trkpt><trkpt lat="45.14819466580607" lon="5.6957357635863834"><ele>231.0</ele><time>2026-04-25T08:22:28Z</time></trkpt><trkpt lat="45.147929807882186" lon="5.695611824153349"><ele>231.0</ele><time>2026-04-25T08:22:29Z</time></trkpt><trkpt lat="45.14766857816228" lon="5.69548565394219"><ele>231.0</ele><time>2026-04-25T08:22:30Z</time></trkpt><trkpt lat="45.14741051873263" lon="5.695361233251739"><ele>231.0</ele><time>2026-04-25T08:22:31Z</time></trkpt><trkpt lat="45.14715705926957" lon="5.695240865662102"><ele>231.5</ele><time>2026-04-25T08:22:32Z</time></trkpt><trkpt lat="45.14690401518758" lon="5.695117832725504"><ele>232.0</ele><time>2026-04-25T08:22:33Z</time></trkpt><trkpt lat="45.14664924342091" lon="5.694994949096131"><ele>233.5</ele><time>2026-04-25T08:22:34Z</time></trkpt><trkpt lat="45.146388021860126" lon="5.694870648994796"><ele>235.0</ele><time>2026-04-25T08:22:35Z</time></trkpt><trkpt lat="45.146128016146754" lon="5.694749325792224"><ele>235.0</ele><time>2026-04-25T08:22:36Z</time></trkpt><trkpt lat="45.14586120419384" lon="5.6946258905997995"><ele>235.0</ele><time>2026-04-25T08:22:37Z</time></trkpt><trkpt lat="45.14559665082828" lon="5.694500454831447"><ele>233.5</ele><time>2026-04-25T08:22:38Z</time></trkpt><trkpt lat="45.14533076569884" lon="5.694373448749014"><ele>232.0</ele><time>2026-04-25T08:22:39Z</time></trkpt><trkpt lat="45.14506773173145" lon="5.694244081372662"><ele>231.5</ele><time>2026-04-25T08:22:40Z</time></trkpt><trkpt lat="45.14480608393207" lon="5.694118323532898"><ele>231.0</ele><time>2026-04-25T08:22:41Z</time></trkpt><trkpt lat="45.14454336701792" lon="5.693991556320324"><ele>231.0</ele><time>2026-04-25T08:22:42Z</time></trkpt><trkpt lat="45.14427884955923" lon="5.693864677469158"><ele>231.0</ele><time>2026-04-25T08:22:42.999Z</time></trkpt><trkpt lat="45.14401193436764" lon="5.693735989328307"><ele>231.0</ele><time>2026-04-25T08:22:43.999Z</time></trkpt><trkpt lat="45.143747831606596" lon="5.69361063465105"><ele>231.0</ele><time>2026-04-25T08:22:44.999Z</time></trkpt><trkpt lat="45.143487295265885" lon="5.693482473078164"><ele>231.0</ele><time>2026-04-25T08:22:45.999Z</time></trkpt><trkpt lat="45.14322479199212" lon="5.6933532611684665"><ele>231.0</ele><time>2026-04-25T08:22:46.999Z</time></trkpt><trkpt lat="45.14296389748624" lon="5.693224842015217"><ele>231.0</ele><time>2026-04-25T08:22:47.999Z</time></trkpt><trkpt lat="45.14269873723304" lon="5.693102290155688"><ele>231.0</ele><time>2026-04-25T08:22:48.999Z</time></trkpt><trkpt lat="45.14243333720423" lon="5.692977416694055"><ele>231.5</ele><time>2026-04-25T08:22:49.999Z</time></trkpt><trkpt lat="45.14217070634758" lon="5.692852193706131"><ele>232.0</ele><time>2026-04-25T08:22:50.999Z</time></trkpt><trkpt lat="45.141908392767206" lon="5.692726784170597"><ele>232.5</ele><time>2026-04-25T08:22:51.999Z</time></trkpt><trkpt lat="45.14164451536824" lon="5.692602589264638"><ele>233.0</ele><time>2026-04-25T08:22:52.999Z</time></trkpt><trkpt lat="45.14137819334539" lon="5.692477501837702"><ele>233.0</ele><time>2026-04-25T08:22:53.999Z</time></trkpt><trkpt lat="45.14111261311443" lon="5.692352902547567"><ele>233.0</ele><time>2026-04-25T08:22:54.999Z</time></trkpt><trkpt lat="45.14084478485264" lon="5.692227971331609"><ele>234.0</ele><time>2026-04-25T08:22:55.999Z</time></trkpt><trkpt lat="45.14057891908956" lon="5.692104995599158"><ele>235.0</ele><time>2026-04-25T08:22:56.999Z</time></trkpt><trkpt lat="45.14031437981003" lon="5.6919809410359266"><ele>235.0</ele><time>2026-04-25T08:22:57.999Z</time></trkpt><trkpt lat="45.14004512041416" lon="5.691858578372922"><ele>235.0</ele><time>2026-04-25T08:22:58.999Z</time></trkpt><trkpt lat="45.13977875125346" lon="5.691733770159671"><ele>235.5</ele><time>2026-04-25T08:22:59.999Z</time></trkpt><trkpt lat="45.1395097530779" lon="5.691612722673681"><ele>236.0</ele><time>2026-04-25T08:23:00.999Z</time></trkpt><trkpt lat="45.139243010676246" lon="5.691493897976487"><ele>237.5</ele><time>2026-04-25T08:23:01.999Z</time></trkpt><trkpt lat="45.13897979641037" lon="5.691377516875358"><ele>239.0</ele><time>2026-04-25T08:23:02.999Z</time></trkpt><trkpt lat="45.13871352718204" lon="5.691269826151584"><ele>239.0</ele><time>2026-04-25T08:23:03.999Z</time></trkpt><trkpt lat="45.13844519118821" lon="5.6911643056646675"><ele>239.0</ele><time>2026-04-25T08:23:04.999Z</time></trkpt><trkpt lat="45.13817695422454" lon="5.691058129560742"><ele>237.5</ele><time>2026-04-25T08:23:05.999Z</time></trkpt><trkpt lat="45.13790821573436" lon="5.6909561542231595"><ele>236.0</ele><time>2026-04-25T08:23:06.999Z</time></trkpt><trkpt lat="45.13763608879771" lon="5.690858640549916"><ele>238.0</ele><time>2026-04-25T08:23:07.999Z</time></trkpt><trkpt lat="45.13736585816329" lon="5.690772811844149"><ele>240.0</ele><time>2026-04-25T08:23:08.999Z</time></trkpt><trkpt lat="45.13709160653298" lon="5.690701983276006"><ele>240.0</ele><time>2026-04-25T08:23:09.999Z</time></trkpt><trkpt lat="45.136819213271814" lon="5.690642440127415"><ele>240.0</ele><time>2026-04-25T08:23:10.999Z</time></trkpt><trkpt lat="45.13654409743474" lon="5.690587592822582"><ele>238.5</ele><time>2026-04-25T08:23:11.999Z</time></trkpt><trkpt lat="45.136266282985154" lon="5.690530824337453"><ele>237.0</ele><time>2026-04-25T08:23:12.999Z</time></trkpt><trkpt lat="45.1359907181155" lon="5.690473454601206"><ele>237.5</ele><time>2026-04-25T08:23:13.999Z</time></trkpt><trkpt lat="45.135715281625615" lon="5.6904185325887155"><ele>238.0</ele><time>2026-04-25T08:23:14.999Z</time></trkpt><trkpt lat="45.13544030137362" lon="5.690368841064839"><ele>238.0</ele><time>2026-04-25T08:23:15.999Z</time></trkpt><trkpt lat="45.13516323514777" lon="5.690317458470231"><ele>238.0</ele><time>2026-04-25T08:23:16.999Z</time></trkpt><trkpt lat="45.13488411923169" lon="5.690271023423615"><ele>237.5</ele><time>2026-04-25T08:23:17.999Z</time></trkpt><trkpt lat="45.134606292377576" lon="5.690224940121191"><ele>237.0</ele><time>2026-04-25T08:23:18.999Z</time></trkpt><trkpt lat="45.134327771770145" lon="5.6901781332629655"><ele>236.0</ele><time>2026-04-25T08:23:19.999Z</time></trkpt><trkpt lat="45.13405278146224" lon="5.6901314121301505"><ele>235.0</ele><time>2026-04-25T08:23:20.999Z</time></trkpt><trkpt lat="45.133777690529506" lon="5.690088520641046"><ele>235.0</ele><time>2026-04-25T08:23:21.999Z</time></trkpt><trkpt lat="45.13349967616394" lon="5.690060840712767"><ele>235.0</ele><time>2026-04-25T08:23:22.999Z</time></trkpt><trkpt lat="45.13321963652738" lon="5.690047799323827"><ele>234.5</ele><time>2026-04-25T08:23:23.999Z</time></trkpt><trkpt lat="45.132941900615954" lon="5.690049132044975"><ele>234.0</ele><time>2026-04-25T08:23:24.999Z</time></trkpt><trkpt lat="45.13266115923961" lon="5.690057255737799"><ele>234.0</ele><time>2026-04-25T08:23:25.999Z</time></trkpt><trkpt lat="45.13238332270435" lon="5.6900844845863405"><ele>234.0</ele><time>2026-04-25T08:23:26.999Z</time></trkpt><trkpt lat="45.13210410262827" lon="5.690116153784205"><ele>234.0</ele><time>2026-04-25T08:23:27.999Z</time></trkpt><trkpt lat="45.13182171037965" lon="5.690167077120463"><ele>234.0</ele><time>2026-04-25T08:23:28.999Z</time></trkpt><trkpt lat="45.13154285747389" lon="5.69022014898446"><ele>236.0</ele><time>2026-04-25T08:23:29.999Z</time></trkpt><trkpt lat="45.13126610420218" lon="5.690276929877719"><ele>238.0</ele><time>2026-04-25T08:23:30.999Z</time></trkpt><trkpt lat="45.13099035612456" lon="5.690345275200139"><ele>239.5</ele><time>2026-04-25T08:23:31.999Z</time></trkpt><trkpt lat="45.13071145646552" lon="5.690427410082348"><ele>241.0</ele><time>2026-04-25T08:23:32.999Z</time></trkpt><trkpt lat="45.13043698728771" lon="5.69051315712006"><ele>241.0</ele><time>2026-04-25T08:23:33.999Z</time></trkpt><trkpt lat="45.13016566257356" lon="5.690597491925211"><ele>241.0</ele><time>2026-04-25T08:23:34.999Z</time></trkpt><trkpt lat="45.129890850105596" lon="5.6906803329235505"><ele>239.5</ele><time>2026-04-25T08:23:35.999Z</time></trkpt><trkpt lat="45.129620569522174" lon="5.690760697877581"><ele>238.0</ele><time>2026-04-25T08:23:36.999Z</time></trkpt><trkpt lat="45.12935152957305" lon="5.69083714239503"><ele>238.0</ele><time>2026-04-25T08:23:37.999Z</time></trkpt><trkpt lat="45.12907777857176" lon="5.690906156165971"><ele>238.0</ele><time>2026-04-25T08:23:38.999Z</time></trkpt><trkpt lat="45.12879591788708" lon="5.690964046154009"><ele>238.0</ele><time>2026-04-25T08:23:39.999Z</time></trkpt><trkpt lat="45.12851580044886" lon="5.690998684012288"><ele>238.0</ele><time>2026-04-25T08:23:40.999Z</time></trkpt><trkpt lat="45.128235781201525" lon="5.691017137374258"><ele>240.0</ele><time>2026-04-25T08:23:41.999Z</time></trkpt><trkpt lat="45.127950974882125" lon="5.6910185630259615"><ele>242.0</ele><time>2026-04-25T08:23:42.999Z</time></trkpt><trkpt lat="45.12766385065496" lon="5.691000849380331"><ele>241.0</ele><time>2026-04-25T08:23:43.999Z</time></trkpt><trkpt lat="45.12737877540852" lon="5.69096482282086"><ele>240.0</ele><time>2026-04-25T08:23:44.999Z</time></trkpt><trkpt lat="45.127093630527234" lon="5.690910725137395"><ele>240.0</ele><time>2026-04-25T08:23:45.999Z</time></trkpt><trkpt lat="45.126814513533986" lon="5.690849725890508"><ele>240.0</ele><time>2026-04-25T08:23:46.999Z</time></trkpt><trkpt lat="45.12653723781104" lon="5.690760125328785"><ele>239.5</ele><time>2026-04-25T08:23:47.999Z</time></trkpt><trkpt lat="45.12626348622216" lon="5.690649415595627"><ele>239.0</ele><time>2026-04-25T08:23:48.999Z</time></trkpt><trkpt lat="45.12599461224337" lon="5.690523275009901"><ele>239.0</ele><time>2026-04-25T08:23:49.999Z</time></trkpt><trkpt lat="45.125729835021474" lon="5.690390943650691"><ele>239.0</ele><time>2026-04-25T08:23:50.999Z</time></trkpt><trkpt lat="45.12546233103284" lon="5.690255226122027"><ele>241.0</ele><time>2026-04-25T08:23:51.999Z</time></trkpt><trkpt lat="45.12519541016839" lon="5.6901123044188555"><ele>243.0</ele><time>2026-04-25T08:23:52.999Z</time></trkpt><trkpt lat="45.124934675931385" lon="5.6899646680928475"><ele>243.0</ele><time>2026-04-25T08:23:54Z</time></trkpt><trkpt lat="45.12467411800573" lon="5.6898131625456765"><ele>243.0</ele><time>2026-04-25T08:23:55Z</time></trkpt><trkpt lat="45.12441424710833" lon="5.689659601243464"><ele>243.0</ele><time>2026-04-25T08:23:56Z</time></trkpt><trkpt lat="45.12415111463985" lon="5.6895069809087495"><ele>243.0</ele><time>2026-04-25T08:23:57Z</time></trkpt><trkpt lat="45.123893860820885" lon="5.6893450581307885"><ele>245.0</ele><time>2026-04-25T08:23:58Z</time></trkpt><trkpt lat="45.123636125334556" lon="5.689193484150345"><ele>247.0</ele><time>2026-04-25T08:23:59Z</time></trkpt><trkpt lat="45.123377248945815" lon="5.689044313831953"><ele>246.0</ele><time>2026-04-25T08:24:00Z</time></trkpt><trkpt lat="45.123125146601645" lon="5.688892766034644"><ele>245.0</ele><time>2026-04-25T08:24:01Z</time></trkpt><trkpt lat="45.1228621087523" lon="5.688723864000869"><ele>245.5</ele><time>2026-04-25T08:24:02Z</time></trkpt><trkpt lat="45.12259927118538" lon="5.688561044663113"><ele>246.0</ele><time>2026-04-25T08:24:03Z</time></trkpt><trkpt lat="45.12234144362737" lon="5.688389868934395"><ele>244.5</ele><time>2026-04-25T08:24:04Z</time></trkpt><trkpt lat="45.1220843892804" lon="5.688220042100274"><ele>243.0</ele><time>2026-04-25T08:24:05Z</time></trkpt><trkpt lat="45.12182809464839" lon="5.688049319911848"><ele>243.0</ele><time>2026-04-25T08:24:06Z</time></trkpt><trkpt lat="45.121574393816154" lon="5.687885845822321"><ele>243.0</ele><time>2026-04-25T08:24:07Z</time></trkpt><trkpt lat="45.12131906367027" lon="5.687715023784592"><ele>244.0</ele><time>2026-04-25T08:24:08Z</time></trkpt><trkpt lat="45.12106295688113" lon="5.687551602897802"><ele>245.0</ele><time>2026-04-25T08:24:09Z</time></trkpt><trkpt lat="45.12080891399949" lon="5.687385170068641"><ele>243.5</ele><time>2026-04-25T08:24:10Z</time></trkpt><trkpt lat="45.12056565087042" lon="5.687219653386214"><ele>242.0</ele><time>2026-04-25T08:24:11Z</time></trkpt><trkpt lat="45.12033105943566" lon="5.687070004377564"><ele>242.5</ele><time>2026-04-25T08:24:12Z</time></trkpt><trkpt lat="45.1200964036734" lon="5.686923312121938"><ele>243.0</ele><time>2026-04-25T08:24:13Z</time></trkpt><trkpt lat="45.11985883141268" lon="5.686773147475382"><ele>243.0</ele><time>2026-04-25T08:24:14Z</time></trkpt><trkpt lat="45.119626761297965" lon="5.686627308415123"><ele>243.0</ele><time>2026-04-25T08:24:15Z</time></trkpt><trkpt lat="45.1193954225339" lon="5.6864770798576"><ele>243.0</ele><time>2026-04-25T08:24:16Z</time></trkpt><trkpt lat="45.11914849730254" lon="5.686303909159325"><ele>243.0</ele><time>2026-04-25T08:24:17Z</time></trkpt><trkpt lat="45.11890843323146" lon="5.686142577244392"><ele>243.5</ele><time>2026-04-25T08:24:18Z</time></trkpt><trkpt lat="45.118669451215055" lon="5.685981894352196"><ele>244.0</ele><time>2026-04-25T08:24:19Z</time></trkpt><trkpt lat="45.118428579019536" lon="5.685820918502513"><ele>244.0</ele><time>2026-04-25T08:24:20Z</time></trkpt><trkpt lat="45.118189384771384" lon="5.685665327170509"><ele>244.0</ele><time>2026-04-25T08:24:21Z</time></trkpt><trkpt lat="45.11794760828739" lon="5.6855082971804665"><ele>244.0</ele><time>2026-04-25T08:24:22Z</time></trkpt><trkpt lat="45.11770525730417" lon="5.6853499486235135"><ele>244.0</ele><time>2026-04-25T08:24:23Z</time></trkpt><trkpt lat="45.11746215918128" lon="5.685194035687559"><ele>244.0</ele><time>2026-04-25T08:24:24Z</time></trkpt><trkpt lat="45.117219378456475" lon="5.685036186674996"><ele>244.0</ele><time>2026-04-25T08:24:25Z</time></trkpt><trkpt lat="45.116982174163645" lon="5.684873319377397"><ele>244.0</ele><time>2026-04-25T08:24:26Z</time></trkpt><trkpt lat="45.116732510657926" lon="5.684708005184195"><ele>244.0</ele><time>2026-04-25T08:24:27Z</time></trkpt><trkpt lat="45.116473906978676" lon="5.684544796961528"><ele>245.5</ele><time>2026-04-25T08:24:28Z</time></trkpt><trkpt lat="45.116216271925445" lon="5.684379317812339"><ele>247.0</ele><time>2026-04-25T08:24:29Z</time></trkpt><trkpt lat="45.115956036191264" lon="5.684208144768982"><ele>246.5</ele><time>2026-04-25T08:24:30Z</time></trkpt><trkpt lat="45.11569289837208" lon="5.684037331544077"><ele>246.0</ele><time>2026-04-25T08:24:31Z</time></trkpt><trkpt lat="45.11543044407911" lon="5.683866246766278"><ele>246.0</ele><time>2026-04-25T08:24:32Z</time></trkpt><trkpt lat="45.11516283563225" lon="5.683697543736431"><ele>246.0</ele><time>2026-04-25T08:24:33Z</time></trkpt><trkpt lat="45.11489339755392" lon="5.683529691579305"><ele>247.0</ele><time>2026-04-25T08:24:34Z</time></trkpt><trkpt lat="45.11462679694719" lon="5.683364574017636"><ele>248.0</ele><time>2026-04-25T08:24:35Z</time></trkpt><trkpt lat="45.11436080235213" lon="5.68320109057503"><ele>248.0</ele><time>2026-04-25T08:24:36Z</time></trkpt><trkpt lat="45.114097848593744" lon="5.6830571503924165"><ele>248.0</ele><time>2026-04-25T08:24:37Z</time></trkpt><trkpt lat="45.11383660066221" lon="5.682920624980693"><ele>248.0</ele><time>2026-04-25T08:24:38Z</time></trkpt><trkpt lat="45.11357012028129" lon="5.682789139775898"><ele>248.0</ele><time>2026-04-25T08:24:39Z</time></trkpt><trkpt lat="45.11330271618315" lon="5.682664797819037"><ele>249.0</ele><time>2026-04-25T08:24:40Z</time></trkpt><trkpt lat="45.11303305666104" lon="5.682543668364935"><ele>250.0</ele><time>2026-04-25T08:24:41Z</time></trkpt><trkpt lat="45.112764070621054" lon="5.68243057199288"><ele>250.0</ele><time>2026-04-25T08:24:42Z</time></trkpt><trkpt lat="45.112488222024666" lon="5.682318735177492"><ele>250.0</ele><time>2026-04-25T08:24:43Z</time></trkpt><trkpt lat="45.11221958946492" lon="5.682193515917195"><ele>250.0</ele><time>2026-04-25T08:24:44Z</time></trkpt><trkpt lat="45.111952493841365" lon="5.682062272988931"><ele>250.0</ele><time>2026-04-25T08:24:45Z</time></trkpt><trkpt lat="45.11168228102351" lon="5.681916843049832"><ele>250.5</ele><time>2026-04-25T08:24:46Z</time></trkpt><trkpt lat="45.1114180698683" lon="5.681754976827889"><ele>251.0</ele><time>2026-04-25T08:24:47Z</time></trkpt><trkpt lat="45.11115479130791" lon="5.6815791393506565"><ele>251.0</ele><time>2026-04-25T08:24:48Z</time></trkpt><trkpt lat="45.11089617550578" lon="5.681390953095886"><ele>251.0</ele><time>2026-04-25T08:24:49Z</time></trkpt><trkpt lat="45.11063961685003" lon="5.681193903471425"><ele>250.0</ele><time>2026-04-25T08:24:50Z</time></trkpt><trkpt lat="45.11038731924784" lon="5.680987108872762"><ele>249.0</ele><time>2026-04-25T08:24:51Z</time></trkpt><trkpt lat="45.11013954389448" lon="5.68077086222269"><ele>250.0</ele><time>2026-04-25T08:24:52Z</time></trkpt><trkpt lat="45.10989998817499" lon="5.680549258507469"><ele>251.0</ele><time>2026-04-25T08:24:52.999Z</time></trkpt><trkpt lat="45.109644593999185" lon="5.680322084326931"><ele>254.0</ele><time>2026-04-25T08:24:53.999Z</time></trkpt><trkpt lat="45.10939885107779" lon="5.680095904594983"><ele>257.0</ele><time>2026-04-25T08:24:54.999Z</time></trkpt><trkpt lat="45.10915448850605" lon="5.679873798056306"><ele>257.0</ele><time>2026-04-25T08:24:55.999Z</time></trkpt><trkpt lat="45.10891086535244" lon="5.679657465132709"><ele>257.0</ele><time>2026-04-25T08:24:56.999Z</time></trkpt><trkpt lat="45.10867126292659" lon="5.679445625868769"><ele>258.5</ele><time>2026-04-25T08:24:57.999Z</time></trkpt><trkpt lat="45.108423419262294" lon="5.679236027910905"><ele>260.0</ele><time>2026-04-25T08:24:58.999Z</time></trkpt><trkpt lat="45.108158720156865" lon="5.679035768378981"><ele>260.0</ele><time>2026-04-25T08:24:59.999Z</time></trkpt><trkpt lat="45.10788133150506" lon="5.6788426168945545"><ele>260.0</ele><time>2026-04-25T08:25:00.999Z</time></trkpt><trkpt lat="45.10759525768961" lon="5.678656607405367"><ele>261.0</ele><time>2026-04-25T08:25:01.999Z</time></trkpt><trkpt lat="45.10729813198138" lon="5.678485625751405"><ele>262.0</ele><time>2026-04-25T08:25:02.999Z</time></trkpt><trkpt lat="45.10700679608241" lon="5.6783160521352976"><ele>262.0</ele><time>2026-04-25T08:25:03.999Z</time></trkpt><trkpt lat="45.106706994841204" lon="5.678155923427815"><ele>262.0</ele><time>2026-04-25T08:25:04.999Z</time></trkpt><trkpt lat="45.10640635244203" lon="5.677997952624897"><ele>261.0</ele><time>2026-04-25T08:25:05.999Z</time></trkpt><trkpt lat="45.10610558514477" lon="5.67784754576567"><ele>260.0</ele><time>2026-04-25T08:25:06.999Z</time></trkpt><trkpt lat="45.105804657129816" lon="5.677692349806361"><ele>261.0</ele><time>2026-04-25T08:25:07.999Z</time></trkpt><trkpt lat="45.105505456346414" lon="5.677537964723729"><ele>262.0</ele><time>2026-04-25T08:25:08.999Z</time></trkpt><trkpt lat="45.10520122645252" lon="5.67738512339625"><ele>261.5</ele><time>2026-04-25T08:25:09.999Z</time></trkpt><trkpt lat="45.104900018002645" lon="5.677227702518454"><ele>261.0</ele><time>2026-04-25T08:25:10.999Z</time></trkpt><trkpt lat="45.10459994268711" lon="5.677071922571286"><ele>261.5</ele><time>2026-04-25T08:25:11.999Z</time></trkpt><trkpt lat="45.10429803496587" lon="5.6769199726262425"><ele>262.0</ele><time>2026-04-25T08:25:12.999Z</time></trkpt><trkpt lat="45.103997305794366" lon="5.676768331928647"><ele>262.5</ele><time>2026-04-25T08:25:13.999Z</time></trkpt><trkpt lat="45.10369652526499" lon="5.67661427145288"><ele>263.0</ele><time>2026-04-25T08:25:14.999Z</time></trkpt><trkpt lat="45.103392692434575" lon="5.676462048591859"><ele>263.5</ele><time>2026-04-25T08:25:15.999Z</time></trkpt><trkpt lat="45.10309066897013" lon="5.676309098336895"><ele>264.0</ele><time>2026-04-25T08:25:16.999Z</time></trkpt><trkpt lat="45.102789333110465" lon="5.67615506155971"><ele>264.5</ele><time>2026-04-25T08:25:17.999Z</time></trkpt><trkpt lat="45.1024899552865" lon="5.6759963693082325"><ele>265.0</ele><time>2026-04-25T08:25:18.999Z</time></trkpt><trkpt lat="45.102187344502624" lon="5.675838262893072"><ele>265.0</ele><time>2026-04-25T08:25:19.999Z</time></trkpt><trkpt lat="45.10188396801605" lon="5.675682482603167"><ele>265.0</ele><time>2026-04-25T08:25:20.999Z</time></trkpt><trkpt lat="45.101576669607475" lon="5.675526292125483"><ele>264.5</ele><time>2026-04-25T08:25:21.999Z</time></trkpt><trkpt lat="45.10127026319975" lon="5.675371676284163"><ele>264.0</ele><time>2026-04-25T08:25:22.999Z</time></trkpt><trkpt lat="45.10095731303893" lon="5.675223148845663"><ele>263.5</ele><time>2026-04-25T08:25:23.999Z</time></trkpt><trkpt lat="45.10063240977302" lon="5.675080870406371"><ele>263.0</ele><time>2026-04-25T08:25:24.999Z</time></trkpt><trkpt lat="45.1003099295436" lon="5.674928585316075"><ele>263.0</ele><time>2026-04-25T08:25:25.999Z</time></trkpt><trkpt lat="45.099995853026975" lon="5.674758388145084"><ele>263.0</ele><time>2026-04-25T08:25:26.999Z</time></trkpt><trkpt lat="45.09968922362365" lon="5.674568815648103"><ele>265.5</ele><time>2026-04-25T08:25:27.999Z</time></trkpt><trkpt lat="45.09939149523685" lon="5.674359248828748"><ele>268.0</ele><time>2026-04-25T08:25:28.999Z</time></trkpt><trkpt lat="45.099103500613836" lon="5.674136399737647"><ele>265.5</ele><time>2026-04-25T08:25:29.999Z</time></trkpt><trkpt lat="45.09882095386237" lon="5.673897753661337"><ele>263.0</ele><time>2026-04-25T08:25:30.999Z</time></trkpt><trkpt lat="45.098545194906045" lon="5.673648657745566"><ele>265.0</ele><time>2026-04-25T08:25:31.999Z</time></trkpt><trkpt lat="45.09827558898775" lon="5.673388045905636"><ele>267.0</ele><time>2026-04-25T08:25:32.999Z</time></trkpt><trkpt lat="45.09801555859751" lon="5.673113163510681"><ele>267.5</ele><time>2026-04-25T08:25:33.999Z</time></trkpt><trkpt lat="45.097757612836574" lon="5.672828884611204"><ele>268.0</ele><time>2026-04-25T08:25:34.999Z</time></trkpt><trkpt lat="45.09750360669254" lon="5.672541724555606"><ele>268.0</ele><time>2026-04-25T08:25:35.999Z</time></trkpt><trkpt lat="45.09724382441331" lon="5.672265646615601"><ele>268.0</ele><time>2026-04-25T08:25:36.999Z</time></trkpt><trkpt lat="45.09698503066665" lon="5.671999896601721"><ele>268.0</ele><time>2026-04-25T08:25:37.999Z</time></trkpt><trkpt lat="45.09671836886878" lon="5.671745722441603"><ele>268.0</ele><time>2026-04-25T08:25:38.999Z</time></trkpt><trkpt lat="45.09644832678407" lon="5.671507703976408"><ele>268.0</ele><time>2026-04-25T08:25:39.999Z</time></trkpt><trkpt lat="45.096173938671434" lon="5.671279059112414"><ele>268.0</ele><time>2026-04-25T08:25:40.999Z</time></trkpt><trkpt lat="45.09589209564657" lon="5.6710635390442174"><ele>269.5</ele><time>2026-04-25T08:25:41.999Z</time></trkpt><trkpt lat="45.095605411652635" lon="5.670865043823777"><ele>271.0</ele><time>2026-04-25T08:25:42.999Z</time></trkpt><trkpt lat="45.095309066802585" lon="5.670679490002551"><ele>271.0</ele><time>2026-04-25T08:25:43.999Z</time></trkpt><trkpt lat="45.095012606187254" lon="5.67050461228476"><ele>271.0</ele><time>2026-04-25T08:25:44.999Z</time></trkpt><trkpt lat="45.09470875765437" lon="5.670343037044783"><ele>272.0</ele><time>2026-04-25T08:25:45.999Z</time></trkpt><trkpt lat="45.09440265151729" lon="5.6701992096799865"><ele>273.0</ele><time>2026-04-25T08:25:46.999Z</time></trkpt><trkpt lat="45.09409170224615" lon="5.670065750653699"><ele>273.5</ele><time>2026-04-25T08:25:47.999Z</time></trkpt><trkpt lat="45.09377934221967" lon="5.669946467015014"><ele>274.0</ele><time>2026-04-25T08:25:48.999Z</time></trkpt><trkpt lat="45.09346524189006" lon="5.669835613140018"><ele>275.0</ele><time>2026-04-25T08:25:49.999Z</time></trkpt><trkpt lat="45.0931460116761" lon="5.669736148845142"><ele>276.0</ele><time>2026-04-25T08:25:50.999Z</time></trkpt><trkpt lat="45.09283174495898" lon="5.669633551666728"><ele>276.0</ele><time>2026-04-25T08:25:51.999Z</time></trkpt><trkpt lat="45.09251902930356" lon="5.669532321506376"><ele>276.0</ele><time>2026-04-25T08:25:52.999Z</time></trkpt><trkpt lat="45.09220589886317" lon="5.6694307981859025"><ele>277.5</ele><time>2026-04-25T08:25:53.999Z</time></trkpt><trkpt lat="45.09189142267599" lon="5.669323929406498"><ele>279.0</ele><time>2026-04-25T08:25:54.999Z</time></trkpt><trkpt lat="45.09157641048007" lon="5.669220636112354"><ele>280.0</ele><time>2026-04-25T08:25:55.999Z</time></trkpt><trkpt lat="45.09125934304855" lon="5.669119866435483"><ele>281.0</ele><time>2026-04-25T08:25:56.999Z</time></trkpt><trkpt lat="45.0909426831454" lon="5.669026837035693"><ele>280.5</ele><time>2026-04-25T08:25:57.999Z</time></trkpt><trkpt lat="45.09061967746226" lon="5.6689705052206305"><ele>280.0</ele><time>2026-04-25T08:25:58.999Z</time></trkpt><trkpt lat="45.09029357998557" lon="5.668942779190801"><ele>280.0</ele><time>2026-04-25T08:26:00Z</time></trkpt><trkpt lat="45.089964268140996" lon="5.668944614465207"><ele>280.0</ele><time>2026-04-25T08:26:01Z</time></trkpt><trkpt lat="45.089625090850696" lon="5.66897070768424"><ele>280.0</ele><time>2026-04-25T08:26:02Z</time></trkpt><trkpt lat="45.08927064754729" lon="5.669035891956312"><ele>280.0</ele><time>2026-04-25T08:26:03Z</time></trkpt><trkpt lat="45.08891933646834" lon="5.6691318789532525"><ele>280.0</ele><time>2026-04-25T08:26:04Z</time></trkpt><trkpt lat="45.08857298695745" lon="5.669275190385737"><ele>280.0</ele><time>2026-04-25T08:26:05Z</time></trkpt><trkpt lat="45.08824642283066" lon="5.669444117274249"><ele>281.0</ele><time>2026-04-25T08:26:06Z</time></trkpt><trkpt lat="45.08792759248277" lon="5.669659940942807"><ele>282.0</ele><time>2026-04-25T08:26:07Z</time></trkpt><trkpt lat="45.08761612806449" lon="5.669910258136256"><ele>283.0</ele><time>2026-04-25T08:26:08Z</time></trkpt><trkpt lat="45.08731549347169" lon="5.67019492994165"><ele>284.0</ele><time>2026-04-25T08:26:09Z</time></trkpt><trkpt lat="45.08703321888693" lon="5.670523443168082"><ele>284.5</ele><time>2026-04-25T08:26:10Z</time></trkpt><trkpt lat="45.08676689595024" lon="5.670878338440157"><ele>285.0</ele><time>2026-04-25T08:26:11Z</time></trkpt><trkpt lat="45.08652105957144" lon="5.671261063942427"><ele>285.5</ele><time>2026-04-25T08:26:12Z</time></trkpt><trkpt lat="45.086295966232726" lon="5.671669188082125"><ele>286.0</ele><time>2026-04-25T08:26:13Z</time></trkpt><trkpt lat="45.086090908887314" lon="5.672098044772258"><ele>286.0</ele><time>2026-04-25T08:26:14Z</time></trkpt><trkpt lat="45.08589430810764" lon="5.672540629531273"><ele>286.0</ele><time>2026-04-25T08:26:15Z</time></trkpt><trkpt lat="45.08569734881475" lon="5.672967513503626"><ele>285.5</ele><time>2026-04-25T08:26:16Z</time></trkpt><trkpt lat="45.085507974294075" lon="5.673350924631495"><ele>285.0</ele><time>2026-04-25T08:26:17Z</time></trkpt><trkpt lat="45.08532964501799" lon="5.673710312746456"><ele>285.0</ele><time>2026-04-25T08:26:18Z</time></trkpt><trkpt lat="45.08516604506049" lon="5.674046441840376"><ele>285.0</ele><time>2026-04-25T08:26:19Z</time></trkpt><trkpt lat="45.085006449200314" lon="5.674353889726331"><ele>286.5</ele><time>2026-04-25T08:26:20Z</time></trkpt><trkpt lat="45.0848368997801" lon="5.67463908597533"><ele>288.0</ele><time>2026-04-25T08:26:21Z</time></trkpt><trkpt lat="45.084659951549845" lon="5.674906359752162"><ele>288.0</ele><time>2026-04-25T08:26:22Z</time></trkpt><trkpt lat="45.084475872977215" lon="5.675169888871377"><ele>288.0</ele><time>2026-04-25T08:26:23Z</time></trkpt><trkpt lat="45.084281692245675" lon="5.6754261719249035"><ele>289.5</ele><time>2026-04-25T08:26:24Z</time></trkpt><trkpt lat="45.084128722016956" lon="5.675676962529795"><ele>291.0</ele><time>2026-04-25T08:26:25Z</time></trkpt><trkpt lat="45.08370242741681" lon="5.676415029255678"><ele>320.5</ele><time>2026-04-25T08:26:26Z</time></trkpt><trkpt lat="45.08348082275382" lon="5.676724390193036"><ele>350.0</ele><time>2026-04-25T08:26:27Z</time></trkpt><trkpt lat="45.083241103653116" lon="5.677012483380622"><ele>368.5</ele><time>2026-04-25T08:26:28.014Z</time></trkpt><trkpt lat="45.08299465430189" lon="5.677266216666413"><ele>387.0</ele><time>2026-04-25T08:26:29.015Z</time></trkpt><trkpt lat="45.08274017031215" lon="5.6775034709647825"><ele>295.0</ele><time>2026-04-25T08:26:30.015Z</time></trkpt><trkpt lat="45.08091415614044" lon="5.678693434402377"><ele>284.0</ele><time>2026-04-25T08:26:33.372Z</time></trkpt><trkpt lat="45.07987656169112" lon="5.6790745072119675"><ele>284.0</ele><time>2026-04-25T08:26:39Z</time></trkpt><trkpt lat="45.07954538850568" lon="5.679185514677335"><ele>284.0</ele><time>2026-04-25T08:26:40Z</time></trkpt><trkpt lat="45.07922135587436" lon="5.679276276852213"><ele>283.0</ele><time>2026-04-25T08:26:41Z</time></trkpt><trkpt lat="45.078886397009114" lon="5.67933066855742"><ele>282.0</ele><time>2026-04-25T08:26:42Z</time></trkpt><trkpt lat="45.07855362766598" lon="5.679377453781752"><ele>282.5</ele><time>2026-04-25T08:26:43Z</time></trkpt><trkpt lat="45.07822324038634" lon="5.679412716189223"><ele>283.0</ele><time>2026-04-25T08:26:44Z</time></trkpt><trkpt lat="45.077911637212445" lon="5.679417301802645"><ele>283.0</ele><time>2026-04-25T08:26:45Z</time></trkpt><trkpt lat="45.07760447538981" lon="5.67943497155045"><ele>283.0</ele><time>2026-04-25T08:26:46Z</time></trkpt><trkpt lat="45.07732914411364" lon="5.67943078094581"><ele>283.5</ele><time>2026-04-25T08:26:47Z</time></trkpt><trkpt lat="45.07707880495153" lon="5.679440646355316"><ele>284.0</ele><time>2026-04-25T08:26:48Z</time></trkpt><trkpt lat="45.07682508957155" lon="5.679433741092941"><ele>285.0</ele><time>2026-04-25T08:26:49Z</time></trkpt><trkpt lat="45.076587246081345" lon="5.679416943253917"><ele>286.0</ele><time>2026-04-25T08:26:50Z</time></trkpt><trkpt lat="45.076363540881104" lon="5.679390332294626"><ele>286.0</ele><time>2026-04-25T08:26:51Z</time></trkpt><trkpt lat="45.076155136693586" lon="5.6792962331376105"><ele>286.0</ele><time>2026-04-25T08:26:52Z</time></trkpt><trkpt lat="45.075979221648865" lon="5.679136572222441"><ele>286.0</ele><time>2026-04-25T08:26:53Z</time></trkpt><trkpt lat="45.07583168518916" lon="5.678943990651214"><ele>285.5</ele><time>2026-04-25T08:26:54Z</time></trkpt><trkpt lat="45.07570285668547" lon="5.67873577016983"><ele>285.0</ele><time>2026-04-25T08:26:55Z</time></trkpt><trkpt lat="45.07559790164554" lon="5.678606522411453"><ele>284.5</ele><time>2026-04-25T08:26:56Z</time></trkpt><trkpt lat="45.07550665450978" lon="5.67851211071107"><ele>284.0</ele><time>2026-04-25T08:26:57Z</time></trkpt><trkpt lat="45.07526503902034" lon="5.678369923973715"><ele>284.0</ele><time>2026-04-25T08:26:58Z</time></trkpt><trkpt lat="45.07510731078228" lon="5.678307435328119"><ele>284.0</ele><time>2026-04-25T08:26:59Z</time></trkpt><trkpt lat="45.074951333323746" lon="5.678223689135183"><ele>284.0</ele><time>2026-04-25T08:27:00Z</time></trkpt><trkpt lat="45.074791648275635" lon="5.678170220583808"><ele>284.6666666666667</ele><time>2026-04-25T08:27:00.999Z</time></trkpt><trkpt lat="45.07463154371729" lon="5.678119618793827"><ele>285.3333333333333</ele><time>2026-04-25T08:27:01.999Z</time></trkpt><trkpt lat="45.07447556600896" lon="5.67806712773355"><ele>286.0</ele><time>2026-04-25T08:27:02.999Z</time></trkpt><trkpt lat="45.07432302386422" lon="5.678008826898618"><ele>286.0</ele><time>2026-04-25T08:27:03.999Z</time></trkpt><trkpt lat="45.07417444581436" lon="5.677955469994225"><ele>286.0</ele><time>2026-04-25T08:27:04.999Z</time></trkpt><trkpt lat="45.07403671873803" lon="5.6779055897023625"><ele>286.0</ele><time>2026-04-25T08:27:05.999Z</time></trkpt><trkpt lat="45.07391263444589" lon="5.677860633332154"><ele>286.0</ele><time>2026-04-25T08:27:06.999Z</time></trkpt><trkpt lat="45.073796088877785" lon="5.677816210354084"><ele>286.0</ele><time>2026-04-25T08:27:07.999Z</time></trkpt><trkpt lat="45.073695728785694" lon="5.677774305795456"><ele>286.0</ele><time>2026-04-25T08:27:08.999Z</time></trkpt><trkpt lat="45.07360478581207" lon="5.6777382812950785"><ele>286.0</ele><time>2026-04-25T08:27:09.999Z</time></trkpt><trkpt lat="45.073529091483074" lon="5.677695442919134"><ele>286.0</ele><time>2026-04-25T08:27:10.999Z</time></trkpt><trkpt lat="45.07347441447201" lon="5.677625513398538"><ele>286.0</ele><time>2026-04-25T08:27:11.999Z</time></trkpt><trkpt lat="45.07344086010328" lon="5.6775250963516655"><ele>286.0</ele><time>2026-04-25T08:27:12.999Z</time></trkpt><trkpt lat="45.07342758884413" lon="5.677433714296377"><ele>286.25</ele><time>2026-04-25T08:27:13.999Z</time></trkpt><trkpt lat="45.07351078056939" lon="5.677143065075361"><ele>286.5</ele><time>2026-04-25T08:27:15.999Z</time></trkpt><trkpt lat="45.073488813650144" lon="5.677009175476477"><ele>286.75</ele><time>2026-04-25T08:27:16.999Z</time></trkpt><trkpt lat="45.073419985343136" lon="5.676909461101919"><ele>287.0</ele><time>2026-04-25T08:27:17.999Z</time></trkpt><trkpt lat="45.07331922177609" lon="5.676861202626129"><ele>286.75</ele><time>2026-04-25T08:27:18.999Z</time></trkpt><trkpt lat="45.07320490507123" lon="5.676809414895566"><ele>286.5</ele><time>2026-04-25T08:27:19.999Z</time></trkpt><trkpt lat="45.073083330507146" lon="5.676720171014796"><ele>286.25</ele><time>2026-04-25T08:27:20.999Z</time></trkpt><trkpt lat="45.07296526241692" lon="5.676613440855204"><ele>286.0</ele><time>2026-04-25T08:27:21.999Z</time></trkpt><trkpt lat="45.07283716840939" lon="5.67651759134087"><ele>286.0</ele><time>2026-04-25T08:27:22.999Z</time></trkpt><trkpt lat="45.07271562760181" lon="5.676441386320032"><ele>286.0</ele><time>2026-04-25T08:27:23.999Z</time></trkpt><trkpt lat="45.07258597463709" lon="5.6763675649463705"><ele>286.0</ele><time>2026-04-25T08:27:24.999Z</time></trkpt><trkpt lat="45.07242808821302" lon="5.676275202342267"><ele>286.0</ele><time>2026-04-25T08:27:25.999Z</time></trkpt><trkpt lat="45.07224294350982" lon="5.676172388730495"><ele>286.3333333333333</ele><time>2026-04-25T08:27:26.999Z</time></trkpt><trkpt lat="45.07205297954639" lon="5.676033326442372"><ele>286.6666666666667</ele><time>2026-04-25T08:27:27.999Z</time></trkpt><trkpt lat="45.07184791258962" lon="5.675923940118179"><ele>287.0</ele><time>2026-04-25T08:27:28.999Z</time></trkpt><trkpt lat="45.07164974742157" lon="5.675791757606133"><ele>287.6666666666667</ele><time>2026-04-25T08:27:29.999Z</time></trkpt><trkpt lat="45.071449540988965" lon="5.675664037246972"><ele>288.3333333333333</ele><time>2026-04-25T08:27:30.999Z</time></trkpt><trkpt lat="45.071252346749056" lon="5.6755424806518855"><ele>289.0</ele><time>2026-04-25T08:27:31.999Z</time></trkpt><trkpt lat="45.07105481405649" lon="5.675420033179519"><ele>289.0</ele><time>2026-04-25T08:27:32.999Z</time></trkpt><trkpt lat="45.07086287797011" lon="5.67529930231243"><ele>289.0</ele><time>2026-04-25T08:27:33.999Z</time></trkpt><trkpt lat="45.070665754744795" lon="5.67517789684727"><ele>289.0</ele><time>2026-04-25T08:27:34.999Z</time></trkpt><trkpt lat="45.07047260957457" lon="5.675059350709307"><ele>290.0</ele><time>2026-04-25T08:27:35.999Z</time></trkpt><trkpt lat="45.07029088829532" lon="5.674946795292743"><ele>291.0</ele><time>2026-04-25T08:27:36.999Z</time></trkpt><trkpt lat="45.0701150251821" lon="5.67483675003414"><ele>292.0</ele><time>2026-04-25T08:27:37.999Z</time></trkpt><trkpt lat="45.06992828591087" lon="5.674700904940428"><ele>292.0</ele><time>2026-04-25T08:27:38.999Z</time></trkpt><trkpt lat="45.06971561884964" lon="5.674567045609573"><ele>292.0</ele><time>2026-04-25T08:27:39.999Z</time></trkpt><trkpt lat="45.069512756916595" lon="5.6744393595163105"><ele>292.0</ele><time>2026-04-25T08:27:40.999Z</time></trkpt><trkpt lat="45.069307253550164" lon="5.674310009136669"><ele>292.0</ele><time>2026-04-25T08:27:41.999Z</time></trkpt><trkpt lat="45.06909803341011" lon="5.674179902572732"><ele>292.3333333333333</ele><time>2026-04-25T08:27:42.999Z</time></trkpt><trkpt lat="45.06889489722004" lon="5.674053828813254"><ele>292.6666666666667</ele><time>2026-04-25T08:27:43.999Z</time></trkpt><trkpt lat="45.0686960455062" lon="5.673930414217939"><ele>293.0</ele><time>2026-04-25T08:27:44.999Z</time></trkpt><trkpt lat="45.0685029703229" lon="5.673810558103392"><ele>293.0</ele><time>2026-04-25T08:27:45.999Z</time></trkpt><trkpt lat="45.06830671156764" lon="5.67368866845303"><ele>293.0</ele><time>2026-04-25T08:27:46.999Z</time></trkpt><trkpt lat="45.06812156305626" lon="5.673594639450209"><ele>293.0</ele><time>2026-04-25T08:27:47.999Z</time></trkpt><trkpt lat="45.06795228441494" lon="5.6734873439731315"><ele>293.0</ele><time>2026-04-25T08:27:48.999Z</time></trkpt><trkpt lat="45.06779907797525" lon="5.67338926165501"><ele>293.0</ele><time>2026-04-25T08:27:49.999Z</time></trkpt><trkpt lat="45.067657176940074" lon="5.673297722208343"><ele>293.0</ele><time>2026-04-25T08:27:50.999Z</time></trkpt><trkpt lat="45.06752968907743" lon="5.673205227025948"><ele>293.5</ele><time>2026-04-25T08:27:51.999Z</time></trkpt><trkpt lat="45.067416249811004" lon="5.6731158139075575"><ele>294.0</ele><time>2026-04-25T08:27:52.999Z</time></trkpt><trkpt lat="45.06731816346213" lon="5.6730196020113635"><ele>294.5</ele><time>2026-04-25T08:27:53.999Z</time></trkpt><trkpt lat="45.067228895952844" lon="5.672895626447197"><ele>295.0</ele><time>2026-04-25T08:27:54.999Z</time></trkpt><trkpt lat="45.06713601822779" lon="5.672784776341257"><ele>294.6</ele><time>2026-04-25T08:27:55.999Z</time></trkpt><trkpt lat="45.06705346303903" lon="5.672679992917656"><ele>294.2</ele><time>2026-04-25T08:27:56.999Z</time></trkpt><trkpt lat="45.06696880031472" lon="5.672604884259546"><ele>293.8</ele><time>2026-04-25T08:27:57.999Z</time></trkpt><trkpt lat="45.0669169410531" lon="5.672522309153523"><ele>293.4</ele><time>2026-04-25T08:27:58.999Z</time></trkpt><trkpt lat="45.06686850204259" lon="5.672446301831982"><ele>293.0</ele><time>2026-04-25T08:27:59.999Z</time></trkpt><trkpt lat="45.06682101299795" lon="5.672281042149528"><ele>293.0</ele><time>2026-04-25T08:28:01.999Z</time></trkpt><trkpt lat="45.066809908266066" lon="5.672165992257782"><ele>293.0</ele><time>2026-04-25T08:28:02.999Z</time></trkpt><trkpt lat="45.066779218781306" lon="5.672067070607716"><ele>293.0</ele><time>2026-04-25T08:28:03.999Z</time></trkpt><trkpt lat="45.06672682320038" lon="5.671998127436759"><ele>293.0</ele><time>2026-04-25T08:28:04.999Z</time></trkpt><trkpt lat="45.06666422204946" lon="5.671955021414756"><ele>293.0</ele><time>2026-04-25T08:28:06Z</time></trkpt><trkpt lat="45.06657673272714" lon="5.671952787495089"><ele>293.0</ele><time>2026-04-25T08:28:07Z</time></trkpt><trkpt lat="45.06650913511937" lon="5.672000208659244"><ele>293.6666666666667</ele><time>2026-04-25T08:28:08Z</time></trkpt><trkpt lat="45.06647040276565" lon="5.672080410499923"><ele>294.33333333333337</ele><time>2026-04-25T08:28:09Z</time></trkpt><trkpt lat="45.06644433373562" lon="5.672186270572123"><ele>295.0</ele><time>2026-04-25T08:28:10Z</time></trkpt><trkpt lat="45.06643459780009" lon="5.672305566230314"><ele>295.6666666666667</ele><time>2026-04-25T08:28:11Z</time></trkpt><trkpt lat="45.06643261011413" lon="5.672434190704482"><ele>296.3333333333333</ele><time>2026-04-25T08:28:12Z</time></trkpt><trkpt lat="45.06641701770896" lon="5.672549053073837"><ele>297.0</ele><time>2026-04-25T08:28:13Z</time></trkpt><trkpt lat="45.066372524440006" lon="5.6726571576252"><ele>297.0</ele><time>2026-04-25T08:28:14Z</time></trkpt><trkpt lat="45.06631032656836" lon="5.672749512264643"><ele>297.0</ele><time>2026-04-25T08:28:15Z</time></trkpt><trkpt lat="45.066252660514124" lon="5.672841347412488"><ele>297.0</ele><time>2026-04-25T08:28:16Z</time></trkpt><trkpt lat="45.066192850254694" lon="5.67294278360405"><ele>297.0</ele><time>2026-04-25T08:28:17Z</time></trkpt><trkpt lat="45.06611760793159" lon="5.6730529733412345"><ele>297.0</ele><time>2026-04-25T08:28:18Z</time></trkpt><trkpt lat="45.06603012938114" lon="5.673158206758292"><ele>296.5</ele><time>2026-04-25T08:28:19Z</time></trkpt><trkpt lat="45.065922926499304" lon="5.673226490544627"><ele>296.0</ele><time>2026-04-25T08:28:20Z</time></trkpt><trkpt lat="45.065801815664244" lon="5.673216038610347"><ele>295.5</ele><time>2026-04-25T08:28:21Z</time></trkpt><trkpt lat="45.06568858216602" lon="5.673194870865017"><ele>295.0</ele><time>2026-04-25T08:28:22Z</time></trkpt><trkpt lat="45.06557839503747" lon="5.673125975628038"><ele>295.0</ele><time>2026-04-25T08:28:23Z</time></trkpt><trkpt lat="45.06546526274073" lon="5.673057749715333"><ele>295.0</ele><time>2026-04-25T08:28:24Z</time></trkpt><trkpt lat="45.065340912891735" lon="5.673013492315399"><ele>295.0</ele><time>2026-04-25T08:28:25Z</time></trkpt><trkpt lat="45.06521500255555" lon="5.672965044205239"><ele>295.0</ele><time>2026-04-25T08:28:26Z</time></trkpt><trkpt lat="45.065080902328226" lon="5.672950450426175"><ele>295.0</ele><time>2026-04-25T08:28:27Z</time></trkpt><trkpt lat="45.064948006534046" lon="5.672960213881734"><ele>295.0</ele><time>2026-04-25T08:28:28Z</time></trkpt><trkpt lat="45.064820933515094" lon="5.672996902427237"><ele>295.0</ele><time>2026-04-25T08:28:29Z</time></trkpt><trkpt lat="45.064693350715764" lon="5.673050403254259"><ele>295.0</ele><time>2026-04-25T08:28:30Z</time></trkpt><trkpt lat="45.064554394878336" lon="5.6731061337907915"><ele>295.25</ele><time>2026-04-25T08:28:31Z</time></trkpt><trkpt lat="45.064414902641815" lon="5.673150481726417"><ele>295.5</ele><time>2026-04-25T08:28:32Z</time></trkpt><trkpt lat="45.06428331514307" lon="5.673205042161383"><ele>295.75</ele><time>2026-04-25T08:28:33Z</time></trkpt><trkpt lat="45.06414848292444" lon="5.673258395340548"><ele>296.0</ele><time>2026-04-25T08:28:34Z</time></trkpt><trkpt lat="45.064016201782174" lon="5.673320376632573"><ele>296.0</ele><time>2026-04-25T08:28:35Z</time></trkpt><trkpt lat="45.063895196243955" lon="5.673407934120747"><ele>296.0</ele><time>2026-04-25T08:28:36Z</time></trkpt><trkpt lat="45.06378400555423" lon="5.673518073812843"><ele>296.0</ele><time>2026-04-25T08:28:37Z</time></trkpt><trkpt lat="45.06368671771477" lon="5.673649177277815"><ele>296.0</ele><time>2026-04-25T08:28:38Z</time></trkpt><trkpt lat="45.06360299054627" lon="5.673798669111673"><ele>296.0</ele><time>2026-04-25T08:28:39Z</time></trkpt><trkpt lat="45.0635307937857" lon="5.673964927342074"><ele>296.0</ele><time>2026-04-25T08:28:40Z</time></trkpt><trkpt lat="45.0634682402786" lon="5.674146819739637"><ele>296.0</ele><time>2026-04-25T08:28:41Z</time></trkpt><trkpt lat="45.06341963339282" lon="5.674332948728343"><ele>296.0</ele><time>2026-04-25T08:28:42Z</time></trkpt><trkpt lat="45.06337915798816" lon="5.674523438393126"><ele>295.75</ele><time>2026-04-25T08:28:43Z</time></trkpt><trkpt lat="45.063336965365735" lon="5.674707476996648"><ele>295.5</ele><time>2026-04-25T08:28:44Z</time></trkpt><trkpt lat="45.06329334079191" lon="5.674890700187228"><ele>295.25</ele><time>2026-04-25T08:28:45Z</time></trkpt><trkpt lat="45.06325026267967" lon="5.675072953816817"><ele>295.0</ele><time>2026-04-25T08:28:46Z</time></trkpt><trkpt lat="45.06320681173706" lon="5.675255277198819"><ele>295.5</ele><time>2026-04-25T08:28:47Z</time></trkpt><trkpt lat="45.0631622065655" lon="5.675426638134734"><ele>296.0</ele><time>2026-04-25T08:28:48Z</time></trkpt><trkpt lat="45.06312099468317" lon="5.675592427567908"><ele>296.5</ele><time>2026-04-25T08:28:49Z</time></trkpt><trkpt lat="45.063088655597845" lon="5.675735748573412"><ele>297.0</ele><time>2026-04-25T08:28:50Z</time></trkpt><trkpt lat="45.063057736895686" lon="5.675865848249186"><ele>297.0</ele><time>2026-04-25T08:28:51Z</time></trkpt><trkpt lat="45.063027599934664" lon="5.675978050416187"><ele>297.0</ele><time>2026-04-25T08:28:52Z</time></trkpt><trkpt lat="45.06299014018912" lon="5.67607936217619"><ele>297.0</ele><time>2026-04-25T08:28:53Z</time></trkpt><trkpt lat="45.06293335927873" lon="5.676171157244054"><ele>297.0</ele><time>2026-04-25T08:28:54Z</time></trkpt><trkpt lat="45.062859954555364" lon="5.6762522499443495"><ele>297.0</ele><time>2026-04-25T08:28:55Z</time></trkpt><trkpt lat="45.062804630403186" lon="5.676375104788391"><ele>297.0</ele><time>2026-04-25T08:28:56Z</time></trkpt><trkpt lat="45.06277121761904" lon="5.676516782350407"><ele>297.0</ele><time>2026-04-25T08:28:57Z</time></trkpt><trkpt lat="45.06273523780045" lon="5.67666528853754"><ele>297.0</ele><time>2026-04-25T08:28:58Z</time></trkpt><trkpt lat="45.06266760936082" lon="5.676802605179096"><ele>297.0</ele><time>2026-04-25T08:28:59Z</time></trkpt><trkpt lat="45.06257767794927" lon="5.676934783108166"><ele>297.0</ele><time>2026-04-25T08:29:00Z</time></trkpt><trkpt lat="45.06246561262967" lon="5.677071119121387"><ele>297.3333333333333</ele><time>2026-04-25T08:29:01Z</time></trkpt><trkpt lat="45.0623447552429" lon="5.677185783267879"><ele>297.66666666666663</ele><time>2026-04-25T08:29:02Z</time></trkpt><trkpt lat="45.06221541084113" lon="5.677289928958645"><ele>298.0</ele><time>2026-04-25T08:29:02.999Z</time></trkpt><trkpt lat="45.06206880275551" lon="5.677380856930372"><ele>298.0</ele><time>2026-04-25T08:29:03.999Z</time></trkpt><trkpt lat="45.06190291707037" lon="5.677464256828392"><ele>298.0</ele><time>2026-04-25T08:29:04.999Z</time></trkpt><trkpt lat="45.06173461750775" lon="5.677542380124109"><ele>298.0</ele><time>2026-04-25T08:29:05.999Z</time></trkpt><trkpt lat="45.06156371168959" lon="5.677626028485199"><ele>298.0</ele><time>2026-04-25T08:29:06.999Z</time></trkpt><trkpt lat="45.06139477296968" lon="5.677710876508542"><ele>298.0</ele><time>2026-04-25T08:29:07.999Z</time></trkpt><trkpt lat="45.061229121984034" lon="5.677796089686698"><ele>298.0</ele><time>2026-04-25T08:29:08.999Z</time></trkpt><trkpt lat="45.06106329877619" lon="5.677884232478618"><ele>297.66666666666663</ele><time>2026-04-25T08:29:09.999Z</time></trkpt><trkpt lat="45.06089507321679" lon="5.677969096430642"><ele>297.3333333333333</ele><time>2026-04-25T08:29:10.999Z</time></trkpt><trkpt lat="45.060728337474856" lon="5.6780559530007295"><ele>297.0</ele><time>2026-04-25T08:29:11.999Z</time></trkpt><trkpt lat="45.06057219942447" lon="5.678157056603908"><ele>297.0</ele><time>2026-04-25T08:29:12.999Z</time></trkpt><trkpt lat="45.060422626158264" lon="5.678275563484288"><ele>297.0</ele><time>2026-04-25T08:29:13.999Z</time></trkpt><trkpt lat="45.06027845518671" lon="5.678413542761487"><ele>297.0</ele><time>2026-04-25T08:29:14.999Z</time></trkpt><trkpt lat="45.06014489328616" lon="5.678575516547582"><ele>297.0</ele><time>2026-04-25T08:29:15.999Z</time></trkpt><trkpt lat="45.060024205530844" lon="5.678758891541762"><ele>297.0</ele><time>2026-04-25T08:29:16.999Z</time></trkpt><trkpt lat="45.05992623083256" lon="5.678977133581394"><ele>297.0</ele><time>2026-04-25T08:29:17.999Z</time></trkpt><trkpt lat="45.05983040855937" lon="5.679204907045066"><ele>297.6666666666667</ele><time>2026-04-25T08:29:18.999Z</time></trkpt><trkpt lat="45.05973460451351" lon="5.679444056217194"><ele>298.33333333333337</ele><time>2026-04-25T08:29:19.999Z</time></trkpt><trkpt lat="45.05963106299715" lon="5.679676779122434"><ele>299.0</ele><time>2026-04-25T08:29:20.999Z</time></trkpt><trkpt lat="45.05953258509866" lon="5.679900097723999"><ele>299.0</ele><time>2026-04-25T08:29:21.999Z</time></trkpt><trkpt lat="45.05943507156675" lon="5.680127111471706"><ele>299.0</ele><time>2026-04-25T08:29:22.999Z</time></trkpt><trkpt lat="45.05934305381211" lon="5.6803468896727445"><ele>299.0</ele><time>2026-04-25T08:29:23.999Z</time></trkpt><trkpt lat="45.059250249482595" lon="5.680564056220496"><ele>299.0</ele><time>2026-04-25T08:29:24.999Z</time></trkpt><trkpt lat="45.059158689790756" lon="5.68078573299908"><ele>299.0</ele><time>2026-04-25T08:29:25.999Z</time></trkpt><trkpt lat="45.0590657398009" lon="5.68100395307407"><ele>299.0</ele><time>2026-04-25T08:29:26.999Z</time></trkpt><trkpt lat="45.058972054845526" lon="5.681223118429979"><ele>299.33333333333337</ele><time>2026-04-25T08:29:27.999Z</time></trkpt><trkpt lat="45.05887682703693" lon="5.681447383380977"><ele>299.6666666666667</ele><time>2026-04-25T08:29:28.999Z</time></trkpt><trkpt lat="45.058775653549894" lon="5.6816593442477785"><ele>300.0</ele><time>2026-04-25T08:29:29.999Z</time></trkpt><trkpt lat="45.05868033891307" lon="5.6818472957687804"><ele>300.0</ele><time>2026-04-25T08:29:30.999Z</time></trkpt><trkpt lat="45.058582938841006" lon="5.682029875032649"><ele>300.0</ele><time>2026-04-25T08:29:31.999Z</time></trkpt><trkpt lat="45.05848947911936" lon="5.682182171240087"><ele>300.0</ele><time>2026-04-25T08:29:32.999Z</time></trkpt><trkpt lat="45.05840645608555" lon="5.6823322119600475"><ele>300.0</ele><time>2026-04-25T08:29:33.999Z</time></trkpt><trkpt lat="45.05832763366789" lon="5.682471561307344"><ele>300.0</ele><time>2026-04-25T08:29:34.999Z</time></trkpt><trkpt lat="45.05827161212436" lon="5.6825918728465075"><ele>300.0</ele><time>2026-04-25T08:29:35.999Z</time></trkpt><trkpt lat="45.05821036643594" lon="5.682693304181257"><ele>300.0</ele><time>2026-04-25T08:29:36.999Z</time></trkpt><trkpt lat="45.05816062537719" lon="5.682763088376583"><ele>300.0</ele><time>2026-04-25T08:29:37.999Z</time></trkpt><trkpt lat="45.05810652239272" lon="5.682826794930169"><ele>300.0</ele><time>2026-04-25T08:29:38.999Z</time></trkpt><trkpt lat="45.05803543657489" lon="5.682863492871424"><ele>300.0</ele><time>2026-04-25T08:29:39.999Z</time></trkpt><trkpt lat="45.057947676367334" lon="5.682869273957637"><ele>300.0</ele><time>2026-04-25T08:29:40.999Z</time></trkpt><trkpt lat="45.05785534296" lon="5.682835525957689"><ele>300.0</ele><time>2026-04-25T08:29:41.999Z</time></trkpt><trkpt lat="45.05776570217913" lon="5.682774054762666"><ele>300.0</ele><time>2026-04-25T08:29:42.999Z</time></trkpt><trkpt lat="45.05769311673047" lon="5.682668316210051"><ele>300.0</ele><time>2026-04-25T08:29:43.999Z</time></trkpt><trkpt lat="45.05761266859226" lon="5.682578442850711"><ele>300.0</ele><time>2026-04-25T08:29:44.999Z</time></trkpt><trkpt lat="45.05753300727119" lon="5.682489448493619"><ele>300.3333333333333</ele><time>2026-04-25T08:29:45.999Z</time></trkpt><trkpt lat="45.05744446284348" lon="5.682420410394008"><ele>300.6666666666667</ele><time>2026-04-25T08:29:46.999Z</time></trkpt><trkpt lat="45.05736409259932" lon="5.682334168175695"><ele>301.0</ele><time>2026-04-25T08:29:47.999Z</time></trkpt><trkpt lat="45.05729976432839" lon="5.682238518149918"><ele>301.33333333333337</ele><time>2026-04-25T08:29:48.999Z</time></trkpt><trkpt lat="45.057238204079425" lon="5.68217675197324"><ele>301.6666666666667</ele><time>2026-04-25T08:29:49.999Z</time></trkpt><trkpt lat="45.057182614188626" lon="5.682134536867513"><ele>302.0</ele><time>2026-04-25T08:29:50.999Z</time></trkpt><trkpt lat="45.057134813666345" lon="5.682073319516537"><ele>302.0</ele><time>2026-04-25T08:29:51.999Z</time></trkpt><trkpt lat="45.05703724536763" lon="5.681967352007612"><ele>302.0</ele><time>2026-04-25T08:29:53.999Z</time></trkpt><trkpt lat="45.056985534127875" lon="5.681908247842191"><ele>302.0</ele><time>2026-04-25T08:29:54.999Z</time></trkpt><trkpt lat="45.056928331221485" lon="5.681845156901367"><ele>302.0</ele><time>2026-04-25T08:29:55.999Z</time></trkpt><trkpt lat="45.056864353050436" lon="5.6817790077324"><ele>302.0</ele><time>2026-04-25T08:29:56.999Z</time></trkpt><trkpt lat="45.05680210870206" lon="5.681711078436165"><ele>302.0</ele><time>2026-04-25T08:29:57.999Z</time></trkpt><trkpt lat="45.056736106432965" lon="5.681634052572949"><ele>301.8</ele><time>2026-04-25T08:29:58.999Z</time></trkpt><trkpt lat="45.05666765723259" lon="5.681542495486249"><ele>301.6</ele><time>2026-04-25T08:29:59.999Z</time></trkpt><trkpt lat="45.05661364583922" lon="5.681424050246971"><ele>301.40000000000003</ele><time>2026-04-25T08:30:00.999Z</time></trkpt><trkpt lat="45.056565144545814" lon="5.681306164636309"><ele>301.2</ele><time>2026-04-25T08:30:01.999Z</time></trkpt><trkpt lat="45.05651556492773" lon="5.681192473937812"><ele>301.0</ele><time>2026-04-25T08:30:02.999Z</time></trkpt><trkpt lat="45.05645955974982" lon="5.681074490269829"><ele>301.40000000000003</ele><time>2026-04-25T08:30:03.999Z</time></trkpt><trkpt lat="45.05640791219551" lon="5.680957930879792"><ele>301.8</ele><time>2026-04-25T08:30:04.998Z</time></trkpt><trkpt lat="45.05634626345867" lon="5.680859641158611"><ele>302.20000000000005</ele><time>2026-04-25T08:30:05.998Z</time></trkpt><trkpt lat="45.05627230631014" lon="5.680769575018118"><ele>302.6</ele><time>2026-04-25T08:30:06.998Z</time></trkpt><trkpt lat="45.056194106676124" lon="5.680684244604411"><ele>303.0</ele><time>2026-04-25T08:30:07.998Z</time></trkpt><trkpt lat="45.056112897062114" lon="5.680604619613234"><ele>303.0</ele><time>2026-04-25T08:30:08.998Z</time></trkpt><trkpt lat="45.05602668374213" lon="5.680533227564403"><ele>303.0</ele><time>2026-04-25T08:30:09.998Z</time></trkpt><trkpt lat="45.05594521045391" lon="5.680453421220922"><ele>303.0</ele><time>2026-04-25T08:30:10.998Z</time></trkpt><trkpt lat="45.05587271608737" lon="5.6803708376916875"><ele>303.0</ele><time>2026-04-25T08:30:12Z</time></trkpt><trkpt lat="45.055792807312" lon="5.680289129812465"><ele>303.0</ele><time>2026-04-25T08:30:13Z</time></trkpt><trkpt lat="45.05571432606296" lon="5.68020685367101"><ele>303.0</ele><time>2026-04-25T08:30:14Z</time></trkpt><trkpt lat="45.05563509527877" lon="5.680129269144175"><ele>303.0</ele><time>2026-04-25T08:30:15Z</time></trkpt><trkpt lat="45.055567056708504" lon="5.680047220066408"><ele>303.0</ele><time>2026-04-25T08:30:16Z</time></trkpt><trkpt lat="45.055498581290806" lon="5.679979986857237"><ele>303.0</ele><time>2026-04-25T08:30:17Z</time></trkpt><trkpt lat="45.05543825731146" lon="5.679920122309425"><ele>303.0</ele><time>2026-04-25T08:30:18Z</time></trkpt><trkpt lat="45.05538374745581" lon="5.679868090210651"><ele>303.0</ele><time>2026-04-25T08:30:19Z</time></trkpt><trkpt lat="45.05533255640476" lon="5.679805884563526"><ele>303.0</ele><time>2026-04-25T08:30:20Z</time></trkpt><trkpt lat="45.055280733186834" lon="5.679748591114484"><ele>303.0</ele><time>2026-04-25T08:30:21Z</time></trkpt><trkpt lat="45.05522379309775" lon="5.679692268357657"><ele>303.0</ele><time>2026-04-25T08:30:22Z</time></trkpt><trkpt lat="45.05516273619876" lon="5.679637455245343"><ele>303.0</ele><time>2026-04-25T08:30:23Z</time></trkpt><trkpt lat="45.055106696769606" lon="5.679587206896245"><ele>303.0</ele><time>2026-04-25T08:30:24Z</time></trkpt><trkpt lat="45.05500737633754" lon="5.679481610351075"><ele>303.0</ele><time>2026-04-25T08:30:26Z</time></trkpt><trkpt lat="45.05491899668127" lon="5.679389717208244"><ele>303.6</ele><time>2026-04-25T08:30:28Z</time></trkpt><trkpt lat="45.054848547219365" lon="5.679318448526366"><ele>304.20000000000005</ele><time>2026-04-25T08:30:30Z</time></trkpt><trkpt lat="45.05478377899792" lon="5.679251274714003"><ele>304.8</ele><time>2026-04-25T08:30:33Z</time></trkpt><trkpt lat="45.054725955049" lon="5.6791764604356345"><ele>305.40000000000003</ele><time>2026-04-25T08:30:44Z</time></trkpt><trkpt lat="45.05461947119071" lon="5.6790658265123195"><ele>306.0</ele><time>2026-04-25T08:30:46Z</time></trkpt><trkpt lat="45.05454730669009" lon="5.6789910456951205"><ele>306.0</ele><time>2026-04-25T08:30:47Z</time></trkpt><trkpt lat="45.05448545687364" lon="5.678926773776631"><ele>306.0</ele><time>2026-04-25T08:30:48Z</time></trkpt><trkpt lat="45.054420278416686" lon="5.678855210786559"><ele>306.0</ele><time>2026-04-25T08:30:49Z</time></trkpt><trkpt lat="45.0543604447653" lon="5.678789934140715"><ele>306.0</ele><time>2026-04-25T08:30:50Z</time></trkpt><trkpt lat="45.05430396249489" lon="5.678728549198868"><ele>306.0</ele><time>2026-04-25T08:30:51Z</time></trkpt><trkpt lat="45.05424329486844" lon="5.6786867256254"><ele>306.0</ele><time>2026-04-25T08:30:52Z</time></trkpt><trkpt lat="45.05419439889172" lon="5.678625036196352"><ele>306.0</ele><time>2026-04-25T08:30:53Z</time></trkpt><trkpt lat="45.05414295197452" lon="5.678571285281893"><ele>306.8</ele><time>2026-04-25T08:30:54Z</time></trkpt><trkpt lat="45.054070542864906" lon="5.678506264113367"><ele>307.6</ele><time>2026-04-25T08:30:56Z</time></trkpt><trkpt lat="45.05399789143072" lon="5.678459994296177"><ele>308.4</ele><time>2026-04-25T08:30:59Z</time></trkpt><trkpt lat="45.05390571554644" lon="5.678341260218939"><ele>309.2</ele><time>2026-04-25T08:31:01Z</time></trkpt><trkpt lat="45.053802778574884" lon="5.678257855499922"><ele>310.0</ele><time>2026-04-25T08:31:02.999Z</time></trkpt><trkpt lat="45.05371184252692" lon="5.678158340460458"><ele>310.0</ele><time>2026-04-25T08:31:04.999Z</time></trkpt><trkpt lat="45.05365351280463" lon="5.678107227126998"><ele>310.0</ele><time>2026-04-25T08:31:05.999Z</time></trkpt><trkpt lat="45.05359124501246" lon="5.678044106091965"><ele>310.0</ele><time>2026-04-25T08:31:06.999Z</time></trkpt><trkpt lat="45.053525077439005" lon="5.677975699807933"><ele>310.0</ele><time>2026-04-25T08:31:07.999Z</time></trkpt><trkpt lat="45.05346495421296" lon="5.677898200537006"><ele>310.0</ele><time>2026-04-25T08:31:08.999Z</time></trkpt><trkpt lat="45.05340988573393" lon="5.6778450838333585"><ele>310.0</ele><time>2026-04-25T08:31:09.999Z</time></trkpt><trkpt lat="45.05335611260098" lon="5.6777908385047455"><ele>310.0</ele><time>2026-04-25T08:31:10.999Z</time></trkpt><trkpt lat="45.05329690333706" lon="5.6777268923589626"><ele>310.16666666666663</ele><time>2026-04-25T08:31:11.999Z</time></trkpt><trkpt lat="45.05323153071852" lon="5.6776548385835754"><ele>310.3333333333333</ele><time>2026-04-25T08:31:12.999Z</time></trkpt><trkpt lat="45.05315373696203" lon="5.677576137071914"><ele>310.5</ele><time>2026-04-25T08:31:13.999Z</time></trkpt><trkpt lat="45.05308796884959" lon="5.677510588245145"><ele>310.6666666666667</ele><time>2026-04-25T08:31:14.999Z</time></trkpt><trkpt lat="45.05303122331214" lon="5.677450820197583"><ele>310.83333333333337</ele><time>2026-04-25T08:31:15.999Z</time></trkpt><trkpt lat="45.052949047956254" lon="5.677367990212868"><ele>311.0</ele><time>2026-04-25T08:31:17.999Z</time></trkpt><trkpt lat="45.05289657436691" lon="5.677298262590733"><ele>311.0</ele><time>2026-04-25T08:31:20.999Z</time></trkpt><trkpt lat="45.05285648724983" lon="5.6771964422728445"><ele>311.0</ele><time>2026-04-25T08:31:23.999Z</time></trkpt><trkpt lat="45.05282678702949" lon="5.677113025086914"><ele>311.0</ele><time>2026-04-25T08:31:24.999Z</time></trkpt><trkpt lat="45.0527639455528" lon="5.677035093875616"><ele>311.0</ele><time>2026-04-25T08:31:25.999Z</time></trkpt><trkpt lat="45.052685711364404" lon="5.676952431237191"><ele>311.0</ele><time>2026-04-25T08:31:26.999Z</time></trkpt><trkpt lat="45.05260908113788" lon="5.676848582545912"><ele>311.0</ele><time>2026-04-25T08:31:27.999Z</time></trkpt><trkpt lat="45.05254722586557" lon="5.6767199430240725"><ele>311.0</ele><time>2026-04-25T08:31:28.999Z</time></trkpt><trkpt lat="45.052492485836986" lon="5.676573820395247"><ele>311.0</ele><time>2026-04-25T08:31:29.999Z</time></trkpt><trkpt lat="45.05244363898624" lon="5.676419754661509"><ele>311.0</ele><time>2026-04-25T08:31:30.999Z</time></trkpt><trkpt lat="45.05240032369691" lon="5.676264242276092"><ele>311.0</ele><time>2026-04-25T08:31:31.999Z</time></trkpt><trkpt lat="45.052367330404394" lon="5.676108114825708"><ele>310.8</ele><time>2026-04-25T08:31:32.999Z</time></trkpt><trkpt lat="45.0523356897532" lon="5.6759554805029655"><ele>310.6</ele><time>2026-04-25T08:31:33.999Z</time></trkpt><trkpt lat="45.05230572061899" lon="5.675813244289568"><ele>310.4</ele><time>2026-04-25T08:31:34.999Z</time></trkpt><trkpt lat="45.05227558483373" lon="5.675702108627752"><ele>310.2</ele><time>2026-04-25T08:31:35.999Z</time></trkpt><trkpt lat="45.05225118268423" lon="5.675593067426371"><ele>310.0</ele><time>2026-04-25T08:31:36.999Z</time></trkpt><trkpt lat="45.0522265165176" lon="5.6754859516409555"><ele>310.0</ele><time>2026-04-25T08:31:37.999Z</time></trkpt><trkpt lat="45.05219778242075" lon="5.675369864008792"><ele>310.0</ele><time>2026-04-25T08:31:38.999Z</time></trkpt><trkpt lat="45.05217045400286" lon="5.6752763966435325"><ele>310.0</ele><time>2026-04-25T08:31:39.999Z</time></trkpt><trkpt lat="45.05212150126294" lon="5.67513188271668"><ele>310.0</ele><time>2026-04-25T08:31:41.999Z</time></trkpt><trkpt lat="45.05206439964811" lon="5.675010069698786"><ele>310.0</ele><time>2026-04-25T08:31:43.999Z</time></trkpt><trkpt lat="45.05203308885131" lon="5.674903958006282"><ele>310.0</ele><time>2026-04-25T08:31:45.999Z</time></trkpt><trkpt lat="45.05199231343592" lon="5.674750751707782"><ele>310.0</ele><time>2026-04-25T08:31:59.999Z</time></trkpt><trkpt lat="45.051942706998986" lon="5.674650348669601"><ele>310.0</ele><time>2026-04-25T08:32:00.999Z</time></trkpt><trkpt lat="45.05188652511528" lon="5.674529460157161"><ele>310.0</ele><time>2026-04-25T08:32:01.998Z</time></trkpt><trkpt lat="45.051833398277765" lon="5.674395122740062"><ele>310.0</ele><time>2026-04-25T08:32:02.998Z</time></trkpt><trkpt lat="45.051778051585295" lon="5.674264432308549"><ele>310.25</ele><time>2026-04-25T08:32:03.998Z</time></trkpt><trkpt lat="45.05172127077925" lon="5.674125034175601"><ele>310.5</ele><time>2026-04-25T08:32:04.998Z</time></trkpt><trkpt lat="45.051654592047704" lon="5.673986694913147"><ele>310.75</ele><time>2026-04-25T08:32:05.998Z</time></trkpt><trkpt lat="45.05159528179262" lon="5.673843731292491"><ele>311.0</ele><time>2026-04-25T08:32:06.998Z</time></trkpt><trkpt lat="45.051530286789756" lon="5.673701297510371"><ele>311.25</ele><time>2026-04-25T08:32:07.998Z</time></trkpt><trkpt lat="45.05146557924576" lon="5.673557067071332"><ele>311.5</ele><time>2026-04-25T08:32:08.998Z</time></trkpt><trkpt lat="45.05139828190947" lon="5.673415252656021"><ele>311.75</ele><time>2026-04-25T08:32:09.998Z</time></trkpt><trkpt lat="45.05133332465229" lon="5.6732675616577675"><ele>312.0</ele><time>2026-04-25T08:32:10.998Z</time></trkpt><trkpt lat="45.05127366179101" lon="5.673111319680671"><ele>312.0</ele><time>2026-04-25T08:32:11.998Z</time></trkpt><trkpt lat="45.05118741147809" lon="5.672947123383586"><ele>312.0</ele><time>2026-04-25T08:32:12.998Z</time></trkpt><trkpt lat="45.05107926329059" lon="5.672754162051375"><ele>312.0</ele><time>2026-04-25T08:32:13.998Z</time></trkpt><trkpt lat="45.050963355586234" lon="5.6725423735398435"><ele>312.6666666666667</ele><time>2026-04-25T08:32:14.998Z</time></trkpt><trkpt lat="45.050857790246404" lon="5.67234266895688"><ele>313.33333333333337</ele><time>2026-04-25T08:32:15.998Z</time></trkpt><trkpt lat="45.05075294920172" lon="5.67214875617852"><ele>314.0</ele><time>2026-04-25T08:32:16.998Z</time></trkpt><trkpt lat="45.050648578760104" lon="5.671964673807659"><ele>316.0</ele><time>2026-04-25T08:32:18Z</time></trkpt><trkpt lat="45.050538222723574" lon="5.671781561045375"><ele>318.0</ele><time>2026-04-25T08:32:19Z</time></trkpt><trkpt lat="45.05043300248475" lon="5.6716039065841555"><ele>320.0</ele><time>2026-04-25T08:32:20Z</time></trkpt><trkpt lat="45.050326093870424" lon="5.671422434076286"><ele>320.0</ele><time>2026-04-25T08:32:21Z</time></trkpt><trkpt lat="45.05021522028851" lon="5.671233587516394"><ele>320.0</ele><time>2026-04-25T08:32:22Z</time></trkpt><trkpt lat="45.050108146997694" lon="5.671046225173996"><ele>320.0</ele><time>2026-04-25T08:32:23Z</time></trkpt><trkpt lat="45.049998607727666" lon="5.6708616216913805"><ele>320.6666666666667</ele><time>2026-04-25T08:32:24Z</time></trkpt><trkpt lat="45.0498917784761" lon="5.670670901719602"><ele>321.3333333333333</ele><time>2026-04-25T08:32:25Z</time></trkpt><trkpt lat="45.04978863511594" lon="5.670475342431639"><ele>322.0</ele><time>2026-04-25T08:32:26Z</time></trkpt><trkpt lat="45.04968330482019" lon="5.670282202383352"><ele>321.66666666666663</ele><time>2026-04-25T08:32:27Z</time></trkpt><trkpt lat="45.04957473276221" lon="5.670089016842414"><ele>321.3333333333333</ele><time>2026-04-25T08:32:28Z</time></trkpt><trkpt lat="45.04947277765272" lon="5.669902015675342"><ele>321.0</ele><time>2026-04-25T08:32:29Z</time></trkpt><trkpt lat="45.049379901294536" lon="5.669715772010418"><ele>321.0</ele><time>2026-04-25T08:32:30Z</time></trkpt><trkpt lat="45.04928885057121" lon="5.669568463255121"><ele>321.0</ele><time>2026-04-25T08:32:31Z</time></trkpt><trkpt lat="45.049194072392375" lon="5.669424957665817"><ele>321.0</ele><time>2026-04-25T08:32:32Z</time></trkpt><trkpt lat="45.04911616702457" lon="5.669289980532988"><ele>321.0</ele><time>2026-04-25T08:32:33Z</time></trkpt><trkpt lat="45.049044646794044" lon="5.669171013213952"><ele>321.4</ele><time>2026-04-25T08:32:34Z</time></trkpt><trkpt lat="45.04897682562868" lon="5.669060156142271"><ele>321.8</ele><time>2026-04-25T08:32:35Z</time></trkpt><trkpt lat="45.04891091986757" lon="5.668969099559177"><ele>322.2</ele><time>2026-04-25T08:32:36Z</time></trkpt><trkpt lat="45.048862839400044" lon="5.668866395085134"><ele>322.59999999999997</ele><time>2026-04-25T08:32:37Z</time></trkpt><trkpt lat="45.048844210290085" lon="5.668729822087931"><ele>323.0</ele><time>2026-04-25T08:32:38Z</time></trkpt><trkpt lat="45.0488565469523" lon="5.668582911566242"><ele>323.0</ele><time>2026-04-25T08:32:39Z</time></trkpt><trkpt lat="45.04883696076845" lon="5.6684411123344445"><ele>323.0</ele><time>2026-04-25T08:32:40Z</time></trkpt><trkpt lat="45.04877721311432" lon="5.668302530211942"><ele>323.0</ele><time>2026-04-25T08:32:41Z</time></trkpt><trkpt lat="45.04872098088812" lon="5.66814643912215"><ele>323.0</ele><time>2026-04-25T08:32:42Z</time></trkpt><trkpt lat="45.04871172908947" lon="5.66795033023689"><ele>322.25</ele><time>2026-04-25T08:32:43Z</time></trkpt><trkpt lat="45.04866959303568" lon="5.6677720221785615"><ele>321.5</ele><time>2026-04-25T08:32:44Z</time></trkpt><trkpt lat="45.04864318121376" lon="5.667600054580385"><ele>320.75</ele><time>2026-04-25T08:32:45Z</time></trkpt><trkpt lat="45.04850961379754" lon="5.667493114809317"><ele>320.0</ele><time>2026-04-25T08:32:46Z</time></trkpt><trkpt lat="45.048385132233406" lon="5.66742934904817"><ele>321.0</ele><time>2026-04-25T08:32:47Z</time></trkpt><trkpt lat="45.04822736587767" lon="5.66742171388609"><ele>322.0</ele><time>2026-04-25T08:32:48Z</time></trkpt><trkpt lat="45.0480633335701" lon="5.6674245879412855"><ele>323.0</ele><time>2026-04-25T08:32:49Z</time></trkpt><trkpt lat="45.04792212702552" lon="5.667356952703218"><ele>323.0</ele><time>2026-04-25T08:32:50Z</time></trkpt><trkpt lat="45.047799003420266" lon="5.667243846627816"><ele>323.0</ele><time>2026-04-25T08:32:51Z</time></trkpt><trkpt lat="45.04770410539192" lon="5.667097644640731"><ele>323.0</ele><time>2026-04-25T08:32:52Z</time></trkpt><trkpt lat="45.04758110743045" lon="5.6669526718346255"><ele>323.0</ele><time>2026-04-25T08:32:53Z</time></trkpt><trkpt lat="45.047462041631775" lon="5.666814212208033"><ele>322.6666666666667</ele><time>2026-04-25T08:32:54Z</time></trkpt><trkpt lat="45.04731692430397" lon="5.666735263541667"><ele>322.3333333333333</ele><time>2026-04-25T08:32:55Z</time></trkpt><trkpt lat="45.04715250544369" lon="5.666720599840029"><ele>322.0</ele><time>2026-04-25T08:32:56Z</time></trkpt><trkpt lat="45.04698900194038" lon="5.66671221469232"><ele>322.0</ele><time>2026-04-25T08:32:57Z</time></trkpt><trkpt lat="45.046840683910595" lon="5.66664296564701"><ele>322.0</ele><time>2026-04-25T08:32:58Z</time></trkpt><trkpt lat="45.04670880315934" lon="5.66652873800403"><ele>322.0</ele><time>2026-04-25T08:32:59Z</time></trkpt><trkpt lat="45.04657136845993" lon="5.666416079552617"><ele>322.66666666666663</ele><time>2026-04-25T08:33:00Z</time></trkpt><trkpt lat="45.046421750196714" lon="5.66631592545775"><ele>323.3333333333333</ele><time>2026-04-25T08:33:00.999Z</time></trkpt><trkpt lat="45.04627836316533" lon="5.6661963945718"><ele>324.0</ele><time>2026-04-25T08:33:01.999Z</time></trkpt><trkpt lat="45.04613156844439" lon="5.66608472546987"><ele>324.0</ele><time>2026-04-25T08:33:02.999Z</time></trkpt><trkpt lat="45.04598705740852" lon="5.6659762587040134"><ele>324.0</ele><time>2026-04-25T08:33:03.999Z</time></trkpt><trkpt lat="45.045844328478466" lon="5.665865774891093"><ele>324.0</ele><time>2026-04-25T08:33:04.999Z</time></trkpt><trkpt lat="45.04570268149464" lon="5.6657508541665464"><ele>325.0</ele><time>2026-04-25T08:33:05.999Z</time></trkpt><trkpt lat="45.045555411165964" lon="5.665632010890472"><ele>326.0</ele><time>2026-04-25T08:33:06.999Z</time></trkpt><trkpt lat="45.04540672224017" lon="5.665515207373682"><ele>327.0</ele><time>2026-04-25T08:33:07.999Z</time></trkpt><trkpt lat="45.045269629786354" lon="5.665402496854102"><ele>327.6666666666667</ele><time>2026-04-25T08:33:08.999Z</time></trkpt><trkpt lat="45.0451315029679" lon="5.665273712909779"><ele>328.33333333333337</ele><time>2026-04-25T08:33:09.999Z</time></trkpt><trkpt lat="45.04498345231574" lon="5.6651502283760085"><ele>329.0</ele><time>2026-04-25T08:33:10.999Z</time></trkpt><trkpt lat="45.04483718879535" lon="5.665032414160908"><ele>329.6666666666667</ele><time>2026-04-25T08:33:11.999Z</time></trkpt><trkpt lat="45.04469437125629" lon="5.6648996911886424"><ele>330.3333333333333</ele><time>2026-04-25T08:33:12.999Z</time></trkpt><trkpt lat="45.04457406441472" lon="5.66475013336467"><ele>331.0</ele><time>2026-04-25T08:33:13.999Z</time></trkpt><trkpt lat="45.044439816494915" lon="5.66463418089635"><ele>331.0</ele><time>2026-04-25T08:33:14.999Z</time></trkpt><trkpt lat="45.044285558260626" lon="5.664564908163057"><ele>331.0</ele><time>2026-04-25T08:33:15.999Z</time></trkpt><trkpt lat="45.04413810100098" lon="5.664538252561999"><ele>331.0</ele><time>2026-04-25T08:33:16.999Z</time></trkpt><trkpt lat="45.04396950837685" lon="5.664515224529204"><ele>331.0</ele><time>2026-04-25T08:33:17.999Z</time></trkpt><trkpt lat="45.04380822508759" lon="5.664481556089797"><ele>331.0</ele><time>2026-04-25T08:33:18.999Z</time></trkpt><trkpt lat="45.04364543715234" lon="5.664463289986479"><ele>331.0</ele><time>2026-04-25T08:33:19.999Z</time></trkpt><trkpt lat="45.04347605849658" lon="5.664439613965242"><ele>331.0</ele><time>2026-04-25T08:33:20.999Z</time></trkpt><trkpt lat="45.0433131473318" lon="5.664428683111526"><ele>331.0</ele><time>2026-04-25T08:33:21.999Z</time></trkpt><trkpt lat="45.0431416243047" lon="5.664415538855841"><ele>331.0</ele><time>2026-04-25T08:33:22.999Z</time></trkpt><trkpt lat="45.04297590363189" lon="5.664402732922677"><ele>331.0</ele><time>2026-04-25T08:33:23.999Z</time></trkpt><trkpt lat="45.04281413517452" lon="5.664379579894874"><ele>331.0</ele><time>2026-04-25T08:33:24.999Z</time></trkpt><trkpt lat="45.04264063516772" lon="5.664301920254618"><ele>331.0</ele><time>2026-04-25T08:33:25.999Z</time></trkpt><trkpt lat="45.04247975563262" lon="5.664188556304963"><ele>331.66666666666663</ele><time>2026-04-25T08:33:26.999Z</time></trkpt><trkpt lat="45.042345548576826" lon="5.664045037393397"><ele>332.3333333333333</ele><time>2026-04-25T08:33:27.999Z</time></trkpt><trkpt lat="45.04220109131396" lon="5.663913870913394"><ele>333.0</ele><time>2026-04-25T08:33:28.999Z</time></trkpt><trkpt lat="45.04204955026745" lon="5.6637779333386105"><ele>333.0</ele><time>2026-04-25T08:33:29.999Z</time></trkpt><trkpt lat="45.041891020749624" lon="5.663630550578633"><ele>333.0</ele><time>2026-04-25T08:33:30.999Z</time></trkpt><trkpt lat="45.04174099685037" lon="5.663491444391622"><ele>333.0</ele><time>2026-04-25T08:33:31.999Z</time></trkpt><trkpt lat="45.041595193345714" lon="5.6633676315980175"><ele>332.3333333333333</ele><time>2026-04-25T08:33:32.999Z</time></trkpt><trkpt lat="45.04144283806504" lon="5.66321229005466"><ele>331.66666666666663</ele><time>2026-04-25T08:33:33.999Z</time></trkpt><trkpt lat="45.04128047617356" lon="5.6630533917820545"><ele>331.0</ele><time>2026-04-25T08:33:34.999Z</time></trkpt><trkpt lat="45.04113716260182" lon="5.662916938872657"><ele>331.0</ele><time>2026-04-25T08:33:35.999Z</time></trkpt><trkpt lat="45.040985153839394" lon="5.662779414370872"><ele>331.0</ele><time>2026-04-25T08:33:36.999Z</time></trkpt><trkpt lat="45.04083039816612" lon="5.6626417570665755"><ele>331.0</ele><time>2026-04-25T08:33:37.999Z</time></trkpt><trkpt lat="45.040679426105804" lon="5.662503520668255"><ele>331.0</ele><time>2026-04-25T08:33:38.999Z</time></trkpt><trkpt lat="45.04052998797084" lon="5.662357657251494"><ele>331.0</ele><time>2026-04-25T08:33:39.999Z</time></trkpt><trkpt lat="45.04038326447077" lon="5.662212298829697"><ele>331.0</ele><time>2026-04-25T08:33:40.999Z</time></trkpt><trkpt lat="45.04024512928895" lon="5.662075554108913"><ele>331.0</ele><time>2026-04-25T08:33:41.999Z</time></trkpt><trkpt lat="45.04011719426736" lon="5.661951296201239"><ele>331.0</ele><time>2026-04-25T08:33:42.999Z</time></trkpt><trkpt lat="45.04000120902257" lon="5.661834643379235"><ele>331.0</ele><time>2026-04-25T08:33:43.999Z</time></trkpt><trkpt lat="45.03989479399139" lon="5.661727914728154"><ele>331.0</ele><time>2026-04-25T08:33:44.999Z</time></trkpt><trkpt lat="45.039782673104014" lon="5.661625246323104"><ele>331.8</ele><time>2026-04-25T08:33:45.999Z</time></trkpt><trkpt lat="45.03968254088407" lon="5.661549439839289"><ele>332.6</ele><time>2026-04-25T08:33:46.999Z</time></trkpt><trkpt lat="45.03958513938429" lon="5.661481093213949"><ele>333.4</ele><time>2026-04-25T08:33:47.999Z</time></trkpt><trkpt lat="45.03948014787217" lon="5.661413571140151"><ele>334.2</ele><time>2026-04-25T08:33:48.999Z</time></trkpt><trkpt lat="45.03938391474115" lon="5.661338353376025"><ele>335.0</ele><time>2026-04-25T08:33:49.999Z</time></trkpt><trkpt lat="45.03927960605437" lon="5.661251822231786"><ele>335.0</ele><time>2026-04-25T08:33:50.999Z</time></trkpt><trkpt lat="45.03916411785072" lon="5.661162725504048"><ele>335.0</ele><time>2026-04-25T08:33:51.999Z</time></trkpt><trkpt lat="45.039047154002795" lon="5.661070646511463"><ele>335.0</ele><time>2026-04-25T08:33:52.999Z</time></trkpt><trkpt lat="45.03892788523117" lon="5.660965816978614"><ele>335.0</ele><time>2026-04-25T08:33:53.999Z</time></trkpt><trkpt lat="45.038804179733916" lon="5.660876071738411"><ele>335.5</ele><time>2026-04-25T08:33:54.999Z</time></trkpt><trkpt lat="45.03868934830978" lon="5.660777535543465"><ele>336.0</ele><time>2026-04-25T08:33:55.999Z</time></trkpt><trkpt lat="45.03857692096854" lon="5.660678591343136"><ele>336.5</ele><time>2026-04-25T08:33:56.999Z</time></trkpt><trkpt lat="45.03847052468339" lon="5.660585952453819"><ele>337.0</ele><time>2026-04-25T08:33:57.999Z</time></trkpt><trkpt lat="45.03837389933286" lon="5.660506436612559"><ele>337.5</ele><time>2026-04-25T08:33:58.999Z</time></trkpt><trkpt lat="45.038268432502726" lon="5.660430992677322"><ele>338.0</ele><time>2026-04-25T08:33:59.999Z</time></trkpt><trkpt lat="45.03814870532909" lon="5.660354404848996"><ele>338.5</ele><time>2026-04-25T08:34:00.998Z</time></trkpt><trkpt lat="45.0380166592904" lon="5.66024736779932"><ele>339.0</ele><time>2026-04-25T08:34:01.998Z</time></trkpt><trkpt lat="45.03786619233486" lon="5.660105359029729"><ele>339.0</ele><time>2026-04-25T08:34:02.998Z</time></trkpt><trkpt lat="45.03768543188968" lon="5.659958137178952"><ele>339.0</ele><time>2026-04-25T08:34:03.998Z</time></trkpt><trkpt lat="45.0374739178286" lon="5.659784389536568"><ele>339.0</ele><time>2026-04-25T08:34:04.998Z</time></trkpt><trkpt lat="45.03724398328154" lon="5.659598487537966"><ele>339.0</ele><time>2026-04-25T08:34:05.998Z</time></trkpt><trkpt lat="45.03700155448415" lon="5.659423574053599"><ele>339.0</ele><time>2026-04-25T08:34:06.998Z</time></trkpt><trkpt lat="45.03677825448256" lon="5.659223558671699"><ele>339.0</ele><time>2026-04-25T08:34:07.998Z</time></trkpt><trkpt lat="45.03656546997455" lon="5.659052583578938"><ele>340.5</ele><time>2026-04-25T08:34:08.998Z</time></trkpt><trkpt lat="45.03636869813229" lon="5.658896890108482"><ele>342.0</ele><time>2026-04-25T08:34:09.998Z</time></trkpt><trkpt lat="45.03614524638012" lon="5.6587278909018845"><ele>341.5</ele><time>2026-04-25T08:34:10.998Z</time></trkpt><trkpt lat="45.03593027150507" lon="5.658525774683139"><ele>341.0</ele><time>2026-04-25T08:34:11.998Z</time></trkpt><trkpt lat="45.03573168791818" lon="5.658371326676396"><ele>341.0</ele><time>2026-04-25T08:34:12.998Z</time></trkpt><trkpt lat="45.035560151268406" lon="5.658218657533422"><ele>341.0</ele><time>2026-04-25T08:34:13.998Z</time></trkpt><trkpt lat="45.03539341149303" lon="5.6580820734293304"><ele>341.0</ele><time>2026-04-25T08:34:14.998Z</time></trkpt><trkpt lat="45.03524065878649" lon="5.65796379514208"><ele>341.0</ele><time>2026-04-25T08:34:15.998Z</time></trkpt><trkpt lat="45.035098388242346" lon="5.657852034481538"><ele>341.0</ele><time>2026-04-25T08:34:16.998Z</time></trkpt><trkpt lat="45.03494190201833" lon="5.657742679671034"><ele>341.0</ele><time>2026-04-25T08:34:17.998Z</time></trkpt><trkpt lat="45.034760690363555" lon="5.657573841100668"><ele>343.0</ele><time>2026-04-25T08:34:18.998Z</time></trkpt><trkpt lat="45.03455268207533" lon="5.6574049568870235"><ele>345.0</ele><time>2026-04-25T08:34:19.998Z</time></trkpt><trkpt lat="45.03432333740534" lon="5.657219249738442"><ele>345.5</ele><time>2026-04-25T08:34:20.998Z</time></trkpt><trkpt lat="45.03409938168118" lon="5.657037905543364"><ele>346.0</ele><time>2026-04-25T08:34:21.998Z</time></trkpt><trkpt lat="45.033879557267156" lon="5.656870442672024"><ele>346.0</ele><time>2026-04-25T08:34:22.998Z</time></trkpt><trkpt lat="45.03367638682479" lon="5.656691242192046"><ele>346.0</ele><time>2026-04-25T08:34:24Z</time></trkpt><trkpt lat="45.03348013015948" lon="5.656531757992392"><ele>347.66666666666663</ele><time>2026-04-25T08:34:25Z</time></trkpt><trkpt lat="45.03330007311448" lon="5.656386607363564"><ele>349.3333333333333</ele><time>2026-04-25T08:34:26Z</time></trkpt><trkpt lat="45.033128114679066" lon="5.656246784787093"><ele>351.0</ele><time>2026-04-25T08:34:27Z</time></trkpt><trkpt lat="45.032959133902736" lon="5.656105123290035"><ele>351.0</ele><time>2026-04-25T08:34:28Z</time></trkpt><trkpt lat="45.03279071877857" lon="5.655953933477258"><ele>351.0</ele><time>2026-04-25T08:34:29Z</time></trkpt><trkpt lat="45.03262022656621" lon="5.655793128051889"><ele>351.0</ele><time>2026-04-25T08:34:30Z</time></trkpt><trkpt lat="45.03245058097465" lon="5.655631520890774"><ele>351.0</ele><time>2026-04-25T08:34:31Z</time></trkpt><trkpt lat="45.03229329819341" lon="5.655451772262322"><ele>351.0</ele><time>2026-04-25T08:34:32Z</time></trkpt><trkpt lat="45.03214032156846" lon="5.655250747951559"><ele>351.0</ele><time>2026-04-25T08:34:33Z</time></trkpt><trkpt lat="45.03199365686085" lon="5.655035148861403"><ele>350.0</ele><time>2026-04-25T08:34:34Z</time></trkpt><trkpt lat="45.031838472057586" lon="5.654811971956999"><ele>349.0</ele><time>2026-04-25T08:34:35Z</time></trkpt><trkpt lat="45.03165720733424" lon="5.654583725690241"><ele>349.0</ele><time>2026-04-25T08:34:36Z</time></trkpt><trkpt lat="45.03146968086466" lon="5.654363635871125"><ele>349.0</ele><time>2026-04-25T08:34:37Z</time></trkpt><trkpt lat="45.03127955379727" lon="5.654156779467348"><ele>349.0</ele><time>2026-04-25T08:34:38Z</time></trkpt><trkpt lat="45.031090461919554" lon="5.653954537147426"><ele>349.0</ele><time>2026-04-25T08:34:39Z</time></trkpt><trkpt lat="45.030906671876224" lon="5.653757500649169"><ele>350.5</ele><time>2026-04-25T08:34:40Z</time></trkpt><trkpt lat="45.03072156855159" lon="5.653559553441893"><ele>352.0</ele><time>2026-04-25T08:34:41Z</time></trkpt><trkpt lat="45.0305382387521" lon="5.653362100848605"><ele>352.0</ele><time>2026-04-25T08:34:42Z</time></trkpt><trkpt lat="45.030356464828195" lon="5.653167849664519"><ele>352.0</ele><time>2026-04-25T08:34:43Z</time></trkpt><trkpt lat="45.03017466777524" lon="5.652974655744634"><ele>352.0</ele><time>2026-04-25T08:34:44Z</time></trkpt><trkpt lat="45.02998973567592" lon="5.652798153861917"><ele>352.0</ele><time>2026-04-25T08:34:45Z</time></trkpt><trkpt lat="45.02979400972976" lon="5.652646165923867"><ele>352.0</ele><time>2026-04-25T08:34:46Z</time></trkpt><trkpt lat="45.02959817143918" lon="5.652511133086242"><ele>353.0</ele><time>2026-04-25T08:34:47Z</time></trkpt><trkpt lat="45.02939936492883" lon="5.652369109555943"><ele>354.0</ele><time>2026-04-25T08:34:48Z</time></trkpt><trkpt lat="45.02920966409738" lon="5.65222552743091"><ele>355.0</ele><time>2026-04-25T08:34:49Z</time></trkpt><trkpt lat="45.029030170060636" lon="5.652101451713345"><ele>355.0</ele><time>2026-04-25T08:34:50Z</time></trkpt><trkpt lat="45.02887265845466" lon="5.651987292569469"><ele>355.0</ele><time>2026-04-25T08:34:51Z</time></trkpt><trkpt lat="45.02871937944274" lon="5.6518797263256415"><ele>355.0</ele><time>2026-04-25T08:34:52Z</time></trkpt><trkpt lat="45.02858651787546" lon="5.65176616947158"><ele>354.75</ele><time>2026-04-25T08:34:53Z</time></trkpt><trkpt lat="45.02846022319414" lon="5.651673932142516"><ele>354.5</ele><time>2026-04-25T08:34:54Z</time></trkpt><trkpt lat="45.028337980928264" lon="5.651610821150466"><ele>354.25</ele><time>2026-04-25T08:34:55Z</time></trkpt><trkpt lat="45.028248177085665" lon="5.651498727165432"><ele>354.0</ele><time>2026-04-25T08:34:56Z</time></trkpt><trkpt lat="45.02816617988415" lon="5.651404475863112"><ele>354.25</ele><time>2026-04-25T08:34:57Z</time></trkpt><trkpt lat="45.02816272680761" lon="5.651163208654926"><ele>354.5</ele><time>2026-04-25T08:34:58Z</time></trkpt><trkpt lat="45.028163072318584" lon="5.650972001438865"><ele>354.75</ele><time>2026-04-25T08:34:59Z</time></trkpt><trkpt lat="45.02817858976994" lon="5.65077086089033"><ele>355.0</ele><time>2026-04-25T08:35:00Z</time></trkpt><trkpt lat="45.02819381149595" lon="5.650568348301284"><ele>355.0</ele><time>2026-04-25T08:35:01Z</time></trkpt><trkpt lat="45.02820873403184" lon="5.650377478515163"><ele>355.0</ele><time>2026-04-25T08:35:02Z</time></trkpt><trkpt lat="45.02821403780388" lon="5.6502130084463005"><ele>355.0</ele><time>2026-04-25T08:35:02.999Z</time></trkpt><trkpt lat="45.02819600995586" lon="5.650067148625558"><ele>355.0</ele><time>2026-04-25T08:35:03.999Z</time></trkpt><trkpt lat="45.02815332653876" lon="5.649915729290865"><ele>355.25</ele><time>2026-04-25T08:35:04.999Z</time></trkpt><trkpt lat="45.028088538287314" lon="5.649762552830775"><ele>355.5</ele><time>2026-04-25T08:35:05.999Z</time></trkpt><trkpt lat="45.02800390044169" lon="5.649609397143986"><ele>355.75</ele><time>2026-04-25T08:35:06.999Z</time></trkpt><trkpt lat="45.02790142871036" lon="5.649453068279999"><ele>356.0</ele><time>2026-04-25T08:35:07.999Z</time></trkpt><trkpt lat="45.027788350847956" lon="5.649289562826192"><ele>356.6666666666667</ele><time>2026-04-25T08:35:08.999Z</time></trkpt><trkpt lat="45.02765524319087" lon="5.649144078244667"><ele>357.3333333333333</ele><time>2026-04-25T08:35:09.999Z</time></trkpt><trkpt lat="45.02750868411907" lon="5.649011580273602"><ele>358.0</ele><time>2026-04-25T08:35:10.999Z</time></trkpt><trkpt lat="45.02735662143815" lon="5.648879445549777"><ele>358.0</ele><time>2026-04-25T08:35:11.999Z</time></trkpt><trkpt lat="45.02721014351874" lon="5.648743292127591"><ele>358.0</ele><time>2026-04-25T08:35:12.999Z</time></trkpt><trkpt lat="45.02706264792401" lon="5.648607573543562"><ele>358.0</ele><time>2026-04-25T08:35:13.999Z</time></trkpt><trkpt lat="45.02691043389918" lon="5.648477149201509"><ele>360.3333333333333</ele><time>2026-04-25T08:35:14.999Z</time></trkpt><trkpt lat="45.02676325946441" lon="5.64834614585136"><ele>362.6666666666667</ele><time>2026-04-25T08:35:15.999Z</time></trkpt><trkpt lat="45.02661665574323" lon="5.648213583644304"><ele>365.0</ele><time>2026-04-25T08:35:16.999Z</time></trkpt><trkpt lat="45.02648584986064" lon="5.6480870089117845"><ele>365.0</ele><time>2026-04-25T08:35:17.999Z</time></trkpt><trkpt lat="45.02637338376859" lon="5.6479407799897645"><ele>365.0</ele><time>2026-04-25T08:35:18.999Z</time></trkpt><trkpt lat="45.02626541184153" lon="5.647873904786098"><ele>365.0</ele><time>2026-04-25T08:35:19.999Z</time></trkpt><trkpt lat="45.026172028643124" lon="5.647799387963785"><ele>365.0</ele><time>2026-04-25T08:35:20.999Z</time></trkpt><trkpt lat="45.0261029181153" lon="5.647735060669858"><ele>365.33333333333337</ele><time>2026-04-25T08:35:21.999Z</time></trkpt><trkpt lat="45.02604981289032" lon="5.647682353995589"><ele>365.6666666666667</ele><time>2026-04-25T08:35:22.999Z</time></trkpt><trkpt lat="45.02595516138202" lon="5.647602991286382"><ele>366.0</ele><time>2026-04-25T08:35:24.999Z</time></trkpt><trkpt lat="45.025895142465046" lon="5.647554304210878"><ele>366.3333333333333</ele><time>2026-04-25T08:35:25.999Z</time></trkpt><trkpt lat="45.025831496410575" lon="5.647494041176504"><ele>366.66666666666663</ele><time>2026-04-25T08:35:26.999Z</time></trkpt><trkpt lat="45.02575865362831" lon="5.64739305661236"><ele>367.0</ele><time>2026-04-25T08:35:27.999Z</time></trkpt><trkpt lat="45.02569790908515" lon="5.647252589417313"><ele>367.0</ele><time>2026-04-25T08:35:28.999Z</time></trkpt><trkpt lat="45.02562813607171" lon="5.6471148748972055"><ele>367.0</ele><time>2026-04-25T08:35:29.999Z</time></trkpt><trkpt lat="45.02556122283905" lon="5.646989143091139"><ele>367.0</ele><time>2026-04-25T08:35:30.999Z</time></trkpt><trkpt lat="45.02549643611829" lon="5.646857100579766"><ele>367.0</ele><time>2026-04-25T08:35:31.999Z</time></trkpt><trkpt lat="45.02543031100893" lon="5.646722063158406"><ele>367.6</ele><time>2026-04-25T08:35:32.999Z</time></trkpt><trkpt lat="45.02537104461827" lon="5.646582657562049"><ele>368.20000000000005</ele><time>2026-04-25T08:35:33.999Z</time></trkpt><trkpt lat="45.0253070076142" lon="5.64645149814696"><ele>368.8</ele><time>2026-04-25T08:35:34.999Z</time></trkpt><trkpt lat="45.02524217622996" lon="5.646320407173673"><ele>369.4</ele><time>2026-04-25T08:35:35.999Z</time></trkpt><trkpt lat="45.02517497047038" lon="5.646200139511783"><ele>370.0</ele><time>2026-04-25T08:35:36.999Z</time></trkpt><trkpt lat="45.025110242087166" lon="5.64607992039223"><ele>370.8333333333333</ele><time>2026-04-25T08:35:37.999Z</time></trkpt><trkpt lat="45.02504297861044" lon="5.645967197197564"><ele>371.66666666666663</ele><time>2026-04-25T08:35:38.999Z</time></trkpt><trkpt lat="45.024965404280124" lon="5.64588848463018"><ele>372.5</ele><time>2026-04-25T08:35:39.999Z</time></trkpt><trkpt lat="45.024896281885816" lon="5.645833216043708"><ele>373.3333333333333</ele><time>2026-04-25T08:35:40.999Z</time></trkpt><trkpt lat="45.02481972665701" lon="5.645795707870737"><ele>374.1666666666667</ele><time>2026-04-25T08:35:41.999Z</time></trkpt><trkpt lat="45.02473317474149" lon="5.645765944654528"><ele>375.0</ele><time>2026-04-25T08:35:42.999Z</time></trkpt><trkpt lat="45.02463740915114" lon="5.645743292705886"><ele>375.0</ele><time>2026-04-25T08:35:43.999Z</time></trkpt><trkpt lat="45.02454148232977" lon="5.645719888251157"><ele>375.0</ele><time>2026-04-25T08:35:44.999Z</time></trkpt><trkpt lat="45.0244411850958" lon="5.645702565657733"><ele>375.0</ele><time>2026-04-25T08:35:45.999Z</time></trkpt><trkpt lat="45.024340374245284" lon="5.645684365653134"><ele>375.0</ele><time>2026-04-25T08:35:46.999Z</time></trkpt><trkpt lat="45.02423647308511" lon="5.645663193029021"><ele>375.0</ele><time>2026-04-25T08:35:47.999Z</time></trkpt><trkpt lat="45.02413857425212" lon="5.645638186307053"><ele>374.8</ele><time>2026-04-25T08:35:48.999Z</time></trkpt><trkpt lat="45.024025872973034" lon="5.645620756076536"><ele>374.6</ele><time>2026-04-25T08:35:49.999Z</time></trkpt><trkpt lat="45.02391935298498" lon="5.645593432695401"><ele>374.4</ele><time>2026-04-25T08:35:50.999Z</time></trkpt><trkpt lat="45.02381765942623" lon="5.645558080415369"><ele>374.2</ele><time>2026-04-25T08:35:51.999Z</time></trkpt><trkpt lat="45.02371384382013" lon="5.64551888685376"><ele>374.0</ele><time>2026-04-25T08:35:52.999Z</time></trkpt><trkpt lat="45.02361534966645" lon="5.645476155923"><ele>374.0</ele><time>2026-04-25T08:35:53.999Z</time></trkpt><trkpt lat="45.023507274572836" lon="5.645438243561686"><ele>374.0</ele><time>2026-04-25T08:35:54.999Z</time></trkpt><trkpt lat="45.02340426394773" lon="5.6453996642637865"><ele>374.0</ele><time>2026-04-25T08:35:55.999Z</time></trkpt><trkpt lat="45.0232945492754" lon="5.645355794467042"><ele>374.0</ele><time>2026-04-25T08:35:56.999Z</time></trkpt><trkpt lat="45.023187480303015" lon="5.645308068511202"><ele>374.0</ele><time>2026-04-25T08:35:57.999Z</time></trkpt><trkpt lat="45.0230933305942" lon="5.645243628080844"><ele>376.2</ele><time>2026-04-25T08:35:58.999Z</time></trkpt><trkpt lat="45.02300037982426" lon="5.645172968186498"><ele>378.4</ele><time>2026-04-25T08:35:59.999Z</time></trkpt><trkpt lat="45.02290953928718" lon="5.645099487369212"><ele>380.6</ele><time>2026-04-25T08:36:00.999Z</time></trkpt><trkpt lat="45.02281824507645" lon="5.645028666597304"><ele>382.8</ele><time>2026-04-25T08:36:01.999Z</time></trkpt><trkpt lat="45.02272984841467" lon="5.644961516307236"><ele>385.0</ele><time>2026-04-25T08:36:02.999Z</time></trkpt><trkpt lat="45.022638783341186" lon="5.644896712420726"><ele>385.00000000000006</ele><time>2026-04-25T08:36:03.999Z</time></trkpt><trkpt lat="45.02254855367983" lon="5.644830106362813"><ele>385.0</ele><time>2026-04-25T08:36:04.998Z</time></trkpt><trkpt lat="45.02246987082241" lon="5.644770278002589"><ele>385.0</ele><time>2026-04-25T08:36:05.998Z</time></trkpt><trkpt lat="45.02241062885101" lon="5.644713269891084"><ele>385.0</ele><time>2026-04-25T08:36:06.998Z</time></trkpt><trkpt lat="45.02235280339369" lon="5.644663469314627"><ele>385.00000000000006</ele><time>2026-04-25T08:36:07.998Z</time></trkpt><trkpt lat="45.022288478261565" lon="5.644624209764946"><ele>385.0</ele><time>2026-04-25T08:36:08.998Z</time></trkpt><trkpt lat="45.022217485835526" lon="5.644578475703955"><ele>385.5</ele><time>2026-04-25T08:36:09.998Z</time></trkpt><trkpt lat="45.02214162054541" lon="5.644494332609714"><ele>386.0</ele><time>2026-04-25T08:36:10.998Z</time></trkpt><trkpt lat="45.02203606021136" lon="5.644410319239183"><ele>386.5</ele><time>2026-04-25T08:36:11.998Z</time></trkpt><trkpt lat="45.02192192386437" lon="5.644319353129852"><ele>387.0</ele><time>2026-04-25T08:36:12.998Z</time></trkpt><trkpt lat="45.02180941759157" lon="5.644229650866341"><ele>388.75</ele><time>2026-04-25T08:36:13.998Z</time></trkpt><trkpt lat="45.02170410379326" lon="5.6441466979233645"><ele>390.5</ele><time>2026-04-25T08:36:14.998Z</time></trkpt><trkpt lat="45.021605536976004" lon="5.644070256795812"><ele>392.25</ele><time>2026-04-25T08:36:15.998Z</time></trkpt><trkpt lat="45.021505909516975" lon="5.64399518016779"><ele>394.0</ele><time>2026-04-25T08:36:16.998Z</time></trkpt><trkpt lat="45.02139647349021" lon="5.643914170318497"><ele>394.25</ele><time>2026-04-25T08:36:17.998Z</time></trkpt><trkpt lat="45.02127930104383" lon="5.643827433596791"><ele>394.5</ele><time>2026-04-25T08:36:18.998Z</time></trkpt><trkpt lat="45.021154548007694" lon="5.6437332190891665"><ele>394.75</ele><time>2026-04-25T08:36:19.998Z</time></trkpt><trkpt lat="45.02101946872039" lon="5.643625172797668"><ele>395.0</ele><time>2026-04-25T08:36:20.998Z</time></trkpt><trkpt lat="45.020892242853954" lon="5.643531915612565"><ele>397.66666666666663</ele><time>2026-04-25T08:36:21.998Z</time></trkpt><trkpt lat="45.02076396332924" lon="5.643431780673614"><ele>400.33333333333337</ele><time>2026-04-25T08:36:22.998Z</time></trkpt><trkpt lat="45.02062588968614" lon="5.64332696877635"><ele>403.0</ele><time>2026-04-25T08:36:23.998Z</time></trkpt><trkpt lat="45.02049080418292" lon="5.6432141756884455"><ele>403.0</ele><time>2026-04-25T08:36:24.998Z</time></trkpt><trkpt lat="45.020352152197404" lon="5.643095229053644"><ele>403.0</ele><time>2026-04-25T08:36:25.998Z</time></trkpt><trkpt lat="45.0202224691236" lon="5.642961882133192"><ele>403.0</ele><time>2026-04-25T08:36:26.998Z</time></trkpt><trkpt lat="45.02009076061482" lon="5.642829830305672"><ele>404.6666666666667</ele><time>2026-04-25T08:36:27.998Z</time></trkpt><trkpt lat="45.01994010438729" lon="5.6427193269105995"><ele>406.33333333333337</ele><time>2026-04-25T08:36:28.998Z</time></trkpt><trkpt lat="45.01976167565612" lon="5.642625823846725"><ele>408.0</ele><time>2026-04-25T08:36:30Z</time></trkpt><trkpt lat="45.019566192607456" lon="5.642526510547816"><ele>408.0</ele><time>2026-04-25T08:36:31Z</time></trkpt><trkpt lat="45.01936499730403" lon="5.64241964127878"><ele>408.0</ele><time>2026-04-25T08:36:32Z</time></trkpt><trkpt lat="45.01915105014567" lon="5.642278393146249"><ele>408.5</ele><time>2026-04-25T08:36:33Z</time></trkpt><trkpt lat="45.01891705305755" lon="5.642148609737594"><ele>409.0</ele><time>2026-04-25T08:36:34Z</time></trkpt><trkpt lat="45.01868562002924" lon="5.642021267884199"><ele>412.5</ele><time>2026-04-25T08:36:35Z</time></trkpt><trkpt lat="45.018465384376675" lon="5.641902988739867"><ele>416.0</ele><time>2026-04-25T08:36:36Z</time></trkpt><trkpt lat="45.01824715716916" lon="5.641782048440751"><ele>416.0</ele><time>2026-04-25T08:36:37Z</time></trkpt><trkpt lat="45.0180388519431" lon="5.641664158260429"><ele>416.0</ele><time>2026-04-25T08:36:38Z</time></trkpt><trkpt lat="45.017840356255725" lon="5.641546492562351"><ele>416.0</ele><time>2026-04-25T08:36:39Z</time></trkpt><trkpt lat="45.01765571820615" lon="5.641402030835169"><ele>416.0</ele><time>2026-04-25T08:36:40Z</time></trkpt><trkpt lat="45.017492159596806" lon="5.641235592917442"><ele>416.0</ele><time>2026-04-25T08:36:41Z</time></trkpt><trkpt lat="45.01732430795992" lon="5.641078095046425"><ele>416.0</ele><time>2026-04-25T08:36:42Z</time></trkpt><trkpt lat="45.01715628272598" lon="5.640932828195498"><ele>418.66666666666663</ele><time>2026-04-25T08:36:43Z</time></trkpt><trkpt lat="45.01695778503212" lon="5.640839931247099"><ele>421.33333333333337</ele><time>2026-04-25T08:36:44Z</time></trkpt><trkpt lat="45.016732964890636" lon="5.640786667034258"><ele>424.0</ele><time>2026-04-25T08:36:45Z</time></trkpt><trkpt lat="45.01651263033219" lon="5.640735289921534"><ele>424.0</ele><time>2026-04-25T08:36:46Z</time></trkpt><trkpt lat="45.016318604498274" lon="5.640614608771911"><ele>424.0</ele><time>2026-04-25T08:36:47Z</time></trkpt><trkpt lat="45.016150245005726" lon="5.640463569791051"><ele>424.0</ele><time>2026-04-25T08:36:48Z</time></trkpt><trkpt lat="45.01598673568024" lon="5.6402862232564"><ele>429.0</ele><time>2026-04-25T08:36:49Z</time></trkpt><trkpt lat="45.01581825495365" lon="5.640155165925533"><ele>434.0</ele><time>2026-04-25T08:36:50Z</time></trkpt><trkpt lat="45.01564548033577" lon="5.640052314887204"><ele>439.0</ele><time>2026-04-25T08:36:51Z</time></trkpt><trkpt lat="45.01543547330843" lon="5.640007113549001"><ele>439.0</ele><time>2026-04-25T08:36:52Z</time></trkpt><trkpt lat="45.01520612198766" lon="5.639971002819472"><ele>439.0</ele><time>2026-04-25T08:36:53Z</time></trkpt><trkpt lat="45.014968072061855" lon="5.639937163682306"><ele>440.5</ele><time>2026-04-25T08:36:54Z</time></trkpt><trkpt lat="45.01472985606789" lon="5.639895547152913"><ele>442.0</ele><time>2026-04-25T08:36:55Z</time></trkpt><trkpt lat="45.01450324500636" lon="5.639857200434365"><ele>442.0</ele><time>2026-04-25T08:36:56Z</time></trkpt><trkpt lat="45.01429213337886" lon="5.639824702078676"><ele>442.0</ele><time>2026-04-25T08:36:57Z</time></trkpt><trkpt lat="45.014105239709096" lon="5.639793067843865"><ele>442.0</ele><time>2026-04-25T08:36:58Z</time></trkpt><trkpt lat="45.01394036545352" lon="5.639759009818253"><ele>442.33333333333337</ele><time>2026-04-25T08:36:59Z</time></trkpt><trkpt lat="45.0137966289207" lon="5.639671111632208"><ele>442.66666666666663</ele><time>2026-04-25T08:37:00Z</time></trkpt><trkpt lat="45.01367192119307" lon="5.639553709615722"><ele>443.0</ele><time>2026-04-25T08:37:01Z</time></trkpt><trkpt lat="45.013574769402176" lon="5.63938841715425"><ele>445.66666666666663</ele><time>2026-04-25T08:37:02Z</time></trkpt><trkpt lat="45.013537394281684" lon="5.639178269567168"><ele>448.33333333333337</ele><time>2026-04-25T08:37:03Z</time></trkpt><trkpt lat="45.01350100145938" lon="5.638919596384741"><ele>451.0</ele><time>2026-04-25T08:37:04Z</time></trkpt><trkpt lat="45.01342628894046" lon="5.638678228055395"><ele>452.33333333333337</ele><time>2026-04-25T08:37:05Z</time></trkpt><trkpt lat="45.013330456429856" lon="5.63841540044799"><ele>453.66666666666663</ele><time>2026-04-25T08:37:06Z</time></trkpt><trkpt lat="45.01320412220766" lon="5.6381597167451964"><ele>455.0</ele><time>2026-04-25T08:37:07Z</time></trkpt><trkpt lat="45.01306794786298" lon="5.637967337503278"><ele>455.0</ele><time>2026-04-25T08:37:08Z</time></trkpt><trkpt lat="45.012914204342" lon="5.637826340548881"><ele>455.0</ele><time>2026-04-25T08:37:09Z</time></trkpt><trkpt lat="45.012723486458775" lon="5.637738619545421"><ele>455.0</ele><time>2026-04-25T08:37:10Z</time></trkpt><trkpt lat="45.01250610938337" lon="5.637623892785491"><ele>465.5</ele><time>2026-04-25T08:37:11Z</time></trkpt><trkpt lat="45.01228388437976" lon="5.637533728902784"><ele>476.0</ele><time>2026-04-25T08:37:12Z</time></trkpt><trkpt lat="45.012057244152615" lon="5.6374822429879945"><ele>476.0</ele><time>2026-04-25T08:37:12.999Z</time></trkpt><trkpt lat="45.0118433546158" lon="5.637458617804876"><ele>476.0</ele><time>2026-04-25T08:37:13.999Z</time></trkpt><trkpt lat="45.011643820526935" lon="5.637376611242584"><ele>476.0</ele><time>2026-04-25T08:37:14.999Z</time></trkpt><trkpt lat="45.01146018027975" lon="5.637255577116086"><ele>480.66666666666663</ele><time>2026-04-25T08:37:15.999Z</time></trkpt><trkpt lat="45.011277491761156" lon="5.637133702916376"><ele>485.33333333333337</ele><time>2026-04-25T08:37:16.999Z</time></trkpt><trkpt lat="45.01110046342452" lon="5.637027406198352"><ele>490.0</ele><time>2026-04-25T08:37:17.999Z</time></trkpt><trkpt lat="45.01095344797833" lon="5.63685262438516"><ele>490.0</ele><time>2026-04-25T08:37:18.999Z</time></trkpt><trkpt lat="45.010833180205694" lon="5.636531228563943"><ele>490.0</ele><time>2026-04-25T08:37:19.999Z</time></trkpt><trkpt lat="45.01068788558988" lon="5.636230955985852"><ele>483.5</ele><time>2026-04-25T08:37:20.999Z</time></trkpt><trkpt lat="45.01052959933238" lon="5.6359516391658"><ele>477.0</ele><time>2026-04-25T08:37:21.999Z</time></trkpt><trkpt lat="45.01037660594442" lon="5.635632126314374"><ele>477.0</ele><time>2026-04-25T08:37:22.999Z</time></trkpt><trkpt lat="45.01023399634925" lon="5.635386493540913"><ele>477.0</ele><time>2026-04-25T08:37:23.999Z</time></trkpt><trkpt lat="45.010118328984966" lon="5.6351724866540245"><ele>477.0</ele><time>2026-04-25T08:37:24.999Z</time></trkpt><trkpt lat="45.01005260529788" lon="5.6349564753292976"><ele>484.33333333333337</ele><time>2026-04-25T08:37:25.999Z</time></trkpt><trkpt lat="45.01005393660356" lon="5.634757807844934"><ele>491.6666666666667</ele><time>2026-04-25T08:37:26.999Z</time></trkpt><trkpt lat="45.01012336542297" lon="5.634542208713283"><ele>499.0</ele><time>2026-04-25T08:37:27.999Z</time></trkpt><trkpt lat="45.01015697453214" lon="5.634280810626284"><ele>500.6666666666667</ele><time>2026-04-25T08:37:28.999Z</time></trkpt><trkpt lat="45.01016401328828" lon="5.63399607350215"><ele>502.33333333333337</ele><time>2026-04-25T08:37:29.999Z</time></trkpt><trkpt lat="45.01014651574316" lon="5.633684414778036"><ele>504.0</ele><time>2026-04-25T08:37:30.999Z</time></trkpt><trkpt lat="45.010119479280654" lon="5.633406589146588"><ele>504.66666666666663</ele><time>2026-04-25T08:37:31.999Z</time></trkpt><trkpt lat="45.01007434834064" lon="5.633183436960657"><ele>505.3333333333333</ele><time>2026-04-25T08:37:32.999Z</time></trkpt><trkpt lat="45.010021287156974" lon="5.632998087371465"><ele>506.0</ele><time>2026-04-25T08:37:33.999Z</time></trkpt><trkpt lat="45.00991151416785" lon="5.632852178365209"><ele>516.0</ele><time>2026-04-25T08:37:34.999Z</time></trkpt><trkpt lat="45.009777022987805" lon="5.632763081449256"><ele>526.0</ele><time>2026-04-25T08:37:35.999Z</time></trkpt><trkpt lat="45.00960585244423" lon="5.632723748164669"><ele>536.0</ele><time>2026-04-25T08:37:36.999Z</time></trkpt><trkpt lat="45.00940029717656" lon="5.632721256908165"><ele>536.0</ele><time>2026-04-25T08:37:37.999Z</time></trkpt><trkpt lat="45.00917610622678" lon="5.632675864794449"><ele>536.0</ele><time>2026-04-25T08:37:38.999Z</time></trkpt><trkpt lat="45.00896037114121" lon="5.632632605237495"><ele>536.0</ele><time>2026-04-25T08:37:39.999Z</time></trkpt><trkpt lat="45.00877789850639" lon="5.632613828567524"><ele>533.25</ele><time>2026-04-25T08:37:40.999Z</time></trkpt><trkpt lat="45.00862070837901" lon="5.632583678276631"><ele>530.5</ele><time>2026-04-25T08:37:41.999Z</time></trkpt><trkpt lat="45.00848367273169" lon="5.632594195902807"><ele>527.75</ele><time>2026-04-25T08:37:42.999Z</time></trkpt><trkpt lat="45.00836718256914" lon="5.632652869311946"><ele>525.0</ele><time>2026-04-25T08:37:43.999Z</time></trkpt><trkpt lat="45.00827821012198" lon="5.632649871004722"><ele>525.0</ele><time>2026-04-25T08:37:44.999Z</time></trkpt><trkpt lat="45.008222625095506" lon="5.632562018345295"><ele>525.0</ele><time>2026-04-25T08:37:45.999Z</time></trkpt><trkpt lat="45.00819435434743" lon="5.632471301528084"><ele>525.0</ele><time>2026-04-25T08:37:46.999Z</time></trkpt><trkpt lat="45.00829892298266" lon="5.632254945610358"><ele>525.0</ele><time>2026-04-25T08:37:47.999Z</time></trkpt><trkpt lat="45.00834802355381" lon="5.632047736894382"><ele>526.6666666666666</ele><time>2026-04-25T08:37:48.999Z</time></trkpt><trkpt lat="45.00834234502945" lon="5.631820125152394"><ele>528.3333333333333</ele><time>2026-04-25T08:37:49.999Z</time></trkpt><trkpt lat="45.00831946337302" lon="5.631601208941918"><ele>530.0</ele><time>2026-04-25T08:37:50.999Z</time></trkpt><trkpt lat="45.008240698149216" lon="5.631406376171868"><ele>530.0</ele><time>2026-04-25T08:37:51.999Z</time></trkpt><trkpt lat="45.00812229979944" lon="5.631243692706601"><ele>530.0</ele><time>2026-04-25T08:37:52.999Z</time></trkpt><trkpt lat="45.00796261624636" lon="5.631102627405092"><ele>530.0</ele><time>2026-04-25T08:37:53.999Z</time></trkpt><trkpt lat="45.00777437733476" lon="5.63097825964717"><ele>532.6666666666666</ele><time>2026-04-25T08:37:54.999Z</time></trkpt><trkpt lat="45.007544945056594" lon="5.630911221749202"><ele>535.3333333333334</ele><time>2026-04-25T08:37:55.999Z</time></trkpt><trkpt lat="45.00735696737072" lon="5.6308434684484805"><ele>538.0</ele><time>2026-04-25T08:37:56.999Z</time></trkpt><trkpt lat="45.00720930502412" lon="5.630770124544227"><ele>538.0</ele><time>2026-04-25T08:37:57.999Z</time></trkpt><trkpt lat="45.007087110888435" lon="5.630622591256177"><ele>538.0</ele><time>2026-04-25T08:37:58.999Z</time></trkpt><trkpt lat="45.006948994113074" lon="5.630494262376569"><ele>538.0</ele><time>2026-04-25T08:37:59.999Z</time></trkpt><trkpt lat="45.00682032101179" lon="5.6303532825188505"><ele>545.0</ele><time>2026-04-25T08:38:00.999Z</time></trkpt><trkpt lat="45.0067043003529" lon="5.630193862306849"><ele>552.0</ele><time>2026-04-25T08:38:01.999Z</time></trkpt><trkpt lat="45.00664640607289" lon="5.6299897241333055"><ele>559.0</ele><time>2026-04-25T08:38:02.999Z</time></trkpt><trkpt lat="45.0065851110813" lon="5.629772804533664"><ele>562.6666666666667</ele><time>2026-04-25T08:38:03.999Z</time></trkpt><trkpt lat="45.00651793965778" lon="5.629560143358859"><ele>566.3333333333334</ele><time>2026-04-25T08:38:04.999Z</time></trkpt><trkpt lat="45.00646231824486" lon="5.629345606803019"><ele>570.0</ele><time>2026-04-25T08:38:05.999Z</time></trkpt><trkpt lat="45.00640790689665" lon="5.629142185735462"><ele>570.75</ele><time>2026-04-25T08:38:06.999Z</time></trkpt><trkpt lat="45.00637523397419" lon="5.628954315166321"><ele>571.5</ele><time>2026-04-25T08:38:07.999Z</time></trkpt><trkpt lat="45.00641340335574" lon="5.628776483122077"><ele>572.25</ele><time>2026-04-25T08:38:08.999Z</time></trkpt><trkpt lat="45.00644123877415" lon="5.628598054434946"><ele>573.0</ele><time>2026-04-25T08:38:09.999Z</time></trkpt><trkpt lat="45.00648228209849" lon="5.628428180967528"><ele>573.75</ele><time>2026-04-25T08:38:10.999Z</time></trkpt><trkpt lat="45.006462083309714" lon="5.628295109861727"><ele>574.5</ele><time>2026-04-25T08:38:11.999Z</time></trkpt><trkpt lat="45.00638165276646" lon="5.628175282713503"><ele>575.25</ele><time>2026-04-25T08:38:12.999Z</time></trkpt><trkpt lat="45.006265739327496" lon="5.628083840204375"><ele>576.0</ele><time>2026-04-25T08:38:13.999Z</time></trkpt><trkpt lat="45.00615743548983" lon="5.628017029790592"><ele>576.0</ele><time>2026-04-25T08:38:14.998Z</time></trkpt><trkpt lat="45.00606429338189" lon="5.6280021313501125"><ele>576.0</ele><time>2026-04-25T08:38:15.998Z</time></trkpt><trkpt lat="45.00596804500965" lon="5.628079162080047"><ele>576.0</ele><time>2026-04-25T08:38:16.998Z</time></trkpt><trkpt lat="45.005896224408424" lon="5.62820961967499"><ele>576.0</ele><time>2026-04-25T08:38:17.998Z</time></trkpt><trkpt lat="45.005839566487396" lon="5.62840213889966"><ele>583.0</ele><time>2026-04-25T08:38:18.998Z</time></trkpt><trkpt lat="45.00578436182933" lon="5.628593161639015"><ele>590.0</ele><time>2026-04-25T08:38:19.998Z</time></trkpt><trkpt lat="45.005719127763996" lon="5.628793944741519"><ele>597.0</ele><time>2026-04-25T08:38:20.998Z</time></trkpt><trkpt lat="45.00571352617428" lon="5.629028431752525"><ele>597.0</ele><time>2026-04-25T08:38:21.998Z</time></trkpt><trkpt lat="45.00569185033525" lon="5.62932414618397"><ele>597.0</ele><time>2026-04-25T08:38:22.998Z</time></trkpt><trkpt lat="45.00567680448676" lon="5.629632894105754"><ele>597.0</ele><time>2026-04-25T08:38:23.998Z</time></trkpt><trkpt lat="45.00565654437564" lon="5.629916613000153"><ele>595.6666666666666</ele><time>2026-04-25T08:38:24.998Z</time></trkpt><trkpt lat="45.00560906441034" lon="5.63017869507097"><ele>594.3333333333333</ele><time>2026-04-25T08:38:25.998Z</time></trkpt><trkpt lat="45.00548921265784" lon="5.6304381784469015"><ele>593.0</ele><time>2026-04-25T08:38:26.998Z</time></trkpt><trkpt lat="45.00541609823709" lon="5.630657388368103"><ele>590.5</ele><time>2026-04-25T08:38:27.998Z</time></trkpt><trkpt lat="45.00535820984201" lon="5.630867656260266"><ele>588.0</ele><time>2026-04-25T08:38:28.998Z</time></trkpt><trkpt lat="45.005255404003805" lon="5.631000922174049"><ele>585.5</ele><time>2026-04-25T08:38:29.998Z</time></trkpt><trkpt lat="45.00513329989004" lon="5.631022726903634"><ele>583.0</ele><time>2026-04-25T08:38:30.998Z</time></trkpt><trkpt lat="45.00503057760152" lon="5.630972034169757"><ele>581.0</ele><time>2026-04-25T08:38:31.998Z</time></trkpt><trkpt lat="45.00491534001502" lon="5.630849580464152"><ele>579.0</ele><time>2026-04-25T08:38:32.998Z</time></trkpt><trkpt lat="45.004833912997384" lon="5.630769308400939"><ele>577.0</ele><time>2026-04-25T08:38:33.998Z</time></trkpt><trkpt lat="45.0046798107276" lon="5.6306035029987385"><ele>575.0</ele><time>2026-04-25T08:38:34.998Z</time></trkpt><trkpt lat="45.004520918061324" lon="5.630427192799836"><ele>578.75</ele><time>2026-04-25T08:38:36Z</time></trkpt><trkpt lat="45.00441202136104" lon="5.630256322137475"><ele>582.5</ele><time>2026-04-25T08:38:37Z</time></trkpt><trkpt lat="45.00436471409714" lon="5.630072826310513"><ele>586.25</ele><time>2026-04-25T08:38:38Z</time></trkpt><trkpt lat="45.00439291133472" lon="5.629904853259801"><ele>590.0</ele><time>2026-04-25T08:38:39Z</time></trkpt><trkpt lat="45.00440358106153" lon="5.629686703465189"><ele>593.0</ele><time>2026-04-25T08:38:40Z</time></trkpt><trkpt lat="45.00439139529834" lon="5.629462923058494"><ele>596.0</ele><time>2026-04-25T08:38:41Z</time></trkpt><trkpt lat="45.00430952404138" lon="5.629267968445918"><ele>599.0</ele><time>2026-04-25T08:38:42Z</time></trkpt><trkpt lat="45.0042077382348" lon="5.629115380872813"><ele>600.5</ele><time>2026-04-25T08:38:43Z</time></trkpt><trkpt lat="45.0040894912408" lon="5.629054245665319"><ele>602.0</ele><time>2026-04-25T08:38:44Z</time></trkpt><trkpt lat="45.00397631051935" lon="5.6290885323040865"><ele>603.5</ele><time>2026-04-25T08:38:45Z</time></trkpt><trkpt lat="45.00386959352428" lon="5.629230058160463"><ele>605.0</ele><time>2026-04-25T08:38:46Z</time></trkpt><trkpt lat="45.00373599456212" lon="5.629402849427588"><ele>604.6666666666666</ele><time>2026-04-25T08:38:47Z</time></trkpt><trkpt lat="45.00358241070997" lon="5.629605970921624"><ele>604.3333333333334</ele><time>2026-04-25T08:38:48Z</time></trkpt><trkpt lat="45.003425487502696" lon="5.6297597602853084"><ele>604.0</ele><time>2026-04-25T08:38:49Z</time></trkpt><trkpt lat="45.003318330362106" lon="5.629914517517958"><ele>604.0</ele><time>2026-04-25T08:38:50Z</time></trkpt><trkpt lat="45.003211378738456" lon="5.63005901157645"><ele>604.0</ele><time>2026-04-25T08:38:51Z</time></trkpt><trkpt lat="45.00310449594747" lon="5.630214144796052"><ele>604.0</ele><time>2026-04-25T08:38:52Z</time></trkpt><trkpt lat="45.00293531623064" lon="5.630258173682877"><ele>604.0</ele><time>2026-04-25T08:38:53Z</time></trkpt><trkpt lat="45.00277689828035" lon="5.630288653692716"><ele>604.0</ele><time>2026-04-25T08:38:54Z</time></trkpt><trkpt lat="45.00263268134716" lon="5.630265509034167"><ele>604.0</ele><time>2026-04-25T08:38:55Z</time></trkpt><trkpt lat="45.00252165846083" lon="5.63014493452803"><ele>604.0</ele><time>2026-04-25T08:38:56Z</time></trkpt><trkpt lat="45.0023336294958" lon="5.630010722345512"><ele>605.0</ele><time>2026-04-25T08:38:57Z</time></trkpt><trkpt lat="45.00214961059941" lon="5.629924561630686"><ele>606.0</ele><time>2026-04-25T08:38:58Z</time></trkpt><trkpt lat="45.00195419767081" lon="5.629848111848674"><ele>607.0</ele><time>2026-04-25T08:38:59Z</time></trkpt><trkpt lat="45.00176052006936" lon="5.629748138506615"><ele>609.3333333333334</ele><time>2026-04-25T08:39:00Z</time></trkpt><trkpt lat="45.0015779854666" lon="5.629666664879407"><ele>611.6666666666666</ele><time>2026-04-25T08:39:01Z</time></trkpt><trkpt lat="45.00140467688755" lon="5.629590423792485"><ele>614.0</ele><time>2026-04-25T08:39:02Z</time></trkpt><trkpt lat="45.00124207030837" lon="5.629543046474907"><ele>614.0</ele><time>2026-04-25T08:39:03Z</time></trkpt><trkpt lat="45.00110231252026" lon="5.629493242403701"><ele>614.0</ele><time>2026-04-25T08:39:04Z</time></trkpt><trkpt lat="45.00095437889377" lon="5.629500853636088"><ele>614.0</ele><time>2026-04-25T08:39:05Z</time></trkpt><trkpt lat="45.00080684255801" lon="5.629572864419471"><ele>614.0</ele><time>2026-04-25T08:39:06Z</time></trkpt><trkpt lat="45.0006743959052" lon="5.629634645926478"><ele>615.75</ele><time>2026-04-25T08:39:07Z</time></trkpt><trkpt lat="45.00055740309885" lon="5.629636765508582"><ele>617.5</ele><time>2026-04-25T08:39:08Z</time></trkpt><trkpt lat="45.00044165448188" lon="5.629631952662872"><ele>619.25</ele><time>2026-04-25T08:39:09Z</time></trkpt><trkpt lat="45.00034082771662" lon="5.629542192738931"><ele>621.0</ele><time>2026-04-25T08:39:10Z</time></trkpt><trkpt lat="45.00021670561851" lon="5.629490188678547"><ele>621.2</ele><time>2026-04-25T08:39:11Z</time></trkpt><trkpt lat="45.000115634688626" lon="5.629435312799597"><ele>621.4000000000001</ele><time>2026-04-25T08:39:12Z</time></trkpt><trkpt lat="45.00003519015472" lon="5.6293906524092785"><ele>621.6</ele><time>2026-04-25T08:39:13Z</time></trkpt><trkpt lat="44.99996746514667" lon="5.629354470297532"><ele>621.8000000000001</ele><time>2026-04-25T08:39:14Z</time></trkpt><trkpt lat="44.99991222432814" lon="5.629256381719109"><ele>622.0</ele><time>2026-04-25T08:39:16Z</time></trkpt><trkpt lat="45.00002752959761" lon="5.629118415462536"><ele>622.0</ele><time>2026-04-25T08:39:17Z</time></trkpt><trkpt lat="45.000087213536716" lon="5.62897885630788"><ele>622.0</ele><time>2026-04-25T08:39:18Z</time></trkpt><trkpt lat="45.00015542096343" lon="5.62881595439232"><ele>622.0</ele><time>2026-04-25T08:39:19Z</time></trkpt><trkpt lat="45.000221658071034" lon="5.628632270252241"><ele>622.0</ele><time>2026-04-25T08:39:20Z</time></trkpt><trkpt lat="45.00028133697341" lon="5.6284431434074955"><ele>623.25</ele><time>2026-04-25T08:39:21Z</time></trkpt><trkpt lat="45.00034158207817" lon="5.628239326256992"><ele>624.5</ele><time>2026-04-25T08:39:21.999Z</time></trkpt><trkpt lat="45.00039571977066" lon="5.6280552383550795"><ele>625.75</ele><time>2026-04-25T08:39:22.999Z</time></trkpt><trkpt lat="45.000429171350774" lon="5.627853164419087"><ele>627.0</ele><time>2026-04-25T08:39:23.999Z</time></trkpt><trkpt lat="45.00049526658868" lon="5.627639845487532"><ele>629.0</ele><time>2026-04-25T08:39:24.999Z</time></trkpt><trkpt lat="45.000564107828794" lon="5.627403753065238"><ele>631.0</ele><time>2026-04-25T08:39:25.999Z</time></trkpt><trkpt lat="45.000631439987245" lon="5.627167405424323"><ele>633.0</ele><time>2026-04-25T08:39:26.999Z</time></trkpt><trkpt lat="45.00070618770124" lon="5.626935307646551"><ele>634.3333333333334</ele><time>2026-04-25T08:39:27.999Z</time></trkpt><trkpt lat="45.00078109252565" lon="5.626699761936955"><ele>635.6666666666667</ele><time>2026-04-25T08:39:28.999Z</time></trkpt><trkpt lat="45.00084947641602" lon="5.626453693788417"><ele>637.0</ele><time>2026-04-25T08:39:29.999Z</time></trkpt><trkpt lat="45.00093337152856" lon="5.6262144672892775"><ele>639.0</ele><time>2026-04-25T08:39:30.999Z</time></trkpt><trkpt lat="45.00100601377172" lon="5.625958802949673"><ele>641.0</ele><time>2026-04-25T08:39:31.999Z</time></trkpt><trkpt lat="45.0010760702949" lon="5.625712239045578"><ele>643.0</ele><time>2026-04-25T08:39:32.999Z</time></trkpt><trkpt lat="45.001153137302715" lon="5.625442184480265"><ele>645.0</ele><time>2026-04-25T08:39:33.999Z</time></trkpt><trkpt lat="45.00123950793062" lon="5.625196648888631"><ele>647.0</ele><time>2026-04-25T08:39:34.999Z</time></trkpt><trkpt lat="45.00135718053058" lon="5.625018822528023"><ele>649.0</ele><time>2026-04-25T08:39:35.999Z</time></trkpt><trkpt lat="45.0014963913408" lon="5.6249080038060235"><ele>648.0</ele><time>2026-04-25T08:39:36.999Z</time></trkpt><trkpt lat="45.001720444501714" lon="5.624833199476791"><ele>647.0</ele><time>2026-04-25T08:39:37.999Z</time></trkpt><trkpt lat="45.00199337444036" lon="5.624717851977906"><ele>647.0</ele><time>2026-04-25T08:39:38.999Z</time></trkpt><trkpt lat="45.00224715329514" lon="5.624625968023439"><ele>647.0</ele><time>2026-04-25T08:39:39.999Z</time></trkpt><trkpt lat="45.00249260301877" lon="5.624529608622505"><ele>653.0</ele><time>2026-04-25T08:39:40.999Z</time></trkpt><trkpt lat="45.002704686287004" lon="5.62444521313396"><ele>659.0</ele><time>2026-04-25T08:39:41.999Z</time></trkpt><trkpt lat="45.00289101467039" lon="5.6243849874004175"><ele>665.0</ele><time>2026-04-25T08:39:42.999Z</time></trkpt><trkpt lat="45.003063691461946" lon="5.624342285615884"><ele>665.0</ele><time>2026-04-25T08:39:43.999Z</time></trkpt><trkpt lat="45.00321562016013" lon="5.624315043513317"><ele>665.0</ele><time>2026-04-25T08:39:44.999Z</time></trkpt><trkpt lat="45.003358460223204" lon="5.624295781530012"><ele>665.0</ele><time>2026-04-25T08:39:45.999Z</time></trkpt><trkpt lat="45.0034957074088" lon="5.624290193064935"><ele>665.0</ele><time>2026-04-25T08:39:46.999Z</time></trkpt><trkpt lat="45.003635995209315" lon="5.624289878917559"><ele>667.0</ele><time>2026-04-25T08:39:47.999Z</time></trkpt><trkpt lat="45.003773703026376" lon="5.624313514439468"><ele>669.0</ele><time>2026-04-25T08:39:48.999Z</time></trkpt><trkpt lat="45.00389665941193" lon="5.624358258196901"><ele>671.0</ele><time>2026-04-25T08:39:49.999Z</time></trkpt><trkpt lat="45.004001861701155" lon="5.624413099699781"><ele>673.0</ele><time>2026-04-25T08:39:50.999Z</time></trkpt><trkpt lat="45.00408805105873" lon="5.624476225148781"><ele>671.5714285714286</ele><time>2026-04-25T08:39:51.999Z</time></trkpt><trkpt lat="45.00415310202412" lon="5.624542665930213"><ele>670.1428571428571</ele><time>2026-04-25T08:39:52.999Z</time></trkpt><trkpt lat="45.00420528222403" lon="5.62463019725399"><ele>668.7142857142857</ele><time>2026-04-25T08:39:53.999Z</time></trkpt><trkpt lat="45.00425349710197" lon="5.624713108965544"><ele>667.2857142857142</ele><time>2026-04-25T08:39:54.999Z</time></trkpt><trkpt lat="45.004307903547115" lon="5.624775089889137"><ele>665.8571428571429</ele><time>2026-04-25T08:39:55.999Z</time></trkpt><trkpt lat="45.0043737023242" lon="5.62478617336699"><ele>664.4285714285713</ele><time>2026-04-25T08:39:56.999Z</time></trkpt><trkpt lat="45.004443461365064" lon="5.6247667032385085"><ele>663.0</ele><time>2026-04-25T08:39:57.999Z</time></trkpt><trkpt lat="45.00450655927211" lon="5.624712364090624"><ele>663.0</ele><time>2026-04-25T08:39:58.999Z</time></trkpt><trkpt lat="45.004534131303146" lon="5.624608151332973"><ele>663.0</ele><time>2026-04-25T08:39:59.999Z</time></trkpt><trkpt lat="45.00451092424291" lon="5.624477286979694"><ele>663.0</ele><time>2026-04-25T08:40:00.999Z</time></trkpt><trkpt lat="45.00438513258555" lon="5.6243882184093525"><ele>663.0</ele><time>2026-04-25T08:40:01.999Z</time></trkpt><trkpt lat="45.00428228450032" lon="5.624307689124784"><ele>663.0</ele><time>2026-04-25T08:40:02.999Z</time></trkpt><trkpt lat="45.00418456555911" lon="5.624228786605372"><ele>665.5</ele><time>2026-04-25T08:40:03.999Z</time></trkpt><trkpt lat="45.00408598766897" lon="5.6241378729345675"><ele>668.0</ele><time>2026-04-25T08:40:04.999Z</time></trkpt><trkpt lat="45.00398224538565" lon="5.62404268369826"><ele>670.5</ele><time>2026-04-25T08:40:05.999Z</time></trkpt><trkpt lat="45.00386167399529" lon="5.623942588880277"><ele>673.0</ele><time>2026-04-25T08:40:06.999Z</time></trkpt><trkpt lat="45.003705159201644" lon="5.623869768281847"><ele>673.0</ele><time>2026-04-25T08:40:07.999Z</time></trkpt><trkpt lat="45.003508938949565" lon="5.623774757243501"><ele>673.0</ele><time>2026-04-25T08:40:08.999Z</time></trkpt><trkpt lat="45.00330042882018" lon="5.623658991631735"><ele>673.0</ele><time>2026-04-25T08:40:09.999Z</time></trkpt><trkpt lat="45.00306080952246" lon="5.623555143699964"><ele>688.5</ele><time>2026-04-25T08:40:10.999Z</time></trkpt><trkpt lat="45.00282546569024" lon="5.623469461997154"><ele>704.0</ele><time>2026-04-25T08:40:11.999Z</time></trkpt><trkpt lat="45.00256855787472" lon="5.623391647747246"><ele>697.5</ele><time>2026-04-25T08:40:12.999Z</time></trkpt><trkpt lat="45.00230306287463" lon="5.623269144506372"><ele>691.0</ele><time>2026-04-25T08:40:13.999Z</time></trkpt><trkpt lat="45.00203335138414" lon="5.623131519519918"><ele>691.0</ele><time>2026-04-25T08:40:14.999Z</time></trkpt><trkpt lat="45.00178422036131" lon="5.622993350452021"><ele>691.0</ele><time>2026-04-25T08:40:15.999Z</time></trkpt><trkpt lat="45.00156892633488" lon="5.62286021386021"><ele>697.6666666666667</ele><time>2026-04-25T08:40:16.999Z</time></trkpt><trkpt lat="45.00138046327801" lon="5.622722568184555"><ele>704.3333333333334</ele><time>2026-04-25T08:40:17.999Z</time></trkpt><trkpt lat="45.00121726824048" lon="5.622617713534719"><ele>711.0</ele><time>2026-04-25T08:40:18.999Z</time></trkpt><trkpt lat="45.00107285113688" lon="5.6225131378099125"><ele>711.0</ele><time>2026-04-25T08:40:19.999Z</time></trkpt><trkpt lat="45.000946205127605" lon="5.622389180479882"><ele>711.0</ele><time>2026-04-25T08:40:20.999Z</time></trkpt><trkpt lat="45.000802684963546" lon="5.6222908068377455"><ele>711.0</ele><time>2026-04-25T08:40:21.998Z</time></trkpt><trkpt lat="45.00063807343751" lon="5.622209886721046"><ele>708.75</ele><time>2026-04-25T08:40:22.998Z</time></trkpt><trkpt lat="45.00047694201024" lon="5.622177656076115"><ele>706.5</ele><time>2026-04-25T08:40:23.998Z</time></trkpt><trkpt lat="45.000346665284034" lon="5.622130151119502"><ele>704.25</ele><time>2026-04-25T08:40:24.998Z</time></trkpt><trkpt lat="45.000233211139864" lon="5.622101506635108"><ele>702.0</ele><time>2026-04-25T08:40:25.998Z</time></trkpt><trkpt lat="45.000133502315656" lon="5.62207853361303"><ele>702.0</ele><time>2026-04-25T08:40:26.998Z</time></trkpt><trkpt lat="45.00005347669451" lon="5.622034049951695"><ele>702.0</ele><time>2026-04-25T08:40:27.998Z</time></trkpt><trkpt lat="44.999984025491955" lon="5.622008494871779"><ele>702.0</ele><time>2026-04-25T08:40:28.998Z</time></trkpt><trkpt lat="44.9999149296632" lon="5.621882117713276"><ele>702.0</ele><time>2026-04-25T08:40:30.998Z</time></trkpt><trkpt lat="44.99994389163861" lon="5.621786951994469"><ele>702.0</ele><time>2026-04-25T08:40:31.998Z</time></trkpt><trkpt lat="44.99999702434887" lon="5.621731635121099"><ele>702.0</ele><time>2026-04-25T08:40:32.998Z</time></trkpt><trkpt lat="45.00008993164418" lon="5.621724498447044"><ele>712.0</ele><time>2026-04-25T08:40:33.998Z</time></trkpt><trkpt lat="45.00019153796046" lon="5.621814390203352"><ele>722.0</ele><time>2026-04-25T08:40:34.998Z</time></trkpt><trkpt lat="45.00032435763107" lon="5.621943046811665"><ele>732.0</ele><time>2026-04-25T08:40:35.998Z</time></trkpt><trkpt lat="45.00050745610654" lon="5.621972254860974"><ele>732.0</ele><time>2026-04-25T08:40:36.998Z</time></trkpt><trkpt lat="45.000702350372286" lon="5.6219723935058665"><ele>732.0</ele><time>2026-04-25T08:40:37.998Z</time></trkpt><trkpt lat="45.000910235640895" lon="5.621977954854409"><ele>732.0</ele><time>2026-04-25T08:40:38.998Z</time></trkpt><trkpt lat="45.0011257918773" lon="5.6220606341653125"><ele>721.5</ele><time>2026-04-25T08:40:39.998Z</time></trkpt><trkpt lat="45.00137688514873" lon="5.622161476005608"><ele>711.0</ele><time>2026-04-25T08:40:40.998Z</time></trkpt><trkpt lat="45.00162822360861" lon="5.622294532044989"><ele>721.0</ele><time>2026-04-25T08:40:42Z</time></trkpt><trkpt lat="45.00189101664214" lon="5.622388114121022"><ele>731.0</ele><time>2026-04-25T08:40:43Z</time></trkpt><trkpt lat="45.00215770303296" lon="5.622454840774949"><ele>731.0</ele><time>2026-04-25T08:40:44Z</time></trkpt><trkpt lat="45.002406728669946" lon="5.622488008941813"><ele>731.0</ele><time>2026-04-25T08:40:45Z</time></trkpt><trkpt lat="45.00263211719065" lon="5.622501560635082"><ele>733.0</ele><time>2026-04-25T08:40:46Z</time></trkpt><trkpt lat="45.00284830592716" lon="5.622490481888341"><ele>735.0</ele><time>2026-04-25T08:40:47Z</time></trkpt><trkpt lat="45.00305036078565" lon="5.622488303938281"><ele>737.0</ele><time>2026-04-25T08:40:48Z</time></trkpt><trkpt lat="45.00324900923312" lon="5.622488599160437"><ele>741.0</ele><time>2026-04-25T08:40:49Z</time></trkpt><trkpt lat="45.00348183397993" lon="5.622509993510955"><ele>745.0</ele><time>2026-04-25T08:40:50Z</time></trkpt><trkpt lat="45.003730875317146" lon="5.622498517143159"><ele>745.0</ele><time>2026-04-25T08:40:51Z</time></trkpt><trkpt lat="45.00398546989085" lon="5.622481297863371"><ele>745.0</ele><time>2026-04-25T08:40:52Z</time></trkpt><trkpt lat="45.00423079316238" lon="5.622439711123493"><ele>746.0</ele><time>2026-04-25T08:40:53Z</time></trkpt><trkpt lat="45.00444967079406" lon="5.622429877582235"><ele>747.0</ele><time>2026-04-25T08:40:54Z</time></trkpt><trkpt lat="45.004639106137745" lon="5.622397708622959"><ele>748.0</ele><time>2026-04-25T08:40:55Z</time></trkpt><trkpt lat="45.00480930138858" lon="5.622355205556905"><ele>748.0</ele><time>2026-04-25T08:40:56Z</time></trkpt><trkpt lat="45.00493977723089" lon="5.62227339116999"><ele>748.0</ele><time>2026-04-25T08:40:57Z</time></trkpt><trkpt lat="45.00507330332108" lon="5.622096149986631"><ele>748.0</ele><time>2026-04-25T08:40:58Z</time></trkpt><trkpt lat="45.005190305886074" lon="5.621831707083616"><ele>769.0</ele><time>2026-04-25T08:40:59Z</time></trkpt><trkpt lat="45.00531906834649" lon="5.621558328688041"><ele>790.0</ele><time>2026-04-25T08:41:00Z</time></trkpt><trkpt lat="45.0054313136369" lon="5.621290723563202"><ele>790.0</ele><time>2026-04-25T08:41:01Z</time></trkpt><trkpt lat="45.005546181860446" lon="5.621096260711165"><ele>790.0</ele><time>2026-04-25T08:41:02Z</time></trkpt><trkpt lat="45.005687401916916" lon="5.620958651619563"><ele>790.0</ele><time>2026-04-25T08:41:03Z</time></trkpt><trkpt lat="45.005847548631465" lon="5.620903568233628"><ele>790.0</ele><time>2026-04-25T08:41:04Z</time></trkpt><trkpt lat="45.00603937598386" lon="5.6208382249072155"><ele>790.0</ele><time>2026-04-25T08:41:05Z</time></trkpt><trkpt lat="45.00625225755358" lon="5.620731810015433"><ele>790.0</ele><time>2026-04-25T08:41:06Z</time></trkpt><trkpt lat="45.00641591189816" lon="5.620697817041643"><ele>790.0</ele><time>2026-04-25T08:41:07Z</time></trkpt><trkpt lat="45.00657291235517" lon="5.620658539435958"><ele>790.0</ele><time>2026-04-25T08:41:08Z</time></trkpt><trkpt lat="45.00669848352128" lon="5.620533525986214"><ele>790.0</ele><time>2026-04-25T08:41:09Z</time></trkpt><trkpt lat="45.00680214793186" lon="5.620336318639622"><ele>808.6666666666666</ele><time>2026-04-25T08:41:10Z</time></trkpt><trkpt lat="45.00692599264261" lon="5.620203987769762"><ele>827.3333333333333</ele><time>2026-04-25T08:41:11Z</time></trkpt><trkpt lat="45.00706092894146" lon="5.620144115171937"><ele>846.0</ele><time>2026-04-25T08:41:12Z</time></trkpt><trkpt lat="45.00723574202865" lon="5.620134904215697"><ele>846.0</ele><time>2026-04-25T08:41:13Z</time></trkpt><trkpt lat="45.00739832467857" lon="5.620045368868522"><ele>846.0</ele><time>2026-04-25T08:41:14Z</time></trkpt><trkpt lat="45.00753696603111" lon="5.619972753050552"><ele>846.0</ele><time>2026-04-25T08:41:15Z</time></trkpt><trkpt lat="45.007637380320936" lon="5.619907301585377"><ele>846.0</ele><time>2026-04-25T08:41:16Z</time></trkpt><trkpt lat="45.00772659849419" lon="5.619914509929499"><ele>836.5</ele><time>2026-04-25T08:41:17Z</time></trkpt><trkpt lat="45.00777650814543" lon="5.619995543374247"><ele>827.0</ele><time>2026-04-25T08:41:18Z</time></trkpt><trkpt lat="45.00778627189635" lon="5.620134924206543"><ele>817.5</ele><time>2026-04-25T08:41:19Z</time></trkpt><trkpt lat="45.00771074245189" lon="5.62036077553557"><ele>808.0</ele><time>2026-04-25T08:41:20Z</time></trkpt><trkpt lat="45.00763651597116" lon="5.620568502515717"><ele>801.3333333333333</ele><time>2026-04-25T08:41:21Z</time></trkpt><trkpt lat="45.007620779264634" lon="5.62079374501233"><ele>794.6666666666667</ele><time>2026-04-25T08:41:22Z</time></trkpt><trkpt lat="45.00760497869538" lon="5.621090193849395"><ele>788.0</ele><time>2026-04-25T08:41:23Z</time></trkpt><trkpt lat="45.007656357775424" lon="5.621302858064941"><ele>785.75</ele><time>2026-04-25T08:41:24Z</time></trkpt><trkpt lat="45.007686063622515" lon="5.621476296981784"><ele>783.5</ele><time>2026-04-25T08:41:25Z</time></trkpt><trkpt lat="45.00776220125617" lon="5.621585498222422"><ele>781.25</ele><time>2026-04-25T08:41:26Z</time></trkpt><trkpt lat="45.007853624676386" lon="5.621623594975311"><ele>779.0</ele><time>2026-04-25T08:41:27Z</time></trkpt><trkpt lat="45.007964953492746" lon="5.621557851324518"><ele>779.0</ele><time>2026-04-25T08:41:28Z</time></trkpt><trkpt lat="45.00807261761741" lon="5.621437167556543"><ele>779.0</ele><time>2026-04-25T08:41:28.999Z</time></trkpt><trkpt lat="45.00818999347693" lon="5.621250636311699"><ele>779.0</ele><time>2026-04-25T08:41:29.999Z</time></trkpt><trkpt lat="45.00829266817773" lon="5.621012522371326"><ele>787.0</ele><time>2026-04-25T08:41:30.999Z</time></trkpt><trkpt lat="45.00838069958759" lon="5.620730740494863"><ele>795.0</ele><time>2026-04-25T08:41:31.999Z</time></trkpt><trkpt lat="45.008442749489774" lon="5.620433075893987"><ele>803.0</ele><time>2026-04-25T08:41:32.999Z</time></trkpt><trkpt lat="45.008464085789086" lon="5.620149530727704"><ele>804.3333333333334</ele><time>2026-04-25T08:41:33.999Z</time></trkpt><trkpt lat="45.00853072559724" lon="5.619903571233813"><ele>805.6666666666667</ele><time>2026-04-25T08:41:34.999Z</time></trkpt><trkpt lat="45.008615709526325" lon="5.6196797822033995"><ele>807.0</ele><time>2026-04-25T08:41:35.999Z</time></trkpt><trkpt lat="45.00869782428152" lon="5.619489135627515"><ele>810.0</ele><time>2026-04-25T08:41:36.999Z</time></trkpt><trkpt lat="45.00879179780958" lon="5.6193523118229445"><ele>813.0</ele><time>2026-04-25T08:41:37.999Z</time></trkpt><trkpt lat="45.00892105609155" lon="5.619318437124867"><ele>816.0</ele><time>2026-04-25T08:41:38.999Z</time></trkpt><trkpt lat="45.00906475702888" lon="5.619391986941909"><ele>819.0</ele><time>2026-04-25T08:41:39.999Z</time></trkpt><trkpt lat="45.00922894132994" lon="5.619447611077265"><ele>815.3333333333333</ele><time>2026-04-25T08:41:40.999Z</time></trkpt><trkpt lat="45.00939260446813" lon="5.619523205111108"><ele>811.6666666666666</ele><time>2026-04-25T08:41:41.999Z</time></trkpt><trkpt lat="45.00955879142972" lon="5.619548678905265"><ele>808.0</ele><time>2026-04-25T08:41:42.999Z</time></trkpt><trkpt lat="45.009711335111525" lon="5.61953696332309"><ele>812.3333333333333</ele><time>2026-04-25T08:41:43.999Z</time></trkpt><trkpt lat="45.009839982737425" lon="5.619454748533997"><ele>816.6666666666667</ele><time>2026-04-25T08:41:44.999Z</time></trkpt><trkpt lat="45.009946118279046" lon="5.619320711131228"><ele>821.0</ele><time>2026-04-25T08:41:45.999Z</time></trkpt><trkpt lat="45.01008702690436" lon="5.619179609777901"><ele>825.6666666666667</ele><time>2026-04-25T08:41:46.999Z</time></trkpt><trkpt lat="45.010208908305444" lon="5.618986370848998"><ele>830.3333333333333</ele><time>2026-04-25T08:41:47.999Z</time></trkpt><trkpt lat="45.01033493359904" lon="5.618797979735349"><ele>835.0</ele><time>2026-04-25T08:41:48.999Z</time></trkpt><trkpt lat="45.01040756070292" lon="5.618647790932244"><ele>835.0</ele><time>2026-04-25T08:41:49.999Z</time></trkpt><trkpt lat="45.010474477240116" lon="5.618541706580384"><ele>835.0</ele><time>2026-04-25T08:41:50.999Z</time></trkpt><trkpt lat="45.01055430942482" lon="5.618500187746718"><ele>835.0</ele><time>2026-04-25T08:41:51.999Z</time></trkpt><trkpt lat="45.010641342821366" lon="5.618568309567285"><ele>835.0</ele><time>2026-04-25T08:41:52.999Z</time></trkpt><trkpt lat="45.01069482337475" lon="5.618684891944384"><ele>835.0</ele><time>2026-04-25T08:41:53.999Z</time></trkpt><trkpt lat="45.01067010173065" lon="5.6188548724291945"><ele>835.0</ele><time>2026-04-25T08:41:54.999Z</time></trkpt><trkpt lat="45.01068706117162" lon="5.619070466737792"><ele>835.0</ele><time>2026-04-25T08:41:55.999Z</time></trkpt><trkpt lat="45.01067327756291" lon="5.619300375348884"><ele>835.0</ele><time>2026-04-25T08:41:56.999Z</time></trkpt><trkpt lat="45.01068133404548" lon="5.619578283680186"><ele>830.0</ele><time>2026-04-25T08:41:57.999Z</time></trkpt><trkpt lat="45.01068266929144" lon="5.619863310432608"><ele>825.0</ele><time>2026-04-25T08:41:58.999Z</time></trkpt><trkpt lat="45.01064498255056" lon="5.620150495432034"><ele>820.0</ele><time>2026-04-25T08:41:59.999Z</time></trkpt><trkpt lat="45.01056090696772" lon="5.62041306819373"><ele>820.3333333333333</ele><time>2026-04-25T08:42:00.999Z</time></trkpt><trkpt lat="45.01048337716484" lon="5.62065117430243"><ele>820.6666666666667</ele><time>2026-04-25T08:42:01.999Z</time></trkpt><trkpt lat="45.010477678824785" lon="5.620935064366024"><ele>821.0</ele><time>2026-04-25T08:42:02.999Z</time></trkpt><trkpt lat="45.01048410801142" lon="5.621191695528612"><ele>821.0</ele><time>2026-04-25T08:42:03.999Z</time></trkpt><trkpt lat="45.010443785596145" lon="5.621427485664588"><ele>821.0</ele><time>2026-04-25T08:42:04.999Z</time></trkpt><trkpt lat="45.01044383051321" lon="5.621682475195422"><ele>821.0</ele><time>2026-04-25T08:42:05.999Z</time></trkpt><trkpt lat="45.01043998352823" lon="5.6219214870128535"><ele>823.3333333333334</ele><time>2026-04-25T08:42:06.999Z</time></trkpt><trkpt lat="45.01037781934213" lon="5.622155852567035"><ele>825.6666666666667</ele><time>2026-04-25T08:42:07.999Z</time></trkpt><trkpt lat="45.010323319725956" lon="5.622373196772061"><ele>828.0</ele><time>2026-04-25T08:42:08.999Z</time></trkpt><trkpt lat="45.01029794080589" lon="5.622548437291788"><ele>828.0</ele><time>2026-04-25T08:42:09.999Z</time></trkpt><trkpt lat="45.01028313462325" lon="5.622675440491681"><ele>828.0</ele><time>2026-04-25T08:42:10.999Z</time></trkpt><trkpt lat="45.01030830533288" lon="5.622779302285084"><ele>828.0</ele><time>2026-04-25T08:42:11.999Z</time></trkpt><trkpt lat="45.01037435742335" lon="5.622835357114926"><ele>828.0</ele><time>2026-04-25T08:42:12.999Z</time></trkpt><trkpt lat="45.010456472119195" lon="5.622806997758538"><ele>828.0</ele><time>2026-04-25T08:42:13.999Z</time></trkpt><trkpt lat="45.01054275544589" lon="5.622743688504158"><ele>828.0</ele><time>2026-04-25T08:42:14.999Z</time></trkpt><trkpt lat="45.010575662201056" lon="5.6225338119670365"><ele>828.0</ele><time>2026-04-25T08:42:15.999Z</time></trkpt><trkpt lat="45.01058410372568" lon="5.62232409604087"><ele>828.0</ele><time>2026-04-25T08:42:16.999Z</time></trkpt><trkpt lat="45.010620050370584" lon="5.622109725860458"><ele>828.0</ele><time>2026-04-25T08:42:17.999Z</time></trkpt><trkpt lat="45.01070504523288" lon="5.621856830968582"><ele>825.6666666666667</ele><time>2026-04-25T08:42:18.999Z</time></trkpt><trkpt lat="45.01079451964893" lon="5.621584155263146"><ele>823.3333333333334</ele><time>2026-04-25T08:42:19.999Z</time></trkpt><trkpt lat="45.01088445148853" lon="5.621299115986153"><ele>821.0</ele><time>2026-04-25T08:42:20.999Z</time></trkpt><trkpt lat="45.0109381085564" lon="5.621056680208151"><ele>835.3333333333334</ele><time>2026-04-25T08:42:21.999Z</time></trkpt><trkpt lat="45.01092584203003" lon="5.620826907159648"><ele>849.6666666666667</ele><time>2026-04-25T08:42:22.999Z</time></trkpt><trkpt lat="45.010982056834834" lon="5.620622123307254"><ele>864.0</ele><time>2026-04-25T08:42:23.999Z</time></trkpt><trkpt lat="45.011100761913404" lon="5.620418455527897"><ele>861.0</ele><time>2026-04-25T08:42:24.999Z</time></trkpt><trkpt lat="45.01118738150104" lon="5.6201613177861525"><ele>858.0</ele><time>2026-04-25T08:42:25.999Z</time></trkpt><trkpt lat="45.011244737624864" lon="5.619888128206371"><ele>855.0</ele><time>2026-04-25T08:42:26.999Z</time></trkpt><trkpt lat="45.01128517228326" lon="5.619630522242079"><ele>854.3333333333333</ele><time>2026-04-25T08:42:27.999Z</time></trkpt><trkpt lat="45.01130534458503" lon="5.619392822239357"><ele>853.6666666666666</ele><time>2026-04-25T08:42:28.998Z</time></trkpt><trkpt lat="45.01130106816208" lon="5.619195124530281"><ele>853.0</ele><time>2026-04-25T08:42:29.998Z</time></trkpt><trkpt lat="45.0113573214755" lon="5.619009230358677"><ele>853.0</ele><time>2026-04-25T08:42:30.998Z</time></trkpt><trkpt lat="45.01139412637417" lon="5.618801909081726"><ele>853.0</ele><time>2026-04-25T08:42:31.998Z</time></trkpt><trkpt lat="45.011365204189836" lon="5.6185768081993634"><ele>853.0</ele><time>2026-04-25T08:42:32.998Z</time></trkpt><trkpt lat="45.011322297164114" lon="5.618376594944593"><ele>854.75</ele><time>2026-04-25T08:42:33.998Z</time></trkpt><trkpt lat="45.011367588874016" lon="5.618224149651598"><ele>856.5</ele><time>2026-04-25T08:42:34.998Z</time></trkpt><trkpt lat="45.011441864473674" lon="5.618095464987319"><ele>858.25</ele><time>2026-04-25T08:42:35.998Z</time></trkpt><trkpt lat="45.011559501305875" lon="5.618045462157865"><ele>860.0</ele><time>2026-04-25T08:42:36.998Z</time></trkpt><trkpt lat="45.011716858487816" lon="5.617955084772266"><ele>868.0</ele><time>2026-04-25T08:42:37.998Z</time></trkpt><trkpt lat="45.0118857450566" lon="5.617824727220293"><ele>876.0</ele><time>2026-04-25T08:42:38.998Z</time></trkpt><trkpt lat="45.01205719296308" lon="5.617680969432119"><ele>884.0</ele><time>2026-04-25T08:42:39.998Z</time></trkpt><trkpt lat="45.01222924472117" lon="5.617509868742297"><ele>884.0</ele><time>2026-04-25T08:42:40.998Z</time></trkpt><trkpt lat="45.01238593089903" lon="5.617322504792397"><ele>884.0</ele><time>2026-04-25T08:42:41.998Z</time></trkpt><trkpt lat="45.01247397558195" lon="5.617063154637954"><ele>884.0</ele><time>2026-04-25T08:42:42.998Z</time></trkpt><trkpt lat="45.01256287656089" lon="5.616776822629646"><ele>890.3333333333334</ele><time>2026-04-25T08:42:43.998Z</time></trkpt><trkpt lat="45.01266513917771" lon="5.616545067545626"><ele>896.6666666666667</ele><time>2026-04-25T08:42:44.998Z</time></trkpt><trkpt lat="45.01277459252157" lon="5.616348570201171"><ele>903.0</ele><time>2026-04-25T08:42:45.998Z</time></trkpt><trkpt lat="45.01283287089494" lon="5.616162953355688"><ele>904.3333333333333</ele><time>2026-04-25T08:42:46.998Z</time></trkpt><trkpt lat="45.01283718560808" lon="5.615929871430745"><ele>905.6666666666666</ele><time>2026-04-25T08:42:48Z</time></trkpt><trkpt lat="45.0128847475075" lon="5.615711283281123"><ele>907.0</ele><time>2026-04-25T08:42:49Z</time></trkpt><trkpt lat="45.012977700115584" lon="5.615529858639068"><ele>907.0</ele><time>2026-04-25T08:42:50Z</time></trkpt><trkpt lat="45.0131066230239" lon="5.615357346936746"><ele>907.0</ele><time>2026-04-25T08:42:51Z</time></trkpt><trkpt lat="45.01325565819745" lon="5.615218765220521"><ele>907.0</ele><time>2026-04-25T08:42:52Z</time></trkpt><trkpt lat="45.01341798913308" lon="5.615117383922451"><ele>909.6666666666666</ele><time>2026-04-25T08:42:53Z</time></trkpt><trkpt lat="45.013580745528365" lon="5.615046992056314"><ele>912.3333333333333</ele><time>2026-04-25T08:42:54Z</time></trkpt><trkpt lat="45.01374576444346" lon="5.614995365704521"><ele>915.0</ele><time>2026-04-25T08:42:55Z</time></trkpt><trkpt lat="45.01392021920784" lon="5.614952812019574"><ele>915.0</ele><time>2026-04-25T08:42:56Z</time></trkpt><trkpt lat="45.01406327147522" lon="5.614920127248464"><ele>915.0</ele><time>2026-04-25T08:42:57Z</time></trkpt><trkpt lat="45.014182195076984" lon="5.614891205638031"><ele>915.0</ele><time>2026-04-25T08:42:58Z</time></trkpt><trkpt lat="45.014290099790344" lon="5.614856030446027"><ele>915.0</ele><time>2026-04-25T08:42:59Z</time></trkpt><trkpt lat="45.01438266314643" lon="5.614772360276525"><ele>915.8</ele><time>2026-04-25T08:43:00Z</time></trkpt><trkpt lat="45.014460163691105" lon="5.614675426782958"><ele>916.6</ele><time>2026-04-25T08:43:01Z</time></trkpt><trkpt lat="45.01449634141096" lon="5.614538711144982"><ele>917.4000000000001</ele><time>2026-04-25T08:43:02Z</time></trkpt><trkpt lat="45.014489528747234" lon="5.614397613834428"><ele>918.2</ele><time>2026-04-25T08:43:03Z</time></trkpt><trkpt lat="45.01445496458304" lon="5.614258620036795"><ele>919.0</ele><time>2026-04-25T08:43:04Z</time></trkpt><trkpt lat="45.01440897597552" lon="5.614137122492291"><ele>920.8333333333333</ele><time>2026-04-25T08:43:05Z</time></trkpt><trkpt lat="45.01436386433862" lon="5.614021607724772"><ele>922.6666666666666</ele><time>2026-04-25T08:43:06Z</time></trkpt><trkpt lat="45.01436409044794" lon="5.613906078014039"><ele>924.5</ele><time>2026-04-25T08:43:07Z</time></trkpt><trkpt lat="45.014366822967574" lon="5.6138001542787155"><ele>926.3333333333333</ele><time>2026-04-25T08:43:08Z</time></trkpt><trkpt lat="45.014362255771644" lon="5.613702236753085"><ele>928.1666666666666</ele><time>2026-04-25T08:43:09Z</time></trkpt><trkpt lat="45.01437935906895" lon="5.6135842846589"><ele>930.0</ele><time>2026-04-25T08:43:11Z</time></trkpt><trkpt lat="45.01431739792309" lon="5.613423546107648"><ele>930.6</ele><time>2026-04-25T08:43:13Z</time></trkpt><trkpt lat="45.014225288309326" lon="5.613360316044163"><ele>931.2</ele><time>2026-04-25T08:43:14Z</time></trkpt><trkpt lat="45.014145021373174" lon="5.613294069138755"><ele>931.8</ele><time>2026-04-25T08:43:15Z</time></trkpt><trkpt lat="45.01406137110521" lon="5.61321671043655"><ele>932.4</ele><time>2026-04-25T08:43:16Z</time></trkpt><trkpt lat="45.01395808384013" lon="5.613155672156357"><ele>933.0</ele><time>2026-04-25T08:43:17Z</time></trkpt><trkpt lat="45.013864080115184" lon="5.613114893830261"><ele>933.0</ele><time>2026-04-25T08:43:18Z</time></trkpt><trkpt lat="45.013751798617356" lon="5.613066735175954"><ele>933.0</ele><time>2026-04-25T08:43:19Z</time></trkpt><trkpt lat="45.01363239665367" lon="5.61301552248978"><ele>933.0</ele><time>2026-04-25T08:43:20Z</time></trkpt><trkpt lat="45.01353015457679" lon="5.612966096737746"><ele>933.0</ele><time>2026-04-25T08:43:21Z</time></trkpt><trkpt lat="45.013427465067096" lon="5.6129110852991015"><ele>933.0</ele><time>2026-04-25T08:43:22Z</time></trkpt><trkpt lat="45.01332675709931" lon="5.612855848508755"><ele>933.0</ele><time>2026-04-25T08:43:23Z</time></trkpt><trkpt lat="45.01321923360871" lon="5.612796873505393"><ele>933.0</ele><time>2026-04-25T08:43:24Z</time></trkpt><trkpt lat="45.01310357958561" lon="5.612760264139023"><ele>933.0</ele><time>2026-04-25T08:43:25Z</time></trkpt><trkpt lat="45.01300557414656" lon="5.612697379052745"><ele>933.0</ele><time>2026-04-25T08:43:26Z</time></trkpt><trkpt lat="45.012909200056164" lon="5.612660226360512"><ele>936.0</ele><time>2026-04-25T08:43:27Z</time></trkpt><trkpt lat="45.01279363485721" lon="5.612639318159495"><ele>939.0</ele><time>2026-04-25T08:43:28Z</time></trkpt><trkpt lat="45.01267072972731" lon="5.612636797029942"><ele>942.0</ele><time>2026-04-25T08:43:29Z</time></trkpt><trkpt lat="45.01254685841755" lon="5.612625800260992"><ele>945.0</ele><time>2026-04-25T08:43:30Z</time></trkpt><trkpt lat="45.01242477463087" lon="5.612602290780239"><ele>947.0</ele><time>2026-04-25T08:43:31Z</time></trkpt><trkpt lat="45.0123125106217" lon="5.612568504321361"><ele>949.0</ele><time>2026-04-25T08:43:32Z</time></trkpt><trkpt lat="45.01219106104047" lon="5.612538909679625"><ele>951.0</ele><time>2026-04-25T08:43:32.999Z</time></trkpt><trkpt lat="45.012083483928954" lon="5.612514673510947"><ele>953.0</ele><time>2026-04-25T08:43:33.999Z</time></trkpt><trkpt lat="45.011963699336285" lon="5.612494328237149"><ele>953.0</ele><time>2026-04-25T08:43:34.999Z</time></trkpt><trkpt lat="45.011808749553914" lon="5.612470009260184"><ele>953.0</ele><time>2026-04-25T08:43:35.999Z</time></trkpt><trkpt lat="45.011658177546174" lon="5.612461270256686"><ele>953.0</ele><time>2026-04-25T08:43:36.999Z</time></trkpt><trkpt lat="45.01151201103672" lon="5.612460934547801"><ele>952.75</ele><time>2026-04-25T08:43:37.999Z</time></trkpt><trkpt lat="45.01136353242865" lon="5.612457931660949"><ele>952.5</ele><time>2026-04-25T08:43:38.999Z</time></trkpt><trkpt lat="45.01123087104633" lon="5.612419774826093"><ele>952.25</ele><time>2026-04-25T08:43:39.999Z</time></trkpt><trkpt lat="45.01108780092396" lon="5.6123189083091205"><ele>952.0</ele><time>2026-04-25T08:43:40.999Z</time></trkpt><trkpt lat="45.01094190360721" lon="5.61219279181493"><ele>955.3333333333333</ele><time>2026-04-25T08:43:41.999Z</time></trkpt><trkpt lat="45.01079079890534" lon="5.612084157133715"><ele>958.6666666666667</ele><time>2026-04-25T08:43:42.999Z</time></trkpt><trkpt lat="45.010661006582325" lon="5.61195737807008"><ele>962.0</ele><time>2026-04-25T08:43:43.999Z</time></trkpt><trkpt lat="45.010522459907655" lon="5.611850448419782"><ele>963.3333333333334</ele><time>2026-04-25T08:43:44.999Z</time></trkpt><trkpt lat="45.010382855075314" lon="5.6117639892951"><ele>964.6666666666667</ele><time>2026-04-25T08:43:45.999Z</time></trkpt><trkpt lat="45.01021578495903" lon="5.611746518791539"><ele>966.0</ele><time>2026-04-25T08:43:46.999Z</time></trkpt><trkpt lat="45.010053472024154" lon="5.611769384546459"><ele>965.3333333333333</ele><time>2026-04-25T08:43:47.999Z</time></trkpt><trkpt lat="45.0099053251734" lon="5.61186092505506"><ele>964.6666666666666</ele><time>2026-04-25T08:43:48.999Z</time></trkpt><trkpt lat="45.00977137556133" lon="5.611975448214416"><ele>964.0</ele><time>2026-04-25T08:43:49.999Z</time></trkpt><trkpt lat="45.009627688487925" lon="5.612036931851705"><ele>964.0</ele><time>2026-04-25T08:43:50.999Z</time></trkpt><trkpt lat="45.00948576099739" lon="5.612061230687669"><ele>964.0</ele><time>2026-04-25T08:43:51.999Z</time></trkpt><trkpt lat="45.009333615988574" lon="5.612054435959875"><ele>964.0</ele><time>2026-04-25T08:43:52.999Z</time></trkpt><trkpt lat="45.009213794857445" lon="5.61199011897238"><ele>964.0</ele><time>2026-04-25T08:43:53.999Z</time></trkpt><trkpt lat="45.009109545081564" lon="5.611880456865415"><ele>965.6666666666666</ele><time>2026-04-25T08:43:54.999Z</time></trkpt><trkpt lat="45.00899499381653" lon="5.611697290097382"><ele>967.3333333333333</ele><time>2026-04-25T08:43:55.999Z</time></trkpt><trkpt lat="45.00884552826264" lon="5.611569011918936"><ele>969.0</ele><time>2026-04-25T08:43:56.999Z</time></trkpt><trkpt lat="45.00869576241167" lon="5.61142371197087"><ele>969.0</ele><time>2026-04-25T08:43:57.999Z</time></trkpt><trkpt lat="45.0085012619149" lon="5.611271291166076"><ele>969.0</ele><time>2026-04-25T08:43:58.999Z</time></trkpt><trkpt lat="45.00831102502308" lon="5.611131826999586"><ele>969.0</ele><time>2026-04-25T08:43:59.999Z</time></trkpt><trkpt lat="45.00811982822039" lon="5.6110244288936535"><ele>971.3333333333333</ele><time>2026-04-25T08:44:00.999Z</time></trkpt><trkpt lat="45.00792372972959" lon="5.610972697504984"><ele>973.6666666666666</ele><time>2026-04-25T08:44:01.999Z</time></trkpt><trkpt lat="45.00770447058584" lon="5.610853695462652"><ele>976.0</ele><time>2026-04-25T08:44:02.999Z</time></trkpt><trkpt lat="45.00757777716983" lon="5.610775356858796"><ele>976.75</ele><time>2026-04-25T08:44:03.999Z</time></trkpt><trkpt lat="45.00745143572915" lon="5.610691839841592"><ele>977.5</ele><time>2026-04-25T08:44:04.999Z</time></trkpt><trkpt lat="45.007330782986244" lon="5.61058264018833"><ele>978.25</ele><time>2026-04-25T08:44:05.999Z</time></trkpt><trkpt lat="45.00728671284617" lon="5.610400192325798"><ele>979.0</ele><time>2026-04-25T08:44:06.999Z</time></trkpt><trkpt lat="45.0071355946222" lon="5.610197625853439"><ele>979.0</ele><time>2026-04-25T08:44:07.999Z</time></trkpt><trkpt lat="45.00700805131169" lon="5.6100804156069115"><ele>979.0</ele><time>2026-04-25T08:44:08.999Z</time></trkpt><trkpt lat="45.00684594684301" lon="5.609910141934774"><ele>979.0</ele><time>2026-04-25T08:44:09.999Z</time></trkpt><trkpt lat="45.00670840023518" lon="5.609707895852892"><ele>977.3333333333333</ele><time>2026-04-25T08:44:10.999Z</time></trkpt><trkpt lat="45.006555498172496" lon="5.60951991234877"><ele>975.6666666666667</ele><time>2026-04-25T08:44:11.999Z</time></trkpt><trkpt lat="45.00638879937934" lon="5.609368859018696"><ele>974.0</ele><time>2026-04-25T08:44:12.999Z</time></trkpt><trkpt lat="45.00622573953475" lon="5.609234678221881"><ele>974.0</ele><time>2026-04-25T08:44:13.999Z</time></trkpt><trkpt lat="45.006087802008516" lon="5.6090887593640835"><ele>974.0</ele><time>2026-04-25T08:44:14.999Z</time></trkpt><trkpt lat="45.005989909155794" lon="5.608952723659555"><ele>974.0</ele><time>2026-04-25T08:44:15.999Z</time></trkpt><trkpt lat="45.00594670373292" lon="5.608771951041669"><ele>974.0</ele><time>2026-04-25T08:44:16.999Z</time></trkpt><trkpt lat="45.005958134038266" lon="5.608588222903303"><ele>975.0</ele><time>2026-04-25T08:44:17.999Z</time></trkpt><trkpt lat="45.005895958042395" lon="5.608427173667215"><ele>976.0</ele><time>2026-04-25T08:44:18.999Z</time></trkpt><trkpt lat="45.00580247275799" lon="5.60827750130433"><ele>977.0</ele><time>2026-04-25T08:44:19.999Z</time></trkpt><trkpt lat="45.00565984166669" lon="5.608139922003939"><ele>978.0</ele><time>2026-04-25T08:44:20.999Z</time></trkpt><trkpt lat="45.00550488671042" lon="5.607978668248987"><ele>978.0</ele><time>2026-04-25T08:44:21.999Z</time></trkpt><trkpt lat="45.00535145912168" lon="5.6078330320689185"><ele>978.0</ele><time>2026-04-25T08:44:22.999Z</time></trkpt><trkpt lat="45.005196981509755" lon="5.6077386717232605"><ele>978.0</ele><time>2026-04-25T08:44:23.999Z</time></trkpt><trkpt lat="45.00503299521217" lon="5.607725855825995"><ele>982.25</ele><time>2026-04-25T08:44:24.999Z</time></trkpt><trkpt lat="45.00487986444855" lon="5.607718994659122"><ele>986.5</ele><time>2026-04-25T08:44:25.999Z</time></trkpt><trkpt lat="45.00472905439279" lon="5.6077545684330286"><ele>990.75</ele><time>2026-04-25T08:44:26.999Z</time></trkpt><trkpt lat="45.00461494249138" lon="5.607711714639619"><ele>995.0</ele><time>2026-04-25T08:44:27.999Z</time></trkpt><trkpt lat="45.00453853136778" lon="5.607586797375944"><ele>995.0</ele><time>2026-04-25T08:44:28.999Z</time></trkpt><trkpt lat="45.004514826689665" lon="5.607364936604489"><ele>995.0</ele><time>2026-04-25T08:44:29.999Z</time></trkpt><trkpt lat="45.00445307712221" lon="5.607269328340793"><ele>995.0</ele><time>2026-04-25T08:44:30.999Z</time></trkpt><trkpt lat="45.00434437864642" lon="5.607205681340141"><ele>995.0</ele><time>2026-04-25T08:44:31.998Z</time></trkpt><trkpt lat="45.00421649131357" lon="5.6071877673842225"><ele>995.0</ele><time>2026-04-25T08:44:32.998Z</time></trkpt><trkpt lat="45.00406466894862" lon="5.607220127887678"><ele>995.0</ele><time>2026-04-25T08:44:33.998Z</time></trkpt><trkpt lat="45.003912327683004" lon="5.607207401724447"><ele>995.0</ele><time>2026-04-25T08:44:34.998Z</time></trkpt><trkpt lat="45.003787615668685" lon="5.607099188840507"><ele>1001.6666666666667</ele><time>2026-04-25T08:44:35.998Z</time></trkpt><trkpt lat="45.00364715119582" lon="5.606965623692104"><ele>1008.3333333333333</ele><time>2026-04-25T08:44:36.998Z</time></trkpt><trkpt lat="45.00351605236907" lon="5.606841650417827"><ele>1015.0</ele><time>2026-04-25T08:44:37.998Z</time></trkpt><trkpt lat="45.003383759026555" lon="5.606731405243054"><ele>1017.75</ele><time>2026-04-25T08:44:38.998Z</time></trkpt><trkpt lat="45.00327333451728" lon="5.606638673246871"><ele>1020.5</ele><time>2026-04-25T08:44:39.998Z</time></trkpt><trkpt lat="45.003167690374426" lon="5.606631845974976"><ele>1023.25</ele><time>2026-04-25T08:44:40.998Z</time></trkpt><trkpt lat="45.00304281202113" lon="5.606726647088934"><ele>1026.0</ele><time>2026-04-25T08:44:41.998Z</time></trkpt><trkpt lat="45.00292277468413" lon="5.6068617778182315"><ele>1019.3333333333333</ele><time>2026-04-25T08:44:42.998Z</time></trkpt><trkpt lat="45.00278521900729" lon="5.607028000042132"><ele>1012.6666666666666</ele><time>2026-04-25T08:44:43.998Z</time></trkpt><trkpt lat="45.00266882889363" lon="5.607160380156235"><ele>1006.0</ele><time>2026-04-25T08:44:44.998Z</time></trkpt><trkpt lat="45.00254695029356" lon="5.607172829593778"><ele>1008.3333333333333</ele><time>2026-04-25T08:44:45.998Z</time></trkpt><trkpt lat="45.00241093719366" lon="5.607159184605114"><ele>1010.6666666666667</ele><time>2026-04-25T08:44:46.998Z</time></trkpt><trkpt lat="45.00223673899236" lon="5.607157258480493"><ele>1013.0</ele><time>2026-04-25T08:44:47.998Z</time></trkpt><trkpt lat="45.002044688692344" lon="5.607168855949315"><ele>1013.0</ele><time>2026-04-25T08:44:48.998Z</time></trkpt><trkpt lat="45.001836955978256" lon="5.6071289328598795"><ele>1013.0</ele><time>2026-04-25T08:44:49.998Z</time></trkpt><trkpt lat="45.00160718367186" lon="5.607048053967522"><ele>1013.0</ele><time>2026-04-25T08:44:50.998Z</time></trkpt><trkpt lat="45.001373058882464" lon="5.607001921968219"><ele>1024.5</ele><time>2026-04-25T08:44:51.998Z</time></trkpt><trkpt lat="45.00114725456215" lon="5.606960992821315"><ele>1036.0</ele><time>2026-04-25T08:44:52.998Z</time></trkpt><trkpt lat="45.00090903629735" lon="5.606906993599305"><ele>1039.5</ele><time>2026-04-25T08:44:54Z</time></trkpt><trkpt lat="45.00067441440497" lon="5.606891136157337"><ele>1043.0</ele><time>2026-04-25T08:44:55Z</time></trkpt><trkpt lat="45.00046224405101" lon="5.606841815379603"><ele>1043.0</ele><time>2026-04-25T08:44:56Z</time></trkpt><trkpt lat="45.000256559901345" lon="5.606755789839484"><ele>1043.0</ele><time>2026-04-25T08:44:57Z</time></trkpt><trkpt lat="45.0000400270471" lon="5.606636650607848"><ele>1043.0</ele><time>2026-04-25T08:44:58Z</time></trkpt><trkpt lat="44.999814554722654" lon="5.606521756144461"><ele>1043.0</ele><time>2026-04-25T08:44:59Z</time></trkpt><trkpt lat="44.999588460701" lon="5.606378926189396"><ele>1043.0</ele><time>2026-04-25T08:45:00Z</time></trkpt><trkpt lat="44.999373780784374" lon="5.60625715397423"><ele>1046.6666666666667</ele><time>2026-04-25T08:45:01Z</time></trkpt><trkpt lat="44.99918005496943" lon="5.606150332867686"><ele>1050.3333333333333</ele><time>2026-04-25T08:45:02Z</time></trkpt><trkpt lat="44.999008956130226" lon="5.6060618071993344"><ele>1054.0</ele><time>2026-04-25T08:45:03Z</time></trkpt><trkpt lat="44.99882304961531" lon="5.605998528141508"><ele>1054.0</ele><time>2026-04-25T08:45:04Z</time></trkpt><trkpt lat="44.998645410326716" lon="5.605967020171103"><ele>1054.0</ele><time>2026-04-25T08:45:05Z</time></trkpt><trkpt lat="44.99843837435088" lon="5.605938837604212"><ele>1054.0</ele><time>2026-04-25T08:45:06Z</time></trkpt><trkpt lat="44.99822775450037" lon="5.605903798330196"><ele>1055.3333333333333</ele><time>2026-04-25T08:45:07Z</time></trkpt><trkpt lat="44.99801487209832" lon="5.605898368422862"><ele>1056.6666666666667</ele><time>2026-04-25T08:45:08Z</time></trkpt><trkpt lat="44.99783417524437" lon="5.605809456102981"><ele>1058.0</ele><time>2026-04-25T08:45:09Z</time></trkpt><trkpt lat="44.997653377670986" lon="5.605689637407573"><ele>1058.5</ele><time>2026-04-25T08:45:10Z</time></trkpt><trkpt lat="44.99744888055791" lon="5.6055445448442125"><ele>1059.0</ele><time>2026-04-25T08:45:11Z</time></trkpt><trkpt lat="44.997248396736055" lon="5.605387221265707"><ele>1064.0</ele><time>2026-04-25T08:45:12Z</time></trkpt><trkpt lat="44.997053768685824" lon="5.605236360002595"><ele>1069.0</ele><time>2026-04-25T08:45:13Z</time></trkpt><trkpt lat="44.99689738843725" lon="5.605091576387972"><ele>1074.0</ele><time>2026-04-25T08:45:14Z</time></trkpt><trkpt lat="44.996755609126105" lon="5.604904375645656"><ele>1071.0</ele><time>2026-04-25T08:45:15Z</time></trkpt><trkpt lat="44.9966148343402" lon="5.604676148172104"><ele>1068.0</ele><time>2026-04-25T08:45:16Z</time></trkpt><trkpt lat="44.996458055461176" lon="5.604438650588385"><ele>1065.0</ele><time>2026-04-25T08:45:17Z</time></trkpt><trkpt lat="44.996310192655685" lon="5.604196395702722"><ele>1065.0</ele><time>2026-04-25T08:45:18Z</time></trkpt><trkpt lat="44.99616197079723" lon="5.6039679249625"><ele>1065.0</ele><time>2026-04-25T08:45:19Z</time></trkpt><trkpt lat="44.996027744686195" lon="5.603770312158658"><ele>1065.0</ele><time>2026-04-25T08:45:20Z</time></trkpt><trkpt lat="44.99590613019971" lon="5.603595812372853"><ele>1065.25</ele><time>2026-04-25T08:45:21Z</time></trkpt><trkpt lat="44.99579473329685" lon="5.60344444350568"><ele>1065.5</ele><time>2026-04-25T08:45:22Z</time></trkpt><trkpt lat="44.99571867014038" lon="5.6032945244614005"><ele>1065.75</ele><time>2026-04-25T08:45:23Z</time></trkpt><trkpt lat="44.99566007951503" lon="5.6031711461448195"><ele>1066.0</ele><time>2026-04-25T08:45:24Z</time></trkpt><trkpt lat="44.99562386162444" lon="5.60305138883825"><ele>1066.0</ele><time>2026-04-25T08:45:25Z</time></trkpt><trkpt lat="44.9956167404931" lon="5.602911765401481"><ele>1066.0</ele><time>2026-04-25T08:45:26Z</time></trkpt><trkpt lat="44.99565667040836" lon="5.602773999411722"><ele>1066.0</ele><time>2026-04-25T08:45:27Z</time></trkpt><trkpt lat="44.99574762894876" lon="5.602686401831756"><ele>1066.0</ele><time>2026-04-25T08:45:28Z</time></trkpt><trkpt lat="44.99587829736496" lon="5.60271300214946"><ele>1066.0</ele><time>2026-04-25T08:45:29Z</time></trkpt><trkpt lat="44.996007579212055" lon="5.602793698779029"><ele>1067.3333333333333</ele><time>2026-04-25T08:45:30Z</time></trkpt><trkpt lat="44.996174740982596" lon="5.602878267698655"><ele>1068.6666666666667</ele><time>2026-04-25T08:45:31Z</time></trkpt><trkpt lat="44.99634413142933" lon="5.60294264662455"><ele>1070.0</ele><time>2026-04-25T08:45:32Z</time></trkpt><trkpt lat="44.996487279288345" lon="5.603016512942795"><ele>1070.0</ele><time>2026-04-25T08:45:33Z</time></trkpt><trkpt lat="44.99662326380763" lon="5.603058681413674"><ele>1070.0</ele><time>2026-04-25T08:45:34Z</time></trkpt><trkpt lat="44.99675408933743" lon="5.603043078916319"><ele>1070.0</ele><time>2026-04-25T08:45:35Z</time></trkpt><trkpt lat="44.9968558134966" lon="5.602961404393269"><ele>1070.0</ele><time>2026-04-25T08:45:36Z</time></trkpt><trkpt lat="44.99692812814256" lon="5.602830416984674"><ele>1072.25</ele><time>2026-04-25T08:45:37Z</time></trkpt><trkpt lat="44.99698016008076" lon="5.602656077877412"><ele>1074.5</ele><time>2026-04-25T08:45:38Z</time></trkpt><trkpt lat="44.996980291894" lon="5.602453340247544"><ele>1076.75</ele><time>2026-04-25T08:45:39Z</time></trkpt><trkpt lat="44.99692502274271" lon="5.602266253572033"><ele>1079.0</ele><time>2026-04-25T08:45:39.999Z</time></trkpt><trkpt lat="44.99681888611367" lon="5.60208970657107"><ele>1081.3333333333335</ele><time>2026-04-25T08:45:40.999Z</time></trkpt><trkpt lat="44.99667153926615" lon="5.601939081371158"><ele>1083.6666666666667</ele><time>2026-04-25T08:45:41.999Z</time></trkpt><trkpt lat="44.99650600667796" lon="5.601773089549734"><ele>1086.0</ele><time>2026-04-25T08:45:42.999Z</time></trkpt><trkpt lat="44.99636041622742" lon="5.6015601585970085"><ele>1086.0</ele><time>2026-04-25T08:45:43.999Z</time></trkpt><trkpt lat="44.99619686999828" lon="5.601376316730633"><ele>1086.0</ele><time>2026-04-25T08:45:44.999Z</time></trkpt><trkpt lat="44.99608004639454" lon="5.60115073977614"><ele>1086.0</ele><time>2026-04-25T08:45:45.999Z</time></trkpt><trkpt lat="44.99600705566151" lon="5.600927180446227"><ele>1089.0</ele><time>2026-04-25T08:45:46.999Z</time></trkpt><trkpt lat="44.99595058338526" lon="5.600707132230244"><ele>1092.0</ele><time>2026-04-25T08:45:47.999Z</time></trkpt><trkpt lat="44.995872344543876" lon="5.600527226793223"><ele>1095.0</ele><time>2026-04-25T08:45:48.999Z</time></trkpt><trkpt lat="44.995750033029815" lon="5.600389801841388"><ele>1099.3333333333333</ele><time>2026-04-25T08:45:49.999Z</time></trkpt><trkpt lat="44.995578874836205" lon="5.600285770516783"><ele>1103.6666666666665</ele><time>2026-04-25T08:45:50.999Z</time></trkpt><trkpt lat="44.99542081302604" lon="5.600134355895062"><ele>1108.0</ele><time>2026-04-25T08:45:51.999Z</time></trkpt><trkpt lat="44.99529469144458" lon="5.599952190642052"><ele>1108.0</ele><time>2026-04-25T08:45:52.999Z</time></trkpt><trkpt lat="44.99522372012617" lon="5.599715448374999"><ele>1108.0</ele><time>2026-04-25T08:45:53.999Z</time></trkpt><trkpt lat="44.99515662653422" lon="5.599428389511256"><ele>1108.0</ele><time>2026-04-25T08:45:54.999Z</time></trkpt><trkpt lat="44.9950496348068" lon="5.599140017737529"><ele>1108.0</ele><time>2026-04-25T08:45:55.999Z</time></trkpt><trkpt lat="44.99491354971518" lon="5.598853165937811"><ele>1108.0</ele><time>2026-04-25T08:45:56.999Z</time></trkpt><trkpt lat="44.994735258843924" lon="5.5985792911198935"><ele>1113.5</ele><time>2026-04-25T08:45:57.999Z</time></trkpt><trkpt lat="44.99455461012293" lon="5.5983113991986935"><ele>1119.0</ele><time>2026-04-25T08:45:58.999Z</time></trkpt><trkpt lat="44.994431783773" lon="5.59805663766793"><ele>1119.0</ele><time>2026-04-25T08:45:59.999Z</time></trkpt><trkpt lat="44.99431632284998" lon="5.597830271586751"><ele>1119.0</ele><time>2026-04-25T08:46:00.999Z</time></trkpt><trkpt lat="44.99422207967934" lon="5.5976298060717244"><ele>1119.0</ele><time>2026-04-25T08:46:01.999Z</time></trkpt><trkpt lat="44.99415872177672" lon="5.59741258903238"><ele>1119.0</ele><time>2026-04-25T08:46:02.999Z</time></trkpt><trkpt lat="44.9941505655535" lon="5.597179050444255"><ele>1119.0</ele><time>2026-04-25T08:46:03.999Z</time></trkpt><trkpt lat="44.99417259731639" lon="5.596922417643161"><ele>1119.0</ele><time>2026-04-25T08:46:04.999Z</time></trkpt><trkpt lat="44.99417686509863" lon="5.5966680717490975"><ele>1122.0</ele><time>2026-04-25T08:46:05.999Z</time></trkpt><trkpt lat="44.994144430743866" lon="5.596446015172539"><ele>1125.0</ele><time>2026-04-25T08:46:06.999Z</time></trkpt><trkpt lat="44.994065073126976" lon="5.596246580922598"><ele>1128.0</ele><time>2026-04-25T08:46:07.999Z</time></trkpt><trkpt lat="44.993934028439355" lon="5.596087965671664"><ele>1133.0</ele><time>2026-04-25T08:46:08.999Z</time></trkpt><trkpt lat="44.993765103392235" lon="5.5959909292803784"><ele>1138.0</ele><time>2026-04-25T08:46:09.999Z</time></trkpt><trkpt lat="44.99359943843316" lon="5.595938935374161"><ele>1143.0</ele><time>2026-04-25T08:46:10.999Z</time></trkpt><trkpt lat="44.99344296607368" lon="5.595851062783858"><ele>1142.25</ele><time>2026-04-25T08:46:11.999Z</time></trkpt><trkpt lat="44.993315402962516" lon="5.595727776538119"><ele>1141.5</ele><time>2026-04-25T08:46:12.999Z</time></trkpt><trkpt lat="44.993237901731455" lon="5.5955596841701585"><ele>1140.75</ele><time>2026-04-25T08:46:13.999Z</time></trkpt><trkpt lat="44.993187744224855" lon="5.595391138731226"><ele>1140.0</ele><time>2026-04-25T08:46:14.999Z</time></trkpt><trkpt lat="44.99311802881041" lon="5.595285354386641"><ele>1140.0</ele><time>2026-04-25T08:46:15.999Z</time></trkpt><trkpt lat="44.9930439163849" lon="5.595215960074417"><ele>1140.0</ele><time>2026-04-25T08:46:16.999Z</time></trkpt><trkpt lat="44.992918708131775" lon="5.595256784566184"><ele>1140.0</ele><time>2026-04-25T08:46:17.999Z</time></trkpt><trkpt lat="44.99280017378452" lon="5.595340779747197"><ele>1140.0</ele><time>2026-04-25T08:46:18.999Z</time></trkpt><trkpt lat="44.992659514914415" lon="5.595422748235756"><ele>1140.0</ele><time>2026-04-25T08:46:19.999Z</time></trkpt><trkpt lat="44.992513722583155" lon="5.5954864079064945"><ele>1140.0</ele><time>2026-04-25T08:46:20.999Z</time></trkpt><trkpt lat="44.9923389116361" lon="5.595503228143917"><ele>1140.0</ele><time>2026-04-25T08:46:21.999Z</time></trkpt><trkpt lat="44.992173886550404" lon="5.595553450439806"><ele>1142.5</ele><time>2026-04-25T08:46:22.999Z</time></trkpt><trkpt lat="44.99204570637521" lon="5.595657708876377"><ele>1145.0</ele><time>2026-04-25T08:46:23.999Z</time></trkpt><trkpt lat="44.99193454198962" lon="5.595800143102382"><ele>1147.5</ele><time>2026-04-25T08:46:24.999Z</time></trkpt><trkpt lat="44.99182507231664" lon="5.5959082420699335"><ele>1150.0</ele><time>2026-04-25T08:46:25.999Z</time></trkpt><trkpt lat="44.991696220160414" lon="5.5958767060164725"><ele>1150.75</ele><time>2026-04-25T08:46:26.999Z</time></trkpt><trkpt lat="44.99156577735981" lon="5.595789972806298"><ele>1151.5</ele><time>2026-04-25T08:46:27.999Z</time></trkpt><trkpt lat="44.99141887476144" lon="5.595720459787826"><ele>1152.25</ele><time>2026-04-25T08:46:28.999Z</time></trkpt><trkpt lat="44.99128963693002" lon="5.595626034485702"><ele>1153.0</ele><time>2026-04-25T08:46:29.999Z</time></trkpt><trkpt lat="44.99117113883285" lon="5.5955455016730005"><ele>1153.0</ele><time>2026-04-25T08:46:30.999Z</time></trkpt><trkpt lat="44.991072769527804" lon="5.595482943254943"><ele>1153.0</ele><time>2026-04-25T08:46:31.999Z</time></trkpt><trkpt lat="44.99098608130399" lon="5.595430181219359"><ele>1153.0</ele><time>2026-04-25T08:46:32.999Z</time></trkpt><trkpt lat="44.99091074955637" lon="5.595380358715592"><ele>1153.0</ele><time>2026-04-25T08:46:33.999Z</time></trkpt><trkpt lat="44.990841199880045" lon="5.595330568352629"><ele>1153.0</ele><time>2026-04-25T08:46:34.999Z</time></trkpt><trkpt lat="44.99078952818605" lon="5.59527640178983"><ele>1153.0</ele><time>2026-04-25T08:46:35.999Z</time></trkpt><trkpt lat="44.990701287577615" lon="5.59523158071675"><ele>1153.8333333333333</ele><time>2026-04-25T08:46:37.998Z</time></trkpt><trkpt lat="44.99063981421538" lon="5.595190196224601"><ele>1154.6666666666665</ele><time>2026-04-25T08:46:39.998Z</time></trkpt><trkpt lat="44.99057178415903" lon="5.595145550865098"><ele>1155.5</ele><time>2026-04-25T08:47:52.999Z</time></trkpt><trkpt lat="44.99048144325388" lon="5.595094710079352"><ele>1156.3333333333333</ele><time>2026-04-25T08:47:54.999Z</time></trkpt><trkpt lat="44.99041400739942" lon="5.595055862965066"><ele>1157.1666666666667</ele><time>2026-04-25T08:47:55.999Z</time></trkpt><trkpt lat="44.990345840478845" lon="5.595020870351383"><ele>1158.0</ele><time>2026-04-25T08:47:56.999Z</time></trkpt><trkpt lat="44.990273227956365" lon="5.594982796151999"><ele>1158.0</ele><time>2026-04-25T08:47:57.999Z</time></trkpt><trkpt lat="44.99019824084069" lon="5.594941190477176"><ele>1158.0</ele><time>2026-04-25T08:47:58.999Z</time></trkpt><trkpt lat="44.990117993485256" lon="5.594897217418419"><ele>1158.0</ele><time>2026-04-25T08:47:59.999Z</time></trkpt><trkpt lat="44.99002880036858" lon="5.59485273856268"><ele>1158.0</ele><time>2026-04-25T08:48:00.999Z</time></trkpt><trkpt lat="44.98993324862" lon="5.5948031289246165"><ele>1158.0</ele><time>2026-04-25T08:48:01.999Z</time></trkpt><trkpt lat="44.989821181795115" lon="5.5947503888710415"><ele>1157.5</ele><time>2026-04-25T08:48:02.999Z</time></trkpt><trkpt lat="44.9897110064328" lon="5.594690188681071"><ele>1157.0</ele><time>2026-04-25T08:48:03.999Z</time></trkpt><trkpt lat="44.989608324873124" lon="5.5946355726410655"><ele>1156.5</ele><time>2026-04-25T08:48:04.999Z</time></trkpt><trkpt lat="44.98949467085765" lon="5.594582959837636"><ele>1156.0</ele><time>2026-04-25T08:48:05.999Z</time></trkpt><trkpt lat="44.98939278283879" lon="5.594521829567148"><ele>1155.0</ele><time>2026-04-25T08:48:06.999Z</time></trkpt><trkpt lat="44.98928614979885" lon="5.594457759637763"><ele>1154.0</ele><time>2026-04-25T08:48:07.999Z</time></trkpt><trkpt lat="44.98918464767704" lon="5.594383191395244"><ele>1153.0</ele><time>2026-04-25T08:48:08.999Z</time></trkpt><trkpt lat="44.9890924693077" lon="5.594289673263654"><ele>1152.0</ele><time>2026-04-25T08:48:09.999Z</time></trkpt><trkpt lat="44.98899820372001" lon="5.594172619291547"><ele>1152.0</ele><time>2026-04-25T08:48:10.999Z</time></trkpt><trkpt lat="44.98890357362117" lon="5.594044554113551"><ele>1152.0</ele><time>2026-04-25T08:48:11.999Z</time></trkpt><trkpt lat="44.988805217338886" lon="5.593900356097078"><ele>1152.0</ele><time>2026-04-25T08:48:12.999Z</time></trkpt><trkpt lat="44.98870565028309" lon="5.593747038816206"><ele>1152.0</ele><time>2026-04-25T08:48:13.999Z</time></trkpt><trkpt lat="44.98859408938262" lon="5.593584923419987"><ele>1150.6666666666667</ele><time>2026-04-25T08:48:14.999Z</time></trkpt><trkpt lat="44.98848324822544" lon="5.593426276338251"><ele>1149.3333333333335</ele><time>2026-04-25T08:48:15.999Z</time></trkpt><trkpt lat="44.9883686884517" lon="5.593246228320537"><ele>1148.0</ele><time>2026-04-25T08:48:16.999Z</time></trkpt><trkpt lat="44.98825186555605" lon="5.593064571140939"><ele>1148.0</ele><time>2026-04-25T08:48:17.999Z</time></trkpt><trkpt lat="44.98810697421249" lon="5.592903655441997"><ele>1148.0</ele><time>2026-04-25T08:48:18.999Z</time></trkpt><trkpt lat="44.98795536528407" lon="5.592759811619355"><ele>1148.0</ele><time>2026-04-25T08:48:19.999Z</time></trkpt><trkpt lat="44.987809793181846" lon="5.592625660010667"><ele>1145.3333333333335</ele><time>2026-04-25T08:48:20.999Z</time></trkpt><trkpt lat="44.98766969403677" lon="5.592483391309497"><ele>1142.6666666666667</ele><time>2026-04-25T08:48:21.999Z</time></trkpt><trkpt lat="44.98753620761425" lon="5.592317291850204"><ele>1140.0</ele><time>2026-04-25T08:48:22.999Z</time></trkpt><trkpt lat="44.98740725454946" lon="5.59213534553236"><ele>1144.6666666666667</ele><time>2026-04-25T08:48:23.999Z</time></trkpt><trkpt lat="44.987292435785875" lon="5.591968447602913"><ele>1149.3333333333335</ele><time>2026-04-25T08:48:24.999Z</time></trkpt><trkpt lat="44.98719311947743" lon="5.591788580079497"><ele>1154.0</ele><time>2026-04-25T08:48:25.999Z</time></trkpt><trkpt lat="44.98711539800544" lon="5.591589109743234"><ele>1154.0</ele><time>2026-04-25T08:48:26.999Z</time></trkpt><trkpt lat="44.987052354614654" lon="5.591366203666913"><ele>1154.0</ele><time>2026-04-25T08:48:27.999Z</time></trkpt><trkpt lat="44.98700034484971" lon="5.591124170624731"><ele>1154.0</ele><time>2026-04-25T08:48:28.999Z</time></trkpt><trkpt lat="44.986955466524286" lon="5.590871367254702"><ele>1157.6666666666667</ele><time>2026-04-25T08:48:29.999Z</time></trkpt><trkpt lat="44.986908167874645" lon="5.590604997427324"><ele>1161.3333333333333</ele><time>2026-04-25T08:48:30.999Z</time></trkpt><trkpt lat="44.98683830441516" lon="5.590350512277418"><ele>1165.0</ele><time>2026-04-25T08:48:31.999Z</time></trkpt><trkpt lat="44.98676014816273" lon="5.59009518868795"><ele>1167.3333333333333</ele><time>2026-04-25T08:48:32.999Z</time></trkpt><trkpt lat="44.98668145363523" lon="5.589845318156397"><ele>1169.6666666666667</ele><time>2026-04-25T08:48:33.999Z</time></trkpt><trkpt lat="44.98661298362457" lon="5.589609749419301"><ele>1172.0</ele><time>2026-04-25T08:48:34.999Z</time></trkpt><trkpt lat="44.98655426222407" lon="5.58939817083262"><ele>1163.0</ele><time>2026-04-25T08:48:35.999Z</time></trkpt><trkpt lat="44.986524278359596" lon="5.589191446442822"><ele>1154.0</ele><time>2026-04-25T08:48:36.999Z</time></trkpt><trkpt lat="44.986537357971706" lon="5.58899035253074"><ele>1145.0</ele><time>2026-04-25T08:48:37.999Z</time></trkpt><trkpt lat="44.98658988082661" lon="5.588789594288695"><ele>1136.0</ele><time>2026-04-25T08:48:38.999Z</time></trkpt><trkpt lat="44.98667446865557" lon="5.588578844226745"><ele>1141.0</ele><time>2026-04-25T08:48:39.999Z</time></trkpt><trkpt lat="44.98674533074612" lon="5.5883300312414494"><ele>1146.0</ele><time>2026-04-25T08:48:40.999Z</time></trkpt><trkpt lat="44.98678520809213" lon="5.588037609936961"><ele>1151.0</ele><time>2026-04-25T08:48:41.999Z</time></trkpt><trkpt lat="44.98681357311471" lon="5.5877343433005136"><ele>1151.0</ele><time>2026-04-25T08:48:42.998Z</time></trkpt><trkpt lat="44.98683146968271" lon="5.587451779147942"><ele>1151.0</ele><time>2026-04-25T08:48:43.998Z</time></trkpt><trkpt lat="44.98684462596476" lon="5.58718563303482"><ele>1151.0</ele><time>2026-04-25T08:48:44.998Z</time></trkpt><trkpt lat="44.98686596146958" lon="5.586926470592377"><ele>1150.3333333333335</ele><time>2026-04-25T08:48:45.998Z</time></trkpt><trkpt lat="44.98686846621103" lon="5.58668687635074"><ele>1149.6666666666667</ele><time>2026-04-25T08:48:46.998Z</time></trkpt><trkpt lat="44.98683686897375" lon="5.586459821028871"><ele>1149.0</ele><time>2026-04-25T08:48:47.998Z</time></trkpt><trkpt lat="44.98677828641458" lon="5.586233597526338"><ele>1150.0</ele><time>2026-04-25T08:48:48.998Z</time></trkpt><trkpt lat="44.98668184922546" lon="5.5860338603468325"><ele>1151.0</ele><time>2026-04-25T08:48:49.998Z</time></trkpt><trkpt lat="44.986572540252226" lon="5.585860668343847"><ele>1152.0</ele><time>2026-04-25T08:48:50.998Z</time></trkpt><trkpt lat="44.98642327820194" lon="5.585739170359271"><ele>1142.3333333333333</ele><time>2026-04-25T08:48:51.998Z</time></trkpt><trkpt lat="44.98624037003802" lon="5.58566922473718"><ele>1132.6666666666665</ele><time>2026-04-25T08:48:52.998Z</time></trkpt><trkpt lat="44.98605199741282" lon="5.585626623674047"><ele>1123.0</ele><time>2026-04-25T08:48:53.998Z</time></trkpt><trkpt lat="44.9858623401765" lon="5.5855953304045105"><ele>1126.0</ele><time>2026-04-25T08:48:54.998Z</time></trkpt><trkpt lat="44.98567468650683" lon="5.585556636200619"><ele>1129.0</ele><time>2026-04-25T08:48:55.998Z</time></trkpt><trkpt lat="44.985488933132" lon="5.585459022090878"><ele>1132.0</ele><time>2026-04-25T08:48:56.998Z</time></trkpt><trkpt lat="44.9853130462288" lon="5.585340193547664"><ele>1132.0</ele><time>2026-04-25T08:48:57.998Z</time></trkpt><trkpt lat="44.98513634179665" lon="5.585216951518689"><ele>1132.0</ele><time>2026-04-25T08:48:58.998Z</time></trkpt><trkpt lat="44.98496108775419" lon="5.585080625858946"><ele>1132.0</ele><time>2026-04-25T08:48:59.998Z</time></trkpt><trkpt lat="44.98479262762991" lon="5.584919169745429"><ele>1133.3333333333333</ele><time>2026-04-25T08:49:00.998Z</time></trkpt><trkpt lat="44.98462684402245" lon="5.584748264107674"><ele>1134.6666666666667</ele><time>2026-04-25T08:49:01.998Z</time></trkpt><trkpt lat="44.98445726119651" lon="5.5845715901326765"><ele>1136.0</ele><time>2026-04-25T08:49:02.998Z</time></trkpt><trkpt lat="44.984284673929494" lon="5.584394124008273"><ele>1126.3333333333335</ele><time>2026-04-25T08:49:03.998Z</time></trkpt><trkpt lat="44.984110340682314" lon="5.5842132819187125"><ele>1116.6666666666667</ele><time>2026-04-25T08:49:04.998Z</time></trkpt><trkpt lat="44.98393620073219" lon="5.5840313502242935"><ele>1107.0</ele><time>2026-04-25T08:49:06Z</time></trkpt><trkpt lat="44.98375810589351" lon="5.583855275636169"><ele>1107.0</ele><time>2026-04-25T08:49:07Z</time></trkpt><trkpt lat="44.98356664039325" lon="5.583706150891697"><ele>1107.0</ele><time>2026-04-25T08:49:08Z</time></trkpt><trkpt lat="44.983367256243646" lon="5.5835855441184865"><ele>1107.0</ele><time>2026-04-25T08:49:09Z</time></trkpt><trkpt lat="44.983159900246" lon="5.5834800397247175"><ele>1106.0</ele><time>2026-04-25T08:49:10Z</time></trkpt><trkpt lat="44.98295356028232" lon="5.583387519270002"><ele>1105.0</ele><time>2026-04-25T08:49:11Z</time></trkpt><trkpt lat="44.98274226904201" lon="5.583294792684081"><ele>1104.0</ele><time>2026-04-25T08:49:12Z</time></trkpt><trkpt lat="44.982541035394505" lon="5.583194176415667"><ele>1104.0</ele><time>2026-04-25T08:49:13Z</time></trkpt><trkpt lat="44.982350222102276" lon="5.583049025881476"><ele>1104.0</ele><time>2026-04-25T08:49:14Z</time></trkpt><trkpt lat="44.982163170081" lon="5.582904678678439"><ele>1104.0</ele><time>2026-04-25T08:49:15Z</time></trkpt><trkpt lat="44.98197687293804" lon="5.582747682544368"><ele>1104.0</ele><time>2026-04-25T08:49:16Z</time></trkpt><trkpt lat="44.98179482302948" lon="5.582581148243013"><ele>1104.0</ele><time>2026-04-25T08:49:17Z</time></trkpt><trkpt lat="44.98161682703331" lon="5.582427961905906"><ele>1104.0</ele><time>2026-04-25T08:49:18Z</time></trkpt><trkpt lat="44.98147167660223" lon="5.582239162716102"><ele>1099.6666666666667</ele><time>2026-04-25T08:49:19Z</time></trkpt><trkpt lat="44.981344976402916" lon="5.5820483108163135"><ele>1095.3333333333335</ele><time>2026-04-25T08:49:20Z</time></trkpt><trkpt lat="44.98124741962282" lon="5.581841663465077"><ele>1091.0</ele><time>2026-04-25T08:49:21Z</time></trkpt><trkpt lat="44.98113746270955" lon="5.581647399521684"><ele>1091.0</ele><time>2026-04-25T08:49:22Z</time></trkpt><trkpt lat="44.98100402282448" lon="5.581506921186371"><ele>1091.0</ele><time>2026-04-25T08:49:23Z</time></trkpt><trkpt lat="44.98086632892544" lon="5.581378614048948"><ele>1091.0</ele><time>2026-04-25T08:49:24Z</time></trkpt><trkpt lat="44.9807410415301" lon="5.581246707044141"><ele>1086.5</ele><time>2026-04-25T08:49:25Z</time></trkpt><trkpt lat="44.98064348888966" lon="5.581100067947691"><ele>1082.0</ele><time>2026-04-25T08:49:26Z</time></trkpt><trkpt lat="44.980548976780405" lon="5.580959115289401"><ele>1077.5</ele><time>2026-04-25T08:49:27Z</time></trkpt><trkpt lat="44.980458510233305" lon="5.580841948205054"><ele>1073.0</ele><time>2026-04-25T08:49:28Z</time></trkpt><trkpt lat="44.98037636550731" lon="5.580756622661037"><ele>1073.0</ele><time>2026-04-25T08:49:29Z</time></trkpt><trkpt lat="44.98030019785812" lon="5.580715531720774"><ele>1073.0</ele><time>2026-04-25T08:49:30Z</time></trkpt><trkpt lat="44.98021351109369" lon="5.580799997815026"><ele>1073.0</ele><time>2026-04-25T08:49:31Z</time></trkpt><trkpt lat="44.980166533655385" lon="5.580901281521793"><ele>1073.0</ele><time>2026-04-25T08:49:32Z</time></trkpt><trkpt lat="44.980166488010376" lon="5.581043068272699"><ele>1073.0</ele><time>2026-04-25T08:49:33Z</time></trkpt><trkpt lat="44.980205347101716" lon="5.5811755663235285"><ele>1071.25</ele><time>2026-04-25T08:49:34Z</time></trkpt><trkpt lat="44.98028832371139" lon="5.58128277293682"><ele>1069.5</ele><time>2026-04-25T08:49:35Z</time></trkpt><trkpt lat="44.980401650834736" lon="5.581350705549529"><ele>1067.75</ele><time>2026-04-25T08:49:36Z</time></trkpt><trkpt lat="44.9805257477577" lon="5.581423797714559"><ele>1066.0</ele><time>2026-04-25T08:49:37Z</time></trkpt><trkpt lat="44.980654968036674" lon="5.581530683412726"><ele>1066.0</ele><time>2026-04-25T08:49:38Z</time></trkpt><trkpt lat="44.980752241872274" lon="5.581670047561265"><ele>1066.0</ele><time>2026-04-25T08:49:39Z</time></trkpt><trkpt lat="44.98084977881414" lon="5.581833069791746"><ele>1066.0</ele><time>2026-04-25T08:49:40Z</time></trkpt><trkpt lat="44.98094849268899" lon="5.582035251571614"><ele>1070.0</ele><time>2026-04-25T08:49:41Z</time></trkpt><trkpt lat="44.981042964510785" lon="5.582254793003181"><ele>1074.0</ele><time>2026-04-25T08:49:42Z</time></trkpt><trkpt lat="44.981136710404385" lon="5.582472320842279"><ele>1078.0</ele><time>2026-04-25T08:49:43Z</time></trkpt><trkpt lat="44.9812392642163" lon="5.582685996496323"><ele>1068.6666666666665</ele><time>2026-04-25T08:49:44Z</time></trkpt><trkpt lat="44.98134552811245" lon="5.582904641531787"><ele>1059.3333333333333</ele><time>2026-04-25T08:49:45Z</time></trkpt><trkpt lat="44.98145061968886" lon="5.583127537214678"><ele>1050.0</ele><time>2026-04-25T08:49:46Z</time></trkpt><trkpt lat="44.98155281272092" lon="5.583362282658663"><ele>1050.0</ele><time>2026-04-25T08:49:47Z</time></trkpt><trkpt lat="44.98164283274419" lon="5.583593818006538"><ele>1050.0</ele><time>2026-04-25T08:49:48Z</time></trkpt><trkpt lat="44.98172399164762" lon="5.583825452043284"><ele>1050.0</ele><time>2026-04-25T08:49:49Z</time></trkpt><trkpt lat="44.981795225793846" lon="5.584060280800065"><ele>1052.3333333333333</ele><time>2026-04-25T08:49:50Z</time></trkpt><trkpt lat="44.98186200223876" lon="5.584286237611524"><ele>1054.6666666666665</ele><time>2026-04-25T08:49:50.999Z</time></trkpt><trkpt lat="44.981934447119926" lon="5.584491203689098"><ele>1057.0</ele><time>2026-04-25T08:49:51.999Z</time></trkpt><trkpt lat="44.98202579655971" lon="5.5846771399588375"><ele>1050.6666666666665</ele><time>2026-04-25T08:49:52.999Z</time></trkpt><trkpt lat="44.98212811109786" lon="5.58484100546731"><ele>1044.3333333333333</ele><time>2026-04-25T08:49:53.999Z</time></trkpt><trkpt lat="44.982247633604075" lon="5.584971163922411"><ele>1038.0</ele><time>2026-04-25T08:49:54.999Z</time></trkpt><trkpt lat="44.98237633368981" lon="5.5850709300151"><ele>1038.0</ele><time>2026-04-25T08:49:55.999Z</time></trkpt><trkpt lat="44.98248862632346" lon="5.5851827460007515"><ele>1038.0</ele><time>2026-04-25T08:49:56.999Z</time></trkpt><trkpt lat="44.98260043713029" lon="5.585286089269312"><ele>1038.0</ele><time>2026-04-25T08:49:57.999Z</time></trkpt><trkpt lat="44.98269926165883" lon="5.58541186652234"><ele>1038.0</ele><time>2026-04-25T08:49:58.999Z</time></trkpt><trkpt lat="44.98279195272146" lon="5.585554795335983"><ele>1038.75</ele><time>2026-04-25T08:49:59.999Z</time></trkpt><trkpt lat="44.982855981404995" lon="5.585721389346632"><ele>1039.5</ele><time>2026-04-25T08:50:00.999Z</time></trkpt><trkpt lat="44.98290520366045" lon="5.585891908855812"><ele>1040.25</ele><time>2026-04-25T08:50:01.999Z</time></trkpt><trkpt lat="44.98296029738911" lon="5.586050980524932"><ele>1041.0</ele><time>2026-04-25T08:50:02.999Z</time></trkpt><trkpt lat="44.9830266216395" lon="5.586181002517255"><ele>1038.3999999999999</ele><time>2026-04-25T08:50:03.999Z</time></trkpt><trkpt lat="44.98307628557251" lon="5.586308724494228"><ele>1035.8</ele><time>2026-04-25T08:50:04.999Z</time></trkpt><trkpt lat="44.98313756900655" lon="5.586417317329881"><ele>1033.1999999999998</ele><time>2026-04-25T08:50:05.999Z</time></trkpt><trkpt lat="44.98317341542024" lon="5.58651338995836"><ele>1030.6</ele><time>2026-04-25T08:50:06.999Z</time></trkpt><trkpt lat="44.98316093993192" lon="5.586691178328365"><ele>1028.0</ele><time>2026-04-25T08:50:08.999Z</time></trkpt><trkpt lat="44.98308019461543" lon="5.586730176293101"><ele>1028.0</ele><time>2026-04-25T08:50:09.999Z</time></trkpt><trkpt lat="44.98299232456597" lon="5.58668763535022"><ele>1028.0</ele><time>2026-04-25T08:50:10.999Z</time></trkpt><trkpt lat="44.98290644645771" lon="5.586575087519243"><ele>1028.0</ele><time>2026-04-25T08:50:11.999Z</time></trkpt><trkpt lat="44.98282795408791" lon="5.586416381006057"><ele>1028.0</ele><time>2026-04-25T08:50:12.999Z</time></trkpt><trkpt lat="44.9827337586699" lon="5.586257837825521"><ele>1026.3333333333335</ele><time>2026-04-25T08:50:13.999Z</time></trkpt><trkpt lat="44.9826210165958" lon="5.586117923275898"><ele>1024.6666666666667</ele><time>2026-04-25T08:50:14.999Z</time></trkpt><trkpt lat="44.98248152700351" lon="5.585994543119298"><ele>1023.0</ele><time>2026-04-25T08:50:15.999Z</time></trkpt><trkpt lat="44.98232148113487" lon="5.5858937938222875"><ele>1023.0</ele><time>2026-04-25T08:50:16.999Z</time></trkpt><trkpt lat="44.982168055216015" lon="5.585813288586137"><ele>1023.0</ele><time>2026-04-25T08:50:17.999Z</time></trkpt><trkpt lat="44.98201249071852" lon="5.585752457847507"><ele>1023.0</ele><time>2026-04-25T08:50:18.999Z</time></trkpt><trkpt lat="44.98185724667773" lon="5.5856823839111"><ele>1023.0</ele><time>2026-04-25T08:50:19.999Z</time></trkpt><trkpt lat="44.98170243893717" lon="5.585575767206255"><ele>1023.0</ele><time>2026-04-25T08:50:20.999Z</time></trkpt><trkpt lat="44.98156729152893" lon="5.585424217523533"><ele>1023.0</ele><time>2026-04-25T08:50:21.999Z</time></trkpt><trkpt lat="44.981450649428986" lon="5.58524486237392"><ele>1021.6666666666667</ele><time>2026-04-25T08:50:22.999Z</time></trkpt><trkpt lat="44.98135160494947" lon="5.585044199695764"><ele>1020.3333333333334</ele><time>2026-04-25T08:50:23.999Z</time></trkpt><trkpt lat="44.98125341647245" lon="5.584830366973729"><ele>1019.0</ele><time>2026-04-25T08:50:24.999Z</time></trkpt><trkpt lat="44.98115453300479" lon="5.58461946656345"><ele>1024.3333333333335</ele><time>2026-04-25T08:50:25.999Z</time></trkpt><trkpt lat="44.98105301740498" lon="5.584426836593526"><ele>1029.6666666666667</ele><time>2026-04-25T08:50:26.999Z</time></trkpt><trkpt lat="44.980941740432485" lon="5.584237147934829"><ele>1035.0</ele><time>2026-04-25T08:50:27.999Z</time></trkpt><trkpt lat="44.98080645785625" lon="5.584056108440542"><ele>1030.3333333333333</ele><time>2026-04-25T08:50:28.999Z</time></trkpt><trkpt lat="44.980654081192775" lon="5.58390153638023"><ele>1025.6666666666665</ele><time>2026-04-25T08:50:29.999Z</time></trkpt><trkpt lat="44.980482547659754" lon="5.583764954672846"><ele>1021.0</ele><time>2026-04-25T08:50:30.999Z</time></trkpt><trkpt lat="44.980304168536776" lon="5.583633929602089"><ele>1021.0</ele><time>2026-04-25T08:50:31.999Z</time></trkpt><trkpt lat="44.98012683625941" lon="5.583499678127701"><ele>1021.0</ele><time>2026-04-25T08:50:32.999Z</time></trkpt><trkpt lat="44.97994656927527" lon="5.5833693841887655"><ele>1021.0</ele><time>2026-04-25T08:50:33.999Z</time></trkpt><trkpt lat="44.979755239771755" lon="5.583224316448374"><ele>1012.3333333333333</ele><time>2026-04-25T08:50:34.999Z</time></trkpt><trkpt lat="44.97956668014656" lon="5.58308331438373"><ele>1003.6666666666667</ele><time>2026-04-25T08:50:35.999Z</time></trkpt><trkpt lat="44.97937579504116" lon="5.582937175358226"><ele>995.0</ele><time>2026-04-25T08:50:36.999Z</time></trkpt><trkpt lat="44.97918160096115" lon="5.582792127343997"><ele>994.0</ele><time>2026-04-25T08:50:37.999Z</time></trkpt><trkpt lat="44.97898307070153" lon="5.582639820825846"><ele>993.0</ele><time>2026-04-25T08:50:38.999Z</time></trkpt><trkpt lat="44.978779596387085" lon="5.582499863692685"><ele>993.0</ele><time>2026-04-25T08:50:39.999Z</time></trkpt><trkpt lat="44.978587156198365" lon="5.582345527593397"><ele>993.0</ele><time>2026-04-25T08:50:40.999Z</time></trkpt><trkpt lat="44.97838319345681" lon="5.582189074301015"><ele>989.0</ele><time>2026-04-25T08:50:41.999Z</time></trkpt><trkpt lat="44.9781800417539" lon="5.5820292789489825"><ele>985.0</ele><time>2026-04-25T08:50:42.999Z</time></trkpt><trkpt lat="44.97797637752795" lon="5.581874933233849"><ele>985.0</ele><time>2026-04-25T08:50:43.999Z</time></trkpt><trkpt lat="44.97776806985581" lon="5.5817214483982776"><ele>985.0</ele><time>2026-04-25T08:50:44.999Z</time></trkpt><trkpt lat="44.97756034160942" lon="5.581565503710096"><ele>973.0</ele><time>2026-04-25T08:50:45.999Z</time></trkpt><trkpt lat="44.977351764439874" lon="5.581413982470417"><ele>961.0</ele><time>2026-04-25T08:50:46.998Z</time></trkpt><trkpt lat="44.977151251317125" lon="5.581268043969188"><ele>959.3333333333333</ele><time>2026-04-25T08:50:47.998Z</time></trkpt><trkpt lat="44.976963737073376" lon="5.5811285085608375"><ele>957.6666666666667</ele><time>2026-04-25T08:50:48.998Z</time></trkpt><trkpt lat="44.97679054370665" lon="5.580990712271922"><ele>956.0</ele><time>2026-04-25T08:50:49.998Z</time></trkpt><trkpt lat="44.97663326841626" lon="5.580822227754205"><ele>956.0</ele><time>2026-04-25T08:50:50.998Z</time></trkpt><trkpt lat="44.976493467970435" lon="5.580629692536489"><ele>956.0</ele><time>2026-04-25T08:50:51.998Z</time></trkpt><trkpt lat="44.97637071706471" lon="5.580437495114329"><ele>956.0</ele><time>2026-04-25T08:50:52.998Z</time></trkpt><trkpt lat="44.976279993557235" lon="5.580239396917101"><ele>957.6666666666667</ele><time>2026-04-25T08:50:53.998Z</time></trkpt><trkpt lat="44.976231196475275" lon="5.580028557910996"><ele>959.3333333333333</ele><time>2026-04-25T08:50:54.998Z</time></trkpt><trkpt lat="44.9762424624331" lon="5.579802369263063"><ele>961.0</ele><time>2026-04-25T08:50:55.998Z</time></trkpt><trkpt lat="44.97625191867784" lon="5.579568837641921"><ele>958.3333333333333</ele><time>2026-04-25T08:50:56.998Z</time></trkpt><trkpt lat="44.97629348917715" lon="5.579330131397312"><ele>955.6666666666667</ele><time>2026-04-25T08:50:57.998Z</time></trkpt><trkpt lat="44.97635845088158" lon="5.579099541598565"><ele>953.0</ele><time>2026-04-25T08:50:58.998Z</time></trkpt><trkpt lat="44.97645030241776" lon="5.578875977032302"><ele>954.0</ele><time>2026-04-25T08:50:59.998Z</time></trkpt><trkpt lat="44.976541548448964" lon="5.578660576398979"><ele>955.0</ele><time>2026-04-25T08:51:00.998Z</time></trkpt><trkpt lat="44.97663429279963" lon="5.578450593288065"><ele>956.0</ele><time>2026-04-25T08:51:01.998Z</time></trkpt><trkpt lat="44.97672536536934" lon="5.5782657060569045"><ele>956.0</ele><time>2026-04-25T08:51:02.998Z</time></trkpt><trkpt lat="44.97682848417289" lon="5.5780964995874545"><ele>956.0</ele><time>2026-04-25T08:51:03.998Z</time></trkpt><trkpt lat="44.97693346550761" lon="5.577948981552008"><ele>956.0</ele><time>2026-04-25T08:51:04.998Z</time></trkpt><trkpt lat="44.977032703369915" lon="5.577795928331935"><ele>951.8</ele><time>2026-04-25T08:51:05.998Z</time></trkpt><trkpt lat="44.97713786295001" lon="5.577684651228153"><ele>947.5999999999999</ele><time>2026-04-25T08:51:06.998Z</time></trkpt><trkpt lat="44.977233043688564" lon="5.577588706899718"><ele>943.4</ele><time>2026-04-25T08:51:07.998Z</time></trkpt><trkpt lat="44.9773152365371" lon="5.5774995165072685"><ele>939.2</ele><time>2026-04-25T08:51:08.998Z</time></trkpt><trkpt lat="44.977379886366954" lon="5.577416415842034"><ele>935.0</ele><time>2026-04-25T08:51:09.998Z</time></trkpt><trkpt lat="44.97741852372572" lon="5.577316846508134"><ele>935.0</ele><time>2026-04-25T08:51:10.998Z</time></trkpt><trkpt lat="44.97741952603997" lon="5.577183684321365"><ele>935.0</ele><time>2026-04-25T08:51:12Z</time></trkpt><trkpt lat="44.97736927955867" lon="5.5770639183410715"><ele>935.0</ele><time>2026-04-25T08:51:13Z</time></trkpt><trkpt lat="44.977271165123256" lon="5.576976273983988"><ele>935.0</ele><time>2026-04-25T08:51:14Z</time></trkpt><trkpt lat="44.9771474937594" lon="5.576938448362593"><ele>935.0</ele><time>2026-04-25T08:51:15Z</time></trkpt><trkpt lat="44.97699884717924" lon="5.576936937836657"><ele>939.0</ele><time>2026-04-25T08:51:16Z</time></trkpt><trkpt lat="44.97682960664879" lon="5.576927457417458"><ele>943.0</ele><time>2026-04-25T08:51:17Z</time></trkpt><trkpt lat="44.976660012274465" lon="5.576905072895114"><ele>947.0</ele><time>2026-04-25T08:51:18Z</time></trkpt><trkpt lat="44.97649568396675" lon="5.576872132148651"><ele>947.0</ele><time>2026-04-25T08:51:19Z</time></trkpt><trkpt lat="44.976329072378796" lon="5.576838996056788"><ele>947.0</ele><time>2026-04-25T08:51:20Z</time></trkpt><trkpt lat="44.976179469783915" lon="5.5767428218165405"><ele>947.0</ele><time>2026-04-25T08:51:21Z</time></trkpt><trkpt lat="44.97602391115746" lon="5.576654653619058"><ele>947.0</ele><time>2026-04-25T08:51:22Z</time></trkpt><trkpt lat="44.97588127912289" lon="5.576539838939703"><ele>947.0</ele><time>2026-04-25T08:51:23Z</time></trkpt><trkpt lat="44.975745999327394" lon="5.57643695776422"><ele>947.0</ele><time>2026-04-25T08:51:24Z</time></trkpt><trkpt lat="44.97561839761674" lon="5.576359772052437"><ele>940.75</ele><time>2026-04-25T08:51:25Z</time></trkpt><trkpt lat="44.97550677743182" lon="5.576278876530968"><ele>934.5</ele><time>2026-04-25T08:51:26Z</time></trkpt><trkpt lat="44.975385140651476" lon="5.57623579092601"><ele>928.25</ele><time>2026-04-25T08:51:27Z</time></trkpt><trkpt lat="44.97527026624877" lon="5.576220726408492"><ele>922.0</ele><time>2026-04-25T08:51:28Z</time></trkpt><trkpt lat="44.97516392152348" lon="5.576214322999238"><ele>922.0</ele><time>2026-04-25T08:51:29Z</time></trkpt><trkpt lat="44.97506802628181" lon="5.5762092053630985"><ele>922.0</ele><time>2026-04-25T08:51:30Z</time></trkpt><trkpt lat="44.97498479159762" lon="5.576207077056673"><ele>922.0</ele><time>2026-04-25T08:51:31Z</time></trkpt><trkpt lat="44.97490388302415" lon="5.576213936664298"><ele>922.0</ele><time>2026-04-25T08:51:32Z</time></trkpt><trkpt lat="44.9747842017118" lon="5.576183372400582"><ele>922.0</ele><time>2026-04-25T08:51:34Z</time></trkpt><trkpt lat="44.97477864029417" lon="5.576008056103136"><ele>919.2</ele><time>2026-04-25T08:51:36Z</time></trkpt><trkpt lat="44.974826137427655" lon="5.5759115558616825"><ele>916.4000000000001</ele><time>2026-04-25T08:51:37Z</time></trkpt><trkpt lat="44.97486707568684" lon="5.57579334801568"><ele>913.5999999999999</ele><time>2026-04-25T08:51:38Z</time></trkpt><trkpt lat="44.97490830755233" lon="5.575662126729578"><ele>910.8</ele><time>2026-04-25T08:51:39Z</time></trkpt><trkpt lat="44.97496029630718" lon="5.575525185495871"><ele>908.0</ele><time>2026-04-25T08:51:40Z</time></trkpt><trkpt lat="44.97500629785359" lon="5.575367640689944"><ele>910.5</ele><time>2026-04-25T08:51:41Z</time></trkpt><trkpt lat="44.97505711266469" lon="5.575202076536207"><ele>913.0</ele><time>2026-04-25T08:51:42Z</time></trkpt><trkpt lat="44.975112173499205" lon="5.57504505817384"><ele>915.5</ele><time>2026-04-25T08:51:43Z</time></trkpt><trkpt lat="44.97518756711027" lon="5.574893563604189"><ele>918.0</ele><time>2026-04-25T08:51:44Z</time></trkpt><trkpt lat="44.97527168981594" lon="5.5747654501018316"><ele>918.0</ele><time>2026-04-25T08:51:45Z</time></trkpt><trkpt lat="44.97534486314145" lon="5.574642070195903"><ele>918.0</ele><time>2026-04-25T08:51:46Z</time></trkpt><trkpt lat="44.97537928641745" lon="5.574506271558501"><ele>918.0</ele><time>2026-04-25T08:51:47Z</time></trkpt><trkpt lat="44.9753641809397" lon="5.574366356177748"><ele>918.0</ele><time>2026-04-25T08:51:48Z</time></trkpt><trkpt lat="44.97531104612888" lon="5.574243784561309"><ele>918.0</ele><time>2026-04-25T08:51:49Z</time></trkpt><trkpt lat="44.97522484368431" lon="5.574161895107449"><ele>917.0</ele><time>2026-04-25T08:51:50Z</time></trkpt><trkpt lat="44.97510661613831" lon="5.574127891081806"><ele>916.0</ele><time>2026-04-25T08:51:51Z</time></trkpt><trkpt lat="44.97495306828972" lon="5.574131225556917"><ele>915.0</ele><time>2026-04-25T08:51:52Z</time></trkpt><trkpt lat="44.974794443325585" lon="5.5741167716592805"><ele>914.0</ele><time>2026-04-25T08:51:53Z</time></trkpt><trkpt lat="44.97469619404981" lon="5.5741224975318495"><ele>912.0</ele><time>2026-04-25T08:51:54Z</time></trkpt><trkpt lat="44.97451967334337" lon="5.574044929826037"><ele>910.0</ele><time>2026-04-25T08:51:55Z</time></trkpt><trkpt lat="44.97435720162094" lon="5.573944477352892"><ele>908.0</ele><time>2026-04-25T08:51:55.999Z</time></trkpt><trkpt lat="44.97422864435537" lon="5.573774474080615"><ele>907.5</ele><time>2026-04-25T08:51:56.999Z</time></trkpt><trkpt lat="44.9741309460739" lon="5.573589602138133"><ele>907.0</ele><time>2026-04-25T08:51:57.999Z</time></trkpt><trkpt lat="44.974086965112356" lon="5.573407752484812"><ele>906.5</ele><time>2026-04-25T08:51:58.999Z</time></trkpt><trkpt lat="44.97408334991133" lon="5.573230890195564"><ele>906.0</ele><time>2026-04-25T08:51:59.999Z</time></trkpt><trkpt lat="44.97414464389783" lon="5.573099834026757"><ele>908.0</ele><time>2026-04-25T08:52:00.999Z</time></trkpt><trkpt lat="44.97423532476238" lon="5.572982276881433"><ele>910.0</ele><time>2026-04-25T08:52:01.999Z</time></trkpt><trkpt lat="44.97437488868284" lon="5.572842788923722"><ele>912.0</ele><time>2026-04-25T08:52:02.999Z</time></trkpt><trkpt lat="44.974545041399985" lon="5.572712802924993"><ele>912.0</ele><time>2026-04-25T08:52:03.999Z</time></trkpt><trkpt lat="44.9747095079057" lon="5.572585260205891"><ele>912.0</ele><time>2026-04-25T08:52:04.999Z</time></trkpt><trkpt lat="44.97485666502958" lon="5.572467098089478"><ele>912.0</ele><time>2026-04-25T08:52:05.999Z</time></trkpt><trkpt lat="44.97497263622273" lon="5.572342193776698"><ele>912.4000000000001</ele><time>2026-04-25T08:52:06.999Z</time></trkpt><trkpt lat="44.97507244657714" lon="5.572252445982391"><ele>912.8000000000001</ele><time>2026-04-25T08:52:07.999Z</time></trkpt><trkpt lat="44.975105947087044" lon="5.572099393241573"><ele>913.2</ele><time>2026-04-25T08:52:08.999Z</time></trkpt><trkpt lat="44.975095689212125" lon="5.571953560923139"><ele>913.6</ele><time>2026-04-25T08:52:09.999Z</time></trkpt><trkpt lat="44.97505334237976" lon="5.571837168357516"><ele>914.0</ele><time>2026-04-25T08:52:10.999Z</time></trkpt><trkpt lat="44.97494363503933" lon="5.571752308693552"><ele>914.0</ele><time>2026-04-25T08:52:11.999Z</time></trkpt><trkpt lat="44.97479463292721" lon="5.571761681056486"><ele>914.0</ele><time>2026-04-25T08:52:12.999Z</time></trkpt><trkpt lat="44.97464236502879" lon="5.571802709188202"><ele>914.0</ele><time>2026-04-25T08:52:13.999Z</time></trkpt><trkpt lat="44.974472452204324" lon="5.571847904814347"><ele>914.0</ele><time>2026-04-25T08:52:14.999Z</time></trkpt><trkpt lat="44.97430120796035" lon="5.571897613570428"><ele>914.0000000000001</ele><time>2026-04-25T08:52:15.999Z</time></trkpt><trkpt lat="44.97418673447626" lon="5.571904911256498"><ele>914.0000000000001</ele><time>2026-04-25T08:52:16.999Z</time></trkpt><trkpt lat="44.9741158232842" lon="5.57186459419875"><ele>914.0</ele><time>2026-04-25T08:52:17.999Z</time></trkpt><trkpt lat="44.97406573592736" lon="5.571770687028853"><ele>914.0</ele><time>2026-04-25T08:52:18.999Z</time></trkpt><trkpt lat="44.97405152775639" lon="5.571648620396059"><ele>914.4000000000001</ele><time>2026-04-25T08:52:19.999Z</time></trkpt><trkpt lat="44.97400507337895" lon="5.571529864719326"><ele>914.8000000000001</ele><time>2026-04-25T08:52:20.999Z</time></trkpt><trkpt lat="44.97398513147257" lon="5.571380184182924"><ele>915.1999999999999</ele><time>2026-04-25T08:52:21.999Z</time></trkpt><trkpt lat="44.97395812167844" lon="5.5712344652303445"><ele>915.5999999999999</ele><time>2026-04-25T08:52:22.999Z</time></trkpt><trkpt lat="44.97391644711599" lon="5.571095228009838"><ele>916.0</ele><time>2026-04-25T08:52:23.999Z</time></trkpt><trkpt lat="44.97388440245776" lon="5.570949446277378"><ele>916.0</ele><time>2026-04-25T08:52:24.999Z</time></trkpt><trkpt lat="44.97386653272964" lon="5.570797009020509"><ele>915.9999999999999</ele><time>2026-04-25T08:52:25.999Z</time></trkpt><trkpt lat="44.97385683272663" lon="5.570650361342843"><ele>915.9999999999999</ele><time>2026-04-25T08:52:26.999Z</time></trkpt><trkpt lat="44.97384672760171" lon="5.570494762695003"><ele>916.0</ele><time>2026-04-25T08:52:27.999Z</time></trkpt><trkpt lat="44.97382901609236" lon="5.570349866469505"><ele>916.0</ele><time>2026-04-25T08:52:28.999Z</time></trkpt><trkpt lat="44.9737945269139" lon="5.57020943855703"><ele>918.0</ele><time>2026-04-25T08:52:29.999Z</time></trkpt><trkpt lat="44.97374486176351" lon="5.570069871064354"><ele>919.9999999999999</ele><time>2026-04-25T08:52:30.999Z</time></trkpt><trkpt lat="44.973674229158306" lon="5.569948494349279"><ele>921.9999999999999</ele><time>2026-04-25T08:52:31.999Z</time></trkpt><trkpt lat="44.9735990422502" lon="5.569838828096485"><ele>924.0</ele><time>2026-04-25T08:52:32.999Z</time></trkpt><trkpt lat="44.973515439554276" lon="5.569744181063739"><ele>926.0</ele><time>2026-04-25T08:52:33.999Z</time></trkpt><trkpt lat="44.9734129150983" lon="5.569674334230532"><ele>924.0</ele><time>2026-04-25T08:52:34.999Z</time></trkpt><trkpt lat="44.973292601943385" lon="5.56966496757832"><ele>922.0</ele><time>2026-04-25T08:52:35.999Z</time></trkpt><trkpt lat="44.9731612458602" lon="5.569694955574003"><ele>920.0</ele><time>2026-04-25T08:52:36.999Z</time></trkpt><trkpt lat="44.973020079929995" lon="5.5697264488427045"><ele>918.0</ele><time>2026-04-25T08:52:37.999Z</time></trkpt><trkpt lat="44.972905276510545" lon="5.5697637709688514"><ele>918.0</ele><time>2026-04-25T08:52:38.999Z</time></trkpt><trkpt lat="44.97280675513977" lon="5.5697926616872895"><ele>918.0</ele><time>2026-04-25T08:52:39.999Z</time></trkpt><trkpt lat="44.97271885770654" lon="5.569807138212083"><ele>918.0</ele><time>2026-04-25T08:52:40.999Z</time></trkpt><trkpt lat="44.972630127289854" lon="5.5697940234120855"><ele>918.0</ele><time>2026-04-25T08:52:41.999Z</time></trkpt><trkpt lat="44.972560581740254" lon="5.569658864416141"><ele>918.0</ele><time>2026-04-25T08:52:42.999Z</time></trkpt><trkpt lat="44.97258015970825" lon="5.569472689222617"><ele>921.5</ele><time>2026-04-25T08:52:43.999Z</time></trkpt><trkpt lat="44.97259366021378" lon="5.569284054795552"><ele>925.0</ele><time>2026-04-25T08:52:44.999Z</time></trkpt><trkpt lat="44.972588128113756" lon="5.569082272688193"><ele>928.5</ele><time>2026-04-25T08:52:45.999Z</time></trkpt><trkpt lat="44.97259641090699" lon="5.568882953834963"><ele>932.0</ele><time>2026-04-25T08:52:46.999Z</time></trkpt><trkpt lat="44.972642440351315" lon="5.568713870462141"><ele>931.75</ele><time>2026-04-25T08:52:47.999Z</time></trkpt><trkpt lat="44.972734738605546" lon="5.568591396344166"><ele>931.5</ele><time>2026-04-25T08:52:48.999Z</time></trkpt><trkpt lat="44.97287520822945" lon="5.56853462992061"><ele>931.25</ele><time>2026-04-25T08:52:49.999Z</time></trkpt><trkpt lat="44.97303402173574" lon="5.568460061023459"><ele>931.0</ele><time>2026-04-25T08:52:50.999Z</time></trkpt><trkpt lat="44.973175286415895" lon="5.568383422256125"><ele>931.0</ele><time>2026-04-25T08:52:51.998Z</time></trkpt><trkpt lat="44.97332425139024" lon="5.568311270948112"><ele>931.0</ele><time>2026-04-25T08:52:52.998Z</time></trkpt><trkpt lat="44.973492596267825" lon="5.568217421839742"><ele>931.0</ele><time>2026-04-25T08:52:53.998Z</time></trkpt><trkpt lat="44.97364819311331" lon="5.56809769609168"><ele>935.25</ele><time>2026-04-25T08:52:54.998Z</time></trkpt><trkpt lat="44.973778281965735" lon="5.567951277542954"><ele>939.5</ele><time>2026-04-25T08:52:55.998Z</time></trkpt><trkpt lat="44.97388693119254" lon="5.5678235377777545"><ele>943.75</ele><time>2026-04-25T08:52:56.998Z</time></trkpt><trkpt lat="44.97396969840705" lon="5.567666304506399"><ele>948.0</ele><time>2026-04-25T08:52:57.998Z</time></trkpt><trkpt lat="44.974025085325756" lon="5.567468212864009"><ele>948.0</ele><time>2026-04-25T08:52:58.998Z</time></trkpt><trkpt lat="44.974063422782834" lon="5.567277940893149"><ele>948.0</ele><time>2026-04-25T08:52:59.998Z</time></trkpt><trkpt lat="44.97410355259327" lon="5.567110774455123"><ele>948.0</ele><time>2026-04-25T08:53:00.998Z</time></trkpt><trkpt lat="44.974121466932814" lon="5.5669821615349315"><ele>948.0</ele><time>2026-04-25T08:53:01.998Z</time></trkpt><trkpt lat="44.974087727862965" lon="5.5668551105015895"><ele>950.0</ele><time>2026-04-25T08:53:02.998Z</time></trkpt><trkpt lat="44.97400305854272" lon="5.566773168446658"><ele>952.0</ele><time>2026-04-25T08:53:03.998Z</time></trkpt><trkpt lat="44.97387880923112" lon="5.566757034357556"><ele>954.0</ele><time>2026-04-25T08:53:04.998Z</time></trkpt><trkpt lat="44.97375592669185" lon="5.566836223432371"><ele>956.0</ele><time>2026-04-25T08:53:05.998Z</time></trkpt><trkpt lat="44.973634181458415" lon="5.566974157441943"><ele>953.3333333333334</ele><time>2026-04-25T08:53:06.998Z</time></trkpt><trkpt lat="44.97348904731632" lon="5.567154863409466"><ele>950.6666666666667</ele><time>2026-04-25T08:53:07.998Z</time></trkpt><trkpt lat="44.97334475372713" lon="5.56728864519303"><ele>948.0</ele><time>2026-04-25T08:53:08.998Z</time></trkpt><trkpt lat="44.97321986398329" lon="5.567364395474468"><ele>942.3333333333333</ele><time>2026-04-25T08:53:09.998Z</time></trkpt><trkpt lat="44.973076976812706" lon="5.567344248440516"><ele>936.6666666666666</ele><time>2026-04-25T08:53:10.998Z</time></trkpt><trkpt lat="44.972889962653554" lon="5.567292071702827"><ele>931.0</ele><time>2026-04-25T08:53:11.998Z</time></trkpt><trkpt lat="44.972655831676676" lon="5.56729104686424"><ele>930.6666666666666</ele><time>2026-04-25T08:53:12.998Z</time></trkpt><trkpt lat="44.97242252836088" lon="5.567298562085437"><ele>930.3333333333333</ele><time>2026-04-25T08:53:13.998Z</time></trkpt><trkpt lat="44.97222865966086" lon="5.567240435290336"><ele>930.0</ele><time>2026-04-25T08:53:14.998Z</time></trkpt><trkpt lat="44.97206767774929" lon="5.567164723185847"><ele>930.0</ele><time>2026-04-25T08:53:15.998Z</time></trkpt><trkpt lat="44.97194418276138" lon="5.567055052059187"><ele>930.0</ele><time>2026-04-25T08:53:16.998Z</time></trkpt><trkpt lat="44.97185622636548" lon="5.566878581109263"><ele>930.0</ele><time>2026-04-25T08:53:18Z</time></trkpt><trkpt lat="44.97173440857086" lon="5.56665970395382"><ele>933.0</ele><time>2026-04-25T08:53:19Z</time></trkpt><trkpt lat="44.971589902466796" lon="5.566440909188441"><ele>936.0</ele><time>2026-04-25T08:53:20Z</time></trkpt><trkpt lat="44.97150467189609" lon="5.566184773959445"><ele>939.0</ele><time>2026-04-25T08:53:21Z</time></trkpt><trkpt lat="44.97141043783159" lon="5.565955300703679"><ele>946.0</ele><time>2026-04-25T08:53:22Z</time></trkpt><trkpt lat="44.971353545950976" lon="5.565706699327744"><ele>953.0</ele><time>2026-04-25T08:53:23Z</time></trkpt><trkpt lat="44.97116419729621" lon="5.565582931979916"><ele>960.0</ele><time>2026-04-25T08:53:24Z</time></trkpt><trkpt lat="44.97100107000174" lon="5.565451333708093"><ele>956.0</ele><time>2026-04-25T08:53:25Z</time></trkpt><trkpt lat="44.97082594959154" lon="5.5653488419853865"><ele>952.0</ele><time>2026-04-25T08:53:26Z</time></trkpt><trkpt lat="44.97066849318321" lon="5.565270135704026"><ele>948.0</ele><time>2026-04-25T08:53:27Z</time></trkpt><trkpt lat="44.970555628962714" lon="5.565137535360184"><ele>948.0</ele><time>2026-04-25T08:53:28Z</time></trkpt><trkpt lat="44.970479126670305" lon="5.564999148272432"><ele>948.0</ele><time>2026-04-25T08:53:29Z</time></trkpt><trkpt lat="44.9704596012935" lon="5.564826864355711"><ele>948.0</ele><time>2026-04-25T08:53:30Z</time></trkpt><trkpt lat="44.97048324598262" lon="5.564640470784666"><ele>948.0</ele><time>2026-04-25T08:53:31Z</time></trkpt><trkpt lat="44.97049371964307" lon="5.564423759860668"><ele>947.3333333333333</ele><time>2026-04-25T08:53:32Z</time></trkpt><trkpt lat="44.97053466946663" lon="5.5642069915439585"><ele>946.6666666666666</ele><time>2026-04-25T08:53:33Z</time></trkpt><trkpt lat="44.97056816108792" lon="5.56398388358213"><ele>946.0</ele><time>2026-04-25T08:53:34Z</time></trkpt><trkpt lat="44.970601927186834" lon="5.56376739973749"><ele>943.6666666666666</ele><time>2026-04-25T08:53:35Z</time></trkpt><trkpt lat="44.97064367795673" lon="5.563547228507411"><ele>941.3333333333333</ele><time>2026-04-25T08:53:36Z</time></trkpt><trkpt lat="44.97071821189827" lon="5.563346963676387"><ele>939.0</ele><time>2026-04-25T08:53:37Z</time></trkpt><trkpt lat="44.97082909956056" lon="5.563181074913947"><ele>937.0</ele><time>2026-04-25T08:53:38Z</time></trkpt><trkpt lat="44.970958609753914" lon="5.563037604530342"><ele>935.0</ele><time>2026-04-25T08:53:39Z</time></trkpt><trkpt lat="44.9711129111506" lon="5.562934494056178"><ele>933.0</ele><time>2026-04-25T08:53:40Z</time></trkpt><trkpt lat="44.97127761330607" lon="5.562845969662748"><ele>933.0</ele><time>2026-04-25T08:53:41Z</time></trkpt><trkpt lat="44.971443620309266" lon="5.5627436145140425"><ele>933.0</ele><time>2026-04-25T08:53:42Z</time></trkpt><trkpt lat="44.971614108846865" lon="5.5626662292034865"><ele>933.0</ele><time>2026-04-25T08:53:43Z</time></trkpt><trkpt lat="44.97177883946715" lon="5.562580783437416"><ele>937.0</ele><time>2026-04-25T08:53:44Z</time></trkpt><trkpt lat="44.97193822513966" lon="5.562490646982464"><ele>941.0</ele><time>2026-04-25T08:53:45Z</time></trkpt><trkpt lat="44.97209394574391" lon="5.5624020632717555"><ele>945.0</ele><time>2026-04-25T08:53:46Z</time></trkpt><trkpt lat="44.97225296356384" lon="5.56232171828924"><ele>945.0</ele><time>2026-04-25T08:53:47Z</time></trkpt><trkpt lat="44.97240980923459" lon="5.562236119545756"><ele>945.0</ele><time>2026-04-25T08:53:48Z</time></trkpt><trkpt lat="44.97256364063798" lon="5.56213026095801"><ele>945.0</ele><time>2026-04-25T08:53:49Z</time></trkpt><trkpt lat="44.97272471916137" lon="5.562006188578675"><ele>946.3333333333333</ele><time>2026-04-25T08:53:50Z</time></trkpt><trkpt lat="44.97287805135613" lon="5.561885305859578"><ele>947.6666666666666</ele><time>2026-04-25T08:53:51Z</time></trkpt><trkpt lat="44.973011267248566" lon="5.56177170325908"><ele>949.0</ele><time>2026-04-25T08:53:52Z</time></trkpt><trkpt lat="44.97312730417769" lon="5.561639818312435"><ele>949.0</ele><time>2026-04-25T08:53:53Z</time></trkpt><trkpt lat="44.97321628601559" lon="5.561471827891048"><ele>949.0</ele><time>2026-04-25T08:53:54Z</time></trkpt><trkpt lat="44.97327460064547" lon="5.561268097401632"><ele>949.0</ele><time>2026-04-25T08:53:55Z</time></trkpt><trkpt lat="44.973290362410395" lon="5.561068313547369"><ele>949.0</ele><time>2026-04-25T08:53:56Z</time></trkpt><trkpt lat="44.97326929196563" lon="5.560886447017349"><ele>948.5</ele><time>2026-04-25T08:53:57Z</time></trkpt><trkpt lat="44.973202349405675" lon="5.560739771386306"><ele>948.0</ele><time>2026-04-25T08:53:58Z</time></trkpt><trkpt lat="44.97312360730059" lon="5.560641140902445"><ele>947.5</ele><time>2026-04-25T08:53:59Z</time></trkpt><trkpt lat="44.97298619714947" lon="5.560642626142696"><ele>947.0</ele><time>2026-04-25T08:53:59.999Z</time></trkpt><trkpt lat="44.97285182795401" lon="5.560699545211251"><ele>947.0</ele><time>2026-04-25T08:54:00.999Z</time></trkpt><trkpt lat="44.97271385539304" lon="5.5607744611379095"><ele>947.0</ele><time>2026-04-25T08:54:01.999Z</time></trkpt><trkpt lat="44.972570010163054" lon="5.560807133019735"><ele>947.0</ele><time>2026-04-25T08:54:02.999Z</time></trkpt><trkpt lat="44.97243444244595" lon="5.560844032977396"><ele>947.0</ele><time>2026-04-25T08:54:03.999Z</time></trkpt><trkpt lat="44.97230405147581" lon="5.5608396383194085"><ele>945.75</ele><time>2026-04-25T08:54:04.999Z</time></trkpt><trkpt lat="44.97219982407578" lon="5.560756687134126"><ele>944.5</ele><time>2026-04-25T08:54:05.999Z</time></trkpt><trkpt lat="44.97210077115471" lon="5.560617814426871"><ele>943.25</ele><time>2026-04-25T08:54:06.999Z</time></trkpt><trkpt lat="44.97203547008305" lon="5.56042055050689"><ele>942.0</ele><time>2026-04-25T08:54:07.999Z</time></trkpt><trkpt lat="44.971915451549236" lon="5.560221575962892"><ele>949.0</ele><time>2026-04-25T08:54:08.999Z</time></trkpt><trkpt lat="44.97196886947686" lon="5.559967002224411"><ele>956.0</ele><time>2026-04-25T08:54:09.999Z</time></trkpt><trkpt lat="44.97191575733033" lon="5.559753626675116"><ele>963.0</ele><time>2026-04-25T08:54:10.999Z</time></trkpt><trkpt lat="44.97179271095525" lon="5.559595950668727"><ele>962.3333333333333</ele><time>2026-04-25T08:54:11.999Z</time></trkpt><trkpt lat="44.971626907346035" lon="5.559496792119221"><ele>961.6666666666666</ele><time>2026-04-25T08:54:12.999Z</time></trkpt><trkpt lat="44.97144425863514" lon="5.559452585911064"><ele>961.0</ele><time>2026-04-25T08:54:13.999Z</time></trkpt><trkpt lat="44.97127567552031" lon="5.559446755408719"><ele>961.0</ele><time>2026-04-25T08:54:14.999Z</time></trkpt><trkpt lat="44.9711447828221" lon="5.559385326910341"><ele>961.0</ele><time>2026-04-25T08:54:15.999Z</time></trkpt><trkpt lat="44.971060217217264" lon="5.559300738610233"><ele>961.0</ele><time>2026-04-25T08:54:16.999Z</time></trkpt><trkpt lat="44.9710139043037" lon="5.5591698652486565"><ele>961.0</ele><time>2026-04-25T08:54:17.999Z</time></trkpt><trkpt lat="44.97098667826106" lon="5.559004684602196"><ele>961.0</ele><time>2026-04-25T08:54:18.999Z</time></trkpt><trkpt lat="44.97094701226737" lon="5.558816232687769"><ele>961.0</ele><time>2026-04-25T08:54:19.999Z</time></trkpt><trkpt lat="44.97094237989943" lon="5.558630821238232"><ele>961.0</ele><time>2026-04-25T08:54:20.999Z</time></trkpt><trkpt lat="44.970926536205944" lon="5.558452518017334"><ele>961.0</ele><time>2026-04-25T08:54:21.999Z</time></trkpt><trkpt lat="44.970859243290995" lon="5.55829754049296"><ele>960.0</ele><time>2026-04-25T08:54:22.999Z</time></trkpt><trkpt lat="44.97072229936635" lon="5.5581821878160875"><ele>959.0</ele><time>2026-04-25T08:54:23.999Z</time></trkpt><trkpt lat="44.970558580450955" lon="5.558108876516499"><ele>958.0</ele><time>2026-04-25T08:54:24.999Z</time></trkpt><trkpt lat="44.97041843926875" lon="5.557989641521686"><ele>962.3333333333333</ele><time>2026-04-25T08:54:25.999Z</time></trkpt><trkpt lat="44.97031385783778" lon="5.557830887075456"><ele>966.6666666666667</ele><time>2026-04-25T08:54:26.999Z</time></trkpt><trkpt lat="44.97024280006775" lon="5.5576439960918735"><ele>971.0</ele><time>2026-04-25T08:54:27.999Z</time></trkpt><trkpt lat="44.970217652182185" lon="5.5574242454173675"><ele>971.0</ele><time>2026-04-25T08:54:28.999Z</time></trkpt><trkpt lat="44.97020272342976" lon="5.557178280934827"><ele>971.0</ele><time>2026-04-25T08:54:29.999Z</time></trkpt><trkpt lat="44.97016403262907" lon="5.556933831324831"><ele>971.0</ele><time>2026-04-25T08:54:30.999Z</time></trkpt><trkpt lat="44.970116812021836" lon="5.55668754860335"><ele>974.0</ele><time>2026-04-25T08:54:31.999Z</time></trkpt><trkpt lat="44.97008000809019" lon="5.55644396663703"><ele>977.0</ele><time>2026-04-25T08:54:32.999Z</time></trkpt><trkpt lat="44.97006439574864" lon="5.556216189061243"><ele>980.0</ele><time>2026-04-25T08:54:33.999Z</time></trkpt><trkpt lat="44.97005420229871" lon="5.556008335075773"><ele>981.25</ele><time>2026-04-25T08:54:34.999Z</time></trkpt><trkpt lat="44.970026215523056" lon="5.5558155850381565"><ele>982.5</ele><time>2026-04-25T08:54:35.999Z</time></trkpt><trkpt lat="44.96995610560677" lon="5.555635557651558"><ele>983.75</ele><time>2026-04-25T08:54:36.999Z</time></trkpt><trkpt lat="44.96984840269706" lon="5.5554852670834896"><ele>985.0</ele><time>2026-04-25T08:54:37.999Z</time></trkpt><trkpt lat="44.96972881375665" lon="5.555383200704535"><ele>981.1666666666666</ele><time>2026-04-25T08:54:38.999Z</time></trkpt><trkpt lat="44.969623160814805" lon="5.555315719698807"><ele>977.3333333333333</ele><time>2026-04-25T08:54:39.999Z</time></trkpt><trkpt lat="44.96952663513633" lon="5.555283810048209"><ele>973.5</ele><time>2026-04-25T08:54:40.999Z</time></trkpt><trkpt lat="44.96944891979045" lon="5.555272065825756"><ele>969.6666666666667</ele><time>2026-04-25T08:54:41.999Z</time></trkpt><trkpt lat="44.96938981721982" lon="5.555233086446748"><ele>965.8333333333334</ele><time>2026-04-25T08:54:42.999Z</time></trkpt><trkpt lat="44.96934507441653" lon="5.55513804611706"><ele>962.0</ele><time>2026-04-25T08:54:43.999Z</time></trkpt><trkpt lat="44.96931828086976" lon="5.555030316252974"><ele>962.0</ele><time>2026-04-25T08:54:44.999Z</time></trkpt><trkpt lat="44.96926032716615" lon="5.5549723619564135"><ele>962.0</ele><time>2026-04-25T08:54:45.999Z</time></trkpt><trkpt lat="44.969170919385235" lon="5.554979140897533"><ele>962.0</ele><time>2026-04-25T08:54:46.999Z</time></trkpt><trkpt lat="44.9690566851179" lon="5.555036232656982"><ele>962.0</ele><time>2026-04-25T08:54:47.999Z</time></trkpt><trkpt lat="44.96893388457184" lon="5.555048478934336"><ele>962.0</ele><time>2026-04-25T08:54:48.999Z</time></trkpt><trkpt lat="44.96881271260512" lon="5.555069087016773"><ele>962.0</ele><time>2026-04-25T08:54:49.999Z</time></trkpt><trkpt lat="44.96869179992893" lon="5.555049470569991"><ele>962.0</ele><time>2026-04-25T08:54:50.999Z</time></trkpt><trkpt lat="44.96856798574052" lon="5.555020566413687"><ele>962.0</ele><time>2026-04-25T08:54:51.999Z</time></trkpt><trkpt lat="44.968445734339895" lon="5.554990282419386"><ele>962.0</ele><time>2026-04-25T08:54:52.999Z</time></trkpt><trkpt lat="44.968310151120214" lon="5.554968247593177"><ele>962.0</ele><time>2026-04-25T08:54:53.999Z</time></trkpt><trkpt lat="44.96814686822741" lon="5.5549785393217155"><ele>962.0</ele><time>2026-04-25T08:54:54.999Z</time></trkpt><trkpt lat="44.96797155711751" lon="5.554952894335881"><ele>962.0</ele><time>2026-04-25T08:54:55.998Z</time></trkpt><trkpt lat="44.96778663595" lon="5.55494610425136"><ele>962.0</ele><time>2026-04-25T08:54:56.998Z</time></trkpt><trkpt lat="44.96759384190322" lon="5.554956789783278"><ele>962.0</ele><time>2026-04-25T08:54:57.998Z</time></trkpt><trkpt lat="44.9673992326025" lon="5.5550473522087085"><ele>962.0</ele><time>2026-04-25T08:54:58.998Z</time></trkpt><trkpt lat="44.967212583512314" lon="5.555133335583662"><ele>963.75</ele><time>2026-04-25T08:54:59.998Z</time></trkpt><trkpt lat="44.9670551089257" lon="5.555193047364241"><ele>965.5</ele><time>2026-04-25T08:55:00.998Z</time></trkpt><trkpt lat="44.96691373117221" lon="5.555242401609209"><ele>967.25</ele><time>2026-04-25T08:55:01.998Z</time></trkpt><trkpt lat="44.96678971675554" lon="5.555309391495392"><ele>969.0</ele><time>2026-04-25T08:55:02.998Z</time></trkpt><trkpt lat="44.96668648620314" lon="5.555430371952211"><ele>970.25</ele><time>2026-04-25T08:55:03.998Z</time></trkpt><trkpt lat="44.96661773402824" lon="5.555592750091011"><ele>971.5</ele><time>2026-04-25T08:55:04.998Z</time></trkpt><trkpt lat="44.966588295093025" lon="5.555766518069879"><ele>972.75</ele><time>2026-04-25T08:55:05.998Z</time></trkpt><trkpt lat="44.96659005554801" lon="5.555952867970241"><ele>974.0</ele><time>2026-04-25T08:55:06.998Z</time></trkpt><trkpt lat="44.966652453010504" lon="5.556105628543007"><ele>974.6666666666667</ele><time>2026-04-25T08:55:07.998Z</time></trkpt><trkpt lat="44.9666765821999" lon="5.556229016913009"><ele>975.3333333333334</ele><time>2026-04-25T08:55:08.998Z</time></trkpt><trkpt lat="44.96669354758815" lon="5.5563397367436345"><ele>976.0</ele><time>2026-04-25T08:55:09.998Z</time></trkpt><trkpt lat="44.96669391889026" lon="5.556430340924063"><ele>976.6666666666667</ele><time>2026-04-25T08:55:10.998Z</time></trkpt><trkpt lat="44.96662169420925" lon="5.556485933142972"><ele>977.3333333333334</ele><time>2026-04-25T08:55:11.998Z</time></trkpt><trkpt lat="44.96653307327755" lon="5.556458221343948"><ele>978.0</ele><time>2026-04-25T08:55:12.998Z</time></trkpt><trkpt lat="44.966461410290336" lon="5.556348698499055"><ele>977.0</ele><time>2026-04-25T08:55:13.998Z</time></trkpt><trkpt lat="44.96641739808461" lon="5.556172232961073"><ele>976.0</ele><time>2026-04-25T08:55:14.998Z</time></trkpt><trkpt lat="44.9663010233109" lon="5.5560633080009305"><ele>975.0</ele><time>2026-04-25T08:55:15.998Z</time></trkpt><trkpt lat="44.966164345953246" lon="5.555953159404179"><ele>974.0</ele><time>2026-04-25T08:55:16.998Z</time></trkpt><trkpt lat="44.966050433180726" lon="5.55581877750429"><ele>974.0</ele><time>2026-04-25T08:55:17.998Z</time></trkpt><trkpt lat="44.96594662475344" lon="5.555672678250508"><ele>974.0</ele><time>2026-04-25T08:55:18.998Z</time></trkpt><trkpt lat="44.96583394718283" lon="5.555489949390131"><ele>974.0</ele><time>2026-04-25T08:55:19.998Z</time></trkpt><trkpt lat="44.96573572082303" lon="5.555304109864999"><ele>976.6666666666667</ele><time>2026-04-25T08:55:20.998Z</time></trkpt><trkpt lat="44.96565166625559" lon="5.555117130947658"><ele>979.3333333333333</ele><time>2026-04-25T08:55:21.998Z</time></trkpt><trkpt lat="44.965560260315485" lon="5.5549452538414705"><ele>982.0</ele><time>2026-04-25T08:55:22.998Z</time></trkpt><trkpt lat="44.965482474777545" lon="5.554776367371161"><ele>982.0</ele><time>2026-04-25T08:55:24Z</time></trkpt><trkpt lat="44.96540609669935" lon="5.554620053120868"><ele>982.0</ele><time>2026-04-25T08:55:25Z</time></trkpt><trkpt lat="44.965339479557436" lon="5.554466600094938"><ele>982.0</ele><time>2026-04-25T08:55:26Z</time></trkpt><trkpt lat="44.965260875419574" lon="5.554343937035842"><ele>982.0</ele><time>2026-04-25T08:55:27Z</time></trkpt><trkpt lat="44.96515678826395" lon="5.55425779912032"><ele>984.6666666666666</ele><time>2026-04-25T08:55:28Z</time></trkpt><trkpt lat="44.96501268094898" lon="5.554224666513063"><ele>987.3333333333333</ele><time>2026-04-25T08:55:29Z</time></trkpt><trkpt lat="44.96483912601156" lon="5.554225988129708"><ele>990.0</ele><time>2026-04-25T08:55:30Z</time></trkpt><trkpt lat="44.96467259372757" lon="5.5542283743366365"><ele>990.0</ele><time>2026-04-25T08:55:31Z</time></trkpt><trkpt lat="44.96451454746713" lon="5.554217658280672"><ele>990.0</ele><time>2026-04-25T08:55:32Z</time></trkpt><trkpt lat="44.964356446294104" lon="5.554218429620392"><ele>990.0</ele><time>2026-04-25T08:55:33Z</time></trkpt><trkpt lat="44.96419701582743" lon="5.554232966511184"><ele>990.3333333333333</ele><time>2026-04-25T08:55:34Z</time></trkpt><trkpt lat="44.96403721607283" lon="5.554258036869189"><ele>990.6666666666666</ele><time>2026-04-25T08:55:35Z</time></trkpt><trkpt lat="44.96387861904198" lon="5.554323823970366"><ele>991.0</ele><time>2026-04-25T08:55:36Z</time></trkpt><trkpt lat="44.963697864747665" lon="5.554375484770362"><ele>991.0</ele><time>2026-04-25T08:55:37Z</time></trkpt><trkpt lat="44.963499943489666" lon="5.554434429527173"><ele>991.0</ele><time>2026-04-25T08:55:38Z</time></trkpt><trkpt lat="44.96328794645964" lon="5.554471649091586"><ele>991.0</ele><time>2026-04-25T08:55:39Z</time></trkpt><trkpt lat="44.963062417991615" lon="5.554473322199138"><ele>994.3333333333333</ele><time>2026-04-25T08:55:40Z</time></trkpt><trkpt lat="44.96284010802872" lon="5.554460198438631"><ele>997.6666666666667</ele><time>2026-04-25T08:55:41Z</time></trkpt><trkpt lat="44.96263228960193" lon="5.554443428285654"><ele>1001.0</ele><time>2026-04-25T08:55:42Z</time></trkpt><trkpt lat="44.96243726204349" lon="5.554415589084073"><ele>1004.3333333333334</ele><time>2026-04-25T08:55:43Z</time></trkpt><trkpt lat="44.96225084230378" lon="5.5543699287419805"><ele>1007.6666666666667</ele><time>2026-04-25T08:55:44Z</time></trkpt><trkpt lat="44.96207313911532" lon="5.5543220249400695"><ele>1011.0</ele><time>2026-04-25T08:55:45Z</time></trkpt><trkpt lat="44.961917394685344" lon="5.55427697193634"><ele>1011.0</ele><time>2026-04-25T08:55:46Z</time></trkpt><trkpt lat="44.96177962741356" lon="5.554235789131384"><ele>1011.0</ele><time>2026-04-25T08:55:47Z</time></trkpt><trkpt lat="44.96166226590588" lon="5.554196861106065"><ele>1011.0</ele><time>2026-04-25T08:55:48Z</time></trkpt><trkpt lat="44.96155538620995" lon="5.554150924364808"><ele>1011.0</ele><time>2026-04-25T08:55:49Z</time></trkpt><trkpt lat="44.96145718693013" lon="5.554092378176303"><ele>1011.8333333333334</ele><time>2026-04-25T08:55:50Z</time></trkpt><trkpt lat="44.96137096546927" lon="5.554036032384776"><ele>1012.6666666666667</ele><time>2026-04-25T08:55:51Z</time></trkpt><trkpt lat="44.96131286051446" lon="5.553938469148333"><ele>1013.5</ele><time>2026-04-25T08:55:52Z</time></trkpt><trkpt lat="44.961269430753724" lon="5.553832216782953"><ele>1014.3333333333334</ele><time>2026-04-25T08:55:53Z</time></trkpt><trkpt lat="44.96124290318923" lon="5.553729689553987"><ele>1015.1666666666667</ele><time>2026-04-25T08:55:54Z</time></trkpt><trkpt lat="44.9612024622101" lon="5.553633700644069"><ele>1016.0</ele><time>2026-04-25T08:55:55Z</time></trkpt><trkpt lat="44.961197043157526" lon="5.553542156086619"><ele>1017.5000000000001</ele><time>2026-04-25T08:55:56Z</time></trkpt><trkpt lat="44.96126554225847" lon="5.5534073676748505"><ele>1019.0</ele><time>2026-04-25T08:55:58Z</time></trkpt><trkpt lat="44.96132042670259" lon="5.553354231887526"><ele>1020.5</ele><time>2026-04-25T08:55:59Z</time></trkpt><trkpt lat="44.96135387224345" lon="5.553258197537656"><ele>1022.0</ele><time>2026-04-25T08:56:00Z</time></trkpt><trkpt lat="44.961380912762806" lon="5.553164409195547"><ele>1023.5000000000001</ele><time>2026-04-25T08:56:01Z</time></trkpt><trkpt lat="44.961393378216016" lon="5.553061122001776"><ele>1025.0</ele><time>2026-04-25T08:56:02Z</time></trkpt><trkpt lat="44.96140186509598" lon="5.552960006964357"><ele>1026.1666666666667</ele><time>2026-04-25T08:56:03Z</time></trkpt><trkpt lat="44.96138280012705" lon="5.552855364795516"><ele>1027.3333333333335</ele><time>2026-04-25T08:56:03.999Z</time></trkpt><trkpt lat="44.96136330767731" lon="5.552748742039265"><ele>1028.5</ele><time>2026-04-25T08:56:04.999Z</time></trkpt><trkpt lat="44.96133449999139" lon="5.552647321755797"><ele>1029.6666666666667</ele><time>2026-04-25T08:56:05.999Z</time></trkpt><trkpt lat="44.96131836198172" lon="5.552539152087719"><ele>1030.8333333333333</ele><time>2026-04-25T08:56:06.999Z</time></trkpt><trkpt lat="44.961266733764674" lon="5.552439460541197"><ele>1032.0</ele><time>2026-04-25T08:56:07.999Z</time></trkpt><trkpt lat="44.96121606054118" lon="5.552326004040364"><ele>1032.0</ele><time>2026-04-25T08:56:08.999Z</time></trkpt><trkpt lat="44.96115814617474" lon="5.552193335039312"><ele>1032.0</ele><time>2026-04-25T08:56:09.999Z</time></trkpt><trkpt lat="44.96105311650263" lon="5.5520885845105745"><ele>1032.0</ele><time>2026-04-25T08:56:10.999Z</time></trkpt><trkpt lat="44.960947480906455" lon="5.5519902037093605"><ele>1032.0</ele><time>2026-04-25T08:56:11.999Z</time></trkpt><trkpt lat="44.96084681416596" lon="5.5518952306979426"><ele>1029.5</ele><time>2026-04-25T08:56:12.999Z</time></trkpt><trkpt lat="44.96073597648221" lon="5.5517878860586425"><ele>1027.0</ele><time>2026-04-25T08:56:13.999Z</time></trkpt><trkpt lat="44.960628513351494" lon="5.551650727535827"><ele>1024.5</ele><time>2026-04-25T08:56:14.999Z</time></trkpt><trkpt lat="44.96052252495496" lon="5.5515196632895645"><ele>1022.0</ele><time>2026-04-25T08:56:15.999Z</time></trkpt><trkpt lat="44.96041074496065" lon="5.5513695092854025"><ele>1022.0</ele><time>2026-04-25T08:56:16.999Z</time></trkpt><trkpt lat="44.96028351212544" lon="5.5512619600535675"><ele>1022.0</ele><time>2026-04-25T08:56:17.999Z</time></trkpt><trkpt lat="44.960136150748134" lon="5.5511921134760875"><ele>1022.0</ele><time>2026-04-25T08:56:18.999Z</time></trkpt><trkpt lat="44.959990286351655" lon="5.551111512514214"><ele>1021.0</ele><time>2026-04-25T08:56:19.999Z</time></trkpt><trkpt lat="44.95983994570764" lon="5.551052829448513"><ele>1020.0</ele><time>2026-04-25T08:56:20.999Z</time></trkpt><trkpt lat="44.95969208953418" lon="5.550989929611119"><ele>1019.0</ele><time>2026-04-25T08:56:21.999Z</time></trkpt><trkpt lat="44.95954998426428" lon="5.550919541747692"><ele>1019.0</ele><time>2026-04-25T08:56:22.999Z</time></trkpt><trkpt lat="44.959406497101284" lon="5.550841731770323"><ele>1019.0</ele><time>2026-04-25T08:56:23.999Z</time></trkpt><trkpt lat="44.959257208025335" lon="5.550778697783531"><ele>1019.0</ele><time>2026-04-25T08:56:24.999Z</time></trkpt><trkpt lat="44.95911635023666" lon="5.550682074226639"><ele>1019.3333333333334</ele><time>2026-04-25T08:56:25.999Z</time></trkpt><trkpt lat="44.958973411304335" lon="5.550571745296179"><ele>1019.6666666666667</ele><time>2026-04-25T08:56:26.999Z</time></trkpt><trkpt lat="44.95883708191678" lon="5.550411224004653"><ele>1020.0</ele><time>2026-04-25T08:56:27.999Z</time></trkpt><trkpt lat="44.95868807029707" lon="5.550241780879012"><ele>1020.0</ele><time>2026-04-25T08:56:28.999Z</time></trkpt><trkpt lat="44.95852780777178" lon="5.550067209066974"><ele>1020.0</ele><time>2026-04-25T08:56:29.999Z</time></trkpt><trkpt lat="44.95836903728344" lon="5.54987974366917"><ele>1020.0</ele><time>2026-04-25T08:56:30.999Z</time></trkpt><trkpt lat="44.95820406596458" lon="5.549697658814878"><ele>1021.6666666666667</ele><time>2026-04-25T08:56:31.999Z</time></trkpt><trkpt lat="44.958053139709286" lon="5.549500204640957"><ele>1023.3333333333334</ele><time>2026-04-25T08:56:32.999Z</time></trkpt><trkpt lat="44.95787449152882" lon="5.5493384617579835"><ele>1025.0</ele><time>2026-04-25T08:56:33.999Z</time></trkpt><trkpt lat="44.95768539493555" lon="5.5492085673724265"><ele>1023.0</ele><time>2026-04-25T08:56:34.999Z</time></trkpt><trkpt lat="44.95753018765598" lon="5.549073027667106"><ele>1021.0</ele><time>2026-04-25T08:56:35.999Z</time></trkpt><trkpt lat="44.957381769852326" lon="5.54896850947223"><ele>1019.0</ele><time>2026-04-25T08:56:36.999Z</time></trkpt><trkpt lat="44.95725309370899" lon="5.548844934421706"><ele>1022.3333333333334</ele><time>2026-04-25T08:56:37.999Z</time></trkpt><trkpt lat="44.95713539033309" lon="5.548681041026849"><ele>1025.6666666666667</ele><time>2026-04-25T08:56:38.999Z</time></trkpt><trkpt lat="44.957014696761625" lon="5.54848496692492"><ele>1029.0</ele><time>2026-04-25T08:56:39.999Z</time></trkpt><trkpt lat="44.956894434965186" lon="5.548294669275289"><ele>1029.0</ele><time>2026-04-25T08:56:40.999Z</time></trkpt><trkpt lat="44.95677157579049" lon="5.548116309340512"><ele>1029.0</ele><time>2026-04-25T08:56:41.999Z</time></trkpt><trkpt lat="44.95661657980591" lon="5.547984462939598"><ele>1029.0</ele><time>2026-04-25T08:56:42.999Z</time></trkpt><trkpt lat="44.956456435668734" lon="5.547860482532216"><ele>1026.6666666666667</ele><time>2026-04-25T08:56:43.999Z</time></trkpt><trkpt lat="44.956294375543706" lon="5.547735200850129"><ele>1024.3333333333335</ele><time>2026-04-25T08:56:44.999Z</time></trkpt><trkpt lat="44.95612385961431" lon="5.547636059797916"><ele>1022.0</ele><time>2026-04-25T08:56:45.999Z</time></trkpt><trkpt lat="44.95596838709098" lon="5.547544230103122"><ele>1020.25</ele><time>2026-04-25T08:56:46.999Z</time></trkpt><trkpt lat="44.95582861970598" lon="5.547454177032893"><ele>1018.5</ele><time>2026-04-25T08:56:47.999Z</time></trkpt><trkpt lat="44.955714916415566" lon="5.547352874111971"><ele>1016.75</ele><time>2026-04-25T08:56:48.999Z</time></trkpt><trkpt lat="44.95562269914159" lon="5.547228956082118"><ele>1015.0</ele><time>2026-04-25T08:56:49.999Z</time></trkpt><trkpt lat="44.95554634328938" lon="5.547070573504521"><ele>1018.25</ele><time>2026-04-25T08:56:50.999Z</time></trkpt><trkpt lat="44.9554579946153" lon="5.546939919622551"><ele>1021.5</ele><time>2026-04-25T08:56:51.999Z</time></trkpt><trkpt lat="44.95536842441683" lon="5.546847722759789"><ele>1024.75</ele><time>2026-04-25T08:56:52.999Z</time></trkpt><trkpt lat="44.95525621094774" lon="5.546798983950255"><ele>1028.0</ele><time>2026-04-25T08:56:53.999Z</time></trkpt><trkpt lat="44.95511637997541" lon="5.546886952088786"><ele>1027.3333333333335</ele><time>2026-04-25T08:56:54.999Z</time></trkpt><trkpt lat="44.95497499614376" lon="5.546974298868002"><ele>1026.6666666666667</ele><time>2026-04-25T08:56:55.999Z</time></trkpt><trkpt lat="44.95481676449181" lon="5.547036988118371"><ele>1026.0</ele><time>2026-04-25T08:56:56.999Z</time></trkpt><trkpt lat="44.95466969353245" lon="5.547103348882029"><ele>1026.5</ele><time>2026-04-25T08:56:57.999Z</time></trkpt><trkpt lat="44.954547586275886" lon="5.54713796582679"><ele>1027.0</ele><time>2026-04-25T08:56:58.999Z</time></trkpt><trkpt lat="44.95442861423948" lon="5.547128262725381"><ele>1027.5</ele><time>2026-04-25T08:56:59.999Z</time></trkpt><trkpt lat="44.954302177723406" lon="5.547051597499306"><ele>1028.0</ele><time>2026-04-25T08:57:00.998Z</time></trkpt><trkpt lat="44.95419119808124" lon="5.546956887324314"><ele>1028.0</ele><time>2026-04-25T08:57:01.998Z</time></trkpt><trkpt lat="44.954134339886885" lon="5.546821366905133"><ele>1028.0</ele><time>2026-04-25T08:57:02.998Z</time></trkpt><trkpt lat="44.95404952621082" lon="5.546673281783286"><ele>1028.0</ele><time>2026-04-25T08:57:03.998Z</time></trkpt><trkpt lat="44.953940746875354" lon="5.546572607922424"><ele>1028.0</ele><time>2026-04-25T08:57:04.998Z</time></trkpt><trkpt lat="44.95380167261103" lon="5.546542217192074"><ele>1028.0</ele><time>2026-04-25T08:57:05.998Z</time></trkpt><trkpt lat="44.953646406171224" lon="5.546563083104078"><ele>1028.0</ele><time>2026-04-25T08:57:06.998Z</time></trkpt><trkpt lat="44.953480603178946" lon="5.546553671869699"><ele>1028.0</ele><time>2026-04-25T08:57:07.998Z</time></trkpt><trkpt lat="44.95330223777966" lon="5.546548479659627"><ele>1027.6666666666667</ele><time>2026-04-25T08:57:08.998Z</time></trkpt><trkpt lat="44.953118355671414" lon="5.54654001086245"><ele>1027.3333333333333</ele><time>2026-04-25T08:57:09.998Z</time></trkpt><trkpt lat="44.95293095548283" lon="5.546528136134372"><ele>1027.0</ele><time>2026-04-25T08:57:10.998Z</time></trkpt><trkpt lat="44.95274068906254" lon="5.546502556515481"><ele>1027.0</ele><time>2026-04-25T08:57:11.998Z</time></trkpt><trkpt lat="44.952551593978065" lon="5.546454243994053"><ele>1027.0</ele><time>2026-04-25T08:57:12.998Z</time></trkpt><trkpt lat="44.95236360125749" lon="5.5463831369060665"><ele>1027.0</ele><time>2026-04-25T08:57:13.998Z</time></trkpt><trkpt lat="44.95218623056674" lon="5.546304467656394"><ele>1028.0</ele><time>2026-04-25T08:57:14.998Z</time></trkpt><trkpt lat="44.95204106268454" lon="5.546211470506358"><ele>1029.0</ele><time>2026-04-25T08:57:15.998Z</time></trkpt><trkpt lat="44.95188344916529" lon="5.546077570828179"><ele>1030.0</ele><time>2026-04-25T08:57:16.998Z</time></trkpt><trkpt lat="44.951697118123185" lon="5.545903842411464"><ele>1030.0</ele><time>2026-04-25T08:57:17.998Z</time></trkpt><trkpt lat="44.951525529074104" lon="5.545754058690605"><ele>1030.0</ele><time>2026-04-25T08:57:18.998Z</time></trkpt><trkpt lat="44.95138056993874" lon="5.5456204398208735"><ele>1030.0</ele><time>2026-04-25T08:57:19.998Z</time></trkpt><trkpt lat="44.9512463666204" lon="5.545473515605658"><ele>1030.0</ele><time>2026-04-25T08:57:20.998Z</time></trkpt><trkpt lat="44.9511296529812" lon="5.545381699612765"><ele>1030.0</ele><time>2026-04-25T08:57:21.998Z</time></trkpt><trkpt lat="44.95101623986167" lon="5.5453482084289165"><ele>1030.0</ele><time>2026-04-25T08:57:22.998Z</time></trkpt><trkpt lat="44.95090138911224" lon="5.5453626236538565"><ele>1030.0</ele><time>2026-04-25T08:57:23.998Z</time></trkpt><trkpt lat="44.95080050755391" lon="5.545458352340606"><ele>1030.0</ele><time>2026-04-25T08:57:24.998Z</time></trkpt><trkpt lat="44.95072172858167" lon="5.5456115897556675"><ele>1030.0</ele><time>2026-04-25T08:57:25.998Z</time></trkpt><trkpt lat="44.95070478202739" lon="5.545812920668567"><ele>1030.0</ele><time>2026-04-25T08:57:26.998Z</time></trkpt><trkpt lat="44.950695727716884" lon="5.546063074322131"><ele>1028.6666666666665</ele><time>2026-04-25T08:57:27.998Z</time></trkpt><trkpt lat="44.95063860245142" lon="5.546305824528676"><ele>1027.3333333333333</ele><time>2026-04-25T08:57:28.998Z</time></trkpt><trkpt lat="44.95050613281815" lon="5.546558138809798"><ele>1026.0</ele><time>2026-04-25T08:57:30Z</time></trkpt><trkpt lat="44.95038021534182" lon="5.5468455954074125"><ele>1022.3333333333333</ele><time>2026-04-25T08:57:31Z</time></trkpt><trkpt lat="44.950252561740854" lon="5.547070610805737"><ele>1018.6666666666666</ele><time>2026-04-25T08:57:32Z</time></trkpt><trkpt lat="44.95015369944422" lon="5.547265398371287"><ele>1015.0</ele><time>2026-04-25T08:57:33Z</time></trkpt><trkpt lat="44.95007116611345" lon="5.547443376721186"><ele>1020.0</ele><time>2026-04-25T08:57:34Z</time></trkpt><trkpt lat="44.94999513592574" lon="5.54759172469854"><ele>1025.0</ele><time>2026-04-25T08:57:35Z</time></trkpt><trkpt lat="44.94988866339584" lon="5.547688858446482"><ele>1030.0</ele><time>2026-04-25T08:57:36Z</time></trkpt><trkpt lat="44.949733382336966" lon="5.54772678965842"><ele>1035.0</ele><time>2026-04-25T08:57:37Z</time></trkpt><trkpt lat="44.94958241942667" lon="5.547824057353918"><ele>1031.0</ele><time>2026-04-25T08:57:38Z</time></trkpt><trkpt lat="44.94942561299116" lon="5.547897547209633"><ele>1027.0</ele><time>2026-04-25T08:57:39Z</time></trkpt><trkpt lat="44.94928196377746" lon="5.547970269193602"><ele>1023.0</ele><time>2026-04-25T08:57:40Z</time></trkpt><trkpt lat="44.94915308988703" lon="5.548023841716979"><ele>1023.0</ele><time>2026-04-25T08:57:41Z</time></trkpt><trkpt lat="44.94903912088266" lon="5.5479878557888025"><ele>1023.0</ele><time>2026-04-25T08:57:42Z</time></trkpt><trkpt lat="44.948926022919224" lon="5.547868657135658"><ele>1023.0</ele><time>2026-04-25T08:57:43Z</time></trkpt><trkpt lat="44.948785280766856" lon="5.547715544978505"><ele>1023.0</ele><time>2026-04-25T08:57:44Z</time></trkpt><trkpt lat="44.948626101555455" lon="5.547557565237243"><ele>1027.6666666666667</ele><time>2026-04-25T08:57:45Z</time></trkpt><trkpt lat="44.948455472330885" lon="5.5473759446507485"><ele>1032.3333333333335</ele><time>2026-04-25T08:57:46Z</time></trkpt><trkpt lat="44.94827272060601" lon="5.547226384276799"><ele>1037.0</ele><time>2026-04-25T08:57:47Z</time></trkpt><trkpt lat="44.94807372571114" lon="5.547108004209378"><ele>1045.6666666666667</ele><time>2026-04-25T08:57:48Z</time></trkpt><trkpt lat="44.947886899483926" lon="5.54701903567093"><ele>1054.3333333333333</ele><time>2026-04-25T08:57:49Z</time></trkpt><trkpt lat="44.947731727187254" lon="5.546959087554376"><ele>1063.0</ele><time>2026-04-25T08:57:50Z</time></trkpt><trkpt lat="44.94758862196825" lon="5.546991668411372"><ele>1053.3333333333333</ele><time>2026-04-25T08:57:51Z</time></trkpt><trkpt lat="44.94746707701266" lon="5.547105617221603"><ele>1043.6666666666667</ele><time>2026-04-25T08:57:52Z</time></trkpt><trkpt lat="44.94729890888303" lon="5.547251993464656"><ele>1034.0</ele><time>2026-04-25T08:57:53Z</time></trkpt><trkpt lat="44.94715591261848" lon="5.547434085177982"><ele>1034.0</ele><time>2026-04-25T08:57:54Z</time></trkpt><trkpt lat="44.94700126899159" lon="5.547535019189897"><ele>1034.0</ele><time>2026-04-25T08:57:55Z</time></trkpt><trkpt lat="44.946858573443286" lon="5.547597689429385"><ele>1034.0</ele><time>2026-04-25T08:57:56Z</time></trkpt><trkpt lat="44.946726652324365" lon="5.547574336589887"><ele>1034.75</ele><time>2026-04-25T08:57:57Z</time></trkpt><trkpt lat="44.94663008650499" lon="5.547486422232876"><ele>1035.5</ele><time>2026-04-25T08:57:58Z</time></trkpt><trkpt lat="44.94653048034434" lon="5.547349881511223"><ele>1036.25</ele><time>2026-04-25T08:57:59Z</time></trkpt><trkpt lat="44.94639839472335" lon="5.547185104795288"><ele>1037.0</ele><time>2026-04-25T08:58:00Z</time></trkpt><trkpt lat="44.94625330013144" lon="5.54700322484555"><ele>1044.6666666666667</ele><time>2026-04-25T08:58:01Z</time></trkpt><trkpt lat="44.946119302685915" lon="5.546794828055811"><ele>1052.3333333333333</ele><time>2026-04-25T08:58:02Z</time></trkpt><trkpt lat="44.94602780878109" lon="5.546569008871612"><ele>1060.0</ele><time>2026-04-25T08:58:03Z</time></trkpt><trkpt lat="44.94595246495233" lon="5.546319219867316"><ele>1058.0</ele><time>2026-04-25T08:58:04Z</time></trkpt><trkpt lat="44.94587078704444" lon="5.5460426836552905"><ele>1056.0</ele><time>2026-04-25T08:58:05Z</time></trkpt><trkpt lat="44.94575136738119" lon="5.545785189102441"><ele>1054.0</ele><time>2026-04-25T08:58:06Z</time></trkpt><trkpt lat="44.94558902175214" lon="5.545545987205572"><ele>1058.6666666666665</ele><time>2026-04-25T08:58:07Z</time></trkpt><trkpt lat="44.945456579773285" lon="5.545293851669973"><ele>1063.3333333333333</ele><time>2026-04-25T08:58:08Z</time></trkpt><trkpt lat="44.945360367577784" lon="5.545039366545531"><ele>1068.0</ele><time>2026-04-25T08:58:09Z</time></trkpt><trkpt lat="44.94528103660546" lon="5.5448228996800015"><ele>1068.0</ele><time>2026-04-25T08:58:09.999Z</time></trkpt><trkpt lat="44.94520271898037" lon="5.54464066883337"><ele>1068.0</ele><time>2026-04-25T08:58:10.999Z</time></trkpt><trkpt lat="44.94513335555792" lon="5.544455110543634"><ele>1068.0</ele><time>2026-04-25T08:58:11.999Z</time></trkpt><trkpt lat="44.945052793714716" lon="5.544268964228588"><ele>1063.5</ele><time>2026-04-25T08:58:12.999Z</time></trkpt><trkpt lat="44.94499883580218" lon="5.544110507259071"><ele>1059.0</ele><time>2026-04-25T08:58:13.999Z</time></trkpt><trkpt lat="44.94492812307078" lon="5.543953606712649"><ele>1054.5</ele><time>2026-04-25T08:58:14.999Z</time></trkpt><trkpt lat="44.94482668497064" lon="5.543821153835809"><ele>1050.0</ele><time>2026-04-25T08:58:15.999Z</time></trkpt><trkpt lat="44.94471401319865" lon="5.543728623522269"><ele>1050.0</ele><time>2026-04-25T08:58:16.999Z</time></trkpt><trkpt lat="44.944599600829044" lon="5.543693735852391"><ele>1050.0</ele><time>2026-04-25T08:58:17.999Z</time></trkpt><trkpt lat="44.944489499150336" lon="5.543744365715235"><ele>1050.0</ele><time>2026-04-25T08:58:18.999Z</time></trkpt><trkpt lat="44.94438264623722" lon="5.543872165725793"><ele>1050.0</ele><time>2026-04-25T08:58:19.999Z</time></trkpt><trkpt lat="44.94429092828964" lon="5.544022872076854"><ele>1049.5</ele><time>2026-04-25T08:58:20.999Z</time></trkpt><trkpt lat="44.94420503866288" lon="5.5441458070231775"><ele>1049.0</ele><time>2026-04-25T08:58:21.999Z</time></trkpt><trkpt lat="44.944108386705004" lon="5.544202593120746"><ele>1048.5</ele><time>2026-04-25T08:58:22.999Z</time></trkpt><trkpt lat="44.94399953299978" lon="5.544236848209187"><ele>1048.0</ele><time>2026-04-25T08:58:23.999Z</time></trkpt><trkpt lat="44.94387729345399" lon="5.5442926273847"><ele>1048.0</ele><time>2026-04-25T08:58:24.999Z</time></trkpt><trkpt lat="44.94375254177371" lon="5.5443555783970915"><ele>1048.0</ele><time>2026-04-25T08:58:25.999Z</time></trkpt><trkpt lat="44.943619596205316" lon="5.54436177412946"><ele>1048.0</ele><time>2026-04-25T08:58:26.999Z</time></trkpt><trkpt lat="44.94348950581212" lon="5.544359335468866"><ele>1048.0</ele><time>2026-04-25T08:58:27.999Z</time></trkpt><trkpt lat="44.94335627993648" lon="5.544338971445507"><ele>1046.75</ele><time>2026-04-25T08:58:28.999Z</time></trkpt><trkpt lat="44.9432196784337" lon="5.544321329802377"><ele>1045.5</ele><time>2026-04-25T08:58:29.999Z</time></trkpt><trkpt lat="44.94307684559605" lon="5.5442984747756405"><ele>1044.25</ele><time>2026-04-25T08:58:30.999Z</time></trkpt><trkpt lat="44.94293919621112" lon="5.544271032149419"><ele>1043.0</ele><time>2026-04-25T08:58:31.999Z</time></trkpt><trkpt lat="44.942809602961646" lon="5.544205264836849"><ele>1043.0</ele><time>2026-04-25T08:58:32.999Z</time></trkpt><trkpt lat="44.94268887328524" lon="5.544132206345898"><ele>1043.0</ele><time>2026-04-25T08:58:33.999Z</time></trkpt><trkpt lat="44.942596469040524" lon="5.544016844596517"><ele>1043.0</ele><time>2026-04-25T08:58:34.999Z</time></trkpt><trkpt lat="44.9425163133206" lon="5.543839049412216"><ele>1043.0</ele><time>2026-04-25T08:58:35.999Z</time></trkpt><trkpt lat="44.94241529673954" lon="5.543644286742632"><ele>1044.75</ele><time>2026-04-25T08:58:36.999Z</time></trkpt><trkpt lat="44.94228695504978" lon="5.543489528100203"><ele>1046.5</ele><time>2026-04-25T08:58:37.999Z</time></trkpt><trkpt lat="44.94216484357875" lon="5.5433803607772445"><ele>1048.25</ele><time>2026-04-25T08:58:38.999Z</time></trkpt><trkpt lat="44.942071767936824" lon="5.543244387709558"><ele>1050.0</ele><time>2026-04-25T08:58:39.999Z</time></trkpt><trkpt lat="44.941982520188866" lon="5.543122794405937"><ele>1050.0</ele><time>2026-04-25T08:58:40.999Z</time></trkpt><trkpt lat="44.94191305453162" lon="5.5430156875043775"><ele>1050.0</ele><time>2026-04-25T08:58:41.999Z</time></trkpt><trkpt lat="44.9418159284365" lon="5.542976969865229"><ele>1050.0</ele><time>2026-04-25T08:58:42.999Z</time></trkpt><trkpt lat="44.941705062378" lon="5.543006738928918"><ele>1050.0</ele><time>2026-04-25T08:58:43.999Z</time></trkpt><trkpt lat="44.941586059580494" lon="5.543103768967575"><ele>1049.8</ele><time>2026-04-25T08:58:44.999Z</time></trkpt><trkpt lat="44.94149079358652" lon="5.543227521231736"><ele>1049.6</ele><time>2026-04-25T08:58:45.999Z</time></trkpt><trkpt lat="44.941415160982935" lon="5.543332257003689"><ele>1049.4</ele><time>2026-04-25T08:58:46.999Z</time></trkpt><trkpt lat="44.94137511310346" lon="5.543463123907044"><ele>1049.2</ele><time>2026-04-25T08:58:47.999Z</time></trkpt><trkpt lat="44.941388495237376" lon="5.543609220375792"><ele>1049.0</ele><time>2026-04-25T08:58:48.999Z</time></trkpt><trkpt lat="44.94148650789439" lon="5.543752366521279"><ele>1045.75</ele><time>2026-04-25T08:58:49.999Z</time></trkpt><trkpt lat="44.941551917670616" lon="5.543914740009987"><ele>1042.5</ele><time>2026-04-25T08:58:50.999Z</time></trkpt><trkpt lat="44.9415851022618" lon="5.544093554880802"><ele>1039.25</ele><time>2026-04-25T08:58:51.999Z</time></trkpt><trkpt lat="44.94160281876411" lon="5.544258027859929"><ele>1036.0</ele><time>2026-04-25T08:58:52.999Z</time></trkpt><trkpt lat="44.941574994891575" lon="5.544391892488704"><ele>1036.0</ele><time>2026-04-25T08:58:53.999Z</time></trkpt><trkpt lat="44.941504446583465" lon="5.544494400370044"><ele>1036.0</ele><time>2026-04-25T08:58:54.999Z</time></trkpt><trkpt lat="44.94138674340708" lon="5.544566865880167"><ele>1036.0</ele><time>2026-04-25T08:58:55.999Z</time></trkpt><trkpt lat="44.941250487339424" lon="5.544669728790708"><ele>1036.0</ele><time>2026-04-25T08:58:56.999Z</time></trkpt><trkpt lat="44.94108396532868" lon="5.544724235856875"><ele>1034.0</ele><time>2026-04-25T08:58:57.999Z</time></trkpt><trkpt lat="44.94091827503356" lon="5.5447771355343445"><ele>1032.0</ele><time>2026-04-25T08:58:58.999Z</time></trkpt><trkpt lat="44.94075587457207" lon="5.544751626308457"><ele>1030.0</ele><time>2026-04-25T08:58:59.999Z</time></trkpt><trkpt lat="44.94059014253861" lon="5.544705210782165"><ele>1030.0</ele><time>2026-04-25T08:59:00.999Z</time></trkpt><trkpt lat="44.94044159765716" lon="5.544695749166755"><ele>1030.0</ele><time>2026-04-25T08:59:01.999Z</time></trkpt><trkpt lat="44.94028644487279" lon="5.544769560382242"><ele>1030.0</ele><time>2026-04-25T08:59:02.999Z</time></trkpt><trkpt lat="44.9401477550911" lon="5.544939548760262"><ele>1031.6666666666665</ele><time>2026-04-25T08:59:03.999Z</time></trkpt><trkpt lat="44.94000408946836" lon="5.545144932376275"><ele>1033.3333333333333</ele><time>2026-04-25T08:59:04.999Z</time></trkpt><trkpt lat="44.939858170283976" lon="5.545337869527485"><ele>1035.0</ele><time>2026-04-25T08:59:05.999Z</time></trkpt><trkpt lat="44.939698232157774" lon="5.545462987793761"><ele>1030.3333333333333</ele><time>2026-04-25T08:59:06.999Z</time></trkpt><trkpt lat="44.93954525666329" lon="5.54554459549727"><ele>1025.6666666666665</ele><time>2026-04-25T08:59:07.998Z</time></trkpt><trkpt lat="44.93939118003764" lon="5.545562200740718"><ele>1021.0</ele><time>2026-04-25T08:59:08.998Z</time></trkpt><trkpt lat="44.93922351550981" lon="5.545524816838455"><ele>1021.6666666666666</ele><time>2026-04-25T08:59:09.998Z</time></trkpt><trkpt lat="44.939048509876024" lon="5.545491747625282"><ele>1022.3333333333333</ele><time>2026-04-25T08:59:10.998Z</time></trkpt><trkpt lat="44.93887211096855" lon="5.545467759402856"><ele>1023.0</ele><time>2026-04-25T08:59:11.998Z</time></trkpt><trkpt lat="44.938720102394576" lon="5.545460751083506"><ele>1023.0</ele><time>2026-04-25T08:59:12.998Z</time></trkpt><trkpt lat="44.938605108744326" lon="5.5454585890239185"><ele>1023.0</ele><time>2026-04-25T08:59:13.998Z</time></trkpt><trkpt lat="44.938507799678185" lon="5.545515747539973"><ele>1023.0</ele><time>2026-04-25T08:59:14.998Z</time></trkpt><trkpt lat="44.93843960338876" lon="5.545633292238236"><ele>1023.0</ele><time>2026-04-25T08:59:15.998Z</time></trkpt><trkpt lat="44.938408538943825" lon="5.545779287073793"><ele>1023.0</ele><time>2026-04-25T08:59:16.998Z</time></trkpt><trkpt lat="44.938404628529305" lon="5.545915652629271"><ele>1024.6</ele><time>2026-04-25T08:59:17.998Z</time></trkpt><trkpt lat="44.93837229715027" lon="5.5460371541324465"><ele>1026.1999999999998</ele><time>2026-04-25T08:59:18.998Z</time></trkpt><trkpt lat="44.9382956014694" lon="5.546105019650766"><ele>1027.8</ele><time>2026-04-25T08:59:19.998Z</time></trkpt><trkpt lat="44.93819926364008" lon="5.546133077662191"><ele>1029.3999999999999</ele><time>2026-04-25T08:59:20.998Z</time></trkpt><trkpt lat="44.93810579806239" lon="5.546077055648972"><ele>1031.0</ele><time>2026-04-25T08:59:21.998Z</time></trkpt><trkpt lat="44.93802719173916" lon="5.5460114483252845"><ele>1031.0</ele><time>2026-04-25T08:59:22.998Z</time></trkpt><trkpt lat="44.937954370155445" lon="5.545912083538303"><ele>1031.0</ele><time>2026-04-25T08:59:23.998Z</time></trkpt><trkpt lat="44.9378572254958" lon="5.545808597028037"><ele>1031.0</ele><time>2026-04-25T08:59:24.998Z</time></trkpt><trkpt lat="44.93773897869881" lon="5.54568705194863"><ele>1031.0</ele><time>2026-04-25T08:59:25.998Z</time></trkpt><trkpt lat="44.9375891656939" lon="5.545547835329092"><ele>1029.3333333333335</ele><time>2026-04-25T08:59:26.998Z</time></trkpt><trkpt lat="44.937418487444894" lon="5.545384062592778"><ele>1027.6666666666667</ele><time>2026-04-25T08:59:27.998Z</time></trkpt><trkpt lat="44.93725077179456" lon="5.545237773704432"><ele>1026.0</ele><time>2026-04-25T08:59:28.998Z</time></trkpt><trkpt lat="44.93712050561097" lon="5.545063543423635"><ele>1031.0</ele><time>2026-04-25T08:59:29.998Z</time></trkpt><trkpt lat="44.93700600895483" lon="5.544892543805949"><ele>1036.0</ele><time>2026-04-25T08:59:30.998Z</time></trkpt><trkpt lat="44.936902396909495" lon="5.544733990655813"><ele>1041.0</ele><time>2026-04-25T08:59:31.998Z</time></trkpt><trkpt lat="44.936815814263404" lon="5.544570361643849"><ele>1043.0</ele><time>2026-04-25T08:59:32.998Z</time></trkpt><trkpt lat="44.93671205429493" lon="5.544493739435882"><ele>1045.0</ele><time>2026-04-25T08:59:33.998Z</time></trkpt><trkpt lat="44.93659618419363" lon="5.544497868998309"><ele>1047.0</ele><time>2026-04-25T08:59:34.998Z</time></trkpt><trkpt lat="44.93647352924477" lon="5.544599061450551"><ele>1049.0</ele><time>2026-04-25T08:59:36Z</time></trkpt><trkpt lat="44.936337446091414" lon="5.5447276361153826"><ele>1044.6666666666667</ele><time>2026-04-25T08:59:37Z</time></trkpt><trkpt lat="44.93615547849297" lon="5.54478349055643"><ele>1040.3333333333333</ele><time>2026-04-25T08:59:38Z</time></trkpt><trkpt lat="44.93596510887925" lon="5.544871374402029"><ele>1036.0</ele><time>2026-04-25T08:59:39Z</time></trkpt><trkpt lat="44.935810606585555" lon="5.545032636649349"><ele>1036.0</ele><time>2026-04-25T08:59:40Z</time></trkpt><trkpt lat="44.935677887277045" lon="5.545210557129414"><ele>1036.0</ele><time>2026-04-25T08:59:41Z</time></trkpt><trkpt lat="44.93553018603014" lon="5.545304242112944"><ele>1036.0</ele><time>2026-04-25T08:59:42Z</time></trkpt><trkpt lat="44.935380945410415" lon="5.545376363911276"><ele>1037.6666666666665</ele><time>2026-04-25T08:59:43Z</time></trkpt><trkpt lat="44.935222467290615" lon="5.545404005813288"><ele>1039.3333333333333</ele><time>2026-04-25T08:59:44Z</time></trkpt><trkpt lat="44.935051035759386" lon="5.545380733508493"><ele>1041.0</ele><time>2026-04-25T08:59:45Z</time></trkpt><trkpt lat="44.93487549105587" lon="5.545365566260276"><ele>1033.25</ele><time>2026-04-25T08:59:46Z</time></trkpt><trkpt lat="44.934720308651855" lon="5.545419853564678"><ele>1025.5</ele><time>2026-04-25T08:59:47Z</time></trkpt><trkpt lat="44.934583261358895" lon="5.545515189149811"><ele>1017.75</ele><time>2026-04-25T08:59:48Z</time></trkpt><trkpt lat="44.93448118142159" lon="5.545536111024753"><ele>1010.0</ele><time>2026-04-25T08:59:49Z</time></trkpt><trkpt lat="44.93439918914283" lon="5.545540393015574"><ele>1010.0</ele><time>2026-04-25T08:59:50Z</time></trkpt><trkpt lat="44.93434460451487" lon="5.545400074716615"><ele>1010.0</ele><time>2026-04-25T08:59:51Z</time></trkpt><trkpt lat="44.93429663246317" lon="5.5452527409858545"><ele>1010.0</ele><time>2026-04-25T08:59:52Z</time></trkpt><trkpt lat="44.934208723301325" lon="5.545100512597274"><ele>1010.0</ele><time>2026-04-25T08:59:53Z</time></trkpt><trkpt lat="44.93412656820492" lon="5.544929764629911"><ele>1012.0</ele><time>2026-04-25T08:59:54Z</time></trkpt><trkpt lat="44.934034022638315" lon="5.544788901133581"><ele>1014.0</ele><time>2026-04-25T08:59:55Z</time></trkpt><trkpt lat="44.933946976298365" lon="5.544673173263031"><ele>1016.0</ele><time>2026-04-25T08:59:56Z</time></trkpt><trkpt lat="44.93385325030903" lon="5.5445875850757576"><ele>1018.0</ele><time>2026-04-25T08:59:57Z</time></trkpt><trkpt lat="44.933748073904496" lon="5.544572415007623"><ele>1018.0</ele><time>2026-04-25T08:59:58Z</time></trkpt><trkpt lat="44.93363970817978" lon="5.544623565690193"><ele>1018.0</ele><time>2026-04-25T08:59:59Z</time></trkpt><trkpt lat="44.933551850372766" lon="5.544708582428681"><ele>1018.0</ele><time>2026-04-25T09:00:00Z</time></trkpt><trkpt lat="44.93347728405333" lon="5.54483190508374"><ele>1018.0</ele><time>2026-04-25T09:00:01Z</time></trkpt><trkpt lat="44.93343102745449" lon="5.545010097680704"><ele>1018.0</ele><time>2026-04-25T09:00:02Z</time></trkpt><trkpt lat="44.93340071707947" lon="5.545195820201275"><ele>1018.0</ele><time>2026-04-25T09:00:03Z</time></trkpt><trkpt lat="44.93333618909169" lon="5.545332464898923"><ele>1018.0</ele><time>2026-04-25T09:00:04Z</time></trkpt><trkpt lat="44.933273265027246" lon="5.545452811774303"><ele>1018.0</ele><time>2026-04-25T09:00:05Z</time></trkpt><trkpt lat="44.93314504376032" lon="5.545475492447682"><ele>1015.25</ele><time>2026-04-25T09:00:06Z</time></trkpt><trkpt lat="44.93302613945856" lon="5.545544690491464"><ele>1012.5</ele><time>2026-04-25T09:00:07Z</time></trkpt><trkpt lat="44.932888068425136" lon="5.5455041898171"><ele>1009.75</ele><time>2026-04-25T09:00:08Z</time></trkpt><trkpt lat="44.932746255792466" lon="5.545417610574037"><ele>1007.0</ele><time>2026-04-25T09:00:09Z</time></trkpt><trkpt lat="44.93258877762827" lon="5.545407125302762"><ele>1007.6666666666667</ele><time>2026-04-25T09:00:10Z</time></trkpt><trkpt lat="44.932416586137336" lon="5.54544059387551"><ele>1008.3333333333333</ele><time>2026-04-25T09:00:11Z</time></trkpt><trkpt lat="44.932233523495505" lon="5.545510298567903"><ele>1009.0</ele><time>2026-04-25T09:00:12Z</time></trkpt><trkpt lat="44.93207411978157" lon="5.545501068217373"><ele>1009.0</ele><time>2026-04-25T09:00:13Z</time></trkpt><trkpt lat="44.93193925396668" lon="5.545479734280078"><ele>1009.0</ele><time>2026-04-25T09:00:14Z</time></trkpt><trkpt lat="44.931800644487154" lon="5.545393953788451"><ele>1009.0</ele><time>2026-04-25T09:00:15Z</time></trkpt><trkpt lat="44.93169160165583" lon="5.545240852523252"><ele>1009.0</ele><time>2026-04-25T09:00:16Z</time></trkpt><trkpt lat="44.93161639836878" lon="5.545068098626967"><ele>1012.6666666666666</ele><time>2026-04-25T09:00:16.999Z</time></trkpt><trkpt lat="44.931527009248086" lon="5.544877660737413"><ele>1016.3333333333333</ele><time>2026-04-25T09:00:17.999Z</time></trkpt><trkpt lat="44.931430215029145" lon="5.544686858748083"><ele>1020.0</ele><time>2026-04-25T09:00:18.999Z</time></trkpt><trkpt lat="44.93134023364978" lon="5.544538279336653"><ele>1024.0</ele><time>2026-04-25T09:00:19.999Z</time></trkpt><trkpt lat="44.93126130561124" lon="5.544408830058033"><ele>1028.0</ele><time>2026-04-25T09:00:20.999Z</time></trkpt><trkpt lat="44.93117646022598" lon="5.54433744058373"><ele>1032.0</ele><time>2026-04-25T09:00:21.999Z</time></trkpt><trkpt lat="44.93108532693745" lon="5.544346588590834"><ele>1036.0</ele><time>2026-04-25T09:00:22.999Z</time></trkpt><trkpt lat="44.93101742948563" lon="5.544384220873099"><ele>1040.0</ele><time>2026-04-25T09:00:23.999Z</time></trkpt><trkpt lat="44.930957579404854" lon="5.544521857761969"><ele>1035.5</ele><time>2026-04-25T09:00:24.999Z</time></trkpt><trkpt lat="44.93092979503343" lon="5.544699000673996"><ele>1031.0</ele><time>2026-04-25T09:00:25.999Z</time></trkpt><trkpt lat="44.93088469063923" lon="5.544862626313919"><ele>1026.5</ele><time>2026-04-25T09:00:26.999Z</time></trkpt><trkpt lat="44.93083039488123" lon="5.545041975428322"><ele>1022.0</ele><time>2026-04-25T09:00:27.999Z</time></trkpt><trkpt lat="44.93078219336673" lon="5.545203319143459"><ele>1022.0</ele><time>2026-04-25T09:00:28.999Z</time></trkpt><trkpt lat="44.93071813094147" lon="5.545316631413652"><ele>1022.0</ele><time>2026-04-25T09:00:29.999Z</time></trkpt><trkpt lat="44.93064536566641" lon="5.545409278424208"><ele>1022.0</ele><time>2026-04-25T09:00:30.999Z</time></trkpt><trkpt lat="44.93054274248144" lon="5.545383064069758"><ele>1022.0</ele><time>2026-04-25T09:00:31.999Z</time></trkpt><trkpt lat="44.930431535990984" lon="5.54538072784245"><ele>1022.0</ele><time>2026-04-25T09:00:32.999Z</time></trkpt><trkpt lat="44.930289136775116" lon="5.54536721729508"><ele>1022.0</ele><time>2026-04-25T09:00:33.999Z</time></trkpt><trkpt lat="44.93013804252578" lon="5.545285053034196"><ele>1022.0</ele><time>2026-04-25T09:00:34.999Z</time></trkpt><trkpt lat="44.929969974311305" lon="5.545245027433565"><ele>1022.0</ele><time>2026-04-25T09:00:35.999Z</time></trkpt><trkpt lat="44.92981350037462" lon="5.545203756662303"><ele>1024.0</ele><time>2026-04-25T09:00:36.999Z</time></trkpt><trkpt lat="44.92963867983313" lon="5.545214332331636"><ele>1026.0</ele><time>2026-04-25T09:00:37.999Z</time></trkpt><trkpt lat="44.92947086484" lon="5.545262595043405"><ele>1028.0</ele><time>2026-04-25T09:00:38.999Z</time></trkpt><trkpt lat="44.92929177538572" lon="5.545296439423275"><ele>1025.75</ele><time>2026-04-25T09:00:39.999Z</time></trkpt><trkpt lat="44.92913401225" lon="5.545305268208426"><ele>1023.5</ele><time>2026-04-25T09:00:40.999Z</time></trkpt><trkpt lat="44.928999382339015" lon="5.545240598612255"><ele>1021.25</ele><time>2026-04-25T09:00:41.999Z</time></trkpt><trkpt lat="44.92885763268799" lon="5.545190749426286"><ele>1019.0</ele><time>2026-04-25T09:00:42.999Z</time></trkpt><trkpt lat="44.92871255374535" lon="5.545137752743055"><ele>1019.0</ele><time>2026-04-25T09:00:43.999Z</time></trkpt><trkpt lat="44.928549439505396" lon="5.5451607773543845"><ele>1019.0</ele><time>2026-04-25T09:00:44.999Z</time></trkpt><trkpt lat="44.928372597983646" lon="5.545240244122052"><ele>1019.0</ele><time>2026-04-25T09:00:45.999Z</time></trkpt><trkpt lat="44.928184058654914" lon="5.545338165253251"><ele>1015.0</ele><time>2026-04-25T09:00:46.999Z</time></trkpt><trkpt lat="44.92800516363024" lon="5.545442116472006"><ele>1011.0</ele><time>2026-04-25T09:00:47.999Z</time></trkpt><trkpt lat="44.92781620517655" lon="5.545513657378244"><ele>1007.0</ele><time>2026-04-25T09:00:48.999Z</time></trkpt><trkpt lat="44.92763839695697" lon="5.5455130325573805"><ele>1006.3333333333334</ele><time>2026-04-25T09:00:49.999Z</time></trkpt><trkpt lat="44.92747463246507" lon="5.545497761520442"><ele>1005.6666666666667</ele><time>2026-04-25T09:00:50.999Z</time></trkpt><trkpt lat="44.9273298131126" lon="5.545558430477689"><ele>1005.0</ele><time>2026-04-25T09:00:51.999Z</time></trkpt><trkpt lat="44.92720397821539" lon="5.545645267048556"><ele>1005.0</ele><time>2026-04-25T09:00:52.999Z</time></trkpt><trkpt lat="44.92709266925941" lon="5.54573384280316"><ele>1005.0</ele><time>2026-04-25T09:00:53.999Z</time></trkpt><trkpt lat="44.926962516599794" lon="5.545753321623501"><ele>1005.0</ele><time>2026-04-25T09:00:54.999Z</time></trkpt><trkpt lat="44.926803741054904" lon="5.54574656929544"><ele>1005.0</ele><time>2026-04-25T09:00:55.999Z</time></trkpt><trkpt lat="44.92663717653319" lon="5.545731718410556"><ele>1006.6666666666667</ele><time>2026-04-25T09:00:56.999Z</time></trkpt><trkpt lat="44.926473791040245" lon="5.5456754592747695"><ele>1008.3333333333334</ele><time>2026-04-25T09:00:57.999Z</time></trkpt><trkpt lat="44.92629747920519" lon="5.54558867622453"><ele>1010.0</ele><time>2026-04-25T09:00:58.999Z</time></trkpt><trkpt lat="44.92611963195755" lon="5.545526806773338"><ele>1010.0</ele><time>2026-04-25T09:00:59.999Z</time></trkpt><trkpt lat="44.92595359395483" lon="5.545480059403575"><ele>1010.0</ele><time>2026-04-25T09:01:00.999Z</time></trkpt><trkpt lat="44.9257948146269" lon="5.545490365063725"><ele>1010.0</ele><time>2026-04-25T09:01:01.999Z</time></trkpt><trkpt lat="44.92563409100129" lon="5.545573154692928"><ele>1011.3333333333334</ele><time>2026-04-25T09:01:02.999Z</time></trkpt><trkpt lat="44.925474498860616" lon="5.5456433634875495"><ele>1012.6666666666667</ele><time>2026-04-25T09:01:03.999Z</time></trkpt><trkpt lat="44.92532493318534" lon="5.545655136578525"><ele>1014.0</ele><time>2026-04-25T09:01:04.999Z</time></trkpt><trkpt lat="44.92517099042957" lon="5.545581202111854"><ele>1014.6666666666667</ele><time>2026-04-25T09:01:05.999Z</time></trkpt><trkpt lat="44.925015609829444" lon="5.5454570377736525"><ele>1015.3333333333334</ele><time>2026-04-25T09:01:06.999Z</time></trkpt><trkpt lat="44.92484555499777" lon="5.545346176093603"><ele>1016.0</ele><time>2026-04-25T09:01:07.999Z</time></trkpt><trkpt lat="44.92467315459248" lon="5.545242679020797"><ele>1016.0</ele><time>2026-04-25T09:01:08.999Z</time></trkpt><trkpt lat="44.924470334224914" lon="5.545199193301175"><ele>1016.0</ele><time>2026-04-25T09:01:09.999Z</time></trkpt><trkpt lat="44.92425680125849" lon="5.545175996877717"><ele>1016.0</ele><time>2026-04-25T09:01:10.999Z</time></trkpt><trkpt lat="44.924043332211795" lon="5.545107355672037"><ele>1017.0</ele><time>2026-04-25T09:01:11.999Z</time></trkpt><trkpt lat="44.92382131841888" lon="5.545026589039353"><ele>1018.0</ele><time>2026-04-25T09:01:12.999Z</time></trkpt><trkpt lat="44.923589650490136" lon="5.544968194915014"><ele>1021.3333333333333</ele><time>2026-04-25T09:01:13.999Z</time></trkpt><trkpt lat="44.92337389659514" lon="5.544876432899149"><ele>1024.6666666666667</ele><time>2026-04-25T09:01:14.999Z</time></trkpt><trkpt lat="44.923158250794145" lon="5.544844187536972"><ele>1028.0</ele><time>2026-04-25T09:01:15.999Z</time></trkpt><trkpt lat="44.92295887012235" lon="5.544813787887824"><ele>1028.0</ele><time>2026-04-25T09:01:16.998Z</time></trkpt><trkpt lat="44.92277640703918" lon="5.544814624840843"><ele>1028.0</ele><time>2026-04-25T09:01:17.998Z</time></trkpt><trkpt lat="44.92263278976754" lon="5.544738757827351"><ele>1028.0</ele><time>2026-04-25T09:01:18.998Z</time></trkpt><trkpt lat="44.92249913803252" lon="5.544692337469114"><ele>1032.0</ele><time>2026-04-25T09:01:19.998Z</time></trkpt><trkpt lat="44.92235011619049" lon="5.544690852224655"><ele>1036.0</ele><time>2026-04-25T09:01:20.998Z</time></trkpt><trkpt lat="44.92220035075194" lon="5.544748926354053"><ele>1040.0</ele><time>2026-04-25T09:01:21.998Z</time></trkpt><trkpt lat="44.922031327743895" lon="5.544815289131865"><ele>1040.0</ele><time>2026-04-25T09:01:22.998Z</time></trkpt><trkpt lat="44.921872610243376" lon="5.5448206506161934"><ele>1040.0</ele><time>2026-04-25T09:01:23.998Z</time></trkpt><trkpt lat="44.921709105908405" lon="5.54485301379998"><ele>1040.0</ele><time>2026-04-25T09:01:24.998Z</time></trkpt><trkpt lat="44.92156372374122" lon="5.544905914136789"><ele>1040.75</ele><time>2026-04-25T09:01:25.998Z</time></trkpt><trkpt lat="44.92142684672052" lon="5.544998676800673"><ele>1041.5</ele><time>2026-04-25T09:01:26.998Z</time></trkpt><trkpt lat="44.92130876978532" lon="5.545083365599248"><ele>1042.25</ele><time>2026-04-25T09:01:27.998Z</time></trkpt><trkpt lat="44.92119003997506" lon="5.5451400380797065"><ele>1043.0</ele><time>2026-04-25T09:01:28.998Z</time></trkpt><trkpt lat="44.92106752752846" lon="5.545126716743036"><ele>1043.0</ele><time>2026-04-25T09:01:29.998Z</time></trkpt><trkpt lat="44.92094147979324" lon="5.545124184034561"><ele>1043.0</ele><time>2026-04-25T09:01:30.998Z</time></trkpt><trkpt lat="44.92080959011946" lon="5.545155393014243"><ele>1043.0</ele><time>2026-04-25T09:01:31.998Z</time></trkpt><trkpt lat="44.92066603766982" lon="5.545154671327703"><ele>1043.0</ele><time>2026-04-25T09:01:32.998Z</time></trkpt><trkpt lat="44.92052536412353" lon="5.545171264682151"><ele>1045.3333333333335</ele><time>2026-04-25T09:01:33.998Z</time></trkpt><trkpt lat="44.920388524223604" lon="5.54517632889056"><ele>1047.6666666666667</ele><time>2026-04-25T09:01:34.998Z</time></trkpt><trkpt lat="44.92023286936476" lon="5.545173430334245"><ele>1050.0</ele><time>2026-04-25T09:01:35.998Z</time></trkpt><trkpt lat="44.92006991892099" lon="5.54518015056872"><ele>1052.6666666666667</ele><time>2026-04-25T09:01:36.998Z</time></trkpt><trkpt lat="44.91990333607428" lon="5.545181669103344"><ele>1055.3333333333335</ele><time>2026-04-25T09:01:37.998Z</time></trkpt><trkpt lat="44.9197440220197" lon="5.545180274099447"><ele>1058.0</ele><time>2026-04-25T09:01:38.998Z</time></trkpt><trkpt lat="44.91958823150843" lon="5.545199205785635"><ele>1058.0</ele><time>2026-04-25T09:01:39.998Z</time></trkpt><trkpt lat="44.91942807018897" lon="5.5452713519652415"><ele>1058.0</ele><time>2026-04-25T09:01:40.998Z</time></trkpt><trkpt lat="44.91924268300055" lon="5.54539042907486"><ele>1058.0</ele><time>2026-04-25T09:01:42Z</time></trkpt><trkpt lat="44.91905846813043" lon="5.545484762671667"><ele>1061.0</ele><time>2026-04-25T09:01:43Z</time></trkpt><trkpt lat="44.91887871496748" lon="5.545570348033254"><ele>1064.0</ele><time>2026-04-25T09:01:44Z</time></trkpt><trkpt lat="44.91869975256906" lon="5.545643831582172"><ele>1067.0</ele><time>2026-04-25T09:01:45Z</time></trkpt><trkpt lat="44.91853890132363" lon="5.545725237868077"><ele>1067.0</ele><time>2026-04-25T09:01:46Z</time></trkpt><trkpt lat="44.91841540099465" lon="5.545864110120714"><ele>1067.0</ele><time>2026-04-25T09:01:47Z</time></trkpt><trkpt lat="44.918291121422094" lon="5.546046717476415"><ele>1067.0</ele><time>2026-04-25T09:01:48Z</time></trkpt><trkpt lat="44.91813672767821" lon="5.546195405985342"><ele>1073.3333333333335</ele><time>2026-04-25T09:01:49Z</time></trkpt><trkpt lat="44.91794194162648" lon="5.546279971288783"><ele>1079.6666666666667</ele><time>2026-04-25T09:01:50Z</time></trkpt><trkpt lat="44.917750884155275" lon="5.546409273625002"><ele>1086.0</ele><time>2026-04-25T09:01:51Z</time></trkpt><trkpt lat="44.917560665913335" lon="5.546522890806496"><ele>1088.0</ele><time>2026-04-25T09:01:52Z</time></trkpt><trkpt lat="44.917241626045666" lon="5.546328125775869"><ele>1090.0</ele><time>2026-04-25T09:01:53Z</time></trkpt><trkpt lat="44.91698088605336" lon="5.546336521633795"><ele>1093.0</ele><time>2026-04-25T09:01:54Z</time></trkpt><trkpt lat="44.916732112857616" lon="5.546385933040128"><ele>1096.0</ele><time>2026-04-25T09:01:55Z</time></trkpt><trkpt lat="44.91651881572938" lon="5.546431708066818"><ele>1096.0</ele><time>2026-04-25T09:01:56Z</time></trkpt><trkpt lat="44.91631330099655" lon="5.54644947401619"><ele>1096.0</ele><time>2026-04-25T09:01:57Z</time></trkpt><trkpt lat="44.91610522020013" lon="5.546474535841392"><ele>1096.0</ele><time>2026-04-25T09:01:58Z</time></trkpt><trkpt lat="44.915889374662655" lon="5.546556725505928"><ele>1096.3333333333333</ele><time>2026-04-25T09:01:59Z</time></trkpt><trkpt lat="44.915670475947664" lon="5.546667492441821"><ele>1096.6666666666667</ele><time>2026-04-25T09:02:00Z</time></trkpt><trkpt lat="44.91548493416902" lon="5.546789993818323"><ele>1097.0</ele><time>2026-04-25T09:02:01Z</time></trkpt><trkpt lat="44.91532685696643" lon="5.546916618151384"><ele>1097.0</ele><time>2026-04-25T09:02:02Z</time></trkpt><trkpt lat="44.915185675362835" lon="5.547011628075053"><ele>1097.0</ele><time>2026-04-25T09:02:03Z</time></trkpt><trkpt lat="44.915043617391554" lon="5.547036152275347"><ele>1097.0</ele><time>2026-04-25T09:02:04Z</time></trkpt><trkpt lat="44.91490332634652" lon="5.547021394421975"><ele>1097.0</ele><time>2026-04-25T09:02:05Z</time></trkpt><trkpt lat="44.91477935940612" lon="5.547027512797108"><ele>1101.6666666666667</ele><time>2026-04-25T09:02:06Z</time></trkpt><trkpt lat="44.91466522275113" lon="5.547047691842881"><ele>1106.3333333333335</ele><time>2026-04-25T09:02:07Z</time></trkpt><trkpt lat="44.914582089602376" lon="5.547072702574734"><ele>1111.0</ele><time>2026-04-25T09:02:08Z</time></trkpt><trkpt lat="44.9145007751762" lon="5.547162948024992"><ele>1115.6666666666667</ele><time>2026-04-25T09:02:10Z</time></trkpt><trkpt lat="44.91452866941696" lon="5.547244778069994"><ele>1120.3333333333333</ele><time>2026-04-25T09:02:11Z</time></trkpt><trkpt lat="44.91460075793651" lon="5.547292059603693"><ele>1125.0</ele><time>2026-04-25T09:02:12Z</time></trkpt><trkpt lat="44.91470223074674" lon="5.547291265311531"><ele>1125.0</ele><time>2026-04-25T09:02:13Z</time></trkpt><trkpt lat="44.9148293801609" lon="5.547278748717265"><ele>1125.0</ele><time>2026-04-25T09:02:14Z</time></trkpt><trkpt lat="44.91496945099214" lon="5.54733180276595"><ele>1125.0</ele><time>2026-04-25T09:02:15Z</time></trkpt><trkpt lat="44.915124325453874" lon="5.547422590969083"><ele>1125.0</ele><time>2026-04-25T09:02:16Z</time></trkpt><trkpt lat="44.91525805956693" lon="5.547584141226696"><ele>1123.6666666666667</ele><time>2026-04-25T09:02:17Z</time></trkpt><trkpt lat="44.915439413173154" lon="5.547670649326446"><ele>1122.3333333333335</ele><time>2026-04-25T09:02:18Z</time></trkpt><trkpt lat="44.915612762811826" lon="5.547707636850323"><ele>1121.0</ele><time>2026-04-25T09:02:19Z</time></trkpt><trkpt lat="44.91579647167244" lon="5.547740490208213"><ele>1120.3333333333335</ele><time>2026-04-25T09:02:20Z</time></trkpt><trkpt lat="44.9159956687593" lon="5.547789812999306"><ele>1119.6666666666667</ele><time>2026-04-25T09:02:21Z</time></trkpt><trkpt lat="44.91619350409216" lon="5.547828959494849"><ele>1119.0</ele><time>2026-04-25T09:02:22Z</time></trkpt><trkpt lat="44.91636263797715" lon="5.5478186625092425"><ele>1119.0</ele><time>2026-04-25T09:02:22.999Z</time></trkpt><trkpt lat="44.91648949843245" lon="5.547854495273149"><ele>1119.0</ele><time>2026-04-25T09:02:23.999Z</time></trkpt><trkpt lat="44.916596113148486" lon="5.5478909923842235"><ele>1119.0</ele><time>2026-04-25T09:02:24.999Z</time></trkpt><trkpt lat="44.91668613197845" lon="5.547922421368398"><ele>1119.0</ele><time>2026-04-25T09:02:25.999Z</time></trkpt><trkpt lat="44.91674807902611" lon="5.547940365902479"><ele>1119.0</ele><time>2026-04-25T09:02:26.999Z</time></trkpt><trkpt lat="44.916641317574665" lon="5.548075919204126"><ele>1128.0</ele><time>2026-04-25T09:02:30.999Z</time></trkpt><trkpt lat="44.91653495223853" lon="5.548034857589362"><ele>1137.0</ele><time>2026-04-25T09:02:31.999Z</time></trkpt><trkpt lat="44.91640507789978" lon="5.548040968173423"><ele>1146.0</ele><time>2026-04-25T09:02:32.999Z</time></trkpt><trkpt lat="44.916251369841646" lon="5.548088487279505"><ele>1155.0</ele><time>2026-04-25T09:02:33.999Z</time></trkpt><trkpt lat="44.91606765327216" lon="5.548122831874702"><ele>1154.3333333333333</ele><time>2026-04-25T09:02:34.999Z</time></trkpt><trkpt lat="44.915872568013036" lon="5.548152095102864"><ele>1153.6666666666665</ele><time>2026-04-25T09:02:35.999Z</time></trkpt><trkpt lat="44.915697470542455" lon="5.548221644491619"><ele>1153.0</ele><time>2026-04-25T09:02:36.999Z</time></trkpt><trkpt lat="44.915538753397826" lon="5.548291871238966"><ele>1153.0</ele><time>2026-04-25T09:02:37.999Z</time></trkpt><trkpt lat="44.91539601075886" lon="5.548316543056261"><ele>1153.0</ele><time>2026-04-25T09:02:38.999Z</time></trkpt><trkpt lat="44.915275748520564" lon="5.548370265925499"><ele>1153.0</ele><time>2026-04-25T09:02:39.999Z</time></trkpt><trkpt lat="44.91518253699011" lon="5.54845764360186"><ele>1153.0</ele><time>2026-04-25T09:02:40.999Z</time></trkpt><trkpt lat="44.91506428833253" lon="5.54861616807555"><ele>1161.3333333333333</ele><time>2026-04-25T09:02:41.999Z</time></trkpt><trkpt lat="44.91495023087003" lon="5.548808330803667"><ele>1169.6666666666667</ele><time>2026-04-25T09:02:42.999Z</time></trkpt><trkpt lat="44.914824964772265" lon="5.548999815010699"><ele>1178.0</ele><time>2026-04-25T09:02:43.999Z</time></trkpt><trkpt lat="44.914672251175354" lon="5.5491877094407505"><ele>1178.0</ele><time>2026-04-25T09:02:44.999Z</time></trkpt><trkpt lat="44.9144926859522" lon="5.549377255283779"><ele>1178.0</ele><time>2026-04-25T09:02:45.999Z</time></trkpt><trkpt lat="44.91432858753265" lon="5.549521318721061"><ele>1178.0</ele><time>2026-04-25T09:02:46.999Z</time></trkpt><trkpt lat="44.91417816573808" lon="5.5496082241683755"><ele>1183.0</ele><time>2026-04-25T09:02:47.999Z</time></trkpt><trkpt lat="44.91401594091575" lon="5.549651293267832"><ele>1188.0</ele><time>2026-04-25T09:02:48.999Z</time></trkpt><trkpt lat="44.91387145659641" lon="5.549697587340316"><ele>1193.0</ele><time>2026-04-25T09:02:49.999Z</time></trkpt><trkpt lat="44.913761521424796" lon="5.549707651762197"><ele>1198.0</ele><time>2026-04-25T09:02:50.999Z</time></trkpt><trkpt lat="44.91367550531999" lon="5.549685289725966"><ele>1198.0</ele><time>2026-04-25T09:02:51.999Z</time></trkpt><trkpt lat="44.913646670291634" lon="5.549543113578997"><ele>1198.0</ele><time>2026-04-25T09:02:52.999Z</time></trkpt><trkpt lat="44.9135791756703" lon="5.549465334105165"><ele>1198.0</ele><time>2026-04-25T09:02:53.999Z</time></trkpt><trkpt lat="44.9134895105939" lon="5.549405905944197"><ele>1198.0</ele><time>2026-04-25T09:02:54.999Z</time></trkpt><trkpt lat="44.91334472109868" lon="5.549429787116583"><ele>1198.0</ele><time>2026-04-25T09:02:55.999Z</time></trkpt><trkpt lat="44.91319526924109" lon="5.549424525879205"><ele>1193.0</ele><time>2026-04-25T09:02:56.999Z</time></trkpt><trkpt lat="44.9130239293795" lon="5.5494228772960525"><ele>1188.0</ele><time>2026-04-25T09:02:57.999Z</time></trkpt><trkpt lat="44.91286142959705" lon="5.549468626837226"><ele>1183.0</ele><time>2026-04-25T09:02:58.999Z</time></trkpt><trkpt lat="44.912688642792055" lon="5.549504430353036"><ele>1192.0</ele><time>2026-04-25T09:02:59.999Z</time></trkpt><trkpt lat="44.912511910072695" lon="5.549558449711534"><ele>1201.0</ele><time>2026-04-25T09:03:00.999Z</time></trkpt><trkpt lat="44.91234582737422" lon="5.549620668005654"><ele>1210.0</ele><time>2026-04-25T09:03:01.999Z</time></trkpt><trkpt lat="44.91219792308511" lon="5.549694860842653"><ele>1210.0</ele><time>2026-04-25T09:03:02.999Z</time></trkpt><trkpt lat="44.91206618265452" lon="5.549759636413088"><ele>1210.0</ele><time>2026-04-25T09:03:03.999Z</time></trkpt><trkpt lat="44.911961278233946" lon="5.54982770222905"><ele>1210.0</ele><time>2026-04-25T09:03:04.999Z</time></trkpt><trkpt lat="44.91187068824957" lon="5.549923373750811"><ele>1210.0</ele><time>2026-04-25T09:03:05.999Z</time></trkpt><trkpt lat="44.91178397744821" lon="5.550093387863766"><ele>1208.6666666666665</ele><time>2026-04-25T09:03:06.999Z</time></trkpt><trkpt lat="44.91168665330086" lon="5.550282708269265"><ele>1207.3333333333333</ele><time>2026-04-25T09:03:07.999Z</time></trkpt><trkpt lat="44.91158963908454" lon="5.55047905868463"><ele>1206.0</ele><time>2026-04-25T09:03:08.999Z</time></trkpt><trkpt lat="44.911501746065326" lon="5.550653211761048"><ele>1210.75</ele><time>2026-04-25T09:03:09.999Z</time></trkpt><trkpt lat="44.9114065665005" lon="5.550793068388121"><ele>1215.5</ele><time>2026-04-25T09:03:10.999Z</time></trkpt><trkpt lat="44.91130265157365" lon="5.5508796462383625"><ele>1220.25</ele><time>2026-04-25T09:03:11.999Z</time></trkpt><trkpt lat="44.91117948331689" lon="5.55094384540077"><ele>1225.0</ele><time>2026-04-25T09:03:12.999Z</time></trkpt><trkpt lat="44.91102519536827" lon="5.551009877586272"><ele>1225.0</ele><time>2026-04-25T09:03:13.999Z</time></trkpt><trkpt lat="44.91089471019659" lon="5.551080644700133"><ele>1225.0</ele><time>2026-04-25T09:03:14.999Z</time></trkpt><trkpt lat="44.91076476594536" lon="5.551171214875711"><ele>1225.0</ele><time>2026-04-25T09:03:15.999Z</time></trkpt><trkpt lat="44.91066638709672" lon="5.551294004053095"><ele>1225.0</ele><time>2026-04-25T09:03:16.999Z</time></trkpt><trkpt lat="44.91056943747006" lon="5.551406081264589"><ele>1227.0</ele><time>2026-04-25T09:03:17.999Z</time></trkpt><trkpt lat="44.91047987694017" lon="5.5514776193555555"><ele>1229.0</ele><time>2026-04-25T09:03:18.999Z</time></trkpt><trkpt lat="44.91040039139863" lon="5.5515573398686575"><ele>1231.0</ele><time>2026-04-25T09:03:19.999Z</time></trkpt><trkpt lat="44.91031511716332" lon="5.551647160427417"><ele>1233.0</ele><time>2026-04-25T09:03:20.999Z</time></trkpt><trkpt lat="44.91022549193358" lon="5.5517377991271015"><ele>1235.0</ele><time>2026-04-25T09:03:21.998Z</time></trkpt><trkpt lat="44.91012602284242" lon="5.55183122740348"><ele>1235.25</ele><time>2026-04-25T09:03:22.998Z</time></trkpt><trkpt lat="44.91004343724628" lon="5.551942952438757"><ele>1235.5</ele><time>2026-04-25T09:03:23.998Z</time></trkpt><trkpt lat="44.90995732569491" lon="5.552051366293224"><ele>1235.75</ele><time>2026-04-25T09:03:24.998Z</time></trkpt><trkpt lat="44.90987094182729" lon="5.552158119870352"><ele>1236.0</ele><time>2026-04-25T09:03:25.998Z</time></trkpt><trkpt lat="44.90978036400775" lon="5.552264777383461"><ele>1235.0</ele><time>2026-04-25T09:03:26.998Z</time></trkpt><trkpt lat="44.90968703146833" lon="5.552373474705412"><ele>1234.0</ele><time>2026-04-25T09:03:27.998Z</time></trkpt><trkpt lat="44.90958917044319" lon="5.552483158397161"><ele>1233.0</ele><time>2026-04-25T09:03:28.998Z</time></trkpt><trkpt lat="44.90949099865456" lon="5.5525933538231245"><ele>1232.0</ele><time>2026-04-25T09:03:29.998Z</time></trkpt><trkpt lat="44.909396865425386" lon="5.5526956336853175"><ele>1232.0</ele><time>2026-04-25T09:03:30.998Z</time></trkpt><trkpt lat="44.9093004409077" lon="5.552769571189989"><ele>1232.0</ele><time>2026-04-25T09:03:31.998Z</time></trkpt><trkpt lat="44.909208498335516" lon="5.552840251987016"><ele>1232.0</ele><time>2026-04-25T09:03:32.998Z</time></trkpt><trkpt lat="44.9091198562683" lon="5.552889279811834"><ele>1232.0</ele><time>2026-04-25T09:03:33.998Z</time></trkpt><trkpt lat="44.90901727546086" lon="5.552923918954752"><ele>1232.0</ele><time>2026-04-25T09:03:34.998Z</time></trkpt><trkpt lat="44.90891339774132" lon="5.552908629626046"><ele>1231.2</ele><time>2026-04-25T09:03:35.998Z</time></trkpt><trkpt lat="44.90881802603996" lon="5.552887771234829"><ele>1230.4</ele><time>2026-04-25T09:03:36.998Z</time></trkpt><trkpt lat="44.908712593494606" lon="5.552879993229601"><ele>1229.6</ele><time>2026-04-25T09:03:37.998Z</time></trkpt><trkpt lat="44.90861759409086" lon="5.552857116563796"><ele>1228.8</ele><time>2026-04-25T09:03:38.998Z</time></trkpt><trkpt lat="44.90853284657833" lon="5.5528535479739745"><ele>1228.0</ele><time>2026-04-25T09:03:39.998Z</time></trkpt><trkpt lat="44.908464648512584" lon="5.552849608294141"><ele>1226.8333333333333</ele><time>2026-04-25T09:03:40.998Z</time></trkpt><trkpt lat="44.90836601046603" lon="5.5528456656074034"><ele>1225.6666666666665</ele><time>2026-04-25T09:03:42.998Z</time></trkpt><trkpt lat="44.90829640442939" lon="5.552838278583477"><ele>1224.5</ele><time>2026-04-25T09:03:43.998Z</time></trkpt><trkpt lat="44.90825906801312" lon="5.552944909102587"><ele>1223.3333333333333</ele><time>2026-04-25T09:03:44.998Z</time></trkpt><trkpt lat="44.90823490671667" lon="5.553050622599285"><ele>1222.1666666666667</ele><time>2026-04-25T09:03:45.998Z</time></trkpt><trkpt lat="44.90820540831288" lon="5.553170902982013"><ele>1221.0</ele><time>2026-04-25T09:03:46.998Z</time></trkpt><trkpt lat="44.90817171242719" lon="5.553298722786332"><ele>1220.0</ele><time>2026-04-25T09:03:48Z</time></trkpt><trkpt lat="44.908157000238816" lon="5.553450043202625"><ele>1219.0</ele><time>2026-04-25T09:03:49Z</time></trkpt><trkpt lat="44.90813919988653" lon="5.553612666611187"><ele>1218.0</ele><time>2026-04-25T09:03:50Z</time></trkpt><trkpt lat="44.90812059733985" lon="5.553738253241966"><ele>1217.0</ele><time>2026-04-25T09:03:51Z</time></trkpt><trkpt lat="44.90809443200269" lon="5.5539135800670865"><ele>1216.0</ele><time>2026-04-25T09:03:52Z</time></trkpt><trkpt lat="44.90807189928496" lon="5.554089964457079"><ele>1216.0</ele><time>2026-04-25T09:03:53Z</time></trkpt><trkpt lat="44.90804927104957" lon="5.554260704665181"><ele>1216.0</ele><time>2026-04-25T09:03:54Z</time></trkpt><trkpt lat="44.90803206733678" lon="5.554446816318122"><ele>1216.0</ele><time>2026-04-25T09:03:55Z</time></trkpt><trkpt lat="44.9080248476602" lon="5.5546438874230075"><ele>1216.0</ele><time>2026-04-25T09:03:56Z</time></trkpt><trkpt lat="44.908028209637266" lon="5.554854301462637"><ele>1217.0</ele><time>2026-04-25T09:03:57Z</time></trkpt><trkpt lat="44.908045646703364" lon="5.555083271581618"><ele>1218.0</ele><time>2026-04-25T09:03:58Z</time></trkpt><trkpt lat="44.90806777956348" lon="5.555303324098242"><ele>1219.0</ele><time>2026-04-25T09:03:59Z</time></trkpt><trkpt lat="44.90808735460431" lon="5.55553343941751"><ele>1219.6666666666665</ele><time>2026-04-25T09:04:00Z</time></trkpt><trkpt lat="44.90809993382885" lon="5.555762380696371"><ele>1220.3333333333333</ele><time>2026-04-25T09:04:01Z</time></trkpt><trkpt lat="44.90811420148662" lon="5.555996456807246"><ele>1221.0</ele><time>2026-04-25T09:04:02Z</time></trkpt><trkpt lat="44.90812790846406" lon="5.556222823388355"><ele>1222.3333333333333</ele><time>2026-04-25T09:04:03Z</time></trkpt><trkpt lat="44.90814566064112" lon="5.5564427235727845"><ele>1223.6666666666665</ele><time>2026-04-25T09:04:04Z</time></trkpt><trkpt lat="44.90816578300668" lon="5.556670343257419"><ele>1225.0</ele><time>2026-04-25T09:04:05Z</time></trkpt><trkpt lat="44.908178593089715" lon="5.556894129753464"><ele>1223.25</ele><time>2026-04-25T09:04:06Z</time></trkpt><trkpt lat="44.908190306849406" lon="5.557112933673068"><ele>1221.5</ele><time>2026-04-25T09:04:07Z</time></trkpt><trkpt lat="44.90819981939141" lon="5.557328552169073"><ele>1219.75</ele><time>2026-04-25T09:04:08Z</time></trkpt><trkpt lat="44.90821730419156" lon="5.557524211595609"><ele>1218.0</ele><time>2026-04-25T09:04:09Z</time></trkpt><trkpt lat="44.908233995602544" lon="5.557725479978529"><ele>1216.6666666666667</ele><time>2026-04-25T09:04:10Z</time></trkpt><trkpt lat="44.90826207012344" lon="5.557934617964331"><ele>1215.3333333333335</ele><time>2026-04-25T09:04:11Z</time></trkpt><trkpt lat="44.908310625422" lon="5.5581320242303"><ele>1214.0</ele><time>2026-04-25T09:04:12Z</time></trkpt><trkpt lat="44.90837631624698" lon="5.55833693875668"><ele>1222.0</ele><time>2026-04-25T09:04:13Z</time></trkpt><trkpt lat="44.90842440851811" lon="5.558585274604646"><ele>1230.0</ele><time>2026-04-25T09:04:14Z</time></trkpt><trkpt lat="44.90846701484202" lon="5.558812207494747"><ele>1238.0</ele><time>2026-04-25T09:04:15Z</time></trkpt><trkpt lat="44.908513416223094" lon="5.559036727652034"><ele>1238.0</ele><time>2026-04-25T09:04:16Z</time></trkpt><trkpt lat="44.90852409355248" lon="5.559262848981969"><ele>1238.0</ele><time>2026-04-25T09:04:17Z</time></trkpt><trkpt lat="44.908505756218744" lon="5.559486522916267"><ele>1238.0</ele><time>2026-04-25T09:04:18Z</time></trkpt><trkpt lat="44.908453040417555" lon="5.559684578956754"><ele>1229.5</ele><time>2026-04-25T09:04:19Z</time></trkpt><trkpt lat="44.908387176126645" lon="5.559861380735964"><ele>1221.0</ele><time>2026-04-25T09:04:20Z</time></trkpt><trkpt lat="44.90833821942289" lon="5.5600460682870905"><ele>1212.5</ele><time>2026-04-25T09:04:21Z</time></trkpt><trkpt lat="44.908316100658624" lon="5.560255204351445"><ele>1204.0</ele><time>2026-04-25T09:04:22Z</time></trkpt><trkpt lat="44.908325002535776" lon="5.560486284014104"><ele>1206.0</ele><time>2026-04-25T09:04:23Z</time></trkpt><trkpt lat="44.908366747843516" lon="5.560712533961746"><ele>1208.0</ele><time>2026-04-25T09:04:24Z</time></trkpt><trkpt lat="44.90842599074869" lon="5.560942320561318"><ele>1210.0</ele><time>2026-04-25T09:04:25Z</time></trkpt><trkpt lat="44.90849619071356" lon="5.561156761808978"><ele>1203.0</ele><time>2026-04-25T09:04:26Z</time></trkpt><trkpt lat="44.908584871939865" lon="5.561354832048715"><ele>1196.0</ele><time>2026-04-25T09:04:27Z</time></trkpt><trkpt lat="44.90868766986368" lon="5.561554012756228"><ele>1189.0</ele><time>2026-04-25T09:04:27.999Z</time></trkpt><trkpt lat="44.90877597841062" lon="5.561769197385084"><ele>1189.0</ele><time>2026-04-25T09:04:28.999Z</time></trkpt><trkpt lat="44.90889439489707" lon="5.56194464264516"><ele>1189.0</ele><time>2026-04-25T09:04:29.999Z</time></trkpt><trkpt lat="44.90901125967545" lon="5.562126220738219"><ele>1189.0</ele><time>2026-04-25T09:04:30.999Z</time></trkpt><trkpt lat="44.90914567111618" lon="5.562299245653298"><ele>1187.6666666666665</ele><time>2026-04-25T09:04:31.999Z</time></trkpt><trkpt lat="44.909270873202274" lon="5.5624713165222275"><ele>1186.3333333333333</ele><time>2026-04-25T09:04:32.999Z</time></trkpt><trkpt lat="44.909402267442545" lon="5.562633922698416"><ele>1185.0</ele><time>2026-04-25T09:04:33.999Z</time></trkpt><trkpt lat="44.90951937696011" lon="5.562816497581897"><ele>1179.3333333333333</ele><time>2026-04-25T09:04:34.999Z</time></trkpt><trkpt lat="44.90962526575048" lon="5.563014171619239"><ele>1173.6666666666665</ele><time>2026-04-25T09:04:35.999Z</time></trkpt><trkpt lat="44.90974547899184" lon="5.563215875563504"><ele>1168.0</ele><time>2026-04-25T09:04:36.999Z</time></trkpt><trkpt lat="44.909848059375165" lon="5.563420954033507"><ele>1168.0</ele><time>2026-04-25T09:04:37.999Z</time></trkpt><trkpt lat="44.90994125039756" lon="5.563630828665543"><ele>1168.0</ele><time>2026-04-25T09:04:38.999Z</time></trkpt><trkpt lat="44.91004536829713" lon="5.563843584671653"><ele>1168.0</ele><time>2026-04-25T09:04:39.999Z</time></trkpt><trkpt lat="44.91014320884566" lon="5.564055193164367"><ele>1167.3333333333333</ele><time>2026-04-25T09:04:40.999Z</time></trkpt><trkpt lat="44.91023483387328" lon="5.564262663623637"><ele>1166.6666666666667</ele><time>2026-04-25T09:04:41.999Z</time></trkpt><trkpt lat="44.91034545462332" lon="5.5644712385440025"><ele>1166.0</ele><time>2026-04-25T09:04:42.999Z</time></trkpt><trkpt lat="44.910479948315306" lon="5.564633666827073"><ele>1167.3333333333335</ele><time>2026-04-25T09:04:43.999Z</time></trkpt><trkpt lat="44.91059541985407" lon="5.56481871517371"><ele>1168.6666666666667</ele><time>2026-04-25T09:04:44.999Z</time></trkpt><trkpt lat="44.91071638151274" lon="5.564979015333174"><ele>1170.0</ele><time>2026-04-25T09:04:45.999Z</time></trkpt><trkpt lat="44.91083378711362" lon="5.565130762152032"><ele>1170.5</ele><time>2026-04-25T09:04:46.999Z</time></trkpt><trkpt lat="44.91094797075118" lon="5.5652665123037925"><ele>1171.0</ele><time>2026-04-25T09:04:47.999Z</time></trkpt><trkpt lat="44.91105743190416" lon="5.565386957231212"><ele>1171.5</ele><time>2026-04-25T09:04:48.999Z</time></trkpt><trkpt lat="44.91117052935977" lon="5.565501413697712"><ele>1172.0</ele><time>2026-04-25T09:04:49.999Z</time></trkpt><trkpt lat="44.91129001838619" lon="5.565622472251553"><ele>1168.3333333333335</ele><time>2026-04-25T09:04:50.999Z</time></trkpt><trkpt lat="44.91141520826216" lon="5.565753948691888"><ele>1164.6666666666667</ele><time>2026-04-25T09:04:51.999Z</time></trkpt><trkpt lat="44.91155422450592" lon="5.565906362989345"><ele>1161.0</ele><time>2026-04-25T09:04:52.999Z</time></trkpt><trkpt lat="44.91169327395781" lon="5.566085862161477"><ele>1161.0</ele><time>2026-04-25T09:04:53.999Z</time></trkpt><trkpt lat="44.91181810297098" lon="5.566267425946808"><ele>1161.0</ele><time>2026-04-25T09:04:54.999Z</time></trkpt><trkpt lat="44.911930725183474" lon="5.566447008516102"><ele>1161.0</ele><time>2026-04-25T09:04:55.999Z</time></trkpt><trkpt lat="44.9120494842867" lon="5.5666019455891975"><ele>1161.0</ele><time>2026-04-25T09:04:56.999Z</time></trkpt><trkpt lat="44.91214873522015" lon="5.566761350090384"><ele>1161.0</ele><time>2026-04-25T09:04:57.999Z</time></trkpt><trkpt lat="44.91224223910344" lon="5.566918676196081"><ele>1161.0</ele><time>2026-04-25T09:04:58.999Z</time></trkpt><trkpt lat="44.912327146293556" lon="5.567074743500048"><ele>1161.0</ele><time>2026-04-25T09:04:59.999Z</time></trkpt><trkpt lat="44.912398025481814" lon="5.567243519219516"><ele>1160.75</ele><time>2026-04-25T09:05:00.999Z</time></trkpt><trkpt lat="44.91249050261671" lon="5.567398317893686"><ele>1160.5</ele><time>2026-04-25T09:05:01.999Z</time></trkpt><trkpt lat="44.91256158793291" lon="5.567577336584732"><ele>1160.25</ele><time>2026-04-25T09:05:02.999Z</time></trkpt><trkpt lat="44.912588313174865" lon="5.56777360073982"><ele>1160.0</ele><time>2026-04-25T09:05:03.999Z</time></trkpt><trkpt lat="44.912637546935926" lon="5.567941682679137"><ele>1159.0</ele><time>2026-04-25T09:05:04.999Z</time></trkpt><trkpt lat="44.912662332056726" lon="5.568097926308643"><ele>1158.0</ele><time>2026-04-25T09:05:05.999Z</time></trkpt><trkpt lat="44.91268967784132" lon="5.568228465928351"><ele>1157.0</ele><time>2026-04-25T09:05:06.999Z</time></trkpt><trkpt lat="44.91271540337574" lon="5.568335527697714"><ele>1156.0</ele><time>2026-04-25T09:05:07.999Z</time></trkpt><trkpt lat="44.91273853082288" lon="5.568492939200197"><ele>1155.0</ele><time>2026-04-25T09:05:09.999Z</time></trkpt><trkpt lat="44.912612871333984" lon="5.568640578735447"><ele>1155.75</ele><time>2026-04-25T09:05:12.999Z</time></trkpt><trkpt lat="44.91251110985441" lon="5.568684299885128"><ele>1156.5</ele><time>2026-04-25T09:05:13.999Z</time></trkpt><trkpt lat="44.91236605903069" lon="5.568731946082362"><ele>1157.25</ele><time>2026-04-25T09:05:14.999Z</time></trkpt><trkpt lat="44.912187554913324" lon="5.568796180793275"><ele>1158.0</ele><time>2026-04-25T09:05:15.999Z</time></trkpt><trkpt lat="44.91198437788416" lon="5.568877493736511"><ele>1159.0</ele><time>2026-04-25T09:05:16.999Z</time></trkpt><trkpt lat="44.91175073505566" lon="5.5689652090637525"><ele>1160.0</ele><time>2026-04-25T09:05:17.999Z</time></trkpt><trkpt lat="44.91150254538696" lon="5.569060176182886"><ele>1160.0</ele><time>2026-04-25T09:05:18.999Z</time></trkpt><trkpt lat="44.911235075951375" lon="5.569157209289483"><ele>1160.0</ele><time>2026-04-25T09:05:19.999Z</time></trkpt><trkpt lat="44.910970933188096" lon="5.569256907941268"><ele>1160.0</ele><time>2026-04-25T09:05:20.999Z</time></trkpt><trkpt lat="44.91070081945421" lon="5.569356994591695"><ele>1160.0</ele><time>2026-04-25T09:05:21.999Z</time></trkpt><trkpt lat="44.91043792844155" lon="5.56945133249872"><ele>1162.0</ele><time>2026-04-25T09:05:22.999Z</time></trkpt><trkpt lat="44.91017373326539" lon="5.569544621911441"><ele>1164.0</ele><time>2026-04-25T09:05:23.999Z</time></trkpt><trkpt lat="44.90988555491037" lon="5.569564790242655"><ele>1164.0</ele><time>2026-04-25T09:05:24.999Z</time></trkpt><trkpt lat="44.90958176639767" lon="5.56957592510493"><ele>1164.0</ele><time>2026-04-25T09:05:25.999Z</time></trkpt><trkpt lat="44.90927753859713" lon="5.569548703411539"><ele>1162.5</ele><time>2026-04-25T09:05:26.998Z</time></trkpt><trkpt lat="44.90897478890477" lon="5.569514623958601"><ele>1161.0</ele><time>2026-04-25T09:05:27.998Z</time></trkpt><trkpt lat="44.9086336766968" lon="5.569494768540816"><ele>1163.0</ele><time>2026-04-25T09:05:28.998Z</time></trkpt><trkpt lat="44.90833203258429" lon="5.569471979056979"><ele>1165.0</ele><time>2026-04-25T09:05:29.998Z</time></trkpt><trkpt lat="44.90805020253289" lon="5.569468405982325"><ele>1167.5</ele><time>2026-04-25T09:05:30.998Z</time></trkpt><trkpt lat="44.90778915437063" lon="5.569541712672667"><ele>1170.0</ele><time>2026-04-25T09:05:31.998Z</time></trkpt><trkpt lat="44.90750607483139" lon="5.569659708218433"><ele>1170.0</ele><time>2026-04-25T09:05:32.998Z</time></trkpt><trkpt lat="44.90721238803366" lon="5.569789951172984"><ele>1170.0</ele><time>2026-04-25T09:05:33.998Z</time></trkpt><trkpt lat="44.906911918219784" lon="5.569918826292896"><ele>1171.0</ele><time>2026-04-25T09:05:34.998Z</time></trkpt><trkpt lat="44.90662356137275" lon="5.570032569071931"><ele>1172.0</ele><time>2026-04-25T09:05:35.998Z</time></trkpt><trkpt lat="44.906361637708805" lon="5.570101730097163"><ele>1172.0</ele><time>2026-04-25T09:05:36.998Z</time></trkpt><trkpt lat="44.90610260107287" lon="5.57011078929608"><ele>1172.0</ele><time>2026-04-25T09:05:37.998Z</time></trkpt><trkpt lat="44.905848027608755" lon="5.57009710995117"><ele>1173.0</ele><time>2026-04-25T09:05:38.998Z</time></trkpt><trkpt lat="44.905610909448136" lon="5.570021159687948"><ele>1174.0</ele><time>2026-04-25T09:05:39.998Z</time></trkpt><trkpt lat="44.90538455518532" lon="5.569833122890512"><ele>1174.0</ele><time>2026-04-25T09:05:40.998Z</time></trkpt><trkpt lat="44.90515837779774" lon="5.569698022759356"><ele>1174.0</ele><time>2026-04-25T09:05:41.998Z</time></trkpt><trkpt lat="44.904919187868316" lon="5.569604640463891"><ele>1178.5</ele><time>2026-04-25T09:05:42.998Z</time></trkpt><trkpt lat="44.90464466025991" lon="5.569584822555538"><ele>1183.0</ele><time>2026-04-25T09:05:43.998Z</time></trkpt><trkpt lat="44.90437211769054" lon="5.569577639985403"><ele>1185.0</ele><time>2026-04-25T09:05:44.998Z</time></trkpt><trkpt lat="44.90412333286894" lon="5.569552226888242"><ele>1187.0</ele><time>2026-04-25T09:05:45.998Z</time></trkpt><trkpt lat="44.90390130975177" lon="5.569510886100441"><ele>1187.0</ele><time>2026-04-25T09:05:46.998Z</time></trkpt><trkpt lat="44.90371908861851" lon="5.569463807165787"><ele>1187.0</ele><time>2026-04-25T09:05:47.998Z</time></trkpt><trkpt lat="44.90355440701232" lon="5.569418322818198"><ele>1187.0</ele><time>2026-04-25T09:05:48.998Z</time></trkpt><trkpt lat="44.90341719404354" lon="5.56932971810723"><ele>1188.0</ele><time>2026-04-25T09:05:49.998Z</time></trkpt><trkpt lat="44.90329184637346" lon="5.569248892725469"><ele>1189.0</ele><time>2026-04-25T09:05:50.998Z</time></trkpt><trkpt lat="44.903188735420215" lon="5.569125141263687"><ele>1190.0</ele><time>2026-04-25T09:05:51.998Z</time></trkpt><trkpt lat="44.90309361569489" lon="5.5690240703439455"><ele>1191.0</ele><time>2026-04-25T09:05:52.998Z</time></trkpt><trkpt lat="44.903007487800416" lon="5.568916770496448"><ele>1191.0</ele><time>2026-04-25T09:05:54Z</time></trkpt><trkpt lat="44.902926306134795" lon="5.568817292218734"><ele>1191.0</ele><time>2026-04-25T09:05:55Z</time></trkpt><trkpt lat="44.902845055986084" lon="5.568718874738611"><ele>1191.0</ele><time>2026-04-25T09:05:56Z</time></trkpt><trkpt lat="44.90276136959515" lon="5.568627415128846"><ele>1191.0</ele><time>2026-04-25T09:05:57Z</time></trkpt><trkpt lat="44.9026862592764" lon="5.5685187907810745"><ele>1191.0</ele><time>2026-04-25T09:05:58Z</time></trkpt><trkpt lat="44.90260676550863" lon="5.5684226847346725"><ele>1191.6</ele><time>2026-04-25T09:05:59Z</time></trkpt><trkpt lat="44.902525680300165" lon="5.568317162766852"><ele>1192.1999999999998</ele><time>2026-04-25T09:06:00Z</time></trkpt><trkpt lat="44.90245432791329" lon="5.568227202743962"><ele>1192.8000000000002</ele><time>2026-04-25T09:06:01Z</time></trkpt><trkpt lat="44.90240622108268" lon="5.568125815478624"><ele>1193.4</ele><time>2026-04-25T09:06:02Z</time></trkpt><trkpt lat="44.90238808164081" lon="5.568009210731837"><ele>1194.0</ele><time>2026-04-25T09:06:03Z</time></trkpt><trkpt lat="44.90239621435305" lon="5.56788203600335"><ele>1194.4</ele><time>2026-04-25T09:06:04Z</time></trkpt><trkpt lat="44.90235940753103" lon="5.567753117345331"><ele>1194.8000000000002</ele><time>2026-04-25T09:06:05Z</time></trkpt><trkpt lat="44.90234375437276" lon="5.567625238675883"><ele>1195.1999999999998</ele><time>2026-04-25T09:06:06Z</time></trkpt><trkpt lat="44.90230617821108" lon="5.567499684159737"><ele>1195.6</ele><time>2026-04-25T09:06:07Z</time></trkpt><trkpt lat="44.90225603519387" lon="5.567395103762835"><ele>1196.0</ele><time>2026-04-25T09:06:08Z</time></trkpt><trkpt lat="44.902231610625456" lon="5.567283189928899"><ele>1196.0</ele><time>2026-04-25T09:06:09Z</time></trkpt><trkpt lat="44.902189183146085" lon="5.567196940407684"><ele>1196.0</ele><time>2026-04-25T09:06:10Z</time></trkpt><trkpt lat="44.90214785668226" lon="5.567104000719684"><ele>1196.0</ele><time>2026-04-25T09:06:11Z</time></trkpt><trkpt lat="44.90210183872272" lon="5.5670083315525485"><ele>1196.0</ele><time>2026-04-25T09:06:12Z</time></trkpt><trkpt lat="44.90204040341311" lon="5.566927634377536"><ele>1196.0</ele><time>2026-04-25T09:06:13Z</time></trkpt><trkpt lat="44.90199158885506" lon="5.566830829061912"><ele>1196.0</ele><time>2026-04-25T09:06:14Z</time></trkpt><trkpt lat="44.901937652923124" lon="5.566745877118882"><ele>1195.5</ele><time>2026-04-25T09:06:15Z</time></trkpt><trkpt lat="44.9018782750205" lon="5.56666996520931"><ele>1195.0</ele><time>2026-04-25T09:06:16Z</time></trkpt><trkpt lat="44.901804956467544" lon="5.566609349517753"><ele>1194.5</ele><time>2026-04-25T09:06:17Z</time></trkpt><trkpt lat="44.90172756803693" lon="5.5665801265075325"><ele>1194.0</ele><time>2026-04-25T09:06:18Z</time></trkpt><trkpt lat="44.90165122688482" lon="5.566553347685345"><ele>1193.5</ele><time>2026-04-25T09:06:19Z</time></trkpt><trkpt lat="44.90157394179662" lon="5.56651868289787"><ele>1193.0</ele><time>2026-04-25T09:06:20Z</time></trkpt><trkpt lat="44.90149067437615" lon="5.56648025582469"><ele>1195.0</ele><time>2026-04-25T09:06:21Z</time></trkpt><trkpt lat="44.901407927106945" lon="5.5664393916222625"><ele>1197.0</ele><time>2026-04-25T09:06:22Z</time></trkpt><trkpt lat="44.90131825464233" lon="5.566406936161947"><ele>1199.0</ele><time>2026-04-25T09:06:23Z</time></trkpt><trkpt lat="44.901250242835964" lon="5.5664011450654955"><ele>1201.0</ele><time>2026-04-25T09:06:24Z</time></trkpt><trkpt lat="44.90112265045882" lon="5.566370032877124"><ele>1203.0</ele><time>2026-04-25T09:06:26Z</time></trkpt><trkpt lat="44.901045512682586" lon="5.566401013960048"><ele>1203.0</ele><time>2026-04-25T09:06:27Z</time></trkpt><trkpt lat="44.900955534946455" lon="5.566439556596002"><ele>1203.0</ele><time>2026-04-25T09:06:28Z</time></trkpt><trkpt lat="44.900869785834196" lon="5.566454835468332"><ele>1203.0</ele><time>2026-04-25T09:06:29Z</time></trkpt><trkpt lat="44.90078344179731" lon="5.566448372747885"><ele>1203.0</ele><time>2026-04-25T09:06:30Z</time></trkpt><trkpt lat="44.900699436046885" lon="5.566434987861819"><ele>1203.0</ele><time>2026-04-25T09:06:31Z</time></trkpt><trkpt lat="44.90061259568101" lon="5.566423114456961"><ele>1203.0</ele><time>2026-04-25T09:06:32Z</time></trkpt><trkpt lat="44.90052428274436" lon="5.566417292734392"><ele>1204.2</ele><time>2026-04-25T09:06:33Z</time></trkpt><trkpt lat="44.90043533509482" lon="5.5664141099163436"><ele>1205.4</ele><time>2026-04-25T09:06:34Z</time></trkpt><trkpt lat="44.90036244283035" lon="5.566398092697454"><ele>1206.6000000000001</ele><time>2026-04-25T09:06:35Z</time></trkpt><trkpt lat="44.90027073166525" lon="5.566394334401482"><ele>1207.8</ele><time>2026-04-25T09:06:36Z</time></trkpt><trkpt lat="44.90015408736138" lon="5.566509772683402"><ele>1209.0</ele><time>2026-04-25T09:06:38Z</time></trkpt><trkpt lat="44.900091613005024" lon="5.566595376241458"><ele>1211.25</ele><time>2026-04-25T09:06:39Z</time></trkpt><trkpt lat="44.900055204771824" lon="5.566744367522014"><ele>1213.5</ele><time>2026-04-25T09:06:39.999Z</time></trkpt><trkpt lat="44.89998112099619" lon="5.566889933237319"><ele>1215.75</ele><time>2026-04-25T09:06:40.999Z</time></trkpt><trkpt lat="44.899897465701116" lon="5.566996251554968"><ele>1218.0</ele><time>2026-04-25T09:06:41.999Z</time></trkpt><trkpt lat="44.899787488304334" lon="5.567004707347345"><ele>1218.0</ele><time>2026-04-25T09:06:42.999Z</time></trkpt><trkpt lat="44.89967254818391" lon="5.5669780221341725"><ele>1218.0</ele><time>2026-04-25T09:06:43.999Z</time></trkpt><trkpt lat="44.89952188861462" lon="5.5669497900869995"><ele>1218.0</ele><time>2026-04-25T09:06:44.999Z</time></trkpt><trkpt lat="44.899345862372165" lon="5.566923979394698"><ele>1218.0</ele><time>2026-04-25T09:06:45.999Z</time></trkpt><trkpt lat="44.899138842033885" lon="5.566894883816109"><ele>1221.3333333333333</ele><time>2026-04-25T09:06:46.999Z</time></trkpt><trkpt lat="44.89892816385889" lon="5.566894093615297"><ele>1224.6666666666665</ele><time>2026-04-25T09:06:47.999Z</time></trkpt><trkpt lat="44.89872032325579" lon="5.566886226123403"><ele>1228.0</ele><time>2026-04-25T09:06:48.999Z</time></trkpt><trkpt lat="44.898508194616724" lon="5.566918292022101"><ele>1230.0</ele><time>2026-04-25T09:06:49.999Z</time></trkpt><trkpt lat="44.89829176095775" lon="5.566935703001835"><ele>1232.0</ele><time>2026-04-25T09:06:50.999Z</time></trkpt><trkpt lat="44.898074442519395" lon="5.56691407737321"><ele>1234.0</ele><time>2026-04-25T09:06:51.999Z</time></trkpt><trkpt lat="44.89784444950665" lon="5.566923398412341"><ele>1234.0</ele><time>2026-04-25T09:06:52.999Z</time></trkpt><trkpt lat="44.89762574304584" lon="5.5669433692510415"><ele>1234.0</ele><time>2026-04-25T09:06:53.999Z</time></trkpt><trkpt lat="44.89742962348374" lon="5.566966535780116"><ele>1234.0</ele><time>2026-04-25T09:06:54.999Z</time></trkpt><trkpt lat="44.89723874651563" lon="5.567001813429957"><ele>1237.0</ele><time>2026-04-25T09:06:55.999Z</time></trkpt><trkpt lat="44.897040986946536" lon="5.566965567144399"><ele>1240.0</ele><time>2026-04-25T09:06:56.999Z</time></trkpt><trkpt lat="44.8968531658653" lon="5.566921529606965"><ele>1243.0</ele><time>2026-04-25T09:06:57.999Z</time></trkpt><trkpt lat="44.89668895236253" lon="5.566888573435962"><ele>1246.25</ele><time>2026-04-25T09:06:58.999Z</time></trkpt><trkpt lat="44.89654053338677" lon="5.56683060917713"><ele>1249.5</ele><time>2026-04-25T09:06:59.999Z</time></trkpt><trkpt lat="44.89642180153805" lon="5.5667649976306075"><ele>1252.75</ele><time>2026-04-25T09:07:00.999Z</time></trkpt><trkpt lat="44.896335701472665" lon="5.566635207821268"><ele>1256.0</ele><time>2026-04-25T09:07:01.999Z</time></trkpt><trkpt lat="44.89624466235371" lon="5.566530286803311"><ele>1256.0</ele><time>2026-04-25T09:07:02.999Z</time></trkpt><trkpt lat="44.89617477939857" lon="5.566455154880875"><ele>1256.0</ele><time>2026-04-25T09:07:03.999Z</time></trkpt><trkpt lat="44.89611160177292" lon="5.5664192670502795"><ele>1256.0</ele><time>2026-04-25T09:07:04.999Z</time></trkpt><trkpt lat="44.895991834601595" lon="5.566492548586029"><ele>1256.0</ele><time>2026-04-25T09:07:06.999Z</time></trkpt><trkpt lat="44.89595050738779" lon="5.56657260793879"><ele>1256.0</ele><time>2026-04-25T09:07:07.999Z</time></trkpt><trkpt lat="44.89598485609314" lon="5.566690449674789"><ele>1256.0</ele><time>2026-04-25T09:07:08.999Z</time></trkpt><trkpt lat="44.8960930088318" lon="5.566815147993161"><ele>1256.0</ele><time>2026-04-25T09:07:09.999Z</time></trkpt><trkpt lat="44.89619289555409" lon="5.56691887606411"><ele>1256.0</ele><time>2026-04-25T09:07:10.999Z</time></trkpt><trkpt lat="44.89629551846238" lon="5.5670392052137485"><ele>1256.0</ele><time>2026-04-25T09:07:11.999Z</time></trkpt><trkpt lat="44.896404984917645" lon="5.567180629404148"><ele>1256.0</ele><time>2026-04-25T09:07:12.999Z</time></trkpt><trkpt lat="44.896481119483056" lon="5.567297317877872"><ele>1257.2</ele><time>2026-04-25T09:07:13.999Z</time></trkpt><trkpt lat="44.89654999058165" lon="5.567393911143144"><ele>1258.3999999999999</ele><time>2026-04-25T09:07:14.999Z</time></trkpt><trkpt lat="44.89659551115551" lon="5.567500594860753"><ele>1259.6</ele><time>2026-04-25T09:07:15.999Z</time></trkpt><trkpt lat="44.89659594276408" lon="5.5676777859467546"><ele>1260.8</ele><time>2026-04-25T09:07:16.999Z</time></trkpt><trkpt lat="44.896559140552824" lon="5.5678181341581885"><ele>1262.0</ele><time>2026-04-25T09:07:17.999Z</time></trkpt><trkpt lat="44.896462675409396" lon="5.567899254265958"><ele>1262.3333333333335</ele><time>2026-04-25T09:07:18.999Z</time></trkpt><trkpt lat="44.896346099836855" lon="5.567985978919776"><ele>1262.6666666666667</ele><time>2026-04-25T09:07:19.999Z</time></trkpt><trkpt lat="44.89621568051521" lon="5.5681106810646135"><ele>1263.0</ele><time>2026-04-25T09:07:20.999Z</time></trkpt><trkpt lat="44.896061735576914" lon="5.568266817994281"><ele>1263.0</ele><time>2026-04-25T09:07:21.999Z</time></trkpt><trkpt lat="44.895927543333" lon="5.568428999104362"><ele>1263.0</ele><time>2026-04-25T09:07:22.999Z</time></trkpt><trkpt lat="44.89582694369391" lon="5.568602587456639"><ele>1263.0</ele><time>2026-04-25T09:07:23.999Z</time></trkpt><trkpt lat="44.8957628767445" lon="5.568780560125791"><ele>1264.5</ele><time>2026-04-25T09:07:24.999Z</time></trkpt><trkpt lat="44.89570444464001" lon="5.5689339633788535"><ele>1266.0</ele><time>2026-04-25T09:07:25.999Z</time></trkpt><trkpt lat="44.895612246430886" lon="5.569009624627816"><ele>1267.5</ele><time>2026-04-25T09:07:26.999Z</time></trkpt><trkpt lat="44.89548875592308" lon="5.568991802133645"><ele>1269.0</ele><time>2026-04-25T09:07:27.999Z</time></trkpt><trkpt lat="44.895347779120705" lon="5.568926946847161"><ele>1269.0</ele><time>2026-04-25T09:07:28.999Z</time></trkpt><trkpt lat="44.895155993317786" lon="5.568865085588994"><ele>1269.0</ele><time>2026-04-25T09:07:29.999Z</time></trkpt><trkpt lat="44.89497981699264" lon="5.568824651222152"><ele>1269.0</ele><time>2026-04-25T09:07:30.999Z</time></trkpt><trkpt lat="44.894857751775184" lon="5.568733962151569"><ele>1272.5</ele><time>2026-04-25T09:07:31.999Z</time></trkpt><trkpt lat="44.894771153961855" lon="5.56861628159371"><ele>1276.0</ele><time>2026-04-25T09:07:32.999Z</time></trkpt><trkpt lat="44.8947367511314" lon="5.5684463620062"><ele>1279.5</ele><time>2026-04-25T09:07:33.999Z</time></trkpt><trkpt lat="44.89471603339291" lon="5.568239583898957"><ele>1283.0</ele><time>2026-04-25T09:07:34.999Z</time></trkpt><trkpt lat="44.89466154904243" lon="5.568010003933496"><ele>1282.3333333333335</ele><time>2026-04-25T09:07:35.999Z</time></trkpt><trkpt lat="44.89457331109963" lon="5.567789604686085"><ele>1281.6666666666667</ele><time>2026-04-25T09:07:36.999Z</time></trkpt><trkpt lat="44.89447356551215" lon="5.567601957767178"><ele>1281.0</ele><time>2026-04-25T09:07:37.998Z</time></trkpt><trkpt lat="44.89438873956738" lon="5.5674595564423335"><ele>1281.0</ele><time>2026-04-25T09:07:38.998Z</time></trkpt><trkpt lat="44.89433403369695" lon="5.567338115988186"><ele>1281.0</ele><time>2026-04-25T09:07:39.998Z</time></trkpt><trkpt lat="44.894232647075164" lon="5.567325490678235"><ele>1281.0</ele><time>2026-04-25T09:07:40.998Z</time></trkpt><trkpt lat="44.89412922421638" lon="5.567387888759885"><ele>1281.0</ele><time>2026-04-25T09:07:41.998Z</time></trkpt><trkpt lat="44.89402216025859" lon="5.567453905574576"><ele>1281.0</ele><time>2026-04-25T09:07:42.998Z</time></trkpt><trkpt lat="44.89389787951621" lon="5.567508840817298"><ele>1283.6666666666667</ele><time>2026-04-25T09:07:43.998Z</time></trkpt><trkpt lat="44.89374283333349" lon="5.5675404365007175"><ele>1286.3333333333335</ele><time>2026-04-25T09:07:44.998Z</time></trkpt><trkpt lat="44.89357031026758" lon="5.567547167787817"><ele>1289.0</ele><time>2026-04-25T09:07:45.998Z</time></trkpt><trkpt lat="44.893374100606884" lon="5.567520514768494"><ele>1292.0</ele><time>2026-04-25T09:07:46.998Z</time></trkpt><trkpt lat="44.89319111134191" lon="5.567560435446193"><ele>1295.0</ele><time>2026-04-25T09:07:47.998Z</time></trkpt><trkpt lat="44.892973959839246" lon="5.567627409543308"><ele>1298.0</ele><time>2026-04-25T09:07:48.998Z</time></trkpt><trkpt lat="44.892750484517826" lon="5.567659325718728"><ele>1306.0</ele><time>2026-04-25T09:07:49.998Z</time></trkpt><trkpt lat="44.89252404155694" lon="5.567652045483589"><ele>1314.0</ele><time>2026-04-25T09:07:50.998Z</time></trkpt><trkpt lat="44.892280747729465" lon="5.567662260959247"><ele>1314.0</ele><time>2026-04-25T09:07:51.998Z</time></trkpt><trkpt lat="44.892042222568314" lon="5.567701271932129"><ele>1314.0</ele><time>2026-04-25T09:07:52.998Z</time></trkpt><trkpt lat="44.89180479405569" lon="5.567751724049604"><ele>1317.3333333333333</ele><time>2026-04-25T09:07:53.998Z</time></trkpt><trkpt lat="44.89157893206724" lon="5.567786176307001"><ele>1320.6666666666665</ele><time>2026-04-25T09:07:54.998Z</time></trkpt><trkpt lat="44.891364141809994" lon="5.567802399166225"><ele>1324.0</ele><time>2026-04-25T09:07:55.998Z</time></trkpt><trkpt lat="44.89115262799324" lon="5.567805393793287"><ele>1324.0</ele><time>2026-04-25T09:07:56.998Z</time></trkpt><trkpt lat="44.89095152145265" lon="5.567790774283522"><ele>1324.0</ele><time>2026-04-25T09:07:57.998Z</time></trkpt><trkpt lat="44.89076316927923" lon="5.567758203960347"><ele>1324.0</ele><time>2026-04-25T09:07:58.998Z</time></trkpt><trkpt lat="44.89061264395976" lon="5.56770828986954"><ele>1323.25</ele><time>2026-04-25T09:08:00Z</time></trkpt><trkpt lat="44.890503290777744" lon="5.56764498857146"><ele>1322.5</ele><time>2026-04-25T09:08:01Z</time></trkpt><trkpt lat="44.89043906054214" lon="5.567538356658652"><ele>1321.75</ele><time>2026-04-25T09:08:02Z</time></trkpt><trkpt lat="44.89040004371069" lon="5.567371237819803"><ele>1321.0</ele><time>2026-04-25T09:08:03Z</time></trkpt><trkpt lat="44.8903409048822" lon="5.567234540260683"><ele>1321.0</ele><time>2026-04-25T09:08:04Z</time></trkpt><trkpt lat="44.890269376292444" lon="5.567088505427632"><ele>1321.0</ele><time>2026-04-25T09:08:05Z</time></trkpt><trkpt lat="44.89017107263021" lon="5.567022667216456"><ele>1321.0</ele><time>2026-04-25T09:08:06Z</time></trkpt><trkpt lat="44.89006041684331" lon="5.567041887427999"><ele>1321.0</ele><time>2026-04-25T09:08:07Z</time></trkpt><trkpt lat="44.889960656784794" lon="5.567122578575352"><ele>1318.25</ele><time>2026-04-25T09:08:08Z</time></trkpt><trkpt lat="44.88989181227845" lon="5.567262118973862"><ele>1315.5</ele><time>2026-04-25T09:08:09Z</time></trkpt><trkpt lat="44.88983871747348" lon="5.567416038989182"><ele>1312.75</ele><time>2026-04-25T09:08:10Z</time></trkpt><trkpt lat="44.88975059588864" lon="5.567502411362101"><ele>1310.0</ele><time>2026-04-25T09:08:11Z</time></trkpt><trkpt lat="44.889622416708534" lon="5.56748624736066"><ele>1310.0</ele><time>2026-04-25T09:08:12Z</time></trkpt><trkpt lat="44.889479728061914" lon="5.567461261187391"><ele>1310.0</ele><time>2026-04-25T09:08:13Z</time></trkpt><trkpt lat="44.88932637885221" lon="5.56746518883472"><ele>1310.0</ele><time>2026-04-25T09:08:14Z</time></trkpt><trkpt lat="44.88919163135113" lon="5.567452690603285"><ele>1310.0</ele><time>2026-04-25T09:08:15Z</time></trkpt><trkpt lat="44.88906737338262" lon="5.56740233317343"><ele>1309.75</ele><time>2026-04-25T09:08:16Z</time></trkpt><trkpt lat="44.888981316432556" lon="5.56725331438081"><ele>1309.5</ele><time>2026-04-25T09:08:17Z</time></trkpt><trkpt lat="44.88887301458215" lon="5.567121929422618"><ele>1309.25</ele><time>2026-04-25T09:08:18Z</time></trkpt><trkpt lat="44.88878287488831" lon="5.567041158186383"><ele>1309.0</ele><time>2026-04-25T09:08:19Z</time></trkpt><trkpt lat="44.88865555044588" lon="5.56708459309161"><ele>1309.0</ele><time>2026-04-25T09:08:20Z</time></trkpt><trkpt lat="44.88853362481489" lon="5.56706941026896"><ele>1309.0</ele><time>2026-04-25T09:08:21Z</time></trkpt><trkpt lat="44.88841362469556" lon="5.56698219637458"><ele>1309.0</ele><time>2026-04-25T09:08:22Z</time></trkpt><trkpt lat="44.88828451347551" lon="5.566889648150607"><ele>1309.0</ele><time>2026-04-25T09:08:23Z</time></trkpt><trkpt lat="44.88816403877893" lon="5.566794455823704"><ele>1311.8000000000002</ele><time>2026-04-25T09:08:24Z</time></trkpt><trkpt lat="44.88811044681436" lon="5.566634307716753"><ele>1314.6000000000001</ele><time>2026-04-25T09:08:25Z</time></trkpt><trkpt lat="44.888053579404094" lon="5.566530372163196"><ele>1317.4</ele><time>2026-04-25T09:08:26Z</time></trkpt><trkpt lat="44.88794475017547" lon="5.566482236489645"><ele>1320.2</ele><time>2026-04-25T09:08:28Z</time></trkpt><trkpt lat="44.887868503876014" lon="5.566520089230251"><ele>1323.0</ele><time>2026-04-25T09:08:29Z</time></trkpt><trkpt lat="44.8878036913533" lon="5.566641644394754"><ele>1323.0</ele><time>2026-04-25T09:08:30Z</time></trkpt><trkpt lat="44.88779638894019" lon="5.566832048667576"><ele>1323.0</ele><time>2026-04-25T09:08:31Z</time></trkpt><trkpt lat="44.887746198201356" lon="5.566971997123809"><ele>1323.0</ele><time>2026-04-25T09:08:32Z</time></trkpt><trkpt lat="44.887644230371784" lon="5.567093858140633"><ele>1323.0</ele><time>2026-04-25T09:08:33Z</time></trkpt><trkpt lat="44.88754024268551" lon="5.567204088959192"><ele>1321.5</ele><time>2026-04-25T09:08:34Z</time></trkpt><trkpt lat="44.887415825622554" lon="5.567258158929386"><ele>1320.0</ele><time>2026-04-25T09:08:35Z</time></trkpt><trkpt lat="44.88726524768828" lon="5.5673012962864705"><ele>1318.5</ele><time>2026-04-25T09:08:36Z</time></trkpt><trkpt lat="44.887128292930996" lon="5.567308360241702"><ele>1317.0</ele><time>2026-04-25T09:08:37Z</time></trkpt><trkpt lat="44.886990948336866" lon="5.567237758616259"><ele>1317.0</ele><time>2026-04-25T09:08:38Z</time></trkpt><trkpt lat="44.886838857615885" lon="5.567134292222083"><ele>1317.0</ele><time>2026-04-25T09:08:39Z</time></trkpt><trkpt lat="44.886681461452554" lon="5.567049432996678"><ele>1317.0</ele><time>2026-04-25T09:08:40Z</time></trkpt><trkpt lat="44.88654886675035" lon="5.566982980086065"><ele>1318.5</ele><time>2026-04-25T09:08:41Z</time></trkpt><trkpt lat="44.88640420108729" lon="5.567000938401311"><ele>1320.0</ele><time>2026-04-25T09:08:42Z</time></trkpt><trkpt lat="44.88626075319235" lon="5.567065126783071"><ele>1321.5</ele><time>2026-04-25T09:08:43Z</time></trkpt><trkpt lat="44.88611680646363" lon="5.567131170949031"><ele>1323.0</ele><time>2026-04-25T09:08:44Z</time></trkpt><trkpt lat="44.885959243191365" lon="5.567167342687945"><ele>1326.3333333333333</ele><time>2026-04-25T09:08:44.999Z</time></trkpt><trkpt lat="44.8858031969473" lon="5.567191809775142"><ele>1329.6666666666665</ele><time>2026-04-25T09:08:45.999Z</time></trkpt><trkpt lat="44.88564762560891" lon="5.567196088199737"><ele>1333.0</ele><time>2026-04-25T09:08:46.999Z</time></trkpt><trkpt lat="44.88548612288916" lon="5.567187480513956"><ele>1333.0</ele><time>2026-04-25T09:08:47.999Z</time></trkpt><trkpt lat="44.88532027574931" lon="5.567188322141038"><ele>1333.0</ele><time>2026-04-25T09:08:48.999Z</time></trkpt><trkpt lat="44.88515287910476" lon="5.567130353846437"><ele>1333.0</ele><time>2026-04-25T09:08:49.999Z</time></trkpt><trkpt lat="44.884981042949526" lon="5.567094197749124"><ele>1336.6666666666665</ele><time>2026-04-25T09:08:50.999Z</time></trkpt><trkpt lat="44.88479443363406" lon="5.567055311020031"><ele>1340.3333333333333</ele><time>2026-04-25T09:08:51.999Z</time></trkpt><trkpt lat="44.88461405407904" lon="5.567018215525922"><ele>1344.0</ele><time>2026-04-25T09:08:52.999Z</time></trkpt><trkpt lat="44.88444009219023" lon="5.567004043967971"><ele>1345.6666666666667</ele><time>2026-04-25T09:08:53.999Z</time></trkpt><trkpt lat="44.88425449305814" lon="5.566988438490882"><ele>1347.3333333333335</ele><time>2026-04-25T09:08:54.999Z</time></trkpt><trkpt lat="44.88406333668738" lon="5.567026932413832"><ele>1349.0</ele><time>2026-04-25T09:08:55.999Z</time></trkpt><trkpt lat="44.88386426324697" lon="5.567094967785957"><ele>1349.0</ele><time>2026-04-25T09:08:56.999Z</time></trkpt><trkpt lat="44.88367429754461" lon="5.567115979774877"><ele>1349.0</ele><time>2026-04-25T09:08:57.999Z</time></trkpt><trkpt lat="44.88347425001323" lon="5.567093195511712"><ele>1349.0</ele><time>2026-04-25T09:08:58.999Z</time></trkpt><trkpt lat="44.883261012710136" lon="5.567056363329319"><ele>1355.0</ele><time>2026-04-25T09:08:59.999Z</time></trkpt><trkpt lat="44.88305129728768" lon="5.567020139457124"><ele>1361.0</ele><time>2026-04-25T09:09:00.999Z</time></trkpt><trkpt lat="44.88286244588861" lon="5.567009699782332"><ele>1367.0</ele><time>2026-04-25T09:09:01.999Z</time></trkpt><trkpt lat="44.88269277108625" lon="5.566981261333828"><ele>1364.5</ele><time>2026-04-25T09:09:02.999Z</time></trkpt><trkpt lat="44.88253862526535" lon="5.566931059351404"><ele>1362.0</ele><time>2026-04-25T09:09:03.999Z</time></trkpt><trkpt lat="44.88239489962542" lon="5.566907013001282"><ele>1359.5</ele><time>2026-04-25T09:09:04.999Z</time></trkpt><trkpt lat="44.882267544224455" lon="5.566887054187807"><ele>1357.0</ele><time>2026-04-25T09:09:05.999Z</time></trkpt><trkpt lat="44.88216640218478" lon="5.566871130036606"><ele>1357.0</ele><time>2026-04-25T09:09:06.999Z</time></trkpt><trkpt lat="44.882091690409176" lon="5.5668841764869"><ele>1357.0</ele><time>2026-04-25T09:09:07.999Z</time></trkpt><trkpt lat="44.88200457691663" lon="5.566853195355622"><ele>1357.0</ele><time>2026-04-25T09:09:09.999Z</time></trkpt><trkpt lat="44.88192803660853" lon="5.566842575812433"><ele>1357.0</ele><time>2026-04-25T09:09:12.999Z</time></trkpt><trkpt lat="44.88185778741297" lon="5.566831733833298"><ele>1357.0</ele><time>2026-04-25T09:11:12.999Z</time></trkpt><trkpt lat="44.88178218224107" lon="5.566863968031501"><ele>1357.0</ele><time>2026-04-25T09:11:15.999Z</time></trkpt><trkpt lat="44.88171312490832" lon="5.566920887075895"><ele>1357.5</ele><time>2026-04-25T09:11:17.999Z</time></trkpt><trkpt lat="44.881620846260404" lon="5.567000842091273"><ele>1358.0</ele><time>2026-04-25T09:11:19.999Z</time></trkpt><trkpt lat="44.881558746715264" lon="5.567031567498137"><ele>1358.5</ele><time>2026-04-25T09:11:20.999Z</time></trkpt><trkpt lat="44.881487852371954" lon="5.567063203758131"><ele>1359.0</ele><time>2026-04-25T09:11:21.999Z</time></trkpt><trkpt lat="44.88140774240615" lon="5.567077419565544"><ele>1359.5</ele><time>2026-04-25T09:11:22.999Z</time></trkpt><trkpt lat="44.88132157315681" lon="5.567072399909636"><ele>1360.0</ele><time>2026-04-25T09:11:23.999Z</time></trkpt><trkpt lat="44.881231424769" lon="5.567044440757555"><ele>1357.8</ele><time>2026-04-25T09:11:24.999Z</time></trkpt><trkpt lat="44.88113678913915" lon="5.5670091847362215"><ele>1355.6</ele><time>2026-04-25T09:11:25.999Z</time></trkpt><trkpt lat="44.88103900597661" lon="5.566985103403238"><ele>1353.4</ele><time>2026-04-25T09:11:26.999Z</time></trkpt><trkpt lat="44.88093433573633" lon="5.566981786136483"><ele>1351.2</ele><time>2026-04-25T09:11:27.999Z</time></trkpt><trkpt lat="44.880822026864315" lon="5.56698524500583"><ele>1349.0</ele><time>2026-04-25T09:11:28.999Z</time></trkpt><trkpt lat="44.88069989332087" lon="5.566979407210782"><ele>1346.0</ele><time>2026-04-25T09:11:29.999Z</time></trkpt><trkpt lat="44.88057424152096" lon="5.566959405242565"><ele>1343.0</ele><time>2026-04-25T09:11:30.999Z</time></trkpt><trkpt lat="44.88045508352733" lon="5.566913753816451"><ele>1340.0</ele><time>2026-04-25T09:11:31.999Z</time></trkpt><trkpt lat="44.88033511238122" lon="5.566897722471782"><ele>1337.0</ele><time>2026-04-25T09:11:32.999Z</time></trkpt><trkpt lat="44.8802186360993" lon="5.566917088304391"><ele>1335.5</ele><time>2026-04-25T09:11:33.999Z</time></trkpt><trkpt lat="44.880099213416294" lon="5.566899241071665"><ele>1334.0</ele><time>2026-04-25T09:11:34.999Z</time></trkpt><trkpt lat="44.879980332594684" lon="5.566864310687531"><ele>1332.5</ele><time>2026-04-25T09:11:35.999Z</time></trkpt><trkpt lat="44.879843180212056" lon="5.5667902392272435"><ele>1331.0</ele><time>2026-04-25T09:11:36.999Z</time></trkpt><trkpt lat="44.87971504675519" lon="5.566718318051151"><ele>1331.0</ele><time>2026-04-25T09:11:37.999Z</time></trkpt><trkpt lat="44.87958312071981" lon="5.5666651505926374"><ele>1331.0</ele><time>2026-04-25T09:11:38.999Z</time></trkpt><trkpt lat="44.87944447944236" lon="5.566647125696931"><ele>1331.0</ele><time>2026-04-25T09:11:39.999Z</time></trkpt><trkpt lat="44.879319079300245" lon="5.566688197923222"><ele>1331.0</ele><time>2026-04-25T09:11:40.999Z</time></trkpt><trkpt lat="44.87920446214412" lon="5.566765638999155"><ele>1329.5</ele><time>2026-04-25T09:11:41.999Z</time></trkpt><trkpt lat="44.879090529751934" lon="5.566864474301141"><ele>1328.0</ele><time>2026-04-25T09:11:42.999Z</time></trkpt><trkpt lat="44.878966909727936" lon="5.566946244421562"><ele>1326.5</ele><time>2026-04-25T09:11:43.999Z</time></trkpt><trkpt lat="44.87881783533049" lon="5.566928326693713"><ele>1325.0</ele><time>2026-04-25T09:11:44.998Z</time></trkpt><trkpt lat="44.87866637738734" lon="5.566909983868816"><ele>1325.0</ele><time>2026-04-25T09:11:45.998Z</time></trkpt><trkpt lat="44.87852093877215" lon="5.566899589094731"><ele>1325.0</ele><time>2026-04-25T09:11:46.998Z</time></trkpt><trkpt lat="44.87835762758741" lon="5.566830667453801"><ele>1325.0</ele><time>2026-04-25T09:11:47.998Z</time></trkpt><trkpt lat="44.8781849666623" lon="5.566745599913892"><ele>1322.3333333333335</ele><time>2026-04-25T09:11:48.998Z</time></trkpt><trkpt lat="44.87800398938889" lon="5.566662871451685"><ele>1319.6666666666667</ele><time>2026-04-25T09:11:49.998Z</time></trkpt><trkpt lat="44.87781305562715" lon="5.5666037725598985"><ele>1317.0</ele><time>2026-04-25T09:11:50.998Z</time></trkpt><trkpt lat="44.87763009147562" lon="5.566570270803605"><ele>1315.0</ele><time>2026-04-25T09:11:51.998Z</time></trkpt><trkpt lat="44.87745303423825" lon="5.566547884553066"><ele>1313.0</ele><time>2026-04-25T09:11:52.998Z</time></trkpt><trkpt lat="44.877278258651565" lon="5.566519031305307"><ele>1311.0</ele><time>2026-04-25T09:11:53.998Z</time></trkpt><trkpt lat="44.87710667705241" lon="5.566487752669172"><ele>1311.0</ele><time>2026-04-25T09:11:54.998Z</time></trkpt><trkpt lat="44.87694042640727" lon="5.566413126274864"><ele>1311.0</ele><time>2026-04-25T09:11:55.998Z</time></trkpt><trkpt lat="44.87679382068697" lon="5.566338801446858"><ele>1311.0</ele><time>2026-04-25T09:11:56.998Z</time></trkpt><trkpt lat="44.876542774646865" lon="5.56618876083516"><ele>1302.0</ele><time>2026-04-25T09:11:57.998Z</time></trkpt><trkpt lat="44.876358881730866" lon="5.566108928343664"><ele>1293.0</ele><time>2026-04-25T09:11:58.998Z</time></trkpt><trkpt lat="44.876169685099306" lon="5.566037167203116"><ele>1284.0</ele><time>2026-04-25T09:11:59.998Z</time></trkpt><trkpt lat="44.87597742649377" lon="5.565958878548256"><ele>1284.0</ele><time>2026-04-25T09:12:00.998Z</time></trkpt><trkpt lat="44.87579033659412" lon="5.565887251147459"><ele>1284.0</ele><time>2026-04-25T09:12:01.998Z</time></trkpt><trkpt lat="44.87561257407787" lon="5.56582726031025"><ele>1284.0</ele><time>2026-04-25T09:12:02.998Z</time></trkpt><trkpt lat="44.87545523644589" lon="5.565782415603848"><ele>1284.0</ele><time>2026-04-25T09:12:03.998Z</time></trkpt><trkpt lat="44.87532149965683" lon="5.565765859714261"><ele>1284.0</ele><time>2026-04-25T09:12:04.998Z</time></trkpt><trkpt lat="44.875218986443855" lon="5.565801041742991"><ele>1284.0</ele><time>2026-04-25T09:12:05.998Z</time></trkpt><trkpt lat="44.8751346082532" lon="5.565859508578468"><ele>1284.0</ele><time>2026-04-25T09:12:06.998Z</time></trkpt><trkpt lat="44.875026554472" lon="5.565882089042574"><ele>1284.0</ele><time>2026-04-25T09:12:08.998Z</time></trkpt><trkpt lat="44.87498516701453" lon="5.565743891768922"><ele>1284.0</ele><time>2026-04-25T09:12:10.998Z</time></trkpt><trkpt lat="44.87507138313507" lon="5.565689704896511"><ele>1284.0</ele><time>2026-04-25T09:12:12Z</time></trkpt><trkpt lat="44.87513913325898" lon="5.565672079908167"><ele>1284.0</ele><time>2026-04-25T09:12:13Z</time></trkpt><trkpt lat="44.87522516709714" lon="5.565638576748723"><ele>1284.0</ele><time>2026-04-25T09:12:14Z</time></trkpt><trkpt lat="44.87533511882961" lon="5.56560379494848"><ele>1284.0</ele><time>2026-04-25T09:12:15Z</time></trkpt><trkpt lat="44.87546643664359" lon="5.565566718082489"><ele>1284.0</ele><time>2026-04-25T09:12:16Z</time></trkpt><trkpt lat="44.875610333583495" lon="5.565533837690992"><ele>1284.0</ele><time>2026-04-25T09:12:17Z</time></trkpt><trkpt lat="44.875757960393955" lon="5.565502667373587"><ele>1284.0</ele><time>2026-04-25T09:12:18Z</time></trkpt><trkpt lat="44.87591038730496" lon="5.56547854910525"><ele>1284.0</ele><time>2026-04-25T09:12:19Z</time></trkpt><trkpt lat="44.87611137575815" lon="5.565449905400169"><ele>1284.0</ele><time>2026-04-25T09:12:20Z</time></trkpt><trkpt lat="44.876259576865614" lon="5.56540137268384"><ele>1284.0</ele><time>2026-04-25T09:12:21Z</time></trkpt><trkpt lat="44.87640920198419" lon="5.565356280963208"><ele>1284.0</ele><time>2026-04-25T09:12:22Z</time></trkpt><trkpt lat="44.87656219617627" lon="5.565329029079544"><ele>1280.5</ele><time>2026-04-25T09:12:23Z</time></trkpt><trkpt lat="44.87671119908649" lon="5.5652771335627715"><ele>1277.0</ele><time>2026-04-25T09:12:24Z</time></trkpt><trkpt lat="44.8768549596135" lon="5.565217223404941"><ele>1273.5</ele><time>2026-04-25T09:12:25Z</time></trkpt><trkpt lat="44.876980121546055" lon="5.565126467594789"><ele>1270.0</ele><time>2026-04-25T09:12:26Z</time></trkpt><trkpt lat="44.87708311475872" lon="5.565020931447257"><ele>1270.0</ele><time>2026-04-25T09:12:27Z</time></trkpt><trkpt lat="44.8771413652149" lon="5.564864033110648"><ele>1270.0</ele><time>2026-04-25T09:12:28Z</time></trkpt><trkpt lat="44.877162369441976" lon="5.564677042402384"><ele>1270.0</ele><time>2026-04-25T09:12:29Z</time></trkpt><trkpt lat="44.87715471064952" lon="5.564493619368876"><ele>1270.0</ele><time>2026-04-25T09:12:30Z</time></trkpt><trkpt lat="44.87716329566706" lon="5.564297240912386"><ele>1265.3333333333333</ele><time>2026-04-25T09:12:31Z</time></trkpt><trkpt lat="44.87717292680389" lon="5.564081718397995"><ele>1260.6666666666667</ele><time>2026-04-25T09:12:32Z</time></trkpt><trkpt lat="44.87719466028116" lon="5.563853206138756"><ele>1256.0</ele><time>2026-04-25T09:12:33Z</time></trkpt><trkpt lat="44.877226857880736" lon="5.5636170592883545"><ele>1252.3333333333335</ele><time>2026-04-25T09:12:34Z</time></trkpt><trkpt lat="44.87725952492518" lon="5.5633918591178615"><ele>1248.6666666666667</ele><time>2026-04-25T09:12:35Z</time></trkpt><trkpt lat="44.87727610556172" lon="5.563180273514801"><ele>1245.0</ele><time>2026-04-25T09:12:36Z</time></trkpt><trkpt lat="44.87730819512378" lon="5.5629917862998015"><ele>1244.8</ele><time>2026-04-25T09:12:37Z</time></trkpt><trkpt lat="44.877329860390496" lon="5.562815076866439"><ele>1244.6</ele><time>2026-04-25T09:12:38Z</time></trkpt><trkpt lat="44.87733834558721" lon="5.562657939247433"><ele>1244.4</ele><time>2026-04-25T09:12:39Z</time></trkpt><trkpt lat="44.877321045253986" lon="5.56251936387975"><ele>1244.2</ele><time>2026-04-25T09:12:40Z</time></trkpt><trkpt lat="44.877260095686445" lon="5.562406115414178"><ele>1244.0</ele><time>2026-04-25T09:12:41Z</time></trkpt><trkpt lat="44.87715899583831" lon="5.562333855227805"><ele>1244.0</ele><time>2026-04-25T09:12:42Z</time></trkpt><trkpt lat="44.87703355144888" lon="5.562292516772727"><ele>1244.0</ele><time>2026-04-25T09:12:43Z</time></trkpt><trkpt lat="44.87689720653556" lon="5.56225550629148"><ele>1244.0</ele><time>2026-04-25T09:12:44Z</time></trkpt><trkpt lat="44.876749293278294" lon="5.562193900718503"><ele>1244.0</ele><time>2026-04-25T09:12:45Z</time></trkpt><trkpt lat="44.87660115047185" lon="5.562101047271482"><ele>1241.75</ele><time>2026-04-25T09:12:46Z</time></trkpt><trkpt lat="44.876463939792075" lon="5.562006515413806"><ele>1239.5</ele><time>2026-04-25T09:12:47Z</time></trkpt><trkpt lat="44.87632925637718" lon="5.5619146508308495"><ele>1237.25</ele><time>2026-04-25T09:12:48Z</time></trkpt><trkpt lat="44.876198686783724" lon="5.561827557859326"><ele>1235.0</ele><time>2026-04-25T09:12:49Z</time></trkpt><trkpt lat="44.87608054750393" lon="5.561741547896492"><ele>1235.0</ele><time>2026-04-25T09:12:50Z</time></trkpt><trkpt lat="44.87600276716052" lon="5.5616072296517"><ele>1235.0</ele><time>2026-04-25T09:12:51Z</time></trkpt><trkpt lat="44.8759212550983" lon="5.561500161908772"><ele>1235.0</ele><time>2026-04-25T09:12:52Z</time></trkpt><trkpt lat="44.87587329950162" lon="5.561362330395659"><ele>1235.0</ele><time>2026-04-25T09:12:53Z</time></trkpt><trkpt lat="44.87582848523725" lon="5.561235476157051"><ele>1235.0</ele><time>2026-04-25T09:12:54Z</time></trkpt><trkpt lat="44.875766510286766" lon="5.561093891001591"><ele>1231.6666666666667</ele><time>2026-04-25T09:12:55Z</time></trkpt><trkpt lat="44.875687138008914" lon="5.560916837862152"><ele>1228.3333333333333</ele><time>2026-04-25T09:12:55.999Z</time></trkpt><trkpt lat="44.875587863228546" lon="5.560728838529136"><ele>1225.0</ele><time>2026-04-25T09:12:56.999Z</time></trkpt><trkpt lat="44.87548992760893" lon="5.560526094951549"><ele>1227.0</ele><time>2026-04-25T09:12:57.999Z</time></trkpt><trkpt lat="44.87537986746551" lon="5.56034401925959"><ele>1229.0</ele><time>2026-04-25T09:12:58.999Z</time></trkpt><trkpt lat="44.87527428930889" lon="5.5601763806919235"><ele>1231.0</ele><time>2026-04-25T09:12:59.999Z</time></trkpt><trkpt lat="44.87518441584982" lon="5.560014281503473"><ele>1231.0</ele><time>2026-04-25T09:13:00.999Z</time></trkpt><trkpt lat="44.87510459840601" lon="5.559861055189364"><ele>1231.0</ele><time>2026-04-25T09:13:01.999Z</time></trkpt><trkpt lat="44.875048428009336" lon="5.559697620735847"><ele>1231.0</ele><time>2026-04-25T09:13:02.999Z</time></trkpt><trkpt lat="44.87504381356914" lon="5.559528137279481"><ele>1231.0</ele><time>2026-04-25T09:13:03.999Z</time></trkpt><trkpt lat="44.875019213985134" lon="5.559379627926383"><ele>1224.5</ele><time>2026-04-25T09:13:04.999Z</time></trkpt><trkpt lat="44.87498604680676" lon="5.5592416690625095"><ele>1218.0</ele><time>2026-04-25T09:13:05.999Z</time></trkpt><trkpt lat="44.874900026013904" lon="5.559146306778261"><ele>1211.5</ele><time>2026-04-25T09:13:06.999Z</time></trkpt><trkpt lat="44.8747815320744" lon="5.559098688700877"><ele>1205.0</ele><time>2026-04-25T09:13:07.999Z</time></trkpt><trkpt lat="44.874653399357285" lon="5.559070177859484"><ele>1205.0</ele><time>2026-04-25T09:13:08.999Z</time></trkpt><trkpt lat="44.87450887820653" lon="5.559069137774177"><ele>1205.0</ele><time>2026-04-25T09:13:09.999Z</time></trkpt><trkpt lat="44.87435658160387" lon="5.559125458897447"><ele>1205.0</ele><time>2026-04-25T09:13:10.999Z</time></trkpt><trkpt lat="44.87419660393703" lon="5.559229922570651"><ele>1202.6666666666667</ele><time>2026-04-25T09:13:11.999Z</time></trkpt><trkpt lat="44.87403315986891" lon="5.5593304336444085"><ele>1200.3333333333333</ele><time>2026-04-25T09:13:12.999Z</time></trkpt><trkpt lat="44.873868528148236" lon="5.5594022079798195"><ele>1198.0</ele><time>2026-04-25T09:13:13.999Z</time></trkpt><trkpt lat="44.87368653137127" lon="5.559422992258784"><ele>1198.0</ele><time>2026-04-25T09:13:14.999Z</time></trkpt><trkpt lat="44.87352855450894" lon="5.559488320138689"><ele>1198.0</ele><time>2026-04-25T09:13:15.999Z</time></trkpt><trkpt lat="44.87336714017462" lon="5.559499386499873"><ele>1198.0</ele><time>2026-04-25T09:13:16.999Z</time></trkpt><trkpt lat="44.873213892509376" lon="5.5595386622873795"><ele>1197.6666666666665</ele><time>2026-04-25T09:13:17.999Z</time></trkpt><trkpt lat="44.87305791788637" lon="5.5595248139148365"><ele>1197.3333333333333</ele><time>2026-04-25T09:13:18.999Z</time></trkpt><trkpt lat="44.87290731349654" lon="5.559466806624863"><ele>1197.0</ele><time>2026-04-25T09:13:19.999Z</time></trkpt><trkpt lat="44.87277679459542" lon="5.559371082493103"><ele>1197.0</ele><time>2026-04-25T09:13:20.999Z</time></trkpt><trkpt lat="44.87266679498236" lon="5.559248437350195"><ele>1197.0</ele><time>2026-04-25T09:13:21.999Z</time></trkpt><trkpt lat="44.87258713467489" lon="5.559088719395587"><ele>1197.0</ele><time>2026-04-25T09:13:22.999Z</time></trkpt><trkpt lat="44.8725359836676" lon="5.55890902985477"><ele>1197.0</ele><time>2026-04-25T09:13:23.999Z</time></trkpt><trkpt lat="44.87248299030846" lon="5.558735969318139"><ele>1194.0</ele><time>2026-04-25T09:13:24.999Z</time></trkpt><trkpt lat="44.87243535296318" lon="5.558577883385253"><ele>1191.0</ele><time>2026-04-25T09:13:25.999Z</time></trkpt><trkpt lat="44.87236917449699" lon="5.558463543914005"><ele>1188.0</ele><time>2026-04-25T09:13:26.999Z</time></trkpt><trkpt lat="44.87227429023056" lon="5.558403161834435"><ele>1185.0</ele><time>2026-04-25T09:13:27.999Z</time></trkpt><trkpt lat="44.87215722997354" lon="5.558399429384708"><ele>1182.0</ele><time>2026-04-25T09:13:28.999Z</time></trkpt><trkpt lat="44.872037164413086" lon="5.558435496243853"><ele>1182.0</ele><time>2026-04-25T09:13:29.999Z</time></trkpt><trkpt lat="44.87190832375816" lon="5.558483951684814"><ele>1182.0</ele><time>2026-04-25T09:13:30.999Z</time></trkpt><trkpt lat="44.871799215357704" lon="5.558460481308566"><ele>1182.0</ele><time>2026-04-25T09:13:31.999Z</time></trkpt><trkpt lat="44.871696160269586" lon="5.558340422798815"><ele>1182.0</ele><time>2026-04-25T09:13:32.999Z</time></trkpt><trkpt lat="44.87156048341582" lon="5.558235679323102"><ele>1174.0</ele><time>2026-04-25T09:13:33.999Z</time></trkpt><trkpt lat="44.87140291014218" lon="5.5581653880627515"><ele>1166.0</ele><time>2026-04-25T09:13:34.999Z</time></trkpt><trkpt lat="44.87123172033781" lon="5.558115366549652"><ele>1158.0</ele><time>2026-04-25T09:13:35.999Z</time></trkpt><trkpt lat="44.871062751004" lon="5.55806217748728"><ele>1153.0</ele><time>2026-04-25T09:13:36.999Z</time></trkpt><trkpt lat="44.87090676765515" lon="5.558024126197366"><ele>1148.0</ele><time>2026-04-25T09:13:37.999Z</time></trkpt><trkpt lat="44.87074895816397" lon="5.558042360666434"><ele>1143.0</ele><time>2026-04-25T09:13:38.999Z</time></trkpt><trkpt lat="44.87058780793614" lon="5.558113887834188"><ele>1143.0</ele><time>2026-04-25T09:13:39.999Z</time></trkpt><trkpt lat="44.87044212227593" lon="5.558201359247533"><ele>1143.0</ele><time>2026-04-25T09:13:40.999Z</time></trkpt><trkpt lat="44.870306628741396" lon="5.558301838891288"><ele>1143.0</ele><time>2026-04-25T09:13:41.999Z</time></trkpt><trkpt lat="44.87016626676008" lon="5.558337310721019"><ele>1140.5</ele><time>2026-04-25T09:13:42.999Z</time></trkpt><trkpt lat="44.870028955721494" lon="5.558349026249606"><ele>1138.0</ele><time>2026-04-25T09:13:43.999Z</time></trkpt><trkpt lat="44.8699002554864" lon="5.558333889294431"><ele>1135.5</ele><time>2026-04-25T09:13:44.999Z</time></trkpt><trkpt lat="44.86979579081694" lon="5.55822478966751"><ele>1133.0</ele><time>2026-04-25T09:13:45.999Z</time></trkpt><trkpt lat="44.86968534486987" lon="5.558139573251665"><ele>1133.0</ele><time>2026-04-25T09:13:46.999Z</time></trkpt><trkpt lat="44.86958869771716" lon="5.558018606787336"><ele>1133.0</ele><time>2026-04-25T09:13:47.999Z</time></trkpt><trkpt lat="44.869484682586915" lon="5.557891192795041"><ele>1133.0</ele><time>2026-04-25T09:13:48.999Z</time></trkpt><trkpt lat="44.869376921646726" lon="5.557747336870618"><ele>1133.0</ele><time>2026-04-25T09:13:49.999Z</time></trkpt><trkpt lat="44.86926755033141" lon="5.557603027027219"><ele>1133.3333333333335</ele><time>2026-04-25T09:13:50.999Z</time></trkpt><trkpt lat="44.86912679692418" lon="5.557505794976905"><ele>1133.6666666666667</ele><time>2026-04-25T09:13:51.998Z</time></trkpt><trkpt lat="44.86897170259638" lon="5.55742590694147"><ele>1134.0</ele><time>2026-04-25T09:13:52.998Z</time></trkpt><trkpt lat="44.86883120193087" lon="5.557313579407596"><ele>1134.0</ele><time>2026-04-25T09:13:53.998Z</time></trkpt><trkpt lat="44.8687072157644" lon="5.557171184012954"><ele>1134.0</ele><time>2026-04-25T09:13:54.998Z</time></trkpt><trkpt lat="44.86860750484396" lon="5.557024489683884"><ele>1134.0</ele><time>2026-04-25T09:13:55.998Z</time></trkpt><trkpt lat="44.8685294256805" lon="5.556873550595634"><ele>1134.0</ele><time>2026-04-25T09:13:56.998Z</time></trkpt><trkpt lat="44.86847297282887" lon="5.556728123461629"><ele>1132.8333333333333</ele><time>2026-04-25T09:13:57.998Z</time></trkpt><trkpt lat="44.8684159038984" lon="5.556608410522081"><ele>1131.6666666666667</ele><time>2026-04-25T09:13:58.998Z</time></trkpt><trkpt lat="44.86834183002973" lon="5.556544734148162"><ele>1130.5</ele><time>2026-04-25T09:13:59.998Z</time></trkpt><trkpt lat="44.86826570492081" lon="5.556537694950881"><ele>1129.3333333333335</ele><time>2026-04-25T09:14:00.998Z</time></trkpt><trkpt lat="44.868187684557775" lon="5.556572614400967"><ele>1128.1666666666667</ele><time>2026-04-25T09:14:01.998Z</time></trkpt><trkpt lat="44.86812281869822" lon="5.556651628427594"><ele>1127.0</ele><time>2026-04-25T09:14:02.998Z</time></trkpt><trkpt lat="44.868082284479286" lon="5.556762927569437"><ele>1127.0</ele><time>2026-04-25T09:14:03.998Z</time></trkpt><trkpt lat="44.86805963768231" lon="5.556915592274676"><ele>1127.0</ele><time>2026-04-25T09:14:04.998Z</time></trkpt><trkpt lat="44.86803166563321" lon="5.557079670360805"><ele>1127.0</ele><time>2026-04-25T09:14:05.998Z</time></trkpt><trkpt lat="44.86802722007761" lon="5.557257478766603"><ele>1127.0</ele><time>2026-04-25T09:14:06.998Z</time></trkpt><trkpt lat="44.86800480606669" lon="5.5574544947155555"><ele>1126.0</ele><time>2026-04-25T09:14:07.998Z</time></trkpt><trkpt lat="44.8679656611518" lon="5.557656352291366"><ele>1125.0</ele><time>2026-04-25T09:14:08.998Z</time></trkpt><trkpt lat="44.867966611552596" lon="5.55785579845561"><ele>1124.0</ele><time>2026-04-25T09:14:09.998Z</time></trkpt><trkpt lat="44.86797607784533" lon="5.558060124323225"><ele>1123.0</ele><time>2026-04-25T09:14:10.998Z</time></trkpt><trkpt lat="44.86800753676458" lon="5.558238549873331"><ele>1121.6</ele><time>2026-04-25T09:14:11.998Z</time></trkpt><trkpt lat="44.86803016033731" lon="5.558400512762333"><ele>1120.1999999999998</ele><time>2026-04-25T09:14:12.998Z</time></trkpt><trkpt lat="44.86803936274441" lon="5.558516413247535"><ele>1118.8</ele><time>2026-04-25T09:14:13.998Z</time></trkpt><trkpt lat="44.86800264335008" lon="5.558636358058085"><ele>1117.3999999999999</ele><time>2026-04-25T09:14:14.998Z</time></trkpt><trkpt lat="44.86790693343164" lon="5.558722674365846"><ele>1116.0</ele><time>2026-04-25T09:14:15.998Z</time></trkpt><trkpt lat="44.86777574209748" lon="5.558751618101561"><ele>1114.6666666666667</ele><time>2026-04-25T09:14:16.998Z</time></trkpt><trkpt lat="44.86762341547406" lon="5.558704517281036"><ele>1113.3333333333335</ele><time>2026-04-25T09:14:18Z</time></trkpt><trkpt lat="44.86746558988197" lon="5.558690796875754"><ele>1112.0</ele><time>2026-04-25T09:14:19Z</time></trkpt><trkpt lat="44.86728656657511" lon="5.558680703356077"><ele>1121.6666666666667</ele><time>2026-04-25T09:14:20Z</time></trkpt><trkpt lat="44.867104331110696" lon="5.558673659649833"><ele>1131.3333333333333</ele><time>2026-04-25T09:14:21Z</time></trkpt><trkpt lat="44.86694949876189" lon="5.558659324021602"><ele>1141.0</ele><time>2026-04-25T09:14:22Z</time></trkpt><trkpt lat="44.866813307477166" lon="5.558655249634959"><ele>1140.6</ele><time>2026-04-25T09:14:23Z</time></trkpt><trkpt lat="44.86670575131002" lon="5.5586424487167685"><ele>1140.1999999999998</ele><time>2026-04-25T09:14:24Z</time></trkpt><trkpt lat="44.866615893983514" lon="5.558678048810226"><ele>1139.8000000000002</ele><time>2026-04-25T09:14:25Z</time></trkpt><trkpt lat="44.866559495385864" lon="5.558758658589082"><ele>1139.4</ele><time>2026-04-25T09:14:26Z</time></trkpt><trkpt lat="44.86652292932917" lon="5.558870041805086"><ele>1139.0</ele><time>2026-04-25T09:14:27Z</time></trkpt><trkpt lat="44.866507692232496" lon="5.55901334944166"><ele>1139.0</ele><time>2026-04-25T09:14:28Z</time></trkpt><trkpt lat="44.866479682815864" lon="5.55917408996888"><ele>1139.0</ele><time>2026-04-25T09:14:29Z</time></trkpt><trkpt lat="44.86644162259559" lon="5.5593224432724435"><ele>1139.0</ele><time>2026-04-25T09:14:30Z</time></trkpt><trkpt lat="44.86639390589174" lon="5.559465001688662"><ele>1139.0</ele><time>2026-04-25T09:14:31Z</time></trkpt><trkpt lat="44.866349667729544" lon="5.559590980708026"><ele>1139.0</ele><time>2026-04-25T09:14:32Z</time></trkpt><trkpt lat="44.86629607303916" lon="5.559692638515067"><ele>1140.0</ele><time>2026-04-25T09:14:33Z</time></trkpt><trkpt lat="44.86620896866985" lon="5.559780961661738"><ele>1141.0</ele><time>2026-04-25T09:14:34Z</time></trkpt><trkpt lat="44.866103173535194" lon="5.559856034317228"><ele>1142.0</ele><time>2026-04-25T09:14:35Z</time></trkpt><trkpt lat="44.86599436565048" lon="5.559903322979738"><ele>1143.0</ele><time>2026-04-25T09:14:36Z</time></trkpt><trkpt lat="44.86588972686811" lon="5.5599203243394895"><ele>1144.0</ele><time>2026-04-25T09:14:37Z</time></trkpt><trkpt lat="44.865765796645164" lon="5.559873494327593"><ele>1146.0</ele><time>2026-04-25T09:14:38Z</time></trkpt><trkpt lat="44.86567319419302" lon="5.559751880486498"><ele>1148.0</ele><time>2026-04-25T09:14:39Z</time></trkpt><trkpt lat="44.86557767054171" lon="5.55959408866178"><ele>1150.0</ele><time>2026-04-25T09:14:40Z</time></trkpt><trkpt lat="44.865481813581795" lon="5.559443817356401"><ele>1152.0</ele><time>2026-04-25T09:14:41Z</time></trkpt><trkpt lat="44.86544129821919" lon="5.559242293699919"><ele>1152.0</ele><time>2026-04-25T09:14:42Z</time></trkpt><trkpt lat="44.865442128159906" lon="5.559037051128119"><ele>1152.0</ele><time>2026-04-25T09:14:43Z</time></trkpt><trkpt lat="44.86548917702635" lon="5.558850736696003"><ele>1152.0</ele><time>2026-04-25T09:14:44Z</time></trkpt><trkpt lat="44.86555860295974" lon="5.558724588370183"><ele>1152.0</ele><time>2026-04-25T09:14:45Z</time></trkpt><trkpt lat="44.8656461194768" lon="5.55866186131996"><ele>1153.3333333333333</ele><time>2026-04-25T09:14:46Z</time></trkpt><trkpt lat="44.865706147402875" lon="5.5585983602665285"><ele>1154.6666666666667</ele><time>2026-04-25T09:14:47Z</time></trkpt><trkpt lat="44.86572696894291" lon="5.558492401489468"><ele>1156.0</ele><time>2026-04-25T09:14:48Z</time></trkpt><trkpt lat="44.865692903785835" lon="5.558400094701644"><ele>1157.3333333333335</ele><time>2026-04-25T09:14:49Z</time></trkpt><trkpt lat="44.86559262351449" lon="5.558378713470326"><ele>1158.6666666666667</ele><time>2026-04-25T09:14:50Z</time></trkpt><trkpt lat="44.865493905504444" lon="5.558402186424441"><ele>1160.0</ele><time>2026-04-25T09:14:51Z</time></trkpt><trkpt lat="44.865378199752975" lon="5.558445484241383"><ele>1160.0</ele><time>2026-04-25T09:14:52Z</time></trkpt><trkpt lat="44.86526251301091" lon="5.558479499942702"><ele>1160.0</ele><time>2026-04-25T09:14:53Z</time></trkpt><trkpt lat="44.8651546973624" lon="5.558532614674289"><ele>1160.0</ele><time>2026-04-25T09:14:54Z</time></trkpt><trkpt lat="44.865074785868345" lon="5.558614790172635"><ele>1160.0</ele><time>2026-04-25T09:14:55Z</time></trkpt><trkpt lat="44.86501455689543" lon="5.558715847394327"><ele>1160.0</ele><time>2026-04-25T09:14:56Z</time></trkpt><trkpt lat="44.8649602022283" lon="5.558808752488409"><ele>1161.75</ele><time>2026-04-25T09:14:57Z</time></trkpt><trkpt lat="44.86488395072538" lon="5.558866917162342"><ele>1163.5</ele><time>2026-04-25T09:14:58Z</time></trkpt><trkpt lat="44.864776612819554" lon="5.558891861025486"><ele>1165.25</ele><time>2026-04-25T09:14:59Z</time></trkpt><trkpt lat="44.864650853728385" lon="5.558885614737761"><ele>1167.0</ele><time>2026-04-25T09:15:00Z</time></trkpt><trkpt lat="44.86452043377674" lon="5.558866821021311"><ele>1167.0</ele><time>2026-04-25T09:15:00.999Z</time></trkpt><trkpt lat="44.864394137298966" lon="5.55884628206941"><ele>1167.0</ele><time>2026-04-25T09:15:01.999Z</time></trkpt><trkpt lat="44.86428024006706" lon="5.5588251758670095"><ele>1167.0</ele><time>2026-04-25T09:15:02.999Z</time></trkpt><trkpt lat="44.86418028607837" lon="5.558807509698993"><ele>1167.0</ele><time>2026-04-25T09:15:03.999Z</time></trkpt><trkpt lat="44.86407155586261" lon="5.558785994173817"><ele>1167.0</ele><time>2026-04-25T09:15:04.999Z</time></trkpt><trkpt lat="44.86395726011127" lon="5.558767648088417"><ele>1167.0</ele><time>2026-04-25T09:15:05.999Z</time></trkpt><trkpt lat="44.86387647967294" lon="5.558729279917078"><ele>1167.0</ele><time>2026-04-25T09:15:06.999Z</time></trkpt><trkpt lat="44.86377338023181" lon="5.558635963238387"><ele>1167.0</ele><time>2026-04-25T09:15:07.999Z</time></trkpt><trkpt lat="44.86369438925015" lon="5.558515717638824"><ele>1167.0</ele><time>2026-04-25T09:15:08.999Z</time></trkpt><trkpt lat="44.8636155637509" lon="5.558386423615586"><ele>1168.75</ele><time>2026-04-25T09:15:09.999Z</time></trkpt><trkpt lat="44.863529717608415" lon="5.558254482148374"><ele>1170.5</ele><time>2026-04-25T09:15:10.999Z</time></trkpt><trkpt lat="44.8634446347402" lon="5.558132667029398"><ele>1172.25</ele><time>2026-04-25T09:15:11.999Z</time></trkpt><trkpt lat="44.863358662187274" lon="5.55802051718405"><ele>1174.0</ele><time>2026-04-25T09:15:12.999Z</time></trkpt><trkpt lat="44.863275534081154" lon="5.557909104213421"><ele>1172.75</ele><time>2026-04-25T09:15:13.999Z</time></trkpt><trkpt lat="44.86319391918599" lon="5.557791270548215"><ele>1171.5</ele><time>2026-04-25T09:15:14.999Z</time></trkpt><trkpt lat="44.863111135043866" lon="5.557672922157352"><ele>1170.25</ele><time>2026-04-25T09:15:15.999Z</time></trkpt><trkpt lat="44.863020687658675" lon="5.557548978354332"><ele>1169.0</ele><time>2026-04-25T09:15:16.999Z</time></trkpt><trkpt lat="44.86292197267506" lon="5.557429294638874"><ele>1169.0</ele><time>2026-04-25T09:15:17.999Z</time></trkpt><trkpt lat="44.86279599603904" lon="5.557316378480465"><ele>1169.0</ele><time>2026-04-25T09:15:18.999Z</time></trkpt><trkpt lat="44.86266619218388" lon="5.557199930656299"><ele>1169.0</ele><time>2026-04-25T09:15:19.999Z</time></trkpt><trkpt lat="44.862540883482644" lon="5.557075602830382"><ele>1166.75</ele><time>2026-04-25T09:15:20.999Z</time></trkpt><trkpt lat="44.86242585205429" lon="5.556966968387526"><ele>1164.5</ele><time>2026-04-25T09:15:21.999Z</time></trkpt><trkpt lat="44.86231330758379" lon="5.556872208978972"><ele>1162.25</ele><time>2026-04-25T09:15:22.999Z</time></trkpt><trkpt lat="44.862188555874816" lon="5.5567922185163825"><ele>1160.0</ele><time>2026-04-25T09:15:23.999Z</time></trkpt><trkpt lat="44.86207511897156" lon="5.556737020944708"><ele>1160.0</ele><time>2026-04-25T09:15:24.999Z</time></trkpt><trkpt lat="44.86194648580949" lon="5.5566911409206945"><ele>1160.0</ele><time>2026-04-25T09:15:25.999Z</time></trkpt><trkpt lat="44.86182176533572" lon="5.556651261935415"><ele>1160.0</ele><time>2026-04-25T09:15:26.999Z</time></trkpt><trkpt lat="44.8617007195033" lon="5.5566428759488184"><ele>1160.0</ele><time>2026-04-25T09:15:27.999Z</time></trkpt><trkpt lat="44.861595051006894" lon="5.556680378028266"><ele>1157.25</ele><time>2026-04-25T09:15:28.999Z</time></trkpt><trkpt lat="44.86150868942053" lon="5.556771714521654"><ele>1154.5</ele><time>2026-04-25T09:15:29.999Z</time></trkpt><trkpt lat="44.861457321958454" lon="5.556930696151441"><ele>1151.75</ele><time>2026-04-25T09:15:30.999Z</time></trkpt><trkpt lat="44.861436484575265" lon="5.557107850455403"><ele>1149.0</ele><time>2026-04-25T09:15:31.999Z</time></trkpt><trkpt lat="44.86144508580029" lon="5.557311601062775"><ele>1144.75</ele><time>2026-04-25T09:15:32.999Z</time></trkpt><trkpt lat="44.86142480357277" lon="5.557493094217787"><ele>1140.5</ele><time>2026-04-25T09:15:33.999Z</time></trkpt><trkpt lat="44.861393472170676" lon="5.557667622622949"><ele>1136.25</ele><time>2026-04-25T09:15:34.999Z</time></trkpt><trkpt lat="44.861350055619525" lon="5.557835226313296"><ele>1132.0</ele><time>2026-04-25T09:15:35.999Z</time></trkpt><trkpt lat="44.8612974563115" lon="5.55799747069189"><ele>1129.5</ele><time>2026-04-25T09:15:36.999Z</time></trkpt><trkpt lat="44.86121939868053" lon="5.558117037813307"><ele>1127.0</ele><time>2026-04-25T09:15:37.999Z</time></trkpt><trkpt lat="44.86112242953011" lon="5.558220110004681"><ele>1124.5</ele><time>2026-04-25T09:15:38.999Z</time></trkpt><trkpt lat="44.860999947096516" lon="5.558260829999805"><ele>1122.0</ele><time>2026-04-25T09:15:39.999Z</time></trkpt><trkpt lat="44.86087781391626" lon="5.5583096756945904"><ele>1122.0</ele><time>2026-04-25T09:15:40.999Z</time></trkpt><trkpt lat="44.860751863261335" lon="5.558326422550832"><ele>1122.0</ele><time>2026-04-25T09:15:41.999Z</time></trkpt><trkpt lat="44.8606187517301" lon="5.5582907425257195"><ele>1122.0</ele><time>2026-04-25T09:15:42.999Z</time></trkpt><trkpt lat="44.86047387065051" lon="5.5582565419323755"><ele>1122.0</ele><time>2026-04-25T09:15:43.999Z</time></trkpt><trkpt lat="44.86032998246614" lon="5.558237875767079"><ele>1122.0</ele><time>2026-04-25T09:15:44.999Z</time></trkpt><trkpt lat="44.86019446873275" lon="5.558184615030282"><ele>1122.0</ele><time>2026-04-25T09:15:45.999Z</time></trkpt><trkpt lat="44.860066305140805" lon="5.5581671338257435"><ele>1122.0</ele><time>2026-04-25T09:15:46.999Z</time></trkpt><trkpt lat="44.859934780148706" lon="5.558203901496152"><ele>1122.0</ele><time>2026-04-25T09:15:47.999Z</time></trkpt><trkpt lat="44.85982450475985" lon="5.558274932593038"><ele>1120.4</ele><time>2026-04-25T09:15:48.999Z</time></trkpt><trkpt lat="44.859749487366024" lon="5.558343677348018"><ele>1118.8000000000002</ele><time>2026-04-25T09:15:49.999Z</time></trkpt><trkpt lat="44.85969412205822" lon="5.558386152182058"><ele>1117.2</ele><time>2026-04-25T09:15:50.999Z</time></trkpt><trkpt lat="44.85963321023658" lon="5.558504842425493"><ele>1115.6000000000001</ele><time>2026-04-25T09:15:52.999Z</time></trkpt><trkpt lat="44.859767278543146" lon="5.55869479202203"><ele>1114.0</ele><time>2026-04-25T09:15:54.999Z</time></trkpt><trkpt lat="44.85984412929616" lon="5.558813980074822"><ele>1109.75</ele><time>2026-04-25T09:15:55.999Z</time></trkpt><trkpt lat="44.85994932430629" lon="5.558932525621761"><ele>1105.5</ele><time>2026-04-25T09:15:56.998Z</time></trkpt><trkpt lat="44.86005534154848" lon="5.559034336510776"><ele>1101.25</ele><time>2026-04-25T09:15:57.998Z</time></trkpt><trkpt lat="44.8601612959773" lon="5.55912422569313"><ele>1097.0</ele><time>2026-04-25T09:15:58.998Z</time></trkpt><trkpt lat="44.86028631880357" lon="5.559176394945275"><ele>1096.75</ele><time>2026-04-25T09:15:59.998Z</time></trkpt><trkpt lat="44.86041273221128" lon="5.55922554852773"><ele>1096.5</ele><time>2026-04-25T09:16:00.998Z</time></trkpt><trkpt lat="44.86054504424124" lon="5.559258555011223"><ele>1096.25</ele><time>2026-04-25T09:16:01.998Z</time></trkpt><trkpt lat="44.86068556559547" lon="5.559278766109626"><ele>1096.0</ele><time>2026-04-25T09:16:02.998Z</time></trkpt><trkpt lat="44.8608311900284" lon="5.559289384277602"><ele>1095.0</ele><time>2026-04-25T09:16:03.998Z</time></trkpt><trkpt lat="44.86097599567611" lon="5.559305643907669"><ele>1094.0</ele><time>2026-04-25T09:16:04.998Z</time></trkpt><trkpt lat="44.86110874116247" lon="5.5593469333680225"><ele>1093.0</ele><time>2026-04-25T09:16:05.998Z</time></trkpt><trkpt lat="44.861236563529566" lon="5.559366970576759"><ele>1092.0</ele><time>2026-04-25T09:16:06.998Z</time></trkpt><trkpt lat="44.86136400156106" lon="5.559386947309782"><ele>1092.0</ele><time>2026-04-25T09:16:07.998Z</time></trkpt><trkpt lat="44.86149186725448" lon="5.559412192225449"><ele>1092.0</ele><time>2026-04-25T09:16:08.998Z</time></trkpt><trkpt lat="44.861618773798654" lon="5.559453535492664"><ele>1092.0</ele><time>2026-04-25T09:16:09.998Z</time></trkpt><trkpt lat="44.86175071925933" lon="5.559532204753035"><ele>1092.0</ele><time>2026-04-25T09:16:10.998Z</time></trkpt><trkpt lat="44.861889448258246" lon="5.559626864209263"><ele>1092.6666666666667</ele><time>2026-04-25T09:16:11.998Z</time></trkpt><trkpt lat="44.862037852385086" lon="5.559715582119124"><ele>1093.3333333333335</ele><time>2026-04-25T09:16:12.998Z</time></trkpt><trkpt lat="44.86218157361848" lon="5.559831206039984"><ele>1094.0</ele><time>2026-04-25T09:16:13.998Z</time></trkpt><trkpt lat="44.86232831365563" lon="5.559950390981565"><ele>1094.0</ele><time>2026-04-25T09:16:14.998Z</time></trkpt><trkpt lat="44.86247963979841" lon="5.560081523264564"><ele>1094.0</ele><time>2026-04-25T09:16:15.998Z</time></trkpt><trkpt lat="44.86262055370224" lon="5.5602157205874345"><ele>1094.0</ele><time>2026-04-25T09:16:16.998Z</time></trkpt><trkpt lat="44.862745757167964" lon="5.560353980927528"><ele>1091.0</ele><time>2026-04-25T09:16:17.998Z</time></trkpt><trkpt lat="44.86286184565097" lon="5.5604967302564425"><ele>1088.0</ele><time>2026-04-25T09:16:18.998Z</time></trkpt><trkpt lat="44.86298019095632" lon="5.560643392021937"><ele>1085.0</ele><time>2026-04-25T09:16:19.998Z</time></trkpt><trkpt lat="44.86310103432204" lon="5.5607954412664995"><ele>1085.0</ele><time>2026-04-25T09:16:20.998Z</time></trkpt><trkpt lat="44.86323176079605" lon="5.5609524143081535"><ele>1085.0</ele><time>2026-04-25T09:16:21.998Z</time></trkpt><trkpt lat="44.86336025489" lon="5.561100021677567"><ele>1085.0</ele><time>2026-04-25T09:16:22.998Z</time></trkpt><trkpt lat="44.863472951488234" lon="5.5612479238296615"><ele>1082.0</ele><time>2026-04-25T09:16:24Z</time></trkpt><trkpt lat="44.86357561947201" lon="5.561363194187787"><ele>1079.0</ele><time>2026-04-25T09:16:25Z</time></trkpt><trkpt lat="44.86368120823162" lon="5.561434812182999"><ele>1076.0</ele><time>2026-04-25T09:16:26Z</time></trkpt><trkpt lat="44.86378227593817" lon="5.561509829240676"><ele>1073.0</ele><time>2026-04-25T09:16:27Z</time></trkpt><trkpt lat="44.86387895854298" lon="5.561584073027272"><ele>1073.0</ele><time>2026-04-25T09:16:28Z</time></trkpt><trkpt lat="44.863952336994316" lon="5.561695434448881"><ele>1073.0</ele><time>2026-04-25T09:16:29Z</time></trkpt><trkpt lat="44.8639958540366" lon="5.561868012319699"><ele>1073.0</ele><time>2026-04-25T09:16:30Z</time></trkpt><trkpt lat="44.864057489358125" lon="5.562016469945488"><ele>1073.0</ele><time>2026-04-25T09:16:31Z</time></trkpt><trkpt lat="44.864127310211664" lon="5.5621469386222815"><ele>1073.25</ele><time>2026-04-25T09:16:32Z</time></trkpt><trkpt lat="44.86423164274755" lon="5.562238363403677"><ele>1073.5</ele><time>2026-04-25T09:16:33Z</time></trkpt><trkpt lat="44.86436649258646" lon="5.562300607872002"><ele>1073.75</ele><time>2026-04-25T09:16:34Z</time></trkpt><trkpt lat="44.86451037549881" lon="5.562358135278448"><ele>1074.0</ele><time>2026-04-25T09:16:35Z</time></trkpt><trkpt lat="44.864655929095605" lon="5.562455780648192"><ele>1073.75</ele><time>2026-04-25T09:16:36Z</time></trkpt><trkpt lat="44.86477399823258" lon="5.562557702840158"><ele>1073.5</ele><time>2026-04-25T09:16:37Z</time></trkpt><trkpt lat="44.864862029053334" lon="5.562685077335078"><ele>1073.25</ele><time>2026-04-25T09:16:38Z</time></trkpt><trkpt lat="44.86493527161227" lon="5.562848440896957"><ele>1073.0</ele><time>2026-04-25T09:16:39Z</time></trkpt><trkpt lat="44.86500527774132" lon="5.563019479497715"><ele>1073.0</ele><time>2026-04-25T09:16:40Z</time></trkpt><trkpt lat="44.86507192448192" lon="5.5632099458997075"><ele>1073.0</ele><time>2026-04-25T09:16:41Z</time></trkpt><trkpt lat="44.86513590959358" lon="5.563392318304947"><ele>1073.0</ele><time>2026-04-25T09:16:42Z</time></trkpt><trkpt lat="44.86519435739144" lon="5.563550467813885"><ele>1073.0</ele><time>2026-04-25T09:16:43Z</time></trkpt><trkpt lat="44.86525828004238" lon="5.563708279217245"><ele>1071.0</ele><time>2026-04-25T09:16:44Z</time></trkpt><trkpt lat="44.865369711337664" lon="5.563831028701478"><ele>1069.0</ele><time>2026-04-25T09:16:45Z</time></trkpt><trkpt lat="44.86549416309046" lon="5.563889915749821"><ele>1067.0</ele><time>2026-04-25T09:16:46Z</time></trkpt><trkpt lat="44.865605110869375" lon="5.563990458327199"><ele>1065.0</ele><time>2026-04-25T09:16:47Z</time></trkpt><trkpt lat="44.865697412496964" lon="5.564083898630223"><ele>1065.0</ele><time>2026-04-25T09:16:48Z</time></trkpt><trkpt lat="44.865799801298415" lon="5.564153542097181"><ele>1065.0</ele><time>2026-04-25T09:16:49Z</time></trkpt><trkpt lat="44.86593464960099" lon="5.5641452002590785"><ele>1065.0</ele><time>2026-04-25T09:16:50Z</time></trkpt><trkpt lat="44.866060469672064" lon="5.564065899425765"><ele>1065.0</ele><time>2026-04-25T09:16:51Z</time></trkpt><trkpt lat="44.86618122228574" lon="5.564027290758447"><ele>1060.0</ele><time>2026-04-25T09:16:52Z</time></trkpt><trkpt lat="44.86629643607031" lon="5.564044562136786"><ele>1055.0</ele><time>2026-04-25T09:16:53Z</time></trkpt><trkpt lat="44.866411094943835" lon="5.564100221210239"><ele>1050.0</ele><time>2026-04-25T09:16:54Z</time></trkpt><trkpt lat="44.86651683996924" lon="5.564189539872542"><ele>1045.0</ele><time>2026-04-25T09:16:55Z</time></trkpt><trkpt lat="44.86662880823118" lon="5.56428660945665"><ele>1045.0</ele><time>2026-04-25T09:16:56Z</time></trkpt><trkpt lat="44.86674891375437" lon="5.564380310781802"><ele>1045.0</ele><time>2026-04-25T09:16:57Z</time></trkpt><trkpt lat="44.86683442659304" lon="5.564534799555121"><ele>1045.0</ele><time>2026-04-25T09:16:58Z</time></trkpt><trkpt lat="44.86688601043164" lon="5.5647099475123145"><ele>1045.0</ele><time>2026-04-25T09:16:59Z</time></trkpt><trkpt lat="44.866950233168176" lon="5.564879873035847"><ele>1045.3333333333333</ele><time>2026-04-25T09:17:00Z</time></trkpt><trkpt lat="44.86702827142867" lon="5.565064310774543"><ele>1045.6666666666667</ele><time>2026-04-25T09:17:01Z</time></trkpt><trkpt lat="44.86709726707236" lon="5.56526570777503"><ele>1046.0</ele><time>2026-04-25T09:17:02Z</time></trkpt><trkpt lat="44.86722414612188" lon="5.565433975257762"><ele>1046.0</ele><time>2026-04-25T09:17:03Z</time></trkpt><trkpt lat="44.86736181035164" lon="5.565551918288215"><ele>1046.0</ele><time>2026-04-25T09:17:04Z</time></trkpt><trkpt lat="44.86750264637692" lon="5.565655827742117"><ele>1046.0</ele><time>2026-04-25T09:17:05Z</time></trkpt><trkpt lat="44.8676580837267" lon="5.565755566473518"><ele>1035.0</ele><time>2026-04-25T09:17:05.999Z</time></trkpt><trkpt lat="44.867807793088055" lon="5.565845822743862"><ele>1024.0</ele><time>2026-04-25T09:17:06.999Z</time></trkpt><trkpt lat="44.86795026616683" lon="5.565939800175923"><ele>1013.0</ele><time>2026-04-25T09:17:07.999Z</time></trkpt><trkpt lat="44.8680731961788" lon="5.566030191251337"><ele>1013.0</ele><time>2026-04-25T09:17:08.999Z</time></trkpt><trkpt lat="44.86819479560663" lon="5.566052407119012"><ele>1013.0</ele><time>2026-04-25T09:17:09.999Z</time></trkpt><trkpt lat="44.868315222475744" lon="5.566004985633537"><ele>1013.0</ele><time>2026-04-25T09:17:10.999Z</time></trkpt><trkpt lat="44.86842373799837" lon="5.566030297639845"><ele>1013.0</ele><time>2026-04-25T09:17:11.999Z</time></trkpt><trkpt lat="44.86851333643993" lon="5.566114719829613"><ele>1010.25</ele><time>2026-04-25T09:17:12.999Z</time></trkpt><trkpt lat="44.86858796096858" lon="5.5662504928586936"><ele>1007.5</ele><time>2026-04-25T09:17:13.999Z</time></trkpt><trkpt lat="44.86865209979148" lon="5.5663981674247145"><ele>1004.75</ele><time>2026-04-25T09:17:14.999Z</time></trkpt><trkpt lat="44.86877405488063" lon="5.566519693020666"><ele>1002.0</ele><time>2026-04-25T09:17:15.999Z</time></trkpt><trkpt lat="44.8688904169838" lon="5.566584394701179"><ele>1002.0</ele><time>2026-04-25T09:17:16.999Z</time></trkpt><trkpt lat="44.86898366804905" lon="5.566682312470626"><ele>1002.0</ele><time>2026-04-25T09:17:17.999Z</time></trkpt><trkpt lat="44.869051836432234" lon="5.566822762122393"><ele>1002.0</ele><time>2026-04-25T09:17:18.999Z</time></trkpt><trkpt lat="44.86910164383537" lon="5.566991709252173"><ele>1002.0</ele><time>2026-04-25T09:17:19.999Z</time></trkpt><trkpt lat="44.869140118108156" lon="5.567188612540961"><ele>1006.6666666666667</ele><time>2026-04-25T09:17:20.999Z</time></trkpt><trkpt lat="44.86915157495884" lon="5.567418196931315"><ele>1011.3333333333334</ele><time>2026-04-25T09:17:21.999Z</time></trkpt><trkpt lat="44.8691558113258" lon="5.5676374181657"><ele>1016.0</ele><time>2026-04-25T09:17:22.999Z</time></trkpt><trkpt lat="44.869167318439516" lon="5.5678626349790425"><ele>1017.0</ele><time>2026-04-25T09:17:23.999Z</time></trkpt><trkpt lat="44.86917726741098" lon="5.5680776501343905"><ele>1018.0</ele><time>2026-04-25T09:17:24.999Z</time></trkpt><trkpt lat="44.86914683784158" lon="5.568301791657759"><ele>1019.0</ele><time>2026-04-25T09:17:25.999Z</time></trkpt><trkpt lat="44.86911772458474" lon="5.5685248375316245"><ele>1017.3333333333334</ele><time>2026-04-25T09:17:26.999Z</time></trkpt><trkpt lat="44.869149491763245" lon="5.568747702996827"><ele>1015.6666666666667</ele><time>2026-04-25T09:17:27.999Z</time></trkpt><trkpt lat="44.86916409296982" lon="5.56897725163652"><ele>1014.0</ele><time>2026-04-25T09:17:28.999Z</time></trkpt><trkpt lat="44.86912699165326" lon="5.569211384361003"><ele>1014.0</ele><time>2026-04-25T09:17:29.999Z</time></trkpt><trkpt lat="44.86906606610757" lon="5.569442888428426"><ele>1014.0</ele><time>2026-04-25T09:17:30.999Z</time></trkpt><trkpt lat="44.868991958939304" lon="5.5696870080711705"><ele>1014.0</ele><time>2026-04-25T09:17:31.999Z</time></trkpt><trkpt lat="44.868892184667224" lon="5.569926604992786"><ele>1008.6666666666667</ele><time>2026-04-25T09:17:32.999Z</time></trkpt><trkpt lat="44.86880070778867" lon="5.5701453342348195"><ele>1003.3333333333334</ele><time>2026-04-25T09:17:33.999Z</time></trkpt><trkpt lat="44.86872780722835" lon="5.570367606880949"><ele>998.0</ele><time>2026-04-25T09:17:34.999Z</time></trkpt><trkpt lat="44.868663861712754" lon="5.570570737257139"><ele>993.5</ele><time>2026-04-25T09:17:35.999Z</time></trkpt><trkpt lat="44.86859951146078" lon="5.570716858759166"><ele>989.0</ele><time>2026-04-25T09:17:36.999Z</time></trkpt><trkpt lat="44.8685497082792" lon="5.570848627940358"><ele>984.5</ele><time>2026-04-25T09:17:37.999Z</time></trkpt><trkpt lat="44.86865798429357" lon="5.570651767543191"><ele>980.0</ele><time>2026-04-25T09:17:38.999Z</time></trkpt><trkpt lat="44.868598208803164" lon="5.570747452417741"><ele>980.0000000000001</ele><time>2026-04-25T09:17:39.999Z</time></trkpt><trkpt lat="44.868550243557394" lon="5.57084449947589"><ele>980.0</ele><time>2026-04-25T09:17:40.999Z</time></trkpt><trkpt lat="44.868524224919156" lon="5.5709865146989195"><ele>980.0</ele><time>2026-04-25T09:17:42.999Z</time></trkpt><trkpt lat="44.8685846197817" lon="5.571047479649298"><ele>980.0</ele><time>2026-04-25T09:17:43.999Z</time></trkpt><trkpt lat="44.86866558709468" lon="5.571027904711534"><ele>980.0000000000001</ele><time>2026-04-25T09:17:44.999Z</time></trkpt><trkpt lat="44.86874366312927" lon="5.570974286393208"><ele>980.0</ele><time>2026-04-25T09:17:45.999Z</time></trkpt><trkpt lat="44.86878406476701" lon="5.570791688240201"><ele>980.0</ele><time>2026-04-25T09:17:46.999Z</time></trkpt><trkpt lat="44.86883551096405" lon="5.57060273436428"><ele>980.0</ele><time>2026-04-25T09:17:47.999Z</time></trkpt><trkpt lat="44.86889460975918" lon="5.570411234321649"><ele>980.0</ele><time>2026-04-25T09:17:48.999Z</time></trkpt><trkpt lat="44.86897237599869" lon="5.570222879264574"><ele>980.0</ele><time>2026-04-25T09:17:49.999Z</time></trkpt><trkpt lat="44.86908700804024" lon="5.570041532391669"><ele>977.3333333333334</ele><time>2026-04-25T09:17:50.999Z</time></trkpt><trkpt lat="44.869199085429784" lon="5.569850610004458"><ele>974.6666666666667</ele><time>2026-04-25T09:17:51.999Z</time></trkpt><trkpt lat="44.869292006548264" lon="5.569631867016662"><ele>972.0</ele><time>2026-04-25T09:17:52.999Z</time></trkpt><trkpt lat="44.86938610117986" lon="5.569429674552483"><ele>972.0</ele><time>2026-04-25T09:17:53.999Z</time></trkpt><trkpt lat="44.86945936770145" lon="5.569249691903036"><ele>972.0</ele><time>2026-04-25T09:17:54.999Z</time></trkpt><trkpt lat="44.8695286565795" lon="5.569065232769107"><ele>972.0</ele><time>2026-04-25T09:17:55.999Z</time></trkpt><trkpt lat="44.8695578331616" lon="5.568864101827569"><ele>972.0</ele><time>2026-04-25T09:17:56.999Z</time></trkpt><trkpt lat="44.869566191073936" lon="5.568665429494519"><ele>971.5</ele><time>2026-04-25T09:17:57.999Z</time></trkpt><trkpt lat="44.869576522054885" lon="5.568480293019157"><ele>971.0</ele><time>2026-04-25T09:17:58.999Z</time></trkpt><trkpt lat="44.86960337152883" lon="5.5683088804869865"><ele>970.5</ele><time>2026-04-25T09:17:59.999Z</time></trkpt><trkpt lat="44.86962606661324" lon="5.568140831720885"><ele>970.0</ele><time>2026-04-25T09:18:00.999Z</time></trkpt><trkpt lat="44.86965340493487" lon="5.567973652114681"><ele>970.6</ele><time>2026-04-25T09:18:01.998Z</time></trkpt><trkpt lat="44.869685053391905" lon="5.5678200067742525"><ele>971.2</ele><time>2026-04-25T09:18:02.998Z</time></trkpt><trkpt lat="44.86971724061281" lon="5.567663758080311"><ele>971.8</ele><time>2026-04-25T09:18:03.998Z</time></trkpt><trkpt lat="44.869738143591576" lon="5.567517593246171"><ele>972.4</ele><time>2026-04-25T09:18:04.998Z</time></trkpt><trkpt lat="44.86974238196488" lon="5.5673735886586755"><ele>973.0</ele><time>2026-04-25T09:18:05.998Z</time></trkpt><trkpt lat="44.86976995436133" lon="5.567244230650782"><ele>972.9999999999999</ele><time>2026-04-25T09:18:06.998Z</time></trkpt><trkpt lat="44.86980058719537" lon="5.567143799620627"><ele>973.0</ele><time>2026-04-25T09:18:07.998Z</time></trkpt><trkpt lat="44.869853325938784" lon="5.56706629350186"><ele>973.0</ele><time>2026-04-25T09:18:08.998Z</time></trkpt><trkpt lat="44.869901426145205" lon="5.5669791879531045"><ele>973.0</ele><time>2026-04-25T09:18:09.998Z</time></trkpt><trkpt lat="44.869967517580285" lon="5.566892858823568"><ele>972.9999999999999</ele><time>2026-04-25T09:18:10.998Z</time></trkpt><trkpt lat="44.87003333411543" lon="5.566827794818781"><ele>973.0</ele><time>2026-04-25T09:18:11.998Z</time></trkpt><trkpt lat="44.870111840364544" lon="5.5668362802406355"><ele>977.2</ele><time>2026-04-25T09:18:12.998Z</time></trkpt><trkpt lat="44.87017426046187" lon="5.566940472405253"><ele>981.4</ele><time>2026-04-25T09:18:13.998Z</time></trkpt><trkpt lat="44.87022549724137" lon="5.567068076034829"><ele>985.6000000000001</ele><time>2026-04-25T09:18:14.998Z</time></trkpt><trkpt lat="44.87030942184105" lon="5.567169141239194"><ele>989.8000000000001</ele><time>2026-04-25T09:18:15.998Z</time></trkpt><trkpt lat="44.87037056656099" lon="5.567298198107712"><ele>994.0</ele><time>2026-04-25T09:18:16.998Z</time></trkpt><trkpt lat="44.87044250918202" lon="5.5674224355568445"><ele>994.0</ele><time>2026-04-25T09:18:17.998Z</time></trkpt><trkpt lat="44.87050835116921" lon="5.567547683265256"><ele>994.0000000000001</ele><time>2026-04-25T09:18:18.998Z</time></trkpt><trkpt lat="44.87057358848767" lon="5.56766743126331"><ele>994.0000000000001</ele><time>2026-04-25T09:18:19.998Z</time></trkpt><trkpt lat="44.87058081304796" lon="5.567794174095125"><ele>994.0</ele><time>2026-04-25T09:18:20.998Z</time></trkpt><trkpt lat="44.87052358416352" lon="5.567915061775634"><ele>994.0</ele><time>2026-04-25T09:18:21.998Z</time></trkpt><trkpt lat="44.87041047050998" lon="5.567996721797827"><ele>995.5</ele><time>2026-04-25T09:18:22.998Z</time></trkpt><trkpt lat="44.87037840230143" lon="5.5681562077817"><ele>997.0</ele><time>2026-04-25T09:18:23.998Z</time></trkpt><trkpt lat="44.87038968996657" lon="5.5683317405357"><ele>998.5</ele><time>2026-04-25T09:18:24.998Z</time></trkpt><trkpt lat="44.87033894152983" lon="5.568498717472444"><ele>1000.0</ele><time>2026-04-25T09:18:25.998Z</time></trkpt><trkpt lat="44.87027993338911" lon="5.568671582638529"><ele>1004.5</ele><time>2026-04-25T09:18:26.998Z</time></trkpt><trkpt lat="44.87025147011264" lon="5.568875168298121"><ele>1009.0</ele><time>2026-04-25T09:18:27.998Z</time></trkpt><trkpt lat="44.87028518771356" lon="5.569071971626108"><ele>1013.5</ele><time>2026-04-25T09:18:28.998Z</time></trkpt><trkpt lat="44.870284301014024" lon="5.569262262224047"><ele>1018.0</ele><time>2026-04-25T09:18:30Z</time></trkpt><trkpt lat="44.87027572427265" lon="5.569474876775777"><ele>1018.0</ele><time>2026-04-25T09:18:31Z</time></trkpt><trkpt lat="44.870198004228236" lon="5.569619099671763"><ele>1018.0</ele><time>2026-04-25T09:18:32Z</time></trkpt><trkpt lat="44.870116976840066" lon="5.56979124185069"><ele>1018.0</ele><time>2026-04-25T09:18:33Z</time></trkpt><trkpt lat="44.870084775129335" lon="5.569960379970303"><ele>1018.0</ele><time>2026-04-25T09:18:34Z</time></trkpt><trkpt lat="44.87009174145454" lon="5.570155326901199"><ele>1006.25</ele><time>2026-04-25T09:18:35Z</time></trkpt><trkpt lat="44.87009780443337" lon="5.570367449983138"><ele>994.5</ele><time>2026-04-25T09:18:36Z</time></trkpt><trkpt lat="44.87007101984674" lon="5.5705791173473305"><ele>982.75</ele><time>2026-04-25T09:18:37Z</time></trkpt><trkpt lat="44.870007579507885" lon="5.5707447719315075"><ele>971.0</ele><time>2026-04-25T09:18:38Z</time></trkpt><trkpt lat="44.86995518192451" lon="5.570916258886592"><ele>971.0</ele><time>2026-04-25T09:18:39Z</time></trkpt><trkpt lat="44.86995002846383" lon="5.5710881293075625"><ele>971.0</ele><time>2026-04-25T09:18:40Z</time></trkpt><trkpt lat="44.86996813563317" lon="5.571279542094714"><ele>971.0</ele><time>2026-04-25T09:18:41Z</time></trkpt><trkpt lat="44.87003734698561" lon="5.571485210656204"><ele>971.0</ele><time>2026-04-25T09:18:42Z</time></trkpt><trkpt lat="44.8700909942508" lon="5.571724885767411"><ele>984.6666666666667</ele><time>2026-04-25T09:18:43Z</time></trkpt><trkpt lat="44.87013836617133" lon="5.571976857737911"><ele>998.3333333333333</ele><time>2026-04-25T09:18:44Z</time></trkpt><trkpt lat="44.870164400817316" lon="5.572206864913487"><ele>1012.0</ele><time>2026-04-25T09:18:45Z</time></trkpt><trkpt lat="44.870170455164434" lon="5.572438606298311"><ele>1012.0</ele><time>2026-04-25T09:18:46Z</time></trkpt><trkpt lat="44.870125592176194" lon="5.572646892325835"><ele>1012.0</ele><time>2026-04-25T09:18:47Z</time></trkpt><trkpt lat="44.87012435130214" lon="5.572866860992347"><ele>1012.0</ele><time>2026-04-25T09:18:48Z</time></trkpt><trkpt lat="44.87010441082933" lon="5.573094800124343"><ele>996.25</ele><time>2026-04-25T09:18:49Z</time></trkpt><trkpt lat="44.8700930386002" lon="5.5733129512737065"><ele>980.5</ele><time>2026-04-25T09:18:50Z</time></trkpt><trkpt lat="44.87005056594394" lon="5.573497970962344"><ele>964.75</ele><time>2026-04-25T09:18:51Z</time></trkpt><trkpt lat="44.869965869961355" lon="5.573632673259108"><ele>949.0</ele><time>2026-04-25T09:18:52Z</time></trkpt><trkpt lat="44.86988706932499" lon="5.5737848961996015"><ele>949.0</ele><time>2026-04-25T09:18:53Z</time></trkpt><trkpt lat="44.8698902558614" lon="5.5739791955266424"><ele>949.0</ele><time>2026-04-25T09:18:54Z</time></trkpt><trkpt lat="44.869879124156235" lon="5.574158584272144"><ele>949.0</ele><time>2026-04-25T09:18:55Z</time></trkpt><trkpt lat="44.86977325723464" lon="5.574265620621888"><ele>949.0</ele><time>2026-04-25T09:18:56Z</time></trkpt><trkpt lat="44.869681430019874" lon="5.574432733503581"><ele>951.6666666666666</ele><time>2026-04-25T09:18:57Z</time></trkpt><trkpt lat="44.86958457612225" lon="5.574609298581494"><ele>954.3333333333333</ele><time>2026-04-25T09:18:58Z</time></trkpt><trkpt lat="44.86951686052367" lon="5.574837467535295"><ele>957.0</ele><time>2026-04-25T09:18:59Z</time></trkpt><trkpt lat="44.86947788018794" lon="5.575076721708693"><ele>957.0</ele><time>2026-04-25T09:19:00Z</time></trkpt><trkpt lat="44.86944090120285" lon="5.575289446037265"><ele>957.0</ele><time>2026-04-25T09:19:01Z</time></trkpt><trkpt lat="44.86942665995338" lon="5.575493982688683"><ele>957.0</ele><time>2026-04-25T09:19:02Z</time></trkpt><trkpt lat="44.869464069359324" lon="5.575688234380833"><ele>957.0</ele><time>2026-04-25T09:19:03Z</time></trkpt><trkpt lat="44.869474925983795" lon="5.575868217402478"><ele>959.75</ele><time>2026-04-25T09:19:04Z</time></trkpt><trkpt lat="44.86947257840234" lon="5.576036638866164"><ele>962.5</ele><time>2026-04-25T09:19:05Z</time></trkpt><trkpt lat="44.86937991244689" lon="5.576148221044025"><ele>965.25</ele><time>2026-04-25T09:19:06Z</time></trkpt><trkpt lat="44.86926903747884" lon="5.576253828887001"><ele>968.0</ele><time>2026-04-25T09:19:07Z</time></trkpt><trkpt lat="44.869149290989114" lon="5.57635691855503"><ele>959.0</ele><time>2026-04-25T09:19:08Z</time></trkpt><trkpt lat="44.86906718520583" lon="5.576495692417997"><ele>950.0</ele><time>2026-04-25T09:19:09Z</time></trkpt><trkpt lat="44.86903399478463" lon="5.576680710131473"><ele>941.0</ele><time>2026-04-25T09:19:10Z</time></trkpt><trkpt lat="44.86904399109162" lon="5.576881543847151"><ele>932.0</ele><time>2026-04-25T09:19:11Z</time></trkpt><trkpt lat="44.86904363392802" lon="5.57709735759545"><ele>932.0</ele><time>2026-04-25T09:19:11.999Z</time></trkpt><trkpt lat="44.868978509625144" lon="5.577327459449475"><ele>932.0</ele><time>2026-04-25T09:19:12.999Z</time></trkpt><trkpt lat="44.86894329664271" lon="5.57756172022131"><ele>932.0</ele><time>2026-04-25T09:19:13.999Z</time></trkpt><trkpt lat="44.86885025467276" lon="5.5777748729634125"><ele>936.6666666666667</ele><time>2026-04-25T09:19:14.999Z</time></trkpt><trkpt lat="44.86870654729411" lon="5.5779499109955575"><ele>941.3333333333333</ele><time>2026-04-25T09:19:15.999Z</time></trkpt><trkpt lat="44.8686184326306" lon="5.578183338868066"><ele>946.0</ele><time>2026-04-25T09:19:16.999Z</time></trkpt><trkpt lat="44.868543515003765" lon="5.578424880902646"><ele>946.0</ele><time>2026-04-25T09:19:17.999Z</time></trkpt><trkpt lat="44.86845647693952" lon="5.578665421438457"><ele>946.0</ele><time>2026-04-25T09:19:18.999Z</time></trkpt><trkpt lat="44.8683564214525" lon="5.578900284585169"><ele>946.0</ele><time>2026-04-25T09:19:19.999Z</time></trkpt><trkpt lat="44.86822857626814" lon="5.579113780324358"><ele>942.3333333333333</ele><time>2026-04-25T09:19:20.999Z</time></trkpt><trkpt lat="44.86808517138081" lon="5.579310440148398"><ele>938.6666666666667</ele><time>2026-04-25T09:19:21.999Z</time></trkpt><trkpt lat="44.867935573232046" lon="5.57949715646116"><ele>935.0</ele><time>2026-04-25T09:19:22.999Z</time></trkpt><trkpt lat="44.86777503515632" lon="5.579646502798434"><ele>935.0</ele><time>2026-04-25T09:19:23.999Z</time></trkpt><trkpt lat="44.8676286514894" lon="5.579801256158283"><ele>935.0</ele><time>2026-04-25T09:19:24.999Z</time></trkpt><trkpt lat="44.86746676619438" lon="5.579901568775503"><ele>935.0</ele><time>2026-04-25T09:19:25.999Z</time></trkpt><trkpt lat="44.867296945803254" lon="5.5799622751565945"><ele>924.0</ele><time>2026-04-25T09:19:26.999Z</time></trkpt><trkpt lat="44.86713061144498" lon="5.580036917519993"><ele>913.0</ele><time>2026-04-25T09:19:27.999Z</time></trkpt><trkpt lat="44.866983745636325" lon="5.580128272196372"><ele>902.0</ele><time>2026-04-25T09:19:28.999Z</time></trkpt><trkpt lat="44.86684563529677" lon="5.5802072042245925"><ele>901.0</ele><time>2026-04-25T09:19:29.999Z</time></trkpt><trkpt lat="44.866695355528435" lon="5.580238143925348"><ele>900.0</ele><time>2026-04-25T09:19:30.999Z</time></trkpt><trkpt lat="44.866559075816454" lon="5.5802635847170805"><ele>899.0</ele><time>2026-04-25T09:19:31.999Z</time></trkpt><trkpt lat="44.866441828577805" lon="5.580333022712852"><ele>898.0</ele><time>2026-04-25T09:19:32.999Z</time></trkpt><trkpt lat="44.86634210801244" lon="5.580466216681784"><ele>898.0</ele><time>2026-04-25T09:19:33.999Z</time></trkpt><trkpt lat="44.86625576292892" lon="5.580663312692136"><ele>898.0</ele><time>2026-04-25T09:19:34.999Z</time></trkpt><trkpt lat="44.86618339406965" lon="5.580894349843404"><ele>898.0</ele><time>2026-04-25T09:19:35.999Z</time></trkpt><trkpt lat="44.86610144443192" lon="5.581135697834043"><ele>903.3333333333333</ele><time>2026-04-25T09:19:36.999Z</time></trkpt><trkpt lat="44.86602296243482" lon="5.5813764342296235"><ele>908.6666666666667</ele><time>2026-04-25T09:19:37.999Z</time></trkpt><trkpt lat="44.86595364612843" lon="5.581616705109397"><ele>914.0</ele><time>2026-04-25T09:19:38.999Z</time></trkpt><trkpt lat="44.86591128466303" lon="5.5818744420272814"><ele>903.3333333333334</ele><time>2026-04-25T09:19:39.999Z</time></trkpt><trkpt lat="44.865866462022396" lon="5.5821239170820345"><ele>892.6666666666667</ele><time>2026-04-25T09:19:40.999Z</time></trkpt><trkpt lat="44.86581772451743" lon="5.582352862455836"><ele>882.0</ele><time>2026-04-25T09:19:41.999Z</time></trkpt><trkpt lat="44.865777256010205" lon="5.582569319678512"><ele>882.0</ele><time>2026-04-25T09:19:42.999Z</time></trkpt><trkpt lat="44.865752851376726" lon="5.582799631815711"><ele>882.0</ele><time>2026-04-25T09:19:43.999Z</time></trkpt><trkpt lat="44.86577657425065" lon="5.583049319486423"><ele>882.0</ele><time>2026-04-25T09:19:44.999Z</time></trkpt><trkpt lat="44.865803517433044" lon="5.583316891470062"><ele>881.6666666666667</ele><time>2026-04-25T09:19:45.999Z</time></trkpt><trkpt lat="44.8658280474047" lon="5.583555118546316"><ele>881.3333333333334</ele><time>2026-04-25T09:19:46.999Z</time></trkpt><trkpt lat="44.86586204696064" lon="5.583767153070351"><ele>881.0</ele><time>2026-04-25T09:19:47.999Z</time></trkpt><trkpt lat="44.8659377269416" lon="5.583943557299244"><ele>888.0</ele><time>2026-04-25T09:19:48.999Z</time></trkpt><trkpt lat="44.86605830435085" lon="5.584119720168578"><ele>895.0</ele><time>2026-04-25T09:19:49.999Z</time></trkpt><trkpt lat="44.86618878341915" lon="5.584311182564847"><ele>902.0</ele><time>2026-04-25T09:19:50.999Z</time></trkpt><trkpt lat="44.86632715176992" lon="5.584509214132709"><ele>895.3333333333334</ele><time>2026-04-25T09:19:51.999Z</time></trkpt><trkpt lat="44.86645494099669" lon="5.584698817961546"><ele>888.6666666666667</ele><time>2026-04-25T09:19:52.999Z</time></trkpt><trkpt lat="44.8665328414501" lon="5.584924953862281"><ele>882.0</ele><time>2026-04-25T09:19:53.999Z</time></trkpt><trkpt lat="44.86657898986626" lon="5.585168061293413"><ele>880.3333333333333</ele><time>2026-04-25T09:19:54.999Z</time></trkpt><trkpt lat="44.86658299895783" lon="5.585437868995239"><ele>878.6666666666666</ele><time>2026-04-25T09:19:55.999Z</time></trkpt><trkpt lat="44.86660389443445" lon="5.585722391000069"><ele>877.0</ele><time>2026-04-25T09:19:56.999Z</time></trkpt><trkpt lat="44.866600724443465" lon="5.585997134732499"><ele>874.6666666666666</ele><time>2026-04-25T09:19:57.999Z</time></trkpt><trkpt lat="44.866607228140545" lon="5.586244774432899"><ele>872.3333333333333</ele><time>2026-04-25T09:19:58.999Z</time></trkpt><trkpt lat="44.86664051436487" lon="5.586447483446515"><ele>870.0</ele><time>2026-04-25T09:19:59.999Z</time></trkpt><trkpt lat="44.86671325020095" lon="5.586596365243745"><ele>873.75</ele><time>2026-04-25T09:20:00.999Z</time></trkpt><trkpt lat="44.86682114835382" lon="5.586697930715434"><ele>877.5</ele><time>2026-04-25T09:20:01.999Z</time></trkpt><trkpt lat="44.866948213882104" lon="5.58679369036815"><ele>881.25</ele><time>2026-04-25T09:20:02.999Z</time></trkpt><trkpt lat="44.86706158651598" lon="5.586959015257733"><ele>885.0</ele><time>2026-04-25T09:20:03.999Z</time></trkpt><trkpt lat="44.867155186235784" lon="5.587157002326702"><ele>885.0</ele><time>2026-04-25T09:20:04.999Z</time></trkpt><trkpt lat="44.8672266928788" lon="5.58737686884596"><ele>885.0</ele><time>2026-04-25T09:20:05.999Z</time></trkpt><trkpt lat="44.86727686404235" lon="5.587598728795121"><ele>885.0</ele><time>2026-04-25T09:20:06.998Z</time></trkpt><trkpt lat="44.86729294107097" lon="5.587814598718537"><ele>882.6666666666667</ele><time>2026-04-25T09:20:07.998Z</time></trkpt><trkpt lat="44.867263169345954" lon="5.588007153328381"><ele>880.3333333333334</ele><time>2026-04-25T09:20:08.998Z</time></trkpt><trkpt lat="44.867221122242015" lon="5.588223833538488"><ele>878.0</ele><time>2026-04-25T09:20:09.998Z</time></trkpt><trkpt lat="44.86718730259787" lon="5.5884628091877815"><ele>879.0</ele><time>2026-04-25T09:20:10.998Z</time></trkpt><trkpt lat="44.867129731122255" lon="5.588708972528674"><ele>880.0</ele><time>2026-04-25T09:20:11.998Z</time></trkpt><trkpt lat="44.86706192700604" lon="5.5889288313225585"><ele>881.0</ele><time>2026-04-25T09:20:12.998Z</time></trkpt><trkpt lat="44.866979620973574" lon="5.589106373690363"><ele>881.0</ele><time>2026-04-25T09:20:13.998Z</time></trkpt><trkpt lat="44.866865515230366" lon="5.589219245015133"><ele>881.0</ele><time>2026-04-25T09:20:14.998Z</time></trkpt><trkpt lat="44.866743710769114" lon="5.5893171340788905"><ele>881.0</ele><time>2026-04-25T09:20:15.998Z</time></trkpt><trkpt lat="44.86664340843681" lon="5.589427333198383"><ele>881.0</ele><time>2026-04-25T09:20:16.998Z</time></trkpt><trkpt lat="44.86658245729149" lon="5.589562951598985"><ele>877.6666666666667</ele><time>2026-04-25T09:20:17.998Z</time></trkpt><trkpt lat="44.866561687626636" lon="5.589761162832148"><ele>874.3333333333333</ele><time>2026-04-25T09:20:18.998Z</time></trkpt><trkpt lat="44.86656963691123" lon="5.589992229483912"><ele>871.0</ele><time>2026-04-25T09:20:19.998Z</time></trkpt><trkpt lat="44.86658404773947" lon="5.590246021110116"><ele>871.6666666666666</ele><time>2026-04-25T09:20:20.998Z</time></trkpt><trkpt lat="44.86658435963298" lon="5.590501587751399"><ele>872.3333333333333</ele><time>2026-04-25T09:20:21.998Z</time></trkpt><trkpt lat="44.86661452176469" lon="5.5907467388736585"><ele>873.0</ele><time>2026-04-25T09:20:22.998Z</time></trkpt><trkpt lat="44.86670282344017" lon="5.591025726951594"><ele>882.6666666666667</ele><time>2026-04-25T09:20:23.998Z</time></trkpt><trkpt lat="44.866780056296726" lon="5.5913212891272925"><ele>892.3333333333334</ele><time>2026-04-25T09:20:24.998Z</time></trkpt><trkpt lat="44.866826566246495" lon="5.5916056603024105"><ele>902.0</ele><time>2026-04-25T09:20:25.998Z</time></trkpt><trkpt lat="44.86686489618659" lon="5.591854323508579"><ele>897.25</ele><time>2026-04-25T09:20:26.998Z</time></trkpt><trkpt lat="44.86690719053111" lon="5.592055442066613"><ele>892.5</ele><time>2026-04-25T09:20:27.998Z</time></trkpt><trkpt lat="44.86694004383014" lon="5.592226505083168"><ele>887.75</ele><time>2026-04-25T09:20:28.998Z</time></trkpt><trkpt lat="44.8669978675234" lon="5.592363839799923"><ele>883.0</ele><time>2026-04-25T09:20:29.998Z</time></trkpt><trkpt lat="44.8670994306854" lon="5.592454062584744"><ele>883.0</ele><time>2026-04-25T09:20:30.998Z</time></trkpt><trkpt lat="44.867233195462475" lon="5.592506377656643"><ele>883.0</ele><time>2026-04-25T09:20:31.998Z</time></trkpt><trkpt lat="44.86735833339921" lon="5.592573831830998"><ele>883.0</ele><time>2026-04-25T09:20:32.998Z</time></trkpt><trkpt lat="44.86748168052127" lon="5.592623689554971"><ele>883.0</ele><time>2026-04-25T09:20:33.998Z</time></trkpt><trkpt lat="44.867600851503376" lon="5.592667722889688"><ele>884.4</ele><time>2026-04-25T09:20:34.998Z</time></trkpt><trkpt lat="44.86771607771985" lon="5.5927106989300555"><ele>885.8</ele><time>2026-04-25T09:20:36Z</time></trkpt><trkpt lat="44.86782561071561" lon="5.592757341035492"><ele>887.2</ele><time>2026-04-25T09:20:37Z</time></trkpt><trkpt lat="44.86792805109649" lon="5.592809604677111"><ele>888.6</ele><time>2026-04-25T09:20:38Z</time></trkpt><trkpt lat="44.86801536860469" lon="5.592889679003615"><ele>890.0</ele><time>2026-04-25T09:20:39Z</time></trkpt><trkpt lat="44.86808468366864" lon="5.5930069503691655"><ele>890.0</ele><time>2026-04-25T09:20:40Z</time></trkpt><trkpt lat="44.86814033998083" lon="5.5931393650112895"><ele>890.0</ele><time>2026-04-25T09:20:41Z</time></trkpt><trkpt lat="44.86819095543456" lon="5.593272453569914"><ele>890.0</ele><time>2026-04-25T09:20:42Z</time></trkpt><trkpt lat="44.8682384796814" lon="5.593408899375152"><ele>890.0</ele><time>2026-04-25T09:20:43Z</time></trkpt><trkpt lat="44.868281264467704" lon="5.593535175655387"><ele>890.0</ele><time>2026-04-25T09:20:44Z</time></trkpt><trkpt lat="44.86831446054227" lon="5.593650059637339"><ele>890.0000000000001</ele><time>2026-04-25T09:20:45Z</time></trkpt><trkpt lat="44.86834157052225" lon="5.593765140610075"><ele>890.0</ele><time>2026-04-25T09:20:46Z</time></trkpt><trkpt lat="44.868354134943004" lon="5.5938708981978"><ele>890.0</ele><time>2026-04-25T09:20:47Z</time></trkpt><trkpt lat="44.868311441742314" lon="5.593970138661481"><ele>890.0</ele><time>2026-04-25T09:20:48Z</time></trkpt><trkpt lat="44.86825253605102" lon="5.594043134216923"><ele>890.0000000000001</ele><time>2026-04-25T09:20:49Z</time></trkpt><trkpt lat="44.868217067016545" lon="5.594123554248401"><ele>890.0</ele><time>2026-04-25T09:20:50Z</time></trkpt><trkpt lat="44.868146753921295" lon="5.5942271191556685"><ele>890.0000000000001</ele><time>2026-04-25T09:20:52Z</time></trkpt><trkpt lat="44.86811158124012" lon="5.594317958227422"><ele>890.0</ele><time>2026-04-25T09:20:54Z</time></trkpt><trkpt lat="44.868078342411316" lon="5.59441536118848"><ele>890.0</ele><time>2026-04-25T09:20:56Z</time></trkpt><trkpt lat="44.868119884420416" lon="5.594526333122199"><ele>890.0</ele><time>2026-04-25T09:20:58Z</time></trkpt><trkpt lat="44.86816461481298" lon="5.59460998681665"><ele>890.0000000000001</ele><time>2026-04-25T09:21:00Z</time></trkpt><trkpt lat="44.8682308555718" lon="5.594652252643424"><ele>890.0</ele><time>2026-04-25T09:21:02Z</time></trkpt><trkpt lat="44.86830223143461" lon="5.594686376409084"><ele>890.5000000000001</ele><time>2026-04-25T09:21:04Z</time></trkpt><trkpt lat="44.86837257030746" lon="5.594689398600984"><ele>891.0</ele><time>2026-04-25T09:21:05Z</time></trkpt><trkpt lat="44.868435192102275" lon="5.594644613608834"><ele>891.5</ele><time>2026-04-25T09:21:06Z</time></trkpt><trkpt lat="44.86851882389735" lon="5.5945966832643705"><ele>892.0</ele><time>2026-04-25T09:21:08Z</time></trkpt><trkpt lat="44.86858379731313" lon="5.5945397376671"><ele>892.5000000000001</ele><time>2026-04-25T09:21:10Z</time></trkpt><trkpt lat="44.8686843160327" lon="5.594545192045625"><ele>893.0</ele><time>2026-04-25T09:21:12Z</time></trkpt><trkpt lat="44.86879195057562" lon="5.594575855325442"><ele>893.0</ele><time>2026-04-25T09:21:14Z</time></trkpt><trkpt lat="44.86885269664672" lon="5.59463757557582"><ele>893.0</ele><time>2026-04-25T09:21:15Z</time></trkpt><trkpt lat="44.86895307039338" lon="5.5946799363048365"><ele>893.0</ele><time>2026-04-25T09:21:17Z</time></trkpt><trkpt lat="44.86904286430518" lon="5.594692648700755"><ele>893.0</ele><time>2026-04-25T09:21:18.999Z</time></trkpt><trkpt lat="44.869103115972536" lon="5.594766891415704"><ele>893.0</ele><time>2026-04-25T09:21:20.999Z</time></trkpt><trkpt lat="44.86913636076601" lon="5.594906971105189"><ele>893.0000000000001</ele><time>2026-04-25T09:21:22.999Z</time></trkpt><trkpt lat="44.86918874821822" lon="5.595059498301255"><ele>893.0</ele><time>2026-04-25T09:21:24.999Z</time></trkpt><trkpt lat="44.869217526959034" lon="5.595143284386303"><ele>893.0</ele><time>2026-04-25T09:21:25.999Z</time></trkpt><trkpt lat="44.86925924704908" lon="5.5952314720279865"><ele>893.0</ele><time>2026-04-25T09:21:26.999Z</time></trkpt><trkpt lat="44.86928455964653" lon="5.595331296463165"><ele>893.0000000000001</ele><time>2026-04-25T09:21:27.999Z</time></trkpt><trkpt lat="44.86931911150086" lon="5.595434869524616"><ele>893.0</ele><time>2026-04-25T09:21:28.999Z</time></trkpt><trkpt lat="44.86936282916728" lon="5.5955299982088755"><ele>892.6666666666667</ele><time>2026-04-25T09:21:29.999Z</time></trkpt><trkpt lat="44.86941130231186" lon="5.595624411205969"><ele>892.3333333333334</ele><time>2026-04-25T09:21:30.999Z</time></trkpt><trkpt lat="44.86945320541076" lon="5.595740433118508"><ele>892.0</ele><time>2026-04-25T09:21:31.999Z</time></trkpt><trkpt lat="44.869517853126446" lon="5.5958362057694275"><ele>891.6666666666667</ele><time>2026-04-25T09:21:32.999Z</time></trkpt><trkpt lat="44.869577508899255" lon="5.595915155728045"><ele>891.3333333333334</ele><time>2026-04-25T09:21:33.999Z</time></trkpt><trkpt lat="44.8696499788374" lon="5.595978395976688"><ele>891.0</ele><time>2026-04-25T09:21:34.999Z</time></trkpt><trkpt lat="44.86971211096664" lon="5.596071471323802"><ele>891.0</ele><time>2026-04-25T09:21:35.999Z</time></trkpt><trkpt lat="44.86978292007247" lon="5.596148065257665"><ele>890.9999999999999</ele><time>2026-04-25T09:21:36.999Z</time></trkpt><trkpt lat="44.86982923362162" lon="5.596230073183469"><ele>890.9999999999999</ele><time>2026-04-25T09:21:37.999Z</time></trkpt><trkpt lat="44.8698830799269" lon="5.5963022361457515"><ele>891.0</ele><time>2026-04-25T09:21:38.999Z</time></trkpt><trkpt lat="44.86996045782342" lon="5.596423133721337"><ele>891.0</ele><time>2026-04-25T09:21:40.999Z</time></trkpt><trkpt lat="44.87000896694367" lon="5.596544672055139"><ele>889.4</ele><time>2026-04-25T09:21:43.999Z</time></trkpt><trkpt lat="44.87003221411961" lon="5.596646665479649"><ele>887.8</ele><time>2026-04-25T09:21:46.999Z</time></trkpt><trkpt lat="44.87006646666393" lon="5.596731266205756"><ele>886.1999999999999</ele><time>2026-04-25T09:21:49.999Z</time></trkpt><trkpt lat="44.86994404484653" lon="5.596853256183826"><ele>884.5999999999999</ele><time>2026-04-25T09:21:52.999Z</time></trkpt><trkpt lat="44.869822523517506" lon="5.596936250873598"><ele>883.0</ele><time>2026-04-25T09:21:54.999Z</time></trkpt><trkpt lat="44.86975197503069" lon="5.596988473826951"><ele>882.4999999999999</ele><time>2026-04-25T09:21:55.999Z</time></trkpt><trkpt lat="44.869681143316875" lon="5.597047958335361"><ele>882.0</ele><time>2026-04-25T09:21:56.999Z</time></trkpt><trkpt lat="44.86961338792343" lon="5.59712055062974"><ele>881.5</ele><time>2026-04-25T09:21:57.999Z</time></trkpt><trkpt lat="44.86954500357801" lon="5.597200668981279"><ele>881.0</ele><time>2026-04-25T09:21:58.999Z</time></trkpt><trkpt lat="44.86948195498628" lon="5.597294692782051"><ele>880.4999999999999</ele><time>2026-04-25T09:21:59.999Z</time></trkpt><trkpt lat="44.86943849576816" lon="5.597411955177784"><ele>880.0</ele><time>2026-04-25T09:22:00.999Z</time></trkpt><trkpt lat="44.86942619115773" lon="5.597541108855598"><ele>880.0</ele><time>2026-04-25T09:22:01.999Z</time></trkpt><trkpt lat="44.86941719861372" lon="5.597677875676193"><ele>880.0</ele><time>2026-04-25T09:22:02.999Z</time></trkpt><trkpt lat="44.869397477543004" lon="5.597811623952548"><ele>880.0</ele><time>2026-04-25T09:22:03.999Z</time></trkpt><trkpt lat="44.869396150269985" lon="5.597947683805986"><ele>880.0</ele><time>2026-04-25T09:22:04.999Z</time></trkpt><trkpt lat="44.869407116531946" lon="5.598083712197878"><ele>880.0</ele><time>2026-04-25T09:22:05.999Z</time></trkpt><trkpt lat="44.869408805714734" lon="5.5982290600201425"><ele>878.8</ele><time>2026-04-25T09:22:06.999Z</time></trkpt><trkpt lat="44.86941219469957" lon="5.598371304462423"><ele>877.6</ele><time>2026-04-25T09:22:07.999Z</time></trkpt><trkpt lat="44.869411500691925" lon="5.598517483827069"><ele>876.4000000000001</ele><time>2026-04-25T09:22:08.999Z</time></trkpt><trkpt lat="44.869408182218386" lon="5.598662259756182"><ele>875.2</ele><time>2026-04-25T09:22:09.999Z</time></trkpt><trkpt lat="44.86939594221771" lon="5.598791082704194"><ele>874.0</ele><time>2026-04-25T09:22:10.999Z</time></trkpt><trkpt lat="44.86938040321582" lon="5.598900318012296"><ele>872.8333333333333</ele><time>2026-04-25T09:22:11.999Z</time></trkpt><trkpt lat="44.86934372839837" lon="5.59903579926271"><ele>871.6666666666666</ele><time>2026-04-25T09:22:13.999Z</time></trkpt><trkpt lat="44.8693007939338" lon="5.59918787248579"><ele>870.5</ele><time>2026-04-25T09:22:15.998Z</time></trkpt><trkpt lat="44.869276889517735" lon="5.59927107400535"><ele>869.3333333333333</ele><time>2026-04-25T09:22:16.998Z</time></trkpt><trkpt lat="44.86925008901272" lon="5.599356553776371"><ele>868.1666666666666</ele><time>2026-04-25T09:22:17.998Z</time></trkpt><trkpt lat="44.869210914523215" lon="5.599448963771302"><ele>867.0</ele><time>2026-04-25T09:22:18.998Z</time></trkpt><trkpt lat="44.86916695275175" lon="5.599546194806559"><ele>863.3333333333334</ele><time>2026-04-25T09:22:19.998Z</time></trkpt><trkpt lat="44.86912960616721" lon="5.5996484965615885"><ele>859.6666666666667</ele><time>2026-04-25T09:22:20.998Z</time></trkpt><trkpt lat="44.869094848698786" lon="5.599765172706835"><ele>856.0</ele><time>2026-04-25T09:22:21.998Z</time></trkpt><trkpt lat="44.8690526007229" lon="5.599875345319001"><ele>852.3333333333334</ele><time>2026-04-25T09:22:22.998Z</time></trkpt><trkpt lat="44.86900295018617" lon="5.599982099643293"><ele>848.6666666666667</ele><time>2026-04-25T09:22:23.998Z</time></trkpt><trkpt lat="44.8689613431466" lon="5.600096965257598"><ele>845.0</ele><time>2026-04-25T09:22:24.998Z</time></trkpt><trkpt lat="44.86891748943358" lon="5.600208690088787"><ele>845.0</ele><time>2026-04-25T09:22:25.998Z</time></trkpt><trkpt lat="44.868866768875854" lon="5.600321097249443"><ele>845.0</ele><time>2026-04-25T09:22:26.998Z</time></trkpt><trkpt lat="44.868810941154294" lon="5.600430252163119"><ele>845.0</ele><time>2026-04-25T09:22:27.998Z</time></trkpt><trkpt lat="44.86875537018394" lon="5.600540888107865"><ele>845.0</ele><time>2026-04-25T09:22:28.998Z</time></trkpt><trkpt lat="44.86869903715392" lon="5.600652390685822"><ele>845.0</ele><time>2026-04-25T09:22:29.998Z</time></trkpt><trkpt lat="44.86864610115468" lon="5.600764439772453"><ele>844.8</ele><time>2026-04-25T09:22:30.998Z</time></trkpt><trkpt lat="44.868598312489425" lon="5.600876593362939"><ele>844.6</ele><time>2026-04-25T09:22:31.998Z</time></trkpt><trkpt lat="44.86855352266884" lon="5.600997341975246"><ele>844.4000000000001</ele><time>2026-04-25T09:22:32.998Z</time></trkpt><trkpt lat="44.86852492438762" lon="5.601120124231744"><ele>844.2</ele><time>2026-04-25T09:22:33.998Z</time></trkpt><trkpt lat="44.86850290480639" lon="5.601251526892115"><ele>844.0</ele><time>2026-04-25T09:22:34.998Z</time></trkpt><trkpt lat="44.8684855232858" lon="5.601380631594718"><ele>844.0</ele><time>2026-04-25T09:22:35.998Z</time></trkpt><trkpt lat="44.868458492054565" lon="5.601508171897649"><ele>844.0</ele><time>2026-04-25T09:22:36.998Z</time></trkpt><trkpt lat="44.86844281182747" lon="5.601630056441502"><ele>844.0</ele><time>2026-04-25T09:22:37.998Z</time></trkpt><trkpt lat="44.86842053602733" lon="5.601749836943971"><ele>844.0</ele><time>2026-04-25T09:22:38.998Z</time></trkpt><trkpt lat="44.86838494946466" lon="5.601864323480417"><ele>844.0</ele><time>2026-04-25T09:22:39.998Z</time></trkpt><trkpt lat="44.86832120320275" lon="5.601986991669324"><ele>841.5</ele><time>2026-04-25T09:22:40.998Z</time></trkpt><trkpt lat="44.86821255756004" lon="5.602065627709309"><ele>839.0</ele><time>2026-04-25T09:22:42Z</time></trkpt><trkpt lat="44.86809450828083" lon="5.602129870188314"><ele>836.5</ele><time>2026-04-25T09:22:43Z</time></trkpt><trkpt lat="44.867981892352034" lon="5.602218436757253"><ele>834.0</ele><time>2026-04-25T09:22:44Z</time></trkpt><trkpt lat="44.867869322194316" lon="5.602307512879713"><ele>834.0</ele><time>2026-04-25T09:22:45Z</time></trkpt><trkpt lat="44.86775896836174" lon="5.602405892151138"><ele>834.0</ele><time>2026-04-25T09:22:46Z</time></trkpt><trkpt lat="44.867656829491374" lon="5.6025047279166875"><ele>834.0</ele><time>2026-04-25T09:22:47Z</time></trkpt><trkpt lat="44.86756935886199" lon="5.6026176771782215"><ele>834.0</ele><time>2026-04-25T09:22:48Z</time></trkpt><trkpt lat="44.8675027434857" lon="5.60274702153861"><ele>828.5</ele><time>2026-04-25T09:22:49Z</time></trkpt><trkpt lat="44.86744598721414" lon="5.602883149514403"><ele>823.0</ele><time>2026-04-25T09:22:50Z</time></trkpt><trkpt lat="44.8673980740053" lon="5.603033287238391"><ele>817.5</ele><time>2026-04-25T09:22:51Z</time></trkpt><trkpt lat="44.867364506380476" lon="5.603201796364138"><ele>812.0</ele><time>2026-04-25T09:22:52Z</time></trkpt><trkpt lat="44.86734613205233" lon="5.603382925357475"><ele>812.0</ele><time>2026-04-25T09:22:53Z</time></trkpt><trkpt lat="44.86734839534352" lon="5.603566798098956"><ele>812.0</ele><time>2026-04-25T09:22:54Z</time></trkpt><trkpt lat="44.86737004009951" lon="5.603757266790927"><ele>812.0</ele><time>2026-04-25T09:22:55Z</time></trkpt><trkpt lat="44.86738216968153" lon="5.6039702083852845"><ele>812.0</ele><time>2026-04-25T09:22:56Z</time></trkpt><trkpt lat="44.867414708725434" lon="5.604183648970652"><ele>811.5</ele><time>2026-04-25T09:22:57Z</time></trkpt><trkpt lat="44.86744638142481" lon="5.604391407159533"><ele>811.0</ele><time>2026-04-25T09:22:58Z</time></trkpt><trkpt lat="44.86747627660039" lon="5.60458775742926"><ele>810.5</ele><time>2026-04-25T09:22:59Z</time></trkpt><trkpt lat="44.867502603871486" lon="5.604760777099235"><ele>810.0</ele><time>2026-04-25T09:23:00Z</time></trkpt><trkpt lat="44.86752814895276" lon="5.604928656641015"><ele>809.6</ele><time>2026-04-25T09:23:01Z</time></trkpt><trkpt lat="44.867551464767494" lon="5.605081885455617"><ele>809.2</ele><time>2026-04-25T09:23:02Z</time></trkpt><trkpt lat="44.86756944469717" lon="5.605200047607563"><ele>808.8</ele><time>2026-04-25T09:23:03Z</time></trkpt><trkpt lat="44.86759209488521" lon="5.605366993525388"><ele>808.4</ele><time>2026-04-25T09:23:05Z</time></trkpt><trkpt lat="44.86757291886651" lon="5.6055070355918435"><ele>808.0</ele><time>2026-04-25T09:23:07Z</time></trkpt><trkpt lat="44.867596353429455" lon="5.60567337296631"><ele>807.25</ele><time>2026-04-25T09:23:09Z</time></trkpt><trkpt lat="44.86757742770129" lon="5.605539569370634"><ele>806.5</ele><time>2026-04-25T09:23:10Z</time></trkpt><trkpt lat="44.86754880638799" lon="5.605705764971468"><ele>805.75</ele><time>2026-04-25T09:23:27.999Z</time></trkpt><trkpt lat="44.867418200007926" lon="5.605505218662387"><ele>805.0</ele><time>2026-04-25T09:23:28.999Z</time></trkpt><trkpt lat="44.86735386393999" lon="5.6053863535834045"><ele>806.0</ele><time>2026-04-25T09:23:29.999Z</time></trkpt><trkpt lat="44.867305038699264" lon="5.60525035532771"><ele>807.0</ele><time>2026-04-25T09:23:30.999Z</time></trkpt><trkpt lat="44.86723207746047" lon="5.605041745842807"><ele>808.0</ele><time>2026-04-25T09:23:31.999Z</time></trkpt><trkpt lat="44.86714245381848" lon="5.604795346607587"><ele>808.0</ele><time>2026-04-25T09:23:32.999Z</time></trkpt><trkpt lat="44.86705397317446" lon="5.604504417886451"><ele>808.0</ele><time>2026-04-25T09:23:33.999Z</time></trkpt><trkpt lat="44.86697621504283" lon="5.604184112756336"><ele>809.0</ele><time>2026-04-25T09:23:34.999Z</time></trkpt><trkpt lat="44.866926751990164" lon="5.603858106398083"><ele>810.0</ele><time>2026-04-25T09:23:35.999Z</time></trkpt><trkpt lat="44.86692283238339" lon="5.603515283384202"><ele>811.0</ele><time>2026-04-25T09:23:36.999Z</time></trkpt><trkpt lat="44.86692557319391" lon="5.603183518989247"><ele>812.0</ele><time>2026-04-25T09:23:37.999Z</time></trkpt><trkpt lat="44.86692615964361" lon="5.60286268719195"><ele>811.6666666666667</ele><time>2026-04-25T09:23:38.999Z</time></trkpt><trkpt lat="44.86694207002079" lon="5.602550412860617"><ele>811.3333333333333</ele><time>2026-04-25T09:23:39.999Z</time></trkpt><trkpt lat="44.86696585887151" lon="5.602242884870497"><ele>811.0</ele><time>2026-04-25T09:23:40.999Z</time></trkpt><trkpt lat="44.866978243685296" lon="5.601934864385898"><ele>809.6666666666666</ele><time>2026-04-25T09:23:41.999Z</time></trkpt><trkpt lat="44.866979551718714" lon="5.601634652813098"><ele>808.3333333333333</ele><time>2026-04-25T09:23:42.999Z</time></trkpt><trkpt lat="44.86696187104668" lon="5.601341305145544"><ele>807.0</ele><time>2026-04-25T09:23:43.999Z</time></trkpt><trkpt lat="44.86691799663696" lon="5.601063829017558"><ele>810.0</ele><time>2026-04-25T09:23:44.999Z</time></trkpt><trkpt lat="44.86685123888157" lon="5.600779566527139"><ele>813.0</ele><time>2026-04-25T09:23:45.999Z</time></trkpt><trkpt lat="44.86677019624616" lon="5.600482276811572"><ele>816.0</ele><time>2026-04-25T09:23:46.999Z</time></trkpt><trkpt lat="44.86667808898641" lon="5.600189274160742"><ele>808.3333333333333</ele><time>2026-04-25T09:23:47.999Z</time></trkpt><trkpt lat="44.86657068963482" lon="5.5999253951724075"><ele>800.6666666666666</ele><time>2026-04-25T09:23:48.999Z</time></trkpt><trkpt lat="44.86644366003056" lon="5.59968939105588"><ele>793.0</ele><time>2026-04-25T09:23:49.999Z</time></trkpt><trkpt lat="44.86630756904162" lon="5.599475080716618"><ele>792.3333333333333</ele><time>2026-04-25T09:23:50.999Z</time></trkpt><trkpt lat="44.866160514998825" lon="5.599277902504066"><ele>791.6666666666667</ele><time>2026-04-25T09:23:51.999Z</time></trkpt><trkpt lat="44.86600060691942" lon="5.599110200464286"><ele>791.0</ele><time>2026-04-25T09:23:52.999Z</time></trkpt><trkpt lat="44.86582508819435" lon="5.598964674232236"><ele>783.6666666666667</ele><time>2026-04-25T09:23:53.999Z</time></trkpt><trkpt lat="44.86563486505941" lon="5.598826880898379"><ele>776.3333333333333</ele><time>2026-04-25T09:23:54.999Z</time></trkpt><trkpt lat="44.86543628252832" lon="5.59870417743249"><ele>769.0</ele><time>2026-04-25T09:23:55.999Z</time></trkpt><trkpt lat="44.86522326841504" lon="5.598605622425789"><ele>769.6666666666666</ele><time>2026-04-25T09:23:56.999Z</time></trkpt><trkpt lat="44.865014665080366" lon="5.5985415458313055"><ele>770.3333333333333</ele><time>2026-04-25T09:23:57.999Z</time></trkpt><trkpt lat="44.864804164028826" lon="5.598499100572424"><ele>771.0</ele><time>2026-04-25T09:23:58.999Z</time></trkpt><trkpt lat="44.864591890171106" lon="5.598494030330908"><ele>771.0</ele><time>2026-04-25T09:23:59.999Z</time></trkpt><trkpt lat="44.864385970076" lon="5.59851283771309"><ele>771.0</ele><time>2026-04-25T09:24:00.999Z</time></trkpt><trkpt lat="44.86417420157504" lon="5.598571310762399"><ele>771.0</ele><time>2026-04-25T09:24:01.999Z</time></trkpt><trkpt lat="44.863954480637084" lon="5.598669818346189"><ele>770.6666666666667</ele><time>2026-04-25T09:24:02.999Z</time></trkpt><trkpt lat="44.86374871397417" lon="5.5987786987731605"><ele>770.3333333333334</ele><time>2026-04-25T09:24:03.999Z</time></trkpt><trkpt lat="44.86353952187955" lon="5.598871736254601"><ele>770.0</ele><time>2026-04-25T09:24:04.999Z</time></trkpt><trkpt lat="44.863359970514715" lon="5.5989838148454645"><ele>774.0</ele><time>2026-04-25T09:24:05.999Z</time></trkpt><trkpt lat="44.863188436769505" lon="5.599095060813177"><ele>778.0</ele><time>2026-04-25T09:24:06.999Z</time></trkpt><trkpt lat="44.86303215087145" lon="5.599213569437138"><ele>782.0</ele><time>2026-04-25T09:24:07.999Z</time></trkpt><trkpt lat="44.86288955620486" lon="5.599381144174585"><ele>785.0</ele><time>2026-04-25T09:24:08.999Z</time></trkpt><trkpt lat="44.86275234729054" lon="5.59954379340163"><ele>788.0</ele><time>2026-04-25T09:24:09.999Z</time></trkpt><trkpt lat="44.862624347005976" lon="5.599720388400637"><ele>791.0</ele><time>2026-04-25T09:24:10.999Z</time></trkpt><trkpt lat="44.86250106628308" lon="5.599897741453338"><ele>791.0</ele><time>2026-04-25T09:24:11.999Z</time></trkpt><trkpt lat="44.862394153064" lon="5.600088364728644"><ele>791.0</ele><time>2026-04-25T09:24:12.999Z</time></trkpt><trkpt lat="44.86228850351757" lon="5.600313761153678"><ele>791.0</ele><time>2026-04-25T09:24:13.999Z</time></trkpt><trkpt lat="44.86216515864637" lon="5.60058854790433"><ele>792.6666666666667</ele><time>2026-04-25T09:24:14.999Z</time></trkpt><trkpt lat="44.86203362325271" lon="5.600862920831911"><ele>794.3333333333333</ele><time>2026-04-25T09:24:15.999Z</time></trkpt><trkpt lat="44.86193140133291" lon="5.601123689157048"><ele>796.0</ele><time>2026-04-25T09:24:16.999Z</time></trkpt><trkpt lat="44.86183602837809" lon="5.601367866381169"><ele>797.3333333333333</ele><time>2026-04-25T09:24:17.999Z</time></trkpt><trkpt lat="44.86174181410155" lon="5.601612387423036"><ele>798.6666666666667</ele><time>2026-04-25T09:24:18.998Z</time></trkpt><trkpt lat="44.86164972820998" lon="5.601851384141737"><ele>800.0</ele><time>2026-04-25T09:24:19.998Z</time></trkpt><trkpt lat="44.86156412414774" lon="5.602072221256383"><ele>800.3333333333334</ele><time>2026-04-25T09:24:20.998Z</time></trkpt><trkpt lat="44.861468845000466" lon="5.602316185335984"><ele>800.6666666666667</ele><time>2026-04-25T09:24:21.998Z</time></trkpt><trkpt lat="44.86135941582447" lon="5.602597367814437"><ele>801.0</ele><time>2026-04-25T09:24:22.998Z</time></trkpt><trkpt lat="44.86124943427316" lon="5.602880019166441"><ele>800.0</ele><time>2026-04-25T09:24:23.998Z</time></trkpt><trkpt lat="44.86114281810612" lon="5.603153320953899"><ele>799.0</ele><time>2026-04-25T09:24:24.998Z</time></trkpt><trkpt lat="44.861048418377585" lon="5.603435435909676"><ele>798.0</ele><time>2026-04-25T09:24:25.998Z</time></trkpt><trkpt lat="44.860928819233905" lon="5.603700500839687"><ele>798.0</ele><time>2026-04-25T09:24:26.998Z</time></trkpt><trkpt lat="44.86082110868808" lon="5.603975908512132"><ele>798.0</ele><time>2026-04-25T09:24:27.998Z</time></trkpt><trkpt lat="44.860714257295506" lon="5.6042491206175145"><ele>798.0</ele><time>2026-04-25T09:24:28.998Z</time></trkpt><trkpt lat="44.86060876100445" lon="5.604521118788196"><ele>797.3333333333333</ele><time>2026-04-25T09:24:29.998Z</time></trkpt><trkpt lat="44.86051823399038" lon="5.604795490412334"><ele>796.6666666666666</ele><time>2026-04-25T09:24:30.998Z</time></trkpt><trkpt lat="44.86041774517591" lon="5.6050590580604815"><ele>796.0</ele><time>2026-04-25T09:24:31.998Z</time></trkpt><trkpt lat="44.86031640701653" lon="5.605320151014141"><ele>796.6666666666666</ele><time>2026-04-25T09:24:32.998Z</time></trkpt><trkpt lat="44.86021933981037" lon="5.605578650316292"><ele>797.3333333333333</ele><time>2026-04-25T09:24:33.998Z</time></trkpt><trkpt lat="44.86011954404214" lon="5.605840830366537"><ele>798.0</ele><time>2026-04-25T09:24:34.998Z</time></trkpt><trkpt lat="44.86001403896925" lon="5.6060993290865095"><ele>796.3333333333333</ele><time>2026-04-25T09:24:35.998Z</time></trkpt><trkpt lat="44.859899292000094" lon="5.606357863359353"><ele>794.6666666666666</ele><time>2026-04-25T09:24:36.998Z</time></trkpt><trkpt lat="44.85978473441587" lon="5.606615282219745"><ele>793.0</ele><time>2026-04-25T09:24:37.998Z</time></trkpt><trkpt lat="44.859668613350884" lon="5.606867845220102"><ele>792.0</ele><time>2026-04-25T09:24:38.998Z</time></trkpt><trkpt lat="44.8595684158158" lon="5.607129958285246"><ele>791.0</ele><time>2026-04-25T09:24:39.998Z</time></trkpt><trkpt lat="44.85944923524232" lon="5.607368264832611"><ele>790.0</ele><time>2026-04-25T09:24:40.998Z</time></trkpt><trkpt lat="44.85932569960832" lon="5.607589327238854"><ele>790.6666666666666</ele><time>2026-04-25T09:24:41.998Z</time></trkpt><trkpt lat="44.85921190318677" lon="5.607808911508004"><ele>791.3333333333333</ele><time>2026-04-25T09:24:42.998Z</time></trkpt><trkpt lat="44.85909918196832" lon="5.6080085657286975"><ele>792.0</ele><time>2026-04-25T09:24:43.998Z</time></trkpt><trkpt lat="44.85897239151411" lon="5.608211439763115"><ele>792.0</ele><time>2026-04-25T09:24:44.998Z</time></trkpt><trkpt lat="44.85885901098325" lon="5.608409896751418"><ele>792.0</ele><time>2026-04-25T09:24:45.998Z</time></trkpt><trkpt lat="44.858731471910694" lon="5.608596292018161"><ele>792.0</ele><time>2026-04-25T09:24:46.998Z</time></trkpt><trkpt lat="44.85860237858049" lon="5.608785328519063"><ele>791.0</ele><time>2026-04-25T09:24:48Z</time></trkpt><trkpt lat="44.8584670053841" lon="5.608972176366198"><ele>790.0</ele><time>2026-04-25T09:24:49Z</time></trkpt><trkpt lat="44.85833026743782" lon="5.609157707378362"><ele>789.0</ele><time>2026-04-25T09:24:50Z</time></trkpt><trkpt lat="44.85818935936916" lon="5.609335492477516"><ele>786.0</ele><time>2026-04-25T09:24:51Z</time></trkpt><trkpt lat="44.858049235124895" lon="5.609505080681265"><ele>783.0</ele><time>2026-04-25T09:24:52Z</time></trkpt><trkpt lat="44.85790373985063" lon="5.609676802109722"><ele>780.0</ele><time>2026-04-25T09:24:53Z</time></trkpt><trkpt lat="44.857752181622494" lon="5.609841603417724"><ele>779.3333333333333</ele><time>2026-04-25T09:24:54Z</time></trkpt><trkpt lat="44.85759964660306" lon="5.610015652956828"><ele>778.6666666666666</ele><time>2026-04-25T09:24:55Z</time></trkpt><trkpt lat="44.85743579346584" lon="5.610197580968094"><ele>778.0</ele><time>2026-04-25T09:24:56Z</time></trkpt><trkpt lat="44.857260267442996" lon="5.610396586640814"><ele>778.0</ele><time>2026-04-25T09:24:57Z</time></trkpt><trkpt lat="44.85708322907669" lon="5.610607878961414"><ele>778.0</ele><time>2026-04-25T09:24:58Z</time></trkpt><trkpt lat="44.85690437021197" lon="5.6108228475271895"><ele>776.5</ele><time>2026-04-25T09:24:59Z</time></trkpt><trkpt lat="44.856722188666645" lon="5.611041096436732"><ele>775.0</ele><time>2026-04-25T09:25:00Z</time></trkpt><trkpt lat="44.85655400571032" lon="5.611261391800456"><ele>775.0</ele><time>2026-04-25T09:25:01Z</time></trkpt><trkpt lat="44.856410231239266" lon="5.611487037689637"><ele>775.0</ele><time>2026-04-25T09:25:02Z</time></trkpt><trkpt lat="44.85629275459063" lon="5.6117154547480945"><ele>775.0</ele><time>2026-04-25T09:25:03Z</time></trkpt><trkpt lat="44.856181678083644" lon="5.611949482539786"><ele>771.6666666666666</ele><time>2026-04-25T09:25:04Z</time></trkpt><trkpt lat="44.85607592502199" lon="5.612197760737516"><ele>768.3333333333333</ele><time>2026-04-25T09:25:05Z</time></trkpt><trkpt lat="44.855964032368966" lon="5.612460005646552"><ele>765.0</ele><time>2026-04-25T09:25:06Z</time></trkpt><trkpt lat="44.85583609663429" lon="5.612715400711064"><ele>768.0</ele><time>2026-04-25T09:25:07Z</time></trkpt><trkpt lat="44.855711837653246" lon="5.61297451299784"><ele>771.0</ele><time>2026-04-25T09:25:08Z</time></trkpt><trkpt lat="44.85558833562503" lon="5.613240769902442"><ele>774.0</ele><time>2026-04-25T09:25:09Z</time></trkpt><trkpt lat="44.85546270841671" lon="5.613505484131599"><ele>767.5</ele><time>2026-04-25T09:25:10Z</time></trkpt><trkpt lat="44.85534695124743" lon="5.6137836141262785"><ele>761.0</ele><time>2026-04-25T09:25:11Z</time></trkpt><trkpt lat="44.855217822439634" lon="5.614061487000797"><ele>760.0</ele><time>2026-04-25T09:25:12Z</time></trkpt><trkpt lat="44.855096757734835" lon="5.614334578241978"><ele>759.0</ele><time>2026-04-25T09:25:13Z</time></trkpt><trkpt lat="44.85496829279227" lon="5.614589986771506"><ele>759.0</ele><time>2026-04-25T09:25:14Z</time></trkpt><trkpt lat="44.85484341740508" lon="5.614862236049095"><ele>759.0</ele><time>2026-04-25T09:25:15Z</time></trkpt><trkpt lat="44.85471469235398" lon="5.61513672254412"><ele>757.0</ele><time>2026-04-25T09:25:16Z</time></trkpt><trkpt lat="44.854585553958835" lon="5.615409919788888"><ele>755.0</ele><time>2026-04-25T09:25:17Z</time></trkpt><trkpt lat="44.854459932937935" lon="5.615682196100495"><ele>755.0</ele><time>2026-04-25T09:25:18Z</time></trkpt><trkpt lat="44.85433522451763" lon="5.615960528381748"><ele>755.0</ele><time>2026-04-25T09:25:19Z</time></trkpt><trkpt lat="44.85420823391168" lon="5.616228134038886"><ele>755.3333333333333</ele><time>2026-04-25T09:25:20Z</time></trkpt><trkpt lat="44.854085437443935" lon="5.616491899053662"><ele>755.6666666666666</ele><time>2026-04-25T09:25:21Z</time></trkpt><trkpt lat="44.85398360295913" lon="5.616749158899969"><ele>756.0</ele><time>2026-04-25T09:25:22Z</time></trkpt><trkpt lat="44.853889354252935" lon="5.617010179210999"><ele>754.0</ele><time>2026-04-25T09:25:23Z</time></trkpt><trkpt lat="44.853815271136604" lon="5.617272375752382"><ele>752.0</ele><time>2026-04-25T09:25:24Z</time></trkpt><trkpt lat="44.85374858113775" lon="5.617525595067818"><ele>750.0</ele><time>2026-04-25T09:25:25Z</time></trkpt><trkpt lat="44.85367575387109" lon="5.61777771602932"><ele>748.3333333333334</ele><time>2026-04-25T09:25:26Z</time></trkpt><trkpt lat="44.853600498778526" lon="5.618027619933787"><ele>746.6666666666667</ele><time>2026-04-25T09:25:27Z</time></trkpt><trkpt lat="44.853525835429295" lon="5.618282414299584"><ele>745.0</ele><time>2026-04-25T09:25:28Z</time></trkpt><trkpt lat="44.85344830151979" lon="5.618577678370133"><ele>748.5</ele><time>2026-04-25T09:25:28.999Z</time></trkpt><trkpt lat="44.85334536783618" lon="5.618891576770643"><ele>752.0</ele><time>2026-04-25T09:25:29.999Z</time></trkpt><trkpt lat="44.85321649444665" lon="5.6191577957483325"><ele>752.0</ele><time>2026-04-25T09:25:30.999Z</time></trkpt><trkpt lat="44.853077795742166" lon="5.619394174420457"><ele>752.0</ele><time>2026-04-25T09:25:31.999Z</time></trkpt><trkpt lat="44.852946846195934" lon="5.619616995258097"><ele>752.0</ele><time>2026-04-25T09:25:32.999Z</time></trkpt><trkpt lat="44.852818196921014" lon="5.619813705882558"><ele>750.6666666666666</ele><time>2026-04-25T09:25:33.999Z</time></trkpt><trkpt lat="44.852678149965726" lon="5.619992601080884"><ele>749.3333333333334</ele><time>2026-04-25T09:25:34.999Z</time></trkpt><trkpt lat="44.85253336718356" lon="5.620139763030066"><ele>748.0</ele><time>2026-04-25T09:25:35.999Z</time></trkpt><trkpt lat="44.85237997630937" lon="5.620259557544583"><ele>746.6666666666667</ele><time>2026-04-25T09:25:36.999Z</time></trkpt><trkpt lat="44.852225762000714" lon="5.620365593784078"><ele>745.3333333333334</ele><time>2026-04-25T09:25:37.999Z</time></trkpt><trkpt lat="44.85207066506355" lon="5.6204668733015986"><ele>744.0</ele><time>2026-04-25T09:25:38.999Z</time></trkpt><trkpt lat="44.85191712662026" lon="5.620563470575739"><ele>744.3333333333334</ele><time>2026-04-25T09:25:39.999Z</time></trkpt><trkpt lat="44.8517523908565" lon="5.620635812703865"><ele>744.6666666666667</ele><time>2026-04-25T09:25:40.999Z</time></trkpt><trkpt lat="44.85159421473292" lon="5.62069903896331"><ele>745.0</ele><time>2026-04-25T09:25:41.999Z</time></trkpt><trkpt lat="44.851445826456775" lon="5.620753300290812"><ele>745.0</ele><time>2026-04-25T09:25:42.999Z</time></trkpt><trkpt lat="44.85130086524618" lon="5.620786202703394"><ele>745.0</ele><time>2026-04-25T09:25:43.999Z</time></trkpt><trkpt lat="44.85115596352841" lon="5.620816991992692"><ele>745.0</ele><time>2026-04-25T09:25:44.999Z</time></trkpt><trkpt lat="44.85099975974729" lon="5.620823922152322"><ele>746.5</ele><time>2026-04-25T09:25:45.999Z</time></trkpt><trkpt lat="44.850847795424535" lon="5.620831524063257"><ele>748.0</ele><time>2026-04-25T09:25:46.999Z</time></trkpt><trkpt lat="44.850710544178526" lon="5.620835048904606"><ele>749.5</ele><time>2026-04-25T09:25:47.999Z</time></trkpt><trkpt lat="44.85057418659074" lon="5.620812592511444"><ele>751.0</ele><time>2026-04-25T09:25:48.999Z</time></trkpt><trkpt lat="44.85043040293102" lon="5.62077568355455"><ele>751.0</ele><time>2026-04-25T09:25:49.999Z</time></trkpt><trkpt lat="44.85029058036311" lon="5.620731606427957"><ele>751.0</ele><time>2026-04-25T09:25:50.999Z</time></trkpt><trkpt lat="44.85016677569225" lon="5.620670538752202"><ele>751.0</ele><time>2026-04-25T09:25:51.999Z</time></trkpt><trkpt lat="44.85003978040141" lon="5.620608905152968"><ele>751.0</ele><time>2026-04-25T09:25:52.999Z</time></trkpt><trkpt lat="44.84991037585016" lon="5.620536780748651"><ele>752.0</ele><time>2026-04-25T09:25:53.999Z</time></trkpt><trkpt lat="44.84977184369751" lon="5.620453254947447"><ele>753.0</ele><time>2026-04-25T09:25:54.999Z</time></trkpt><trkpt lat="44.849622402643796" lon="5.620324659142217"><ele>754.0</ele><time>2026-04-25T09:25:55.999Z</time></trkpt><trkpt lat="44.84944886336778" lon="5.620166599230296"><ele>751.5</ele><time>2026-04-25T09:25:56.999Z</time></trkpt><trkpt lat="44.849263957880964" lon="5.619957445522457"><ele>749.0</ele><time>2026-04-25T09:25:57.999Z</time></trkpt><trkpt lat="44.8490725760791" lon="5.619700397294502"><ele>755.0</ele><time>2026-04-25T09:25:58.999Z</time></trkpt><trkpt lat="44.84887684746308" lon="5.619414366320957"><ele>761.0</ele><time>2026-04-25T09:25:59.999Z</time></trkpt><trkpt lat="44.848684668164836" lon="5.619115979792407"><ele>761.0</ele><time>2026-04-25T09:26:00.999Z</time></trkpt><trkpt lat="44.84847633182717" lon="5.618860138030121"><ele>761.0</ele><time>2026-04-25T09:26:01.999Z</time></trkpt><trkpt lat="44.848248357617585" lon="5.618656251455142"><ele>758.5</ele><time>2026-04-25T09:26:02.999Z</time></trkpt><trkpt lat="44.848005133255924" lon="5.618509103464794"><ele>756.0</ele><time>2026-04-25T09:26:03.999Z</time></trkpt><trkpt lat="44.84775787437943" lon="5.618414678195441"><ele>751.5</ele><time>2026-04-25T09:26:04.999Z</time></trkpt><trkpt lat="44.847505919144" lon="5.6183736113639595"><ele>747.0</ele><time>2026-04-25T09:26:05.999Z</time></trkpt><trkpt lat="44.84724992551275" lon="5.618383604654944"><ele>747.0</ele><time>2026-04-25T09:26:06.999Z</time></trkpt><trkpt lat="44.8469922590854" lon="5.618437090323491"><ele>747.0</ele><time>2026-04-25T09:26:07.999Z</time></trkpt><trkpt lat="44.84673912403999" lon="5.618513629205482"><ele>755.0</ele><time>2026-04-25T09:26:08.999Z</time></trkpt><trkpt lat="44.84648727648018" lon="5.618564752566715"><ele>763.0</ele><time>2026-04-25T09:26:09.999Z</time></trkpt><trkpt lat="44.84623169199178" lon="5.618535225419883"><ele>763.0</ele><time>2026-04-25T09:26:10.999Z</time></trkpt><trkpt lat="44.845975774234404" lon="5.6184852039132585"><ele>763.0</ele><time>2026-04-25T09:26:11.999Z</time></trkpt><trkpt lat="44.84571728592484" lon="5.6183919642844575"><ele>763.5</ele><time>2026-04-25T09:26:12.999Z</time></trkpt><trkpt lat="44.84546340148319" lon="5.618259907126326"><ele>764.0</ele><time>2026-04-25T09:26:13.999Z</time></trkpt><trkpt lat="44.84523932630028" lon="5.6180441656900895"><ele>767.5</ele><time>2026-04-25T09:26:14.999Z</time></trkpt><trkpt lat="44.845009149672215" lon="5.617859475150795"><ele>771.0</ele><time>2026-04-25T09:26:15.999Z</time></trkpt><trkpt lat="44.84478818476554" lon="5.617656382071905"><ele>771.0</ele><time>2026-04-25T09:26:16.999Z</time></trkpt><trkpt lat="44.84455252429683" lon="5.617482366390047"><ele>771.0</ele><time>2026-04-25T09:26:17.999Z</time></trkpt><trkpt lat="44.84430576486248" lon="5.6173766380727415"><ele>763.5</ele><time>2026-04-25T09:26:18.999Z</time></trkpt><trkpt lat="44.844051864685916" lon="5.617338900404642"><ele>756.0</ele><time>2026-04-25T09:26:19.999Z</time></trkpt><trkpt lat="44.843800735272225" lon="5.617390099401425"><ele>756.0</ele><time>2026-04-25T09:26:20.999Z</time></trkpt><trkpt lat="44.84356977725758" lon="5.6175137874632854"><ele>756.0</ele><time>2026-04-25T09:26:21.999Z</time></trkpt><trkpt lat="44.843342368080954" lon="5.617696221126988"><ele>749.5</ele><time>2026-04-25T09:26:22.999Z</time></trkpt><trkpt lat="44.84311581526979" lon="5.617908159880846"><ele>743.0</ele><time>2026-04-25T09:26:23.999Z</time></trkpt><trkpt lat="44.84286907911827" lon="5.618043007135706"><ele>750.0</ele><time>2026-04-25T09:26:24.999Z</time></trkpt><trkpt lat="44.842622030851075" lon="5.6181280475273265"><ele>757.0</ele><time>2026-04-25T09:26:25.998Z</time></trkpt><trkpt lat="44.84236730386955" lon="5.618144824767503"><ele>757.0</ele><time>2026-04-25T09:26:26.998Z</time></trkpt><trkpt lat="44.84212043138761" lon="5.618086711057928"><ele>757.0</ele><time>2026-04-25T09:26:27.998Z</time></trkpt><trkpt lat="44.84188330812864" lon="5.617969454548597"><ele>761.5</ele><time>2026-04-25T09:26:28.998Z</time></trkpt><trkpt lat="44.841674015021106" lon="5.617791643877477"><ele>766.0</ele><time>2026-04-25T09:26:29.998Z</time></trkpt><trkpt lat="44.84148430749522" lon="5.617547722338545"><ele>766.0</ele><time>2026-04-25T09:26:30.998Z</time></trkpt><trkpt lat="44.84131250917337" lon="5.617243741754325"><ele>766.0</ele><time>2026-04-25T09:26:31.998Z</time></trkpt><trkpt lat="44.84113432522668" lon="5.616931731926897"><ele>760.0</ele><time>2026-04-25T09:26:32.998Z</time></trkpt><trkpt lat="44.840977364567756" lon="5.616595041938525"><ele>754.0</ele><time>2026-04-25T09:26:33.998Z</time></trkpt><trkpt lat="44.84081677340735" lon="5.616274993476004"><ele>764.5</ele><time>2026-04-25T09:26:34.998Z</time></trkpt><trkpt lat="44.84066265251563" lon="5.615968317590608"><ele>775.0</ele><time>2026-04-25T09:26:35.998Z</time></trkpt><trkpt lat="44.840532559182" lon="5.615669376918223"><ele>775.0</ele><time>2026-04-25T09:26:36.998Z</time></trkpt><trkpt lat="44.84043967376522" lon="5.615388825663556"><ele>775.0</ele><time>2026-04-25T09:26:37.998Z</time></trkpt><trkpt lat="44.84038525634602" lon="5.615115624220032"><ele>775.0</ele><time>2026-04-25T09:26:38.998Z</time></trkpt><trkpt lat="44.840356149910384" lon="5.614870356533386"><ele>777.6666666666666</ele><time>2026-04-25T09:26:39.998Z</time></trkpt><trkpt lat="44.84032976475832" lon="5.614624615282684"><ele>780.3333333333333</ele><time>2026-04-25T09:26:40.998Z</time></trkpt><trkpt lat="44.840296075559046" lon="5.614350956965086"><ele>783.0</ele><time>2026-04-25T09:26:41.998Z</time></trkpt><trkpt lat="44.8402773760421" lon="5.614049762656216"><ele>783.6666666666667</ele><time>2026-04-25T09:26:42.998Z</time></trkpt><trkpt lat="44.840234845967665" lon="5.613743322961614"><ele>784.3333333333334</ele><time>2026-04-25T09:26:43.998Z</time></trkpt><trkpt lat="44.8401929628353" lon="5.613430046576991"><ele>785.0</ele><time>2026-04-25T09:26:44.998Z</time></trkpt><trkpt lat="44.84012390083341" lon="5.613139134521977"><ele>778.3333333333334</ele><time>2026-04-25T09:26:45.998Z</time></trkpt><trkpt lat="44.84002748566544" lon="5.612868171343892"><ele>771.6666666666667</ele><time>2026-04-25T09:26:46.998Z</time></trkpt><trkpt lat="44.83993265304125" lon="5.612605355297653"><ele>765.0</ele><time>2026-04-25T09:26:47.998Z</time></trkpt><trkpt lat="44.839836747423725" lon="5.612359717708143"><ele>765.0</ele><time>2026-04-25T09:26:48.998Z</time></trkpt><trkpt lat="44.839731542426456" lon="5.612134952944452"><ele>765.0</ele><time>2026-04-25T09:26:49.998Z</time></trkpt><trkpt lat="44.839608374895754" lon="5.611908591061822"><ele>765.0</ele><time>2026-04-25T09:26:50.998Z</time></trkpt><trkpt lat="44.8394521627718" lon="5.6116797569884636"><ele>762.5</ele><time>2026-04-25T09:26:51.998Z</time></trkpt><trkpt lat="44.83928015548588" lon="5.61145723264465"><ele>760.0</ele><time>2026-04-25T09:26:52.998Z</time></trkpt><trkpt lat="44.83909704976501" lon="5.611236717621477"><ele>767.0</ele><time>2026-04-25T09:26:54Z</time></trkpt><trkpt lat="44.83893595670418" lon="5.610989431096173"><ele>774.0</ele><time>2026-04-25T09:26:55Z</time></trkpt><trkpt lat="44.83875995211486" lon="5.610782068081325"><ele>774.0</ele><time>2026-04-25T09:26:56Z</time></trkpt><trkpt lat="44.838596598966134" lon="5.610589258291692"><ele>774.0</ele><time>2026-04-25T09:26:57Z</time></trkpt><trkpt lat="44.83843357725486" lon="5.610415463564302"><ele>774.0</ele><time>2026-04-25T09:26:58Z</time></trkpt><trkpt lat="44.83829477742424" lon="5.610243212590388"><ele>774.6666666666667</ele><time>2026-04-25T09:26:59Z</time></trkpt><trkpt lat="44.83817094783233" lon="5.61005711840038"><ele>775.3333333333334</ele><time>2026-04-25T09:27:00Z</time></trkpt><trkpt lat="44.83805811054957" lon="5.609883239504963"><ele>776.0</ele><time>2026-04-25T09:27:01Z</time></trkpt><trkpt lat="44.83795414756926" lon="5.609699804920366"><ele>776.0</ele><time>2026-04-25T09:27:02Z</time></trkpt><trkpt lat="44.83784641420204" lon="5.609511126345512"><ele>776.0</ele><time>2026-04-25T09:27:03Z</time></trkpt><trkpt lat="44.83776601508834" lon="5.60929654899403"><ele>776.0</ele><time>2026-04-25T09:27:04Z</time></trkpt><trkpt lat="44.837711710933156" lon="5.609073435578758"><ele>775.0</ele><time>2026-04-25T09:27:05Z</time></trkpt><trkpt lat="44.83766671209344" lon="5.608851304988037"><ele>774.0</ele><time>2026-04-25T09:27:06Z</time></trkpt><trkpt lat="44.83763264259256" lon="5.6086389674238415"><ele>773.0</ele><time>2026-04-25T09:27:07Z</time></trkpt><trkpt lat="44.83759426355874" lon="5.608419959855342"><ele>773.0</ele><time>2026-04-25T09:27:08Z</time></trkpt><trkpt lat="44.83757544785984" lon="5.608195632326975"><ele>773.0</ele><time>2026-04-25T09:27:09Z</time></trkpt><trkpt lat="44.83755580607665" lon="5.607981890456567"><ele>773.0</ele><time>2026-04-25T09:27:10Z</time></trkpt><trkpt lat="44.83752766860224" lon="5.607771505741012"><ele>775.3333333333334</ele><time>2026-04-25T09:27:11Z</time></trkpt><trkpt lat="44.8375015514005" lon="5.6075618826353635"><ele>777.6666666666667</ele><time>2026-04-25T09:27:12Z</time></trkpt><trkpt lat="44.837431344140384" lon="5.607363955728543"><ele>780.0</ele><time>2026-04-25T09:27:13Z</time></trkpt><trkpt lat="44.83736531275173" lon="5.607156309406741"><ele>786.0</ele><time>2026-04-25T09:27:14Z</time></trkpt><trkpt lat="44.837281478223694" lon="5.606967828166155"><ele>792.0</ele><time>2026-04-25T09:27:15Z</time></trkpt><trkpt lat="44.83718957458584" lon="5.606800129288015"><ele>798.0</ele><time>2026-04-25T09:27:16Z</time></trkpt><trkpt lat="44.83708354154281" lon="5.606649747504046"><ele>798.0</ele><time>2026-04-25T09:27:17Z</time></trkpt><trkpt lat="44.83697162841886" lon="5.6065021301524105"><ele>798.0</ele><time>2026-04-25T09:27:18Z</time></trkpt><trkpt lat="44.83685100251336" lon="5.606353534129898"><ele>798.0</ele><time>2026-04-25T09:27:19Z</time></trkpt><trkpt lat="44.8367328464145" lon="5.6061996644628955"><ele>794.25</ele><time>2026-04-25T09:27:20Z</time></trkpt><trkpt lat="44.83661894806947" lon="5.606039761285058"><ele>790.5</ele><time>2026-04-25T09:27:21Z</time></trkpt><trkpt lat="44.8365220475308" lon="5.605879446447022"><ele>786.75</ele><time>2026-04-25T09:27:22Z</time></trkpt><trkpt lat="44.83643986740789" lon="5.6057217340582906"><ele>783.0</ele><time>2026-04-25T09:27:23Z</time></trkpt><trkpt lat="44.83634817467311" lon="5.605556603815319"><ele>783.0</ele><time>2026-04-25T09:27:24Z</time></trkpt><trkpt lat="44.836253077961864" lon="5.605387535444835"><ele>783.0</ele><time>2026-04-25T09:27:25Z</time></trkpt><trkpt lat="44.8361689991872" lon="5.605204075506367"><ele>783.0</ele><time>2026-04-25T09:27:26Z</time></trkpt><trkpt lat="44.83609524758727" lon="5.6050193501632934"><ele>782.75</ele><time>2026-04-25T09:27:27Z</time></trkpt><trkpt lat="44.836025858905785" lon="5.60483491592925"><ele>782.5</ele><time>2026-04-25T09:27:28Z</time></trkpt><trkpt lat="44.8359696480753" lon="5.60463583039578"><ele>782.25</ele><time>2026-04-25T09:27:29Z</time></trkpt><trkpt lat="44.835924874813216" lon="5.60444193193359"><ele>782.0</ele><time>2026-04-25T09:27:30Z</time></trkpt><trkpt lat="44.83589105805494" lon="5.604256015740815"><ele>782.0</ele><time>2026-04-25T09:27:31Z</time></trkpt><trkpt lat="44.835863334593874" lon="5.604067102228518"><ele>782.0</ele><time>2026-04-25T09:27:32Z</time></trkpt><trkpt lat="44.83583443905761" lon="5.603859092330361"><ele>782.0</ele><time>2026-04-25T09:27:33Z</time></trkpt><trkpt lat="44.83580693329921" lon="5.603639397432791"><ele>782.0</ele><time>2026-04-25T09:27:34Z</time></trkpt><trkpt lat="44.835789389454156" lon="5.603415956464383"><ele>781.6666666666667</ele><time>2026-04-25T09:27:34.999Z</time></trkpt><trkpt lat="44.83578659663435" lon="5.60318833113273"><ele>781.3333333333333</ele><time>2026-04-25T09:27:35.999Z</time></trkpt><trkpt lat="44.835780218784" lon="5.60296683827126"><ele>781.0</ele><time>2026-04-25T09:27:36.999Z</time></trkpt><trkpt lat="44.835777649851075" lon="5.602744680249423"><ele>781.0</ele><time>2026-04-25T09:27:37.999Z</time></trkpt><trkpt lat="44.835774638861615" lon="5.60251866007012"><ele>781.0</ele><time>2026-04-25T09:27:38.999Z</time></trkpt><trkpt lat="44.835765704039346" lon="5.602293529629972"><ele>781.0</ele><time>2026-04-25T09:27:39.999Z</time></trkpt><trkpt lat="44.835748850801" lon="5.602073439915527"><ele>781.3333333333333</ele><time>2026-04-25T09:27:40.999Z</time></trkpt><trkpt lat="44.835716293837784" lon="5.601857386068713"><ele>781.6666666666667</ele><time>2026-04-25T09:27:41.999Z</time></trkpt><trkpt lat="44.83566385284417" lon="5.601652180812741"><ele>782.0</ele><time>2026-04-25T09:27:42.999Z</time></trkpt><trkpt lat="44.83558324943096" lon="5.601446415569634"><ele>782.0</ele><time>2026-04-25T09:27:43.999Z</time></trkpt><trkpt lat="44.83548553121991" lon="5.601256660290445"><ele>782.0</ele><time>2026-04-25T09:27:44.999Z</time></trkpt><trkpt lat="44.83538214809402" lon="5.601077911882328"><ele>782.0</ele><time>2026-04-25T09:27:45.999Z</time></trkpt><trkpt lat="44.83524606825815" lon="5.600932059458309"><ele>780.0</ele><time>2026-04-25T09:27:46.999Z</time></trkpt><trkpt lat="44.835108384603664" lon="5.600697310231483"><ele>778.0</ele><time>2026-04-25T09:27:47.999Z</time></trkpt><trkpt lat="44.83492917707327" lon="5.600474150151387"><ele>790.5</ele><time>2026-04-25T09:27:48.999Z</time></trkpt><trkpt lat="44.83473577550337" lon="5.600233984389719"><ele>803.0</ele><time>2026-04-25T09:27:49.999Z</time></trkpt><trkpt lat="44.83452857128513" lon="5.599972145070519"><ele>803.0</ele><time>2026-04-25T09:27:50.999Z</time></trkpt><trkpt lat="44.834321852046166" lon="5.599729262607249"><ele>803.0</ele><time>2026-04-25T09:27:51.999Z</time></trkpt><trkpt lat="44.834167107492" lon="5.599461872784912"><ele>800.3333333333334</ele><time>2026-04-25T09:27:52.999Z</time></trkpt><trkpt lat="44.834026990930305" lon="5.599222417082578"><ele>797.6666666666667</ele><time>2026-04-25T09:27:53.999Z</time></trkpt><trkpt lat="44.8339147787715" lon="5.599033021899242"><ele>795.0</ele><time>2026-04-25T09:27:54.999Z</time></trkpt><trkpt lat="44.833830710287025" lon="5.598894370942357"><ele>795.0</ele><time>2026-04-25T09:27:55.999Z</time></trkpt><trkpt lat="44.833741176326285" lon="5.598762186177265"><ele>795.0</ele><time>2026-04-25T09:27:56.999Z</time></trkpt><trkpt lat="44.83345123576323" lon="5.598417564761771"><ele>794.5</ele><time>2026-04-25T09:27:57.999Z</time></trkpt><trkpt lat="44.833309913627204" lon="5.598313838203987"><ele>794.0</ele><time>2026-04-25T09:27:58.999Z</time></trkpt><trkpt lat="44.83317648793616" lon="5.598225894837226"><ele>793.5</ele><time>2026-04-25T09:27:59.999Z</time></trkpt><trkpt lat="44.83306451773679" lon="5.598130740385189"><ele>793.0</ele><time>2026-04-25T09:28:00.999Z</time></trkpt><trkpt lat="44.8329768305218" lon="5.598025182462746"><ele>793.0</ele><time>2026-04-25T09:28:01.999Z</time></trkpt><trkpt lat="44.832890357633886" lon="5.5979256807791025"><ele>793.0</ele><time>2026-04-25T09:28:02.999Z</time></trkpt><trkpt lat="44.83280649131154" lon="5.597821326138018"><ele>793.0</ele><time>2026-04-25T09:28:03.999Z</time></trkpt><trkpt lat="44.83272470429682" lon="5.5977331208725625"><ele>793.0</ele><time>2026-04-25T09:28:04.999Z</time></trkpt><trkpt lat="44.832644239168" lon="5.597667310923113"><ele>793.0</ele><time>2026-04-25T09:28:05.999Z</time></trkpt><trkpt lat="44.8325546087873" lon="5.597622949149822"><ele>793.0</ele><time>2026-04-25T09:28:06.999Z</time></trkpt><trkpt lat="44.832465693539326" lon="5.597592622044747"><ele>793.0</ele><time>2026-04-25T09:28:07.999Z</time></trkpt><trkpt lat="44.83235886735164" lon="5.597594590241159"><ele>793.0</ele><time>2026-04-25T09:28:08.999Z</time></trkpt><trkpt lat="44.83224107733171" lon="5.597616380781034"><ele>793.0</ele><time>2026-04-25T09:28:09.999Z</time></trkpt><trkpt lat="44.83212427661234" lon="5.597664682820491"><ele>793.0</ele><time>2026-04-25T09:28:10.999Z</time></trkpt><trkpt lat="44.8320182997056" lon="5.597741800097757"><ele>795.5</ele><time>2026-04-25T09:28:11.999Z</time></trkpt><trkpt lat="44.83191932107345" lon="5.597854401777667"><ele>798.0</ele><time>2026-04-25T09:28:12.999Z</time></trkpt><trkpt lat="44.83184739475168" lon="5.59798459255616"><ele>800.5</ele><time>2026-04-25T09:28:13.999Z</time></trkpt><trkpt lat="44.831793314031046" lon="5.598131927188414"><ele>803.0</ele><time>2026-04-25T09:28:14.999Z</time></trkpt><trkpt lat="44.831750030846976" lon="5.598283972124181"><ele>803.0</ele><time>2026-04-25T09:28:15.999Z</time></trkpt><trkpt lat="44.83171881516475" lon="5.598458901431203"><ele>803.0</ele><time>2026-04-25T09:28:16.999Z</time></trkpt><trkpt lat="44.83171408056926" lon="5.598647163582243"><ele>803.0</ele><time>2026-04-25T09:28:17.999Z</time></trkpt><trkpt lat="44.83174339671742" lon="5.598842055501926"><ele>803.0</ele><time>2026-04-25T09:28:18.999Z</time></trkpt><trkpt lat="44.831816946140954" lon="5.5990534874066284"><ele>803.5</ele><time>2026-04-25T09:28:19.999Z</time></trkpt><trkpt lat="44.83200514685539" lon="5.599319923347211"><ele>804.0</ele><time>2026-04-25T09:28:20.999Z</time></trkpt><trkpt lat="44.832120898649556" lon="5.599530862317466"><ele>804.0</ele><time>2026-04-25T09:28:21.999Z</time></trkpt><trkpt lat="44.83225657280734" lon="5.599687128395072"><ele>804.0</ele><time>2026-04-25T09:28:22.999Z</time></trkpt><trkpt lat="44.83239026668864" lon="5.599788122329744"><ele>804.0</ele><time>2026-04-25T09:28:23.999Z</time></trkpt><trkpt lat="44.83251005768814" lon="5.5998794856662535"><ele>804.0</ele><time>2026-04-25T09:28:24.999Z</time></trkpt><trkpt lat="44.832595749558266" lon="5.599982700434132"><ele>804.0</ele><time>2026-04-25T09:28:25.999Z</time></trkpt><trkpt lat="44.8326897219125" lon="5.600102522898165"><ele>804.0</ele><time>2026-04-25T09:28:26.999Z</time></trkpt><trkpt lat="44.83278883203711" lon="5.600289746864193"><ele>804.0</ele><time>2026-04-25T09:28:27.999Z</time></trkpt><trkpt lat="44.83285715600872" lon="5.600514544413626"><ele>800.0</ele><time>2026-04-25T09:28:28.999Z</time></trkpt><trkpt lat="44.83292116076949" lon="5.600774898122986"><ele>796.0</ele><time>2026-04-25T09:28:29.999Z</time></trkpt><trkpt lat="44.83298253165759" lon="5.6010577528659375"><ele>792.0</ele><time>2026-04-25T09:28:30.998Z</time></trkpt><trkpt lat="44.83302552309387" lon="5.601366567539185"><ele>792.0</ele><time>2026-04-25T09:28:31.998Z</time></trkpt><trkpt lat="44.83301817196206" lon="5.601698857919776"><ele>792.0</ele><time>2026-04-25T09:28:32.998Z</time></trkpt><trkpt lat="44.83298363242635" lon="5.6020827919853"><ele>792.0</ele><time>2026-04-25T09:28:33.998Z</time></trkpt><trkpt lat="44.83292780607901" lon="5.602430164064106"><ele>792.0</ele><time>2026-04-25T09:28:34.998Z</time></trkpt><trkpt lat="44.83285463415612" lon="5.60275450275757"><ele>788.5</ele><time>2026-04-25T09:28:35.998Z</time></trkpt><trkpt lat="44.83271851171515" lon="5.60308831276646"><ele>785.0</ele><time>2026-04-25T09:28:36.998Z</time></trkpt><trkpt lat="44.83257145648947" lon="5.603434322427483"><ele>802.0</ele><time>2026-04-25T09:28:37.998Z</time></trkpt><trkpt lat="44.83244260975414" lon="5.6038205130792615"><ele>819.0</ele><time>2026-04-25T09:28:38.998Z</time></trkpt><trkpt lat="44.83236024028185" lon="5.60420615127793"><ele>818.0</ele><time>2026-04-25T09:28:39.998Z</time></trkpt><trkpt lat="44.83231625046073" lon="5.604594658540108"><ele>817.0</ele><time>2026-04-25T09:28:40.998Z</time></trkpt><trkpt lat="44.83230417725775" lon="5.604994068687561"><ele>818.5</ele><time>2026-04-25T09:28:41.998Z</time></trkpt><trkpt lat="44.83232413757289" lon="5.605392928428606"><ele>820.0</ele><time>2026-04-25T09:28:42.998Z</time></trkpt><trkpt lat="44.832353714684785" lon="5.605747599814034"><ele>820.0</ele><time>2026-04-25T09:28:43.998Z</time></trkpt><trkpt lat="44.83234723400835" lon="5.60606153381471"><ele>820.0</ele><time>2026-04-25T09:28:44.998Z</time></trkpt><trkpt lat="44.83233812845536" lon="5.606343967791144"><ele>820.0</ele><time>2026-04-25T09:28:45.998Z</time></trkpt><trkpt lat="44.83232086008737" lon="5.606591670378677"><ele>820.3333333333333</ele><time>2026-04-25T09:28:46.998Z</time></trkpt><trkpt lat="44.832296009955535" lon="5.606809581956594"><ele>820.6666666666667</ele><time>2026-04-25T09:28:47.998Z</time></trkpt><trkpt lat="44.832218801747295" lon="5.60700350895502"><ele>821.0</ele><time>2026-04-25T09:28:48.998Z</time></trkpt><trkpt lat="44.832079338749715" lon="5.607162923532402"><ele>822.3333333333334</ele><time>2026-04-25T09:28:49.998Z</time></trkpt><trkpt lat="44.83190602264356" lon="5.607254261495884"><ele>823.6666666666667</ele><time>2026-04-25T09:28:50.998Z</time></trkpt><trkpt lat="44.83170301657979" lon="5.607320657537706"><ele>825.0</ele><time>2026-04-25T09:28:51.998Z</time></trkpt><trkpt lat="44.83146519070462" lon="5.607289336599221"><ele>827.0</ele><time>2026-04-25T09:28:52.998Z</time></trkpt><trkpt lat="44.831221684790506" lon="5.607239601170029"><ele>829.0</ele><time>2026-04-25T09:28:53.998Z</time></trkpt><trkpt lat="44.8309692722121" lon="5.607188778860394"><ele>829.5</ele><time>2026-04-25T09:28:54.998Z</time></trkpt><trkpt lat="44.83071925140993" lon="5.607157868535993"><ele>830.0</ele><time>2026-04-25T09:28:55.998Z</time></trkpt><trkpt lat="44.830472374098235" lon="5.607142047848079"><ele>830.0</ele><time>2026-04-25T09:28:56.998Z</time></trkpt><trkpt lat="44.830207422974425" lon="5.607165396500747"><ele>830.0</ele><time>2026-04-25T09:28:57.998Z</time></trkpt><trkpt lat="44.829955194612225" lon="5.607206230176265"><ele>829.5</ele><time>2026-04-25T09:28:58.998Z</time></trkpt><trkpt lat="44.829695423516476" lon="5.60727339868329"><ele>829.0</ele><time>2026-04-25T09:29:00Z</time></trkpt><trkpt lat="44.82943549936641" lon="5.607373574977519"><ele>828.0</ele><time>2026-04-25T09:29:01Z</time></trkpt><trkpt lat="44.82918569360629" lon="5.607492693521274"><ele>827.0</ele><time>2026-04-25T09:29:02Z</time></trkpt><trkpt lat="44.82894473757834" lon="5.607646473373586"><ele>826.0</ele><time>2026-04-25T09:29:03Z</time></trkpt><trkpt lat="44.828707007313014" lon="5.607830738031579"><ele>825.0</ele><time>2026-04-25T09:29:04Z</time></trkpt><trkpt lat="44.82848611363933" lon="5.608027316003256"><ele>823.0</ele><time>2026-04-25T09:29:05Z</time></trkpt><trkpt lat="44.828295249490544" lon="5.608230684995186"><ele>821.0</ele><time>2026-04-25T09:29:06Z</time></trkpt><trkpt lat="44.828122159676994" lon="5.60844597230088"><ele>818.6666666666667</ele><time>2026-04-25T09:29:07Z</time></trkpt><trkpt lat="44.82797265913367" lon="5.608663339701849"><ele>816.3333333333333</ele><time>2026-04-25T09:29:08Z</time></trkpt><trkpt lat="44.827850141691364" lon="5.608865864342603"><ele>814.0</ele><time>2026-04-25T09:29:09Z</time></trkpt><trkpt lat="44.827725988517294" lon="5.609076811346276"><ele>816.0</ele><time>2026-04-25T09:29:10Z</time></trkpt><trkpt lat="44.827624970851986" lon="5.609268958754448"><ele>818.0</ele><time>2026-04-25T09:29:11Z</time></trkpt><trkpt lat="44.82753173054953" lon="5.60945539831848"><ele>820.0</ele><time>2026-04-25T09:29:12Z</time></trkpt><trkpt lat="44.82745416898691" lon="5.609636689367789"><ele>820.0</ele><time>2026-04-25T09:29:13Z</time></trkpt><trkpt lat="44.82739733899927" lon="5.609809268524074"><ele>820.0</ele><time>2026-04-25T09:29:14Z</time></trkpt><trkpt lat="44.82735181802921" lon="5.6099686648769795"><ele>820.0</ele><time>2026-04-25T09:29:15Z</time></trkpt><trkpt lat="44.82729663924887" lon="5.610103345050906"><ele>820.0</ele><time>2026-04-25T09:29:16Z</time></trkpt><trkpt lat="44.82725463426999" lon="5.610221937670032"><ele>821.0</ele><time>2026-04-25T09:29:17Z</time></trkpt><trkpt lat="44.82722608978828" lon="5.610330491452053"><ele>822.0</ele><time>2026-04-25T09:29:18Z</time></trkpt><trkpt lat="44.827226203981084" lon="5.61043174779897"><ele>823.0</ele><time>2026-04-25T09:29:19Z</time></trkpt><trkpt lat="44.82735798562583" lon="5.610528687232874"><ele>824.0</ele><time>2026-04-25T09:29:21Z</time></trkpt><trkpt lat="44.82747140201574" lon="5.610537557974409"><ele>825.0</ele><time>2026-04-25T09:29:22Z</time></trkpt><trkpt lat="44.82758285412148" lon="5.610518567144248"><ele>823.5</ele><time>2026-04-25T09:29:23Z</time></trkpt><trkpt lat="44.82768520137014" lon="5.610534671466547"><ele>822.0</ele><time>2026-04-25T09:29:24Z</time></trkpt><trkpt lat="44.82779178498227" lon="5.610608004735746"><ele>820.5</ele><time>2026-04-25T09:29:25Z</time></trkpt><trkpt lat="44.827896050700424" lon="5.610712362136684"><ele>819.0</ele><time>2026-04-25T09:29:26Z</time></trkpt><trkpt lat="44.827991218672636" lon="5.6108363245837225"><ele>819.0</ele><time>2026-04-25T09:29:27Z</time></trkpt><trkpt lat="44.828050697139794" lon="5.610990200636463"><ele>819.0</ele><time>2026-04-25T09:29:28Z</time></trkpt><trkpt lat="44.8281047323859" lon="5.6111478206672025"><ele>819.0</ele><time>2026-04-25T09:29:29Z</time></trkpt><trkpt lat="44.82816523315334" lon="5.611323140141325"><ele>819.0</ele><time>2026-04-25T09:29:30Z</time></trkpt><trkpt lat="44.8282223724678" lon="5.611506171034298"><ele>819.25</ele><time>2026-04-25T09:29:31Z</time></trkpt><trkpt lat="44.82826939797624" lon="5.611702983402829"><ele>819.5</ele><time>2026-04-25T09:29:32Z</time></trkpt><trkpt lat="44.82831670415001" lon="5.611878845025589"><ele>819.75</ele><time>2026-04-25T09:29:33Z</time></trkpt><trkpt lat="44.82835287771197" lon="5.61204758926245"><ele>820.0</ele><time>2026-04-25T09:29:34Z</time></trkpt><trkpt lat="44.82840039441899" lon="5.612210534779842"><ele>820.0</ele><time>2026-04-25T09:29:35Z</time></trkpt><trkpt lat="44.82844921887037" lon="5.612358852744888"><ele>820.0</ele><time>2026-04-25T09:29:36Z</time></trkpt><trkpt lat="44.828485104928156" lon="5.612509690214358"><ele>820.0</ele><time>2026-04-25T09:29:37Z</time></trkpt><trkpt lat="44.82853720689887" lon="5.6126756802447355"><ele>820.0</ele><time>2026-04-25T09:29:38Z</time></trkpt><trkpt lat="44.82858282416367" lon="5.612834677260205"><ele>816.75</ele><time>2026-04-25T09:29:39Z</time></trkpt><trkpt lat="44.82862757150311" lon="5.613002028812513"><ele>813.5</ele><time>2026-04-25T09:29:40Z</time></trkpt><trkpt lat="44.828674234594025" lon="5.613182306860996"><ele>810.25</ele><time>2026-04-25T09:29:40.999Z</time></trkpt><trkpt lat="44.828707691570465" lon="5.613359773002685"><ele>807.0</ele><time>2026-04-25T09:29:41.999Z</time></trkpt><trkpt lat="44.82875323792596" lon="5.613544318963952"><ele>806.75</ele><time>2026-04-25T09:29:42.999Z</time></trkpt><trkpt lat="44.82879633698734" lon="5.613730884656907"><ele>806.5</ele><time>2026-04-25T09:29:43.999Z</time></trkpt><trkpt lat="44.82880691452763" lon="5.6139143980348525"><ele>806.25</ele><time>2026-04-25T09:29:44.999Z</time></trkpt><trkpt lat="44.82880319885187" lon="5.6141054431521775"><ele>806.0</ele><time>2026-04-25T09:29:45.999Z</time></trkpt><trkpt lat="44.828781704985346" lon="5.614308549465864"><ele>804.0</ele><time>2026-04-25T09:29:46.999Z</time></trkpt><trkpt lat="44.82874006171697" lon="5.614504942292523"><ele>802.0</ele><time>2026-04-25T09:29:47.999Z</time></trkpt><trkpt lat="44.82875195366982" lon="5.614692339301116"><ele>800.0</ele><time>2026-04-25T09:29:48.999Z</time></trkpt><trkpt lat="44.82861458281447" lon="5.614848991331681"><ele>800.0</ele><time>2026-04-25T09:29:49.999Z</time></trkpt><trkpt lat="44.828521622258684" lon="5.614992332263535"><ele>800.0</ele><time>2026-04-25T09:29:50.999Z</time></trkpt><trkpt lat="44.82843099842765" lon="5.61513118929558"><ele>800.0</ele><time>2026-04-25T09:29:51.999Z</time></trkpt><trkpt lat="44.82833162773646" lon="5.615262659907156"><ele>800.0</ele><time>2026-04-25T09:29:52.999Z</time></trkpt><trkpt lat="44.82822259435109" lon="5.615392598220362"><ele>798.5</ele><time>2026-04-25T09:29:53.999Z</time></trkpt><trkpt lat="44.8281151445069" lon="5.615527040267318"><ele>797.0</ele><time>2026-04-25T09:29:54.999Z</time></trkpt><trkpt lat="44.828005887976076" lon="5.615666613366996"><ele>795.5</ele><time>2026-04-25T09:29:55.999Z</time></trkpt><trkpt lat="44.82789761314789" lon="5.615807189149997"><ele>794.0</ele><time>2026-04-25T09:29:56.999Z</time></trkpt><trkpt lat="44.82778447372665" lon="5.615949349083886"><ele>794.0</ele><time>2026-04-25T09:29:57.999Z</time></trkpt><trkpt lat="44.827672142473766" lon="5.616088416020424"><ele>794.0</ele><time>2026-04-25T09:29:58.999Z</time></trkpt><trkpt lat="44.82756587120367" lon="5.616229010988134"><ele>794.0</ele><time>2026-04-25T09:29:59.999Z</time></trkpt><trkpt lat="44.827476446777766" lon="5.616374998883639"><ele>794.0</ele><time>2026-04-25T09:30:00.999Z</time></trkpt><trkpt lat="44.82740032147936" lon="5.6165433660718636"><ele>793.25</ele><time>2026-04-25T09:30:01.999Z</time></trkpt><trkpt lat="44.82733607292159" lon="5.616723140371405"><ele>792.5</ele><time>2026-04-25T09:30:02.999Z</time></trkpt><trkpt lat="44.82727660891157" lon="5.616914078814047"><ele>791.75</ele><time>2026-04-25T09:30:03.999Z</time></trkpt><trkpt lat="44.82722225883569" lon="5.617093759654977"><ele>791.0</ele><time>2026-04-25T09:30:04.999Z</time></trkpt><trkpt lat="44.82717365604347" lon="5.617265328657713"><ele>789.0</ele><time>2026-04-25T09:30:05.999Z</time></trkpt><trkpt lat="44.82713445339942" lon="5.617434135717362"><ele>787.0</ele><time>2026-04-25T09:30:06.999Z</time></trkpt><trkpt lat="44.827117207400406" lon="5.617605474001246"><ele>785.0</ele><time>2026-04-25T09:30:07.999Z</time></trkpt><trkpt lat="44.82712267475997" lon="5.617775454092721"><ele>783.0</ele><time>2026-04-25T09:30:08.999Z</time></trkpt><trkpt lat="44.82714752442329" lon="5.617936426800194"><ele>782.0</ele><time>2026-04-25T09:30:09.999Z</time></trkpt><trkpt lat="44.827190610544385" lon="5.618087851013442"><ele>781.0</ele><time>2026-04-25T09:30:10.999Z</time></trkpt><trkpt lat="44.82722960225343" lon="5.618224056200014"><ele>780.0</ele><time>2026-04-25T09:30:11.999Z</time></trkpt><trkpt lat="44.82725662083877" lon="5.61835643058484"><ele>779.0</ele><time>2026-04-25T09:30:12.999Z</time></trkpt><trkpt lat="44.8272792197195" lon="5.618485189581592"><ele>778.0</ele><time>2026-04-25T09:30:13.999Z</time></trkpt><trkpt lat="44.82729900503464" lon="5.618592609588897"><ele>778.0</ele><time>2026-04-25T09:30:14.999Z</time></trkpt><trkpt lat="44.82731416240469" lon="5.618682318022202"><ele>778.0</ele><time>2026-04-25T09:30:15.999Z</time></trkpt><trkpt lat="44.82733260725338" lon="5.618768425264424"><ele>778.0</ele><time>2026-04-25T09:30:16.999Z</time></trkpt><trkpt lat="44.82735310599505" lon="5.618856554041988"><ele>778.0</ele><time>2026-04-25T09:30:17.999Z</time></trkpt><trkpt lat="44.82737256304863" lon="5.618948148105163"><ele>778.0</ele><time>2026-04-25T09:30:18.999Z</time></trkpt><trkpt lat="44.82739312362198" lon="5.619054966875626"><ele>778.0</ele><time>2026-04-25T09:30:19.999Z</time></trkpt><trkpt lat="44.82741668913119" lon="5.619167639880289"><ele>778.0</ele><time>2026-04-25T09:30:20.999Z</time></trkpt><trkpt lat="44.827442800638" lon="5.619279128473724"><ele>778.0</ele><time>2026-04-25T09:30:21.999Z</time></trkpt><trkpt lat="44.82747207321737" lon="5.619393350757115"><ele>778.0</ele><time>2026-04-25T09:30:22.999Z</time></trkpt><trkpt lat="44.82749989125067" lon="5.6195108199174815"><ele>778.0</ele><time>2026-04-25T09:30:23.999Z</time></trkpt><trkpt lat="44.82752876255377" lon="5.619632145153594"><ele>778.0</ele><time>2026-04-25T09:30:24.999Z</time></trkpt><trkpt lat="44.82755696298137" lon="5.6197597034032105"><ele>778.0</ele><time>2026-04-25T09:30:25.999Z</time></trkpt><trkpt lat="44.82758643067515" lon="5.619892325105597"><ele>778.0</ele><time>2026-04-25T09:30:26.999Z</time></trkpt><trkpt lat="44.827611589042824" lon="5.620024693506864"><ele>778.0</ele><time>2026-04-25T09:30:27.999Z</time></trkpt><trkpt lat="44.82763618381825" lon="5.620161992998816"><ele>778.0</ele><time>2026-04-25T09:30:28.999Z</time></trkpt><trkpt lat="44.827663963026026" lon="5.620305157036145"><ele>778.0</ele><time>2026-04-25T09:30:29.999Z</time></trkpt><trkpt lat="44.82769017433822" lon="5.620454702667928"><ele>778.0</ele><time>2026-04-25T09:30:30.999Z</time></trkpt><trkpt lat="44.827712693214856" lon="5.62060640104289"><ele>775.0</ele><time>2026-04-25T09:30:31.999Z</time></trkpt><trkpt lat="44.8277304572613" lon="5.620762791626604"><ele>772.0</ele><time>2026-04-25T09:30:32.999Z</time></trkpt><trkpt lat="44.82773845119432" lon="5.620915185817582"><ele>769.0</ele><time>2026-04-25T09:30:33.999Z</time></trkpt><trkpt lat="44.827734107146725" lon="5.621058928773419"><ele>766.0</ele><time>2026-04-25T09:30:34.999Z</time></trkpt><trkpt lat="44.82771858584437" lon="5.621208325182194"><ele>763.0</ele><time>2026-04-25T09:30:35.999Z</time></trkpt><trkpt lat="44.82769539599242" lon="5.621349432770413"><ele>762.5999999999999</ele><time>2026-04-25T09:30:36.999Z</time></trkpt><trkpt lat="44.82766416252473" lon="5.6214882897664875"><ele>762.1999999999999</ele><time>2026-04-25T09:30:37.998Z</time></trkpt><trkpt lat="44.82762600378315" lon="5.621619334018411"><ele>761.8</ele><time>2026-04-25T09:30:38.998Z</time></trkpt><trkpt lat="44.8275915748834" lon="5.621758050663699"><ele>761.4</ele><time>2026-04-25T09:30:39.998Z</time></trkpt><trkpt lat="44.82755778578236" lon="5.621887115568489"><ele>761.0</ele><time>2026-04-25T09:30:40.998Z</time></trkpt><trkpt lat="44.82752587686835" lon="5.622007428046808"><ele>762.1666666666666</ele><time>2026-04-25T09:30:41.998Z</time></trkpt><trkpt lat="44.827497005705865" lon="5.622106856361025"><ele>763.3333333333333</ele><time>2026-04-25T09:30:42.998Z</time></trkpt><trkpt lat="44.82745695783844" lon="5.622251659633208"><ele>764.5</ele><time>2026-04-25T09:30:44.998Z</time></trkpt><trkpt lat="44.82743292038719" lon="5.622339722520326"><ele>765.6666666666666</ele><time>2026-04-25T09:30:47.998Z</time></trkpt><trkpt lat="44.82742564492832" lon="5.622429240127864"><ele>766.8333333333334</ele><time>2026-04-25T09:30:50.998Z</time></trkpt><trkpt lat="44.827425285867136" lon="5.622562362396474"><ele>768.0</ele><time>2026-04-25T09:30:52.998Z</time></trkpt><trkpt lat="44.82745327882956" lon="5.6226978748407"><ele>767.0</ele><time>2026-04-25T09:30:54.998Z</time></trkpt><trkpt lat="44.82749556038915" lon="5.622841383623961"><ele>766.0</ele><time>2026-04-25T09:30:56.998Z</time></trkpt><trkpt lat="44.82752135105033" lon="5.623003045195237"><ele>765.0</ele><time>2026-04-25T09:30:58.998Z</time></trkpt><trkpt lat="44.82752508740736" lon="5.6231694310199405"><ele>764.0</ele><time>2026-04-25T09:31:00.998Z</time></trkpt><trkpt lat="44.827522010155725" lon="5.623261924321032"><ele>763.0</ele><time>2026-04-25T09:31:01.998Z</time></trkpt><trkpt lat="44.82751660299562" lon="5.62335166811053"><ele>763.0</ele><time>2026-04-25T09:31:02.998Z</time></trkpt><trkpt lat="44.8275170320227" lon="5.623534563529899"><ele>763.0</ele><time>2026-04-25T09:31:04.998Z</time></trkpt><trkpt lat="44.82752144526171" lon="5.623631444178331"><ele>763.0</ele><time>2026-04-25T09:31:06Z</time></trkpt><trkpt lat="44.827528818871734" lon="5.623730229258979"><ele>763.0</ele><time>2026-04-25T09:31:07Z</time></trkpt><trkpt lat="44.8275327274202" lon="5.623834295536119"><ele>763.0</ele><time>2026-04-25T09:31:08Z</time></trkpt><trkpt lat="44.82753983921885" lon="5.623937054286302"><ele>763.0</ele><time>2026-04-25T09:31:09Z</time></trkpt><trkpt lat="44.82755081560705" lon="5.6240375158607225"><ele>762.5714285714286</ele><time>2026-04-25T09:31:10Z</time></trkpt><trkpt lat="44.82756261981107" lon="5.62413792490267"><ele>762.1428571428571</ele><time>2026-04-25T09:31:11Z</time></trkpt><trkpt lat="44.82756738088922" lon="5.624234326525701"><ele>761.7142857142858</ele><time>2026-04-25T09:31:12Z</time></trkpt><trkpt lat="44.82757280390248" lon="5.624332329857512"><ele>761.2857142857142</ele><time>2026-04-25T09:31:13Z</time></trkpt><trkpt lat="44.8275789572764" lon="5.624436281221164"><ele>760.8571428571429</ele><time>2026-04-25T09:31:14Z</time></trkpt><trkpt lat="44.8275843727681" lon="5.624551704283376"><ele>760.4285714285714</ele><time>2026-04-25T09:31:15Z</time></trkpt><trkpt lat="44.82758408051878" lon="5.624659003931776"><ele>760.0</ele><time>2026-04-25T09:31:16Z</time></trkpt><trkpt lat="44.827572195660366" lon="5.624758387742182"><ele>759.8333333333334</ele><time>2026-04-25T09:31:17Z</time></trkpt><trkpt lat="44.827542071950916" lon="5.624840239120876"><ele>759.6666666666667</ele><time>2026-04-25T09:31:18Z</time></trkpt><trkpt lat="44.82749861232185" lon="5.6249134882448475"><ele>759.5</ele><time>2026-04-25T09:31:19Z</time></trkpt><trkpt lat="44.82744322204206" lon="5.624983825818835"><ele>759.3333333333334</ele><time>2026-04-25T09:31:20Z</time></trkpt><trkpt lat="44.82738311628605" lon="5.625057718085107"><ele>759.1666666666666</ele><time>2026-04-25T09:31:21Z</time></trkpt><trkpt lat="44.82731433600621" lon="5.625166554202727"><ele>759.0</ele><time>2026-04-25T09:31:22Z</time></trkpt><trkpt lat="44.827227718515644" lon="5.625314845936976"><ele>758.5</ele><time>2026-04-25T09:31:23Z</time></trkpt><trkpt lat="44.82714354016177" lon="5.625471562657587"><ele>758.0</ele><time>2026-04-25T09:31:24Z</time></trkpt><trkpt lat="44.8270758030746" lon="5.625627237300163"><ele>757.5</ele><time>2026-04-25T09:31:25Z</time></trkpt><trkpt lat="44.82702777733526" lon="5.625794416101505"><ele>757.0</ele><time>2026-04-25T09:31:26Z</time></trkpt><trkpt lat="44.82699983722509" lon="5.625973235182463"><ele>755.75</ele><time>2026-04-25T09:31:27Z</time></trkpt><trkpt lat="44.8270074705576" lon="5.62615976869893"><ele>754.5</ele><time>2026-04-25T09:31:28Z</time></trkpt><trkpt lat="44.82702592476553" lon="5.626354977625436"><ele>753.25</ele><time>2026-04-25T09:31:29Z</time></trkpt><trkpt lat="44.82703870309712" lon="5.62656970545395"><ele>752.0</ele><time>2026-04-25T09:31:30Z</time></trkpt><trkpt lat="44.82705627536008" lon="5.626792964913083"><ele>749.3333333333333</ele><time>2026-04-25T09:31:31Z</time></trkpt><trkpt lat="44.82705939668855" lon="5.627028126104852"><ele>746.6666666666666</ele><time>2026-04-25T09:31:32Z</time></trkpt><trkpt lat="44.8270741858746" lon="5.627261438501875"><ele>744.0</ele><time>2026-04-25T09:31:33Z</time></trkpt><trkpt lat="44.8270900280092" lon="5.627501148494369"><ele>744.0</ele><time>2026-04-25T09:31:34Z</time></trkpt><trkpt lat="44.82710595813965" lon="5.627732898790092"><ele>744.0</ele><time>2026-04-25T09:31:35Z</time></trkpt><trkpt lat="44.82711853131638" lon="5.6279459864483545"><ele>744.0</ele><time>2026-04-25T09:31:36Z</time></trkpt><trkpt lat="44.82709389732502" lon="5.628145527265363"><ele>743.0</ele><time>2026-04-25T09:31:37Z</time></trkpt><trkpt lat="44.8270402659818" lon="5.628351907331455"><ele>742.0</ele><time>2026-04-25T09:31:38Z</time></trkpt><trkpt lat="44.82695599215963" lon="5.6285907201377405"><ele>741.0</ele><time>2026-04-25T09:31:39Z</time></trkpt><trkpt lat="44.826866410653004" lon="5.628852226102747"><ele>742.6666666666666</ele><time>2026-04-25T09:31:40Z</time></trkpt><trkpt lat="44.82679457219094" lon="5.62910791384594"><ele>744.3333333333333</ele><time>2026-04-25T09:31:41Z</time></trkpt><trkpt lat="44.82672495402234" lon="5.629369005059087"><ele>746.0</ele><time>2026-04-25T09:31:42Z</time></trkpt><trkpt lat="44.82665622662613" lon="5.629628764733095"><ele>746.0</ele><time>2026-04-25T09:31:43Z</time></trkpt><trkpt lat="44.826603456721045" lon="5.629883572561046"><ele>746.0</ele><time>2026-04-25T09:31:44Z</time></trkpt><trkpt lat="44.82657900783641" lon="5.630152219686318"><ele>746.0</ele><time>2026-04-25T09:31:45Z</time></trkpt><trkpt lat="44.82658652515526" lon="5.630466701570902"><ele>746.0</ele><time>2026-04-25T09:31:46Z</time></trkpt><trkpt lat="44.8266126205248" lon="5.630772336671943"><ele>746.0</ele><time>2026-04-25T09:31:47Z</time></trkpt><trkpt lat="44.82661707196717" lon="5.63105360120737"><ele>746.0</ele><time>2026-04-25T09:31:47.999Z</time></trkpt><trkpt lat="44.82659373906879" lon="5.631310691658331"><ele>743.3333333333333</ele><time>2026-04-25T09:31:48.999Z</time></trkpt><trkpt lat="44.826524865625885" lon="5.631567559036419"><ele>740.6666666666666</ele><time>2026-04-25T09:31:49.999Z</time></trkpt><trkpt lat="44.82643719727813" lon="5.631856178904918"><ele>738.0</ele><time>2026-04-25T09:31:50.999Z</time></trkpt><trkpt lat="44.82632652159011" lon="5.632145208773485"><ele>733.0</ele><time>2026-04-25T09:31:51.999Z</time></trkpt><trkpt lat="44.82622119011148" lon="5.632438875074334"><ele>728.0</ele><time>2026-04-25T09:31:52.999Z</time></trkpt><trkpt lat="44.82614213314" lon="5.632752229952774"><ele>727.0</ele><time>2026-04-25T09:31:53.999Z</time></trkpt><trkpt lat="44.82607784030902" lon="5.6330844967466485"><ele>726.0</ele><time>2026-04-25T09:31:54.999Z</time></trkpt><trkpt lat="44.8260142036169" lon="5.633417511079977"><ele>729.5</ele><time>2026-04-25T09:31:55.999Z</time></trkpt><trkpt lat="44.82594962788415" lon="5.633739474284472"><ele>733.0</ele><time>2026-04-25T09:31:56.999Z</time></trkpt><trkpt lat="44.82587968155482" lon="5.634058922466287"><ele>733.0</ele><time>2026-04-25T09:31:57.999Z</time></trkpt><trkpt lat="44.82580728647792" lon="5.6343672266999105"><ele>733.0</ele><time>2026-04-25T09:31:58.999Z</time></trkpt><trkpt lat="44.82573244303612" lon="5.634663778999928"><ele>731.3333333333334</ele><time>2026-04-25T09:31:59.999Z</time></trkpt><trkpt lat="44.82567117902902" lon="5.634954193515541"><ele>729.6666666666666</ele><time>2026-04-25T09:32:00.999Z</time></trkpt><trkpt lat="44.825629557293134" lon="5.635260826283752"><ele>728.0</ele><time>2026-04-25T09:32:01.999Z</time></trkpt><trkpt lat="44.82562783796861" lon="5.635587676093824"><ele>725.0</ele><time>2026-04-25T09:32:02.999Z</time></trkpt><trkpt lat="44.82566855640879" lon="5.635919980796148"><ele>722.0</ele><time>2026-04-25T09:32:03.999Z</time></trkpt><trkpt lat="44.82571385106717" lon="5.636241216105469"><ele>722.0</ele><time>2026-04-25T09:32:04.999Z</time></trkpt><trkpt lat="44.825750783991204" lon="5.636544049803978"><ele>722.0</ele><time>2026-04-25T09:32:05.999Z</time></trkpt><trkpt lat="44.8257762695505" lon="5.6368282343824525"><ele>722.0</ele><time>2026-04-25T09:32:06.999Z</time></trkpt><trkpt lat="44.8257893711968" lon="5.6370943168599785"><ele>723.3333333333333</ele><time>2026-04-25T09:32:07.999Z</time></trkpt><trkpt lat="44.825806901488036" lon="5.637340646706777"><ele>724.6666666666666</ele><time>2026-04-25T09:32:08.999Z</time></trkpt><trkpt lat="44.82581798598633" lon="5.637583997652664"><ele>726.0</ele><time>2026-04-25T09:32:09.999Z</time></trkpt><trkpt lat="44.82584301785" lon="5.637807653882399"><ele>725.6666666666666</ele><time>2026-04-25T09:32:10.999Z</time></trkpt><trkpt lat="44.82589827263652" lon="5.638016057117871"><ele>725.3333333333333</ele><time>2026-04-25T09:32:11.999Z</time></trkpt><trkpt lat="44.825990934377295" lon="5.638209362808384"><ele>725.0</ele><time>2026-04-25T09:32:12.999Z</time></trkpt><trkpt lat="44.82612794727025" lon="5.63835629216363"><ele>725.0</ele><time>2026-04-25T09:32:13.999Z</time></trkpt><trkpt lat="44.82627709367487" lon="5.63846350114161"><ele>725.0</ele><time>2026-04-25T09:32:14.999Z</time></trkpt><trkpt lat="44.8264354864275" lon="5.638524520463218"><ele>725.0</ele><time>2026-04-25T09:32:15.999Z</time></trkpt><trkpt lat="44.82659443322656" lon="5.638550143060762"><ele>725.0</ele><time>2026-04-25T09:32:16.999Z</time></trkpt><trkpt lat="44.82673266836523" lon="5.638602792354196"><ele>725.0</ele><time>2026-04-25T09:32:17.999Z</time></trkpt><trkpt lat="44.82684895890272" lon="5.638635330490079"><ele>725.0</ele><time>2026-04-25T09:32:18.999Z</time></trkpt><trkpt lat="44.82695580498317" lon="5.638665734084102"><ele>725.0</ele><time>2026-04-25T09:32:19.999Z</time></trkpt><trkpt lat="44.82705203093005" lon="5.638694081781297"><ele>726.1666666666666</ele><time>2026-04-25T09:32:20.999Z</time></trkpt><trkpt lat="44.827136692696065" lon="5.638719022723966"><ele>727.3333333333333</ele><time>2026-04-25T09:32:21.999Z</time></trkpt><trkpt lat="44.82722058644584" lon="5.638753804394218"><ele>728.5</ele><time>2026-04-25T09:32:22.999Z</time></trkpt><trkpt lat="44.82729135055486" lon="5.638750172850685"><ele>729.6666666666666</ele><time>2026-04-25T09:32:23.999Z</time></trkpt><trkpt lat="44.82735759745637" lon="5.63876948341525"><ele>730.8333333333334</ele><time>2026-04-25T09:32:24.999Z</time></trkpt><trkpt lat="44.82746829791404" lon="5.638811841162643"><ele>732.0</ele><time>2026-04-25T09:32:26.999Z</time></trkpt><trkpt lat="44.8275505803121" lon="5.638840975974"><ele>732.0</ele><time>2026-04-25T09:32:28.999Z</time></trkpt><trkpt lat="44.82763204508357" lon="5.638848455767115"><ele>732.0</ele><time>2026-04-25T09:32:31.999Z</time></trkpt><trkpt lat="44.82774192897622" lon="5.638900615701358"><ele>732.0</ele><time>2026-04-25T09:32:33.999Z</time></trkpt><trkpt lat="44.82781238004583" lon="5.638922565372003"><ele>732.0</ele><time>2026-04-25T09:32:34.999Z</time></trkpt><trkpt lat="44.82788740628108" lon="5.638945940478086"><ele>732.0</ele><time>2026-04-25T09:32:35.999Z</time></trkpt><trkpt lat="44.827962023737854" lon="5.638969908068584"><ele>732.0</ele><time>2026-04-25T09:32:36.999Z</time></trkpt><trkpt lat="44.82804646382413" lon="5.638978475270137"><ele>729.0</ele><time>2026-04-25T09:32:37.999Z</time></trkpt><trkpt lat="44.828132957312995" lon="5.639025275590619"><ele>726.0</ele><time>2026-04-25T09:32:38.999Z</time></trkpt><trkpt lat="44.82822722023005" lon="5.639063190336613"><ele>723.0</ele><time>2026-04-25T09:32:39.999Z</time></trkpt><trkpt lat="44.82830895545775" lon="5.6391407761295955"><ele>720.0</ele><time>2026-04-25T09:32:40.999Z</time></trkpt><trkpt lat="44.82836595430165" lon="5.6392689704206225"><ele>717.0</ele><time>2026-04-25T09:32:41.999Z</time></trkpt><trkpt lat="44.82839297283509" lon="5.6394292215111"><ele>716.25</ele><time>2026-04-25T09:32:42.999Z</time></trkpt><trkpt lat="44.828363983807655" lon="5.639603924783986"><ele>715.5</ele><time>2026-04-25T09:32:43.999Z</time></trkpt><trkpt lat="44.82829826661332" lon="5.639766118470363"><ele>714.75</ele><time>2026-04-25T09:32:44.998Z</time></trkpt><trkpt lat="44.828227405674944" lon="5.639947057963871"><ele>714.0</ele><time>2026-04-25T09:32:45.998Z</time></trkpt><trkpt lat="44.8281906802303" lon="5.64010534723655"><ele>714.0</ele><time>2026-04-25T09:32:46.998Z</time></trkpt><trkpt lat="44.82820405776684" lon="5.640275173410787"><ele>714.0</ele><time>2026-04-25T09:32:47.998Z</time></trkpt><trkpt lat="44.828255435334135" lon="5.6404762237008175"><ele>714.0</ele><time>2026-04-25T09:32:48.998Z</time></trkpt><trkpt lat="44.82834348956754" lon="5.6406566100536075"><ele>714.0</ele><time>2026-04-25T09:32:49.998Z</time></trkpt><trkpt lat="44.82834305735569" lon="5.640877389728367"><ele>712.0</ele><time>2026-04-25T09:32:50.998Z</time></trkpt><trkpt lat="44.82830205712885" lon="5.641088052613108"><ele>710.0</ele><time>2026-04-25T09:32:51.998Z</time></trkpt><trkpt lat="44.8282037646741" lon="5.641264839195178"><ele>708.0</ele><time>2026-04-25T09:32:52.998Z</time></trkpt><trkpt lat="44.82806833847628" lon="5.641387112702729"><ele>706.6666666666666</ele><time>2026-04-25T09:32:53.998Z</time></trkpt><trkpt lat="44.827942449191205" lon="5.641527906542817"><ele>705.3333333333333</ele><time>2026-04-25T09:32:54.998Z</time></trkpt><trkpt lat="44.82781438284747" lon="5.641671380986474"><ele>704.0</ele><time>2026-04-25T09:32:55.998Z</time></trkpt><trkpt lat="44.82774563532461" lon="5.641906891644186"><ele>701.3333333333333</ele><time>2026-04-25T09:32:56.998Z</time></trkpt><trkpt lat="44.82773234509841" lon="5.642153656273522"><ele>698.6666666666666</ele><time>2026-04-25T09:32:57.998Z</time></trkpt><trkpt lat="44.8277211595439" lon="5.642386722855874"><ele>696.0</ele><time>2026-04-25T09:32:58.998Z</time></trkpt><trkpt lat="44.827679578797785" lon="5.642584945247701"><ele>697.3333333333334</ele><time>2026-04-25T09:32:59.998Z</time></trkpt><trkpt lat="44.82759650338026" lon="5.6427485965270705"><ele>698.6666666666667</ele><time>2026-04-25T09:33:00.998Z</time></trkpt><trkpt lat="44.827448941129774" lon="5.6428392612010585"><ele>700.0</ele><time>2026-04-25T09:33:01.998Z</time></trkpt><trkpt lat="44.82729835304861" lon="5.642943935386145"><ele>700.0</ele><time>2026-04-25T09:33:02.998Z</time></trkpt><trkpt lat="44.82715674327085" lon="5.643042770191731"><ele>700.0</ele><time>2026-04-25T09:33:03.998Z</time></trkpt><trkpt lat="44.82703082887001" lon="5.643243237071392"><ele>700.0</ele><time>2026-04-25T09:33:04.998Z</time></trkpt><trkpt lat="44.82693174900232" lon="5.643518788969696"><ele>701.3333333333334</ele><time>2026-04-25T09:33:05.998Z</time></trkpt><trkpt lat="44.82686310479659" lon="5.6438183010940435"><ele>702.6666666666666</ele><time>2026-04-25T09:33:06.998Z</time></trkpt><trkpt lat="44.82680016539671" lon="5.644094480580568"><ele>704.0</ele><time>2026-04-25T09:33:07.998Z</time></trkpt><trkpt lat="44.82675877503509" lon="5.644332313890608"><ele>702.3333333333333</ele><time>2026-04-25T09:33:08.998Z</time></trkpt><trkpt lat="44.8267251156279" lon="5.644550452279167"><ele>700.6666666666666</ele><time>2026-04-25T09:33:09.998Z</time></trkpt><trkpt lat="44.826748959077165" lon="5.644801081701821"><ele>699.0</ele><time>2026-04-25T09:33:10.998Z</time></trkpt><trkpt lat="44.82682958920252" lon="5.645046550473413"><ele>694.6666666666666</ele><time>2026-04-25T09:33:12Z</time></trkpt><trkpt lat="44.82695981978409" lon="5.645290131045888"><ele>690.3333333333333</ele><time>2026-04-25T09:33:13Z</time></trkpt><trkpt lat="44.82707449498156" lon="5.645544405046369"><ele>686.0</ele><time>2026-04-25T09:33:14Z</time></trkpt><trkpt lat="44.82716059452012" lon="5.645779387523173"><ele>685.3333333333333</ele><time>2026-04-25T09:33:15Z</time></trkpt><trkpt lat="44.827201958923034" lon="5.646013124475718"><ele>684.6666666666666</ele><time>2026-04-25T09:33:16Z</time></trkpt><trkpt lat="44.8271972105019" lon="5.646256730966394"><ele>684.0</ele><time>2026-04-25T09:33:17Z</time></trkpt><trkpt lat="44.82715396980193" lon="5.646540023215698"><ele>683.6666666666666</ele><time>2026-04-25T09:33:18Z</time></trkpt><trkpt lat="44.827096111844135" lon="5.646842424241612"><ele>683.3333333333333</ele><time>2026-04-25T09:33:19Z</time></trkpt><trkpt lat="44.82704337313591" lon="5.647114123985514"><ele>683.0</ele><time>2026-04-25T09:33:20Z</time></trkpt><trkpt lat="44.826992021979564" lon="5.647365959887184"><ele>681.6666666666666</ele><time>2026-04-25T09:33:21Z</time></trkpt><trkpt lat="44.82692719701805" lon="5.64757090478546"><ele>680.3333333333334</ele><time>2026-04-25T09:33:22Z</time></trkpt><trkpt lat="44.826820971518714" lon="5.647736442146196"><ele>679.0</ele><time>2026-04-25T09:33:23Z</time></trkpt><trkpt lat="44.826686496342575" lon="5.647828871607117"><ele>682.0</ele><time>2026-04-25T09:33:24Z</time></trkpt><trkpt lat="44.82654387267039" lon="5.647933402630414"><ele>685.0</ele><time>2026-04-25T09:33:25Z</time></trkpt><trkpt lat="44.826443064191075" lon="5.648072984999882"><ele>688.0</ele><time>2026-04-25T09:33:26Z</time></trkpt><trkpt lat="44.82635290027926" lon="5.6482377729357305"><ele>688.0</ele><time>2026-04-25T09:33:27Z</time></trkpt><trkpt lat="44.82631154889055" lon="5.6484580095021215"><ele>688.0</ele><time>2026-04-25T09:33:28Z</time></trkpt><trkpt lat="44.826321431033584" lon="5.648686488671103"><ele>688.0</ele><time>2026-04-25T09:33:29Z</time></trkpt><trkpt lat="44.8263973008354" lon="5.648928854252829"><ele>688.0</ele><time>2026-04-25T09:33:30Z</time></trkpt><trkpt lat="44.8265184462101" lon="5.6492192950118225"><ele>688.0</ele><time>2026-04-25T09:33:31Z</time></trkpt><trkpt lat="44.82661415513084" lon="5.649499442370456"><ele>689.0</ele><time>2026-04-25T09:33:32Z</time></trkpt><trkpt lat="44.82670682859932" lon="5.649770808983796"><ele>690.0</ele><time>2026-04-25T09:33:33Z</time></trkpt><trkpt lat="44.82678692611696" lon="5.650049614880852"><ele>691.0</ele><time>2026-04-25T09:33:34Z</time></trkpt><trkpt lat="44.82685395777354" lon="5.6503322271113925"><ele>680.0</ele><time>2026-04-25T09:33:35Z</time></trkpt><trkpt lat="44.826898859651926" lon="5.650637169488651"><ele>669.0</ele><time>2026-04-25T09:33:36Z</time></trkpt><trkpt lat="44.826918278936425" lon="5.650962743194611"><ele>667.5</ele><time>2026-04-25T09:33:37Z</time></trkpt><trkpt lat="44.82692175109199" lon="5.651308137172314"><ele>666.0</ele><time>2026-04-25T09:33:38Z</time></trkpt><trkpt lat="44.826901397470536" lon="5.651629654163516"><ele>666.0</ele><time>2026-04-25T09:33:39Z</time></trkpt><trkpt lat="44.826893866623" lon="5.65195518602606"><ele>666.0</ele><time>2026-04-25T09:33:40Z</time></trkpt><trkpt lat="44.826888727328196" lon="5.652273575913112"><ele>665.0</ele><time>2026-04-25T09:33:41Z</time></trkpt><trkpt lat="44.826890146826315" lon="5.652578041524505"><ele>664.0</ele><time>2026-04-25T09:33:42Z</time></trkpt><trkpt lat="44.82692427355412" lon="5.652868049520843"><ele>663.0</ele><time>2026-04-25T09:33:43Z</time></trkpt><trkpt lat="44.82698563372058" lon="5.653137105405143"><ele>661.6666666666666</ele><time>2026-04-25T09:33:44Z</time></trkpt><trkpt lat="44.827036240242045" lon="5.653404400847936"><ele>660.3333333333333</ele><time>2026-04-25T09:33:45Z</time></trkpt><trkpt lat="44.82705204120148" lon="5.653678009484107"><ele>659.0</ele><time>2026-04-25T09:33:46Z</time></trkpt><trkpt lat="44.82702361130984" lon="5.653959958541905"><ele>659.0</ele><time>2026-04-25T09:33:47Z</time></trkpt><trkpt lat="44.82697300394217" lon="5.654223346787529"><ele>659.0</ele><time>2026-04-25T09:33:48Z</time></trkpt><trkpt lat="44.82692801189751" lon="5.654471025244277"><ele>659.0</ele><time>2026-04-25T09:33:49Z</time></trkpt><trkpt lat="44.82688936585555" lon="5.654694271573261"><ele>661.0</ele><time>2026-04-25T09:33:50Z</time></trkpt><trkpt lat="44.82689331933292" lon="5.654877788742018"><ele>663.0</ele><time>2026-04-25T09:33:51Z</time></trkpt><trkpt lat="44.82692144415057" lon="5.655059248916449"><ele>665.0</ele><time>2026-04-25T09:33:52Z</time></trkpt><trkpt lat="44.8270424570844" lon="5.655320020589968"><ele>666.0</ele><time>2026-04-25T09:33:53Z</time></trkpt><trkpt lat="44.82722351076801" lon="5.655511336855609"><ele>667.0</ele><time>2026-04-25T09:33:53.999Z</time></trkpt><trkpt lat="44.82741307470861" lon="5.655666145459494"><ele>668.0</ele><time>2026-04-25T09:33:54.999Z</time></trkpt><trkpt lat="44.82761712279174" lon="5.655816494497723"><ele>666.3333333333333</ele><time>2026-04-25T09:33:55.999Z</time></trkpt><trkpt lat="44.82783503006376" lon="5.655944822700092"><ele>664.6666666666666</ele><time>2026-04-25T09:33:56.999Z</time></trkpt><trkpt lat="44.828017708907005" lon="5.656063860413695"><ele>663.0</ele><time>2026-04-25T09:33:57.999Z</time></trkpt><trkpt lat="44.82820810919783" lon="5.656189053819591"><ele>663.0</ele><time>2026-04-25T09:33:58.999Z</time></trkpt><trkpt lat="44.828386051732124" lon="5.656284723102667"><ele>663.0</ele><time>2026-04-25T09:33:59.999Z</time></trkpt><trkpt lat="44.82851711675769" lon="5.656447297151406"><ele>663.0</ele><time>2026-04-25T09:34:00.999Z</time></trkpt><trkpt lat="44.828653061282715" lon="5.656621705152916"><ele>662.0</ele><time>2026-04-25T09:34:01.999Z</time></trkpt><trkpt lat="44.82877559485738" lon="5.656837197561503"><ele>661.0</ele><time>2026-04-25T09:34:02.999Z</time></trkpt><trkpt lat="44.828902488253476" lon="5.657032207193075"><ele>660.0</ele><time>2026-04-25T09:34:03.999Z</time></trkpt><trkpt lat="44.82905808217439" lon="5.657224986197257"><ele>660.0</ele><time>2026-04-25T09:34:04.999Z</time></trkpt><trkpt lat="44.829235443611914" lon="5.657393288725599"><ele>660.0</ele><time>2026-04-25T09:34:05.999Z</time></trkpt><trkpt lat="44.8294441151819" lon="5.657505126757647"><ele>660.0</ele><time>2026-04-25T09:34:06.999Z</time></trkpt><trkpt lat="44.829643225970564" lon="5.657646470902302"><ele>657.0</ele><time>2026-04-25T09:34:07.999Z</time></trkpt><trkpt lat="44.829831263532576" lon="5.657777416757026"><ele>654.0</ele><time>2026-04-25T09:34:08.999Z</time></trkpt><trkpt lat="44.830010828917004" lon="5.6579117995086134"><ele>651.0</ele><time>2026-04-25T09:34:09.999Z</time></trkpt><trkpt lat="44.83017211914344" lon="5.6580574630215414"><ele>647.0</ele><time>2026-04-25T09:34:10.999Z</time></trkpt><trkpt lat="44.83030547196379" lon="5.658223031288426"><ele>643.0</ele><time>2026-04-25T09:34:11.999Z</time></trkpt><trkpt lat="44.83040268691447" lon="5.658418593953423"><ele>639.0</ele><time>2026-04-25T09:34:12.999Z</time></trkpt><trkpt lat="44.83047705392239" lon="5.65865547905889"><ele>638.3333333333334</ele><time>2026-04-25T09:34:13.999Z</time></trkpt><trkpt lat="44.830501721807195" lon="5.658934521085277"><ele>637.6666666666667</ele><time>2026-04-25T09:34:14.999Z</time></trkpt><trkpt lat="44.83050309043796" lon="5.659225675142226"><ele>637.0</ele><time>2026-04-25T09:34:15.999Z</time></trkpt><trkpt lat="44.830485124620175" lon="5.659490279318694"><ele>636.0</ele><time>2026-04-25T09:34:16.999Z</time></trkpt><trkpt lat="44.83044450532751" lon="5.659710302520003"><ele>635.0</ele><time>2026-04-25T09:34:17.999Z</time></trkpt><trkpt lat="44.830370037473294" lon="5.65990002346062"><ele>634.0</ele><time>2026-04-25T09:34:18.999Z</time></trkpt><trkpt lat="44.83024458436614" lon="5.660056017798513"><ele>634.6666666666667</ele><time>2026-04-25T09:34:19.999Z</time></trkpt><trkpt lat="44.83008767360727" lon="5.660197004071632"><ele>635.3333333333334</ele><time>2026-04-25T09:34:20.999Z</time></trkpt><trkpt lat="44.82993332894392" lon="5.660367413643564"><ele>636.0</ele><time>2026-04-25T09:34:21.999Z</time></trkpt><trkpt lat="44.82979271951696" lon="5.660560681661697"><ele>636.0</ele><time>2026-04-25T09:34:22.999Z</time></trkpt><trkpt lat="44.82971122894973" lon="5.66081168274084"><ele>636.0</ele><time>2026-04-25T09:34:23.999Z</time></trkpt><trkpt lat="44.82961677486043" lon="5.661053830659204"><ele>636.0</ele><time>2026-04-25T09:34:24.999Z</time></trkpt><trkpt lat="44.829482972294684" lon="5.661250619536847"><ele>636.0</ele><time>2026-04-25T09:34:25.999Z</time></trkpt><trkpt lat="44.82931962246931" lon="5.661401116402215"><ele>636.0</ele><time>2026-04-25T09:34:26.999Z</time></trkpt><trkpt lat="44.829177164205916" lon="5.661564059203105"><ele>636.0</ele><time>2026-04-25T09:34:27.999Z</time></trkpt><trkpt lat="44.829052666120525" lon="5.661743148195146"><ele>632.6666666666666</ele><time>2026-04-25T09:34:28.999Z</time></trkpt><trkpt lat="44.828982361845526" lon="5.6619606865086185"><ele>629.3333333333333</ele><time>2026-04-25T09:34:29.999Z</time></trkpt><trkpt lat="44.828964999389704" lon="5.662201905210575"><ele>626.0</ele><time>2026-04-25T09:34:30.999Z</time></trkpt><trkpt lat="44.828992132993" lon="5.662452490286987"><ele>626.0</ele><time>2026-04-25T09:34:31.999Z</time></trkpt><trkpt lat="44.82901162236868" lon="5.662699550262786"><ele>626.0</ele><time>2026-04-25T09:34:32.999Z</time></trkpt><trkpt lat="44.82895250549243" lon="5.6629310819945475"><ele>626.0</ele><time>2026-04-25T09:34:33.999Z</time></trkpt><trkpt lat="44.82886101068091" lon="5.663154120910689"><ele>623.6666666666666</ele><time>2026-04-25T09:34:34.999Z</time></trkpt><trkpt lat="44.8287631807314" lon="5.66338843614726"><ele>621.3333333333334</ele><time>2026-04-25T09:34:35.999Z</time></trkpt><trkpt lat="44.82865790211795" lon="5.66357815812597"><ele>619.0</ele><time>2026-04-25T09:34:36.999Z</time></trkpt><trkpt lat="44.828549218344286" lon="5.663754039337276"><ele>618.3333333333334</ele><time>2026-04-25T09:34:37.999Z</time></trkpt><trkpt lat="44.82839964515046" lon="5.663830968766163"><ele>617.6666666666666</ele><time>2026-04-25T09:34:38.999Z</time></trkpt><trkpt lat="44.82822329486831" lon="5.66388319960618"><ele>617.0</ele><time>2026-04-25T09:34:39.999Z</time></trkpt><trkpt lat="44.828032104949145" lon="5.663930265170096"><ele>617.0</ele><time>2026-04-25T09:34:40.999Z</time></trkpt><trkpt lat="44.827839299620216" lon="5.663957857462459"><ele>617.0</ele><time>2026-04-25T09:34:41.999Z</time></trkpt><trkpt lat="44.827652145109646" lon="5.664005017210334"><ele>617.0</ele><time>2026-04-25T09:34:42.999Z</time></trkpt><trkpt lat="44.82747298716244" lon="5.6641041897065625"><ele>618.3333333333333</ele><time>2026-04-25T09:34:43.999Z</time></trkpt><trkpt lat="44.82728990444706" lon="5.6642661469123095"><ele>619.6666666666666</ele><time>2026-04-25T09:34:44.999Z</time></trkpt><trkpt lat="44.82710720153092" lon="5.664464062398004"><ele>621.0</ele><time>2026-04-25T09:34:45.999Z</time></trkpt><trkpt lat="44.8269375081934" lon="5.664681783645344"><ele>620.6666666666666</ele><time>2026-04-25T09:34:46.999Z</time></trkpt><trkpt lat="44.82679562591158" lon="5.664902690824062"><ele>620.3333333333333</ele><time>2026-04-25T09:34:47.999Z</time></trkpt><trkpt lat="44.82665943589606" lon="5.6651174511870455"><ele>620.0</ele><time>2026-04-25T09:34:48.999Z</time></trkpt><trkpt lat="44.826527828598294" lon="5.6653050130402445"><ele>616.5</ele><time>2026-04-25T09:34:49.999Z</time></trkpt><trkpt lat="44.82640918215183" lon="5.665457967168146"><ele>613.0</ele><time>2026-04-25T09:34:50.998Z</time></trkpt><trkpt lat="44.82630898057579" lon="5.665603208472105"><ele>609.5</ele><time>2026-04-25T09:34:51.998Z</time></trkpt><trkpt lat="44.826229935462635" lon="5.6657429488019275"><ele>606.0</ele><time>2026-04-25T09:34:52.998Z</time></trkpt><trkpt lat="44.82618363835861" lon="5.665895269650327"><ele>606.0</ele><time>2026-04-25T09:34:53.998Z</time></trkpt><trkpt lat="44.82619423932495" lon="5.666076786842558"><ele>606.0</ele><time>2026-04-25T09:34:54.998Z</time></trkpt><trkpt lat="44.826209419818696" lon="5.666258953087183"><ele>606.0</ele><time>2026-04-25T09:34:55.998Z</time></trkpt><trkpt lat="44.826223953218424" lon="5.66643335421651"><ele>606.0</ele><time>2026-04-25T09:34:56.998Z</time></trkpt><trkpt lat="44.826246054718595" lon="5.6666235290886116"><ele>602.5</ele><time>2026-04-25T09:34:57.998Z</time></trkpt><trkpt lat="44.82652723875183" lon="5.666793422741292"><ele>599.0</ele><time>2026-04-25T09:34:58.998Z</time></trkpt><trkpt lat="44.82649917559155" lon="5.667004827398033"><ele>597.6666666666666</ele><time>2026-04-25T09:34:59.998Z</time></trkpt><trkpt lat="44.826468999222655" lon="5.667232789084301"><ele>596.3333333333334</ele><time>2026-04-25T09:35:00.998Z</time></trkpt><trkpt lat="44.82643456713862" lon="5.6674607455390005"><ele>595.0</ele><time>2026-04-25T09:35:01.998Z</time></trkpt><trkpt lat="44.826404674107394" lon="5.6676681233949395"><ele>594.2</ele><time>2026-04-25T09:35:02.998Z</time></trkpt><trkpt lat="44.82638136271071" lon="5.667841978590089"><ele>593.4</ele><time>2026-04-25T09:35:03.998Z</time></trkpt><trkpt lat="44.82636940649584" lon="5.6679979964128"><ele>592.6</ele><time>2026-04-25T09:35:04.998Z</time></trkpt><trkpt lat="44.82636471381483" lon="5.668144802918778"><ele>591.8</ele><time>2026-04-25T09:35:05.998Z</time></trkpt><trkpt lat="44.826353808771216" lon="5.668290428619212"><ele>591.0</ele><time>2026-04-25T09:35:06.998Z</time></trkpt><trkpt lat="44.82630419048876" lon="5.66843375051558"><ele>591.0</ele><time>2026-04-25T09:35:07.998Z</time></trkpt><trkpt lat="44.82619559984893" lon="5.668574810373386"><ele>591.0</ele><time>2026-04-25T09:35:08.998Z</time></trkpt><trkpt lat="44.82609679805141" lon="5.668633628030972"><ele>591.0</ele><time>2026-04-25T09:35:09.998Z</time></trkpt><trkpt lat="44.82592728182045" lon="5.669095368310788"><ele>593.3333333333334</ele><time>2026-04-25T09:35:10.998Z</time></trkpt><trkpt lat="44.82576301152289" lon="5.669218664354849"><ele>595.6666666666667</ele><time>2026-04-25T09:35:11.998Z</time></trkpt><trkpt lat="44.82561671782671" lon="5.669340543342762"><ele>598.0</ele><time>2026-04-25T09:35:12.998Z</time></trkpt><trkpt lat="44.82548466022137" lon="5.6694462641567025"><ele>598.0</ele><time>2026-04-25T09:35:13.998Z</time></trkpt><trkpt lat="44.82533858042881" lon="5.669485399547511"><ele>598.0</ele><time>2026-04-25T09:35:14.998Z</time></trkpt><trkpt lat="44.8251730350436" lon="5.66945483775091"><ele>598.0</ele><time>2026-04-25T09:35:15.998Z</time></trkpt><trkpt lat="44.82501092307209" lon="5.6694021047625585"><ele>601.3333333333334</ele><time>2026-04-25T09:35:16.998Z</time></trkpt><trkpt lat="44.824840769814514" lon="5.669413365118184"><ele>604.6666666666666</ele><time>2026-04-25T09:35:18Z</time></trkpt><trkpt lat="44.824656064710794" lon="5.669512195125205"><ele>608.0</ele><time>2026-04-25T09:35:19Z</time></trkpt><trkpt lat="44.824467573933845" lon="5.669649205941247"><ele>601.0</ele><time>2026-04-25T09:35:20Z</time></trkpt><trkpt lat="44.82428746664616" lon="5.669842688704856"><ele>594.0</ele><time>2026-04-25T09:35:21Z</time></trkpt><trkpt lat="44.824110355525264" lon="5.670085328202552"><ele>602.0</ele><time>2026-04-25T09:35:22Z</time></trkpt><trkpt lat="44.8239397518632" lon="5.670369644582515"><ele>610.0</ele><time>2026-04-25T09:35:23Z</time></trkpt><trkpt lat="44.823752778914354" lon="5.67063840782972"><ele>610.0</ele><time>2026-04-25T09:35:24Z</time></trkpt><trkpt lat="44.82357702669706" lon="5.670903471060246"><ele>610.0</ele><time>2026-04-25T09:35:25Z</time></trkpt><trkpt lat="44.82340693316645" lon="5.671144605227245"><ele>607.0</ele><time>2026-04-25T09:35:26Z</time></trkpt><trkpt lat="44.82324133635258" lon="5.671363542847453"><ele>604.0</ele><time>2026-04-25T09:35:27Z</time></trkpt><trkpt lat="44.82308688076292" lon="5.671573201395083"><ele>601.0</ele><time>2026-04-25T09:35:28Z</time></trkpt><trkpt lat="44.82293780875914" lon="5.671773338180998"><ele>604.6666666666667</ele><time>2026-04-25T09:35:29Z</time></trkpt><trkpt lat="44.822796828321316" lon="5.671948789216287"><ele>608.3333333333334</ele><time>2026-04-25T09:35:30Z</time></trkpt><trkpt lat="44.82266373656118" lon="5.672114673380996"><ele>612.0</ele><time>2026-04-25T09:35:31Z</time></trkpt><trkpt lat="44.822541640359944" lon="5.672258256529867"><ele>607.5</ele><time>2026-04-25T09:35:32Z</time></trkpt><trkpt lat="44.822473160279706" lon="5.672397246787851"><ele>603.0</ele><time>2026-04-25T09:35:33Z</time></trkpt><trkpt lat="44.82242928333073" lon="5.672588287346742"><ele>598.5</ele><time>2026-04-25T09:35:34Z</time></trkpt><trkpt lat="44.82244407648672" lon="5.672789561412858"><ele>594.0</ele><time>2026-04-25T09:35:35Z</time></trkpt><trkpt lat="44.82249873438874" lon="5.6729908430568186"><ele>594.0</ele><time>2026-04-25T09:35:36Z</time></trkpt><trkpt lat="44.82249093400446" lon="5.673186373008341"><ele>594.0</ele><time>2026-04-25T09:35:37Z</time></trkpt><trkpt lat="44.82242143801831" lon="5.673349162824551"><ele>594.0</ele><time>2026-04-25T09:35:38Z</time></trkpt><trkpt lat="44.82229326547154" lon="5.673451515782058"><ele>594.0</ele><time>2026-04-25T09:35:39Z</time></trkpt><trkpt lat="44.8221253558222" lon="5.673573744549865"><ele>594.3333333333334</ele><time>2026-04-25T09:35:40Z</time></trkpt><trkpt lat="44.82194487320792" lon="5.673708037270838"><ele>594.6666666666667</ele><time>2026-04-25T09:35:41Z</time></trkpt><trkpt lat="44.821756061327314" lon="5.673833245486934"><ele>595.0</ele><time>2026-04-25T09:35:42Z</time></trkpt><trkpt lat="44.821571000410174" lon="5.6739618188516285"><ele>595.0</ele><time>2026-04-25T09:35:43Z</time></trkpt><trkpt lat="44.82138937272307" lon="5.674048958638994"><ele>595.0</ele><time>2026-04-25T09:35:44Z</time></trkpt><trkpt lat="44.821195050504194" lon="5.674089842060864"><ele>595.0</ele><time>2026-04-25T09:35:45Z</time></trkpt><trkpt lat="44.82100174157503" lon="5.674103646278497"><ele>594.3333333333334</ele><time>2026-04-25T09:35:46Z</time></trkpt><trkpt lat="44.82083397496334" lon="5.6741625716359065"><ele>593.6666666666666</ele><time>2026-04-25T09:35:47Z</time></trkpt><trkpt lat="44.82066391859496" lon="5.674326415398439"><ele>593.0</ele><time>2026-04-25T09:35:48Z</time></trkpt><trkpt lat="44.82049341990955" lon="5.674547666868622"><ele>597.5</ele><time>2026-04-25T09:35:49Z</time></trkpt><trkpt lat="44.82033027297698" lon="5.6748178191616825"><ele>602.0</ele><time>2026-04-25T09:35:50Z</time></trkpt><trkpt lat="44.82016561911735" lon="5.675092254241647"><ele>601.5</ele><time>2026-04-25T09:35:51Z</time></trkpt><trkpt lat="44.81997972215856" lon="5.675364741816353"><ele>601.0</ele><time>2026-04-25T09:35:52Z</time></trkpt><trkpt lat="44.81979092958585" lon="5.675645311759088"><ele>601.0</ele><time>2026-04-25T09:35:53Z</time></trkpt><trkpt lat="44.819618672566556" lon="5.675899044167206"><ele>601.0</ele><time>2026-04-25T09:35:54Z</time></trkpt><trkpt lat="44.819459250231816" lon="5.676130708849679"><ele>599.6666666666667</ele><time>2026-04-25T09:35:55Z</time></trkpt><trkpt lat="44.8193232978381" lon="5.676374446566749"><ele>598.3333333333334</ele><time>2026-04-25T09:35:56Z</time></trkpt><trkpt lat="44.81924098173826" lon="5.676647302191015"><ele>597.0</ele><time>2026-04-25T09:35:57Z</time></trkpt><trkpt lat="44.81920431731955" lon="5.676943035354216"><ele>597.0</ele><time>2026-04-25T09:35:58Z</time></trkpt><trkpt lat="44.8191869552002" lon="5.677243714789643"><ele>597.0</ele><time>2026-04-25T09:35:59Z</time></trkpt><trkpt lat="44.819131076841565" lon="5.677525749291582"><ele>597.0</ele><time>2026-04-25T09:36:00Z</time></trkpt><trkpt lat="44.81902587013826" lon="5.677803763565832"><ele>598.0</ele><time>2026-04-25T09:36:00.999Z</time></trkpt><trkpt lat="44.81890611150196" lon="5.6781130855182615"><ele>599.0</ele><time>2026-04-25T09:36:01.999Z</time></trkpt><trkpt lat="44.8187598025459" lon="5.678417702216195"><ele>604.5</ele><time>2026-04-25T09:36:02.999Z</time></trkpt><trkpt lat="44.818626200574435" lon="5.67876978649123"><ele>610.0</ele><time>2026-04-25T09:36:03.999Z</time></trkpt><trkpt lat="44.8184908051217" lon="5.679134527801373"><ele>608.5</ele><time>2026-04-25T09:36:04.999Z</time></trkpt><trkpt lat="44.81833300494973" lon="5.679475465629277"><ele>607.0</ele><time>2026-04-25T09:36:05.999Z</time></trkpt><trkpt lat="44.81818149977685" lon="5.679788248246164"><ele>607.0</ele><time>2026-04-25T09:36:06.999Z</time></trkpt><trkpt lat="44.81799613303432" lon="5.680038055959954"><ele>607.0</ele><time>2026-04-25T09:36:07.999Z</time></trkpt><trkpt lat="44.81778108738801" lon="5.680257806394488"><ele>605.0</ele><time>2026-04-25T09:36:08.999Z</time></trkpt><trkpt lat="44.81756566560055" lon="5.680487420778259"><ele>603.0</ele><time>2026-04-25T09:36:09.999Z</time></trkpt><trkpt lat="44.81734145359829" lon="5.680683523247624"><ele>603.0</ele><time>2026-04-25T09:36:10.999Z</time></trkpt><trkpt lat="44.81713230257635" lon="5.680874930442036"><ele>603.0</ele><time>2026-04-25T09:36:11.999Z</time></trkpt><trkpt lat="44.81694039460185" lon="5.681042849610762"><ele>600.6666666666666</ele><time>2026-04-25T09:36:12.999Z</time></trkpt><trkpt lat="44.81676188262277" lon="5.681200251151319"><ele>598.3333333333333</ele><time>2026-04-25T09:36:13.999Z</time></trkpt><trkpt lat="44.81659000429539" lon="5.681346257274211"><ele>596.0</ele><time>2026-04-25T09:36:14.999Z</time></trkpt><trkpt lat="44.816432927018276" lon="5.681491142755322"><ele>596.0</ele><time>2026-04-25T09:36:15.999Z</time></trkpt><trkpt lat="44.81630014016315" lon="5.681641313249663"><ele>596.0</ele><time>2026-04-25T09:36:16.999Z</time></trkpt><trkpt lat="44.81619092005823" lon="5.681790873485538"><ele>596.0</ele><time>2026-04-25T09:36:17.999Z</time></trkpt><trkpt lat="44.81610784593296" lon="5.6819564194373315"><ele>596.5</ele><time>2026-04-25T09:36:18.999Z</time></trkpt><trkpt lat="44.81604348674135" lon="5.682121964955182"><ele>597.0</ele><time>2026-04-25T09:36:19.999Z</time></trkpt><trkpt lat="44.8159801743815" lon="5.682292771193647"><ele>597.5</ele><time>2026-04-25T09:36:20.999Z</time></trkpt><trkpt lat="44.815923694499865" lon="5.682456955838576"><ele>598.0</ele><time>2026-04-25T09:36:21.999Z</time></trkpt><trkpt lat="44.81587630091571" lon="5.682630090184359"><ele>598.6666666666667</ele><time>2026-04-25T09:36:22.999Z</time></trkpt><trkpt lat="44.81583403253746" lon="5.682827720541665"><ele>599.3333333333334</ele><time>2026-04-25T09:36:23.999Z</time></trkpt><trkpt lat="44.81580638533959" lon="5.683050908194844"><ele>600.0</ele><time>2026-04-25T09:36:24.999Z</time></trkpt><trkpt lat="44.81576226444319" lon="5.68331457605647"><ele>601.5</ele><time>2026-04-25T09:36:25.999Z</time></trkpt><trkpt lat="44.815720375630896" lon="5.6836203760917865"><ele>603.0</ele><time>2026-04-25T09:36:26.999Z</time></trkpt><trkpt lat="44.815675151825296" lon="5.683951035733545"><ele>603.0</ele><time>2026-04-25T09:36:27.999Z</time></trkpt><trkpt lat="44.815627049363826" lon="5.684310018234538"><ele>603.0</ele><time>2026-04-25T09:36:28.999Z</time></trkpt><trkpt lat="44.81558816289226" lon="5.684680725111745"><ele>603.0</ele><time>2026-04-25T09:36:29.999Z</time></trkpt><trkpt lat="44.8155321158156" lon="5.685048021870117"><ele>603.0</ele><time>2026-04-25T09:36:30.999Z</time></trkpt><trkpt lat="44.81548469378621" lon="5.685435024600057"><ele>604.0</ele><time>2026-04-25T09:36:31.999Z</time></trkpt><trkpt lat="44.815432755000415" lon="5.685776176909077"><ele>605.0</ele><time>2026-04-25T09:36:32.999Z</time></trkpt><trkpt lat="44.81538579948249" lon="5.686096373723183"><ele>606.0</ele><time>2026-04-25T09:36:33.999Z</time></trkpt><trkpt lat="44.815327049923695" lon="5.686399016560815"><ele>607.0</ele><time>2026-04-25T09:36:34.999Z</time></trkpt><trkpt lat="44.81523652405895" lon="5.686676393239477"><ele>608.0</ele><time>2026-04-25T09:36:35.999Z</time></trkpt><trkpt lat="44.815093102596016" lon="5.686945987859575"><ele>608.0</ele><time>2026-04-25T09:36:36.999Z</time></trkpt><trkpt lat="44.81493124579393" lon="5.687251987724228"><ele>608.0</ele><time>2026-04-25T09:36:37.999Z</time></trkpt><trkpt lat="44.814751185177364" lon="5.687565017378572"><ele>608.5</ele><time>2026-04-25T09:36:38.999Z</time></trkpt><trkpt lat="44.81457819041234" lon="5.687891181853175"><ele>609.0</ele><time>2026-04-25T09:36:39.999Z</time></trkpt><trkpt lat="44.814426290389605" lon="5.688185271076966"><ele>609.0</ele><time>2026-04-25T09:36:40.999Z</time></trkpt><trkpt lat="44.814257867959675" lon="5.6884267096217584"><ele>609.0</ele><time>2026-04-25T09:36:41.999Z</time></trkpt><trkpt lat="44.81407453619339" lon="5.688612242984217"><ele>609.0</ele><time>2026-04-25T09:36:42.999Z</time></trkpt><trkpt lat="44.81386929586717" lon="5.688793196521183"><ele>609.0</ele><time>2026-04-25T09:36:43.999Z</time></trkpt><trkpt lat="44.81368144501773" lon="5.68895139199446"><ele>609.0</ele><time>2026-04-25T09:36:44.999Z</time></trkpt><trkpt lat="44.81353637986737" lon="5.68915087387478"><ele>609.0</ele><time>2026-04-25T09:36:45.999Z</time></trkpt><trkpt lat="44.81343481972053" lon="5.689419761259199"><ele>609.0</ele><time>2026-04-25T09:36:46.999Z</time></trkpt><trkpt lat="44.813393562167086" lon="5.689721826404504"><ele>611.5</ele><time>2026-04-25T09:36:47.999Z</time></trkpt><trkpt lat="44.8133642239953" lon="5.690056083863293"><ele>614.0</ele><time>2026-04-25T09:36:48.999Z</time></trkpt><trkpt lat="44.813241642361454" lon="5.6903055153335735"><ele>614.0</ele><time>2026-04-25T09:36:49.999Z</time></trkpt><trkpt lat="44.813080341442024" lon="5.690552037675116"><ele>614.0</ele><time>2026-04-25T09:36:50.999Z</time></trkpt><trkpt lat="44.81291928112481" lon="5.69081712283584"><ele>616.0</ele><time>2026-04-25T09:36:51.999Z</time></trkpt><trkpt lat="44.81279116775534" lon="5.691099297540803"><ele>618.0</ele><time>2026-04-25T09:36:52.999Z</time></trkpt><trkpt lat="44.81265950653563" lon="5.691365755061242"><ele>617.6666666666666</ele><time>2026-04-25T09:36:53.999Z</time></trkpt><trkpt lat="44.81253909225898" lon="5.691626654661935"><ele>617.3333333333333</ele><time>2026-04-25T09:36:54.999Z</time></trkpt><trkpt lat="44.81243060228505" lon="5.691867263462733"><ele>617.0</ele><time>2026-04-25T09:36:55.999Z</time></trkpt><trkpt lat="44.81233120844514" lon="5.6921271317559095"><ele>619.3333333333333</ele><time>2026-04-25T09:36:56.999Z</time></trkpt><trkpt lat="44.81221305614099" lon="5.692272464315475"><ele>621.6666666666666</ele><time>2026-04-25T09:36:57.998Z</time></trkpt><trkpt lat="44.812061871109584" lon="5.6923725569005414"><ele>624.0</ele><time>2026-04-25T09:36:58.998Z</time></trkpt><trkpt lat="44.811883957716184" lon="5.692399186122436"><ele>623.25</ele><time>2026-04-25T09:36:59.998Z</time></trkpt><trkpt lat="44.81173013713003" lon="5.692407882087572"><ele>622.5</ele><time>2026-04-25T09:37:00.998Z</time></trkpt><trkpt lat="44.81160289921414" lon="5.692490147227386"><ele>621.75</ele><time>2026-04-25T09:37:01.998Z</time></trkpt><trkpt lat="44.81151496405601" lon="5.692652748354564"><ele>621.0</ele><time>2026-04-25T09:37:02.998Z</time></trkpt><trkpt lat="44.81145554818933" lon="5.692891476797555"><ele>623.3333333333334</ele><time>2026-04-25T09:37:03.998Z</time></trkpt><trkpt lat="44.81139251146986" lon="5.69316024166708"><ele>625.6666666666667</ele><time>2026-04-25T09:37:04.998Z</time></trkpt><trkpt lat="44.81127808958661" lon="5.69344787165448"><ele>628.0</ele><time>2026-04-25T09:37:05.998Z</time></trkpt><trkpt lat="44.811116459409625" lon="5.693710676643985"><ele>627.0</ele><time>2026-04-25T09:37:06.998Z</time></trkpt><trkpt lat="44.81091140891362" lon="5.693964715497779"><ele>626.0</ele><time>2026-04-25T09:37:07.998Z</time></trkpt><trkpt lat="44.81070425211568" lon="5.694232876528393"><ele>633.0</ele><time>2026-04-25T09:37:08.998Z</time></trkpt><trkpt lat="44.81050170327054" lon="5.694531589022431"><ele>640.0</ele><time>2026-04-25T09:37:09.998Z</time></trkpt><trkpt lat="44.81029658441545" lon="5.694837513439498"><ele>637.0</ele><time>2026-04-25T09:37:10.998Z</time></trkpt><trkpt lat="44.810092267202954" lon="5.6951312974473876"><ele>634.0</ele><time>2026-04-25T09:37:11.998Z</time></trkpt><trkpt lat="44.80990139915454" lon="5.695428385684867"><ele>634.0</ele><time>2026-04-25T09:37:12.998Z</time></trkpt><trkpt lat="44.809726400205314" lon="5.695767970906684"><ele>634.0</ele><time>2026-04-25T09:37:13.998Z</time></trkpt><trkpt lat="44.80955358574729" lon="5.696133969137385"><ele>630.0</ele><time>2026-04-25T09:37:14.998Z</time></trkpt><trkpt lat="44.80938271666737" lon="5.696500389251332"><ele>626.0</ele><time>2026-04-25T09:37:15.998Z</time></trkpt><trkpt lat="44.80920942968615" lon="5.696867248500671"><ele>628.5</ele><time>2026-04-25T09:37:16.998Z</time></trkpt><trkpt lat="44.80903869120358" lon="5.6971951120479805"><ele>631.0</ele><time>2026-04-25T09:37:17.998Z</time></trkpt><trkpt lat="44.80889890200589" lon="5.6975216465314595"><ele>634.5</ele><time>2026-04-25T09:37:18.998Z</time></trkpt><trkpt lat="44.808788565957435" lon="5.697849893552685"><ele>638.0</ele><time>2026-04-25T09:37:19.998Z</time></trkpt><trkpt lat="44.80869331244968" lon="5.698162434180469"><ele>638.0</ele><time>2026-04-25T09:37:20.998Z</time></trkpt><trkpt lat="44.808601881405934" lon="5.698448745914477"><ele>638.0</ele><time>2026-04-25T09:37:21.998Z</time></trkpt><trkpt lat="44.8085165416655" lon="5.698718410741982"><ele>638.0</ele><time>2026-04-25T09:37:22.998Z</time></trkpt><trkpt lat="44.80842758051537" lon="5.698956269749436"><ele>635.3333333333333</ele><time>2026-04-25T09:37:24Z</time></trkpt><trkpt lat="44.8083595421787" lon="5.699177310857823"><ele>632.6666666666666</ele><time>2026-04-25T09:37:25Z</time></trkpt><trkpt lat="44.80834523008965" lon="5.699416269337418"><ele>630.0</ele><time>2026-04-25T09:37:26Z</time></trkpt><trkpt lat="44.808384243428755" lon="5.699682735858012"><ele>629.3333333333334</ele><time>2026-04-25T09:37:27Z</time></trkpt><trkpt lat="44.80848130762825" lon="5.699967897779328"><ele>628.6666666666667</ele><time>2026-04-25T09:37:28Z</time></trkpt><trkpt lat="44.80856517932436" lon="5.700258946052304"><ele>628.0</ele><time>2026-04-25T09:37:29Z</time></trkpt><trkpt lat="44.80859650497054" lon="5.700554977294467"><ele>637.0</ele><time>2026-04-25T09:37:30Z</time></trkpt><trkpt lat="44.808569279979324" lon="5.700878239740447"><ele>646.0</ele><time>2026-04-25T09:37:31Z</time></trkpt><trkpt lat="44.80852256120006" lon="5.701206706666425"><ele>638.5</ele><time>2026-04-25T09:37:32Z</time></trkpt><trkpt lat="44.80847872854183" lon="5.701529044706265"><ele>631.0</ele><time>2026-04-25T09:37:33Z</time></trkpt><trkpt lat="44.8084573417923" lon="5.701846033950961"><ele>631.3333333333334</ele><time>2026-04-25T09:37:34Z</time></trkpt><trkpt lat="44.80846402264283" lon="5.702126914222576"><ele>631.6666666666666</ele><time>2026-04-25T09:37:35Z</time></trkpt><trkpt lat="44.808491685958835" lon="5.7023895958012165"><ele>632.0</ele><time>2026-04-25T09:37:36Z</time></trkpt><trkpt lat="44.80855740506065" lon="5.702597691867116"><ele>633.6666666666666</ele><time>2026-04-25T09:37:37Z</time></trkpt><trkpt lat="44.80866249308707" lon="5.702771079998762"><ele>635.3333333333334</ele><time>2026-04-25T09:37:38Z</time></trkpt><trkpt lat="44.8088196396668" lon="5.7028868259379415"><ele>637.0</ele><time>2026-04-25T09:37:39Z</time></trkpt><trkpt lat="44.809006961277376" lon="5.702937647060175"><ele>637.0</ele><time>2026-04-25T09:37:40Z</time></trkpt><trkpt lat="44.80922220302851" lon="5.702969015942984"><ele>637.0</ele><time>2026-04-25T09:37:41Z</time></trkpt><trkpt lat="44.80939877930257" lon="5.703084020551354"><ele>637.0</ele><time>2026-04-25T09:37:42Z</time></trkpt><trkpt lat="44.80955706278685" lon="5.7033301851821046"><ele>637.5</ele><time>2026-04-25T09:37:43Z</time></trkpt><trkpt lat="44.809691564767135" lon="5.703631950111181"><ele>638.0</ele><time>2026-04-25T09:37:44Z</time></trkpt><trkpt lat="44.8098417489862" lon="5.703917248172697"><ele>638.0</ele><time>2026-04-25T09:37:45Z</time></trkpt><trkpt lat="44.81000921098032" lon="5.7042676429697625"><ele>638.0</ele><time>2026-04-25T09:37:46Z</time></trkpt><trkpt lat="44.810184367182984" lon="5.704604400259479"><ele>640.0</ele><time>2026-04-25T09:37:47Z</time></trkpt><trkpt lat="44.81037153842434" lon="5.704955041702277"><ele>642.0</ele><time>2026-04-25T09:37:48Z</time></trkpt><trkpt lat="44.81056322606441" lon="5.70531397464755"><ele>642.0</ele><time>2026-04-25T09:37:49Z</time></trkpt><trkpt lat="44.810751274740504" lon="5.705671189646277"><ele>642.0</ele><time>2026-04-25T09:37:50Z</time></trkpt><trkpt lat="44.81092269740264" lon="5.706002358353956"><ele>651.0</ele><time>2026-04-25T09:37:51Z</time></trkpt><trkpt lat="44.81109542360982" lon="5.706326690310119"><ele>660.0</ele><time>2026-04-25T09:37:52Z</time></trkpt><trkpt lat="44.81125253603665" lon="5.706618662337782"><ele>660.0</ele><time>2026-04-25T09:37:53Z</time></trkpt><trkpt lat="44.81138317547819" lon="5.70686992681312"><ele>660.0</ele><time>2026-04-25T09:37:54Z</time></trkpt><trkpt lat="44.81149054565922" lon="5.707119946136962"><ele>660.0</ele><time>2026-04-25T09:37:55Z</time></trkpt><trkpt lat="44.811563673356595" lon="5.707366692053291"><ele>659.0</ele><time>2026-04-25T09:37:56Z</time></trkpt><trkpt lat="44.81156164190009" lon="5.707605120936371"><ele>658.0</ele><time>2026-04-25T09:37:57Z</time></trkpt><trkpt lat="44.81151840939008" lon="5.707862188936468"><ele>657.0</ele><time>2026-04-25T09:37:58Z</time></trkpt><trkpt lat="44.81144894592163" lon="5.708128252806224"><ele>657.0</ele><time>2026-04-25T09:37:59Z</time></trkpt><trkpt lat="44.81142458108209" lon="5.708348949369471"><ele>657.0</ele><time>2026-04-25T09:38:00Z</time></trkpt><trkpt lat="44.8114549143546" lon="5.708565320393462"><ele>657.0</ele><time>2026-04-25T09:38:01Z</time></trkpt><trkpt lat="44.811550178129714" lon="5.708726306539907"><ele>658.0</ele><time>2026-04-25T09:38:02Z</time></trkpt><trkpt lat="44.81169035469773" lon="5.708830921426339"><ele>659.0</ele><time>2026-04-25T09:38:03Z</time></trkpt><trkpt lat="44.81186005457442" lon="5.708883776369887"><ele>660.0</ele><time>2026-04-25T09:38:04Z</time></trkpt><trkpt lat="44.81200620995083" lon="5.708991951795841"><ele>667.6666666666666</ele><time>2026-04-25T09:38:05Z</time></trkpt><trkpt lat="44.812119147941495" lon="5.709160470436113"><ele>675.3333333333333</ele><time>2026-04-25T09:38:05.999Z</time></trkpt><trkpt lat="44.81218415717305" lon="5.709390594035698"><ele>683.0</ele><time>2026-04-25T09:38:06.999Z</time></trkpt><trkpt lat="44.81219470307919" lon="5.709643357728299"><ele>683.0</ele><time>2026-04-25T09:38:07.999Z</time></trkpt><trkpt lat="44.81222472912153" lon="5.709934264341425"><ele>683.0</ele><time>2026-04-25T09:38:08.999Z</time></trkpt><trkpt lat="44.81228947108945" lon="5.710221631456747"><ele>683.0</ele><time>2026-04-25T09:38:09.999Z</time></trkpt><trkpt lat="44.81234155774789" lon="5.7104977082407835"><ele>682.0</ele><time>2026-04-25T09:38:10.999Z</time></trkpt><trkpt lat="44.812371013495834" lon="5.710739020346544"><ele>681.0</ele><time>2026-04-25T09:38:11.999Z</time></trkpt><trkpt lat="44.81235369012015" lon="5.710956003506971"><ele>680.0</ele><time>2026-04-25T09:38:12.999Z</time></trkpt><trkpt lat="44.81231348981382" lon="5.711182805167411"><ele>680.0</ele><time>2026-04-25T09:38:13.999Z</time></trkpt><trkpt lat="44.81225658061203" lon="5.711460784035057"><ele>680.0</ele><time>2026-04-25T09:38:14.999Z</time></trkpt><trkpt lat="44.81220311761561" lon="5.711746594943593"><ele>680.0</ele><time>2026-04-25T09:38:15.999Z</time></trkpt><trkpt lat="44.81221299601917" lon="5.712053986390861"><ele>679.5</ele><time>2026-04-25T09:38:16.999Z</time></trkpt><trkpt lat="44.81222848793073" lon="5.71238170667898"><ele>679.0</ele><time>2026-04-25T09:38:17.999Z</time></trkpt><trkpt lat="44.81226378713106" lon="5.712720774113548"><ele>677.0</ele><time>2026-04-25T09:38:18.999Z</time></trkpt><trkpt lat="44.81227977043912" lon="5.713006794778542"><ele>675.0</ele><time>2026-04-25T09:38:19.999Z</time></trkpt><trkpt lat="44.81223939485632" lon="5.713309724497542"><ele>673.0</ele><time>2026-04-25T09:38:20.999Z</time></trkpt><trkpt lat="44.812229514872236" lon="5.7136175763515435"><ele>672.5</ele><time>2026-04-25T09:38:21.999Z</time></trkpt><trkpt lat="44.81225927366061" lon="5.713937114738565"><ele>672.0</ele><time>2026-04-25T09:38:22.999Z</time></trkpt><trkpt lat="44.81232989384823" lon="5.714267955552312"><ele>671.0</ele><time>2026-04-25T09:38:23.999Z</time></trkpt><trkpt lat="44.81237903656657" lon="5.714596765782016"><ele>670.0</ele><time>2026-04-25T09:38:24.999Z</time></trkpt><trkpt lat="44.812464817287044" lon="5.714909036385477"><ele>670.0</ele><time>2026-04-25T09:38:25.999Z</time></trkpt><trkpt lat="44.812577521200225" lon="5.715211505629765"><ele>670.0</ele><time>2026-04-25T09:38:26.999Z</time></trkpt><trkpt lat="44.812696547263606" lon="5.715536373385002"><ele>677.0</ele><time>2026-04-25T09:38:27.999Z</time></trkpt><trkpt lat="44.81282775838113" lon="5.71588707324984"><ele>684.0</ele><time>2026-04-25T09:38:28.999Z</time></trkpt><trkpt lat="44.81295594901539" lon="5.716229699967408"><ele>684.0</ele><time>2026-04-25T09:38:29.999Z</time></trkpt><trkpt lat="44.813083199175026" lon="5.7165698129314615"><ele>684.0</ele><time>2026-04-25T09:38:30.999Z</time></trkpt><trkpt lat="44.81321098542318" lon="5.716908326252854"><ele>678.5</ele><time>2026-04-25T09:38:31.999Z</time></trkpt><trkpt lat="44.81336683849344" lon="5.717212279417392"><ele>673.0</ele><time>2026-04-25T09:38:32.999Z</time></trkpt><trkpt lat="44.81353342235317" lon="5.717497030184029"><ele>679.0</ele><time>2026-04-25T09:38:33.999Z</time></trkpt><trkpt lat="44.81371530981086" lon="5.717752645485445"><ele>685.0</ele><time>2026-04-25T09:38:34.999Z</time></trkpt><trkpt lat="44.81390946063983" lon="5.717971126932442"><ele>685.0</ele><time>2026-04-25T09:38:35.999Z</time></trkpt><trkpt lat="44.814061608577084" lon="5.7182320601338"><ele>685.0</ele><time>2026-04-25T09:38:36.999Z</time></trkpt><trkpt lat="44.81419571968212" lon="5.718538551911129"><ele>680.0</ele><time>2026-04-25T09:38:37.999Z</time></trkpt><trkpt lat="44.814310310987075" lon="5.718895569599519"><ele>675.0</ele><time>2026-04-25T09:38:38.999Z</time></trkpt><trkpt lat="44.814421205962475" lon="5.719278868040251"><ele>684.0</ele><time>2026-04-25T09:38:39.999Z</time></trkpt><trkpt lat="44.8145139567157" lon="5.7196048357433265"><ele>693.0</ele><time>2026-04-25T09:38:40.999Z</time></trkpt><trkpt lat="44.81458941469628" lon="5.719905298048795"><ele>687.5</ele><time>2026-04-25T09:38:41.999Z</time></trkpt><trkpt lat="44.81463855220104" lon="5.720233556258531"><ele>682.0</ele><time>2026-04-25T09:38:42.999Z</time></trkpt><trkpt lat="44.81464643783579" lon="5.720566443466208"><ele>682.0</ele><time>2026-04-25T09:38:43.999Z</time></trkpt><trkpt lat="44.81461529095327" lon="5.720908509999571"><ele>682.0</ele><time>2026-04-25T09:38:44.999Z</time></trkpt><trkpt lat="44.81455802613281" lon="5.721241691417032"><ele>681.6666666666667</ele><time>2026-04-25T09:38:45.999Z</time></trkpt><trkpt lat="44.814489349490074" lon="5.721545686204061"><ele>681.3333333333334</ele><time>2026-04-25T09:38:46.999Z</time></trkpt><trkpt lat="44.81446269997951" lon="5.721857588118084"><ele>681.0</ele><time>2026-04-25T09:38:47.999Z</time></trkpt><trkpt lat="44.814476128371815" lon="5.7221732374801695"><ele>682.0</ele><time>2026-04-25T09:38:48.999Z</time></trkpt><trkpt lat="44.81453818406844" lon="5.72247868601194"><ele>683.0</ele><time>2026-04-25T09:38:49.999Z</time></trkpt><trkpt lat="44.814635360117784" lon="5.722802245003444"><ele>684.0</ele><time>2026-04-25T09:38:50.999Z</time></trkpt><trkpt lat="44.8147189180346" lon="5.723158693660862"><ele>685.0</ele><time>2026-04-25T09:38:51.999Z</time></trkpt><trkpt lat="44.81481197709974" lon="5.72353811529067"><ele>684.5</ele><time>2026-04-25T09:38:52.999Z</time></trkpt><trkpt lat="44.8149083409333" lon="5.723931011497548"><ele>684.0</ele><time>2026-04-25T09:38:53.999Z</time></trkpt><trkpt lat="44.81500115312074" lon="5.724309429502742"><ele>685.0</ele><time>2026-04-25T09:38:54.999Z</time></trkpt><trkpt lat="44.81509368509948" lon="5.724642624259517"><ele>686.0</ele><time>2026-04-25T09:38:55.999Z</time></trkpt><trkpt lat="44.81516664546045" lon="5.724960379004374"><ele>688.3333333333333</ele><time>2026-04-25T09:38:56.999Z</time></trkpt><trkpt lat="44.81523894257952" lon="5.725248068308493"><ele>690.6666666666666</ele><time>2026-04-25T09:38:57.999Z</time></trkpt><trkpt lat="44.81527870473364" lon="5.725548290989111"><ele>693.0</ele><time>2026-04-25T09:38:58.999Z</time></trkpt><trkpt lat="44.81525820151734" lon="5.725889446984956"><ele>695.0</ele><time>2026-04-25T09:38:59.999Z</time></trkpt><trkpt lat="44.81518509412999" lon="5.726227116769887"><ele>697.0</ele><time>2026-04-25T09:39:00.999Z</time></trkpt><trkpt lat="44.81507306857933" lon="5.726588629509388"><ele>694.5</ele><time>2026-04-25T09:39:01.999Z</time></trkpt><trkpt lat="44.81497785083377" lon="5.726959907646798"><ele>692.0</ele><time>2026-04-25T09:39:02.999Z</time></trkpt><trkpt lat="44.81489459009056" lon="5.7273460065086494"><ele>694.5</ele><time>2026-04-25T09:39:03.999Z</time></trkpt><trkpt lat="44.8148094985715" lon="5.727730216975521"><ele>697.0</ele><time>2026-04-25T09:39:04.998Z</time></trkpt><trkpt lat="44.81473042330099" lon="5.728117361325587"><ele>697.0</ele><time>2026-04-25T09:39:05.998Z</time></trkpt><trkpt lat="44.81465604054043" lon="5.728515083872853"><ele>697.0</ele><time>2026-04-25T09:39:06.998Z</time></trkpt><trkpt lat="44.81459459079727" lon="5.728915927447278"><ele>699.0</ele><time>2026-04-25T09:39:07.998Z</time></trkpt><trkpt lat="44.81453585633444" lon="5.729293280177498"><ele>701.0</ele><time>2026-04-25T09:39:08.998Z</time></trkpt><trkpt lat="44.81447858776366" lon="5.729628702710433"><ele>702.3333333333333</ele><time>2026-04-25T09:39:09.998Z</time></trkpt><trkpt lat="44.814431365362644" lon="5.7299493532595935"><ele>703.6666666666666</ele><time>2026-04-25T09:39:10.998Z</time></trkpt><trkpt lat="44.81441674708421" lon="5.730242407955003"><ele>705.0</ele><time>2026-04-25T09:39:11.998Z</time></trkpt><trkpt lat="44.814461722186394" lon="5.730542635412722"><ele>705.5</ele><time>2026-04-25T09:39:12.998Z</time></trkpt><trkpt lat="44.814544837944815" lon="5.730854409889976"><ele>706.0</ele><time>2026-04-25T09:39:13.998Z</time></trkpt><trkpt lat="44.81459837010256" lon="5.731174632708608"><ele>706.6666666666667</ele><time>2026-04-25T09:39:14.998Z</time></trkpt><trkpt lat="44.81458729805394" lon="5.731483003070034"><ele>707.3333333333334</ele><time>2026-04-25T09:39:15.998Z</time></trkpt><trkpt lat="44.8145175125483" lon="5.731750841979245"><ele>708.0</ele><time>2026-04-25T09:39:16.998Z</time></trkpt><trkpt lat="44.81445661124618" lon="5.732016905633136"><ele>709.0</ele><time>2026-04-25T09:39:17.998Z</time></trkpt><trkpt lat="44.81445882260137" lon="5.732313151390808"><ele>710.0</ele><time>2026-04-25T09:39:18.998Z</time></trkpt><trkpt lat="44.814510498215874" lon="5.732622604301669"><ele>711.0</ele><time>2026-04-25T09:39:19.998Z</time></trkpt><trkpt lat="44.81456199079583" lon="5.732923522041763"><ele>711.0</ele><time>2026-04-25T09:39:20.998Z</time></trkpt><trkpt lat="44.81460740523653" lon="5.733238436515138"><ele>711.0</ele><time>2026-04-25T09:39:21.998Z</time></trkpt><trkpt lat="44.814582304284166" lon="5.733560976657883"><ele>712.0</ele><time>2026-04-25T09:39:22.998Z</time></trkpt><trkpt lat="44.81451601246892" lon="5.733893067792972"><ele>713.0</ele><time>2026-04-25T09:39:23.998Z</time></trkpt><trkpt lat="44.81444461406743" lon="5.734239350297768"><ele>714.5</ele><time>2026-04-25T09:39:24.998Z</time></trkpt><trkpt lat="44.81442219519269" lon="5.734593812697063"><ele>716.0</ele><time>2026-04-25T09:39:25.998Z</time></trkpt><trkpt lat="44.81442711170098" lon="5.73494978886066"><ele>715.6666666666666</ele><time>2026-04-25T09:39:26.998Z</time></trkpt><trkpt lat="44.81443788838503" lon="5.735268374154886"><ele>715.3333333333334</ele><time>2026-04-25T09:39:27.998Z</time></trkpt><trkpt lat="44.814442936361864" lon="5.735550014282557"><ele>715.0</ele><time>2026-04-25T09:39:28.998Z</time></trkpt><trkpt lat="44.81446695215853" lon="5.735822523545121"><ele>715.0</ele><time>2026-04-25T09:39:30Z</time></trkpt><trkpt lat="44.81452995667106" lon="5.736105458041318"><ele>715.0</ele><time>2026-04-25T09:39:31Z</time></trkpt><trkpt lat="44.81462280373713" lon="5.736378562587994"><ele>715.0</ele><time>2026-04-25T09:39:32Z</time></trkpt><trkpt lat="44.814749522944226" lon="5.736632495083765"><ele>715.0</ele><time>2026-04-25T09:39:33Z</time></trkpt><trkpt lat="44.81488706387118" lon="5.736878206929639"><ele>715.0</ele><time>2026-04-25T09:39:34Z</time></trkpt><trkpt lat="44.8150146673901" lon="5.737089119237201"><ele>715.0</ele><time>2026-04-25T09:39:35Z</time></trkpt><trkpt lat="44.81515251803888" lon="5.737243686763129"><ele>717.0</ele><time>2026-04-25T09:39:36Z</time></trkpt><trkpt lat="44.81532433363084" lon="5.737365391096818"><ele>719.0</ele><time>2026-04-25T09:39:37Z</time></trkpt><trkpt lat="44.8155052780155" lon="5.737434423837892"><ele>721.0</ele><time>2026-04-25T09:39:38Z</time></trkpt><trkpt lat="44.815689223307416" lon="5.737505906757832"><ele>721.0</ele><time>2026-04-25T09:39:39Z</time></trkpt><trkpt lat="44.81585042493519" lon="5.737620223103486"><ele>721.0</ele><time>2026-04-25T09:39:40Z</time></trkpt><trkpt lat="44.81597619255936" lon="5.737807706950558"><ele>721.0</ele><time>2026-04-25T09:39:41Z</time></trkpt><trkpt lat="44.81603853647597" lon="5.738033101648114"><ele>721.0</ele><time>2026-04-25T09:39:42Z</time></trkpt><trkpt lat="44.81605540021508" lon="5.738271138329007"><ele>721.0</ele><time>2026-04-25T09:39:43Z</time></trkpt><trkpt lat="44.815992862727114" lon="5.738495644600689"><ele>721.0</ele><time>2026-04-25T09:39:44Z</time></trkpt><trkpt lat="44.81590557871626" lon="5.738706632275169"><ele>721.0</ele><time>2026-04-25T09:39:45Z</time></trkpt><trkpt lat="44.815776044543405" lon="5.738929803719326"><ele>721.0</ele><time>2026-04-25T09:39:46Z</time></trkpt><trkpt lat="44.81564621244412" lon="5.7391698652135315"><ele>721.0</ele><time>2026-04-25T09:39:47Z</time></trkpt><trkpt lat="44.81552259564845" lon="5.739406211751071"><ele>722.3333333333334</ele><time>2026-04-25T09:39:48Z</time></trkpt><trkpt lat="44.81537202939933" lon="5.739614808888629"><ele>723.6666666666666</ele><time>2026-04-25T09:39:49Z</time></trkpt><trkpt lat="44.81518314893066" lon="5.739799830330253"><ele>725.0</ele><time>2026-04-25T09:39:50Z</time></trkpt><trkpt lat="44.814962259132564" lon="5.7399585066751015"><ele>726.5</ele><time>2026-04-25T09:39:51Z</time></trkpt><trkpt lat="44.81472501909867" lon="5.7400970249410745"><ele>728.0</ele><time>2026-04-25T09:39:52Z</time></trkpt><trkpt lat="44.8144819969066" lon="5.740242161658181"><ele>731.5</ele><time>2026-04-25T09:39:53Z</time></trkpt><trkpt lat="44.814244199559226" lon="5.740398751376441"><ele>735.0</ele><time>2026-04-25T09:39:54Z</time></trkpt><trkpt lat="44.814019675970236" lon="5.740545550919811"><ele>735.0</ele><time>2026-04-25T09:39:55Z</time></trkpt><trkpt lat="44.813820369017066" lon="5.7406781625583925"><ele>735.0</ele><time>2026-04-25T09:39:56Z</time></trkpt><trkpt lat="44.813641483045416" lon="5.740795374170445"><ele>735.0</ele><time>2026-04-25T09:39:57Z</time></trkpt><trkpt lat="44.81348547359895" lon="5.740897269329157"><ele>735.3333333333334</ele><time>2026-04-25T09:39:58Z</time></trkpt><trkpt lat="44.81335658982513" lon="5.740989831138784"><ele>735.6666666666667</ele><time>2026-04-25T09:39:59Z</time></trkpt><trkpt lat="44.813179833827164" lon="5.741076529741176"><ele>736.0</ele><time>2026-04-25T09:40:00Z</time></trkpt><trkpt lat="44.8130404901695" lon="5.741188861719789"><ele>738.0</ele><time>2026-04-25T09:40:01Z</time></trkpt><trkpt lat="44.81293227950282" lon="5.741361050698188"><ele>740.0</ele><time>2026-04-25T09:40:02Z</time></trkpt><trkpt lat="44.81285006485312" lon="5.741576016138941"><ele>742.0</ele><time>2026-04-25T09:40:03Z</time></trkpt><trkpt lat="44.812798121624546" lon="5.74181811992572"><ele>743.0</ele><time>2026-04-25T09:40:04Z</time></trkpt><trkpt lat="44.81279942078252" lon="5.742085151156031"><ele>744.0</ele><time>2026-04-25T09:40:05Z</time></trkpt><trkpt lat="44.81285727492843" lon="5.742319873698329"><ele>745.0</ele><time>2026-04-25T09:40:06Z</time></trkpt><trkpt lat="44.81294924502992" lon="5.742544284672976"><ele>747.0</ele><time>2026-04-25T09:40:07Z</time></trkpt><trkpt lat="44.81303649251501" lon="5.742798748678107"><ele>749.0</ele><time>2026-04-25T09:40:08Z</time></trkpt><trkpt lat="44.81327674716711" lon="5.742861094220182"><ele>751.0</ele><time>2026-04-25T09:40:09Z</time></trkpt><trkpt lat="44.813468128027154" lon="5.742989945198409"><ele>751.0</ele><time>2026-04-25T09:40:10Z</time></trkpt><trkpt lat="44.81366774044944" lon="5.743112351408035"><ele>751.0</ele><time>2026-04-25T09:40:10.999Z</time></trkpt><trkpt lat="44.81386269467144" lon="5.7432367095913435"><ele>751.0</ele><time>2026-04-25T09:40:11.999Z</time></trkpt><trkpt lat="44.814056204334655" lon="5.743360328521623"><ele>751.0</ele><time>2026-04-25T09:40:12.999Z</time></trkpt><trkpt lat="44.81425443190258" lon="5.743479558440453"><ele>751.0</ele><time>2026-04-25T09:40:13.999Z</time></trkpt><trkpt lat="44.81442733724405" lon="5.74359439017022"><ele>751.0</ele><time>2026-04-25T09:40:14.999Z</time></trkpt><trkpt lat="44.81458894635348" lon="5.743695121527496"><ele>752.25</ele><time>2026-04-25T09:40:15.999Z</time></trkpt><trkpt lat="44.81473721838465" lon="5.74378358589207"><ele>753.5</ele><time>2026-04-25T09:40:16.999Z</time></trkpt><trkpt lat="44.81488050998029" lon="5.743868375381363"><ele>754.75</ele><time>2026-04-25T09:40:17.999Z</time></trkpt><trkpt lat="44.815005052526224" lon="5.743932212334512"><ele>756.0</ele><time>2026-04-25T09:40:18.999Z</time></trkpt><trkpt lat="44.815129457383556" lon="5.743999924225421"><ele>755.5</ele><time>2026-04-25T09:40:19.999Z</time></trkpt><trkpt lat="44.81524910559514" lon="5.7440726295792235"><ele>755.0</ele><time>2026-04-25T09:40:20.999Z</time></trkpt><trkpt lat="44.81536309096491" lon="5.74413840961917"><ele>754.5</ele><time>2026-04-25T09:40:21.999Z</time></trkpt><trkpt lat="44.815476034836216" lon="5.744200032948197"><ele>754.0</ele><time>2026-04-25T09:40:22.999Z</time></trkpt><trkpt lat="44.815579794378976" lon="5.744254703390794"><ele>754.0</ele><time>2026-04-25T09:40:23.999Z</time></trkpt><trkpt lat="44.81572338167834" lon="5.74434488577094"><ele>754.0</ele><time>2026-04-25T09:40:24.999Z</time></trkpt><trkpt lat="44.81583787813311" lon="5.744408969778359"><ele>754.0</ele><time>2026-04-25T09:40:25.999Z</time></trkpt><trkpt lat="44.8159529930663" lon="5.744470136722743"><ele>754.0</ele><time>2026-04-25T09:40:26.999Z</time></trkpt><trkpt lat="44.81606717428406" lon="5.744528448914397"><ele>755.25</ele><time>2026-04-25T09:40:27.999Z</time></trkpt><trkpt lat="44.81616207829181" lon="5.74462994703471"><ele>756.5</ele><time>2026-04-25T09:40:28.999Z</time></trkpt><trkpt lat="44.816247041902486" lon="5.744741428435998"><ele>757.75</ele><time>2026-04-25T09:40:29.999Z</time></trkpt><trkpt lat="44.81630484677866" lon="5.74487481785341"><ele>759.0</ele><time>2026-04-25T09:40:30.999Z</time></trkpt><trkpt lat="44.816348967095706" lon="5.7450229749606905"><ele>759.0</ele><time>2026-04-25T09:40:31.999Z</time></trkpt><trkpt lat="44.81637508704345" lon="5.745186983493306"><ele>759.0</ele><time>2026-04-25T09:40:32.999Z</time></trkpt><trkpt lat="44.81638795426591" lon="5.745354459755875"><ele>759.0</ele><time>2026-04-25T09:40:33.999Z</time></trkpt><trkpt lat="44.81640314260996" lon="5.74552948479321"><ele>759.0</ele><time>2026-04-25T09:40:34.999Z</time></trkpt><trkpt lat="44.8164181110559" lon="5.745707172382226"><ele>759.6</ele><time>2026-04-25T09:40:35.999Z</time></trkpt><trkpt lat="44.8164339326056" lon="5.745885165876633"><ele>760.2</ele><time>2026-04-25T09:40:36.999Z</time></trkpt><trkpt lat="44.81644873417556" lon="5.746043699010012"><ele>760.8000000000001</ele><time>2026-04-25T09:40:37.999Z</time></trkpt><trkpt lat="44.8164611964085" lon="5.746182822866999"><ele>761.4000000000001</ele><time>2026-04-25T09:40:38.999Z</time></trkpt><trkpt lat="44.81647059071078" lon="5.74628624717296"><ele>762.0</ele><time>2026-04-25T09:40:39.999Z</time></trkpt><trkpt lat="44.81648381598309" lon="5.7463829482979625"><ele>762.5</ele><time>2026-04-25T09:40:41.999Z</time></trkpt><trkpt lat="44.81649383927341" lon="5.746542198011588"><ele>763.0</ele><time>2026-04-25T09:40:53.999Z</time></trkpt><trkpt lat="44.816507292578606" lon="5.746690077053558"><ele>763.5</ele><time>2026-04-25T09:40:54.999Z</time></trkpt><trkpt lat="44.81652183474939" lon="5.746851056126222"><ele>764.0</ele><time>2026-04-25T09:40:55.999Z</time></trkpt><trkpt lat="44.8165504680192" lon="5.747009524693957"><ele>764.8000000000001</ele><time>2026-04-25T09:40:56.999Z</time></trkpt><trkpt lat="44.81654731987829" lon="5.747182614492724"><ele>765.6</ele><time>2026-04-25T09:40:57.999Z</time></trkpt><trkpt lat="44.81657715640863" lon="5.747323049137768"><ele>766.4</ele><time>2026-04-25T09:40:58.999Z</time></trkpt><trkpt lat="44.81658560851881" lon="5.747445835398529"><ele>767.2</ele><time>2026-04-25T09:40:59.999Z</time></trkpt><trkpt lat="44.81662015873955" lon="5.747557712226778"><ele>768.0</ele><time>2026-04-25T09:41:00.999Z</time></trkpt><trkpt lat="44.816666271464904" lon="5.7476604908047495"><ele>768.2</ele><time>2026-04-25T09:41:01.999Z</time></trkpt><trkpt lat="44.816700608242755" lon="5.747764315107508"><ele>768.4</ele><time>2026-04-25T09:41:02.999Z</time></trkpt><trkpt lat="44.81669580961664" lon="5.747919740319357"><ele>768.6</ele><time>2026-04-25T09:41:04.999Z</time></trkpt><trkpt lat="44.81668909453303" lon="5.748094689529801"><ele>768.8000000000001</ele><time>2026-04-25T09:41:06.999Z</time></trkpt><trkpt lat="44.81669830428297" lon="5.748265354775389"><ele>769.0</ele><time>2026-04-25T09:41:08.998Z</time></trkpt><trkpt lat="44.8167003861406" lon="5.748368415335834"><ele>769.0</ele><time>2026-04-25T09:41:09.998Z</time></trkpt><trkpt lat="44.81670146625964" lon="5.748493384119367"><ele>769.0</ele><time>2026-04-25T09:41:10.998Z</time></trkpt><trkpt lat="44.81670434505333" lon="5.7486260960431865"><ele>769.0</ele><time>2026-04-25T09:41:11.998Z</time></trkpt><trkpt lat="44.81670374277098" lon="5.748766076430357"><ele>769.0</ele><time>2026-04-25T09:41:12.998Z</time></trkpt><trkpt lat="44.816710775563045" lon="5.748907790747222"><ele>769.0</ele><time>2026-04-25T09:41:13.998Z</time></trkpt><trkpt lat="44.81671452044333" lon="5.7490686845814425"><ele>770.0</ele><time>2026-04-25T09:41:14.998Z</time></trkpt><trkpt lat="44.81673329241872" lon="5.749230596473894"><ele>771.0</ele><time>2026-04-25T09:41:15.998Z</time></trkpt><trkpt lat="44.81675383074071" lon="5.749390959753659"><ele>772.0</ele><time>2026-04-25T09:41:16.998Z</time></trkpt><trkpt lat="44.81677564270706" lon="5.749542400365281"><ele>773.0</ele><time>2026-04-25T09:41:17.998Z</time></trkpt><trkpt lat="44.816780231888664" lon="5.749702171099111"><ele>773.3333333333334</ele><time>2026-04-25T09:41:18.998Z</time></trkpt><trkpt lat="44.81679750353647" lon="5.7498489091710265"><ele>773.6666666666667</ele><time>2026-04-25T09:41:19.998Z</time></trkpt><trkpt lat="44.816820015830004" lon="5.749981664808801"><ele>774.0</ele><time>2026-04-25T09:41:20.998Z</time></trkpt><trkpt lat="44.816832753908734" lon="5.750112962426293"><ele>774.3333333333333</ele><time>2026-04-25T09:41:21.998Z</time></trkpt><trkpt lat="44.81683688657782" lon="5.750227505339945"><ele>774.6666666666666</ele><time>2026-04-25T09:41:22.998Z</time></trkpt><trkpt lat="44.81684976434818" lon="5.750316999389916"><ele>775.0</ele><time>2026-04-25T09:41:23.998Z</time></trkpt><trkpt lat="44.816880734566276" lon="5.7504316676057945"><ele>775.7142857142857</ele><time>2026-04-25T09:41:25.998Z</time></trkpt><trkpt lat="44.81692682790332" lon="5.750522135980764"><ele>776.4285714285714</ele><time>2026-04-25T09:41:27.998Z</time></trkpt><trkpt lat="44.81696409064163" lon="5.750618179110347"><ele>777.1428571428571</ele><time>2026-04-25T09:41:29.998Z</time></trkpt><trkpt lat="44.816988214298874" lon="5.7507229485138165"><ele>777.8571428571429</ele><time>2026-04-25T09:41:31.998Z</time></trkpt><trkpt lat="44.817000014114974" lon="5.750811764487011"><ele>778.5714285714286</ele><time>2026-04-25T09:41:33.998Z</time></trkpt><trkpt lat="44.81701691164774" lon="5.7509157295892575"><ele>779.2857142857142</ele><time>2026-04-25T09:41:37Z</time></trkpt><trkpt lat="44.81703861521719" lon="5.751011388840598"><ele>780.0</ele><time>2026-04-25T09:41:40Z</time></trkpt><trkpt lat="44.8170737245571" lon="5.751161039747081"><ele>780.3333333333334</ele><time>2026-04-25T09:41:44Z</time></trkpt><trkpt lat="44.81708931188719" lon="5.751293276165319"><ele>780.6666666666667</ele><time>2026-04-25T09:41:46Z</time></trkpt><trkpt lat="44.81711251586845" lon="5.751419711447662"><ele>781.0</ele><time>2026-04-25T09:41:48Z</time></trkpt><trkpt lat="44.81712845348325" lon="5.751506553564791"><ele>781.3333333333334</ele><time>2026-04-25T09:41:50Z</time></trkpt><trkpt lat="44.817180475513766" lon="5.751621682411137"><ele>781.6666666666667</ele><time>2026-04-25T09:51:48.998Z</time></trkpt><trkpt lat="44.81724470636262" lon="5.75171637148913"><ele>782.0</ele><time>2026-04-25T09:51:50.998Z</time></trkpt><trkpt lat="44.81731055165971" lon="5.751777584766318"><ele>782.0</ele><time>2026-04-25T09:51:52.998Z</time></trkpt><trkpt lat="44.81737641518502" lon="5.751842235103277"><ele>782.0</ele><time>2026-04-25T09:51:54.998Z</time></trkpt><trkpt lat="44.81745130555052" lon="5.7519064386141"><ele>782.0</ele><time>2026-04-25T09:51:56.998Z</time></trkpt><trkpt lat="44.81753618139159" lon="5.751986139947244"><ele>782.0</ele><time>2026-04-25T09:51:58.998Z</time></trkpt><trkpt lat="44.817611513620704" lon="5.75206189654121"><ele>782.0</ele><time>2026-04-25T09:52:00.998Z</time></trkpt><trkpt lat="44.817691262757855" lon="5.752131170051517"><ele>782.4000000000001</ele><time>2026-04-25T09:52:02.998Z</time></trkpt><trkpt lat="44.81777620293953" lon="5.752176248023036"><ele>782.8000000000001</ele><time>2026-04-25T09:52:04.998Z</time></trkpt><trkpt lat="44.817875813840104" lon="5.752221035864908"><ele>783.2</ele><time>2026-04-25T09:52:07Z</time></trkpt><trkpt lat="44.817982959094145" lon="5.752244092827996"><ele>783.6</ele><time>2026-04-25T09:52:09Z</time></trkpt><trkpt lat="44.818067741073705" lon="5.7522548149780794"><ele>784.0</ele><time>2026-04-25T09:52:11Z</time></trkpt><trkpt lat="44.818137691988184" lon="5.752271268168533"><ele>783.9999999999999</ele><time>2026-04-25T09:52:13Z</time></trkpt><trkpt lat="44.81822096987531" lon="5.752280155483748"><ele>784.0</ele><time>2026-04-25T09:52:15Z</time></trkpt><trkpt lat="44.818325821598464" lon="5.752297688465797"><ele>784.0</ele><time>2026-04-25T09:52:17Z</time></trkpt><trkpt lat="44.81843230781998" lon="5.752292912776181"><ele>784.0</ele><time>2026-04-25T09:52:19Z</time></trkpt><trkpt lat="44.81849797487196" lon="5.752298325093953"><ele>783.9999999999999</ele><time>2026-04-25T09:52:20Z</time></trkpt><trkpt lat="44.81857409220725" lon="5.752297910209589"><ele>784.0</ele><time>2026-04-25T09:52:21Z</time></trkpt><trkpt lat="44.8186587506207" lon="5.752303264496115"><ele>783.6</ele><time>2026-04-25T09:52:22Z</time></trkpt><trkpt lat="44.81875075876438" lon="5.752313254018074"><ele>783.2</ele><time>2026-04-25T09:52:23Z</time></trkpt><trkpt lat="44.818849568332205" lon="5.75232851062878"><ele>782.8000000000001</ele><time>2026-04-25T09:52:24Z</time></trkpt><trkpt lat="44.81894800086175" lon="5.752339389464934"><ele>782.4000000000001</ele><time>2026-04-25T09:52:25Z</time></trkpt><trkpt lat="44.81905353912352" lon="5.752376814206937"><ele>782.0</ele><time>2026-04-25T09:52:26Z</time></trkpt><trkpt lat="44.81916956822324" lon="5.7523997002794145"><ele>782.0</ele><time>2026-04-25T09:52:27Z</time></trkpt><trkpt lat="44.819295397205956" lon="5.7524244655125925"><ele>782.0</ele><time>2026-04-25T09:52:28Z</time></trkpt><trkpt lat="44.81942578794151" lon="5.752444634504237"><ele>782.0</ele><time>2026-04-25T09:52:29Z</time></trkpt><trkpt lat="44.81957327477675" lon="5.752473099081927"><ele>782.0</ele><time>2026-04-25T09:52:30Z</time></trkpt><trkpt lat="44.819741722842316" lon="5.752511032335608"><ele>781.6</ele><time>2026-04-25T09:52:31Z</time></trkpt><trkpt lat="44.81982056396114" lon="5.752516786121699"><ele>781.2</ele><time>2026-04-25T09:52:33Z</time></trkpt><trkpt lat="44.81993679032442" lon="5.7525474987435326"><ele>780.8</ele><time>2026-04-25T09:52:34Z</time></trkpt><trkpt lat="44.82005612571446" lon="5.752577169952062"><ele>780.4</ele><time>2026-04-25T09:52:35Z</time></trkpt><trkpt lat="44.82018158699077" lon="5.752607943094844"><ele>780.0</ele><time>2026-04-25T09:52:36Z</time></trkpt><trkpt lat="44.82030826834908" lon="5.752655197684701"><ele>778.0</ele><time>2026-04-25T09:52:37Z</time></trkpt><trkpt lat="44.820442001800906" lon="5.752704743487875"><ele>776.0</ele><time>2026-04-25T09:52:38Z</time></trkpt><trkpt lat="44.82058759503501" lon="5.752737762520851"><ele>774.0</ele><time>2026-04-25T09:52:39Z</time></trkpt><trkpt lat="44.82073725753714" lon="5.752768553828052"><ele>772.0</ele><time>2026-04-25T09:52:40Z</time></trkpt><trkpt lat="44.820886340622245" lon="5.752789261671621"><ele>772.75</ele><time>2026-04-25T09:52:41Z</time></trkpt><trkpt lat="44.821025450181395" lon="5.752782630395023"><ele>773.5</ele><time>2026-04-25T09:52:42Z</time></trkpt><trkpt lat="44.82114587753666" lon="5.75273967846981"><ele>774.25</ele><time>2026-04-25T09:52:43Z</time></trkpt><trkpt lat="44.8212406185003" lon="5.752643194618518"><ele>775.0</ele><time>2026-04-25T09:52:44Z</time></trkpt><trkpt lat="44.82130499283855" lon="5.752499303311204"><ele>776.0</ele><time>2026-04-25T09:52:45Z</time></trkpt><trkpt lat="44.82132508962489" lon="5.752323631435834"><ele>777.0</ele><time>2026-04-25T09:52:46Z</time></trkpt><trkpt lat="44.821310224808244" lon="5.752127862735893"><ele>778.0</ele><time>2026-04-25T09:52:46.999Z</time></trkpt><trkpt lat="44.82127304361705" lon="5.751917243070483"><ele>779.0</ele><time>2026-04-25T09:52:47.999Z</time></trkpt><trkpt lat="44.821231524554605" lon="5.751705558053019"><ele>781.3333333333334</ele><time>2026-04-25T09:52:48.999Z</time></trkpt><trkpt lat="44.821192917190366" lon="5.75149284328993"><ele>783.6666666666667</ele><time>2026-04-25T09:52:49.999Z</time></trkpt><trkpt lat="44.821156512828836" lon="5.7512753243192565"><ele>786.0</ele><time>2026-04-25T09:52:50.999Z</time></trkpt><trkpt lat="44.821121252450915" lon="5.751058243149608"><ele>786.6666666666667</ele><time>2026-04-25T09:52:51.999Z</time></trkpt><trkpt lat="44.821076490429675" lon="5.750832065230019"><ele>787.3333333333334</ele><time>2026-04-25T09:52:52.999Z</time></trkpt><trkpt lat="44.82099825595849" lon="5.750557258772053"><ele>788.0</ele><time>2026-04-25T09:52:53.999Z</time></trkpt><trkpt lat="44.820956765970706" lon="5.750287051904651"><ele>783.6666666666667</ele><time>2026-04-25T09:52:54.999Z</time></trkpt><trkpt lat="44.82093354615792" lon="5.750006946301525"><ele>779.3333333333333</ele><time>2026-04-25T09:52:55.999Z</time></trkpt><trkpt lat="44.82092562190402" lon="5.749722431816721"><ele>775.0</ele><time>2026-04-25T09:52:56.999Z</time></trkpt><trkpt lat="44.82094098447151" lon="5.749451090492343"><ele>775.0</ele><time>2026-04-25T09:52:57.999Z</time></trkpt><trkpt lat="44.82097586081579" lon="5.749200015847428"><ele>775.0</ele><time>2026-04-25T09:52:58.999Z</time></trkpt><trkpt lat="44.821048330146" lon="5.748963573046311"><ele>775.0</ele><time>2026-04-25T09:52:59.999Z</time></trkpt><trkpt lat="44.82113710991137" lon="5.748744196192489"><ele>779.3333333333333</ele><time>2026-04-25T09:53:00.999Z</time></trkpt><trkpt lat="44.821240698727486" lon="5.748540366325791"><ele>783.6666666666667</ele><time>2026-04-25T09:53:01.999Z</time></trkpt><trkpt lat="44.82139306123878" lon="5.748378461462995"><ele>788.0</ele><time>2026-04-25T09:53:02.999Z</time></trkpt><trkpt lat="44.82156733191066" lon="5.748220938152477"><ele>788.0</ele><time>2026-04-25T09:53:03.999Z</time></trkpt><trkpt lat="44.821758022497086" lon="5.748059009117956"><ele>788.0</ele><time>2026-04-25T09:53:04.999Z</time></trkpt><trkpt lat="44.82196641640372" lon="5.74792270791746"><ele>786.6666666666667</ele><time>2026-04-25T09:53:05.999Z</time></trkpt><trkpt lat="44.82215152538811" lon="5.747791855334392"><ele>785.3333333333333</ele><time>2026-04-25T09:53:06.999Z</time></trkpt><trkpt lat="44.82233812931818" lon="5.747715883435471"><ele>784.0</ele><time>2026-04-25T09:53:07.999Z</time></trkpt><trkpt lat="44.822526982422936" lon="5.747669042359115"><ele>783.6666666666666</ele><time>2026-04-25T09:53:08.999Z</time></trkpt><trkpt lat="44.8227343981032" lon="5.747661333564007"><ele>783.3333333333333</ele><time>2026-04-25T09:53:09.999Z</time></trkpt><trkpt lat="44.82294408969558" lon="5.747709211828132"><ele>783.0</ele><time>2026-04-25T09:53:10.999Z</time></trkpt><trkpt lat="44.823166848597744" lon="5.747801205705219"><ele>790.5</ele><time>2026-04-25T09:53:11.999Z</time></trkpt><trkpt lat="44.82341336372193" lon="5.747908320753026"><ele>798.0</ele><time>2026-04-25T09:53:12.999Z</time></trkpt><trkpt lat="44.82366933893884" lon="5.748010330834671"><ele>798.0</ele><time>2026-04-25T09:53:13.999Z</time></trkpt><trkpt lat="44.82392658318546" lon="5.748126314284226"><ele>798.0</ele><time>2026-04-25T09:53:14.999Z</time></trkpt><trkpt lat="44.82417902991936" lon="5.748238662014152"><ele>797.5</ele><time>2026-04-25T09:53:15.999Z</time></trkpt><trkpt lat="44.82442867712758" lon="5.748349453300736"><ele>797.0</ele><time>2026-04-25T09:53:16.999Z</time></trkpt><trkpt lat="44.824674212671695" lon="5.748447861808026"><ele>797.0</ele><time>2026-04-25T09:53:17.999Z</time></trkpt><trkpt lat="44.82492688994941" lon="5.748530024955809"><ele>797.0</ele><time>2026-04-25T09:53:18.999Z</time></trkpt><trkpt lat="44.825165047866165" lon="5.748581601599809"><ele>801.0</ele><time>2026-04-25T09:53:19.999Z</time></trkpt><trkpt lat="44.825377214028755" lon="5.748624243656112"><ele>805.0</ele><time>2026-04-25T09:53:20.999Z</time></trkpt><trkpt lat="44.825570632687544" lon="5.7486612164794675"><ele>809.0</ele><time>2026-04-25T09:53:21.999Z</time></trkpt><trkpt lat="44.82575215492218" lon="5.74872543357036"><ele>809.0</ele><time>2026-04-25T09:53:22.999Z</time></trkpt><trkpt lat="44.82593382910384" lon="5.748802089811633"><ele>809.0</ele><time>2026-04-25T09:53:23.999Z</time></trkpt><trkpt lat="44.82608914012528" lon="5.748931783132307"><ele>809.0</ele><time>2026-04-25T09:53:24.999Z</time></trkpt><trkpt lat="44.82624103132415" lon="5.74914182017121"><ele>812.0</ele><time>2026-04-25T09:53:25.999Z</time></trkpt><trkpt lat="44.82639921678024" lon="5.749387926651324"><ele>815.0</ele><time>2026-04-25T09:53:26.999Z</time></trkpt><trkpt lat="44.82656633348719" lon="5.749616833399489"><ele>815.0</ele><time>2026-04-25T09:53:27.999Z</time></trkpt><trkpt lat="44.8267559114064" lon="5.749800133918977"><ele>815.0</ele><time>2026-04-25T09:53:28.999Z</time></trkpt><trkpt lat="44.826962791578076" lon="5.749925370714932"><ele>815.6666666666667</ele><time>2026-04-25T09:53:29.999Z</time></trkpt><trkpt lat="44.82716546873557" lon="5.750022866212156"><ele>816.3333333333333</ele><time>2026-04-25T09:53:30.999Z</time></trkpt><trkpt lat="44.82733418153669" lon="5.750177210057855"><ele>817.0</ele><time>2026-04-25T09:53:31.999Z</time></trkpt><trkpt lat="44.82747143339746" lon="5.750380695085394"><ele>817.0</ele><time>2026-04-25T09:53:32.999Z</time></trkpt><trkpt lat="44.82757275321611" lon="5.750629942333317"><ele>817.0</ele><time>2026-04-25T09:53:33.999Z</time></trkpt><trkpt lat="44.82764598694481" lon="5.750935467416224"><ele>817.0</ele><time>2026-04-25T09:53:34.999Z</time></trkpt><trkpt lat="44.827662446624494" lon="5.751225962085506"><ele>816.3333333333333</ele><time>2026-04-25T09:53:35.999Z</time></trkpt><trkpt lat="44.82769759193819" lon="5.751488866409069"><ele>815.6666666666667</ele><time>2026-04-25T09:53:36.999Z</time></trkpt><trkpt lat="44.82773007123172" lon="5.751710848274065"><ele>815.0</ele><time>2026-04-25T09:53:37.999Z</time></trkpt><trkpt lat="44.82781155349133" lon="5.751907205079312"><ele>818.6666666666667</ele><time>2026-04-25T09:53:38.999Z</time></trkpt><trkpt lat="44.82795118003917" lon="5.752080004214073"><ele>822.3333333333333</ele><time>2026-04-25T09:53:39.999Z</time></trkpt><trkpt lat="44.828134494968054" lon="5.7521898361557895"><ele>826.0</ele><time>2026-04-25T09:53:40.999Z</time></trkpt><trkpt lat="44.82834423241342" lon="5.752257706767549"><ele>827.0</ele><time>2026-04-25T09:53:41.999Z</time></trkpt><trkpt lat="44.82856379586396" lon="5.752303005827323"><ele>828.0</ele><time>2026-04-25T09:53:42.999Z</time></trkpt><trkpt lat="44.82877825480778" lon="5.752362658684775"><ele>829.0</ele><time>2026-04-25T09:53:43.998Z</time></trkpt><trkpt lat="44.82896870130416" lon="5.752422546756905"><ele>829.0</ele><time>2026-04-25T09:53:44.998Z</time></trkpt><trkpt lat="44.82915167965417" lon="5.7524387708221445"><ele>829.0</ele><time>2026-04-25T09:53:45.998Z</time></trkpt><trkpt lat="44.8293398394299" lon="5.752357710735688"><ele>829.0</ele><time>2026-04-25T09:53:46.998Z</time></trkpt><trkpt lat="44.82952645468316" lon="5.7522065957582855"><ele>830.0</ele><time>2026-04-25T09:53:47.998Z</time></trkpt><trkpt lat="44.829683551839956" lon="5.752016717466113"><ele>831.0</ele><time>2026-04-25T09:53:48.998Z</time></trkpt><trkpt lat="44.829813241905875" lon="5.751761446777147"><ele>832.0</ele><time>2026-04-25T09:53:49.998Z</time></trkpt><trkpt lat="44.829940861722605" lon="5.751511887216589"><ele>832.0</ele><time>2026-04-25T09:53:50.998Z</time></trkpt><trkpt lat="44.8301156174231" lon="5.751345757206186"><ele>832.0</ele><time>2026-04-25T09:53:51.998Z</time></trkpt><trkpt lat="44.83030514603669" lon="5.751216057213576"><ele>832.0</ele><time>2026-04-25T09:53:52.998Z</time></trkpt><trkpt lat="44.83050643521147" lon="5.751136393070162"><ele>835.3333333333333</ele><time>2026-04-25T09:53:53.998Z</time></trkpt><trkpt lat="44.8307302126193" lon="5.751111303296136"><ele>838.6666666666667</ele><time>2026-04-25T09:53:54.998Z</time></trkpt><trkpt lat="44.830952641102606" lon="5.751153151261844"><ele>842.0</ele><time>2026-04-25T09:53:55.998Z</time></trkpt><trkpt lat="44.831154100802046" lon="5.75124016147018"><ele>842.3333333333334</ele><time>2026-04-25T09:53:56.998Z</time></trkpt><trkpt lat="44.83133018890992" lon="5.751371136763805"><ele>842.6666666666667</ele><time>2026-04-25T09:53:57.998Z</time></trkpt><trkpt lat="44.83150857083613" lon="5.751547172984257"><ele>843.0</ele><time>2026-04-25T09:53:58.998Z</time></trkpt><trkpt lat="44.83169705585261" lon="5.751711721901793"><ele>846.3333333333333</ele><time>2026-04-25T09:53:59.998Z</time></trkpt><trkpt lat="44.83185769879234" lon="5.751884540303601"><ele>849.6666666666666</ele><time>2026-04-25T09:54:00.998Z</time></trkpt><trkpt lat="44.83201380503132" lon="5.752011318031461"><ele>853.0</ele><time>2026-04-25T09:54:01.998Z</time></trkpt><trkpt lat="44.832187465948444" lon="5.75206490814808"><ele>853.0</ele><time>2026-04-25T09:54:02.998Z</time></trkpt><trkpt lat="44.83235377986569" lon="5.7520186185712525"><ele>853.0</ele><time>2026-04-25T09:54:03.998Z</time></trkpt><trkpt lat="44.8325142443169" lon="5.751902434224879"><ele>853.0</ele><time>2026-04-25T09:54:04.998Z</time></trkpt><trkpt lat="44.83265344345651" lon="5.751714156931752"><ele>854.6666666666666</ele><time>2026-04-25T09:54:05.998Z</time></trkpt><trkpt lat="44.832826841080106" lon="5.751544663616368"><ele>856.3333333333333</ele><time>2026-04-25T09:54:06.998Z</time></trkpt><trkpt lat="44.832985634468145" lon="5.751388771279704"><ele>858.0</ele><time>2026-04-25T09:54:07.998Z</time></trkpt><trkpt lat="44.83303724185858" lon="5.7510795405418955"><ele>857.3333333333333</ele><time>2026-04-25T09:54:08.998Z</time></trkpt><trkpt lat="44.833097379009146" lon="5.750846814998568"><ele>856.6666666666666</ele><time>2026-04-25T09:54:09.998Z</time></trkpt><trkpt lat="44.83310304449668" lon="5.750589742181409"><ele>856.0</ele><time>2026-04-25T09:54:10.998Z</time></trkpt><trkpt lat="44.83305033893253" lon="5.750301833774325"><ele>856.6666666666666</ele><time>2026-04-25T09:54:12Z</time></trkpt><trkpt lat="44.83299311215758" lon="5.749997112951925"><ele>857.3333333333333</ele><time>2026-04-25T09:54:13Z</time></trkpt><trkpt lat="44.832938602756705" lon="5.74968917677573"><ele>858.0</ele><time>2026-04-25T09:54:14Z</time></trkpt><trkpt lat="44.83289480284515" lon="5.749407376156099"><ele>858.6666666666667</ele><time>2026-04-25T09:54:15Z</time></trkpt><trkpt lat="44.832878750484745" lon="5.749113638879472"><ele>859.3333333333334</ele><time>2026-04-25T09:54:16Z</time></trkpt><trkpt lat="44.8329030422584" lon="5.748798370124276"><ele>860.0</ele><time>2026-04-25T09:54:17Z</time></trkpt><trkpt lat="44.83297146045867" lon="5.748479756102366"><ele>860.0</ele><time>2026-04-25T09:54:18Z</time></trkpt><trkpt lat="44.833073786288885" lon="5.748185532401726"><ele>860.0</ele><time>2026-04-25T09:54:19Z</time></trkpt><trkpt lat="44.833190045769044" lon="5.7479082905102254"><ele>859.6666666666667</ele><time>2026-04-25T09:54:20Z</time></trkpt><trkpt lat="44.83330960691735" lon="5.747649357211383"><ele>859.3333333333333</ele><time>2026-04-25T09:54:21Z</time></trkpt><trkpt lat="44.83343155744952" lon="5.74740653191906"><ele>859.0</ele><time>2026-04-25T09:54:22Z</time></trkpt><trkpt lat="44.83351954289132" lon="5.747142307075667"><ele>862.3333333333333</ele><time>2026-04-25T09:54:23Z</time></trkpt><trkpt lat="44.83357154128032" lon="5.74685640530345"><ele>865.6666666666667</ele><time>2026-04-25T09:54:24Z</time></trkpt><trkpt lat="44.83360481706619" lon="5.746558548258884"><ele>869.0</ele><time>2026-04-25T09:54:25Z</time></trkpt><trkpt lat="44.83361764816182" lon="5.746252662648679"><ele>869.6666666666667</ele><time>2026-04-25T09:54:26Z</time></trkpt><trkpt lat="44.833609299616235" lon="5.745950617929657"><ele>870.3333333333333</ele><time>2026-04-25T09:54:27Z</time></trkpt><trkpt lat="44.8335964548138" lon="5.74565390351556"><ele>871.0</ele><time>2026-04-25T09:54:28Z</time></trkpt><trkpt lat="44.833624653315816" lon="5.745362612791863"><ele>870.6666666666666</ele><time>2026-04-25T09:54:29Z</time></trkpt><trkpt lat="44.833704737733704" lon="5.745076823151823"><ele>870.3333333333333</ele><time>2026-04-25T09:54:30Z</time></trkpt><trkpt lat="44.83381932553097" lon="5.744801198664102"><ele>870.0</ele><time>2026-04-25T09:54:31Z</time></trkpt><trkpt lat="44.83398025865409" lon="5.744532146456362"><ele>870.5</ele><time>2026-04-25T09:54:32Z</time></trkpt><trkpt lat="44.83415875561715" lon="5.744291730646694"><ele>871.0</ele><time>2026-04-25T09:54:33Z</time></trkpt><trkpt lat="44.83433313379119" lon="5.744042337190501"><ele>875.5</ele><time>2026-04-25T09:54:34Z</time></trkpt><trkpt lat="44.834454131939154" lon="5.743764684630258"><ele>880.0</ele><time>2026-04-25T09:54:35Z</time></trkpt><trkpt lat="44.83451701726523" lon="5.743444680346465"><ele>880.5</ele><time>2026-04-25T09:54:36Z</time></trkpt><trkpt lat="44.83454081108786" lon="5.743102607685047"><ele>881.0</ele><time>2026-04-25T09:54:37Z</time></trkpt><trkpt lat="44.83453716802243" lon="5.742780830686048"><ele>881.6666666666667</ele><time>2026-04-25T09:54:38Z</time></trkpt><trkpt lat="44.83452254342179" lon="5.742465418536917"><ele>882.3333333333333</ele><time>2026-04-25T09:54:39Z</time></trkpt><trkpt lat="44.83454209621257" lon="5.7421719577586545"><ele>883.0</ele><time>2026-04-25T09:54:40Z</time></trkpt><trkpt lat="44.834614648636666" lon="5.741871152991422"><ele>883.0</ele><time>2026-04-25T09:54:41Z</time></trkpt><trkpt lat="44.8347272584799" lon="5.741589622970686"><ele>883.0</ele><time>2026-04-25T09:54:42Z</time></trkpt><trkpt lat="44.83486521691522" lon="5.741306256208098"><ele>883.0</ele><time>2026-04-25T09:54:43Z</time></trkpt><trkpt lat="44.83498591082306" lon="5.7410308309369125"><ele>883.0</ele><time>2026-04-25T09:54:44Z</time></trkpt><trkpt lat="44.835108959104176" lon="5.740759963444038"><ele>885.5</ele><time>2026-04-25T09:54:45Z</time></trkpt><trkpt lat="44.835232161126584" lon="5.74047351192132"><ele>888.0</ele><time>2026-04-25T09:54:46Z</time></trkpt><trkpt lat="44.83534558458282" lon="5.740186250035522"><ele>888.0</ele><time>2026-04-25T09:54:47Z</time></trkpt><trkpt lat="44.83543345692137" lon="5.739878747451746"><ele>888.0</ele><time>2026-04-25T09:54:48Z</time></trkpt><trkpt lat="44.835495011817535" lon="5.7395338264602165"><ele>889.5</ele><time>2026-04-25T09:54:49Z</time></trkpt><trkpt lat="44.83554684470655" lon="5.739179669622229"><ele>891.0</ele><time>2026-04-25T09:54:49.999Z</time></trkpt><trkpt lat="44.83560274114259" lon="5.738843838901289"><ele>891.6666666666667</ele><time>2026-04-25T09:54:50.999Z</time></trkpt><trkpt lat="44.835654075714956" lon="5.738534510063402"><ele>892.3333333333334</ele><time>2026-04-25T09:54:51.999Z</time></trkpt><trkpt lat="44.83570309735438" lon="5.738257399536737"><ele>893.0</ele><time>2026-04-25T09:54:52.999Z</time></trkpt><trkpt lat="44.83575114553248" lon="5.738024461623255"><ele>893.0</ele><time>2026-04-25T09:54:53.999Z</time></trkpt><trkpt lat="44.83581679241238" lon="5.737816232047088"><ele>893.0</ele><time>2026-04-25T09:54:54.999Z</time></trkpt><trkpt lat="44.835912619479025" lon="5.737636552869658"><ele>893.0</ele><time>2026-04-25T09:54:55.999Z</time></trkpt><trkpt lat="44.83604432552709" lon="5.737497927545325"><ele>892.6666666666667</ele><time>2026-04-25T09:54:56.999Z</time></trkpt><trkpt lat="44.836201417159" lon="5.7373991153444"><ele>892.3333333333333</ele><time>2026-04-25T09:54:57.999Z</time></trkpt><trkpt lat="44.83637513647442" lon="5.737364360609888"><ele>892.0</ele><time>2026-04-25T09:54:58.999Z</time></trkpt><trkpt lat="44.836564029473166" lon="5.7374007761816435"><ele>892.0</ele><time>2026-04-25T09:54:59.999Z</time></trkpt><trkpt lat="44.83675435380793" lon="5.73750436129343"><ele>892.0</ele><time>2026-04-25T09:55:00.999Z</time></trkpt><trkpt lat="44.83692857675301" lon="5.7376443078653"><ele>892.0</ele><time>2026-04-25T09:55:01.999Z</time></trkpt><trkpt lat="44.83710741973917" lon="5.737779964924508"><ele>893.0</ele><time>2026-04-25T09:55:02.999Z</time></trkpt><trkpt lat="44.837292350501514" lon="5.737902383955506"><ele>894.0</ele><time>2026-04-25T09:55:03.999Z</time></trkpt><trkpt lat="44.83749973295854" lon="5.737977106927467"><ele>895.0</ele><time>2026-04-25T09:55:04.999Z</time></trkpt><trkpt lat="44.837709078343416" lon="5.738002081967875"><ele>895.0</ele><time>2026-04-25T09:55:05.999Z</time></trkpt><trkpt lat="44.83793713693601" lon="5.738027279305444"><ele>895.0</ele><time>2026-04-25T09:55:06.999Z</time></trkpt><trkpt lat="44.838157762402226" lon="5.7380714677743425"><ele>895.0</ele><time>2026-04-25T09:55:07.999Z</time></trkpt><trkpt lat="44.8383630175326" lon="5.7381155141048215"><ele>895.0</ele><time>2026-04-25T09:55:08.999Z</time></trkpt><trkpt lat="44.83855700667532" lon="5.738222913199472"><ele>895.0</ele><time>2026-04-25T09:55:09.999Z</time></trkpt><trkpt lat="44.838735334557285" lon="5.7383710400438686"><ele>892.3333333333333</ele><time>2026-04-25T09:55:10.999Z</time></trkpt><trkpt lat="44.83891832076465" lon="5.7385057547308085"><ele>889.6666666666667</ele><time>2026-04-25T09:55:11.999Z</time></trkpt><trkpt lat="44.839119015875596" lon="5.738623400080996"><ele>887.0</ele><time>2026-04-25T09:55:12.999Z</time></trkpt><trkpt lat="44.83932317228104" lon="5.738732992287236"><ele>887.0</ele><time>2026-04-25T09:55:13.999Z</time></trkpt><trkpt lat="44.83950324656131" lon="5.738814686722262"><ele>887.0</ele><time>2026-04-25T09:55:14.999Z</time></trkpt><trkpt lat="44.83965260961372" lon="5.73897564346684"><ele>887.0</ele><time>2026-04-25T09:55:15.999Z</time></trkpt><trkpt lat="44.83980790802114" lon="5.739177640818287"><ele>884.6666666666667</ele><time>2026-04-25T09:55:16.999Z</time></trkpt><trkpt lat="44.839970234117196" lon="5.73939664617093"><ele>882.3333333333333</ele><time>2026-04-25T09:55:17.999Z</time></trkpt><trkpt lat="44.84010867168312" lon="5.739624086260417"><ele>880.0</ele><time>2026-04-25T09:55:18.999Z</time></trkpt><trkpt lat="44.840221043682014" lon="5.739829925306522"><ele>880.0</ele><time>2026-04-25T09:55:19.999Z</time></trkpt><trkpt lat="44.84032920586696" lon="5.740024720974476"><ele>880.0</ele><time>2026-04-25T09:55:20.999Z</time></trkpt><trkpt lat="44.84047980416344" lon="5.740155795746408"><ele>880.0</ele><time>2026-04-25T09:55:21.999Z</time></trkpt><trkpt lat="44.84069297936674" lon="5.740245699782089"><ele>880.0</ele><time>2026-04-25T09:55:22.999Z</time></trkpt><trkpt lat="44.84091375967974" lon="5.740306845720352"><ele>880.0</ele><time>2026-04-25T09:55:23.999Z</time></trkpt><trkpt lat="44.841114623677385" lon="5.740393878367739"><ele>880.0</ele><time>2026-04-25T09:55:24.999Z</time></trkpt><trkpt lat="44.8413028323728" lon="5.740502728680394"><ele>880.0</ele><time>2026-04-25T09:55:25.999Z</time></trkpt><trkpt lat="44.84147277023397" lon="5.7406735449480335"><ele>880.0</ele><time>2026-04-25T09:55:26.999Z</time></trkpt><trkpt lat="44.84164062265636" lon="5.740882324019915"><ele>880.0</ele><time>2026-04-25T09:55:27.999Z</time></trkpt><trkpt lat="44.84179524102262" lon="5.7410743547943"><ele>879.6666666666666</ele><time>2026-04-25T09:55:28.999Z</time></trkpt><trkpt lat="44.84193986076518" lon="5.741259028839653"><ele>879.3333333333333</ele><time>2026-04-25T09:55:29.999Z</time></trkpt><trkpt lat="44.842075809163426" lon="5.741441953710226"><ele>879.0</ele><time>2026-04-25T09:55:30.999Z</time></trkpt><trkpt lat="44.842186047688024" lon="5.741627399247559"><ele>879.0</ele><time>2026-04-25T09:55:31.999Z</time></trkpt><trkpt lat="44.84226485069009" lon="5.741844391554419"><ele>879.0</ele><time>2026-04-25T09:55:32.999Z</time></trkpt><trkpt lat="44.84233782399202" lon="5.742060031880942"><ele>879.0</ele><time>2026-04-25T09:55:33.999Z</time></trkpt><trkpt lat="44.84244919177775" lon="5.742234280206548"><ele>881.3333333333333</ele><time>2026-04-25T09:55:34.999Z</time></trkpt><trkpt lat="44.842604921803165" lon="5.742350221985577"><ele>883.6666666666666</ele><time>2026-04-25T09:55:35.999Z</time></trkpt><trkpt lat="44.842781799776006" lon="5.742370449594771"><ele>886.0</ele><time>2026-04-25T09:55:36.999Z</time></trkpt><trkpt lat="44.842952234201974" lon="5.742293756724845"><ele>886.0</ele><time>2026-04-25T09:55:37.999Z</time></trkpt><trkpt lat="44.84313458680767" lon="5.742199558984718"><ele>886.0</ele><time>2026-04-25T09:55:38.999Z</time></trkpt><trkpt lat="44.843329781518094" lon="5.742087501590747"><ele>886.0</ele><time>2026-04-25T09:55:39.999Z</time></trkpt><trkpt lat="44.843537499862514" lon="5.7419717747939325"><ele>883.0</ele><time>2026-04-25T09:55:40.999Z</time></trkpt><trkpt lat="44.84372784749643" lon="5.741825132594282"><ele>880.0</ele><time>2026-04-25T09:55:41.999Z</time></trkpt><trkpt lat="44.84389127299731" lon="5.741648143472102"><ele>877.0</ele><time>2026-04-25T09:55:42.999Z</time></trkpt><trkpt lat="44.84403540575047" lon="5.741478805463241"><ele>877.0</ele><time>2026-04-25T09:55:43.999Z</time></trkpt><trkpt lat="44.844139854353664" lon="5.741307752466788"><ele>877.0</ele><time>2026-04-25T09:55:44.999Z</time></trkpt><trkpt lat="44.84421318979107" lon="5.741132286159061"><ele>877.0</ele><time>2026-04-25T09:55:45.999Z</time></trkpt><trkpt lat="44.84427991825079" lon="5.740976419117729"><ele>877.0</ele><time>2026-04-25T09:55:46.999Z</time></trkpt><trkpt lat="44.84437052922098" lon="5.740873115206757"><ele>874.25</ele><time>2026-04-25T09:55:47.999Z</time></trkpt><trkpt lat="44.844484968521776" lon="5.740855978622868"><ele>871.5</ele><time>2026-04-25T09:55:48.998Z</time></trkpt><trkpt lat="44.84459472305153" lon="5.7409010482489675"><ele>868.75</ele><time>2026-04-25T09:55:49.998Z</time></trkpt><trkpt lat="44.8446715093006" lon="5.741028918911427"><ele>866.0</ele><time>2026-04-25T09:55:50.998Z</time></trkpt><trkpt lat="44.84467458604929" lon="5.741203403547947"><ele>862.6666666666667</ele><time>2026-04-25T09:55:51.998Z</time></trkpt><trkpt lat="44.84463569686868" lon="5.741383489223489"><ele>859.3333333333333</ele><time>2026-04-25T09:55:52.998Z</time></trkpt><trkpt lat="44.84457534948277" lon="5.741601002723287"><ele>856.0</ele><time>2026-04-25T09:55:53.998Z</time></trkpt><trkpt lat="44.84450468870671" lon="5.741845743181114"><ele>852.0</ele><time>2026-04-25T09:55:54.998Z</time></trkpt><trkpt lat="44.844428693216294" lon="5.742108960880107"><ele>848.0</ele><time>2026-04-25T09:55:55.998Z</time></trkpt><trkpt lat="44.84435482553204" lon="5.7423734094669046"><ele>844.0</ele><time>2026-04-25T09:55:56.998Z</time></trkpt><trkpt lat="44.84428913475414" lon="5.742636485321961"><ele>853.3333333333333</ele><time>2026-04-25T09:55:57.998Z</time></trkpt><trkpt lat="44.84425625058514" lon="5.742918850494732"><ele>862.6666666666667</ele><time>2026-04-25T09:55:58.998Z</time></trkpt><trkpt lat="44.844241505336186" lon="5.743232809388333"><ele>872.0</ele><time>2026-04-25T09:55:59.998Z</time></trkpt><trkpt lat="44.8442119690101" lon="5.74355574636497"><ele>872.0</ele><time>2026-04-25T09:56:00.998Z</time></trkpt><trkpt lat="44.84415850110786" lon="5.743874630605449"><ele>872.0</ele><time>2026-04-25T09:56:01.998Z</time></trkpt><trkpt lat="44.84406823697136" lon="5.74415201569195"><ele>872.0</ele><time>2026-04-25T09:56:02.998Z</time></trkpt><trkpt lat="44.843958129841134" lon="5.744423945504543"><ele>866.0</ele><time>2026-04-25T09:56:03.998Z</time></trkpt><trkpt lat="44.84384647967111" lon="5.744686771867838"><ele>860.0</ele><time>2026-04-25T09:56:04.998Z</time></trkpt><trkpt lat="44.843720384614784" lon="5.74494419505796"><ele>854.0</ele><time>2026-04-25T09:56:05.998Z</time></trkpt><trkpt lat="44.8435868723555" lon="5.745174846890173"><ele>849.3333333333334</ele><time>2026-04-25T09:56:06.998Z</time></trkpt><trkpt lat="44.84348375585769" lon="5.7454177176359655"><ele>844.6666666666667</ele><time>2026-04-25T09:56:07.998Z</time></trkpt><trkpt lat="44.84336975464936" lon="5.745634649915124"><ele>840.0</ele><time>2026-04-25T09:56:08.998Z</time></trkpt><trkpt lat="44.843306997788154" lon="5.745909328893597"><ele>857.0</ele><time>2026-04-25T09:56:09.998Z</time></trkpt><trkpt lat="44.843291615194104" lon="5.746231580418227"><ele>874.0</ele><time>2026-04-25T09:56:10.998Z</time></trkpt><trkpt lat="44.84328216539437" lon="5.7465601133651605"><ele>870.0</ele><time>2026-04-25T09:56:11.998Z</time></trkpt><trkpt lat="44.84327048955185" lon="5.746892178965721"><ele>866.0</ele><time>2026-04-25T09:56:12.998Z</time></trkpt><trkpt lat="44.84325870172107" lon="5.747211688577794"><ele>866.0</ele><time>2026-04-25T09:56:13.998Z</time></trkpt><trkpt lat="44.84324679791128" lon="5.747511047492053"><ele>866.0</ele><time>2026-04-25T09:56:14.998Z</time></trkpt><trkpt lat="44.84322458828198" lon="5.747797295395051"><ele>866.0</ele><time>2026-04-25T09:56:15.998Z</time></trkpt><trkpt lat="44.843175215927126" lon="5.748074745409682"><ele>862.0</ele><time>2026-04-25T09:56:16.998Z</time></trkpt><trkpt lat="44.84310449762127" lon="5.748325854934427"><ele>858.0</ele><time>2026-04-25T09:56:18Z</time></trkpt><trkpt lat="44.84299384921091" lon="5.748537180861452"><ele>854.0</ele><time>2026-04-25T09:56:19Z</time></trkpt><trkpt lat="44.84285626094139" lon="5.74868384112168"><ele>853.0</ele><time>2026-04-25T09:56:20Z</time></trkpt><trkpt lat="44.84267411910017" lon="5.748777298555685"><ele>852.0</ele><time>2026-04-25T09:56:21Z</time></trkpt><trkpt lat="44.84246936340827" lon="5.748887973413326"><ele>851.0</ele><time>2026-04-25T09:56:22Z</time></trkpt><trkpt lat="44.84227970800615" lon="5.748985068491032"><ele>851.0</ele><time>2026-04-25T09:56:23Z</time></trkpt><trkpt lat="44.84210574335952" lon="5.749075574083994"><ele>851.0</ele><time>2026-04-25T09:56:24Z</time></trkpt><trkpt lat="44.84194515292178" lon="5.7491606931622075"><ele>851.0</ele><time>2026-04-25T09:56:25Z</time></trkpt><trkpt lat="44.8417853498357" lon="5.7492479686247755"><ele>856.0</ele><time>2026-04-25T09:56:26Z</time></trkpt><trkpt lat="44.84163274429411" lon="5.749327190310567"><ele>861.0</ele><time>2026-04-25T09:56:27Z</time></trkpt><trkpt lat="44.84148403379325" lon="5.7493329150214985"><ele>866.0</ele><time>2026-04-25T09:56:28Z</time></trkpt><trkpt lat="44.841342987105314" lon="5.749346489067281"><ele>861.0</ele><time>2026-04-25T09:56:29Z</time></trkpt><trkpt lat="44.84122113343736" lon="5.749426141351735"><ele>856.0</ele><time>2026-04-25T09:56:30Z</time></trkpt><trkpt lat="44.84112810756128" lon="5.749571252227095"><ele>851.0</ele><time>2026-04-25T09:56:31Z</time></trkpt><trkpt lat="44.841109241735616" lon="5.749764526890321"><ele>846.0</ele><time>2026-04-25T09:56:32Z</time></trkpt><trkpt lat="44.84114728373398" lon="5.749954179892177"><ele>846.0</ele><time>2026-04-25T09:56:33Z</time></trkpt><trkpt lat="44.84124737537888" lon="5.750125748600493"><ele>846.0</ele><time>2026-04-25T09:56:34Z</time></trkpt><trkpt lat="44.841385004246085" lon="5.750293161646828"><ele>846.0</ele><time>2026-04-25T09:56:35Z</time></trkpt><trkpt lat="44.841496697461196" lon="5.750526598911518"><ele>849.5</ele><time>2026-04-25T09:56:36Z</time></trkpt><trkpt lat="44.84160728880146" lon="5.750804519584858"><ele>853.0</ele><time>2026-04-25T09:56:37Z</time></trkpt><trkpt lat="44.841707782509545" lon="5.7511170783248415"><ele>838.0</ele><time>2026-04-25T09:56:38Z</time></trkpt><trkpt lat="44.841807618761855" lon="5.751445220749841"><ele>823.0</ele><time>2026-04-25T09:56:39Z</time></trkpt><trkpt lat="44.841897629554445" lon="5.751759615227588"><ele>827.0</ele><time>2026-04-25T09:56:40Z</time></trkpt><trkpt lat="44.841986648698224" lon="5.75205664859405"><ele>831.0</ele><time>2026-04-25T09:56:41Z</time></trkpt><trkpt lat="44.84205794183879" lon="5.752354535513437"><ele>831.0</ele><time>2026-04-25T09:56:42Z</time></trkpt><trkpt lat="44.84209320922014" lon="5.752668280721546"><ele>831.0</ele><time>2026-04-25T09:56:43Z</time></trkpt><trkpt lat="44.84210238709906" lon="5.752985708541662"><ele>831.3333333333333</ele><time>2026-04-25T09:56:44Z</time></trkpt><trkpt lat="44.842062327159674" lon="5.753296881580537"><ele>831.6666666666666</ele><time>2026-04-25T09:56:45Z</time></trkpt><trkpt lat="44.84200731955478" lon="5.753596277865431"><ele>832.0</ele><time>2026-04-25T09:56:46Z</time></trkpt><trkpt lat="44.84192642671897" lon="5.753869339408975"><ele>832.0</ele><time>2026-04-25T09:56:47Z</time></trkpt><trkpt lat="44.84182951525017" lon="5.754107842563552"><ele>832.0</ele><time>2026-04-25T09:56:48Z</time></trkpt><trkpt lat="44.84169980580906" lon="5.754308342989385"><ele>832.0</ele><time>2026-04-25T09:56:49Z</time></trkpt><trkpt lat="44.84153956737745" lon="5.754472543312264"><ele>832.0</ele><time>2026-04-25T09:56:50Z</time></trkpt><trkpt lat="44.84133486362981" lon="5.754602017206316"><ele>832.0</ele><time>2026-04-25T09:56:51Z</time></trkpt><trkpt lat="44.84112307127262" lon="5.754670710593262"><ele>832.0</ele><time>2026-04-25T09:56:52Z</time></trkpt><trkpt lat="44.84092926292273" lon="5.754742173528281"><ele>831.0</ele><time>2026-04-25T09:56:53Z</time></trkpt><trkpt lat="44.84075262227196" lon="5.75481483456747"><ele>830.0</ele><time>2026-04-25T09:56:54Z</time></trkpt><trkpt lat="44.8405890091728" lon="5.754981212085833"><ele>829.0</ele><time>2026-04-25T09:56:55Z</time></trkpt><trkpt lat="44.84044215628552" lon="5.755222655531783"><ele>829.0</ele><time>2026-04-25T09:56:56Z</time></trkpt><trkpt lat="44.8402971138021" lon="5.755496283246587"><ele>829.0</ele><time>2026-04-25T09:56:57Z</time></trkpt><trkpt lat="44.84015965831081" lon="5.755790603837502"><ele>834.0</ele><time>2026-04-25T09:56:57.999Z</time></trkpt><trkpt lat="44.8399977577974" lon="5.756074678577194"><ele>839.0</ele><time>2026-04-25T09:56:58.999Z</time></trkpt><trkpt lat="44.839844779407606" lon="5.756328820908591"><ele>839.0</ele><time>2026-04-25T09:56:59.999Z</time></trkpt><trkpt lat="44.83970457256141" lon="5.756567951101537"><ele>839.0</ele><time>2026-04-25T09:57:00.999Z</time></trkpt><trkpt lat="44.83958021447778" lon="5.756785689159318"><ele>839.0</ele><time>2026-04-25T09:57:01.999Z</time></trkpt><trkpt lat="44.839477677849246" lon="5.757006368407138"><ele>837.3333333333334</ele><time>2026-04-25T09:57:02.999Z</time></trkpt><trkpt lat="44.83940425684228" lon="5.757223174906789"><ele>835.6666666666667</ele><time>2026-04-25T09:57:03.999Z</time></trkpt><trkpt lat="44.839385958741566" lon="5.757454552752489"><ele>834.0</ele><time>2026-04-25T09:57:04.999Z</time></trkpt><trkpt lat="44.83941297846723" lon="5.757695345309902"><ele>834.6666666666667</ele><time>2026-04-25T09:57:05.999Z</time></trkpt><trkpt lat="44.83950071239643" lon="5.75788997757722"><ele>835.3333333333334</ele><time>2026-04-25T09:57:06.999Z</time></trkpt><trkpt lat="44.839664410784216" lon="5.758025655191525"><ele>836.0</ele><time>2026-04-25T09:57:07.999Z</time></trkpt><trkpt lat="44.83983357057458" lon="5.758127283250827"><ele>836.0</ele><time>2026-04-25T09:57:08.999Z</time></trkpt><trkpt lat="44.84001685701379" lon="5.758160955422615"><ele>836.0</ele><time>2026-04-25T09:57:09.999Z</time></trkpt><trkpt lat="44.840227178958436" lon="5.758143942169354"><ele>836.0</ele><time>2026-04-25T09:57:10.999Z</time></trkpt><trkpt lat="44.84045127099832" lon="5.758114018698627"><ele>835.0</ele><time>2026-04-25T09:57:11.999Z</time></trkpt><trkpt lat="44.8406709660362" lon="5.758124196748188"><ele>834.0</ele><time>2026-04-25T09:57:12.999Z</time></trkpt><trkpt lat="44.840904081360385" lon="5.7581371153303005"><ele>830.5</ele><time>2026-04-25T09:57:13.999Z</time></trkpt><trkpt lat="44.8411239100835" lon="5.758228610097771"><ele>827.0</ele><time>2026-04-25T09:57:14.999Z</time></trkpt><trkpt lat="44.84132870288659" lon="5.758392396306619"><ele>826.0</ele><time>2026-04-25T09:57:15.999Z</time></trkpt><trkpt lat="44.84156459595525" lon="5.758566038330699"><ele>825.0</ele><time>2026-04-25T09:57:16.999Z</time></trkpt><trkpt lat="44.8418006680368" lon="5.758774851182462"><ele>825.0</ele><time>2026-04-25T09:57:17.999Z</time></trkpt><trkpt lat="44.84203541970884" lon="5.758965050235268"><ele>825.0</ele><time>2026-04-25T09:57:18.999Z</time></trkpt><trkpt lat="44.8422695102716" lon="5.759161711163108"><ele>825.0</ele><time>2026-04-25T09:57:19.999Z</time></trkpt><trkpt lat="44.84249698542508" lon="5.759356706911482"><ele>825.0</ele><time>2026-04-25T09:57:20.999Z</time></trkpt><trkpt lat="44.84270537629831" lon="5.759534206799556"><ele>822.0</ele><time>2026-04-25T09:57:21.999Z</time></trkpt><trkpt lat="44.84292585425983" lon="5.759714288887145"><ele>819.0</ele><time>2026-04-25T09:57:22.999Z</time></trkpt><trkpt lat="44.84313250779101" lon="5.759899179076181"><ele>819.0</ele><time>2026-04-25T09:57:23.999Z</time></trkpt><trkpt lat="44.84333886282577" lon="5.760094938367751"><ele>819.0</ele><time>2026-04-25T09:57:24.999Z</time></trkpt><trkpt lat="44.843495719640295" lon="5.760312168692496"><ele>818.5</ele><time>2026-04-25T09:57:25.999Z</time></trkpt><trkpt lat="44.84363221855423" lon="5.760518806135224"><ele>818.0</ele><time>2026-04-25T09:57:26.999Z</time></trkpt><trkpt lat="44.84379053022804" lon="5.760797830356038"><ele>822.0</ele><time>2026-04-25T09:57:27.999Z</time></trkpt><trkpt lat="44.8439555578977" lon="5.761074676087089"><ele>826.0</ele><time>2026-04-25T09:57:28.999Z</time></trkpt><trkpt lat="44.84412685769344" lon="5.7613407917400465"><ele>821.5</ele><time>2026-04-25T09:57:29.999Z</time></trkpt><trkpt lat="44.8443176426272" lon="5.761568830086682"><ele>817.0</ele><time>2026-04-25T09:57:30.999Z</time></trkpt><trkpt lat="44.8445363485516" lon="5.761764738554071"><ele>819.5</ele><time>2026-04-25T09:57:31.999Z</time></trkpt><trkpt lat="44.844751144903" lon="5.761945009643718"><ele>822.0</ele><time>2026-04-25T09:57:32.999Z</time></trkpt><trkpt lat="44.8449026249997" lon="5.7621908062465765"><ele>822.0</ele><time>2026-04-25T09:57:33.999Z</time></trkpt><trkpt lat="44.845014174313945" lon="5.762452310312114"><ele>822.0</ele><time>2026-04-25T09:57:34.999Z</time></trkpt><trkpt lat="44.84510187400782" lon="5.762758401893255"><ele>814.0</ele><time>2026-04-25T09:57:35.999Z</time></trkpt><trkpt lat="44.845158171531324" lon="5.763086029528484"><ele>806.0</ele><time>2026-04-25T09:57:36.999Z</time></trkpt><trkpt lat="44.845186718019384" lon="5.763439420095624"><ele>806.0</ele><time>2026-04-25T09:57:37.999Z</time></trkpt><trkpt lat="44.84522951373457" lon="5.763818319470076"><ele>806.0</ele><time>2026-04-25T09:57:38.999Z</time></trkpt><trkpt lat="44.845307605477025" lon="5.764182019985916"><ele>808.0</ele><time>2026-04-25T09:57:39.999Z</time></trkpt><trkpt lat="44.8454234744959" lon="5.764521237410405"><ele>810.0</ele><time>2026-04-25T09:57:40.999Z</time></trkpt><trkpt lat="44.84556230366179" lon="5.764856211863927"><ele>810.0</ele><time>2026-04-25T09:57:41.999Z</time></trkpt><trkpt lat="44.845733683663084" lon="5.765157903771008"><ele>810.0</ele><time>2026-04-25T09:57:42.999Z</time></trkpt><trkpt lat="44.8459433320861" lon="5.765421803783805"><ele>811.5</ele><time>2026-04-25T09:57:43.999Z</time></trkpt><trkpt lat="44.84616761923738" lon="5.765657077822986"><ele>813.0</ele><time>2026-04-25T09:57:44.999Z</time></trkpt><trkpt lat="44.846378326352934" lon="5.765875658705797"><ele>818.0</ele><time>2026-04-25T09:57:45.999Z</time></trkpt><trkpt lat="44.846570860321414" lon="5.766090196495368"><ele>823.0</ele><time>2026-04-25T09:57:46.999Z</time></trkpt><trkpt lat="44.846754569073035" lon="5.766286574793369"><ele>819.0</ele><time>2026-04-25T09:57:47.999Z</time></trkpt><trkpt lat="44.846934530785724" lon="5.766461236287078"><ele>815.0</ele><time>2026-04-25T09:57:48.999Z</time></trkpt><trkpt lat="44.847144157703816" lon="5.766532527043053"><ele>811.0</ele><time>2026-04-25T09:57:49.999Z</time></trkpt><trkpt lat="44.84735214059522" lon="5.766520623605715"><ele>811.0</ele><time>2026-04-25T09:57:50.999Z</time></trkpt><trkpt lat="44.84754638038027" lon="5.7664568348400485"><ele>811.0</ele><time>2026-04-25T09:57:51.999Z</time></trkpt><trkpt lat="44.84772288677781" lon="5.766323951098193"><ele>811.0</ele><time>2026-04-25T09:57:52.999Z</time></trkpt><trkpt lat="44.84788373811834" lon="5.766112825989555"><ele>810.5</ele><time>2026-04-25T09:57:53.999Z</time></trkpt><trkpt lat="44.84805181511506" lon="5.765860520353888"><ele>810.0</ele><time>2026-04-25T09:57:54.999Z</time></trkpt><trkpt lat="44.848190805410454" lon="5.765568674351028"><ele>810.0</ele><time>2026-04-25T09:57:55.999Z</time></trkpt><trkpt lat="44.84833729534552" lon="5.765263813464727"><ele>810.0</ele><time>2026-04-25T09:57:56.999Z</time></trkpt><trkpt lat="44.8485335550721" lon="5.764954371697704"><ele>812.5</ele><time>2026-04-25T09:57:57.998Z</time></trkpt><trkpt lat="44.84874402677491" lon="5.764738497978817"><ele>815.0</ele><time>2026-04-25T09:57:58.998Z</time></trkpt><trkpt lat="44.84896313525939" lon="5.764538589171922"><ele>815.0</ele><time>2026-04-25T09:57:59.998Z</time></trkpt><trkpt lat="44.84919445010702" lon="5.764384532611701"><ele>815.0</ele><time>2026-04-25T09:58:00.998Z</time></trkpt><trkpt lat="44.84943249468812" lon="5.764263494083904"><ele>817.5</ele><time>2026-04-25T09:58:01.998Z</time></trkpt><trkpt lat="44.849670840348494" lon="5.764148743438764"><ele>820.0</ele><time>2026-04-25T09:58:02.998Z</time></trkpt><trkpt lat="44.84990513530881" lon="5.764019411917337"><ele>821.0</ele><time>2026-04-25T09:58:03.998Z</time></trkpt><trkpt lat="44.85013249092231" lon="5.763883166451956"><ele>822.0</ele><time>2026-04-25T09:58:04.998Z</time></trkpt><trkpt lat="44.85035603065508" lon="5.763753032829692"><ele>822.0</ele><time>2026-04-25T09:58:05.998Z</time></trkpt><trkpt lat="44.85058083384415" lon="5.763628855141762"><ele>822.0</ele><time>2026-04-25T09:58:06.998Z</time></trkpt><trkpt lat="44.85080490234255" lon="5.763502122090803"><ele>821.3333333333333</ele><time>2026-04-25T09:58:07.998Z</time></trkpt><trkpt lat="44.85101241093406" lon="5.763384149799336"><ele>820.6666666666666</ele><time>2026-04-25T09:58:08.998Z</time></trkpt><trkpt lat="44.85119404347551" lon="5.763277930896173"><ele>820.0</ele><time>2026-04-25T09:58:09.998Z</time></trkpt><trkpt lat="44.85137415620715" lon="5.76317657629828"><ele>820.0</ele><time>2026-04-25T09:58:10.998Z</time></trkpt><trkpt lat="44.85154431630944" lon="5.76307928571984"><ele>820.0</ele><time>2026-04-25T09:58:11.998Z</time></trkpt><trkpt lat="44.85169572264168" lon="5.762993807182723"><ele>820.0</ele><time>2026-04-25T09:58:12.998Z</time></trkpt><trkpt lat="44.85183772896717" lon="5.762914922233182"><ele>820.0</ele><time>2026-04-25T09:58:13.998Z</time></trkpt><trkpt lat="44.85195626908233" lon="5.762842487535889"><ele>820.0</ele><time>2026-04-25T09:58:14.998Z</time></trkpt><trkpt lat="44.85205742579393" lon="5.762784116114306"><ele>820.0</ele><time>2026-04-25T09:58:15.998Z</time></trkpt><trkpt lat="44.852151597434435" lon="5.762728200376449"><ele>820.0</ele><time>2026-04-25T09:58:16.998Z</time></trkpt><trkpt lat="44.85223847009764" lon="5.762677992428232"><ele>820.0</ele><time>2026-04-25T09:58:17.998Z</time></trkpt><trkpt lat="44.85230843237578" lon="5.7626331082294415"><ele>820.1666666666666</ele><time>2026-04-25T09:58:18.998Z</time></trkpt><trkpt lat="44.85237883875902" lon="5.762599398535504"><ele>820.3333333333333</ele><time>2026-04-25T09:58:19.998Z</time></trkpt><trkpt lat="44.85244203695044" lon="5.762565632099428"><ele>820.5</ele><time>2026-04-25T09:58:20.998Z</time></trkpt><trkpt lat="44.85250662085314" lon="5.762522957958475"><ele>820.6666666666667</ele><time>2026-04-25T09:58:21.998Z</time></trkpt><trkpt lat="44.85257610874869" lon="5.762479188332359"><ele>820.8333333333334</ele><time>2026-04-25T09:58:22.998Z</time></trkpt><trkpt lat="44.852651212534205" lon="5.762436836650206"><ele>821.0</ele><time>2026-04-25T09:58:24Z</time></trkpt><trkpt lat="44.85273157030673" lon="5.762396229564702"><ele>821.1999999999999</ele><time>2026-04-25T09:58:25Z</time></trkpt><trkpt lat="44.85280569963736" lon="5.762357696420902"><ele>821.4</ele><time>2026-04-25T09:58:26Z</time></trkpt><trkpt lat="44.85290855392301" lon="5.7622956754522106"><ele>821.6</ele><time>2026-04-25T09:58:28Z</time></trkpt><trkpt lat="44.85299438125961" lon="5.76224154899559"><ele>821.8</ele><time>2026-04-25T09:58:30Z</time></trkpt><trkpt lat="44.85306408492017" lon="5.762208525212505"><ele>822.0</ele><time>2026-04-25T09:58:32Z</time></trkpt><trkpt lat="44.85315471657456" lon="5.762152073160966"><ele>822.0</ele><time>2026-04-25T09:58:35Z</time></trkpt><trkpt lat="44.85322176788045" lon="5.762099812424459"><ele>822.0</ele><time>2026-04-25T09:58:37Z</time></trkpt><trkpt lat="44.85328169942292" lon="5.762070201664372"><ele>822.0</ele><time>2026-04-25T09:58:39Z</time></trkpt><trkpt lat="44.853365251992464" lon="5.762030662554918"><ele>822.0</ele><time>2026-04-25T09:58:42Z</time></trkpt><trkpt lat="44.85345341580424" lon="5.761986583283681"><ele>822.0</ele><time>2026-04-25T09:58:45Z</time></trkpt><trkpt lat="44.85351848659197" lon="5.761984971933733"><ele>822.0</ele><time>2026-04-25T09:58:46Z</time></trkpt><trkpt lat="44.85362592365155" lon="5.762018801228107"><ele>822.0</ele><time>2026-04-25T09:58:48Z</time></trkpt><trkpt lat="44.85374954867148" lon="5.762044566603342"><ele>822.0</ele><time>2026-04-25T09:58:50Z</time></trkpt><trkpt lat="44.85380861320353" lon="5.76207549634696"><ele>822.0</ele><time>2026-04-25T09:58:51Z</time></trkpt><trkpt lat="44.85387097463591" lon="5.762104176455658"><ele>822.0</ele><time>2026-04-25T09:58:52Z</time></trkpt><trkpt lat="44.85397201804383" lon="5.762178412071613"><ele>822.0</ele><time>2026-04-25T09:58:54Z</time></trkpt><trkpt lat="44.85406646410318" lon="5.762241205629508"><ele>822.0</ele><time>2026-04-25T09:58:56Z</time></trkpt><trkpt lat="44.854163561507015" lon="5.762299904798324"><ele>822.0</ele><time>2026-04-25T09:58:58Z</time></trkpt><trkpt lat="44.85426661549285" lon="5.762355295531651"><ele>822.0</ele><time>2026-04-25T09:59:00Z</time></trkpt><trkpt lat="44.854363455568176" lon="5.7624084488209615"><ele>822.0</ele><time>2026-04-25T09:59:02Z</time></trkpt><trkpt lat="44.85446844079315" lon="5.762470943945106"><ele>822.0</ele><time>2026-04-25T09:59:04Z</time></trkpt><trkpt lat="44.85454855358" lon="5.762525995611915"><ele>822.0</ele><time>2026-04-25T09:59:05Z</time></trkpt><trkpt lat="44.854660359924104" lon="5.762587836875868"><ele>822.0</ele><time>2026-04-25T09:59:06Z</time></trkpt><trkpt lat="44.85477709131715" lon="5.762652402209033"><ele>822.0</ele><time>2026-04-25T09:59:06.999Z</time></trkpt><trkpt lat="44.8548953316004" lon="5.7626982021211335"><ele>822.0</ele><time>2026-04-25T09:59:07.999Z</time></trkpt><trkpt lat="44.85500947240244" lon="5.762767115767801"><ele>822.0</ele><time>2026-04-25T09:59:08.999Z</time></trkpt><trkpt lat="44.85512982900184" lon="5.762838957608314"><ele>822.0</ele><time>2026-04-25T09:59:09.999Z</time></trkpt><trkpt lat="44.855265247638236" lon="5.762901495795649"><ele>822.0</ele><time>2026-04-25T09:59:10.999Z</time></trkpt><trkpt lat="44.855395646414046" lon="5.762997474773788"><ele>822.0</ele><time>2026-04-25T09:59:11.999Z</time></trkpt><trkpt lat="44.855539644800366" lon="5.763078457587001"><ele>822.0</ele><time>2026-04-25T09:59:12.999Z</time></trkpt><trkpt lat="44.8556931526302" lon="5.763149873767419"><ele>822.0</ele><time>2026-04-25T09:59:13.999Z</time></trkpt><trkpt lat="44.85585136009993" lon="5.763243498762539"><ele>822.0</ele><time>2026-04-25T09:59:14.999Z</time></trkpt><trkpt lat="44.85601268850636" lon="5.763336423273422"><ele>821.3333333333333</ele><time>2026-04-25T09:59:15.999Z</time></trkpt><trkpt lat="44.85618145446489" lon="5.763430672782175"><ele>820.6666666666666</ele><time>2026-04-25T09:59:16.999Z</time></trkpt><trkpt lat="44.85635388987239" lon="5.763528808459213"><ele>820.0</ele><time>2026-04-25T09:59:17.999Z</time></trkpt><trkpt lat="44.85652646656922" lon="5.763627515138358"><ele>820.0</ele><time>2026-04-25T09:59:18.999Z</time></trkpt><trkpt lat="44.856715618560536" lon="5.763731416392373"><ele>820.0</ele><time>2026-04-25T09:59:19.999Z</time></trkpt><trkpt lat="44.856913538717585" lon="5.763838611304986"><ele>820.0</ele><time>2026-04-25T09:59:20.999Z</time></trkpt><trkpt lat="44.85710160208152" lon="5.763938480446017"><ele>819.0</ele><time>2026-04-25T09:59:21.999Z</time></trkpt><trkpt lat="44.85727334684662" lon="5.7640485479297805"><ele>818.0</ele><time>2026-04-25T09:59:22.999Z</time></trkpt><trkpt lat="44.85744113463183" lon="5.764139766683077"><ele>817.0</ele><time>2026-04-25T09:59:23.999Z</time></trkpt><trkpt lat="44.85758652191999" lon="5.764216864178944"><ele>812.6666666666666</ele><time>2026-04-25T09:59:24.999Z</time></trkpt><trkpt lat="44.857684054960245" lon="5.76436437316358"><ele>808.3333333333333</ele><time>2026-04-25T09:59:25.999Z</time></trkpt><trkpt lat="44.85772279984405" lon="5.764591250921628"><ele>804.0</ele><time>2026-04-25T09:59:26.999Z</time></trkpt><trkpt lat="44.8577726426912" lon="5.764848045025299"><ele>804.0</ele><time>2026-04-25T09:59:27.999Z</time></trkpt><trkpt lat="44.85777622735609" lon="5.7651531107856435"><ele>804.0</ele><time>2026-04-25T09:59:28.999Z</time></trkpt><trkpt lat="44.85781000791281" lon="5.765460899576244"><ele>804.0</ele><time>2026-04-25T09:59:29.999Z</time></trkpt><trkpt lat="44.85788697442695" lon="5.765755944743647"><ele>806.3333333333333</ele><time>2026-04-25T09:59:30.999Z</time></trkpt><trkpt lat="44.85799741080147" lon="5.766040524829051"><ele>808.6666666666666</ele><time>2026-04-25T09:59:31.999Z</time></trkpt><trkpt lat="44.85812214272857" lon="5.766292997331858"><ele>811.0</ele><time>2026-04-25T09:59:32.999Z</time></trkpt><trkpt lat="44.858266940686235" lon="5.76650580989144"><ele>811.0</ele><time>2026-04-25T09:59:33.999Z</time></trkpt><trkpt lat="44.85843659925923" lon="5.766673901778896"><ele>811.0</ele><time>2026-04-25T09:59:34.999Z</time></trkpt><trkpt lat="44.85863956538995" lon="5.766779724238591"><ele>811.0</ele><time>2026-04-25T09:59:35.999Z</time></trkpt><trkpt lat="44.85885441616435" lon="5.766849204437197"><ele>807.5</ele><time>2026-04-25T09:59:36.999Z</time></trkpt><trkpt lat="44.85908422215082" lon="5.76690333007033"><ele>804.0</ele><time>2026-04-25T09:59:37.999Z</time></trkpt><trkpt lat="44.85931106823293" lon="5.7669669751548955"><ele>802.5</ele><time>2026-04-25T09:59:38.999Z</time></trkpt><trkpt lat="44.859531602167415" lon="5.767040582875412"><ele>801.0</ele><time>2026-04-25T09:59:39.999Z</time></trkpt><trkpt lat="44.859755486535605" lon="5.7671078636323125"><ele>801.0</ele><time>2026-04-25T09:59:40.999Z</time></trkpt><trkpt lat="44.85996978746297" lon="5.767139474540953"><ele>801.0</ele><time>2026-04-25T09:59:41.999Z</time></trkpt><trkpt lat="44.86018488134074" lon="5.767150558641267"><ele>801.0</ele><time>2026-04-25T09:59:42.999Z</time></trkpt><trkpt lat="44.86038060472262" lon="5.767143000381784"><ele>799.6666666666667</ele><time>2026-04-25T09:59:43.999Z</time></trkpt><trkpt lat="44.86055941053434" lon="5.767137471882851"><ele>798.3333333333334</ele><time>2026-04-25T09:59:44.999Z</time></trkpt><trkpt lat="44.860717171043845" lon="5.767110620669223"><ele>797.0</ele><time>2026-04-25T09:59:45.999Z</time></trkpt><trkpt lat="44.860861287560965" lon="5.767026344532305"><ele>793.3333333333334</ele><time>2026-04-25T09:59:46.999Z</time></trkpt><trkpt lat="44.86099379328498" lon="5.766884206317177"><ele>789.6666666666667</ele><time>2026-04-25T09:59:47.999Z</time></trkpt><trkpt lat="44.86110929197849" lon="5.766708338560917"><ele>786.0</ele><time>2026-04-25T09:59:48.999Z</time></trkpt><trkpt lat="44.86120570357653" lon="5.766543621712602"><ele>786.0</ele><time>2026-04-25T09:59:49.999Z</time></trkpt><trkpt lat="44.86133017976181" lon="5.76643646505196"><ele>786.0</ele><time>2026-04-25T09:59:50.999Z</time></trkpt><trkpt lat="44.861469470965226" lon="5.76641749008939"><ele>786.0</ele><time>2026-04-25T09:59:51.999Z</time></trkpt><trkpt lat="44.86159918016525" lon="5.766509724461458"><ele>786.0</ele><time>2026-04-25T09:59:52.999Z</time></trkpt><trkpt lat="44.86167696270973" lon="5.7666640909270965"><ele>785.0</ele><time>2026-04-25T09:59:53.999Z</time></trkpt><trkpt lat="44.86170747241529" lon="5.766861826254361"><ele>784.0</ele><time>2026-04-25T09:59:54.999Z</time></trkpt><trkpt lat="44.86169253796283" lon="5.767101354268478"><ele>783.0</ele><time>2026-04-25T09:59:55.999Z</time></trkpt><trkpt lat="44.86164470999594" lon="5.76736662056674"><ele>783.0</ele><time>2026-04-25T09:59:56.999Z</time></trkpt><trkpt lat="44.86161398098997" lon="5.767668902643949"><ele>783.0</ele><time>2026-04-25T09:59:57.999Z</time></trkpt><trkpt lat="44.861574530906054" lon="5.767959853227469"><ele>783.0</ele><time>2026-04-25T09:59:58.999Z</time></trkpt><trkpt lat="44.86153171292699" lon="5.768241609072604"><ele>781.6666666666667</ele><time>2026-04-25T09:59:59.999Z</time></trkpt><trkpt lat="44.86148990701509" lon="5.768480290898784"><ele>780.3333333333334</ele><time>2026-04-25T10:00:00.999Z</time></trkpt><trkpt lat="44.8614629035461" lon="5.768688032899846"><ele>779.0</ele><time>2026-04-25T10:00:01.999Z</time></trkpt><trkpt lat="44.861467537882966" lon="5.7689022305324125"><ele>778.6666666666667</ele><time>2026-04-25T10:00:02.999Z</time></trkpt><trkpt lat="44.86153056636481" lon="5.769088887470485"><ele>778.3333333333333</ele><time>2026-04-25T10:00:03.999Z</time></trkpt><trkpt lat="44.86164123454598" lon="5.7692526211043775"><ele>778.0</ele><time>2026-04-25T10:00:04.999Z</time></trkpt><trkpt lat="44.86179332605251" lon="5.769405805204601"><ele>771.6666666666666</ele><time>2026-04-25T10:00:05.998Z</time></trkpt><trkpt lat="44.861916485691275" lon="5.769575691781784"><ele>765.3333333333333</ele><time>2026-04-25T10:00:06.998Z</time></trkpt><trkpt lat="44.86201397498347" lon="5.769738824772421"><ele>759.0</ele><time>2026-04-25T10:00:07.998Z</time></trkpt><trkpt lat="44.8620518185824" lon="5.769921569908205"><ele>759.0</ele><time>2026-04-25T10:00:08.998Z</time></trkpt><trkpt lat="44.862029743249074" lon="5.770122448606017"><ele>759.0</ele><time>2026-04-25T10:00:09.998Z</time></trkpt><trkpt lat="44.86200687187281" lon="5.7703642984154255"><ele>759.0</ele><time>2026-04-25T10:00:10.998Z</time></trkpt><trkpt lat="44.86199168266125" lon="5.770616546611086"><ele>757.6666666666666</ele><time>2026-04-25T10:00:11.998Z</time></trkpt><trkpt lat="44.86198721696785" lon="5.770843385689438"><ele>756.3333333333333</ele><time>2026-04-25T10:00:12.998Z</time></trkpt><trkpt lat="44.862032798825766" lon="5.77106064667676"><ele>755.0</ele><time>2026-04-25T10:00:13.998Z</time></trkpt><trkpt lat="44.86212490841645" lon="5.771254889178928"><ele>757.6666666666666</ele><time>2026-04-25T10:00:14.998Z</time></trkpt><trkpt lat="44.86226243405591" lon="5.771424096160783"><ele>760.3333333333334</ele><time>2026-04-25T10:00:15.998Z</time></trkpt><trkpt lat="44.86241031700416" lon="5.771590827870417"><ele>763.0</ele><time>2026-04-25T10:00:16.998Z</time></trkpt><trkpt lat="44.862500742532454" lon="5.771828087982851"><ele>763.6666666666667</ele><time>2026-04-25T10:00:17.998Z</time></trkpt><trkpt lat="44.862573693811974" lon="5.772075405774997"><ele>764.3333333333334</ele><time>2026-04-25T10:00:18.998Z</time></trkpt><trkpt lat="44.86264987142498" lon="5.772334982619002"><ele>765.0</ele><time>2026-04-25T10:00:19.998Z</time></trkpt><trkpt lat="44.86273237631526" lon="5.772598774059177"><ele>759.0</ele><time>2026-04-25T10:00:20.998Z</time></trkpt><trkpt lat="44.86281782383465" lon="5.772884773905265"><ele>753.0</ele><time>2026-04-25T10:00:21.998Z</time></trkpt><trkpt lat="44.86293865658909" lon="5.773144922661342"><ele>747.0</ele><time>2026-04-25T10:00:22.998Z</time></trkpt><trkpt lat="44.86310841259599" lon="5.773363841965563"><ele>752.5</ele><time>2026-04-25T10:00:23.998Z</time></trkpt><trkpt lat="44.86329616418185" lon="5.7735683387206205"><ele>758.0</ele><time>2026-04-25T10:00:24.998Z</time></trkpt><trkpt lat="44.86347097891605" lon="5.7737624214285415"><ele>753.0</ele><time>2026-04-25T10:00:25.998Z</time></trkpt><trkpt lat="44.863611908000316" lon="5.773976039588529"><ele>748.0</ele><time>2026-04-25T10:00:26.998Z</time></trkpt><trkpt lat="44.863760034598236" lon="5.774183772314312"><ele>743.0</ele><time>2026-04-25T10:00:27.998Z</time></trkpt><trkpt lat="44.86388125903985" lon="5.774441239884961"><ele>743.0</ele><time>2026-04-25T10:00:28.998Z</time></trkpt><trkpt lat="44.863991093426016" lon="5.774711788834039"><ele>743.0</ele><time>2026-04-25T10:00:30Z</time></trkpt><trkpt lat="44.864114969101024" lon="5.774972516357877"><ele>743.0</ele><time>2026-04-25T10:00:31Z</time></trkpt><trkpt lat="44.86422822921801" lon="5.775237040341501"><ele>740.0</ele><time>2026-04-25T10:00:32Z</time></trkpt><trkpt lat="44.864283631529496" lon="5.775521481067853"><ele>737.0</ele><time>2026-04-25T10:00:33Z</time></trkpt><trkpt lat="44.86433002483206" lon="5.775787485592652"><ele>734.0</ele><time>2026-04-25T10:00:34Z</time></trkpt><trkpt lat="44.86442158238019" lon="5.776016726101785"><ele>733.3333333333333</ele><time>2026-04-25T10:00:35Z</time></trkpt><trkpt lat="44.864555203396336" lon="5.776213313950162"><ele>732.6666666666666</ele><time>2026-04-25T10:00:36Z</time></trkpt><trkpt lat="44.86470216731362" lon="5.776394218665154"><ele>732.0</ele><time>2026-04-25T10:00:37Z</time></trkpt><trkpt lat="44.864800806340575" lon="5.776619235615776"><ele>732.0</ele><time>2026-04-25T10:00:38Z</time></trkpt><trkpt lat="44.86487699644495" lon="5.776849278187346"><ele>732.0</ele><time>2026-04-25T10:00:39Z</time></trkpt><trkpt lat="44.86492450499993" lon="5.777111635568231"><ele>732.0</ele><time>2026-04-25T10:00:40Z</time></trkpt><trkpt lat="44.864982012528195" lon="5.777370552468376"><ele>734.0</ele><time>2026-04-25T10:00:41Z</time></trkpt><trkpt lat="44.86504979552292" lon="5.777601704724861"><ele>736.0</ele><time>2026-04-25T10:00:42Z</time></trkpt><trkpt lat="44.86515187286658" lon="5.777792775996327"><ele>738.0</ele><time>2026-04-25T10:00:43Z</time></trkpt><trkpt lat="44.86528486775243" lon="5.777954572165003"><ele>738.3333333333334</ele><time>2026-04-25T10:00:44Z</time></trkpt><trkpt lat="44.865475404549706" lon="5.778030815041924"><ele>738.6666666666667</ele><time>2026-04-25T10:00:45Z</time></trkpt><trkpt lat="44.865673526278655" lon="5.778118639749221"><ele>739.0</ele><time>2026-04-25T10:00:46Z</time></trkpt><trkpt lat="44.86585927655173" lon="5.778186592248419"><ele>730.6666666666667</ele><time>2026-04-25T10:00:47Z</time></trkpt><trkpt lat="44.86601934448342" lon="5.778252304161644"><ele>722.3333333333334</ele><time>2026-04-25T10:00:48Z</time></trkpt><trkpt lat="44.86614083548175" lon="5.778346904559043"><ele>714.0</ele><time>2026-04-25T10:00:49Z</time></trkpt><trkpt lat="44.866187063146505" lon="5.778541084971513"><ele>714.0</ele><time>2026-04-25T10:00:50Z</time></trkpt><trkpt lat="44.86620866885026" lon="5.778754909376763"><ele>714.0</ele><time>2026-04-25T10:00:51Z</time></trkpt><trkpt lat="44.86626948276982" lon="5.7789746601742245"><ele>714.0</ele><time>2026-04-25T10:00:52Z</time></trkpt><trkpt lat="44.866350411224694" lon="5.779188849671494"><ele>718.6666666666666</ele><time>2026-04-25T10:00:53Z</time></trkpt><trkpt lat="44.866466805150786" lon="5.779407861170078"><ele>723.3333333333333</ele><time>2026-04-25T10:00:54Z</time></trkpt><trkpt lat="44.86656875283228" lon="5.779626358209679"><ele>728.0</ele><time>2026-04-25T10:00:55Z</time></trkpt><trkpt lat="44.86665536981615" lon="5.779842982633811"><ele>728.0</ele><time>2026-04-25T10:00:56Z</time></trkpt><trkpt lat="44.866721059837495" lon="5.780058931232921"><ele>728.0</ele><time>2026-04-25T10:00:57Z</time></trkpt><trkpt lat="44.86679118771818" lon="5.7802128927619405"><ele>728.0</ele><time>2026-04-25T10:00:58Z</time></trkpt><trkpt lat="44.866908626453345" lon="5.78031138418529"><ele>728.0</ele><time>2026-04-25T10:00:59Z</time></trkpt><trkpt lat="44.86704905769065" lon="5.780313791865324"><ele>730.6666666666666</ele><time>2026-04-25T10:01:00Z</time></trkpt><trkpt lat="44.86720486946017" lon="5.780270701928994"><ele>733.3333333333334</ele><time>2026-04-25T10:01:01Z</time></trkpt><trkpt lat="44.867352897255614" lon="5.780192247010632"><ele>736.0</ele><time>2026-04-25T10:01:02Z</time></trkpt><trkpt lat="44.86748867283769" lon="5.780095033265766"><ele>732.3333333333334</ele><time>2026-04-25T10:01:03Z</time></trkpt><trkpt lat="44.867616298353575" lon="5.779974495947051"><ele>728.6666666666666</ele><time>2026-04-25T10:01:04Z</time></trkpt><trkpt lat="44.86774167653473" lon="5.779820359056542"><ele>725.0</ele><time>2026-04-25T10:01:05Z</time></trkpt><trkpt lat="44.86787291140378" lon="5.779700815555375"><ele>725.0</ele><time>2026-04-25T10:01:06Z</time></trkpt><trkpt lat="44.868016865281774" lon="5.779595642133613"><ele>725.0</ele><time>2026-04-25T10:01:07Z</time></trkpt><trkpt lat="44.86816565479212" lon="5.7795178132995275"><ele>725.0</ele><time>2026-04-25T10:01:08Z</time></trkpt><trkpt lat="44.86832411112019" lon="5.77945528295592"><ele>728.25</ele><time>2026-04-25T10:01:09Z</time></trkpt><trkpt lat="44.86847203100982" lon="5.77940840087137"><ele>731.5</ele><time>2026-04-25T10:01:10Z</time></trkpt><trkpt lat="44.86861568063711" lon="5.779359902680496"><ele>734.75</ele><time>2026-04-25T10:01:11Z</time></trkpt><trkpt lat="44.86875514803385" lon="5.779303183086771"><ele>738.0</ele><time>2026-04-25T10:01:12Z</time></trkpt><trkpt lat="44.868883719574896" lon="5.779233741515463"><ele>730.5</ele><time>2026-04-25T10:01:12.999Z</time></trkpt><trkpt lat="44.869004186587695" lon="5.7791478960174905"><ele>723.0</ele><time>2026-04-25T10:01:13.999Z</time></trkpt><trkpt lat="44.86912193924308" lon="5.779063782333961"><ele>715.5</ele><time>2026-04-25T10:01:14.999Z</time></trkpt><trkpt lat="44.86924785692228" lon="5.778978476896586"><ele>708.0</ele><time>2026-04-25T10:01:15.999Z</time></trkpt><trkpt lat="44.86938269242727" lon="5.77890306095673"><ele>704.75</ele><time>2026-04-25T10:01:16.999Z</time></trkpt><trkpt lat="44.86950789236484" lon="5.7788800749153335"><ele>701.5</ele><time>2026-04-25T10:01:17.999Z</time></trkpt><trkpt lat="44.869635044754205" lon="5.778923082948414"><ele>698.25</ele><time>2026-04-25T10:01:18.999Z</time></trkpt><trkpt lat="44.8697503410457" lon="5.779032289297117"><ele>695.0</ele><time>2026-04-25T10:01:19.999Z</time></trkpt><trkpt lat="44.869832867454214" lon="5.779215679961545"><ele>690.3333333333333</ele><time>2026-04-25T10:01:20.999Z</time></trkpt><trkpt lat="44.869930560107115" lon="5.779419633172909"><ele>685.6666666666666</ele><time>2026-04-25T10:01:21.999Z</time></trkpt><trkpt lat="44.87003773578253" lon="5.779642273289763"><ele>681.0</ele><time>2026-04-25T10:01:22.999Z</time></trkpt><trkpt lat="44.87015268210952" lon="5.779862928807522"><ele>681.0</ele><time>2026-04-25T10:01:23.999Z</time></trkpt><trkpt lat="44.87026659077869" lon="5.78005910491289"><ele>681.0</ele><time>2026-04-25T10:01:24.999Z</time></trkpt><trkpt lat="44.87037574626295" lon="5.780245825195386"><ele>681.0</ele><time>2026-04-25T10:01:25.999Z</time></trkpt><trkpt lat="44.87048291443351" lon="5.780411454681374"><ele>685.0</ele><time>2026-04-25T10:01:26.999Z</time></trkpt><trkpt lat="44.87062059188364" lon="5.780519452264679"><ele>689.0</ele><time>2026-04-25T10:01:27.999Z</time></trkpt><trkpt lat="44.870788969388634" lon="5.780597136494011"><ele>693.0</ele><time>2026-04-25T10:01:28.999Z</time></trkpt><trkpt lat="44.87099630801549" lon="5.78069264685254"><ele>693.0</ele><time>2026-04-25T10:01:29.999Z</time></trkpt><trkpt lat="44.87120570499123" lon="5.780772027573818"><ele>693.0</ele><time>2026-04-25T10:01:30.999Z</time></trkpt><trkpt lat="44.87140051003956" lon="5.780849081107729"><ele>693.0</ele><time>2026-04-25T10:01:31.999Z</time></trkpt><trkpt lat="44.87158344330805" lon="5.780913788543842"><ele>693.0</ele><time>2026-04-25T10:01:32.999Z</time></trkpt><trkpt lat="44.87176422616473" lon="5.780918425763863"><ele>693.0</ele><time>2026-04-25T10:01:33.999Z</time></trkpt><trkpt lat="44.871975010681005" lon="5.780900768512415"><ele>693.0</ele><time>2026-04-25T10:01:34.999Z</time></trkpt><trkpt lat="44.872194104876364" lon="5.7808213514073605"><ele>692.0</ele><time>2026-04-25T10:01:35.999Z</time></trkpt><trkpt lat="44.87237762936367" lon="5.780756096013191"><ele>691.0</ele><time>2026-04-25T10:01:36.999Z</time></trkpt><trkpt lat="44.872548449490196" lon="5.780658562013598"><ele>690.0</ele><time>2026-04-25T10:01:37.999Z</time></trkpt><trkpt lat="44.872717456586834" lon="5.780604941442841"><ele>684.4</ele><time>2026-04-25T10:01:38.999Z</time></trkpt><trkpt lat="44.87286350132387" lon="5.780600911676018"><ele>678.8</ele><time>2026-04-25T10:01:39.999Z</time></trkpt><trkpt lat="44.87298700301701" lon="5.780573930557491"><ele>673.2</ele><time>2026-04-25T10:01:40.999Z</time></trkpt><trkpt lat="44.873089164678305" lon="5.780538257350001"><ele>667.6</ele><time>2026-04-25T10:01:41.999Z</time></trkpt><trkpt lat="44.87315852708232" lon="5.78054429988903"><ele>662.0</ele><time>2026-04-25T10:01:42.999Z</time></trkpt><trkpt lat="44.87322506185322" lon="5.780583640837537"><ele>662.0</ele><time>2026-04-25T10:01:43.999Z</time></trkpt><trkpt lat="44.87325540203709" lon="5.780750519096099"><ele>662.0</ele><time>2026-04-25T10:01:44.999Z</time></trkpt><trkpt lat="44.87315542360368" lon="5.7809165304951"><ele>662.0</ele><time>2026-04-25T10:01:45.999Z</time></trkpt><trkpt lat="44.87313537247874" lon="5.781084005619699"><ele>662.0</ele><time>2026-04-25T10:01:46.999Z</time></trkpt><trkpt lat="44.87317112368118" lon="5.781241573445548"><ele>665.6666666666666</ele><time>2026-04-25T10:01:47.999Z</time></trkpt><trkpt lat="44.873197269402006" lon="5.7814475326560535"><ele>669.3333333333334</ele><time>2026-04-25T10:01:48.999Z</time></trkpt><trkpt lat="44.87325397892138" lon="5.781656775860887"><ele>673.0</ele><time>2026-04-25T10:01:49.999Z</time></trkpt><trkpt lat="44.87335026728255" lon="5.781845968639584"><ele>680.0</ele><time>2026-04-25T10:01:50.999Z</time></trkpt><trkpt lat="44.87337204361296" lon="5.782061389505325"><ele>687.0</ele><time>2026-04-25T10:01:51.999Z</time></trkpt><trkpt lat="44.8734316155508" lon="5.782239254488022"><ele>694.0</ele><time>2026-04-25T10:01:52.999Z</time></trkpt><trkpt lat="44.87353982791988" lon="5.78239737049058"><ele>701.0</ele><time>2026-04-25T10:01:53.999Z</time></trkpt><trkpt lat="44.87368934818355" lon="5.782527345102042"><ele>691.6666666666666</ele><time>2026-04-25T10:01:54.999Z</time></trkpt><trkpt lat="44.87381185723439" lon="5.7826730112034666"><ele>682.3333333333334</ele><time>2026-04-25T10:01:55.999Z</time></trkpt><trkpt lat="44.87389996007523" lon="5.782842143504036"><ele>673.0</ele><time>2026-04-25T10:01:56.999Z</time></trkpt><trkpt lat="44.87400803494587" lon="5.782976483015561"><ele>673.0</ele><time>2026-04-25T10:01:57.999Z</time></trkpt><trkpt lat="44.87412342975276" lon="5.783066256757354"><ele>673.0</ele><time>2026-04-25T10:01:58.999Z</time></trkpt><trkpt lat="44.87424535025971" lon="5.783096232496864"><ele>673.0</ele><time>2026-04-25T10:01:59.999Z</time></trkpt><trkpt lat="44.87436134389295" lon="5.783077120193612"><ele>673.0</ele><time>2026-04-25T10:02:00.999Z</time></trkpt><trkpt lat="44.87446977695065" lon="5.783083267637563"><ele>670.75</ele><time>2026-04-25T10:02:01.999Z</time></trkpt><trkpt lat="44.87454140496113" lon="5.783188618858519"><ele>668.5</ele><time>2026-04-25T10:02:02.999Z</time></trkpt><trkpt lat="44.874593966701305" lon="5.783330605772263"><ele>666.25</ele><time>2026-04-25T10:02:03.999Z</time></trkpt><trkpt lat="44.8746202435096" lon="5.783525322788309"><ele>664.0</ele><time>2026-04-25T10:02:04.999Z</time></trkpt><trkpt lat="44.874720793662476" lon="5.783679427367357"><ele>664.0</ele><time>2026-04-25T10:02:05.999Z</time></trkpt><trkpt lat="44.874878645308236" lon="5.783786717443761"><ele>664.0</ele><time>2026-04-25T10:02:06.999Z</time></trkpt><trkpt lat="44.874999840478736" lon="5.783991713994758"><ele>664.0</ele><time>2026-04-25T10:02:07.999Z</time></trkpt><trkpt lat="44.87511062142307" lon="5.784156055194219"><ele>669.0</ele><time>2026-04-25T10:02:08.999Z</time></trkpt><trkpt lat="44.875215753377816" lon="5.784305510866967"><ele>674.0</ele><time>2026-04-25T10:02:09.999Z</time></trkpt><trkpt lat="44.87534607891505" lon="5.78437441597263"><ele>679.0</ele><time>2026-04-25T10:02:10.999Z</time></trkpt><trkpt lat="44.87549274237766" lon="5.784375427558223"><ele>684.0</ele><time>2026-04-25T10:02:11.998Z</time></trkpt><trkpt lat="44.875603015844725" lon="5.784463491109477"><ele>684.0</ele><time>2026-04-25T10:02:12.998Z</time></trkpt><trkpt lat="44.87571915962449" lon="5.784520906724621"><ele>684.0</ele><time>2026-04-25T10:02:13.998Z</time></trkpt><trkpt lat="44.875838550154285" lon="5.784524261618124"><ele>684.0</ele><time>2026-04-25T10:02:14.998Z</time></trkpt><trkpt lat="44.87594671153674" lon="5.784477498219375"><ele>684.0</ele><time>2026-04-25T10:02:15.998Z</time></trkpt><trkpt lat="44.876042827359775" lon="5.784413206560971"><ele>676.25</ele><time>2026-04-25T10:02:16.998Z</time></trkpt><trkpt lat="44.876136419316715" lon="5.784482719860383"><ele>668.5</ele><time>2026-04-25T10:02:17.998Z</time></trkpt><trkpt lat="44.8762125632528" lon="5.784600832793191"><ele>660.75</ele><time>2026-04-25T10:02:18.998Z</time></trkpt><trkpt lat="44.87631667212292" lon="5.784700100784164"><ele>653.0</ele><time>2026-04-25T10:02:19.998Z</time></trkpt><trkpt lat="44.87643750574198" lon="5.784777131911676"><ele>653.0</ele><time>2026-04-25T10:02:20.998Z</time></trkpt><trkpt lat="44.87656403790881" lon="5.784788888382174"><ele>653.0</ele><time>2026-04-25T10:02:21.998Z</time></trkpt><trkpt lat="44.87668581616475" lon="5.784788559321965"><ele>653.0</ele><time>2026-04-25T10:02:22.998Z</time></trkpt><trkpt lat="44.87681290667309" lon="5.784818117123073"><ele>653.0</ele><time>2026-04-25T10:02:23.998Z</time></trkpt><trkpt lat="44.87694158628302" lon="5.784821407754481"><ele>658.25</ele><time>2026-04-25T10:02:24.998Z</time></trkpt><trkpt lat="44.87705469632208" lon="5.784867009411248"><ele>663.5</ele><time>2026-04-25T10:02:25.998Z</time></trkpt><trkpt lat="44.877094218446615" lon="5.785053231476809"><ele>668.75</ele><time>2026-04-25T10:02:26.998Z</time></trkpt><trkpt lat="44.87717870844691" lon="5.785196756337204"><ele>674.0</ele><time>2026-04-25T10:02:27.998Z</time></trkpt><trkpt lat="44.87731339249609" lon="5.785294712007314"><ele>674.0</ele><time>2026-04-25T10:02:28.998Z</time></trkpt><trkpt lat="44.87749372214411" lon="5.785374892906727"><ele>674.0</ele><time>2026-04-25T10:02:29.998Z</time></trkpt><trkpt lat="44.87769129719438" lon="5.785443373088263"><ele>674.0</ele><time>2026-04-25T10:02:30.998Z</time></trkpt><trkpt lat="44.87787933219133" lon="5.785532487000977"><ele>662.3333333333333</ele><time>2026-04-25T10:02:31.998Z</time></trkpt><trkpt lat="44.87804019191556" lon="5.785639030939023"><ele>650.6666666666666</ele><time>2026-04-25T10:02:32.998Z</time></trkpt><trkpt lat="44.878184399999604" lon="5.78571244557319"><ele>639.0</ele><time>2026-04-25T10:02:33.998Z</time></trkpt><trkpt lat="44.87832714023071" lon="5.785751061358608"><ele>625.0</ele><time>2026-04-25T10:02:34.998Z</time></trkpt><trkpt lat="44.87846044135765" lon="5.785782045603696"><ele>611.0</ele><time>2026-04-25T10:02:36Z</time></trkpt><trkpt lat="44.87859539203563" lon="5.785816555115743"><ele>597.0</ele><time>2026-04-25T10:02:37Z</time></trkpt><trkpt lat="44.878713647170734" lon="5.78584106945903"><ele>583.0</ele><time>2026-04-25T10:02:38Z</time></trkpt><trkpt lat="44.87881788925413" lon="5.785879889264629"><ele>583.0</ele><time>2026-04-25T10:02:39Z</time></trkpt><trkpt lat="44.87891590559981" lon="5.78597545410239"><ele>583.0</ele><time>2026-04-25T10:02:40Z</time></trkpt><trkpt lat="44.879000967432454" lon="5.786068621874029"><ele>583.0</ele><time>2026-04-25T10:02:41Z</time></trkpt><trkpt lat="44.87908220420687" lon="5.786167732449304"><ele>583.0</ele><time>2026-04-25T10:02:42Z</time></trkpt><trkpt lat="44.87911482218632" lon="5.786325013258347"><ele>592.0</ele><time>2026-04-25T10:02:43Z</time></trkpt><trkpt lat="44.87911739942722" lon="5.786488041833789"><ele>601.0</ele><time>2026-04-25T10:02:44Z</time></trkpt><trkpt lat="44.879112444365994" lon="5.786684958781954"><ele>610.0</ele><time>2026-04-25T10:02:45Z</time></trkpt><trkpt lat="44.87915546265437" lon="5.786897571004503"><ele>619.0</ele><time>2026-04-25T10:02:46Z</time></trkpt><trkpt lat="44.879241880799405" lon="5.787064198174854"><ele>605.5</ele><time>2026-04-25T10:02:47Z</time></trkpt><trkpt lat="44.87929386154313" lon="5.787225835077566"><ele>592.0</ele><time>2026-04-25T10:02:48Z</time></trkpt><trkpt lat="44.87934868819895" lon="5.78739927284052"><ele>578.5</ele><time>2026-04-25T10:02:49Z</time></trkpt><trkpt lat="44.87946692209872" lon="5.7874870601608635"><ele>565.0</ele><time>2026-04-25T10:02:50Z</time></trkpt><trkpt lat="44.87954233899454" lon="5.787585842763161"><ele>567.75</ele><time>2026-04-25T10:02:51Z</time></trkpt><trkpt lat="44.87958862300877" lon="5.787731227512141"><ele>570.5</ele><time>2026-04-25T10:02:52Z</time></trkpt><trkpt lat="44.87957054267595" lon="5.787894638060641"><ele>573.25</ele><time>2026-04-25T10:02:53Z</time></trkpt><trkpt lat="44.879555743500575" lon="5.788057734938857"><ele>576.0</ele><time>2026-04-25T10:02:54Z</time></trkpt><trkpt lat="44.87956413789578" lon="5.788232186926771"><ele>576.0</ele><time>2026-04-25T10:02:55Z</time></trkpt><trkpt lat="44.87957195059787" lon="5.788392704422232"><ele>576.0</ele><time>2026-04-25T10:02:56Z</time></trkpt><trkpt lat="44.87952847491435" lon="5.788525168798061"><ele>576.0</ele><time>2026-04-25T10:02:57Z</time></trkpt><trkpt lat="44.87942747275753" lon="5.788594709123915"><ele>576.0</ele><time>2026-04-25T10:02:58Z</time></trkpt><trkpt lat="44.87931131616944" lon="5.7886800140217"><ele>590.25</ele><time>2026-04-25T10:02:59Z</time></trkpt><trkpt lat="44.87923005911982" lon="5.7887923946312325"><ele>604.5</ele><time>2026-04-25T10:03:00Z</time></trkpt><trkpt lat="44.87919126363104" lon="5.788940531917008"><ele>618.75</ele><time>2026-04-25T10:03:01Z</time></trkpt><trkpt lat="44.8792036486942" lon="5.789107481395765"><ele>633.0</ele><time>2026-04-25T10:03:02Z</time></trkpt><trkpt lat="44.879216297460665" lon="5.7892894421982"><ele>628.5</ele><time>2026-04-25T10:03:03Z</time></trkpt><trkpt lat="44.879142487007876" lon="5.789420128118163"><ele>624.0</ele><time>2026-04-25T10:03:04Z</time></trkpt><trkpt lat="44.87907591474379" lon="5.789576191300609"><ele>619.5</ele><time>2026-04-25T10:03:05Z</time></trkpt><trkpt lat="44.87903880352609" lon="5.789767132403452"><ele>615.0</ele><time>2026-04-25T10:03:06Z</time></trkpt><trkpt lat="44.879048707880806" lon="5.789966018889337"><ele>615.0</ele><time>2026-04-25T10:03:07Z</time></trkpt><trkpt lat="44.87905549683747" lon="5.790161871354616"><ele>615.0</ele><time>2026-04-25T10:03:08Z</time></trkpt><trkpt lat="44.87905962717277" lon="5.790388475522329"><ele>615.0</ele><time>2026-04-25T10:03:09Z</time></trkpt><trkpt lat="44.87908141680259" lon="5.7905975541399295"><ele>615.0</ele><time>2026-04-25T10:03:10Z</time></trkpt><trkpt lat="44.879125042782626" lon="5.7907353283805065"><ele>605.6666666666666</ele><time>2026-04-25T10:03:11Z</time></trkpt><trkpt lat="44.87927268775013" lon="5.790901319167775"><ele>596.3333333333333</ele><time>2026-04-25T10:03:12Z</time></trkpt><trkpt lat="44.87937979942082" lon="5.791038363298843"><ele>587.0</ele><time>2026-04-25T10:03:13Z</time></trkpt><trkpt lat="44.87949152438309" lon="5.791116834305437"><ele>587.0</ele><time>2026-04-25T10:03:14Z</time></trkpt><trkpt lat="44.87955008233887" lon="5.791226759476814"><ele>587.0</ele><time>2026-04-25T10:03:15Z</time></trkpt><trkpt lat="44.87958301946776" lon="5.791365185753112"><ele>587.0</ele><time>2026-04-25T10:03:16Z</time></trkpt><trkpt lat="44.87964417636707" lon="5.7914942224934425"><ele>587.0</ele><time>2026-04-25T10:03:17Z</time></trkpt><trkpt lat="44.87971894021056" lon="5.79160885083093"><ele>587.0</ele><time>2026-04-25T10:03:18Z</time></trkpt><trkpt lat="44.87978740364196" lon="5.791745699163872"><ele>594.0</ele><time>2026-04-25T10:03:19Z</time></trkpt><trkpt lat="44.87982656814917" lon="5.791926658958968"><ele>601.0</ele><time>2026-04-25T10:03:19.999Z</time></trkpt><trkpt lat="44.87986731963699" lon="5.7921210585466305"><ele>608.0</ele><time>2026-04-25T10:03:20.999Z</time></trkpt><trkpt lat="44.87992637492357" lon="5.792272618153492"><ele>615.0</ele><time>2026-04-25T10:03:21.999Z</time></trkpt><trkpt lat="44.880049346688104" lon="5.792382693191909"><ele>601.25</ele><time>2026-04-25T10:03:22.999Z</time></trkpt><trkpt lat="44.880153716616505" lon="5.792462526078153"><ele>587.5</ele><time>2026-04-25T10:03:23.999Z</time></trkpt><trkpt lat="44.88026828350969" lon="5.792576657570805"><ele>573.75</ele><time>2026-04-25T10:03:24.999Z</time></trkpt><trkpt lat="44.88035546114634" lon="5.792704231682446"><ele>560.0</ele><time>2026-04-25T10:03:25.999Z</time></trkpt><trkpt lat="44.88038724341524" lon="5.7928671075898"><ele>560.0</ele><time>2026-04-25T10:03:26.999Z</time></trkpt><trkpt lat="44.880413955324784" lon="5.793011651183704"><ele>560.0</ele><time>2026-04-25T10:03:27.999Z</time></trkpt><trkpt lat="44.88045316955075" lon="5.79313782375232"><ele>560.0</ele><time>2026-04-25T10:03:28.999Z</time></trkpt><trkpt lat="44.88052136270333" lon="5.793241432968547"><ele>560.0</ele><time>2026-04-25T10:03:29.999Z</time></trkpt><trkpt lat="44.88059793206917" lon="5.793308696739967"><ele>560.0</ele><time>2026-04-25T10:03:30.999Z</time></trkpt><trkpt lat="44.88066883494979" lon="5.793370228942903"><ele>560.0</ele><time>2026-04-25T10:03:31.999Z</time></trkpt><trkpt lat="44.88073833101387" lon="5.7934264337295325"><ele>560.0</ele><time>2026-04-25T10:03:32.999Z</time></trkpt><trkpt lat="44.88079632770405" lon="5.7934753008724"><ele>560.0</ele><time>2026-04-25T10:03:33.999Z</time></trkpt><trkpt lat="44.880860546552526" lon="5.793528909743426"><ele>560.0</ele><time>2026-04-25T10:03:34.999Z</time></trkpt><trkpt lat="44.88092011584143" lon="5.793583866066937"><ele>560.0</ele><time>2026-04-25T10:03:35.999Z</time></trkpt><trkpt lat="44.88101700957689" lon="5.79368110157653"><ele>560.0</ele><time>2026-04-25T10:03:37.999Z</time></trkpt><trkpt lat="44.881076645584045" lon="5.793738495780494"><ele>560.6</ele><time>2026-04-25T10:03:38.999Z</time></trkpt><trkpt lat="44.881149075134154" lon="5.79380337215786"><ele>561.2</ele><time>2026-04-25T10:03:39.999Z</time></trkpt><trkpt lat="44.88122885367102" lon="5.7938742486459684"><ele>561.8</ele><time>2026-04-25T10:03:40.999Z</time></trkpt><trkpt lat="44.881309314253926" lon="5.793944321791038"><ele>562.4</ele><time>2026-04-25T10:03:41.999Z</time></trkpt><trkpt lat="44.88139779481948" lon="5.79402069921392"><ele>563.0</ele><time>2026-04-25T10:03:42.999Z</time></trkpt><trkpt lat="44.88148948728027" lon="5.794100552841086"><ele>563.0</ele><time>2026-04-25T10:03:43.999Z</time></trkpt><trkpt lat="44.881582379663776" lon="5.794180064206396"><ele>563.0</ele><time>2026-04-25T10:03:44.999Z</time></trkpt><trkpt lat="44.881659464270754" lon="5.794244385260187"><ele>563.0</ele><time>2026-04-25T10:03:45.999Z</time></trkpt><trkpt lat="44.88172498569776" lon="5.794299585412301"><ele>563.0</ele><time>2026-04-25T10:03:46.999Z</time></trkpt><trkpt lat="44.88178762921024" lon="5.794355888607706"><ele>563.0</ele><time>2026-04-25T10:03:47.999Z</time></trkpt><trkpt lat="44.88184457343956" lon="5.794410373151446"><ele>563.0</ele><time>2026-04-25T10:03:48.999Z</time></trkpt><trkpt lat="44.88190075270851" lon="5.794458273406265"><ele>567.6</ele><time>2026-04-25T10:03:49.999Z</time></trkpt><trkpt lat="44.88196343884244" lon="5.794512742885389"><ele>572.1999999999999</ele><time>2026-04-25T10:03:50.999Z</time></trkpt><trkpt lat="44.88206953910813" lon="5.794591299539842"><ele>576.8</ele><time>2026-04-25T10:03:52.999Z</time></trkpt><trkpt lat="44.882195060099455" lon="5.794630602917614"><ele>581.4</ele><time>2026-04-25T10:03:54.999Z</time></trkpt><trkpt lat="44.882281242827716" lon="5.794658275670842"><ele>586.0</ele><time>2026-04-25T10:03:55.999Z</time></trkpt><trkpt lat="44.88237863121285" lon="5.794696673875514"><ele>586.0</ele><time>2026-04-25T10:03:56.999Z</time></trkpt><trkpt lat="44.88248288920168" lon="5.794740804648124"><ele>586.0</ele><time>2026-04-25T10:03:57.999Z</time></trkpt><trkpt lat="44.882604970131595" lon="5.794783046121447"><ele>586.0</ele><time>2026-04-25T10:03:58.999Z</time></trkpt><trkpt lat="44.88274260883533" lon="5.794845015951545"><ele>586.0</ele><time>2026-04-25T10:03:59.999Z</time></trkpt><trkpt lat="44.882882328455956" lon="5.794896558902275"><ele>589.75</ele><time>2026-04-25T10:04:00.999Z</time></trkpt><trkpt lat="44.88301559038648" lon="5.79492882711441"><ele>593.5</ele><time>2026-04-25T10:04:01.999Z</time></trkpt><trkpt lat="44.88316085412136" lon="5.7949144583430625"><ele>597.25</ele><time>2026-04-25T10:04:02.999Z</time></trkpt><trkpt lat="44.88328810630545" lon="5.794826850254062"><ele>601.0</ele><time>2026-04-25T10:04:03.999Z</time></trkpt><trkpt lat="44.88340040417425" lon="5.794733260984376"><ele>605.75</ele><time>2026-04-25T10:04:04.999Z</time></trkpt><trkpt lat="44.883486522677835" lon="5.794671155686623"><ele>610.5</ele><time>2026-04-25T10:04:05.999Z</time></trkpt><trkpt lat="44.88359578981377" lon="5.794716445663696"><ele>615.25</ele><time>2026-04-25T10:04:06.999Z</time></trkpt><trkpt lat="44.883665700654895" lon="5.7948485602841"><ele>620.0</ele><time>2026-04-25T10:04:07.999Z</time></trkpt><trkpt lat="44.883758196723306" lon="5.795018259448358"><ele>620.0</ele><time>2026-04-25T10:04:08.999Z</time></trkpt><trkpt lat="44.88386562946339" lon="5.795217712468132"><ele>620.0</ele><time>2026-04-25T10:04:09.999Z</time></trkpt><trkpt lat="44.883968665389936" lon="5.795416392128936"><ele>620.0</ele><time>2026-04-25T10:04:10.999Z</time></trkpt><trkpt lat="44.88397912767312" lon="5.795667838843481"><ele>620.0</ele><time>2026-04-25T10:04:11.999Z</time></trkpt><trkpt lat="44.88393370078234" lon="5.795937207128174"><ele>620.0</ele><time>2026-04-25T10:04:12.999Z</time></trkpt><trkpt lat="44.88388392011984" lon="5.796247451781047"><ele>620.0</ele><time>2026-04-25T10:04:13.999Z</time></trkpt><trkpt lat="44.88383996610212" lon="5.796540323129996"><ele>625.0</ele><time>2026-04-25T10:04:14.999Z</time></trkpt><trkpt lat="44.88380770562316" lon="5.796784077830381"><ele>630.0</ele><time>2026-04-25T10:04:15.999Z</time></trkpt><trkpt lat="44.88379638979506" lon="5.796993581818433"><ele>635.0</ele><time>2026-04-25T10:04:16.999Z</time></trkpt><trkpt lat="44.88380576462858" lon="5.797193183687871"><ele>635.6666666666666</ele><time>2026-04-25T10:04:17.998Z</time></trkpt><trkpt lat="44.883843020012094" lon="5.797424931196229"><ele>636.3333333333334</ele><time>2026-04-25T10:04:18.998Z</time></trkpt><trkpt lat="44.883951418590456" lon="5.797675393250123"><ele>637.0</ele><time>2026-04-25T10:04:19.998Z</time></trkpt><trkpt lat="44.88407166670277" lon="5.7978800642155885"><ele>637.25</ele><time>2026-04-25T10:04:20.998Z</time></trkpt><trkpt lat="44.88410815167837" lon="5.798065927287701"><ele>637.5</ele><time>2026-04-25T10:04:21.998Z</time></trkpt><trkpt lat="44.88405629601429" lon="5.798238628014204"><ele>637.75</ele><time>2026-04-25T10:04:22.998Z</time></trkpt><trkpt lat="44.883958083448384" lon="5.798378377837779"><ele>638.0</ele><time>2026-04-25T10:04:23.998Z</time></trkpt><trkpt lat="44.88389234986441" lon="5.798573038733809"><ele>638.0</ele><time>2026-04-25T10:04:24.998Z</time></trkpt><trkpt lat="44.88385791682935" lon="5.798766439787122"><ele>638.0</ele><time>2026-04-25T10:04:25.998Z</time></trkpt><trkpt lat="44.88392962878884" lon="5.798962265339841"><ele>638.0</ele><time>2026-04-25T10:04:26.998Z</time></trkpt><trkpt lat="44.88405507256944" lon="5.79911327538152"><ele>638.0</ele><time>2026-04-25T10:04:27.998Z</time></trkpt><trkpt lat="44.884229565693154" lon="5.799208505908108"><ele>638.0</ele><time>2026-04-25T10:04:28.998Z</time></trkpt><trkpt lat="44.88438271630534" lon="5.799355966216078"><ele>638.0</ele><time>2026-04-25T10:04:29.998Z</time></trkpt><trkpt lat="44.88451784941067" lon="5.799584750901571"><ele>646.3333333333333</ele><time>2026-04-25T10:04:30.998Z</time></trkpt><trkpt lat="44.88464497710238" lon="5.799839897545566"><ele>654.6666666666666</ele><time>2026-04-25T10:04:31.998Z</time></trkpt><trkpt lat="44.884669210116265" lon="5.8001281426868445"><ele>663.0</ele><time>2026-04-25T10:04:32.998Z</time></trkpt><trkpt lat="44.88465546134453" lon="5.800398461986596"><ele>663.0</ele><time>2026-04-25T10:04:33.998Z</time></trkpt><trkpt lat="44.884615478166445" lon="5.8006988696167054"><ele>663.0</ele><time>2026-04-25T10:04:34.998Z</time></trkpt><trkpt lat="44.88458346149959" lon="5.800956031467945"><ele>663.0</ele><time>2026-04-25T10:04:35.998Z</time></trkpt><trkpt lat="44.88452986129721" lon="5.801169169965659"><ele>660.25</ele><time>2026-04-25T10:04:36.998Z</time></trkpt><trkpt lat="44.884505596236984" lon="5.801359691524031"><ele>657.5</ele><time>2026-04-25T10:04:37.998Z</time></trkpt><trkpt lat="44.884534913675836" lon="5.801528708710423"><ele>654.75</ele><time>2026-04-25T10:04:38.998Z</time></trkpt><trkpt lat="44.88461620179079" lon="5.801652969682978"><ele>652.0</ele><time>2026-04-25T10:04:39.998Z</time></trkpt><trkpt lat="44.88473671135477" lon="5.80169761935176"><ele>652.0</ele><time>2026-04-25T10:04:40.998Z</time></trkpt><trkpt lat="44.88486642269259" lon="5.801681989495779"><ele>652.0</ele><time>2026-04-25T10:04:42Z</time></trkpt><trkpt lat="44.88498200687263" lon="5.801592237842353"><ele>652.0</ele><time>2026-04-25T10:04:43Z</time></trkpt><trkpt lat="44.88508029469929" lon="5.80150620144379"><ele>652.0</ele><time>2026-04-25T10:04:44Z</time></trkpt><trkpt lat="44.88517390455315" lon="5.801409312545826"><ele>656.0</ele><time>2026-04-25T10:04:45Z</time></trkpt><trkpt lat="44.88527101403107" lon="5.801343468884221"><ele>660.0</ele><time>2026-04-25T10:04:46Z</time></trkpt><trkpt lat="44.88538124772371" lon="5.801323771883669"><ele>664.0</ele><time>2026-04-25T10:04:47Z</time></trkpt><trkpt lat="44.88548758629525" lon="5.801360669073965"><ele>668.0</ele><time>2026-04-25T10:04:48Z</time></trkpt><trkpt lat="44.88558773973896" lon="5.801459177478404"><ele>668.0</ele><time>2026-04-25T10:04:49Z</time></trkpt><trkpt lat="44.885662007134236" lon="5.801588111386502"><ele>668.0</ele><time>2026-04-25T10:04:50Z</time></trkpt><trkpt lat="44.88572275427803" lon="5.80172013172614"><ele>668.0</ele><time>2026-04-25T10:04:51Z</time></trkpt><trkpt lat="44.8858099735061" lon="5.8018799967061545"><ele>668.0</ele><time>2026-04-25T10:04:52Z</time></trkpt><trkpt lat="44.88597515289891" lon="5.802014154018625"><ele>669.5</ele><time>2026-04-25T10:04:53Z</time></trkpt><trkpt lat="44.88617504176211" lon="5.802129540626586"><ele>671.0</ele><time>2026-04-25T10:04:54Z</time></trkpt><trkpt lat="44.8864051237944" lon="5.802237030409043"><ele>671.0</ele><time>2026-04-25T10:04:55Z</time></trkpt><trkpt lat="44.886624015967314" lon="5.802390945231353"><ele>671.0</ele><time>2026-04-25T10:04:56Z</time></trkpt><trkpt lat="44.88680595570762" lon="5.802538485637315"><ele>678.3333333333333</ele><time>2026-04-25T10:04:57Z</time></trkpt><trkpt lat="44.88694511928482" lon="5.802678945983452"><ele>685.6666666666666</ele><time>2026-04-25T10:04:58Z</time></trkpt><trkpt lat="44.88703065062886" lon="5.8028568247535945"><ele>693.0</ele><time>2026-04-25T10:04:59Z</time></trkpt><trkpt lat="44.887077234809304" lon="5.803102831481727"><ele>693.0</ele><time>2026-04-25T10:05:00Z</time></trkpt><trkpt lat="44.88719413114124" lon="5.8033243052889985"><ele>693.0</ele><time>2026-04-25T10:05:01Z</time></trkpt><trkpt lat="44.887361570108546" lon="5.803488969460798"><ele>693.0</ele><time>2026-04-25T10:05:02Z</time></trkpt><trkpt lat="44.887427992938626" lon="5.80370252542873"><ele>696.6666666666666</ele><time>2026-04-25T10:05:03Z</time></trkpt><trkpt lat="44.88745884605807" lon="5.803906998954815"><ele>700.3333333333333</ele><time>2026-04-25T10:05:04Z</time></trkpt><trkpt lat="44.88754002850916" lon="5.804081558288063"><ele>704.0</ele><time>2026-04-25T10:05:05Z</time></trkpt><trkpt lat="44.88765365623183" lon="5.804245560517024"><ele>695.0</ele><time>2026-04-25T10:05:06Z</time></trkpt><trkpt lat="44.88783123755884" lon="5.804384065860356"><ele>686.0</ele><time>2026-04-25T10:05:07Z</time></trkpt><trkpt lat="44.88802073706765" lon="5.804504603969407"><ele>677.0</ele><time>2026-04-25T10:05:08Z</time></trkpt><trkpt lat="44.888223880613786" lon="5.804576805705683"><ele>686.5</ele><time>2026-04-25T10:05:09Z</time></trkpt><trkpt lat="44.888468502634815" lon="5.804615389440739"><ele>696.0</ele><time>2026-04-25T10:05:10Z</time></trkpt><trkpt lat="44.888717340894296" lon="5.80472402297602"><ele>696.0</ele><time>2026-04-25T10:05:11Z</time></trkpt><trkpt lat="44.88895556860535" lon="5.804839591965141"><ele>696.0</ele><time>2026-04-25T10:05:12Z</time></trkpt><trkpt lat="44.889147105593224" lon="5.804992002245873"><ele>694.0</ele><time>2026-04-25T10:05:13Z</time></trkpt><trkpt lat="44.889325138911985" lon="5.805144823059724"><ele>692.0</ele><time>2026-04-25T10:05:14Z</time></trkpt><trkpt lat="44.88949266349396" lon="5.805291730940901"><ele>690.0</ele><time>2026-04-25T10:05:15Z</time></trkpt><trkpt lat="44.889649407869385" lon="5.8054233886153614"><ele>690.0</ele><time>2026-04-25T10:05:16Z</time></trkpt><trkpt lat="44.889813451683736" lon="5.805485275574077"><ele>690.0</ele><time>2026-04-25T10:05:17Z</time></trkpt><trkpt lat="44.890008653414945" lon="5.805464030422254"><ele>690.0</ele><time>2026-04-25T10:05:18Z</time></trkpt><trkpt lat="44.89022977145112" lon="5.805366854740529"><ele>689.0</ele><time>2026-04-25T10:05:19Z</time></trkpt><trkpt lat="44.89044625951884" lon="5.8052096446081"><ele>688.0</ele><time>2026-04-25T10:05:20Z</time></trkpt><trkpt lat="44.89063446297962" lon="5.805010905608842"><ele>695.0</ele><time>2026-04-25T10:05:21Z</time></trkpt><trkpt lat="44.89080248634617" lon="5.804785277584531"><ele>702.0</ele><time>2026-04-25T10:05:22Z</time></trkpt><trkpt lat="44.890954668724596" lon="5.804584568196819"><ele>709.0</ele><time>2026-04-25T10:05:23Z</time></trkpt><trkpt lat="44.89111761371634" lon="5.80450419169263"><ele>710.0</ele><time>2026-04-25T10:05:24Z</time></trkpt><trkpt lat="44.89129703442736" lon="5.804474813734281"><ele>711.0</ele><time>2026-04-25T10:05:25Z</time></trkpt><trkpt lat="44.89148710285361" lon="5.804525105163316"><ele>712.0</ele><time>2026-04-25T10:05:26Z</time></trkpt><trkpt lat="44.89168615425905" lon="5.804633475648537"><ele>716.0</ele><time>2026-04-25T10:05:26.999Z</time></trkpt><trkpt lat="44.891855215856" lon="5.8048178160107256"><ele>720.0</ele><time>2026-04-25T10:05:27.999Z</time></trkpt><trkpt lat="44.89199416329415" lon="5.805057718212329"><ele>724.0</ele><time>2026-04-25T10:05:28.999Z</time></trkpt><trkpt lat="44.89208917946031" lon="5.8053411647012005"><ele>724.0</ele><time>2026-04-25T10:05:29.999Z</time></trkpt><trkpt lat="44.89216748254903" lon="5.805632836858709"><ele>724.0</ele><time>2026-04-25T10:05:30.999Z</time></trkpt><trkpt lat="44.89228045142928" lon="5.8058769358142674"><ele>724.0</ele><time>2026-04-25T10:05:31.999Z</time></trkpt><trkpt lat="44.89241897262971" lon="5.806097696230287"><ele>725.0</ele><time>2026-04-25T10:05:32.999Z</time></trkpt><trkpt lat="44.89261528984196" lon="5.806294278041213"><ele>726.0</ele><time>2026-04-25T10:05:33.999Z</time></trkpt><trkpt lat="44.89283611378399" lon="5.806488063414433"><ele>726.0</ele><time>2026-04-25T10:05:34.999Z</time></trkpt><trkpt lat="44.89303129219956" lon="5.8066725309419525"><ele>726.0</ele><time>2026-04-25T10:05:35.999Z</time></trkpt><trkpt lat="44.89319545328307" lon="5.806839764571241"><ele>726.0</ele><time>2026-04-25T10:05:36.999Z</time></trkpt><trkpt lat="44.89335640699832" lon="5.806954644629551"><ele>722.6666666666666</ele><time>2026-04-25T10:05:37.999Z</time></trkpt><trkpt lat="44.89354897575711" lon="5.807011348909889"><ele>719.3333333333333</ele><time>2026-04-25T10:05:38.999Z</time></trkpt><trkpt lat="44.893761073817934" lon="5.807016502817319"><ele>716.0</ele><time>2026-04-25T10:05:39.999Z</time></trkpt><trkpt lat="44.89398170553031" lon="5.806951547914472"><ele>724.5</ele><time>2026-04-25T10:05:40.999Z</time></trkpt><trkpt lat="44.8941997585826" lon="5.806823298991404"><ele>733.0</ele><time>2026-04-25T10:05:41.999Z</time></trkpt><trkpt lat="44.89440442038007" lon="5.806672400671506"><ele>734.0</ele><time>2026-04-25T10:05:42.999Z</time></trkpt><trkpt lat="44.89461928243015" lon="5.806562991382623"><ele>735.0</ele><time>2026-04-25T10:05:43.999Z</time></trkpt><trkpt lat="44.89481821050979" lon="5.806552124436865"><ele>736.0</ele><time>2026-04-25T10:05:44.999Z</time></trkpt><trkpt lat="44.89501554296297" lon="5.8065348726736055"><ele>739.6666666666667</ele><time>2026-04-25T10:05:45.999Z</time></trkpt><trkpt lat="44.89523499314577" lon="5.806592854537589"><ele>743.3333333333334</ele><time>2026-04-25T10:05:46.999Z</time></trkpt><trkpt lat="44.895446788084" lon="5.806684545937777"><ele>747.0</ele><time>2026-04-25T10:05:47.999Z</time></trkpt><trkpt lat="44.8956541991204" lon="5.806818873607695"><ele>748.0</ele><time>2026-04-25T10:05:48.999Z</time></trkpt><trkpt lat="44.89583280288165" lon="5.806989418635917"><ele>749.0</ele><time>2026-04-25T10:05:49.999Z</time></trkpt><trkpt lat="44.89599540820278" lon="5.807169824908468"><ele>750.0</ele><time>2026-04-25T10:05:50.999Z</time></trkpt><trkpt lat="44.89615449384284" lon="5.807358039375406"><ele>750.0</ele><time>2026-04-25T10:05:51.999Z</time></trkpt><trkpt lat="44.896304098121924" lon="5.807520243072989"><ele>750.0</ele><time>2026-04-25T10:05:52.999Z</time></trkpt><trkpt lat="44.89644221000349" lon="5.807666937534018"><ele>750.0</ele><time>2026-04-25T10:05:53.999Z</time></trkpt><trkpt lat="44.896566186619616" lon="5.807796524570329"><ele>748.6</ele><time>2026-04-25T10:05:54.999Z</time></trkpt><trkpt lat="44.896675807016145" lon="5.807902689812684"><ele>747.2</ele><time>2026-04-25T10:05:55.999Z</time></trkpt><trkpt lat="44.89677850456286" lon="5.8079825282765585"><ele>745.8</ele><time>2026-04-25T10:05:56.999Z</time></trkpt><trkpt lat="44.89687258030586" lon="5.808028022729285"><ele>744.4</ele><time>2026-04-25T10:05:57.999Z</time></trkpt><trkpt lat="44.89695556165291" lon="5.808056767402294"><ele>743.0</ele><time>2026-04-25T10:05:58.999Z</time></trkpt><trkpt lat="44.89702879539059" lon="5.808081732952202"><ele>743.0</ele><time>2026-04-25T10:05:59.999Z</time></trkpt><trkpt lat="44.897102515605624" lon="5.808085922943334"><ele>743.0</ele><time>2026-04-25T10:06:00.999Z</time></trkpt><trkpt lat="44.897217306407406" lon="5.808066309041591"><ele>743.0</ele><time>2026-04-25T10:06:02.999Z</time></trkpt><trkpt lat="44.897282534348584" lon="5.808007312221552"><ele>743.0</ele><time>2026-04-25T10:06:03.999Z</time></trkpt><trkpt lat="44.89735022654161" lon="5.807920126617484"><ele>743.0</ele><time>2026-04-25T10:06:04.999Z</time></trkpt><trkpt lat="44.89743392826138" lon="5.807792015611658"><ele>744.3333333333333</ele><time>2026-04-25T10:06:05.999Z</time></trkpt><trkpt lat="44.89754119391631" lon="5.807641785553397"><ele>745.6666666666666</ele><time>2026-04-25T10:06:06.999Z</time></trkpt><trkpt lat="44.897663929508184" lon="5.807481638781117"><ele>747.0</ele><time>2026-04-25T10:06:07.999Z</time></trkpt><trkpt lat="44.89780115390325" lon="5.807301914695961"><ele>747.0</ele><time>2026-04-25T10:06:08.999Z</time></trkpt><trkpt lat="44.897959692160306" lon="5.8070930596981825"><ele>747.0</ele><time>2026-04-25T10:06:09.999Z</time></trkpt><trkpt lat="44.89812565458257" lon="5.806850422301387"><ele>747.5</ele><time>2026-04-25T10:06:10.999Z</time></trkpt><trkpt lat="44.898289752024304" lon="5.806586360256816"><ele>748.0</ele><time>2026-04-25T10:06:11.999Z</time></trkpt><trkpt lat="44.8984376271496" lon="5.806304316139818"><ele>748.0</ele><time>2026-04-25T10:06:12.999Z</time></trkpt><trkpt lat="44.898562980418525" lon="5.8060002605770995"><ele>748.0</ele><time>2026-04-25T10:06:13.999Z</time></trkpt><trkpt lat="44.89867051862303" lon="5.805663804282101"><ele>754.5</ele><time>2026-04-25T10:06:14.999Z</time></trkpt><trkpt lat="44.898760211844575" lon="5.805336577885275"><ele>761.0</ele><time>2026-04-25T10:06:15.999Z</time></trkpt><trkpt lat="44.89882764244667" lon="5.805021699105003"><ele>765.5</ele><time>2026-04-25T10:06:16.999Z</time></trkpt><trkpt lat="44.89888809322689" lon="5.80468491946328"><ele>770.0</ele><time>2026-04-25T10:06:17.999Z</time></trkpt><trkpt lat="44.89891987995121" lon="5.804337029483276"><ele>772.5</ele><time>2026-04-25T10:06:18.999Z</time></trkpt><trkpt lat="44.89897405590565" lon="5.80398597685016"><ele>775.0</ele><time>2026-04-25T10:06:19.999Z</time></trkpt><trkpt lat="44.89895391833572" lon="5.803622944382748"><ele>777.5</ele><time>2026-04-25T10:06:20.999Z</time></trkpt><trkpt lat="44.89894381362805" lon="5.803263830046082"><ele>780.0</ele><time>2026-04-25T10:06:21.999Z</time></trkpt><trkpt lat="44.89897578421992" lon="5.802911274979804"><ele>784.0</ele><time>2026-04-25T10:06:22.999Z</time></trkpt><trkpt lat="44.89904275062813" lon="5.802571053458827"><ele>788.0</ele><time>2026-04-25T10:06:23.999Z</time></trkpt><trkpt lat="44.89915251850533" lon="5.8022542697788815"><ele>791.5</ele><time>2026-04-25T10:06:24.998Z</time></trkpt><trkpt lat="44.89928662490315" lon="5.801954542021457"><ele>795.0</ele><time>2026-04-25T10:06:25.998Z</time></trkpt><trkpt lat="44.899418243799126" lon="5.801648537712129"><ele>795.5</ele><time>2026-04-25T10:06:26.998Z</time></trkpt><trkpt lat="44.899539225429805" lon="5.801341938576906"><ele>796.0</ele><time>2026-04-25T10:06:27.998Z</time></trkpt><trkpt lat="44.899663437902646" lon="5.801078584790899"><ele>796.6666666666666</ele><time>2026-04-25T10:06:28.998Z</time></trkpt><trkpt lat="44.899827536303306" lon="5.800889456426121"><ele>797.3333333333333</ele><time>2026-04-25T10:06:29.998Z</time></trkpt><trkpt lat="44.900040952594786" lon="5.80077943510815"><ele>798.0</ele><time>2026-04-25T10:06:30.998Z</time></trkpt><trkpt lat="44.90026730214552" lon="5.8007037451263885"><ele>799.3333333333333</ele><time>2026-04-25T10:06:31.998Z</time></trkpt><trkpt lat="44.90048146235709" lon="5.800619272751787"><ele>800.6666666666666</ele><time>2026-04-25T10:06:32.998Z</time></trkpt><trkpt lat="44.90067131712334" lon="5.800518506178597"><ele>802.0</ele><time>2026-04-25T10:06:33.998Z</time></trkpt><trkpt lat="44.900846769512775" lon="5.800376171784519"><ele>803.0</ele><time>2026-04-25T10:06:34.998Z</time></trkpt><trkpt lat="44.90100808125952" lon="5.800174062080226"><ele>804.0</ele><time>2026-04-25T10:06:35.998Z</time></trkpt><trkpt lat="44.90115562433914" lon="5.799960617865288"><ele>805.0</ele><time>2026-04-25T10:06:36.998Z</time></trkpt><trkpt lat="44.901297875402605" lon="5.799784219497031"><ele>805.3333333333333</ele><time>2026-04-25T10:06:37.998Z</time></trkpt><trkpt lat="44.901420181160155" lon="5.799620957176212"><ele>805.6666666666667</ele><time>2026-04-25T10:06:38.998Z</time></trkpt><trkpt lat="44.90152193548405" lon="5.799452637723286"><ele>806.0</ele><time>2026-04-25T10:06:39.998Z</time></trkpt><trkpt lat="44.90160431839141" lon="5.799290019905584"><ele>806.1999999999999</ele><time>2026-04-25T10:06:40.998Z</time></trkpt><trkpt lat="44.901670033177986" lon="5.799151531424039"><ele>806.4</ele><time>2026-04-25T10:06:41.998Z</time></trkpt><trkpt lat="44.90172533738483" lon="5.799017351742536"><ele>806.6</ele><time>2026-04-25T10:06:42.998Z</time></trkpt><trkpt lat="44.901788882601544" lon="5.798917258462958"><ele>806.8</ele><time>2026-04-25T10:06:43.998Z</time></trkpt><trkpt lat="44.9018739244035" lon="5.798881140699474"><ele>807.0</ele><time>2026-04-25T10:06:44.998Z</time></trkpt><trkpt lat="44.901965249954635" lon="5.798882808376943"><ele>807.2</ele><time>2026-04-25T10:06:45.998Z</time></trkpt><trkpt lat="44.902036657031715" lon="5.798827005555324"><ele>807.4000000000001</ele><time>2026-04-25T10:06:46.998Z</time></trkpt><trkpt lat="44.90205723279517" lon="5.798721936654832"><ele>807.5999999999999</ele><time>2026-04-25T10:06:48Z</time></trkpt><trkpt lat="44.902018109339664" lon="5.798592030048494"><ele>807.8</ele><time>2026-04-25T10:06:49Z</time></trkpt><trkpt lat="44.901936193267304" lon="5.798491844427539"><ele>808.0</ele><time>2026-04-25T10:06:50Z</time></trkpt><trkpt lat="44.90182450016499" lon="5.798378733390497"><ele>808.3333333333333</ele><time>2026-04-25T10:06:51Z</time></trkpt><trkpt lat="44.9017215050916" lon="5.798223321214667"><ele>808.6666666666667</ele><time>2026-04-25T10:06:52Z</time></trkpt><trkpt lat="44.901633184259495" lon="5.798054983493169"><ele>809.0</ele><time>2026-04-25T10:06:53Z</time></trkpt><trkpt lat="44.90154138112683" lon="5.797819619066557"><ele>810.0</ele><time>2026-04-25T10:06:54Z</time></trkpt><trkpt lat="44.901496072435506" lon="5.7975974332894795"><ele>811.0</ele><time>2026-04-25T10:06:55Z</time></trkpt><trkpt lat="44.90142709223318" lon="5.797404810424794"><ele>812.0</ele><time>2026-04-25T10:06:56Z</time></trkpt><trkpt lat="44.90136059210989" lon="5.797204033684392"><ele>812.0</ele><time>2026-04-25T10:06:57Z</time></trkpt><trkpt lat="44.901289940912584" lon="5.796998114181244"><ele>812.0</ele><time>2026-04-25T10:06:58Z</time></trkpt><trkpt lat="44.90123141864761" lon="5.796809243135224"><ele>812.0</ele><time>2026-04-25T10:06:59Z</time></trkpt><trkpt lat="44.90115689534451" lon="5.796619100833637"><ele>812.6666666666667</ele><time>2026-04-25T10:07:00Z</time></trkpt><trkpt lat="44.901096494542244" lon="5.796425097525746"><ele>813.3333333333333</ele><time>2026-04-25T10:07:01Z</time></trkpt><trkpt lat="44.90103044408164" lon="5.796232881799924"><ele>814.0</ele><time>2026-04-25T10:07:02Z</time></trkpt><trkpt lat="44.90095328949869" lon="5.796038555378239"><ele>814.0</ele><time>2026-04-25T10:07:03Z</time></trkpt><trkpt lat="44.90087802260581" lon="5.7958457329163915"><ele>814.0</ele><time>2026-04-25T10:07:04Z</time></trkpt><trkpt lat="44.90079537070256" lon="5.795656724122686"><ele>814.0</ele><time>2026-04-25T10:07:05Z</time></trkpt><trkpt lat="44.90071626868201" lon="5.7954631847056355"><ele>814.0</ele><time>2026-04-25T10:07:06Z</time></trkpt><trkpt lat="44.90063765461969" lon="5.795276221542245"><ele>814.0</ele><time>2026-04-25T10:07:07Z</time></trkpt><trkpt lat="44.90055702695454" lon="5.795072819952472"><ele>814.0</ele><time>2026-04-25T10:07:08Z</time></trkpt><trkpt lat="44.900469081088566" lon="5.79488875976302"><ele>815.6666666666666</ele><time>2026-04-25T10:07:09Z</time></trkpt><trkpt lat="44.900378857029764" lon="5.794697389837633"><ele>817.3333333333333</ele><time>2026-04-25T10:07:10Z</time></trkpt><trkpt lat="44.90028911364991" lon="5.7945157116629025"><ele>819.0</ele><time>2026-04-25T10:07:11Z</time></trkpt><trkpt lat="44.90019724731554" lon="5.794327638490417"><ele>820.0</ele><time>2026-04-25T10:07:12Z</time></trkpt><trkpt lat="44.900113305938234" lon="5.794138807909049"><ele>821.0</ele><time>2026-04-25T10:07:13Z</time></trkpt><trkpt lat="44.90002779794792" lon="5.793947706687265"><ele>822.0</ele><time>2026-04-25T10:07:14Z</time></trkpt><trkpt lat="44.899944629311044" lon="5.793750144682908"><ele>822.0</ele><time>2026-04-25T10:07:15Z</time></trkpt><trkpt lat="44.899860269603245" lon="5.793565068083982"><ele>822.0</ele><time>2026-04-25T10:07:16Z</time></trkpt><trkpt lat="44.89975727003464" lon="5.793387784276935"><ele>822.0</ele><time>2026-04-25T10:07:17Z</time></trkpt><trkpt lat="44.89965249649866" lon="5.793216528506149"><ele>823.6666666666667</ele><time>2026-04-25T10:07:18Z</time></trkpt><trkpt lat="44.89956047382731" lon="5.793022502695515"><ele>825.3333333333334</ele><time>2026-04-25T10:07:19Z</time></trkpt><trkpt lat="44.89947080491013" lon="5.792824212392639"><ele>827.0</ele><time>2026-04-25T10:07:20Z</time></trkpt><trkpt lat="44.899383021313994" lon="5.792632648715462"><ele>827.0</ele><time>2026-04-25T10:07:21Z</time></trkpt><trkpt lat="44.89929276046644" lon="5.792447782305134"><ele>827.0</ele><time>2026-04-25T10:07:22Z</time></trkpt><trkpt lat="44.89919236534491" lon="5.792262642459072"><ele>827.0</ele><time>2026-04-25T10:07:23Z</time></trkpt><trkpt lat="44.89909657552335" lon="5.7920982246189165"><ele>827.5</ele><time>2026-04-25T10:07:24Z</time></trkpt><trkpt lat="44.899007595054336" lon="5.791948504586186"><ele>828.0</ele><time>2026-04-25T10:07:25Z</time></trkpt><trkpt lat="44.89893428182332" lon="5.791822811269686"><ele>828.5</ele><time>2026-04-25T10:07:26Z</time></trkpt><trkpt lat="44.89886441260818" lon="5.791703797705659"><ele>829.0</ele><time>2026-04-25T10:07:27Z</time></trkpt><trkpt lat="44.898815358279975" lon="5.79156381291401"><ele>829.75</ele><time>2026-04-25T10:07:28Z</time></trkpt><trkpt lat="44.89878018215496" lon="5.791426354276877"><ele>830.5</ele><time>2026-04-25T10:07:29Z</time></trkpt><trkpt lat="44.89870330514254" lon="5.791319518955395"><ele>831.25</ele><time>2026-04-25T10:07:30Z</time></trkpt><trkpt lat="44.89859079971911" lon="5.791243586908629"><ele>832.0</ele><time>2026-04-25T10:07:30.999Z</time></trkpt><trkpt lat="44.89846986356677" lon="5.791163469574924"><ele>833.5</ele><time>2026-04-25T10:07:31.999Z</time></trkpt><trkpt lat="44.89836185766183" lon="5.791058499038513"><ele>835.0</ele><time>2026-04-25T10:07:32.999Z</time></trkpt><trkpt lat="44.898256731958895" lon="5.790958652761704"><ele>836.5</ele><time>2026-04-25T10:07:33.999Z</time></trkpt><trkpt lat="44.89816316695791" lon="5.790878538511122"><ele>838.0</ele><time>2026-04-25T10:07:34.999Z</time></trkpt><trkpt lat="44.89808609343583" lon="5.790817332512082"><ele>838.3333333333333</ele><time>2026-04-25T10:07:35.999Z</time></trkpt><trkpt lat="44.89801814815861" lon="5.790770102778827"><ele>838.6666666666666</ele><time>2026-04-25T10:07:36.999Z</time></trkpt><trkpt lat="44.89795120043218" lon="5.790723236202104"><ele>839.0</ele><time>2026-04-25T10:07:37.999Z</time></trkpt><trkpt lat="44.89787975395936" lon="5.790669223350467"><ele>839.3333333333333</ele><time>2026-04-25T10:07:38.999Z</time></trkpt><trkpt lat="44.89780481557539" lon="5.790605936493868"><ele>839.6666666666666</ele><time>2026-04-25T10:07:39.999Z</time></trkpt><trkpt lat="44.89772197895408" lon="5.7905367716028655"><ele>840.0</ele><time>2026-04-25T10:07:40.999Z</time></trkpt><trkpt lat="44.89762306007037" lon="5.790446463444689"><ele>841.2</ele><time>2026-04-25T10:07:41.999Z</time></trkpt><trkpt lat="44.89753462140952" lon="5.790353574800933"><ele>842.4</ele><time>2026-04-25T10:07:42.999Z</time></trkpt><trkpt lat="44.89744922096129" lon="5.790265293045051"><ele>843.5999999999999</ele><time>2026-04-25T10:07:43.999Z</time></trkpt><trkpt lat="44.89736311716594" lon="5.790176045783414"><ele>844.8</ele><time>2026-04-25T10:07:44.999Z</time></trkpt><trkpt lat="44.89727694972524" lon="5.790093825280827"><ele>846.0</ele><time>2026-04-25T10:07:45.999Z</time></trkpt><trkpt lat="44.89718993520195" lon="5.790015718713971"><ele>846.3333333333334</ele><time>2026-04-25T10:07:46.999Z</time></trkpt><trkpt lat="44.897111692002234" lon="5.789934173814948"><ele>846.6666666666667</ele><time>2026-04-25T10:07:47.999Z</time></trkpt><trkpt lat="44.89704630495514" lon="5.789865344967319"><ele>847.0</ele><time>2026-04-25T10:07:48.999Z</time></trkpt><trkpt lat="44.89698692408335" lon="5.789802405838043"><ele>847.3333333333334</ele><time>2026-04-25T10:07:49.999Z</time></trkpt><trkpt lat="44.89694159142997" lon="5.789717833827573"><ele>847.6666666666667</ele><time>2026-04-25T10:07:50.999Z</time></trkpt><trkpt lat="44.89691272153954" lon="5.789618811843804"><ele>848.0</ele><time>2026-04-25T10:07:51.999Z</time></trkpt><trkpt lat="44.89686905495475" lon="5.789523095067517"><ele>848.0</ele><time>2026-04-25T10:07:52.999Z</time></trkpt><trkpt lat="44.8967935773291" lon="5.789476889017855"><ele>848.0</ele><time>2026-04-25T10:07:53.999Z</time></trkpt><trkpt lat="44.89670045663553" lon="5.789459746852345"><ele>848.0</ele><time>2026-04-25T10:07:54.999Z</time></trkpt><trkpt lat="44.896594986286686" lon="5.789401759023117"><ele>848.0</ele><time>2026-04-25T10:07:55.999Z</time></trkpt><trkpt lat="44.896498783569974" lon="5.789298921196555"><ele>848.0</ele><time>2026-04-25T10:07:56.999Z</time></trkpt><trkpt lat="44.89641622099361" lon="5.789173979296619"><ele>849.25</ele><time>2026-04-25T10:07:57.999Z</time></trkpt><trkpt lat="44.89633629650111" lon="5.789056172577768"><ele>850.5</ele><time>2026-04-25T10:07:58.999Z</time></trkpt><trkpt lat="44.89625902008931" lon="5.788944924492808"><ele>851.75</ele><time>2026-04-25T10:07:59.999Z</time></trkpt><trkpt lat="44.89618223102268" lon="5.788825637077404"><ele>853.0</ele><time>2026-04-25T10:08:00.999Z</time></trkpt><trkpt lat="44.89611900981163" lon="5.788698721816229"><ele>853.0</ele><time>2026-04-25T10:08:01.999Z</time></trkpt><trkpt lat="44.896066577781106" lon="5.788557754585425"><ele>853.0</ele><time>2026-04-25T10:08:02.999Z</time></trkpt><trkpt lat="44.896031857147975" lon="5.788408948692179"><ele>853.0</ele><time>2026-04-25T10:08:03.999Z</time></trkpt><trkpt lat="44.89600607877096" lon="5.78825181506275"><ele>853.0</ele><time>2026-04-25T10:08:04.999Z</time></trkpt><trkpt lat="44.895986005236786" lon="5.788100570891285"><ele>853.0</ele><time>2026-04-25T10:08:05.999Z</time></trkpt><trkpt lat="44.89597035560036" lon="5.787945627228227"><ele>853.5</ele><time>2026-04-25T10:08:06.999Z</time></trkpt><trkpt lat="44.89595542259694" lon="5.787788281155085"><ele>854.0</ele><time>2026-04-25T10:08:07.999Z</time></trkpt><trkpt lat="44.895943839659225" lon="5.787629627932837"><ele>854.5</ele><time>2026-04-25T10:08:08.999Z</time></trkpt><trkpt lat="44.895927947170534" lon="5.787469924702318"><ele>855.0</ele><time>2026-04-25T10:08:09.999Z</time></trkpt><trkpt lat="44.895914419261416" lon="5.78730694611321"><ele>856.75</ele><time>2026-04-25T10:08:10.999Z</time></trkpt><trkpt lat="44.89590348825961" lon="5.787148505318956"><ele>858.5</ele><time>2026-04-25T10:08:11.999Z</time></trkpt><trkpt lat="44.89589185408505" lon="5.7869875099669255"><ele>860.25</ele><time>2026-04-25T10:08:12.999Z</time></trkpt><trkpt lat="44.89588327194952" lon="5.786827191864511"><ele>862.0</ele><time>2026-04-25T10:08:13.999Z</time></trkpt><trkpt lat="44.895877772612174" lon="5.786663893466124"><ele>862.0</ele><time>2026-04-25T10:08:14.999Z</time></trkpt><trkpt lat="44.89587606265491" lon="5.786502843052492"><ele>862.0</ele><time>2026-04-25T10:08:15.999Z</time></trkpt><trkpt lat="44.895876703731886" lon="5.786348685715807"><ele>862.0</ele><time>2026-04-25T10:08:16.999Z</time></trkpt><trkpt lat="44.895889484557834" lon="5.786209523952962"><ele>862.0</ele><time>2026-04-25T10:08:17.999Z</time></trkpt><trkpt lat="44.895923897342996" lon="5.786104366565681"><ele>862.0</ele><time>2026-04-25T10:08:18.999Z</time></trkpt><trkpt lat="44.895959168959045" lon="5.78600375866717"><ele>862.75</ele><time>2026-04-25T10:08:19.999Z</time></trkpt><trkpt lat="44.89595411428177" lon="5.78586493741007"><ele>863.5</ele><time>2026-04-25T10:08:20.999Z</time></trkpt><trkpt lat="44.89591272456919" lon="5.785709249072875"><ele>864.25</ele><time>2026-04-25T10:08:21.999Z</time></trkpt><trkpt lat="44.89588129006871" lon="5.785520896574475"><ele>865.0</ele><time>2026-04-25T10:08:22.999Z</time></trkpt><trkpt lat="44.895874065117575" lon="5.785306693884652"><ele>866.3333333333333</ele><time>2026-04-25T10:08:23.999Z</time></trkpt><trkpt lat="44.895882220549176" lon="5.785082623613185"><ele>867.6666666666667</ele><time>2026-04-25T10:08:24.999Z</time></trkpt><trkpt lat="44.89589148201943" lon="5.784853535674124"><ele>869.0</ele><time>2026-04-25T10:08:25.999Z</time></trkpt><trkpt lat="44.895955238598006" lon="5.784627129050107"><ele>869.0</ele><time>2026-04-25T10:08:26.999Z</time></trkpt><trkpt lat="44.896022547547275" lon="5.784411401891076"><ele>869.0</ele><time>2026-04-25T10:08:27.998Z</time></trkpt><trkpt lat="44.89610924326964" lon="5.784213719493681"><ele>869.0</ele><time>2026-04-25T10:08:28.998Z</time></trkpt><trkpt lat="44.89620613370301" lon="5.784033159298743"><ele>870.3333333333334</ele><time>2026-04-25T10:08:29.998Z</time></trkpt><trkpt lat="44.896311473522125" lon="5.783866237051632"><ele>871.6666666666667</ele><time>2026-04-25T10:08:30.998Z</time></trkpt><trkpt lat="44.896422655768" lon="5.783706459530059"><ele>873.0</ele><time>2026-04-25T10:08:31.998Z</time></trkpt><trkpt lat="44.89653357392977" lon="5.783544695371447"><ele>875.3333333333333</ele><time>2026-04-25T10:08:32.998Z</time></trkpt><trkpt lat="44.89664279466388" lon="5.783379138199508"><ele>877.6666666666666</ele><time>2026-04-25T10:08:33.998Z</time></trkpt><trkpt lat="44.89675067911543" lon="5.783208833651826"><ele>880.0</ele><time>2026-04-25T10:08:34.998Z</time></trkpt><trkpt lat="44.8968587399752" lon="5.783043375320994"><ele>880.0</ele><time>2026-04-25T10:08:35.998Z</time></trkpt><trkpt lat="44.896971747275806" lon="5.7828787347460935"><ele>880.0</ele><time>2026-04-25T10:08:36.998Z</time></trkpt><trkpt lat="44.8970890540822" lon="5.782731078860816"><ele>880.0</ele><time>2026-04-25T10:08:37.998Z</time></trkpt><trkpt lat="44.897219209642984" lon="5.782599863167386"><ele>879.6666666666666</ele><time>2026-04-25T10:08:38.998Z</time></trkpt><trkpt lat="44.89736187278244" lon="5.782487388412979"><ele>879.3333333333333</ele><time>2026-04-25T10:08:39.998Z</time></trkpt><trkpt lat="44.89750665726701" lon="5.782391586588911"><ele>879.0</ele><time>2026-04-25T10:08:40.998Z</time></trkpt><trkpt lat="44.897653730499556" lon="5.782303182530839"><ele>879.0</ele><time>2026-04-25T10:08:41.998Z</time></trkpt><trkpt lat="44.89780205516963" lon="5.782219340576682"><ele>879.0</ele><time>2026-04-25T10:08:42.998Z</time></trkpt><trkpt lat="44.89795141549789" lon="5.7821269774245705"><ele>879.0</ele><time>2026-04-25T10:08:43.998Z</time></trkpt><trkpt lat="44.89810064860796" lon="5.782033941426328"><ele>879.0</ele><time>2026-04-25T10:08:44.998Z</time></trkpt><trkpt lat="44.89825229079823" lon="5.781938655320703"><ele>879.0</ele><time>2026-04-25T10:08:45.998Z</time></trkpt><trkpt lat="44.898403741224584" lon="5.781849019196792"><ele>879.0</ele><time>2026-04-25T10:08:46.998Z</time></trkpt><trkpt lat="44.89855411381604" lon="5.781757666130161"><ele>879.6666666666667</ele><time>2026-04-25T10:08:47.998Z</time></trkpt><trkpt lat="44.89870603203252" lon="5.781676257222156"><ele>880.3333333333334</ele><time>2026-04-25T10:08:48.998Z</time></trkpt><trkpt lat="44.898859208212876" lon="5.781615531669309"><ele>881.0</ele><time>2026-04-25T10:08:49.998Z</time></trkpt><trkpt lat="44.89902373291528" lon="5.781579376816861"><ele>881.0</ele><time>2026-04-25T10:08:50.998Z</time></trkpt><trkpt lat="44.8991950389248" lon="5.781577696745994"><ele>881.0</ele><time>2026-04-25T10:08:51.998Z</time></trkpt><trkpt lat="44.899376633860186" lon="5.78160618031662"><ele>881.0</ele><time>2026-04-25T10:08:52.998Z</time></trkpt><trkpt lat="44.89955965216461" lon="5.7816706505470785"><ele>879.0</ele><time>2026-04-25T10:08:54Z</time></trkpt><trkpt lat="44.89973623970848" lon="5.781732480424381"><ele>877.0</ele><time>2026-04-25T10:08:55Z</time></trkpt><trkpt lat="44.89990008024462" lon="5.781793034109488"><ele>875.0</ele><time>2026-04-25T10:08:56Z</time></trkpt><trkpt lat="44.90005306572563" lon="5.781848055305139"><ele>874.25</ele><time>2026-04-25T10:08:57Z</time></trkpt><trkpt lat="44.900195917318975" lon="5.781898503547421"><ele>873.5</ele><time>2026-04-25T10:08:58Z</time></trkpt><trkpt lat="44.900326700837674" lon="5.781934588128941"><ele>872.75</ele><time>2026-04-25T10:08:59Z</time></trkpt><trkpt lat="44.900451711259784" lon="5.781973295091504"><ele>872.0</ele><time>2026-04-25T10:09:00Z</time></trkpt><trkpt lat="44.90057061763211" lon="5.7820015252654615"><ele>872.0000000000001</ele><time>2026-04-25T10:09:01Z</time></trkpt><trkpt lat="44.90067622519041" lon="5.782003320123162"><ele>872.0</ele><time>2026-04-25T10:09:02Z</time></trkpt><trkpt lat="44.900769469229566" lon="5.7820031498650675"><ele>872.0</ele><time>2026-04-25T10:09:03Z</time></trkpt><trkpt lat="44.9008461308848" lon="5.782019186024496"><ele>872.0</ele><time>2026-04-25T10:09:04Z</time></trkpt><trkpt lat="44.900915817284435" lon="5.782060943374321"><ele>872.0000000000001</ele><time>2026-04-25T10:09:05Z</time></trkpt><trkpt lat="44.90098552567775" lon="5.782054622907419"><ele>872.0</ele><time>2026-04-25T10:09:06Z</time></trkpt><trkpt lat="44.90103659436139" lon="5.781994318902169"><ele>871.25</ele><time>2026-04-25T10:09:07Z</time></trkpt><trkpt lat="44.90105113362094" lon="5.781890898275633"><ele>870.5</ele><time>2026-04-25T10:09:08Z</time></trkpt><trkpt lat="44.900945441984724" lon="5.781690691646993"><ele>869.75</ele><time>2026-04-25T10:09:10Z</time></trkpt><trkpt lat="44.90087377637397" lon="5.781579254314644"><ele>869.0</ele><time>2026-04-25T10:09:11Z</time></trkpt><trkpt lat="44.90082314940417" lon="5.781432065387653"><ele>868.75</ele><time>2026-04-25T10:09:12Z</time></trkpt><trkpt lat="44.90076696355336" lon="5.781263568454006"><ele>868.5</ele><time>2026-04-25T10:09:13Z</time></trkpt><trkpt lat="44.90070521459071" lon="5.7810970509413"><ele>868.25</ele><time>2026-04-25T10:09:14Z</time></trkpt><trkpt lat="44.900643364880246" lon="5.78093913444301"><ele>868.0</ele><time>2026-04-25T10:09:15Z</time></trkpt><trkpt lat="44.90058133117151" lon="5.78078466968549"><ele>867.5</ele><time>2026-04-25T10:09:16Z</time></trkpt><trkpt lat="44.900508856312534" lon="5.780644092726141"><ele>867.0</ele><time>2026-04-25T10:09:17Z</time></trkpt><trkpt lat="44.900408484942105" lon="5.78053179122607"><ele>866.5</ele><time>2026-04-25T10:09:18Z</time></trkpt><trkpt lat="44.90028238975281" lon="5.780451203943884"><ele>866.0</ele><time>2026-04-25T10:09:19Z</time></trkpt><trkpt lat="44.900154641155055" lon="5.780370101659569"><ele>865.75</ele><time>2026-04-25T10:09:20Z</time></trkpt><trkpt lat="44.900030693453495" lon="5.7803285955471395"><ele>865.5</ele><time>2026-04-25T10:09:21Z</time></trkpt><trkpt lat="44.89992695851518" lon="5.780226110533486"><ele>865.25</ele><time>2026-04-25T10:09:22Z</time></trkpt><trkpt lat="44.899857746278016" lon="5.780077291163448"><ele>865.0</ele><time>2026-04-25T10:09:23Z</time></trkpt><trkpt lat="44.89983419293891" lon="5.779911910548655"><ele>865.5</ele><time>2026-04-25T10:09:24Z</time></trkpt><trkpt lat="44.89986235985075" lon="5.779735336884775"><ele>866.0</ele><time>2026-04-25T10:09:25Z</time></trkpt><trkpt lat="44.899914029734276" lon="5.7795791997128445"><ele>866.5</ele><time>2026-04-25T10:09:26Z</time></trkpt><trkpt lat="44.89997936466091" lon="5.779413069701828"><ele>867.0</ele><time>2026-04-25T10:09:27Z</time></trkpt><trkpt lat="44.900056704388405" lon="5.779211496482968"><ele>874.3333333333333</ele><time>2026-04-25T10:09:28Z</time></trkpt><trkpt lat="44.90014006644635" lon="5.778987604026572"><ele>881.6666666666666</ele><time>2026-04-25T10:09:29Z</time></trkpt><trkpt lat="44.900224022810676" lon="5.778772077011269"><ele>889.0</ele><time>2026-04-25T10:09:30Z</time></trkpt><trkpt lat="44.90032700500172" lon="5.778551665784499"><ele>884.0</ele><time>2026-04-25T10:09:31Z</time></trkpt><trkpt lat="44.90045787249796" lon="5.778335915042659"><ele>879.0</ele><time>2026-04-25T10:09:32Z</time></trkpt><trkpt lat="44.90060229559278" lon="5.778105873801073"><ele>874.0</ele><time>2026-04-25T10:09:33Z</time></trkpt><trkpt lat="44.90074845962218" lon="5.777844677863932"><ele>876.0</ele><time>2026-04-25T10:09:34Z</time></trkpt><trkpt lat="44.900872198403334" lon="5.77757973544825"><ele>878.0</ele><time>2026-04-25T10:09:35Z</time></trkpt><trkpt lat="44.900970103306825" lon="5.777317266977829"><ele>880.0</ele><time>2026-04-25T10:09:36Z</time></trkpt><trkpt lat="44.901058390300975" lon="5.777054681795791"><ele>876.6666666666666</ele><time>2026-04-25T10:09:37Z</time></trkpt><trkpt lat="44.90112021300369" lon="5.776792907438182"><ele>873.3333333333333</ele><time>2026-04-25T10:09:37.999Z</time></trkpt><trkpt lat="44.9011483625001" lon="5.776504614442034"><ele>870.0</ele><time>2026-04-25T10:09:38.999Z</time></trkpt><trkpt lat="44.901148687764994" lon="5.776188388653325"><ele>868.5</ele><time>2026-04-25T10:09:39.999Z</time></trkpt><trkpt lat="44.901109137465774" lon="5.7758612866832575"><ele>867.0</ele><time>2026-04-25T10:09:40.999Z</time></trkpt><trkpt lat="44.901032611323195" lon="5.775520265087725"><ele>866.5</ele><time>2026-04-25T10:09:41.999Z</time></trkpt><trkpt lat="44.90093818834683" lon="5.7751581769777305"><ele>866.0</ele><time>2026-04-25T10:09:42.999Z</time></trkpt><trkpt lat="44.90085293586664" lon="5.774804813792011"><ele>864.0</ele><time>2026-04-25T10:09:43.999Z</time></trkpt><trkpt lat="44.90078125478206" lon="5.774492131058229"><ele>862.0</ele><time>2026-04-25T10:09:44.999Z</time></trkpt><trkpt lat="44.9007240924334" lon="5.7742070899624975"><ele>860.0</ele><time>2026-04-25T10:09:45.999Z</time></trkpt><trkpt lat="44.90067253359697" lon="5.773961718564869"><ele>860.0</ele><time>2026-04-25T10:09:46.999Z</time></trkpt><trkpt lat="44.90061232776956" lon="5.773746457825728"><ele>860.0</ele><time>2026-04-25T10:09:47.999Z</time></trkpt><trkpt lat="44.900544473319506" lon="5.773560253916782"><ele>860.0</ele><time>2026-04-25T10:09:48.999Z</time></trkpt><trkpt lat="44.90044426873945" lon="5.773368162072155"><ele>860.3333333333334</ele><time>2026-04-25T10:09:49.999Z</time></trkpt><trkpt lat="44.90034859297829" lon="5.773132841733275"><ele>860.6666666666667</ele><time>2026-04-25T10:09:50.999Z</time></trkpt><trkpt lat="44.9002675837862" lon="5.772941882026902"><ele>861.0</ele><time>2026-04-25T10:09:51.999Z</time></trkpt><trkpt lat="44.90018001686861" lon="5.77276117347323"><ele>860.5</ele><time>2026-04-25T10:09:52.999Z</time></trkpt><trkpt lat="44.900091170863355" lon="5.772591951849901"><ele>860.0</ele><time>2026-04-25T10:09:53.999Z</time></trkpt><trkpt lat="44.899997438473896" lon="5.772443928808959"><ele>859.5</ele><time>2026-04-25T10:09:54.999Z</time></trkpt><trkpt lat="44.8999014889321" lon="5.772316764296735"><ele>859.0</ele><time>2026-04-25T10:09:55.999Z</time></trkpt><trkpt lat="44.89979251901428" lon="5.772197172406807"><ele>859.0</ele><time>2026-04-25T10:09:56.999Z</time></trkpt><trkpt lat="44.89966486484773" lon="5.772089686740043"><ele>859.0</ele><time>2026-04-25T10:09:57.999Z</time></trkpt><trkpt lat="44.899526586134975" lon="5.771984027869889"><ele>859.0</ele><time>2026-04-25T10:09:58.999Z</time></trkpt><trkpt lat="44.899385557279246" lon="5.771880285483055"><ele>859.3333333333333</ele><time>2026-04-25T10:09:59.999Z</time></trkpt><trkpt lat="44.8992413662081" lon="5.7717897638999505"><ele>859.6666666666667</ele><time>2026-04-25T10:10:00.999Z</time></trkpt><trkpt lat="44.89910857646244" lon="5.771709326507137"><ele>860.0</ele><time>2026-04-25T10:10:01.999Z</time></trkpt><trkpt lat="44.898962018828605" lon="5.77167504845564"><ele>860.0</ele><time>2026-04-25T10:10:02.999Z</time></trkpt><trkpt lat="44.89879966083089" lon="5.771642192338752"><ele>860.0</ele><time>2026-04-25T10:10:03.999Z</time></trkpt><trkpt lat="44.898593435207516" lon="5.771681424097276"><ele>860.0</ele><time>2026-04-25T10:10:04.999Z</time></trkpt><trkpt lat="44.8983978052067" lon="5.771643595219298"><ele>857.6666666666667</ele><time>2026-04-25T10:10:05.999Z</time></trkpt><trkpt lat="44.898200886469375" lon="5.771616878305397"><ele>855.3333333333333</ele><time>2026-04-25T10:10:06.999Z</time></trkpt><trkpt lat="44.89803091137596" lon="5.771603657287264"><ele>853.0</ele><time>2026-04-25T10:10:07.999Z</time></trkpt><trkpt lat="44.89786829104161" lon="5.771565342617036"><ele>853.0</ele><time>2026-04-25T10:10:08.999Z</time></trkpt><trkpt lat="44.89772413330357" lon="5.771555418044873"><ele>853.0</ele><time>2026-04-25T10:10:09.999Z</time></trkpt><trkpt lat="44.89760338774236" lon="5.771537161268392"><ele>853.0</ele><time>2026-04-25T10:10:10.999Z</time></trkpt><trkpt lat="44.897511311266705" lon="5.771483984230101"><ele>853.0</ele><time>2026-04-25T10:10:11.999Z</time></trkpt><trkpt lat="44.89744147410043" lon="5.771441614151433"><ele>853.0</ele><time>2026-04-25T10:10:12.999Z</time></trkpt><trkpt lat="44.89738092025914" lon="5.77141514028273"><ele>852.2</ele><time>2026-04-25T10:10:13.999Z</time></trkpt><trkpt lat="44.89732468897489" lon="5.7713564108060735"><ele>851.4</ele><time>2026-04-25T10:10:14.999Z</time></trkpt><trkpt lat="44.89725855150109" lon="5.771290259647532"><ele>850.6</ele><time>2026-04-25T10:10:15.999Z</time></trkpt><trkpt lat="44.897161658332536" lon="5.771197389710108"><ele>849.8000000000001</ele><time>2026-04-25T10:10:16.999Z</time></trkpt><trkpt lat="44.89704443174009" lon="5.771083912656995"><ele>849.0</ele><time>2026-04-25T10:10:17.999Z</time></trkpt><trkpt lat="44.89692179543841" lon="5.770962803941789"><ele>850.3333333333333</ele><time>2026-04-25T10:10:18.999Z</time></trkpt><trkpt lat="44.89679449438525" lon="5.770840162073383"><ele>851.6666666666666</ele><time>2026-04-25T10:10:19.999Z</time></trkpt><trkpt lat="44.89666783533986" lon="5.770715842992616"><ele>853.0</ele><time>2026-04-25T10:10:20.999Z</time></trkpt><trkpt lat="44.89652334999854" lon="5.770579382154306"><ele>853.0</ele><time>2026-04-25T10:10:21.999Z</time></trkpt><trkpt lat="44.89637409108204" lon="5.770448653922122"><ele>853.0</ele><time>2026-04-25T10:10:22.999Z</time></trkpt><trkpt lat="44.896247113434775" lon="5.770283247428442"><ele>853.0</ele><time>2026-04-25T10:10:23.999Z</time></trkpt><trkpt lat="44.896111672968956" lon="5.7701007859006"><ele>853.0</ele><time>2026-04-25T10:10:24.999Z</time></trkpt><trkpt lat="44.89596037134192" lon="5.769872298325932"><ele>853.0</ele><time>2026-04-25T10:10:25.999Z</time></trkpt><trkpt lat="44.89582179666222" lon="5.769625688175832"><ele>853.0</ele><time>2026-04-25T10:10:26.999Z</time></trkpt><trkpt lat="44.895692929345394" lon="5.7693662247474595"><ele>857.0</ele><time>2026-04-25T10:10:27.999Z</time></trkpt><trkpt lat="44.89555039443162" lon="5.769127707759638"><ele>861.0</ele><time>2026-04-25T10:10:28.999Z</time></trkpt><trkpt lat="44.89541797238886" lon="5.76896389140553"><ele>865.0</ele><time>2026-04-25T10:10:29.999Z</time></trkpt><trkpt lat="44.895272438843236" lon="5.768825738282448"><ele>865.0</ele><time>2026-04-25T10:10:30.999Z</time></trkpt><trkpt lat="44.895089352127" lon="5.768738141398892"><ele>865.0</ele><time>2026-04-25T10:10:31.999Z</time></trkpt><trkpt lat="44.89493812276189" lon="5.768643371970145"><ele>865.0</ele><time>2026-04-25T10:10:32.999Z</time></trkpt><trkpt lat="44.89479673398379" lon="5.768555499644208"><ele>864.75</ele><time>2026-04-25T10:10:33.999Z</time></trkpt><trkpt lat="44.89466209212997" lon="5.7684787164269355"><ele>864.5</ele><time>2026-04-25T10:10:34.999Z</time></trkpt><trkpt lat="44.89454004699086" lon="5.768404378414803"><ele>864.25</ele><time>2026-04-25T10:10:35.999Z</time></trkpt><trkpt lat="44.894436545378724" lon="5.768340487127924"><ele>864.0</ele><time>2026-04-25T10:10:36.999Z</time></trkpt><trkpt lat="44.894353642249825" lon="5.768264832864928"><ele>864.0</ele><time>2026-04-25T10:10:37.999Z</time></trkpt><trkpt lat="44.894264327796165" lon="5.768224014739083"><ele>864.0000000000001</ele><time>2026-04-25T10:10:38.998Z</time></trkpt><trkpt lat="44.894174900906386" lon="5.768160765802826"><ele>864.0000000000001</ele><time>2026-04-25T10:10:39.998Z</time></trkpt><trkpt lat="44.894081680501536" lon="5.768090964192411"><ele>864.0</ele><time>2026-04-25T10:10:40.998Z</time></trkpt><trkpt lat="44.89397341951998" lon="5.768021508866584"><ele>864.0</ele><time>2026-04-25T10:10:41.998Z</time></trkpt><trkpt lat="44.89386599740095" lon="5.767975887922779"><ele>863.8000000000001</ele><time>2026-04-25T10:10:42.998Z</time></trkpt><trkpt lat="44.89377544173889" lon="5.76790968791752"><ele>863.6000000000001</ele><time>2026-04-25T10:10:43.998Z</time></trkpt><trkpt lat="44.8936899962823" lon="5.767839281770765"><ele>863.4</ele><time>2026-04-25T10:10:44.998Z</time></trkpt><trkpt lat="44.89360361218888" lon="5.767769607372872"><ele>863.2</ele><time>2026-04-25T10:10:45.998Z</time></trkpt><trkpt lat="44.8935229274182" lon="5.7676779039058665"><ele>863.0</ele><time>2026-04-25T10:10:46.998Z</time></trkpt><trkpt lat="44.89346543730071" lon="5.767550698548572"><ele>860.8</ele><time>2026-04-25T10:10:47.998Z</time></trkpt><trkpt lat="44.893404928846515" lon="5.767427622462092"><ele>858.5999999999999</ele><time>2026-04-25T10:10:48.998Z</time></trkpt><trkpt lat="44.89336025451314" lon="5.76731075242443"><ele>856.4000000000001</ele><time>2026-04-25T10:10:49.998Z</time></trkpt><trkpt lat="44.89331298084986" lon="5.767184983090798"><ele>854.2</ele><time>2026-04-25T10:10:50.998Z</time></trkpt><trkpt lat="44.89326142147148" lon="5.7670622942469025"><ele>852.0</ele><time>2026-04-25T10:10:51.998Z</time></trkpt><trkpt lat="44.89323513163511" lon="5.7669608459105195"><ele>852.0</ele><time>2026-04-25T10:10:52.998Z</time></trkpt><trkpt lat="44.89319689208156" lon="5.766871179185024"><ele>852.0</ele><time>2026-04-25T10:10:53.998Z</time></trkpt><trkpt lat="44.89317459286224" lon="5.766787776833202"><ele>852.0</ele><time>2026-04-25T10:10:54.998Z</time></trkpt><trkpt lat="44.893168139261284" lon="5.766693883357922"><ele>852.0</ele><time>2026-04-25T10:10:55.998Z</time></trkpt><trkpt lat="44.893174777023454" lon="5.766581623971576"><ele>852.0</ele><time>2026-04-25T10:10:56.998Z</time></trkpt><trkpt lat="44.89318995305925" lon="5.76642384420128"><ele>852.0</ele><time>2026-04-25T10:10:57.998Z</time></trkpt><trkpt lat="44.89321475912881" lon="5.766240662241096"><ele>853.6</ele><time>2026-04-25T10:10:58.998Z</time></trkpt><trkpt lat="44.893239559963995" lon="5.76606845139405"><ele>855.2</ele><time>2026-04-25T10:11:00Z</time></trkpt><trkpt lat="44.89324754250903" lon="5.7658974891628025"><ele>856.8</ele><time>2026-04-25T10:11:01Z</time></trkpt><trkpt lat="44.8932296507364" lon="5.765751663693494"><ele>858.4</ele><time>2026-04-25T10:11:02Z</time></trkpt><trkpt lat="44.893216242201376" lon="5.765626428411833"><ele>860.0</ele><time>2026-04-25T10:11:03Z</time></trkpt><trkpt lat="44.89322096713188" lon="5.765514830567985"><ele>860.2</ele><time>2026-04-25T10:11:04Z</time></trkpt><trkpt lat="44.89322110374175" lon="5.7653386144972965"><ele>860.4</ele><time>2026-04-25T10:11:06Z</time></trkpt><trkpt lat="44.89321080104544" lon="5.765237584047814"><ele>860.5999999999999</ele><time>2026-04-25T10:11:07Z</time></trkpt><trkpt lat="44.89319288115916" lon="5.765129909047574"><ele>860.8</ele><time>2026-04-25T10:11:08Z</time></trkpt><trkpt lat="44.89316318189633" lon="5.765004567748568"><ele>861.0</ele><time>2026-04-25T10:11:09Z</time></trkpt><trkpt lat="44.89312264923218" lon="5.764886779995531"><ele>861.1999999999999</ele><time>2026-04-25T10:11:10Z</time></trkpt><trkpt lat="44.89308616807895" lon="5.764743882078518"><ele>861.3999999999999</ele><time>2026-04-25T10:11:11Z</time></trkpt><trkpt lat="44.89304751612839" lon="5.764606000368685"><ele>861.6</ele><time>2026-04-25T10:11:12Z</time></trkpt><trkpt lat="44.89301627220049" lon="5.764466458864809"><ele>861.8</ele><time>2026-04-25T10:11:13Z</time></trkpt><trkpt lat="44.89299629834448" lon="5.764336378808282"><ele>862.0</ele><time>2026-04-25T10:11:14Z</time></trkpt><trkpt lat="44.89295677553822" lon="5.764212102005274"><ele>862.0</ele><time>2026-04-25T10:11:15Z</time></trkpt><trkpt lat="44.89287916811921" lon="5.764116337783297"><ele>862.0</ele><time>2026-04-25T10:11:16Z</time></trkpt><trkpt lat="44.892777505889676" lon="5.764030115978199"><ele>862.0</ele><time>2026-04-25T10:11:17Z</time></trkpt><trkpt lat="44.89268825399698" lon="5.763940594950497"><ele>862.0</ele><time>2026-04-25T10:11:18Z</time></trkpt><trkpt lat="44.89260837599832" lon="5.763816159340848"><ele>859.75</ele><time>2026-04-25T10:11:19Z</time></trkpt><trkpt lat="44.89255022232452" lon="5.7636693769223015"><ele>857.5</ele><time>2026-04-25T10:11:20Z</time></trkpt><trkpt lat="44.89252485904863" lon="5.763488577324227"><ele>855.25</ele><time>2026-04-25T10:11:21Z</time></trkpt><trkpt lat="44.89253123371411" lon="5.76331201108366"><ele>853.0</ele><time>2026-04-25T10:11:22Z</time></trkpt><trkpt lat="44.89256094144094" lon="5.7631594601011855"><ele>853.8</ele><time>2026-04-25T10:11:23Z</time></trkpt><trkpt lat="44.892603940589375" lon="5.763028040042259"><ele>854.5999999999999</ele><time>2026-04-25T10:11:24Z</time></trkpt><trkpt lat="44.89266486331357" lon="5.762910697828794"><ele>855.4000000000001</ele><time>2026-04-25T10:11:25Z</time></trkpt><trkpt lat="44.892738384608876" lon="5.76282403009817"><ele>856.2</ele><time>2026-04-25T10:11:26Z</time></trkpt><trkpt lat="44.892809948356636" lon="5.7627409315432"><ele>857.0</ele><time>2026-04-25T10:11:27Z</time></trkpt><trkpt lat="44.89286882956909" lon="5.7626570229123395"><ele>857.0</ele><time>2026-04-25T10:11:28Z</time></trkpt><trkpt lat="44.89292536315174" lon="5.762562619464153"><ele>857.0</ele><time>2026-04-25T10:11:29Z</time></trkpt><trkpt lat="44.89297839534793" lon="5.762472803223217"><ele>857.0</ele><time>2026-04-25T10:11:30Z</time></trkpt><trkpt lat="44.89302711434008" lon="5.7624136509770185"><ele>857.0</ele><time>2026-04-25T10:11:31Z</time></trkpt><trkpt lat="44.89299998998433" lon="5.762269365807105"><ele>857.0</ele><time>2026-04-25T10:11:33Z</time></trkpt><trkpt lat="44.89286384571273" lon="5.76214716817787"><ele>857.0</ele><time>2026-04-25T10:11:35Z</time></trkpt><trkpt lat="44.89274484030769" lon="5.76208247601611"><ele>857.0</ele><time>2026-04-25T10:11:36Z</time></trkpt><trkpt lat="44.89261183308069" lon="5.7620345915363185"><ele>857.0</ele><time>2026-04-25T10:11:37Z</time></trkpt><trkpt lat="44.892497496769586" lon="5.761962820905818"><ele>857.0</ele><time>2026-04-25T10:11:38Z</time></trkpt><trkpt lat="44.89237726562619" lon="5.76190553195693"><ele>857.25</ele><time>2026-04-25T10:11:39Z</time></trkpt><trkpt lat="44.89224838237215" lon="5.761836465415333"><ele>857.5</ele><time>2026-04-25T10:11:40Z</time></trkpt><trkpt lat="44.89211165858406" lon="5.76175820815142"><ele>857.75</ele><time>2026-04-25T10:11:41Z</time></trkpt><trkpt lat="44.89196944721689" lon="5.761677536175986"><ele>858.0</ele><time>2026-04-25T10:11:42Z</time></trkpt><trkpt lat="44.891836132654674" lon="5.761606262861697"><ele>856.75</ele><time>2026-04-25T10:11:43Z</time></trkpt><trkpt lat="44.891712683700334" lon="5.761535596067856"><ele>855.5</ele><time>2026-04-25T10:11:43.999Z</time></trkpt><trkpt lat="44.89159570794973" lon="5.761475929484887"><ele>854.25</ele><time>2026-04-25T10:11:44.999Z</time></trkpt><trkpt lat="44.89147586532141" lon="5.761477693488139"><ele>853.0</ele><time>2026-04-25T10:11:45.999Z</time></trkpt><trkpt lat="44.89134257687849" lon="5.761573790337744"><ele>853.0</ele><time>2026-04-25T10:11:46.999Z</time></trkpt><trkpt lat="44.89122448998288" lon="5.761738401283511"><ele>853.0</ele><time>2026-04-25T10:11:47.999Z</time></trkpt><trkpt lat="44.89110444585214" lon="5.761918710462758"><ele>853.0</ele><time>2026-04-25T10:11:48.999Z</time></trkpt><trkpt lat="44.89095353875072" lon="5.762028326859603"><ele>850.6666666666666</ele><time>2026-04-25T10:11:49.999Z</time></trkpt><trkpt lat="44.89081030095413" lon="5.762167541841228"><ele>848.3333333333333</ele><time>2026-04-25T10:11:50.999Z</time></trkpt><trkpt lat="44.89066473613601" lon="5.762281930050988"><ele>846.0</ele><time>2026-04-25T10:11:51.999Z</time></trkpt><trkpt lat="44.89052277988422" lon="5.762419634747687"><ele>846.0</ele><time>2026-04-25T10:11:52.999Z</time></trkpt><trkpt lat="44.89039573940166" lon="5.762587158374166"><ele>846.0</ele><time>2026-04-25T10:11:53.999Z</time></trkpt><trkpt lat="44.89027957071198" lon="5.762773096586169"><ele>846.0</ele><time>2026-04-25T10:11:54.999Z</time></trkpt><trkpt lat="44.89014132723569" lon="5.762926960336642"><ele>845.0</ele><time>2026-04-25T10:11:55.999Z</time></trkpt><trkpt lat="44.89001059090157" lon="5.763091247757862"><ele>844.0</ele><time>2026-04-25T10:11:56.999Z</time></trkpt><trkpt lat="44.889874403664265" lon="5.763240050207291"><ele>843.0</ele><time>2026-04-25T10:11:57.999Z</time></trkpt><trkpt lat="44.88971896386612" lon="5.7633412926525605"><ele>843.0</ele><time>2026-04-25T10:11:58.999Z</time></trkpt><trkpt lat="44.88954942948828" lon="5.763422883710487"><ele>843.0</ele><time>2026-04-25T10:11:59.999Z</time></trkpt><trkpt lat="44.88938577324984" lon="5.763466833776463"><ele>843.0</ele><time>2026-04-25T10:12:00.999Z</time></trkpt><trkpt lat="44.88923872609081" lon="5.763481511862194"><ele>843.5</ele><time>2026-04-25T10:12:01.999Z</time></trkpt><trkpt lat="44.8890946339211" lon="5.763468392940056"><ele>844.0</ele><time>2026-04-25T10:12:02.999Z</time></trkpt><trkpt lat="44.88898775220594" lon="5.763344194815439"><ele>844.5</ele><time>2026-04-25T10:12:03.999Z</time></trkpt><trkpt lat="44.888921346874056" lon="5.763187127176285"><ele>845.0</ele><time>2026-04-25T10:12:04.999Z</time></trkpt><trkpt lat="44.888893305137366" lon="5.762994661932977"><ele>845.0</ele><time>2026-04-25T10:12:05.999Z</time></trkpt><trkpt lat="44.888916656432635" lon="5.762767580549349"><ele>845.0</ele><time>2026-04-25T10:12:06.999Z</time></trkpt><trkpt lat="44.88895283810386" lon="5.76252854501168"><ele>845.0</ele><time>2026-04-25T10:12:07.999Z</time></trkpt><trkpt lat="44.88900456642668" lon="5.762326735066233"><ele>846.5</ele><time>2026-04-25T10:12:08.999Z</time></trkpt><trkpt lat="44.88902108759339" lon="5.762129318727029"><ele>848.0</ele><time>2026-04-25T10:12:09.999Z</time></trkpt><trkpt lat="44.88897259448387" lon="5.761952581944255"><ele>849.5</ele><time>2026-04-25T10:12:10.999Z</time></trkpt><trkpt lat="44.88885839782024" lon="5.761811013693141"><ele>851.0</ele><time>2026-04-25T10:12:11.999Z</time></trkpt><trkpt lat="44.88871107210204" lon="5.761719133541777"><ele>852.0</ele><time>2026-04-25T10:12:12.999Z</time></trkpt><trkpt lat="44.88853127743753" lon="5.7616822324211014"><ele>853.0</ele><time>2026-04-25T10:12:13.999Z</time></trkpt><trkpt lat="44.88834635547206" lon="5.761635992107723"><ele>854.0</ele><time>2026-04-25T10:12:14.999Z</time></trkpt><trkpt lat="44.888167318991194" lon="5.7615812390369054"><ele>854.0</ele><time>2026-04-25T10:12:15.999Z</time></trkpt><trkpt lat="44.88796636514231" lon="5.761612066312953"><ele>854.0</ele><time>2026-04-25T10:12:16.999Z</time></trkpt><trkpt lat="44.88776214912977" lon="5.7616994284532845"><ele>854.0</ele><time>2026-04-25T10:12:17.999Z</time></trkpt><trkpt lat="44.88756124187837" lon="5.761751252830618"><ele>853.6666666666667</ele><time>2026-04-25T10:12:18.999Z</time></trkpt><trkpt lat="44.8873894483732" lon="5.7618088712247895"><ele>853.3333333333333</ele><time>2026-04-25T10:12:19.999Z</time></trkpt><trkpt lat="44.88724077127276" lon="5.761845024158104"><ele>853.0</ele><time>2026-04-25T10:12:20.999Z</time></trkpt><trkpt lat="44.887115069805034" lon="5.76182353469382"><ele>853.0</ele><time>2026-04-25T10:12:21.999Z</time></trkpt><trkpt lat="44.88700259814794" lon="5.76175296518983"><ele>853.0</ele><time>2026-04-25T10:12:22.999Z</time></trkpt><trkpt lat="44.886927122784456" lon="5.7615939259545605"><ele>853.0</ele><time>2026-04-25T10:12:23.999Z</time></trkpt><trkpt lat="44.886859901100806" lon="5.761419243142996"><ele>853.0</ele><time>2026-04-25T10:12:24.999Z</time></trkpt><trkpt lat="44.886757504181865" lon="5.761293279258422"><ele>851.0</ele><time>2026-04-25T10:12:25.999Z</time></trkpt><trkpt lat="44.88661987058872" lon="5.7612257443457295"><ele>849.0</ele><time>2026-04-25T10:12:26.999Z</time></trkpt><trkpt lat="44.88645222504121" lon="5.76124579541553"><ele>847.0</ele><time>2026-04-25T10:12:27.999Z</time></trkpt><trkpt lat="44.886275008912605" lon="5.761346768795363"><ele>847.0</ele><time>2026-04-25T10:12:28.999Z</time></trkpt><trkpt lat="44.88610854867573" lon="5.761508679048272"><ele>847.0</ele><time>2026-04-25T10:12:29.999Z</time></trkpt><trkpt lat="44.88595031680693" lon="5.761692222682152"><ele>847.0</ele><time>2026-04-25T10:12:30.999Z</time></trkpt><trkpt lat="44.88577116960241" lon="5.761845907578044"><ele>847.6666666666666</ele><time>2026-04-25T10:12:31.999Z</time></trkpt><trkpt lat="44.885604443074406" lon="5.761993080827486"><ele>848.3333333333333</ele><time>2026-04-25T10:12:32.999Z</time></trkpt><trkpt lat="44.88546136159757" lon="5.762139677729646"><ele>849.0</ele><time>2026-04-25T10:12:33.999Z</time></trkpt><trkpt lat="44.88532912246287" lon="5.762288991908067"><ele>849.0</ele><time>2026-04-25T10:12:34.999Z</time></trkpt><trkpt lat="44.8852266204306" lon="5.762505005525959"><ele>849.0</ele><time>2026-04-25T10:12:35.999Z</time></trkpt><trkpt lat="44.88516336547437" lon="5.762789797243622"><ele>849.0</ele><time>2026-04-25T10:12:36.999Z</time></trkpt><trkpt lat="44.885089116040916" lon="5.763070999594667"><ele>849.3333333333333</ele><time>2026-04-25T10:12:37.999Z</time></trkpt><trkpt lat="44.88502009021989" lon="5.763306995032294"><ele>849.6666666666666</ele><time>2026-04-25T10:12:38.999Z</time></trkpt><trkpt lat="44.88494617412752" lon="5.763508857658782"><ele>850.0</ele><time>2026-04-25T10:12:39.999Z</time></trkpt><trkpt lat="44.884824338136106" lon="5.76366747634829"><ele>839.0</ele><time>2026-04-25T10:12:40.999Z</time></trkpt><trkpt lat="44.88469300548062" lon="5.763796195196392"><ele>828.0</ele><time>2026-04-25T10:12:41.999Z</time></trkpt><trkpt lat="44.88453828950305" lon="5.763871784362389"><ele>817.0</ele><time>2026-04-25T10:12:42.999Z</time></trkpt><trkpt lat="44.884354630523596" lon="5.763909539316171"><ele>826.3333333333333</ele><time>2026-04-25T10:12:43.998Z</time></trkpt><trkpt lat="44.88418888451747" lon="5.764032792656185"><ele>835.6666666666667</ele><time>2026-04-25T10:12:44.998Z</time></trkpt><trkpt lat="44.88402284333873" lon="5.76412581367512"><ele>845.0</ele><time>2026-04-25T10:12:45.998Z</time></trkpt><trkpt lat="44.883848702489956" lon="5.764191304388863"><ele>844.6666666666667</ele><time>2026-04-25T10:12:46.998Z</time></trkpt><trkpt lat="44.883712331478364" lon="5.764367965636966"><ele>844.3333333333333</ele><time>2026-04-25T10:12:47.998Z</time></trkpt><trkpt lat="44.883583811608815" lon="5.764567615294326"><ele>844.0</ele><time>2026-04-25T10:12:48.998Z</time></trkpt><trkpt lat="44.88341955011537" lon="5.764737435566712"><ele>844.0</ele><time>2026-04-25T10:12:49.998Z</time></trkpt><trkpt lat="44.88326620772378" lon="5.764934335256099"><ele>844.0</ele><time>2026-04-25T10:12:50.998Z</time></trkpt><trkpt lat="44.883097914105036" lon="5.7651061064280995"><ele>844.0</ele><time>2026-04-25T10:12:51.998Z</time></trkpt><trkpt lat="44.882902606822576" lon="5.765248511657697"><ele>844.3333333333333</ele><time>2026-04-25T10:12:52.998Z</time></trkpt><trkpt lat="44.88269284855632" lon="5.765410924071837"><ele>844.6666666666667</ele><time>2026-04-25T10:12:53.998Z</time></trkpt><trkpt lat="44.88252084257978" lon="5.765573178072049"><ele>845.0</ele><time>2026-04-25T10:12:54.998Z</time></trkpt><trkpt lat="44.882350570007226" lon="5.7657010448093216"><ele>845.0</ele><time>2026-04-25T10:12:55.998Z</time></trkpt><trkpt lat="44.8822068629815" lon="5.765851602832164"><ele>845.0</ele><time>2026-04-25T10:12:56.998Z</time></trkpt><trkpt lat="44.88209915298088" lon="5.766035678571528"><ele>845.0</ele><time>2026-04-25T10:12:57.998Z</time></trkpt><trkpt lat="44.88202123138009" lon="5.766233387533099"><ele>841.5</ele><time>2026-04-25T10:12:58.998Z</time></trkpt><trkpt lat="44.88192313106747" lon="5.766379775137029"><ele>838.0</ele><time>2026-04-25T10:12:59.998Z</time></trkpt><trkpt lat="44.881803117100105" lon="5.766453994154522"><ele>834.5</ele><time>2026-04-25T10:13:00.998Z</time></trkpt><trkpt lat="44.881659097830564" lon="5.766458238339701"><ele>831.0</ele><time>2026-04-25T10:13:01.998Z</time></trkpt><trkpt lat="44.881476120112985" lon="5.766428968648986"><ele>831.0</ele><time>2026-04-25T10:13:02.998Z</time></trkpt><trkpt lat="44.88127710815304" lon="5.766353155270996"><ele>831.0</ele><time>2026-04-25T10:13:03.998Z</time></trkpt><trkpt lat="44.88102018866398" lon="5.766215796646555"><ele>828.0</ele><time>2026-04-25T10:13:04.998Z</time></trkpt><trkpt lat="44.88079185814815" lon="5.766061053082784"><ele>825.0</ele><time>2026-04-25T10:13:06Z</time></trkpt><trkpt lat="44.88056042846774" lon="5.765917121813068"><ele>835.5</ele><time>2026-04-25T10:13:07Z</time></trkpt><trkpt lat="44.88033513184828" lon="5.765797531668423"><ele>846.0</ele><time>2026-04-25T10:13:08Z</time></trkpt><trkpt lat="44.880133067252345" lon="5.765688699338608"><ele>841.0</ele><time>2026-04-25T10:13:09Z</time></trkpt><trkpt lat="44.87993495833824" lon="5.76556975734611"><ele>836.0</ele><time>2026-04-25T10:13:10Z</time></trkpt><trkpt lat="44.87974646079376" lon="5.765411469826888"><ele>831.0</ele><time>2026-04-25T10:13:11Z</time></trkpt><trkpt lat="44.87957357969778" lon="5.765205496358964"><ele>827.5</ele><time>2026-04-25T10:13:12Z</time></trkpt><trkpt lat="44.87939678002457" lon="5.764983199042818"><ele>824.0</ele><time>2026-04-25T10:13:13Z</time></trkpt><trkpt lat="44.87921175240929" lon="5.764774174347468"><ele>824.0</ele><time>2026-04-25T10:13:14Z</time></trkpt><trkpt lat="44.87902422666833" lon="5.764570968058399"><ele>824.0</ele><time>2026-04-25T10:13:15Z</time></trkpt><trkpt lat="44.87883540756175" lon="5.764366358662733"><ele>831.5</ele><time>2026-04-25T10:13:16Z</time></trkpt><trkpt lat="44.87864365776962" lon="5.764148804562348"><ele>839.0</ele><time>2026-04-25T10:13:17Z</time></trkpt><trkpt lat="44.8784734771309" lon="5.763926980272134"><ele>835.0</ele><time>2026-04-25T10:13:18Z</time></trkpt><trkpt lat="44.8783260038322" lon="5.763717975448207"><ele>831.0</ele><time>2026-04-25T10:13:19Z</time></trkpt><trkpt lat="44.87817654371036" lon="5.763496358815377"><ele>827.0</ele><time>2026-04-25T10:13:20Z</time></trkpt><trkpt lat="44.8780488280585" lon="5.763289415520795"><ele>827.0</ele><time>2026-04-25T10:13:21Z</time></trkpt><trkpt lat="44.87796380293563" lon="5.763058712198572"><ele>827.0</ele><time>2026-04-25T10:13:22Z</time></trkpt><trkpt lat="44.87788106355217" lon="5.762831661962113"><ele>827.0</ele><time>2026-04-25T10:13:23Z</time></trkpt><trkpt lat="44.87783780354425" lon="5.762562985157829"><ele>832.3333333333334</ele><time>2026-04-25T10:13:24Z</time></trkpt><trkpt lat="44.877845303855196" lon="5.762270264287778"><ele>837.6666666666667</ele><time>2026-04-25T10:13:25Z</time></trkpt><trkpt lat="44.87784025136767" lon="5.761964696942513"><ele>843.0</ele><time>2026-04-25T10:13:26Z</time></trkpt><trkpt lat="44.87783794774243" lon="5.76165100424084"><ele>846.3333333333333</ele><time>2026-04-25T10:13:27Z</time></trkpt><trkpt lat="44.87778467050244" lon="5.7613445618379"><ele>849.6666666666666</ele><time>2026-04-25T10:13:28Z</time></trkpt><trkpt lat="44.877702805709966" lon="5.761055924283813"><ele>853.0</ele><time>2026-04-25T10:13:29Z</time></trkpt><trkpt lat="44.87762128455429" lon="5.760785471911139"><ele>843.3333333333333</ele><time>2026-04-25T10:13:30Z</time></trkpt><trkpt lat="44.87757481269598" lon="5.760508467419714"><ele>833.6666666666667</ele><time>2026-04-25T10:13:31Z</time></trkpt><trkpt lat="44.877562202931536" lon="5.760229942323538"><ele>824.0</ele><time>2026-04-25T10:13:32Z</time></trkpt><trkpt lat="44.87755092645925" lon="5.759973473241291"><ele>824.0</ele><time>2026-04-25T10:13:33Z</time></trkpt><trkpt lat="44.87752034279609" lon="5.759751578768153"><ele>824.0</ele><time>2026-04-25T10:13:34Z</time></trkpt><trkpt lat="44.87743992622185" lon="5.759563930657398"><ele>824.0</ele><time>2026-04-25T10:13:35Z</time></trkpt><trkpt lat="44.87729732208797" lon="5.7594249219306874"><ele>829.3333333333334</ele><time>2026-04-25T10:13:36Z</time></trkpt><trkpt lat="44.87715089866532" lon="5.759252199909872"><ele>834.6666666666667</ele><time>2026-04-25T10:13:37Z</time></trkpt><trkpt lat="44.87699989395633" lon="5.759069487325988"><ele>840.0</ele><time>2026-04-25T10:13:38Z</time></trkpt><trkpt lat="44.876864449903266" lon="5.758894132124971"><ele>835.6666666666667</ele><time>2026-04-25T10:13:39Z</time></trkpt><trkpt lat="44.876732228592154" lon="5.758739211669615"><ele>831.3333333333334</ele><time>2026-04-25T10:13:40Z</time></trkpt><trkpt lat="44.87658943801707" lon="5.75863255108559"><ele>827.0</ele><time>2026-04-25T10:13:41Z</time></trkpt><trkpt lat="44.87644538227879" lon="5.7585321151430255"><ele>827.0</ele><time>2026-04-25T10:13:42Z</time></trkpt><trkpt lat="44.87631467001134" lon="5.7583838229952224"><ele>827.0</ele><time>2026-04-25T10:13:43Z</time></trkpt><trkpt lat="44.87623290331612" lon="5.75816371997429"><ele>827.0</ele><time>2026-04-25T10:13:44Z</time></trkpt><trkpt lat="44.87615702792345" lon="5.757919682432563"><ele>833.6666666666667</ele><time>2026-04-25T10:13:45Z</time></trkpt><trkpt lat="44.87607663231969" lon="5.757629527627992"><ele>840.3333333333333</ele><time>2026-04-25T10:13:46Z</time></trkpt><trkpt lat="44.875984196840704" lon="5.75733619198828"><ele>847.0</ele><time>2026-04-25T10:13:47Z</time></trkpt><trkpt lat="44.87590991797972" lon="5.757037680915494"><ele>834.0</ele><time>2026-04-25T10:13:47.999Z</time></trkpt><trkpt lat="44.87583730909885" lon="5.756791244098282"><ele>821.0</ele><time>2026-04-25T10:13:48.999Z</time></trkpt><trkpt lat="44.875759680129505" lon="5.756545171406224"><ele>808.0</ele><time>2026-04-25T10:13:49.999Z</time></trkpt><trkpt lat="44.875707383108576" lon="5.756317520254904"><ele>808.0</ele><time>2026-04-25T10:13:50.999Z</time></trkpt><trkpt lat="44.87564453708466" lon="5.756095188348451"><ele>808.0</ele><time>2026-04-25T10:13:51.999Z</time></trkpt><trkpt lat="44.875571252778336" lon="5.755876497505678"><ele>808.0</ele><time>2026-04-25T10:13:52.999Z</time></trkpt><trkpt lat="44.87558174376043" lon="5.755632441887689"><ele>807.75</ele><time>2026-04-25T10:13:53.999Z</time></trkpt><trkpt lat="44.875590328239674" lon="5.755401116330211"><ele>807.5</ele><time>2026-04-25T10:13:54.999Z</time></trkpt><trkpt lat="44.87553969896042" lon="5.755204427855949"><ele>807.25</ele><time>2026-04-25T10:13:55.999Z</time></trkpt><trkpt lat="44.87547526670681" lon="5.755045288549387"><ele>807.0</ele><time>2026-04-25T10:13:56.999Z</time></trkpt><trkpt lat="44.875459665020244" lon="5.754895941277411"><ele>807.0</ele><time>2026-04-25T10:13:57.999Z</time></trkpt><trkpt lat="44.87553262855144" lon="5.754776177818689"><ele>807.0</ele><time>2026-04-25T10:13:58.999Z</time></trkpt><trkpt lat="44.875653179712955" lon="5.7547004999407765"><ele>807.0</ele><time>2026-04-25T10:13:59.999Z</time></trkpt><trkpt lat="44.875795749702775" lon="5.754631142069087"><ele>807.0</ele><time>2026-04-25T10:14:00.999Z</time></trkpt><trkpt lat="44.87595007535914" lon="5.7545268969125685"><ele>812.0</ele><time>2026-04-25T10:14:01.999Z</time></trkpt><trkpt lat="44.8761250246443" lon="5.754421189554491"><ele>817.0</ele><time>2026-04-25T10:14:02.999Z</time></trkpt><trkpt lat="44.876325191074116" lon="5.754374681405146"><ele>822.0</ele><time>2026-04-25T10:14:03.999Z</time></trkpt><trkpt lat="44.87654065650289" lon="5.754384760679501"><ele>822.0</ele><time>2026-04-25T10:14:04.999Z</time></trkpt><trkpt lat="44.87674872806513" lon="5.754379781888765"><ele>822.0</ele><time>2026-04-25T10:14:05.999Z</time></trkpt><trkpt lat="44.87694613255003" lon="5.754329518577888"><ele>822.0</ele><time>2026-04-25T10:14:06.999Z</time></trkpt><trkpt lat="44.87714070362418" lon="5.754237727776702"><ele>812.5</ele><time>2026-04-25T10:14:07.999Z</time></trkpt><trkpt lat="44.877358847146034" lon="5.754103047324242"><ele>803.0</ele><time>2026-04-25T10:14:08.999Z</time></trkpt><trkpt lat="44.87760339376165" lon="5.7539779532114945"><ele>803.0</ele><time>2026-04-25T10:14:09.999Z</time></trkpt><trkpt lat="44.87783467420628" lon="5.7539161416209765"><ele>803.0</ele><time>2026-04-25T10:14:10.999Z</time></trkpt><trkpt lat="44.87804481948134" lon="5.753900967118515"><ele>803.0</ele><time>2026-04-25T10:14:11.999Z</time></trkpt><trkpt lat="44.87823651166905" lon="5.753878759500544"><ele>803.0</ele><time>2026-04-25T10:14:12.999Z</time></trkpt><trkpt lat="44.878413107128196" lon="5.753849773334362"><ele>803.0</ele><time>2026-04-25T10:14:13.999Z</time></trkpt><trkpt lat="44.87855654300013" lon="5.75382533462849"><ele>803.0</ele><time>2026-04-25T10:14:14.999Z</time></trkpt><trkpt lat="44.87866950336682" lon="5.753791357290235"><ele>803.0</ele><time>2026-04-25T10:14:15.999Z</time></trkpt><trkpt lat="44.87874861937383" lon="5.75369165413185"><ele>804.25</ele><time>2026-04-25T10:14:16.999Z</time></trkpt><trkpt lat="44.878779894581804" lon="5.753541566882867"><ele>805.5</ele><time>2026-04-25T10:14:17.999Z</time></trkpt><trkpt lat="44.87874265486984" lon="5.7533850131258735"><ele>806.75</ele><time>2026-04-25T10:14:18.999Z</time></trkpt><trkpt lat="44.87865468610144" lon="5.753260601989758"><ele>808.0</ele><time>2026-04-25T10:14:19.999Z</time></trkpt><trkpt lat="44.87850709925893" lon="5.753176686921817"><ele>798.0</ele><time>2026-04-25T10:14:20.999Z</time></trkpt><trkpt lat="44.87833242306588" lon="5.75312531394286"><ele>788.0</ele><time>2026-04-25T10:14:21.999Z</time></trkpt><trkpt lat="44.87814548781325" lon="5.753026641318931"><ele>778.0</ele><time>2026-04-25T10:14:22.999Z</time></trkpt><trkpt lat="44.87796576210121" lon="5.752858754012968"><ele>776.3333333333333</ele><time>2026-04-25T10:14:23.999Z</time></trkpt><trkpt lat="44.877812385046546" lon="5.752664102320858"><ele>774.6666666666667</ele><time>2026-04-25T10:14:24.999Z</time></trkpt><trkpt lat="44.87764914792205" lon="5.7524976500439555"><ele>773.0</ele><time>2026-04-25T10:14:25.999Z</time></trkpt><trkpt lat="44.8774462923983" lon="5.752368152509276"><ele>773.0</ele><time>2026-04-25T10:14:26.999Z</time></trkpt><trkpt lat="44.87724504563438" lon="5.752210904444327"><ele>773.0</ele><time>2026-04-25T10:14:27.999Z</time></trkpt><trkpt lat="44.87704773401062" lon="5.752033236077495"><ele>768.5</ele><time>2026-04-25T10:14:28.999Z</time></trkpt><trkpt lat="44.876854868536235" lon="5.751833453296964"><ele>764.0</ele><time>2026-04-25T10:14:29.999Z</time></trkpt><trkpt lat="44.87666846545631" lon="5.751624841029836"><ele>764.0</ele><time>2026-04-25T10:14:30.999Z</time></trkpt><trkpt lat="44.8764906506202" lon="5.751396057089087"><ele>764.0</ele><time>2026-04-25T10:14:31.999Z</time></trkpt><trkpt lat="44.87632290964177" lon="5.751162960244978"><ele>761.3333333333333</ele><time>2026-04-25T10:14:32.999Z</time></trkpt><trkpt lat="44.876167253768024" lon="5.75093968074748"><ele>758.6666666666666</ele><time>2026-04-25T10:14:33.999Z</time></trkpt><trkpt lat="44.87601820523277" lon="5.750737401040496"><ele>756.0</ele><time>2026-04-25T10:14:34.999Z</time></trkpt><trkpt lat="44.87586001374973" lon="5.750547955072498"><ele>756.0</ele><time>2026-04-25T10:14:35.999Z</time></trkpt><trkpt lat="44.87570326685081" lon="5.750381882888046"><ele>756.0</ele><time>2026-04-25T10:14:36.999Z</time></trkpt><trkpt lat="44.87553428235332" lon="5.750250610368156"><ele>756.0</ele><time>2026-04-25T10:14:37.999Z</time></trkpt><trkpt lat="44.875353003881855" lon="5.750139396749585"><ele>756.0</ele><time>2026-04-25T10:14:38.999Z</time></trkpt><trkpt lat="44.87516513406529" lon="5.750035645044074"><ele>756.0</ele><time>2026-04-25T10:14:39.999Z</time></trkpt><trkpt lat="44.87498127456773" lon="5.749934973397827"><ele>756.0</ele><time>2026-04-25T10:14:40.999Z</time></trkpt><trkpt lat="44.87479916453686" lon="5.749823485848002"><ele>756.0</ele><time>2026-04-25T10:14:41.999Z</time></trkpt><trkpt lat="44.87463824038248" lon="5.749675657773541"><ele>756.0</ele><time>2026-04-25T10:14:42.999Z</time></trkpt><trkpt lat="44.87449392651107" lon="5.74949364860321"><ele>756.0</ele><time>2026-04-25T10:14:43.999Z</time></trkpt><trkpt lat="44.874353216570135" lon="5.749308045069598"><ele>753.6666666666666</ele><time>2026-04-25T10:14:44.999Z</time></trkpt><trkpt lat="44.8742089201115" lon="5.749143010539607"><ele>751.3333333333333</ele><time>2026-04-25T10:14:45.999Z</time></trkpt><trkpt lat="44.87409591809299" lon="5.74894565295401"><ele>749.0</ele><time>2026-04-25T10:14:46.999Z</time></trkpt><trkpt lat="44.87401863999088" lon="5.748763825140743"><ele>749.0</ele><time>2026-04-25T10:14:47.998Z</time></trkpt><trkpt lat="44.87398611913546" lon="5.74855360100427"><ele>749.0</ele><time>2026-04-25T10:14:48.998Z</time></trkpt><trkpt lat="44.87400321724515" lon="5.748321803965531"><ele>749.0</ele><time>2026-04-25T10:14:49.998Z</time></trkpt><trkpt lat="44.87404128981382" lon="5.748038834375211"><ele>749.0</ele><time>2026-04-25T10:14:50.998Z</time></trkpt><trkpt lat="44.87410259700395" lon="5.74776918465188"><ele>749.0</ele><time>2026-04-25T10:14:51.998Z</time></trkpt><trkpt lat="44.87414989027699" lon="5.747515547722284"><ele>749.0</ele><time>2026-04-25T10:14:52.998Z</time></trkpt><trkpt lat="44.8741721577158" lon="5.747274416938717"><ele>749.0</ele><time>2026-04-25T10:14:53.998Z</time></trkpt><trkpt lat="44.87415335939579" lon="5.747031380610669"><ele>749.0</ele><time>2026-04-25T10:14:54.998Z</time></trkpt><trkpt lat="44.874083853820494" lon="5.7467806022511"><ele>749.0</ele><time>2026-04-25T10:14:55.998Z</time></trkpt><trkpt lat="44.8739830308943" lon="5.746534251736911"><ele>749.0</ele><time>2026-04-25T10:14:56.998Z</time></trkpt><trkpt lat="44.87390318512669" lon="5.746268679502797"><ele>749.0</ele><time>2026-04-25T10:14:57.998Z</time></trkpt><trkpt lat="44.873843985629954" lon="5.745988341250157"><ele>749.0</ele><time>2026-04-25T10:14:58.998Z</time></trkpt><trkpt lat="44.873768651848486" lon="5.745714494387031"><ele>751.0</ele><time>2026-04-25T10:14:59.998Z</time></trkpt><trkpt lat="44.87371319229158" lon="5.745426761164567"><ele>753.0</ele><time>2026-04-25T10:15:00.998Z</time></trkpt><trkpt lat="44.87370608695013" lon="5.745143911840553"><ele>755.0</ele><time>2026-04-25T10:15:01.998Z</time></trkpt><trkpt lat="44.8736771584061" lon="5.744885262539344"><ele>755.6666666666666</ele><time>2026-04-25T10:15:02.998Z</time></trkpt><trkpt lat="44.87369126799479" lon="5.744643977891437"><ele>756.3333333333334</ele><time>2026-04-25T10:15:03.998Z</time></trkpt><trkpt lat="44.87376620092556" lon="5.74443541536774"><ele>757.0</ele><time>2026-04-25T10:15:04.998Z</time></trkpt><trkpt lat="44.87387932186388" lon="5.744253294298874"><ele>751.6666666666667</ele><time>2026-04-25T10:15:05.998Z</time></trkpt><trkpt lat="44.87400131804899" lon="5.744071890222568"><ele>746.3333333333334</ele><time>2026-04-25T10:15:06.998Z</time></trkpt><trkpt lat="44.87411332417675" lon="5.743892646372056"><ele>741.0</ele><time>2026-04-25T10:15:07.998Z</time></trkpt><trkpt lat="44.87419806267367" lon="5.743715941678536"><ele>738.25</ele><time>2026-04-25T10:15:08.998Z</time></trkpt><trkpt lat="44.874242451092165" lon="5.743520868248227"><ele>735.5</ele><time>2026-04-25T10:15:09.998Z</time></trkpt><trkpt lat="44.874254390751375" lon="5.74332180060291"><ele>732.75</ele><time>2026-04-25T10:15:10.998Z</time></trkpt><trkpt lat="44.87424063337684" lon="5.7431068404953765"><ele>730.0</ele><time>2026-04-25T10:15:12Z</time></trkpt><trkpt lat="44.874155302537005" lon="5.7429398470649575"><ele>730.0</ele><time>2026-04-25T10:15:13Z</time></trkpt><trkpt lat="44.87402921045164" lon="5.7428326138652315"><ele>730.0</ele><time>2026-04-25T10:15:14Z</time></trkpt><trkpt lat="44.87384853172266" lon="5.742833482448514"><ele>730.0</ele><time>2026-04-25T10:15:15Z</time></trkpt><trkpt lat="44.873682637724364" lon="5.74279160824277"><ele>732.0</ele><time>2026-04-25T10:15:16Z</time></trkpt><trkpt lat="44.87350510207195" lon="5.742709049919833"><ele>734.0</ele><time>2026-04-25T10:15:17Z</time></trkpt><trkpt lat="44.87334811504414" lon="5.742548511552004"><ele>736.0</ele><time>2026-04-25T10:15:18Z</time></trkpt><trkpt lat="44.87318761568352" lon="5.742371214544702"><ele>731.3333333333334</ele><time>2026-04-25T10:15:19Z</time></trkpt><trkpt lat="44.8730421454372" lon="5.7422354509162306"><ele>726.6666666666666</ele><time>2026-04-25T10:15:20Z</time></trkpt><trkpt lat="44.87292977416659" lon="5.742049827316609"><ele>722.0</ele><time>2026-04-25T10:15:21Z</time></trkpt><trkpt lat="44.87285665609089" lon="5.7418311224971434"><ele>722.0</ele><time>2026-04-25T10:15:22Z</time></trkpt><trkpt lat="44.872819296863064" lon="5.74157120901292"><ele>722.0</ele><time>2026-04-25T10:15:23Z</time></trkpt><trkpt lat="44.87280111307489" lon="5.7413005381024425"><ele>722.0</ele><time>2026-04-25T10:15:24Z</time></trkpt><trkpt lat="44.87278886710756" lon="5.741040054561302"><ele>723.0</ele><time>2026-04-25T10:15:25Z</time></trkpt><trkpt lat="44.87277125521645" lon="5.740760082315997"><ele>724.0</ele><time>2026-04-25T10:15:26Z</time></trkpt><trkpt lat="44.872753950076294" lon="5.740478553684622"><ele>725.0</ele><time>2026-04-25T10:15:27Z</time></trkpt><trkpt lat="44.87273416736269" lon="5.740198478555201"><ele>725.0</ele><time>2026-04-25T10:15:28Z</time></trkpt><trkpt lat="44.8727119712842" lon="5.739919280342482"><ele>725.0</ele><time>2026-04-25T10:15:29Z</time></trkpt><trkpt lat="44.87271715737678" lon="5.739623305262568"><ele>725.0</ele><time>2026-04-25T10:15:30Z</time></trkpt><trkpt lat="44.87274512564301" lon="5.739301116543277"><ele>722.5</ele><time>2026-04-25T10:15:31Z</time></trkpt><trkpt lat="44.87278603276899" lon="5.738962154594148"><ele>720.0</ele><time>2026-04-25T10:15:32Z</time></trkpt><trkpt lat="44.87282667254589" lon="5.738622282807144"><ele>716.5</ele><time>2026-04-25T10:15:33Z</time></trkpt><trkpt lat="44.87286450028107" lon="5.738279213308531"><ele>713.0</ele><time>2026-04-25T10:15:34Z</time></trkpt><trkpt lat="44.87289962761798" lon="5.737949580241058"><ele>711.0</ele><time>2026-04-25T10:15:35Z</time></trkpt><trkpt lat="44.87292402174141" lon="5.73763864584713"><ele>709.0</ele><time>2026-04-25T10:15:36Z</time></trkpt><trkpt lat="44.87295567845998" lon="5.737338670593226"><ele>707.0</ele><time>2026-04-25T10:15:37Z</time></trkpt><trkpt lat="44.872987931355205" lon="5.737041589226093"><ele>704.6666666666666</ele><time>2026-04-25T10:15:38Z</time></trkpt><trkpt lat="44.873055693917486" lon="5.736759509298418"><ele>702.3333333333334</ele><time>2026-04-25T10:15:39Z</time></trkpt><trkpt lat="44.873152860294574" lon="5.7364999266836865"><ele>700.0</ele><time>2026-04-25T10:15:40Z</time></trkpt><trkpt lat="44.87324569820766" lon="5.736240512979111"><ele>700.3333333333334</ele><time>2026-04-25T10:15:41Z</time></trkpt><trkpt lat="44.87339917048727" lon="5.736025848099833"><ele>700.6666666666666</ele><time>2026-04-25T10:15:42Z</time></trkpt><trkpt lat="44.87356705860644" lon="5.73581965658099"><ele>701.0</ele><time>2026-04-25T10:15:43Z</time></trkpt><trkpt lat="44.873754914121236" lon="5.735623047635849"><ele>701.0</ele><time>2026-04-25T10:15:44Z</time></trkpt><trkpt lat="44.87395531983821" lon="5.735429771996178"><ele>701.0</ele><time>2026-04-25T10:15:45Z</time></trkpt><trkpt lat="44.87415166365568" lon="5.735228203120637"><ele>698.6666666666666</ele><time>2026-04-25T10:15:46Z</time></trkpt><trkpt lat="44.87434326853938" lon="5.7350482157240394"><ele>696.3333333333334</ele><time>2026-04-25T10:15:47Z</time></trkpt><trkpt lat="44.874508280650986" lon="5.734861223649149"><ele>694.0</ele><time>2026-04-25T10:15:48Z</time></trkpt><trkpt lat="44.874667388319196" lon="5.7346937280151025"><ele>694.0</ele><time>2026-04-25T10:15:49Z</time></trkpt><trkpt lat="44.874832124693526" lon="5.734548077266565"><ele>694.0</ele><time>2026-04-25T10:15:50Z</time></trkpt><trkpt lat="44.875004916669795" lon="5.734444123217141"><ele>694.0</ele><time>2026-04-25T10:15:51Z</time></trkpt><trkpt lat="44.8751654857025" lon="5.734399243639385"><ele>694.25</ele><time>2026-04-25T10:15:52Z</time></trkpt><trkpt lat="44.87530784649581" lon="5.734407745788508"><ele>694.5</ele><time>2026-04-25T10:15:53Z</time></trkpt><trkpt lat="44.875415402730574" lon="5.734491041891492"><ele>694.75</ele><time>2026-04-25T10:15:54Z</time></trkpt><trkpt lat="44.8755059260548" lon="5.734599404405269"><ele>695.0</ele><time>2026-04-25T10:15:55Z</time></trkpt><trkpt lat="44.87558706224195" lon="5.734760029142186"><ele>695.0</ele><time>2026-04-25T10:15:55.999Z</time></trkpt><trkpt lat="44.875681863377544" lon="5.734960483773828"><ele>695.0</ele><time>2026-04-25T10:15:56.999Z</time></trkpt><trkpt lat="44.875793195883325" lon="5.73511879206519"><ele>695.0</ele><time>2026-04-25T10:15:57.999Z</time></trkpt><trkpt lat="44.875853972184835" lon="5.735196531852529"><ele>695.0</ele><time>2026-04-25T10:15:58.999Z</time></trkpt><trkpt lat="44.87594939693906" lon="5.73523254308937"><ele>695.6666666666666</ele><time>2026-04-25T10:15:59.999Z</time></trkpt><trkpt lat="44.87606312122898" lon="5.735194044557392"><ele>696.3333333333334</ele><time>2026-04-25T10:16:00.999Z</time></trkpt><trkpt lat="44.87622161630335" lon="5.734982442722545"><ele>697.0</ele><time>2026-04-25T10:16:01.999Z</time></trkpt><trkpt lat="44.87627140845264" lon="5.734760850481821"><ele>697.0</ele><time>2026-04-25T10:16:02.999Z</time></trkpt><trkpt lat="44.876295420018245" lon="5.7345578713699865"><ele>697.0</ele><time>2026-04-25T10:16:03.999Z</time></trkpt><trkpt lat="44.87631036030414" lon="5.734371343004733"><ele>697.0</ele><time>2026-04-25T10:16:04.999Z</time></trkpt><trkpt lat="44.87640520212522" lon="5.734203634396988"><ele>697.0</ele><time>2026-04-25T10:16:05.999Z</time></trkpt><trkpt lat="44.87648730708532" lon="5.7340920123970225"><ele>695.6</ele><time>2026-04-25T10:16:06.999Z</time></trkpt><trkpt lat="44.87659007376335" lon="5.734008484132137"><ele>694.2</ele><time>2026-04-25T10:16:07.999Z</time></trkpt><trkpt lat="44.87669365986698" lon="5.733929709334395"><ele>692.8</ele><time>2026-04-25T10:16:08.999Z</time></trkpt><trkpt lat="44.87677168185576" lon="5.73382580861853"><ele>691.4</ele><time>2026-04-25T10:16:09.999Z</time></trkpt><trkpt lat="44.87681652910422" lon="5.733691227064356"><ele>690.0</ele><time>2026-04-25T10:16:10.999Z</time></trkpt><trkpt lat="44.87682452484138" lon="5.733531947087544"><ele>696.25</ele><time>2026-04-25T10:16:11.999Z</time></trkpt><trkpt lat="44.87680942871527" lon="5.733375900842864"><ele>702.5</ele><time>2026-04-25T10:16:12.999Z</time></trkpt><trkpt lat="44.87680445356554" lon="5.7332091831647976"><ele>708.75</ele><time>2026-04-25T10:16:13.999Z</time></trkpt><trkpt lat="44.87682153396217" lon="5.733049237605798"><ele>715.0</ele><time>2026-04-25T10:16:14.999Z</time></trkpt><trkpt lat="44.87689047592285" lon="5.732909343376054"><ele>715.0</ele><time>2026-04-25T10:16:15.999Z</time></trkpt><trkpt lat="44.876944951983994" lon="5.732763741813991"><ele>715.0</ele><time>2026-04-25T10:16:16.999Z</time></trkpt><trkpt lat="44.87699405346952" lon="5.732615196433792"><ele>715.0</ele><time>2026-04-25T10:16:17.999Z</time></trkpt><trkpt lat="44.87700656824908" lon="5.732446120125958"><ele>715.0</ele><time>2026-04-25T10:16:18.999Z</time></trkpt><trkpt lat="44.87699408614427" lon="5.732269815339874"><ele>713.8</ele><time>2026-04-25T10:16:19.999Z</time></trkpt><trkpt lat="44.876983623527025" lon="5.732097808722117"><ele>712.6</ele><time>2026-04-25T10:16:20.999Z</time></trkpt><trkpt lat="44.876982081079746" lon="5.73194491619665"><ele>711.4000000000001</ele><time>2026-04-25T10:16:21.999Z</time></trkpt><trkpt lat="44.876987710513156" lon="5.731806859852075"><ele>710.2</ele><time>2026-04-25T10:16:22.999Z</time></trkpt><trkpt lat="44.87701929997548" lon="5.7316713067287095"><ele>709.0</ele><time>2026-04-25T10:16:23.999Z</time></trkpt><trkpt lat="44.87711348386002" lon="5.7315327303049886"><ele>707.0</ele><time>2026-04-25T10:16:24.999Z</time></trkpt><trkpt lat="44.8772072089211" lon="5.731363132970613"><ele>705.0</ele><time>2026-04-25T10:16:25.999Z</time></trkpt><trkpt lat="44.87730770362756" lon="5.731222050602001"><ele>703.0</ele><time>2026-04-25T10:16:26.999Z</time></trkpt><trkpt lat="44.877395263194124" lon="5.731087051908886"><ele>701.0</ele><time>2026-04-25T10:16:27.999Z</time></trkpt><trkpt lat="44.87746592815333" lon="5.730959451706411"><ele>699.0</ele><time>2026-04-25T10:16:28.999Z</time></trkpt><trkpt lat="44.87753298761522" lon="5.7308441845947975"><ele>697.0</ele><time>2026-04-25T10:16:29.999Z</time></trkpt><trkpt lat="44.87763044043237" lon="5.730769786444551"><ele>695.0</ele><time>2026-04-25T10:16:30.999Z</time></trkpt><trkpt lat="44.87773829813154" lon="5.730721121671395"><ele>693.0</ele><time>2026-04-25T10:16:31.999Z</time></trkpt><trkpt lat="44.87785329740591" lon="5.730705584987179"><ele>691.0</ele><time>2026-04-25T10:16:32.999Z</time></trkpt><trkpt lat="44.877965163445154" lon="5.730687065320048"><ele>691.0</ele><time>2026-04-25T10:16:33.999Z</time></trkpt><trkpt lat="44.87807001122276" lon="5.730681449441804"><ele>691.0</ele><time>2026-04-25T10:16:34.999Z</time></trkpt><trkpt lat="44.87818127512903" lon="5.730666941944114"><ele>691.0</ele><time>2026-04-25T10:16:35.999Z</time></trkpt><trkpt lat="44.878282115121884" lon="5.730640147047409"><ele>691.0</ele><time>2026-04-25T10:16:36.999Z</time></trkpt><trkpt lat="44.878380212783625" lon="5.730587946421199"><ele>691.0</ele><time>2026-04-25T10:16:37.999Z</time></trkpt><trkpt lat="44.87846799990535" lon="5.730510502022756"><ele>694.8</ele><time>2026-04-25T10:16:38.999Z</time></trkpt><trkpt lat="44.87854444117014" lon="5.7304188676252545"><ele>698.5999999999999</ele><time>2026-04-25T10:16:39.999Z</time></trkpt><trkpt lat="44.8786109957168" lon="5.73031809911185"><ele>702.4</ele><time>2026-04-25T10:16:40.999Z</time></trkpt><trkpt lat="44.87864972554443" lon="5.730200065403384"><ele>706.2</ele><time>2026-04-25T10:16:41.999Z</time></trkpt><trkpt lat="44.87863338007002" lon="5.7300558359834755"><ele>710.0</ele><time>2026-04-25T10:16:42.999Z</time></trkpt><trkpt lat="44.87855018212932" lon="5.72992683436651"><ele>702.6666666666666</ele><time>2026-04-25T10:16:43.999Z</time></trkpt><trkpt lat="44.87842662580601" lon="5.729837534338553"><ele>695.3333333333334</ele><time>2026-04-25T10:16:44.999Z</time></trkpt><trkpt lat="44.87827050617745" lon="5.729785425908582"><ele>688.0</ele><time>2026-04-25T10:16:45.999Z</time></trkpt><trkpt lat="44.87809784671153" lon="5.729718403880453"><ele>688.0</ele><time>2026-04-25T10:16:46.999Z</time></trkpt><trkpt lat="44.87791682535342" lon="5.729670560232906"><ele>688.0</ele><time>2026-04-25T10:16:47.999Z</time></trkpt><trkpt lat="44.87772346467993" lon="5.7296308789626975"><ele>688.0</ele><time>2026-04-25T10:16:48.999Z</time></trkpt><trkpt lat="44.877502220700855" lon="5.729595636601242"><ele>681.0</ele><time>2026-04-25T10:16:49.999Z</time></trkpt><trkpt lat="44.87726085531158" lon="5.729569131322009"><ele>674.0</ele><time>2026-04-25T10:16:50.999Z</time></trkpt><trkpt lat="44.87701439200454" lon="5.72960243179388"><ele>674.0</ele><time>2026-04-25T10:16:51.999Z</time></trkpt><trkpt lat="44.87679826868218" lon="5.729614976890997"><ele>674.0</ele><time>2026-04-25T10:16:52.999Z</time></trkpt><trkpt lat="44.87659154912471" lon="5.7295764657072"><ele>674.0</ele><time>2026-04-25T10:16:53.999Z</time></trkpt><trkpt lat="44.87637139266453" lon="5.729626277417095"><ele>672.5</ele><time>2026-04-25T10:16:54.999Z</time></trkpt><trkpt lat="44.87613017131738" lon="5.729699907960838"><ele>671.0</ele><time>2026-04-25T10:16:55.999Z</time></trkpt><trkpt lat="44.875889262807505" lon="5.729759038881035"><ele>673.0</ele><time>2026-04-25T10:16:56.998Z</time></trkpt><trkpt lat="44.875675199643275" lon="5.729809400541426"><ele>675.0</ele><time>2026-04-25T10:16:57.998Z</time></trkpt><trkpt lat="44.87548154831591" lon="5.729854960001551"><ele>677.0</ele><time>2026-04-25T10:16:58.998Z</time></trkpt><trkpt lat="44.87529788074438" lon="5.7298997505634865"><ele>677.0</ele><time>2026-04-25T10:16:59.998Z</time></trkpt><trkpt lat="44.87512587054835" lon="5.729926379608611"><ele>677.0</ele><time>2026-04-25T10:17:00.998Z</time></trkpt><trkpt lat="44.874961623463264" lon="5.729912683748903"><ele>677.0</ele><time>2026-04-25T10:17:01.998Z</time></trkpt><trkpt lat="44.87478423167695" lon="5.729832948840836"><ele>677.3333333333333</ele><time>2026-04-25T10:17:02.998Z</time></trkpt><trkpt lat="44.874589816251216" lon="5.7297189042683625"><ele>677.6666666666666</ele><time>2026-04-25T10:17:03.998Z</time></trkpt><trkpt lat="44.87442157866404" lon="5.7296024246817225"><ele>678.0</ele><time>2026-04-25T10:17:04.998Z</time></trkpt><trkpt lat="44.87429042834081" lon="5.729481207385761"><ele>677.25</ele><time>2026-04-25T10:17:05.998Z</time></trkpt><trkpt lat="44.874202016477696" lon="5.729369387367531"><ele>676.5</ele><time>2026-04-25T10:17:06.998Z</time></trkpt><trkpt lat="44.874175369333706" lon="5.729226329153564"><ele>675.75</ele><time>2026-04-25T10:17:07.998Z</time></trkpt><trkpt lat="44.87423470528787" lon="5.729079933345782"><ele>675.0</ele><time>2026-04-25T10:17:08.998Z</time></trkpt><trkpt lat="44.87432541832343" lon="5.728951296559633"><ele>682.6666666666666</ele><time>2026-04-25T10:17:09.998Z</time></trkpt><trkpt lat="44.874430309162975" lon="5.72880299265048"><ele>690.3333333333333</ele><time>2026-04-25T10:17:10.998Z</time></trkpt><trkpt lat="44.874545151274184" lon="5.728611238544815"><ele>698.0</ele><time>2026-04-25T10:17:11.998Z</time></trkpt><trkpt lat="44.87467175641582" lon="5.728401833617769"><ele>698.0</ele><time>2026-04-25T10:17:12.998Z</time></trkpt><trkpt lat="44.874813798158215" lon="5.728178386468253"><ele>698.0</ele><time>2026-04-25T10:17:13.998Z</time></trkpt><trkpt lat="44.87496965855016" lon="5.727965729227747"><ele>698.0</ele><time>2026-04-25T10:17:14.998Z</time></trkpt><trkpt lat="44.87511106873125" lon="5.7277754695461764"><ele>701.0</ele><time>2026-04-25T10:17:15.998Z</time></trkpt><trkpt lat="44.87522780433143" lon="5.727613723034988"><ele>704.0</ele><time>2026-04-25T10:17:16.998Z</time></trkpt><trkpt lat="44.87530643511445" lon="5.727461901363008"><ele>707.0</ele><time>2026-04-25T10:17:18Z</time></trkpt><trkpt lat="44.87534360196314" lon="5.727275762377474"><ele>710.0</ele><time>2026-04-25T10:17:19Z</time></trkpt><trkpt lat="44.87531354215759" lon="5.727058033897515"><ele>707.3333333333333</ele><time>2026-04-25T10:17:20Z</time></trkpt><trkpt lat="44.87524653522268" lon="5.72682343737448"><ele>704.6666666666666</ele><time>2026-04-25T10:17:21Z</time></trkpt><trkpt lat="44.87516608710962" lon="5.726583274865516"><ele>702.0</ele><time>2026-04-25T10:17:22Z</time></trkpt><trkpt lat="44.87504262083454" lon="5.726354843955288"><ele>699.0</ele><time>2026-04-25T10:17:23Z</time></trkpt><trkpt lat="44.874922866545404" lon="5.726113531557464"><ele>696.0</ele><time>2026-04-25T10:17:24Z</time></trkpt><trkpt lat="44.87481058148133" lon="5.725871548942394"><ele>693.0</ele><time>2026-04-25T10:17:25Z</time></trkpt><trkpt lat="44.8746988614515" lon="5.725633640776408"><ele>693.0</ele><time>2026-04-25T10:17:26Z</time></trkpt><trkpt lat="44.87458469084078" lon="5.725393710409291"><ele>693.0</ele><time>2026-04-25T10:17:27Z</time></trkpt><trkpt lat="44.874478771760565" lon="5.7251665291922675"><ele>693.0</ele><time>2026-04-25T10:17:28Z</time></trkpt><trkpt lat="44.87438510444531" lon="5.724956074569849"><ele>694.5</ele><time>2026-04-25T10:17:29Z</time></trkpt><trkpt lat="44.87429719817166" lon="5.724767887779658"><ele>696.0</ele><time>2026-04-25T10:17:30Z</time></trkpt><trkpt lat="44.874202620435334" lon="5.724634542482736"><ele>697.5</ele><time>2026-04-25T10:17:31Z</time></trkpt><trkpt lat="44.87408865860215" lon="5.724569197936001"><ele>699.0</ele><time>2026-04-25T10:17:32Z</time></trkpt><trkpt lat="44.873963721818996" lon="5.724577528636603"><ele>697.0</ele><time>2026-04-25T10:17:33Z</time></trkpt><trkpt lat="44.873844667616666" lon="5.724586581819619"><ele>695.0</ele><time>2026-04-25T10:17:34Z</time></trkpt><trkpt lat="44.87374211176248" lon="5.724549069995909"><ele>693.0</ele><time>2026-04-25T10:17:35Z</time></trkpt><trkpt lat="44.8736513034316" lon="5.7244657199976405"><ele>691.0</ele><time>2026-04-25T10:17:36Z</time></trkpt><trkpt lat="44.87358333470623" lon="5.724319666013484"><ele>691.0</ele><time>2026-04-25T10:17:37Z</time></trkpt><trkpt lat="44.87355434307103" lon="5.724139027153015"><ele>691.0</ele><time>2026-04-25T10:17:38Z</time></trkpt><trkpt lat="44.87353474705837" lon="5.723957461407229"><ele>691.0</ele><time>2026-04-25T10:17:39Z</time></trkpt><trkpt lat="44.87352808218954" lon="5.723800801280174"><ele>691.0</ele><time>2026-04-25T10:17:40Z</time></trkpt><trkpt lat="44.87351817899888" lon="5.723660070320539"><ele>690.0</ele><time>2026-04-25T10:17:41Z</time></trkpt><trkpt lat="44.87354119496533" lon="5.723524500216783"><ele>689.0</ele><time>2026-04-25T10:17:42Z</time></trkpt><trkpt lat="44.87358939649157" lon="5.723408447147461"><ele>688.0</ele><time>2026-04-25T10:17:43Z</time></trkpt><trkpt lat="44.87364619138823" lon="5.723311541966886"><ele>687.0</ele><time>2026-04-25T10:17:44Z</time></trkpt><trkpt lat="44.87371007366115" lon="5.723232079921106"><ele>686.0</ele><time>2026-04-25T10:17:45Z</time></trkpt><trkpt lat="44.8737764483681" lon="5.723153319225284"><ele>686.0</ele><time>2026-04-25T10:17:46Z</time></trkpt><trkpt lat="44.873846247750556" lon="5.723065783122787"><ele>686.0</ele><time>2026-04-25T10:17:47Z</time></trkpt><trkpt lat="44.873913865590545" lon="5.72297171451215"><ele>686.0</ele><time>2026-04-25T10:17:48Z</time></trkpt><trkpt lat="44.8739744442372" lon="5.722868714761138"><ele>686.0</ele><time>2026-04-25T10:17:49Z</time></trkpt><trkpt lat="44.87403306560818" lon="5.722739181250885"><ele>686.0</ele><time>2026-04-25T10:17:50Z</time></trkpt><trkpt lat="44.87409284740713" lon="5.722613582948543"><ele>685.0</ele><time>2026-04-25T10:17:51Z</time></trkpt><trkpt lat="44.87413586025607" lon="5.72249003682271"><ele>684.0</ele><time>2026-04-25T10:17:52Z</time></trkpt><trkpt lat="44.874161912347915" lon="5.722337953129721"><ele>683.0</ele><time>2026-04-25T10:17:53Z</time></trkpt><trkpt lat="44.87418708509893" lon="5.722177327366506"><ele>682.0</ele><time>2026-04-25T10:17:54Z</time></trkpt><trkpt lat="44.87420972429028" lon="5.722016520953056"><ele>681.0</ele><time>2026-04-25T10:17:55Z</time></trkpt><trkpt lat="44.87423136515898" lon="5.721849031081019"><ele>679.5</ele><time>2026-04-25T10:17:56Z</time></trkpt><trkpt lat="44.874257793999" lon="5.721679048879043"><ele>678.0</ele><time>2026-04-25T10:17:57Z</time></trkpt><trkpt lat="44.8742774761267" lon="5.721505292879947"><ele>676.5</ele><time>2026-04-25T10:17:58Z</time></trkpt><trkpt lat="44.87427506774636" lon="5.7213284863728475"><ele>675.0</ele><time>2026-04-25T10:17:59Z</time></trkpt><trkpt lat="44.87424169504537" lon="5.721159386153866"><ele>674.75</ele><time>2026-04-25T10:18:00Z</time></trkpt><trkpt lat="44.87420792242486" lon="5.7209953746523405"><ele>674.5</ele><time>2026-04-25T10:18:01Z</time></trkpt><trkpt lat="44.8741812650015" lon="5.720820366481459"><ele>674.25</ele><time>2026-04-25T10:18:01.999Z</time></trkpt><trkpt lat="44.87415451343839" lon="5.720636733459214"><ele>674.0</ele><time>2026-04-25T10:18:02.999Z</time></trkpt><trkpt lat="44.87412595667824" lon="5.720459663726629"><ele>674.0</ele><time>2026-04-25T10:18:03.999Z</time></trkpt><trkpt lat="44.874094444596714" lon="5.720268083282679"><ele>674.0</ele><time>2026-04-25T10:18:04.999Z</time></trkpt><trkpt lat="44.87405599932025" lon="5.720078748451561"><ele>674.0</ele><time>2026-04-25T10:18:05.999Z</time></trkpt><trkpt lat="44.87399688262016" lon="5.719898344375204"><ele>674.0</ele><time>2026-04-25T10:18:06.999Z</time></trkpt><trkpt lat="44.873917276036536" lon="5.719724380806069"><ele>674.0</ele><time>2026-04-25T10:18:07.999Z</time></trkpt><trkpt lat="44.873833921895105" lon="5.719538467410041"><ele>674.0</ele><time>2026-04-25T10:18:08.999Z</time></trkpt><trkpt lat="44.8737559730517" lon="5.719347305868195"><ele>674.0</ele><time>2026-04-25T10:18:09.999Z</time></trkpt><trkpt lat="44.87367453741806" lon="5.719151861455932"><ele>675.0</ele><time>2026-04-25T10:18:10.999Z</time></trkpt><trkpt lat="44.873592091518844" lon="5.71896062591582"><ele>676.0</ele><time>2026-04-25T10:18:11.999Z</time></trkpt><trkpt lat="44.87351248167061" lon="5.7187826688022705"><ele>677.0</ele><time>2026-04-25T10:18:12.999Z</time></trkpt><trkpt lat="44.873438948340876" lon="5.71861276059558"><ele>678.0</ele><time>2026-04-25T10:18:13.999Z</time></trkpt><trkpt lat="44.87337587371881" lon="5.718446843479923"><ele>675.0</ele><time>2026-04-25T10:18:14.999Z</time></trkpt><trkpt lat="44.87332560750688" lon="5.718272206796495"><ele>672.0</ele><time>2026-04-25T10:18:15.999Z</time></trkpt><trkpt lat="44.87329603994174" lon="5.71808401201842"><ele>669.0</ele><time>2026-04-25T10:18:16.999Z</time></trkpt><trkpt lat="44.87328180827711" lon="5.717889453659159"><ele>666.0</ele><time>2026-04-25T10:18:17.999Z</time></trkpt><trkpt lat="44.873301079911094" lon="5.717684390862393"><ele>665.4</ele><time>2026-04-25T10:18:18.999Z</time></trkpt><trkpt lat="44.873334027936174" lon="5.717555392227559"><ele>664.8</ele><time>2026-04-25T10:18:19.999Z</time></trkpt><trkpt lat="44.8733658947897" lon="5.717396445666582"><ele>664.1999999999999</ele><time>2026-04-25T10:18:20.999Z</time></trkpt><trkpt lat="44.87340442412148" lon="5.71725114281407"><ele>663.5999999999999</ele><time>2026-04-25T10:18:21.999Z</time></trkpt><trkpt lat="44.87343670538547" lon="5.717108136484496"><ele>663.0</ele><time>2026-04-25T10:18:22.999Z</time></trkpt><trkpt lat="44.87347847937684" lon="5.716947954880409"><ele>667.75</ele><time>2026-04-25T10:18:23.999Z</time></trkpt><trkpt lat="44.873524318187805" lon="5.7167831644350695"><ele>672.5</ele><time>2026-04-25T10:18:24.999Z</time></trkpt><trkpt lat="44.87356450914288" lon="5.716632687396445"><ele>677.25</ele><time>2026-04-25T10:18:25.999Z</time></trkpt><trkpt lat="44.87359242671767" lon="5.716468114611505"><ele>682.0</ele><time>2026-04-25T10:18:26.999Z</time></trkpt><trkpt lat="44.87360048976137" lon="5.716292320461729"><ele>682.0</ele><time>2026-04-25T10:18:27.999Z</time></trkpt><trkpt lat="44.87357973427716" lon="5.71611010492492"><ele>682.0</ele><time>2026-04-25T10:18:28.999Z</time></trkpt><trkpt lat="44.873529460513474" lon="5.715921659055096"><ele>682.0</ele><time>2026-04-25T10:18:29.999Z</time></trkpt><trkpt lat="44.873461219747476" lon="5.715728950542752"><ele>682.0</ele><time>2026-04-25T10:18:30.999Z</time></trkpt><trkpt lat="44.873390596576506" lon="5.715507492997119"><ele>673.0</ele><time>2026-04-25T10:18:31.999Z</time></trkpt><trkpt lat="44.8733211103676" lon="5.7152694027776905"><ele>664.0</ele><time>2026-04-25T10:18:32.999Z</time></trkpt><trkpt lat="44.87325437056062" lon="5.715019568229385"><ele>655.0</ele><time>2026-04-25T10:18:33.999Z</time></trkpt><trkpt lat="44.87320172933741" lon="5.714761968237987"><ele>655.0</ele><time>2026-04-25T10:18:34.999Z</time></trkpt><trkpt lat="44.873189510051006" lon="5.714488660714439"><ele>655.0</ele><time>2026-04-25T10:18:35.999Z</time></trkpt><trkpt lat="44.87318916542739" lon="5.714213927446576"><ele>655.0</ele><time>2026-04-25T10:18:36.999Z</time></trkpt><trkpt lat="44.87321806615696" lon="5.713959257782111"><ele>654.3333333333334</ele><time>2026-04-25T10:18:37.999Z</time></trkpt><trkpt lat="44.8732811654249" lon="5.713742440756311"><ele>653.6666666666666</ele><time>2026-04-25T10:18:38.999Z</time></trkpt><trkpt lat="44.873362587634475" lon="5.71353063303387"><ele>653.0</ele><time>2026-04-25T10:18:39.999Z</time></trkpt><trkpt lat="44.873460345665585" lon="5.713303026204755"><ele>662.6666666666666</ele><time>2026-04-25T10:18:40.999Z</time></trkpt><trkpt lat="44.873545964272346" lon="5.7130672015472355"><ele>672.3333333333334</ele><time>2026-04-25T10:18:41.999Z</time></trkpt><trkpt lat="44.873650707020936" lon="5.712838675020029"><ele>682.0</ele><time>2026-04-25T10:18:42.999Z</time></trkpt><trkpt lat="44.873694385447195" lon="5.7125822419653085"><ele>682.0</ele><time>2026-04-25T10:18:43.999Z</time></trkpt><trkpt lat="44.87372998088968" lon="5.71232242604573"><ele>682.0</ele><time>2026-04-25T10:18:44.999Z</time></trkpt><trkpt lat="44.87381206279285" lon="5.7120790410372635"><ele>682.0</ele><time>2026-04-25T10:18:45.999Z</time></trkpt><trkpt lat="44.873918970469234" lon="5.711843882067677"><ele>677.3333333333334</ele><time>2026-04-25T10:18:46.999Z</time></trkpt><trkpt lat="44.874000048904406" lon="5.7115950856480335"><ele>672.6666666666666</ele><time>2026-04-25T10:18:47.999Z</time></trkpt><trkpt lat="44.87404825796945" lon="5.711341975134961"><ele>668.0</ele><time>2026-04-25T10:18:48.999Z</time></trkpt><trkpt lat="44.87407213310218" lon="5.711104061346395"><ele>664.75</ele><time>2026-04-25T10:18:49.999Z</time></trkpt><trkpt lat="44.874076623171895" lon="5.710890213368923"><ele>661.5</ele><time>2026-04-25T10:18:50.999Z</time></trkpt><trkpt lat="44.87408094117033" lon="5.710693324920603"><ele>658.25</ele><time>2026-04-25T10:18:51.999Z</time></trkpt><trkpt lat="44.874117660056314" lon="5.710510156177082"><ele>655.0</ele><time>2026-04-25T10:18:52.999Z</time></trkpt><trkpt lat="44.87419828639962" lon="5.710354885819122"><ele>656.5</ele><time>2026-04-25T10:18:53.999Z</time></trkpt><trkpt lat="44.87431206354479" lon="5.71024883767532"><ele>658.0</ele><time>2026-04-25T10:18:54.999Z</time></trkpt><trkpt lat="44.874447380023824" lon="5.7101546398036085"><ele>659.5</ele><time>2026-04-25T10:18:55.999Z</time></trkpt><trkpt lat="44.874593492397956" lon="5.710059527861532"><ele>661.0</ele><time>2026-04-25T10:18:56.999Z</time></trkpt><trkpt lat="44.874737621649096" lon="5.709964957699873"><ele>661.0</ele><time>2026-04-25T10:18:57.999Z</time></trkpt><trkpt lat="44.874882972106136" lon="5.709872613352269"><ele>661.0</ele><time>2026-04-25T10:18:58.999Z</time></trkpt><trkpt lat="44.875028668787586" lon="5.709789882681445"><ele>661.0</ele><time>2026-04-25T10:18:59.999Z</time></trkpt><trkpt lat="44.87517460645264" lon="5.709713086769387"><ele>659.75</ele><time>2026-04-25T10:19:00.999Z</time></trkpt><trkpt lat="44.87531898035489" lon="5.709634604039034"><ele>658.5</ele><time>2026-04-25T10:19:01.999Z</time></trkpt><trkpt lat="44.875457597184486" lon="5.709554800905165"><ele>657.25</ele><time>2026-04-25T10:19:02.998Z</time></trkpt><trkpt lat="44.87559140837302" lon="5.709477508174714"><ele>656.0</ele><time>2026-04-25T10:19:03.998Z</time></trkpt><trkpt lat="44.87572187557751" lon="5.7094011061861325"><ele>656.0</ele><time>2026-04-25T10:19:04.998Z</time></trkpt><trkpt lat="44.87585213964851" lon="5.709326437923565"><ele>656.0</ele><time>2026-04-25T10:19:05.998Z</time></trkpt><trkpt lat="44.8759782385934" lon="5.709253834845885"><ele>656.0</ele><time>2026-04-25T10:19:06.998Z</time></trkpt><trkpt lat="44.87610568218239" lon="5.709191585884829"><ele>656.0</ele><time>2026-04-25T10:19:07.998Z</time></trkpt><trkpt lat="44.876229623116295" lon="5.709124901918318"><ele>661.5</ele><time>2026-04-25T10:19:08.998Z</time></trkpt><trkpt lat="44.87633466928867" lon="5.709021280257262"><ele>667.0</ele><time>2026-04-25T10:19:09.998Z</time></trkpt><trkpt lat="44.8764258481505" lon="5.7088755273375815"><ele>672.5</ele><time>2026-04-25T10:19:10.998Z</time></trkpt><trkpt lat="44.87650248075356" lon="5.708739234564436"><ele>678.0</ele><time>2026-04-25T10:19:11.998Z</time></trkpt><trkpt lat="44.87658669374339" lon="5.708606696142366"><ele>680.25</ele><time>2026-04-25T10:19:12.998Z</time></trkpt><trkpt lat="44.876669984501554" lon="5.708476845068524"><ele>682.5</ele><time>2026-04-25T10:19:13.998Z</time></trkpt><trkpt lat="44.876742007443085" lon="5.7083369142545415"><ele>684.75</ele><time>2026-04-25T10:19:14.998Z</time></trkpt><trkpt lat="44.87679045002991" lon="5.708171243878585"><ele>687.0</ele><time>2026-04-25T10:19:15.998Z</time></trkpt><trkpt lat="44.876823350001786" lon="5.70796017948877"><ele>686.0</ele><time>2026-04-25T10:19:16.998Z</time></trkpt><trkpt lat="44.87683623305855" lon="5.707719948872136"><ele>685.0</ele><time>2026-04-25T10:19:17.998Z</time></trkpt><trkpt lat="44.876810346675676" lon="5.707488900356451"><ele>684.0</ele><time>2026-04-25T10:19:18.998Z</time></trkpt><trkpt lat="44.876789123407924" lon="5.7072712927218605"><ele>684.0</ele><time>2026-04-25T10:19:19.998Z</time></trkpt><trkpt lat="44.87683973714132" lon="5.707092749340006"><ele>684.0</ele><time>2026-04-25T10:19:20.998Z</time></trkpt><trkpt lat="44.87692565936432" lon="5.706944276984873"><ele>684.0</ele><time>2026-04-25T10:19:21.998Z</time></trkpt><trkpt lat="44.87702933998782" lon="5.706766596869108"><ele>684.0</ele><time>2026-04-25T10:19:22.998Z</time></trkpt><trkpt lat="44.8771359061812" lon="5.706604568371695"><ele>684.3333333333334</ele><time>2026-04-25T10:19:24Z</time></trkpt><trkpt lat="44.87718282970061" lon="5.706411489558868"><ele>684.6666666666667</ele><time>2026-04-25T10:19:25Z</time></trkpt><trkpt lat="44.877169937458596" lon="5.706202557589088"><ele>685.0</ele><time>2026-04-25T10:19:26Z</time></trkpt><trkpt lat="44.877110773585294" lon="5.705983799023954"><ele>685.0</ele><time>2026-04-25T10:19:27Z</time></trkpt><trkpt lat="44.87702197443396" lon="5.7057806220008125"><ele>685.0</ele><time>2026-04-25T10:19:28Z</time></trkpt><trkpt lat="44.876944676957834" lon="5.705593970892191"><ele>685.0</ele><time>2026-04-25T10:19:29Z</time></trkpt><trkpt lat="44.8769327392249" lon="5.705381330891493"><ele>684.25</ele><time>2026-04-25T10:19:30Z</time></trkpt><trkpt lat="44.87695094123343" lon="5.705178247446523"><ele>683.5</ele><time>2026-04-25T10:19:31Z</time></trkpt><trkpt lat="44.87702690845419" lon="5.704994095889384"><ele>682.75</ele><time>2026-04-25T10:19:32Z</time></trkpt><trkpt lat="44.87713215126553" lon="5.704846624503936"><ele>682.0</ele><time>2026-04-25T10:19:33Z</time></trkpt><trkpt lat="44.8772692368012" lon="5.704777663264339"><ele>682.0</ele><time>2026-04-25T10:19:34Z</time></trkpt><trkpt lat="44.87739203329251" lon="5.704688251302235"><ele>682.0</ele><time>2026-04-25T10:19:35Z</time></trkpt><trkpt lat="44.87752397702471" lon="5.704627253245775"><ele>682.0</ele><time>2026-04-25T10:19:36Z</time></trkpt><trkpt lat="44.877655039620485" lon="5.704566501073221"><ele>682.0</ele><time>2026-04-25T10:19:37Z</time></trkpt><trkpt lat="44.87779132921459" lon="5.704502613752831"><ele>681.25</ele><time>2026-04-25T10:19:38Z</time></trkpt><trkpt lat="44.87792704552626" lon="5.704445224335299"><ele>680.5</ele><time>2026-04-25T10:19:39Z</time></trkpt><trkpt lat="44.87806710422816" lon="5.704392374179397"><ele>679.75</ele><time>2026-04-25T10:19:40Z</time></trkpt><trkpt lat="44.87821006601497" lon="5.704346840009417"><ele>679.0</ele><time>2026-04-25T10:19:41Z</time></trkpt><trkpt lat="44.87835962947512" lon="5.704300122331764"><ele>684.0</ele><time>2026-04-25T10:19:42Z</time></trkpt><trkpt lat="44.87851063978227" lon="5.704245012439232"><ele>689.0</ele><time>2026-04-25T10:19:43Z</time></trkpt><trkpt lat="44.87866542552111" lon="5.704184574010842"><ele>694.0</ele><time>2026-04-25T10:19:44Z</time></trkpt><trkpt lat="44.878824881863316" lon="5.704125656623555"><ele>694.0</ele><time>2026-04-25T10:19:45Z</time></trkpt><trkpt lat="44.878984295161224" lon="5.704072149413765"><ele>694.0</ele><time>2026-04-25T10:19:46Z</time></trkpt><trkpt lat="44.879145121270106" lon="5.704019829138614"><ele>694.0</ele><time>2026-04-25T10:19:47Z</time></trkpt><trkpt lat="44.87930475066542" lon="5.703966902599246"><ele>697.0</ele><time>2026-04-25T10:19:48Z</time></trkpt><trkpt lat="44.87946345094234" lon="5.703910187194925"><ele>700.0</ele><time>2026-04-25T10:19:49Z</time></trkpt><trkpt lat="44.87961919076306" lon="5.703849208335324"><ele>703.0</ele><time>2026-04-25T10:19:50Z</time></trkpt><trkpt lat="44.87977426039022" lon="5.703793361253622"><ele>703.0</ele><time>2026-04-25T10:19:51Z</time></trkpt><trkpt lat="44.87993240296611" lon="5.703763287535369"><ele>703.0</ele><time>2026-04-25T10:19:52Z</time></trkpt><trkpt lat="44.88008874651756" lon="5.703801557737409"><ele>703.0</ele><time>2026-04-25T10:19:53Z</time></trkpt><trkpt lat="44.88025998405935" lon="5.70385408349213"><ele>701.6666666666667</ele><time>2026-04-25T10:19:54Z</time></trkpt><trkpt lat="44.88044352362513" lon="5.70392520223956"><ele>700.3333333333334</ele><time>2026-04-25T10:19:55Z</time></trkpt><trkpt lat="44.88061899616061" lon="5.703978214184277"><ele>699.0</ele><time>2026-04-25T10:19:56Z</time></trkpt><trkpt lat="44.88077882328371" lon="5.704059899766869"><ele>696.0</ele><time>2026-04-25T10:19:57Z</time></trkpt><trkpt lat="44.88094035079571" lon="5.704156742733373"><ele>693.0</ele><time>2026-04-25T10:19:58Z</time></trkpt><trkpt lat="44.8811037759579" lon="5.704276290592664"><ele>690.0</ele><time>2026-04-25T10:19:59Z</time></trkpt><trkpt lat="44.88125264900968" lon="5.704401764997895"><ele>694.6666666666666</ele><time>2026-04-25T10:20:00Z</time></trkpt><trkpt lat="44.88138523074209" lon="5.704519302666943"><ele>699.3333333333333</ele><time>2026-04-25T10:20:01Z</time></trkpt><trkpt lat="44.88152741351193" lon="5.704610711610204"><ele>704.0</ele><time>2026-04-25T10:20:02Z</time></trkpt><trkpt lat="44.88168454064269" lon="5.704634102210405"><ele>705.0</ele><time>2026-04-25T10:20:03Z</time></trkpt><trkpt lat="44.88186206950994" lon="5.704620974095158"><ele>706.0</ele><time>2026-04-25T10:20:04Z</time></trkpt><trkpt lat="44.88204782623017" lon="5.704603815741128"><ele>707.0</ele><time>2026-04-25T10:20:05Z</time></trkpt><trkpt lat="44.8822271767835" lon="5.704586822121664"><ele>707.0</ele><time>2026-04-25T10:20:05.999Z</time></trkpt><trkpt lat="44.882399567437226" lon="5.704535271598483"><ele>707.0</ele><time>2026-04-25T10:20:06.999Z</time></trkpt><trkpt lat="44.88255704572449" lon="5.704445218423381"><ele>707.0</ele><time>2026-04-25T10:20:07.999Z</time></trkpt><trkpt lat="44.88269685030371" lon="5.704315022976001"><ele>710.75</ele><time>2026-04-25T10:20:08.999Z</time></trkpt><trkpt lat="44.88281026139326" lon="5.7041869140837855"><ele>714.5</ele><time>2026-04-25T10:20:09.999Z</time></trkpt><trkpt lat="44.88289774981951" lon="5.704046623166008"><ele>718.25</ele><time>2026-04-25T10:20:10.999Z</time></trkpt><trkpt lat="44.88294111305911" lon="5.703869493787849"><ele>722.0</ele><time>2026-04-25T10:20:11.999Z</time></trkpt><trkpt lat="44.882932529338056" lon="5.703654885129861"><ele>723.0</ele><time>2026-04-25T10:20:12.999Z</time></trkpt><trkpt lat="44.88288372240957" lon="5.703426885736559"><ele>724.0</ele><time>2026-04-25T10:20:13.999Z</time></trkpt><trkpt lat="44.88283651651353" lon="5.7032133840727015"><ele>725.0</ele><time>2026-04-25T10:20:14.999Z</time></trkpt><trkpt lat="44.88284007486854" lon="5.703005736104064"><ele>725.0</ele><time>2026-04-25T10:20:15.999Z</time></trkpt><trkpt lat="44.88293000668219" lon="5.702835193658875"><ele>725.0</ele><time>2026-04-25T10:20:16.999Z</time></trkpt><trkpt lat="44.883053518508255" lon="5.702696363456486"><ele>725.0</ele><time>2026-04-25T10:20:17.999Z</time></trkpt><trkpt lat="44.883197199334425" lon="5.702534830038494"><ele>727.0</ele><time>2026-04-25T10:20:18.999Z</time></trkpt><trkpt lat="44.88336423615776" lon="5.702409163718892"><ele>729.0</ele><time>2026-04-25T10:20:19.999Z</time></trkpt><trkpt lat="44.88352572608032" lon="5.702282047463272"><ele>731.0</ele><time>2026-04-25T10:20:20.999Z</time></trkpt><trkpt lat="44.8836832002107" lon="5.7021779973829085"><ele>731.0</ele><time>2026-04-25T10:20:21.999Z</time></trkpt><trkpt lat="44.883841937022815" lon="5.702096870159996"><ele>731.0</ele><time>2026-04-25T10:20:22.999Z</time></trkpt><trkpt lat="44.884001481926965" lon="5.702027376811127"><ele>731.0</ele><time>2026-04-25T10:20:23.999Z</time></trkpt><trkpt lat="44.88414126506066" lon="5.701958032601293"><ele>728.75</ele><time>2026-04-25T10:20:24.999Z</time></trkpt><trkpt lat="44.88426156362579" lon="5.701882558522041"><ele>726.5</ele><time>2026-04-25T10:20:25.999Z</time></trkpt><trkpt lat="44.88436886957625" lon="5.70179789658172"><ele>724.25</ele><time>2026-04-25T10:20:26.999Z</time></trkpt><trkpt lat="44.88446553795783" lon="5.701683129911116"><ele>722.0</ele><time>2026-04-25T10:20:27.999Z</time></trkpt><trkpt lat="44.88455139189917" lon="5.701513515174995"><ele>722.0</ele><time>2026-04-25T10:20:28.999Z</time></trkpt><trkpt lat="44.88461879061219" lon="5.701296859252604"><ele>722.0</ele><time>2026-04-25T10:20:29.999Z</time></trkpt><trkpt lat="44.88468166443821" lon="5.701071158077321"><ele>722.0</ele><time>2026-04-25T10:20:30.999Z</time></trkpt><trkpt lat="44.884757602131835" lon="5.700871316427847"><ele>720.5</ele><time>2026-04-25T10:20:31.999Z</time></trkpt><trkpt lat="44.88483790024702" lon="5.700683005081537"><ele>719.0</ele><time>2026-04-25T10:20:32.999Z</time></trkpt><trkpt lat="44.88491822007899" lon="5.700512908269912"><ele>717.5</ele><time>2026-04-25T10:20:33.999Z</time></trkpt><trkpt lat="44.8849979079804" lon="5.700347224087629"><ele>716.0</ele><time>2026-04-25T10:20:34.999Z</time></trkpt><trkpt lat="44.885087463228864" lon="5.700202123121962"><ele>716.25</ele><time>2026-04-25T10:20:35.999Z</time></trkpt><trkpt lat="44.88518804821001" lon="5.700084789458845"><ele>716.5</ele><time>2026-04-25T10:20:36.999Z</time></trkpt><trkpt lat="44.88530143293035" lon="5.699998932498157"><ele>716.75</ele><time>2026-04-25T10:20:37.999Z</time></trkpt><trkpt lat="44.88543728481513" lon="5.699951166981557"><ele>717.0</ele><time>2026-04-25T10:20:38.999Z</time></trkpt><trkpt lat="44.88558840329264" lon="5.69993772561669"><ele>717.0</ele><time>2026-04-25T10:20:39.999Z</time></trkpt><trkpt lat="44.88576006172796" lon="5.699946729697129"><ele>717.0</ele><time>2026-04-25T10:20:40.999Z</time></trkpt><trkpt lat="44.88595582918277" lon="5.699951599213771"><ele>717.0</ele><time>2026-04-25T10:20:41.999Z</time></trkpt><trkpt lat="44.88617778502662" lon="5.699984452627219"><ele>719.0</ele><time>2026-04-25T10:20:42.999Z</time></trkpt><trkpt lat="44.88641894500481" lon="5.699997939030455"><ele>721.0</ele><time>2026-04-25T10:20:43.999Z</time></trkpt><trkpt lat="44.8866766957398" lon="5.700012353273895"><ele>723.5</ele><time>2026-04-25T10:20:44.999Z</time></trkpt><trkpt lat="44.886940157877056" lon="5.700024607904311"><ele>726.0</ele><time>2026-04-25T10:20:45.999Z</time></trkpt><trkpt lat="44.88717124751326" lon="5.700050165675141"><ele>726.0</ele><time>2026-04-25T10:20:46.999Z</time></trkpt><trkpt lat="44.88736796791163" lon="5.700047381868549"><ele>726.0</ele><time>2026-04-25T10:20:47.999Z</time></trkpt><trkpt lat="44.88755216098289" lon="5.700016917477662"><ele>726.0</ele><time>2026-04-25T10:20:48.999Z</time></trkpt><trkpt lat="44.88772909990017" lon="5.699927912910857"><ele>728.6666666666666</ele><time>2026-04-25T10:20:49.999Z</time></trkpt><trkpt lat="44.88789927498205" lon="5.699800987787314"><ele>731.3333333333333</ele><time>2026-04-25T10:20:50.999Z</time></trkpt><trkpt lat="44.88807559751409" lon="5.699672054998918"><ele>734.0</ele><time>2026-04-25T10:20:51.999Z</time></trkpt><trkpt lat="44.88824135402662" lon="5.6995615772490975"><ele>734.0</ele><time>2026-04-25T10:20:52.999Z</time></trkpt><trkpt lat="44.88842161246422" lon="5.699458704035787"><ele>734.0</ele><time>2026-04-25T10:20:53.999Z</time></trkpt><trkpt lat="44.88858979108934" lon="5.699343158158858"><ele>734.0</ele><time>2026-04-25T10:20:54.999Z</time></trkpt><trkpt lat="44.88873843134558" lon="5.69917811665693"><ele>733.0</ele><time>2026-04-25T10:20:55.999Z</time></trkpt><trkpt lat="44.88887874885951" lon="5.6989849193158255"><ele>732.0</ele><time>2026-04-25T10:20:56.999Z</time></trkpt><trkpt lat="44.8889641790117" lon="5.698737389709465"><ele>731.0</ele><time>2026-04-25T10:20:57.999Z</time></trkpt><trkpt lat="44.889065762047345" lon="5.698454622187997"><ele>732.5</ele><time>2026-04-25T10:20:58.999Z</time></trkpt><trkpt lat="44.889171945636846" lon="5.698155531445632"><ele>734.0</ele><time>2026-04-25T10:20:59.999Z</time></trkpt><trkpt lat="44.88929054795371" lon="5.697859826993436"><ele>733.0</ele><time>2026-04-25T10:21:00.999Z</time></trkpt><trkpt lat="44.88939113869012" lon="5.697569422492061"><ele>732.0</ele><time>2026-04-25T10:21:01.999Z</time></trkpt><trkpt lat="44.8894779055001" lon="5.69729870128142"><ele>731.0</ele><time>2026-04-25T10:21:02.999Z</time></trkpt><trkpt lat="44.88956305368804" lon="5.697045650995385"><ele>727.6666666666666</ele><time>2026-04-25T10:21:03.999Z</time></trkpt><trkpt lat="44.88964764625009" lon="5.696814901687527"><ele>724.3333333333334</ele><time>2026-04-25T10:21:04.999Z</time></trkpt><trkpt lat="44.88974551991097" lon="5.696605275789839"><ele>721.0</ele><time>2026-04-25T10:21:05.999Z</time></trkpt><trkpt lat="44.88987730909602" lon="5.696440062603812"><ele>721.0</ele><time>2026-04-25T10:21:06.999Z</time></trkpt><trkpt lat="44.89002261933987" lon="5.696299761030801"><ele>721.0</ele><time>2026-04-25T10:21:07.998Z</time></trkpt><trkpt lat="44.89018565309367" lon="5.696220334720462"><ele>721.0</ele><time>2026-04-25T10:21:08.998Z</time></trkpt><trkpt lat="44.89035825811148" lon="5.696202215513458"><ele>720.3333333333334</ele><time>2026-04-25T10:21:09.998Z</time></trkpt><trkpt lat="44.89051299045377" lon="5.696242636353649"><ele>719.6666666666666</ele><time>2026-04-25T10:21:10.998Z</time></trkpt><trkpt lat="44.89066498326426" lon="5.696333691164269"><ele>719.0</ele><time>2026-04-25T10:21:11.998Z</time></trkpt><trkpt lat="44.890843173241606" lon="5.696453673105901"><ele>717.6666666666666</ele><time>2026-04-25T10:21:12.998Z</time></trkpt><trkpt lat="44.89102410749037" lon="5.6965523282400365"><ele>716.3333333333334</ele><time>2026-04-25T10:21:13.998Z</time></trkpt><trkpt lat="44.891200630002864" lon="5.696576297459764"><ele>715.0</ele><time>2026-04-25T10:21:14.998Z</time></trkpt><trkpt lat="44.89136462213611" lon="5.696494518076848"><ele>715.0</ele><time>2026-04-25T10:21:15.998Z</time></trkpt><trkpt lat="44.89153478968437" lon="5.696386730171226"><ele>715.0</ele><time>2026-04-25T10:21:16.998Z</time></trkpt><trkpt lat="44.89170803364685" lon="5.696292806886867"><ele>715.0</ele><time>2026-04-25T10:21:17.998Z</time></trkpt><trkpt lat="44.89189968519689" lon="5.696268806786047"><ele>714.0</ele><time>2026-04-25T10:21:18.998Z</time></trkpt><trkpt lat="44.89211305595039" lon="5.6962707460772055"><ele>713.0</ele><time>2026-04-25T10:21:19.998Z</time></trkpt><trkpt lat="44.8923358838579" lon="5.696296559142038"><ele>712.0</ele><time>2026-04-25T10:21:20.998Z</time></trkpt><trkpt lat="44.892566643794865" lon="5.696328593024424"><ele>712.0</ele><time>2026-04-25T10:21:21.998Z</time></trkpt><trkpt lat="44.892796887806064" lon="5.696338533139917"><ele>712.0</ele><time>2026-04-25T10:21:22.998Z</time></trkpt><trkpt lat="44.89302746721114" lon="5.6963484698701645"><ele>712.0</ele><time>2026-04-25T10:21:23.998Z</time></trkpt><trkpt lat="44.89325396805756" lon="5.696310171304374"><ele>712.0</ele><time>2026-04-25T10:21:24.998Z</time></trkpt><trkpt lat="44.89347767320549" lon="5.6962185745776095"><ele>711.5</ele><time>2026-04-25T10:21:25.998Z</time></trkpt><trkpt lat="44.893699379699164" lon="5.696117135272091"><ele>711.0</ele><time>2026-04-25T10:21:26.998Z</time></trkpt><trkpt lat="44.89391919491439" lon="5.696026904565738"><ele>706.6666666666666</ele><time>2026-04-25T10:21:27.998Z</time></trkpt><trkpt lat="44.894123173637375" lon="5.695944473157231"><ele>702.3333333333333</ele><time>2026-04-25T10:21:28.998Z</time></trkpt><trkpt lat="44.89429898655697" lon="5.695867041036359"><ele>698.0</ele><time>2026-04-25T10:21:30Z</time></trkpt><trkpt lat="44.89446670280759" lon="5.695853285579936"><ele>697.6666666666666</ele><time>2026-04-25T10:21:31Z</time></trkpt><trkpt lat="44.89463402323605" lon="5.695895202862911"><ele>697.3333333333334</ele><time>2026-04-25T10:21:32Z</time></trkpt><trkpt lat="44.89481645414858" lon="5.695957917256712"><ele>697.0</ele><time>2026-04-25T10:21:33Z</time></trkpt><trkpt lat="44.8949871071526" lon="5.69597617923191"><ele>698.0</ele><time>2026-04-25T10:21:34Z</time></trkpt><trkpt lat="44.8951624569852" lon="5.695929717945334"><ele>699.0</ele><time>2026-04-25T10:21:35Z</time></trkpt><trkpt lat="44.89535080113404" lon="5.695818086795036"><ele>700.0</ele><time>2026-04-25T10:21:36Z</time></trkpt><trkpt lat="44.89554353555372" lon="5.695693558551298"><ele>700.0</ele><time>2026-04-25T10:21:37Z</time></trkpt><trkpt lat="44.895730204232514" lon="5.695564035958356"><ele>700.0</ele><time>2026-04-25T10:21:38Z</time></trkpt><trkpt lat="44.89589279727813" lon="5.6953864849571145"><ele>700.0</ele><time>2026-04-25T10:21:39Z</time></trkpt><trkpt lat="44.89606381186512" lon="5.695196201310725"><ele>698.3333333333334</ele><time>2026-04-25T10:21:40Z</time></trkpt><trkpt lat="44.89626991032807" lon="5.695067282113576"><ele>696.6666666666666</ele><time>2026-04-25T10:21:41Z</time></trkpt><trkpt lat="44.896471302669404" lon="5.694950939750622"><ele>695.0</ele><time>2026-04-25T10:21:42Z</time></trkpt><trkpt lat="44.89666790553938" lon="5.694827521334479"><ele>695.6666666666666</ele><time>2026-04-25T10:21:43Z</time></trkpt><trkpt lat="44.896865261730404" lon="5.694721035752244"><ele>696.3333333333334</ele><time>2026-04-25T10:21:44Z</time></trkpt><trkpt lat="44.897062261859325" lon="5.694606751359513"><ele>697.0</ele><time>2026-04-25T10:21:45Z</time></trkpt><trkpt lat="44.89725765963694" lon="5.694484504158415"><ele>695.6666666666667</ele><time>2026-04-25T10:21:46Z</time></trkpt><trkpt lat="44.89744193239524" lon="5.69433399978592"><ele>694.3333333333334</ele><time>2026-04-25T10:21:47Z</time></trkpt><trkpt lat="44.89761565889704" lon="5.6941554161650405"><ele>693.0</ele><time>2026-04-25T10:21:48Z</time></trkpt><trkpt lat="44.89777765234841" lon="5.693959533970326"><ele>693.0</ele><time>2026-04-25T10:21:49Z</time></trkpt><trkpt lat="44.897940908474304" lon="5.693765253649737"><ele>693.0</ele><time>2026-04-25T10:21:50Z</time></trkpt><trkpt lat="44.89810606498903" lon="5.693581276491588"><ele>693.0</ele><time>2026-04-25T10:21:51Z</time></trkpt><trkpt lat="44.8982728566726" lon="5.693408713928662"><ele>690.3333333333334</ele><time>2026-04-25T10:21:52Z</time></trkpt><trkpt lat="44.89844496626172" lon="5.693258682904164"><ele>687.6666666666667</ele><time>2026-04-25T10:21:53Z</time></trkpt><trkpt lat="44.898635306808146" lon="5.693174925230053"><ele>685.0</ele><time>2026-04-25T10:21:54Z</time></trkpt><trkpt lat="44.898830170291895" lon="5.6930633899301135"><ele>685.0</ele><time>2026-04-25T10:21:55Z</time></trkpt><trkpt lat="44.899039715539345" lon="5.6929834274450135"><ele>685.0</ele><time>2026-04-25T10:21:56Z</time></trkpt><trkpt lat="44.899243990787" lon="5.692901206105264"><ele>685.0</ele><time>2026-04-25T10:21:57Z</time></trkpt><trkpt lat="44.89945267320908" lon="5.692825644722438"><ele>684.3333333333334</ele><time>2026-04-25T10:21:58Z</time></trkpt><trkpt lat="44.899657823848955" lon="5.692767320748094"><ele>683.6666666666666</ele><time>2026-04-25T10:21:59Z</time></trkpt><trkpt lat="44.899854804670426" lon="5.692726091143743"><ele>683.0</ele><time>2026-04-25T10:22:00Z</time></trkpt><trkpt lat="44.90003827272988" lon="5.692690084538604"><ele>680.0</ele><time>2026-04-25T10:22:01Z</time></trkpt><trkpt lat="44.90021499499051" lon="5.692652196983984"><ele>677.0</ele><time>2026-04-25T10:22:02Z</time></trkpt><trkpt lat="44.900379122133614" lon="5.692611371585406"><ele>674.0</ele><time>2026-04-25T10:22:02.999Z</time></trkpt><trkpt lat="44.900544953159624" lon="5.692570643901383"><ele>674.0</ele><time>2026-04-25T10:22:03.999Z</time></trkpt><trkpt lat="44.90071902376908" lon="5.692539769316189"><ele>674.0</ele><time>2026-04-25T10:22:04.999Z</time></trkpt><trkpt lat="44.90090979745809" lon="5.69252104116401"><ele>674.0</ele><time>2026-04-25T10:22:05.999Z</time></trkpt><trkpt lat="44.901116733156606" lon="5.692471215277543"><ele>675.0</ele><time>2026-04-25T10:22:06.999Z</time></trkpt><trkpt lat="44.90134077847248" lon="5.692408976974354"><ele>676.0</ele><time>2026-04-25T10:22:07.999Z</time></trkpt><trkpt lat="44.9015707198979" lon="5.692345709255656"><ele>678.5</ele><time>2026-04-25T10:22:08.999Z</time></trkpt><trkpt lat="44.90180144713034" lon="5.692253648098322"><ele>681.0</ele><time>2026-04-25T10:22:09.999Z</time></trkpt><trkpt lat="44.90203225111154" lon="5.692129300435934"><ele>681.0</ele><time>2026-04-25T10:22:10.999Z</time></trkpt><trkpt lat="44.90225553299406" lon="5.692004797295502"><ele>681.0</ele><time>2026-04-25T10:22:11.999Z</time></trkpt><trkpt lat="44.90247135249262" lon="5.691880797907414"><ele>677.0</ele><time>2026-04-25T10:22:12.999Z</time></trkpt><trkpt lat="44.902692693990026" lon="5.691755953552511"><ele>673.0</ele><time>2026-04-25T10:22:13.999Z</time></trkpt><trkpt lat="44.90291749025465" lon="5.691636765146715"><ele>673.0</ele><time>2026-04-25T10:22:14.999Z</time></trkpt><trkpt lat="44.90313589590381" lon="5.691528390000787"><ele>673.0</ele><time>2026-04-25T10:22:15.999Z</time></trkpt><trkpt lat="44.903339050626464" lon="5.691427395272686"><ele>673.0</ele><time>2026-04-25T10:22:16.999Z</time></trkpt><trkpt lat="44.90353282156976" lon="5.691325473607985"><ele>672.3333333333334</ele><time>2026-04-25T10:22:17.999Z</time></trkpt><trkpt lat="44.903720352667115" lon="5.691232462914281"><ele>671.6666666666666</ele><time>2026-04-25T10:22:18.999Z</time></trkpt><trkpt lat="44.90391118543207" lon="5.691173051947911"><ele>671.0</ele><time>2026-04-25T10:22:19.999Z</time></trkpt><trkpt lat="44.90412187243526" lon="5.69113193784299"><ele>670.6666666666666</ele><time>2026-04-25T10:22:20.999Z</time></trkpt><trkpt lat="44.90433837928672" lon="5.691103611659339"><ele>670.3333333333334</ele><time>2026-04-25T10:22:21.999Z</time></trkpt><trkpt lat="44.904559333573104" lon="5.691074634826449"><ele>670.0</ele><time>2026-04-25T10:22:22.999Z</time></trkpt><trkpt lat="44.904785424103814" lon="5.69103208377322"><ele>665.5</ele><time>2026-04-25T10:22:23.999Z</time></trkpt><trkpt lat="44.905011692801985" lon="5.690984974209113"><ele>661.0</ele><time>2026-04-25T10:22:24.999Z</time></trkpt><trkpt lat="44.90524053057077" lon="5.690945441436004"><ele>658.0</ele><time>2026-04-25T10:22:25.999Z</time></trkpt><trkpt lat="44.905470022281385" lon="5.6909186957895574"><ele>655.0</ele><time>2026-04-25T10:22:26.999Z</time></trkpt><trkpt lat="44.90570357138249" lon="5.690907689256337"><ele>654.0</ele><time>2026-04-25T10:22:27.999Z</time></trkpt><trkpt lat="44.905939756221066" lon="5.690910267680486"><ele>653.0</ele><time>2026-04-25T10:22:28.999Z</time></trkpt><trkpt lat="44.90617852584093" lon="5.690925072420157"><ele>653.0</ele><time>2026-04-25T10:22:29.999Z</time></trkpt><trkpt lat="44.90641851637842" lon="5.690944089895628"><ele>653.0</ele><time>2026-04-25T10:22:30.999Z</time></trkpt><trkpt lat="44.90665763317813" lon="5.690959136269693"><ele>652.5</ele><time>2026-04-25T10:22:31.999Z</time></trkpt><trkpt lat="44.90689702425788" lon="5.690972284146172"><ele>652.0</ele><time>2026-04-25T10:22:32.999Z</time></trkpt><trkpt lat="44.90713713628963" lon="5.690976865172187"><ele>652.0</ele><time>2026-04-25T10:22:33.999Z</time></trkpt><trkpt lat="44.907376469792496" lon="5.690977407405829"><ele>652.0</ele><time>2026-04-25T10:22:34.999Z</time></trkpt><trkpt lat="44.907620208920335" lon="5.690972229392483"><ele>650.5</ele><time>2026-04-25T10:22:35.999Z</time></trkpt><trkpt lat="44.90786139847431" lon="5.690956156403399"><ele>649.0</ele><time>2026-04-25T10:22:36.999Z</time></trkpt><trkpt lat="44.908094928694396" lon="5.6909223141355465"><ele>649.0</ele><time>2026-04-25T10:22:37.999Z</time></trkpt><trkpt lat="44.90833358065621" lon="5.690884598109208"><ele>649.0</ele><time>2026-04-25T10:22:38.999Z</time></trkpt><trkpt lat="44.90856997195647" lon="5.690843257535312"><ele>648.5</ele><time>2026-04-25T10:22:39.999Z</time></trkpt><trkpt lat="44.908801506200874" lon="5.690779635748008"><ele>648.0</ele><time>2026-04-25T10:22:40.999Z</time></trkpt><trkpt lat="44.90902675045577" lon="5.690679145670768"><ele>647.5</ele><time>2026-04-25T10:22:41.999Z</time></trkpt><trkpt lat="44.90924999194513" lon="5.690554692301973"><ele>647.0</ele><time>2026-04-25T10:22:42.999Z</time></trkpt><trkpt lat="44.909471819881084" lon="5.690436064584387"><ele>647.0</ele><time>2026-04-25T10:22:43.999Z</time></trkpt><trkpt lat="44.90969842274766" lon="5.69033218696609"><ele>647.0</ele><time>2026-04-25T10:22:44.999Z</time></trkpt><trkpt lat="44.90992296910401" lon="5.6902269309514555"><ele>643.5</ele><time>2026-04-25T10:22:45.999Z</time></trkpt><trkpt lat="44.910149886501706" lon="5.690121212714184"><ele>640.0</ele><time>2026-04-25T10:22:46.999Z</time></trkpt><trkpt lat="44.910370684513424" lon="5.690009089782102"><ele>640.0</ele><time>2026-04-25T10:22:47.999Z</time></trkpt><trkpt lat="44.910594455511884" lon="5.689902272641389"><ele>640.0</ele><time>2026-04-25T10:22:48.999Z</time></trkpt><trkpt lat="44.91081916132572" lon="5.689794718616826"><ele>641.0</ele><time>2026-04-25T10:22:49.999Z</time></trkpt><trkpt lat="44.91104312741418" lon="5.689684903607852"><ele>642.0</ele><time>2026-04-25T10:22:50.999Z</time></trkpt><trkpt lat="44.91126338507769" lon="5.689578265652164"><ele>642.0</ele><time>2026-04-25T10:22:51.999Z</time></trkpt><trkpt lat="44.91148566462728" lon="5.689473434937633"><ele>642.0</ele><time>2026-04-25T10:22:52.999Z</time></trkpt><trkpt lat="44.91170951540043" lon="5.689366342303403"><ele>637.5</ele><time>2026-04-25T10:22:53.999Z</time></trkpt><trkpt lat="44.91193138666583" lon="5.689262377841762"><ele>633.0</ele><time>2026-04-25T10:22:54.999Z</time></trkpt><trkpt lat="44.91215122495048" lon="5.689165075662899"><ele>633.0</ele><time>2026-04-25T10:22:55.999Z</time></trkpt><trkpt lat="44.91236607025433" lon="5.689078110956956"><ele>633.0</ele><time>2026-04-25T10:22:56.999Z</time></trkpt><trkpt lat="44.912571198433255" lon="5.68900641576255"><ele>633.0</ele><time>2026-04-25T10:22:57.999Z</time></trkpt><trkpt lat="44.91276786670867" lon="5.6889550860430775"><ele>633.3333333333334</ele><time>2026-04-25T10:22:58.999Z</time></trkpt><trkpt lat="44.91295586270807" lon="5.6889258727523195"><ele>633.6666666666667</ele><time>2026-04-25T10:22:59.999Z</time></trkpt><trkpt lat="44.91313534793875" lon="5.688916001614089"><ele>634.0</ele><time>2026-04-25T10:23:00.999Z</time></trkpt><trkpt lat="44.91330886754081" lon="5.688923700118694"><ele>634.5</ele><time>2026-04-25T10:23:01.999Z</time></trkpt><trkpt lat="44.91346365614399" lon="5.688927550808281"><ele>635.0</ele><time>2026-04-25T10:23:02.998Z</time></trkpt><trkpt lat="44.91361134396129" lon="5.6889335116880995"><ele>635.5</ele><time>2026-04-25T10:23:03.998Z</time></trkpt><trkpt lat="44.913745079045185" lon="5.688936023880682"><ele>636.0</ele><time>2026-04-25T10:23:04.998Z</time></trkpt><trkpt lat="44.91386587240089" lon="5.688940147877518"><ele>636.0</ele><time>2026-04-25T10:23:05.998Z</time></trkpt><trkpt lat="44.913975146981755" lon="5.688941463277479"><ele>636.0</ele><time>2026-04-25T10:23:06.998Z</time></trkpt><trkpt lat="44.91408156517079" lon="5.688951638592604"><ele>636.0</ele><time>2026-04-25T10:23:07.998Z</time></trkpt><trkpt lat="44.91417730164061" lon="5.688961953778217"><ele>636.0</ele><time>2026-04-25T10:23:08.998Z</time></trkpt><trkpt lat="44.91427522053392" lon="5.688967303707834"><ele>636.0</ele><time>2026-04-25T10:23:09.998Z</time></trkpt><trkpt lat="44.91437290262691" lon="5.688977171096276"><ele>637.2</ele><time>2026-04-25T10:23:10.998Z</time></trkpt><trkpt lat="44.914475818510965" lon="5.688984228819933"><ele>638.4000000000001</ele><time>2026-04-25T10:23:11.998Z</time></trkpt><trkpt lat="44.91458027123938" lon="5.688984122742164"><ele>639.6</ele><time>2026-04-25T10:23:12.998Z</time></trkpt><trkpt lat="44.91468242340998" lon="5.688970245891069"><ele>640.8000000000001</ele><time>2026-04-25T10:23:13.998Z</time></trkpt><trkpt lat="44.91477767235232" lon="5.688959562894495"><ele>642.0</ele><time>2026-04-25T10:23:14.998Z</time></trkpt><trkpt lat="44.9148684743251" lon="5.688953745429716"><ele>642.0</ele><time>2026-04-25T10:23:15.998Z</time></trkpt><trkpt lat="44.91494992831365" lon="5.688944436333117"><ele>642.0</ele><time>2026-04-25T10:23:16.998Z</time></trkpt><trkpt lat="44.91502401595088" lon="5.688937616172077"><ele>642.0</ele><time>2026-04-25T10:23:17.998Z</time></trkpt><trkpt lat="44.91514002781272" lon="5.688919067674805"><ele>642.0</ele><time>2026-04-25T10:23:19.998Z</time></trkpt><trkpt lat="44.91526169380987" lon="5.6888970530871825"><ele>642.0</ele><time>2026-04-25T10:23:21.998Z</time></trkpt><trkpt lat="44.915388989973955" lon="5.688884272425207"><ele>642.6</ele><time>2026-04-25T10:23:23.998Z</time></trkpt><trkpt lat="44.915470857385635" lon="5.6888773613409125"><ele>643.2</ele><time>2026-04-25T10:23:24.998Z</time></trkpt><trkpt lat="44.915565976774204" lon="5.688869778206946"><ele>643.8</ele><time>2026-04-25T10:23:25.998Z</time></trkpt><trkpt lat="44.915667344390975" lon="5.688858238304107"><ele>644.4</ele><time>2026-04-25T10:23:26.998Z</time></trkpt><trkpt lat="44.91577141109035" lon="5.688847550058507"><ele>645.0</ele><time>2026-04-25T10:23:27.998Z</time></trkpt><trkpt lat="44.915873099823195" lon="5.688835660421003"><ele>646.25</ele><time>2026-04-25T10:23:28.998Z</time></trkpt><trkpt lat="44.915990546208086" lon="5.688820829949361"><ele>647.5</ele><time>2026-04-25T10:23:29.998Z</time></trkpt><trkpt lat="44.91610285873021" lon="5.688812906191774"><ele>648.75</ele><time>2026-04-25T10:23:30.998Z</time></trkpt><trkpt lat="44.916218781147805" lon="5.688809048486908"><ele>650.0</ele><time>2026-04-25T10:23:31.998Z</time></trkpt><trkpt lat="44.916334567737486" lon="5.688796923679094"><ele>650.0</ele><time>2026-04-25T10:23:32.998Z</time></trkpt><trkpt lat="44.9164539076127" lon="5.68878409274424"><ele>650.0</ele><time>2026-04-25T10:23:33.998Z</time></trkpt><trkpt lat="44.916572395424275" lon="5.688771471200572"><ele>650.0</ele><time>2026-04-25T10:23:34.998Z</time></trkpt><trkpt lat="44.91670629982762" lon="5.68876743866828"><ele>650.0</ele><time>2026-04-25T10:23:36Z</time></trkpt><trkpt lat="44.91685362097544" lon="5.6887601842327316"><ele>651.3333333333333</ele><time>2026-04-25T10:23:37Z</time></trkpt><trkpt lat="44.91701339156138" lon="5.688751126019227"><ele>652.6666666666666</ele><time>2026-04-25T10:23:38Z</time></trkpt><trkpt lat="44.91717233950703" lon="5.688745940427766"><ele>654.0</ele><time>2026-04-25T10:23:39Z</time></trkpt><trkpt lat="44.91733639345744" lon="5.6887477334193814"><ele>654.0</ele><time>2026-04-25T10:23:40Z</time></trkpt><trkpt lat="44.91751469619009" lon="5.688799017307765"><ele>654.0</ele><time>2026-04-25T10:23:41Z</time></trkpt><trkpt lat="44.917698547300915" lon="5.688883584374368"><ele>654.0</ele><time>2026-04-25T10:23:42Z</time></trkpt><trkpt lat="44.917896700610434" lon="5.688975772908752"><ele>654.0</ele><time>2026-04-25T10:23:43Z</time></trkpt><trkpt lat="44.91807661059706" lon="5.689060132530315"><ele>654.0</ele><time>2026-04-25T10:23:44Z</time></trkpt><trkpt lat="44.91827940071277" lon="5.689126838138071"><ele>654.0</ele><time>2026-04-25T10:23:45Z</time></trkpt><trkpt lat="44.9185029077332" lon="5.6891624385380775"><ele>654.0</ele><time>2026-04-25T10:23:46Z</time></trkpt><trkpt lat="44.9187367092194" lon="5.689184657025212"><ele>654.0</ele><time>2026-04-25T10:23:47Z</time></trkpt><trkpt lat="44.91895401875175" lon="5.689210274090178"><ele>654.0</ele><time>2026-04-25T10:23:48Z</time></trkpt><trkpt lat="44.919148685405766" lon="5.689259179198528"><ele>654.0</ele><time>2026-04-25T10:23:49Z</time></trkpt><trkpt lat="44.919319042517635" lon="5.689347079906668"><ele>654.0</ele><time>2026-04-25T10:23:50Z</time></trkpt><trkpt lat="44.9194966041598" lon="5.689474781447155"><ele>659.3333333333334</ele><time>2026-04-25T10:23:51Z</time></trkpt><trkpt lat="44.9196917589259" lon="5.689606993682446"><ele>664.6666666666667</ele><time>2026-04-25T10:23:52Z</time></trkpt><trkpt lat="44.919892019025305" lon="5.689695746192169"><ele>670.0</ele><time>2026-04-25T10:23:53Z</time></trkpt><trkpt lat="44.92008746335301" lon="5.689734289426396"><ele>670.0</ele><time>2026-04-25T10:23:54Z</time></trkpt><trkpt lat="44.92026687778828" lon="5.689751255793179"><ele>670.0</ele><time>2026-04-25T10:23:55Z</time></trkpt><trkpt lat="44.9204366394896" lon="5.689739352602397"><ele>670.0</ele><time>2026-04-25T10:23:56Z</time></trkpt><trkpt lat="44.92058907320528" lon="5.689702412698969"><ele>670.0</ele><time>2026-04-25T10:23:57Z</time></trkpt><trkpt lat="44.92073577639994" lon="5.6896425086451465"><ele>670.0</ele><time>2026-04-25T10:23:58Z</time></trkpt><trkpt lat="44.92088546008836" lon="5.689554233886764"><ele>670.0</ele><time>2026-04-25T10:23:59Z</time></trkpt><trkpt lat="44.92103951724136" lon="5.6894571797504545"><ele>667.0</ele><time>2026-04-25T10:24:00Z</time></trkpt><trkpt lat="44.921194559170154" lon="5.6893515859728"><ele>664.0</ele><time>2026-04-25T10:24:01Z</time></trkpt><trkpt lat="44.92133673889005" lon="5.689254335944854"><ele>661.0</ele><time>2026-04-25T10:24:02Z</time></trkpt><trkpt lat="44.92145176700624" lon="5.689167983100588"><ele>661.0</ele><time>2026-04-25T10:24:03Z</time></trkpt><trkpt lat="44.92154972618276" lon="5.689100095517423"><ele>661.0</ele><time>2026-04-25T10:24:04Z</time></trkpt><trkpt lat="44.921656637036676" lon="5.689049389026656"><ele>661.0</ele><time>2026-04-25T10:24:05Z</time></trkpt><trkpt lat="44.92176129610825" lon="5.6890115953929925"><ele>661.0</ele><time>2026-04-25T10:24:06Z</time></trkpt><trkpt lat="44.92187434877127" lon="5.68902789814511"><ele>661.0</ele><time>2026-04-25T10:24:07Z</time></trkpt><trkpt lat="44.92200102347374" lon="5.6890973451313185"><ele>661.75</ele><time>2026-04-25T10:24:08Z</time></trkpt><trkpt lat="44.92213538034867" lon="5.689174336332704"><ele>662.5</ele><time>2026-04-25T10:24:09Z</time></trkpt><trkpt lat="44.92226506366618" lon="5.689260482311344"><ele>663.25</ele><time>2026-04-25T10:24:10Z</time></trkpt><trkpt lat="44.92240162046975" lon="5.689351237225855"><ele>664.0</ele><time>2026-04-25T10:24:11Z</time></trkpt><trkpt lat="44.922537233768864" lon="5.689451985255578"><ele>661.25</ele><time>2026-04-25T10:24:12Z</time></trkpt><trkpt lat="44.92265376421043" lon="5.689554784782134"><ele>658.5</ele><time>2026-04-25T10:24:13Z</time></trkpt><trkpt lat="44.92273610810712" lon="5.689681508854989"><ele>655.75</ele><time>2026-04-25T10:24:14Z</time></trkpt><trkpt lat="44.92275848871836" lon="5.689840276779542"><ele>653.0</ele><time>2026-04-25T10:24:15Z</time></trkpt><trkpt lat="44.92280805874158" lon="5.689937341375472"><ele>653.0</ele><time>2026-04-25T10:24:16Z</time></trkpt><trkpt lat="44.922881871256095" lon="5.690014962042337"><ele>653.0</ele><time>2026-04-25T10:24:17Z</time></trkpt><trkpt lat="44.92296798118719" lon="5.690039958410284"><ele>653.0</ele><time>2026-04-25T10:24:18Z</time></trkpt><trkpt lat="44.92304486297781" lon="5.690072805994073"><ele>653.0</ele><time>2026-04-25T10:24:19Z</time></trkpt><trkpt lat="44.923125213721555" lon="5.690077817801529"><ele>653.0</ele><time>2026-04-25T10:24:20Z</time></trkpt><trkpt lat="44.923205414466715" lon="5.690082113243629"><ele>653.0</ele><time>2026-04-25T10:24:20.999Z</time></trkpt><trkpt lat="44.92328886559924" lon="5.690113039993342"><ele>653.0</ele><time>2026-04-25T10:24:21.999Z</time></trkpt><trkpt lat="44.923374527822425" lon="5.690147258988574"><ele>653.0</ele><time>2026-04-25T10:24:22.999Z</time></trkpt><trkpt lat="44.92345023789061" lon="5.6901755603509185"><ele>653.0</ele><time>2026-04-25T10:24:23.999Z</time></trkpt><trkpt lat="44.92352482793373" lon="5.690196892737236"><ele>653.0</ele><time>2026-04-25T10:24:24.999Z</time></trkpt><trkpt lat="44.92360926268038" lon="5.690223112841476"><ele>653.0</ele><time>2026-04-25T10:24:25.999Z</time></trkpt><trkpt lat="44.92370339115204" lon="5.6902562739683855"><ele>653.0</ele><time>2026-04-25T10:24:26.999Z</time></trkpt><trkpt lat="44.923799244500465" lon="5.690323284794225"><ele>655.75</ele><time>2026-04-25T10:24:27.999Z</time></trkpt><trkpt lat="44.923892053229906" lon="5.6904310590612415"><ele>658.5</ele><time>2026-04-25T10:24:28.999Z</time></trkpt><trkpt lat="44.924007687293376" lon="5.690538228494881"><ele>661.25</ele><time>2026-04-25T10:24:29.999Z</time></trkpt><trkpt lat="44.924131728043186" lon="5.690625232948555"><ele>664.0</ele><time>2026-04-25T10:24:30.999Z</time></trkpt><trkpt lat="44.92426004580352" lon="5.690675181217148"><ele>664.0</ele><time>2026-04-25T10:24:31.999Z</time></trkpt><trkpt lat="44.92441728558267" lon="5.690704279230392"><ele>664.0</ele><time>2026-04-25T10:24:32.999Z</time></trkpt><trkpt lat="44.92458215656466" lon="5.690749768003657"><ele>664.0</ele><time>2026-04-25T10:24:33.999Z</time></trkpt><trkpt lat="44.92472405583845" lon="5.690853733689131"><ele>664.0</ele><time>2026-04-25T10:24:34.999Z</time></trkpt><trkpt lat="44.92485147097928" lon="5.6909243253182105"><ele>664.0</ele><time>2026-04-25T10:24:35.999Z</time></trkpt><trkpt lat="44.924962905419875" lon="5.691008038835111"><ele>664.0</ele><time>2026-04-25T10:24:36.999Z</time></trkpt><trkpt lat="44.92510095097022" lon="5.691049813148579"><ele>664.0</ele><time>2026-04-25T10:24:37.999Z</time></trkpt><trkpt lat="44.92526205940651" lon="5.691011127841435"><ele>664.6666666666667</ele><time>2026-04-25T10:24:38.999Z</time></trkpt><trkpt lat="44.92544470387347" lon="5.690993725761902"><ele>665.3333333333334</ele><time>2026-04-25T10:24:39.999Z</time></trkpt><trkpt lat="44.92563340387266" lon="5.691004192295712"><ele>666.0</ele><time>2026-04-25T10:24:40.999Z</time></trkpt><trkpt lat="44.92579635260546" lon="5.6910614318066814"><ele>673.0</ele><time>2026-04-25T10:24:41.999Z</time></trkpt><trkpt lat="44.925946750762215" lon="5.691173665558735"><ele>680.0</ele><time>2026-04-25T10:24:42.999Z</time></trkpt><trkpt lat="44.92613196578203" lon="5.6912154000574136"><ele>687.0</ele><time>2026-04-25T10:24:43.999Z</time></trkpt><trkpt lat="44.92629369548739" lon="5.691346340982659"><ele>687.0</ele><time>2026-04-25T10:24:44.999Z</time></trkpt><trkpt lat="44.92647465563755" lon="5.691400437789764"><ele>687.0</ele><time>2026-04-25T10:24:45.999Z</time></trkpt><trkpt lat="44.926643314469125" lon="5.69148771181265"><ele>687.0</ele><time>2026-04-25T10:24:46.999Z</time></trkpt><trkpt lat="44.926817521265036" lon="5.691580661301751"><ele>685.0</ele><time>2026-04-25T10:24:47.999Z</time></trkpt><trkpt lat="44.92699992348901" lon="5.6916001519018575"><ele>683.0</ele><time>2026-04-25T10:24:48.999Z</time></trkpt><trkpt lat="44.927154802152735" lon="5.69168878356392"><ele>681.0</ele><time>2026-04-25T10:24:49.999Z</time></trkpt><trkpt lat="44.92731434472089" lon="5.691705876059627"><ele>681.0</ele><time>2026-04-25T10:24:50.999Z</time></trkpt><trkpt lat="44.927463551412345" lon="5.691641468028285"><ele>681.0</ele><time>2026-04-25T10:24:51.999Z</time></trkpt><trkpt lat="44.927636950867075" lon="5.691572719374727"><ele>681.0</ele><time>2026-04-25T10:24:52.999Z</time></trkpt><trkpt lat="44.927822091363936" lon="5.691575524959691"><ele>679.3333333333334</ele><time>2026-04-25T10:24:53.999Z</time></trkpt><trkpt lat="44.928030547722216" lon="5.691606287900481"><ele>677.6666666666667</ele><time>2026-04-25T10:24:54.999Z</time></trkpt><trkpt lat="44.928210618165835" lon="5.691622005215411"><ele>676.0</ele><time>2026-04-25T10:24:55.999Z</time></trkpt><trkpt lat="44.92835934175709" lon="5.691655555648792"><ele>678.25</ele><time>2026-04-25T10:24:56.999Z</time></trkpt><trkpt lat="44.92846667638621" lon="5.6917337589891"><ele>680.5</ele><time>2026-04-25T10:24:57.999Z</time></trkpt><trkpt lat="44.92854214665049" lon="5.691865522358138"><ele>682.75</ele><time>2026-04-25T10:24:58.999Z</time></trkpt><trkpt lat="44.928620217804735" lon="5.691989567698587"><ele>685.0</ele><time>2026-04-25T10:24:59.999Z</time></trkpt><trkpt lat="44.92870155878517" lon="5.692072694744871"><ele>685.0</ele><time>2026-04-25T10:25:00.999Z</time></trkpt><trkpt lat="44.92878880745008" lon="5.692087251470742"><ele>685.0</ele><time>2026-04-25T10:25:01.999Z</time></trkpt><trkpt lat="44.92890690723304" lon="5.692016896602548"><ele>685.0</ele><time>2026-04-25T10:25:02.999Z</time></trkpt><trkpt lat="44.92900438295803" lon="5.691889326486821"><ele>685.0</ele><time>2026-04-25T10:25:03.999Z</time></trkpt><trkpt lat="44.92908026154193" lon="5.691722250220117"><ele>685.0</ele><time>2026-04-25T10:25:04.999Z</time></trkpt><trkpt lat="44.92919012702594" lon="5.691613674062655"><ele>685.0</ele><time>2026-04-25T10:25:05.999Z</time></trkpt><trkpt lat="44.929318113478075" lon="5.691538972184532"><ele>685.0</ele><time>2026-04-25T10:25:06.999Z</time></trkpt><trkpt lat="44.92945496716767" lon="5.691543630877954"><ele>685.0</ele><time>2026-04-25T10:25:07.999Z</time></trkpt><trkpt lat="44.92960139080186" lon="5.691578150256887"><ele>690.6666666666667</ele><time>2026-04-25T10:25:08.999Z</time></trkpt><trkpt lat="44.929743834644256" lon="5.6915697347883585"><ele>696.3333333333334</ele><time>2026-04-25T10:25:09.999Z</time></trkpt><trkpt lat="44.9298959392407" lon="5.691544512716943"><ele>702.0</ele><time>2026-04-25T10:25:10.999Z</time></trkpt><trkpt lat="44.93006839880989" lon="5.69143837467814"><ele>706.3333333333334</ele><time>2026-04-25T10:25:11.999Z</time></trkpt><trkpt lat="44.930256182836374" lon="5.691334653737157"><ele>710.6666666666667</ele><time>2026-04-25T10:25:12.999Z</time></trkpt><trkpt lat="44.93043483072023" lon="5.691247571190605"><ele>715.0</ele><time>2026-04-25T10:25:13.999Z</time></trkpt><trkpt lat="44.930591239617954" lon="5.691221589055366"><ele>715.0</ele><time>2026-04-25T10:25:14.999Z</time></trkpt><trkpt lat="44.930733542587326" lon="5.691202058966159"><ele>715.0</ele><time>2026-04-25T10:25:15.999Z</time></trkpt><trkpt lat="44.93085654504263" lon="5.691256712533472"><ele>715.0</ele><time>2026-04-25T10:25:16.999Z</time></trkpt><trkpt lat="44.93095667646781" lon="5.6913357269990765"><ele>715.0</ele><time>2026-04-25T10:25:17.999Z</time></trkpt><trkpt lat="44.93107663322282" lon="5.6913390950282015"><ele>716.0</ele><time>2026-04-25T10:25:18.999Z</time></trkpt><trkpt lat="44.93121055845352" lon="5.691290729690607"><ele>717.0</ele><time>2026-04-25T10:25:19.999Z</time></trkpt><trkpt lat="44.931364214858355" lon="5.691212070249962"><ele>718.0</ele><time>2026-04-25T10:25:20.999Z</time></trkpt><trkpt lat="44.931520367415075" lon="5.691270221312118"><ele>718.0</ele><time>2026-04-25T10:25:21.999Z</time></trkpt><trkpt lat="44.931676362866185" lon="5.691340040309234"><ele>718.0</ele><time>2026-04-25T10:25:22.999Z</time></trkpt><trkpt lat="44.93184098564367" lon="5.691348229612458"><ele>718.0</ele><time>2026-04-25T10:25:23.999Z</time></trkpt><trkpt lat="44.93201082382143" lon="5.691304889527188"><ele>720.6666666666667</ele><time>2026-04-25T10:25:24.999Z</time></trkpt><trkpt lat="44.932170190271506" lon="5.691188613815126"><ele>723.3333333333334</ele><time>2026-04-25T10:25:25.998Z</time></trkpt><trkpt lat="44.93232814881599" lon="5.69108931472839"><ele>726.0</ele><time>2026-04-25T10:25:26.998Z</time></trkpt><trkpt lat="44.93249612208513" lon="5.691115170699974"><ele>726.75</ele><time>2026-04-25T10:25:27.998Z</time></trkpt><trkpt lat="44.93265566410352" lon="5.691124900855022"><ele>727.5</ele><time>2026-04-25T10:25:28.998Z</time></trkpt><trkpt lat="44.932794553357525" lon="5.691146295828315"><ele>728.25</ele><time>2026-04-25T10:25:29.998Z</time></trkpt><trkpt lat="44.93288207605143" lon="5.691238459908566"><ele>729.0</ele><time>2026-04-25T10:25:30.998Z</time></trkpt><trkpt lat="44.93290974973219" lon="5.691385035651862"><ele>729.0</ele><time>2026-04-25T10:25:31.998Z</time></trkpt><trkpt lat="44.93297670720194" lon="5.691459582613833"><ele>729.0</ele><time>2026-04-25T10:25:32.998Z</time></trkpt><trkpt lat="44.93306401070312" lon="5.691520779320058"><ele>729.0</ele><time>2026-04-25T10:25:33.998Z</time></trkpt><trkpt lat="44.93316783422243" lon="5.691499312238661"><ele>729.0</ele><time>2026-04-25T10:25:34.998Z</time></trkpt><trkpt lat="44.93325888205732" lon="5.691410894221202"><ele>729.0</ele><time>2026-04-25T10:25:35.998Z</time></trkpt><trkpt lat="44.933349348757964" lon="5.691267467194724"><ele>729.5</ele><time>2026-04-25T10:25:36.998Z</time></trkpt><trkpt lat="44.93342950051081" lon="5.6911166462499265"><ele>730.0</ele><time>2026-04-25T10:25:37.998Z</time></trkpt><trkpt lat="44.933527368163226" lon="5.691025650955929"><ele>730.5</ele><time>2026-04-25T10:25:38.998Z</time></trkpt><trkpt lat="44.93364863935704" lon="5.691073200770284"><ele>731.0</ele><time>2026-04-25T10:25:39.998Z</time></trkpt><trkpt lat="44.933781993246264" lon="5.691120134097628"><ele>731.0</ele><time>2026-04-25T10:25:40.998Z</time></trkpt><trkpt lat="44.93391860795079" lon="5.691176358394785"><ele>731.0</ele><time>2026-04-25T10:25:42Z</time></trkpt><trkpt lat="44.93406120060834" lon="5.691250652398991"><ele>731.0</ele><time>2026-04-25T10:25:43Z</time></trkpt><trkpt lat="44.934208364468816" lon="5.6913322756646245"><ele>726.3333333333333</ele><time>2026-04-25T10:25:44Z</time></trkpt><trkpt lat="44.93435847355449" lon="5.6914007594807385"><ele>721.6666666666666</ele><time>2026-04-25T10:25:45Z</time></trkpt><trkpt lat="44.93450409536472" lon="5.691476112866533"><ele>717.0</ele><time>2026-04-25T10:25:46Z</time></trkpt><trkpt lat="44.93466084945681" lon="5.6915243988118345"><ele>717.0</ele><time>2026-04-25T10:25:47Z</time></trkpt><trkpt lat="44.93481941259913" lon="5.691559371073014"><ele>717.0</ele><time>2026-04-25T10:25:48Z</time></trkpt><trkpt lat="44.93497669649446" lon="5.691649933552335"><ele>717.0</ele><time>2026-04-25T10:25:49Z</time></trkpt><trkpt lat="44.935149777966224" lon="5.69170623119365"><ele>712.6666666666666</ele><time>2026-04-25T10:25:50Z</time></trkpt><trkpt lat="44.93532146075404" lon="5.691780546731189"><ele>708.3333333333333</ele><time>2026-04-25T10:25:51Z</time></trkpt><trkpt lat="44.93550446199406" lon="5.691852009954601"><ele>704.0</ele><time>2026-04-25T10:25:52Z</time></trkpt><trkpt lat="44.935677281160615" lon="5.691918055565043"><ele>712.3333333333333</ele><time>2026-04-25T10:25:53Z</time></trkpt><trkpt lat="44.93584349661155" lon="5.691981839717298"><ele>720.6666666666666</ele><time>2026-04-25T10:25:54Z</time></trkpt><trkpt lat="44.936007217679276" lon="5.692036197917795"><ele>729.0</ele><time>2026-04-25T10:25:55Z</time></trkpt><trkpt lat="44.93616019093856" lon="5.692079604913256"><ele>729.0</ele><time>2026-04-25T10:25:56Z</time></trkpt><trkpt lat="44.93631070510149" lon="5.692082200681267"><ele>729.0</ele><time>2026-04-25T10:25:57Z</time></trkpt><trkpt lat="44.93645933619132" lon="5.6921392189940025"><ele>729.0</ele><time>2026-04-25T10:25:58Z</time></trkpt><trkpt lat="44.93657540811315" lon="5.692221940209202"><ele>729.0</ele><time>2026-04-25T10:25:59Z</time></trkpt><trkpt lat="44.9366679549813" lon="5.692340458811857"><ele>725.5</ele><time>2026-04-25T10:26:00Z</time></trkpt><trkpt lat="44.93672873874456" lon="5.69248845543602"><ele>722.0</ele><time>2026-04-25T10:26:01Z</time></trkpt><trkpt lat="44.936790828615685" lon="5.692660067835669"><ele>718.5</ele><time>2026-04-25T10:26:02Z</time></trkpt><trkpt lat="44.936848995736874" lon="5.692850614752218"><ele>715.0</ele><time>2026-04-25T10:26:03Z</time></trkpt><trkpt lat="44.936898615699064" lon="5.692984042762448"><ele>722.6</ele><time>2026-04-25T10:26:04Z</time></trkpt><trkpt lat="44.936967886744135" lon="5.693097418380202"><ele>730.2</ele><time>2026-04-25T10:26:05Z</time></trkpt><trkpt lat="44.93704429346984" lon="5.693138797894237"><ele>737.8</ele><time>2026-04-25T10:26:06Z</time></trkpt><trkpt lat="44.93716058887643" lon="5.693054830799949"><ele>745.4</ele><time>2026-04-25T10:26:07Z</time></trkpt><trkpt lat="44.93727766942917" lon="5.693026021383618"><ele>753.0</ele><time>2026-04-25T10:26:08Z</time></trkpt><trkpt lat="44.9374057701124" lon="5.692928916791925"><ele>753.0</ele><time>2026-04-25T10:26:09Z</time></trkpt><trkpt lat="44.93753423893932" lon="5.692813389643986"><ele>753.0</ele><time>2026-04-25T10:26:10Z</time></trkpt><trkpt lat="44.937655387868475" lon="5.692732616766793"><ele>753.0</ele><time>2026-04-25T10:26:11Z</time></trkpt><trkpt lat="44.937796559642955" lon="5.692743775081646"><ele>753.0</ele><time>2026-04-25T10:26:12Z</time></trkpt><trkpt lat="44.9379296264104" lon="5.692797144087874"><ele>752.6666666666666</ele><time>2026-04-25T10:26:13Z</time></trkpt><trkpt lat="44.93806804766246" lon="5.692876110415583"><ele>752.3333333333333</ele><time>2026-04-25T10:26:14Z</time></trkpt><trkpt lat="44.938211502932866" lon="5.692962313003167"><ele>752.0</ele><time>2026-04-25T10:26:15Z</time></trkpt><trkpt lat="44.93834418099384" lon="5.693065285385864"><ele>748.5</ele><time>2026-04-25T10:26:16Z</time></trkpt><trkpt lat="44.93845716539593" lon="5.693201021718698"><ele>745.0</ele><time>2026-04-25T10:26:17Z</time></trkpt><trkpt lat="44.938554073445324" lon="5.6932923748275055"><ele>741.5</ele><time>2026-04-25T10:26:18Z</time></trkpt><trkpt lat="44.93869524527407" lon="5.69331838279801"><ele>738.0</ele><time>2026-04-25T10:26:19Z</time></trkpt><trkpt lat="44.93884669704497" lon="5.693296761995022"><ele>738.0</ele><time>2026-04-25T10:26:20Z</time></trkpt><trkpt lat="44.93900878991167" lon="5.693368822194525"><ele>738.0</ele><time>2026-04-25T10:26:21Z</time></trkpt><trkpt lat="44.939193466191085" lon="5.693432640700452"><ele>738.0</ele><time>2026-04-25T10:26:22Z</time></trkpt><trkpt lat="44.9394044718647" lon="5.693507093692629"><ele>733.6666666666666</ele><time>2026-04-25T10:26:23Z</time></trkpt><trkpt lat="44.93959995230771" lon="5.69357714295844"><ele>729.3333333333333</ele><time>2026-04-25T10:26:24Z</time></trkpt><trkpt lat="44.93977305929054" lon="5.6936411493573065"><ele>725.0</ele><time>2026-04-25T10:26:25Z</time></trkpt><trkpt lat="44.93994238749109" lon="5.6937111146631105"><ele>734.75</ele><time>2026-04-25T10:26:25.999Z</time></trkpt><trkpt lat="44.940072661950005" lon="5.693802764726229"><ele>744.5</ele><time>2026-04-25T10:26:26.999Z</time></trkpt><trkpt lat="44.94018242577925" lon="5.69392205959626"><ele>754.25</ele><time>2026-04-25T10:26:27.999Z</time></trkpt><trkpt lat="44.940286180769526" lon="5.693977462805294"><ele>764.0</ele><time>2026-04-25T10:26:28.999Z</time></trkpt><trkpt lat="44.940390641876405" lon="5.6940010864410855"><ele>764.0</ele><time>2026-04-25T10:26:29.999Z</time></trkpt><trkpt lat="44.940492589827" lon="5.693901626411991"><ele>764.0</ele><time>2026-04-25T10:26:30.999Z</time></trkpt><trkpt lat="44.9405997078048" lon="5.693787344293623"><ele>764.0</ele><time>2026-04-25T10:26:31.999Z</time></trkpt><trkpt lat="44.94073858541968" lon="5.693739404288577"><ele>764.0</ele><time>2026-04-25T10:26:32.999Z</time></trkpt><trkpt lat="44.94089017394841" lon="5.69373747398251"><ele>763.0</ele><time>2026-04-25T10:26:33.999Z</time></trkpt><trkpt lat="44.94105449150152" lon="5.693765135211601"><ele>762.0</ele><time>2026-04-25T10:26:34.999Z</time></trkpt><trkpt lat="44.94123563431525" lon="5.693803036758756"><ele>761.0</ele><time>2026-04-25T10:26:35.999Z</time></trkpt><trkpt lat="44.94142822010015" lon="5.69385357085165"><ele>761.0</ele><time>2026-04-25T10:26:36.999Z</time></trkpt><trkpt lat="44.94161704354249" lon="5.693898169090774"><ele>761.0</ele><time>2026-04-25T10:26:37.999Z</time></trkpt><trkpt lat="44.941780559734006" lon="5.693929020306826"><ele>761.0</ele><time>2026-04-25T10:26:38.999Z</time></trkpt><trkpt lat="44.94192561655647" lon="5.693960789759964"><ele>756.25</ele><time>2026-04-25T10:26:39.999Z</time></trkpt><trkpt lat="44.94204758025264" lon="5.694017186602042"><ele>751.5</ele><time>2026-04-25T10:26:40.999Z</time></trkpt><trkpt lat="44.94214291115718" lon="5.694113858230665"><ele>746.75</ele><time>2026-04-25T10:26:41.999Z</time></trkpt><trkpt lat="44.94225511408363" lon="5.694254003694047"><ele>742.0</ele><time>2026-04-25T10:26:42.999Z</time></trkpt><trkpt lat="44.942411680949135" lon="5.694305678334326"><ele>743.0</ele><time>2026-04-25T10:26:43.999Z</time></trkpt><trkpt lat="44.942550139879806" lon="5.694397224516504"><ele>744.0</ele><time>2026-04-25T10:26:44.999Z</time></trkpt><trkpt lat="44.94268715916608" lon="5.694498489074887"><ele>745.0</ele><time>2026-04-25T10:26:45.999Z</time></trkpt><trkpt lat="44.942838088825425" lon="5.694542339809445"><ele>752.8</ele><time>2026-04-25T10:26:46.999Z</time></trkpt><trkpt lat="44.942943881803465" lon="5.694631750673867"><ele>760.6</ele><time>2026-04-25T10:26:47.999Z</time></trkpt><trkpt lat="44.94303867078036" lon="5.694747807113561"><ele>768.4000000000001</ele><time>2026-04-25T10:26:48.999Z</time></trkpt><trkpt lat="44.943125311901056" lon="5.694812788517455"><ele>776.2</ele><time>2026-04-25T10:26:49.999Z</time></trkpt><trkpt lat="44.94321606585606" lon="5.694830430572752"><ele>784.0</ele><time>2026-04-25T10:26:50.999Z</time></trkpt><trkpt lat="44.943306233249324" lon="5.694707133507689"><ele>784.0</ele><time>2026-04-25T10:26:51.999Z</time></trkpt><trkpt lat="44.94336162085429" lon="5.694517151485856"><ele>784.0</ele><time>2026-04-25T10:26:52.999Z</time></trkpt><trkpt lat="44.943439622731354" lon="5.694377625010953"><ele>784.0</ele><time>2026-04-25T10:26:53.999Z</time></trkpt><trkpt lat="44.94351997980088" lon="5.694255460052931"><ele>784.0</ele><time>2026-04-25T10:26:54.999Z</time></trkpt><trkpt lat="44.94361260672347" lon="5.6941586264253505"><ele>779.6</ele><time>2026-04-25T10:26:55.999Z</time></trkpt><trkpt lat="44.943724003745466" lon="5.694118848282878"><ele>775.2</ele><time>2026-04-25T10:26:56.999Z</time></trkpt><trkpt lat="44.94382992780666" lon="5.694153149557167"><ele>770.8000000000001</ele><time>2026-04-25T10:26:57.999Z</time></trkpt><trkpt lat="44.94391732060586" lon="5.694278108288949"><ele>766.4000000000001</ele><time>2026-04-25T10:26:58.999Z</time></trkpt><trkpt lat="44.94400879647332" lon="5.694311340062846"><ele>762.0</ele><time>2026-04-25T10:26:59.999Z</time></trkpt><trkpt lat="44.94409638432836" lon="5.694326008016813"><ele>762.0</ele><time>2026-04-25T10:27:00.999Z</time></trkpt><trkpt lat="44.944210162679774" lon="5.694178653620698"><ele>762.0</ele><time>2026-04-25T10:27:01.999Z</time></trkpt><trkpt lat="44.944320182843825" lon="5.694056122331545"><ele>762.0</ele><time>2026-04-25T10:27:02.999Z</time></trkpt><trkpt lat="44.94444844941198" lon="5.6939285079545705"><ele>766.5</ele><time>2026-04-25T10:27:03.999Z</time></trkpt><trkpt lat="44.94456908653642" lon="5.693804435605676"><ele>771.0</ele><time>2026-04-25T10:27:04.999Z</time></trkpt><trkpt lat="44.94469567018329" lon="5.693705604173925"><ele>775.5</ele><time>2026-04-25T10:27:05.999Z</time></trkpt><trkpt lat="44.944837958986646" lon="5.693685596198583"><ele>780.0</ele><time>2026-04-25T10:27:06.999Z</time></trkpt><trkpt lat="44.94499718561503" lon="5.6936621586407625"><ele>782.6666666666667</ele><time>2026-04-25T10:27:07.999Z</time></trkpt><trkpt lat="44.94517113318842" lon="5.693645399833073"><ele>785.3333333333334</ele><time>2026-04-25T10:27:08.999Z</time></trkpt><trkpt lat="44.94536513090839" lon="5.693641336613675"><ele>788.0</ele><time>2026-04-25T10:27:09.999Z</time></trkpt><trkpt lat="44.94556024384625" lon="5.693622023197417"><ele>788.0</ele><time>2026-04-25T10:27:10.999Z</time></trkpt><trkpt lat="44.945746441746785" lon="5.69363772996377"><ele>788.0</ele><time>2026-04-25T10:27:11.999Z</time></trkpt><trkpt lat="44.94591752057502" lon="5.693654146260647"><ele>788.0</ele><time>2026-04-25T10:27:12.999Z</time></trkpt><trkpt lat="44.94606896121737" lon="5.693683157479473"><ele>785.0</ele><time>2026-04-25T10:27:13.999Z</time></trkpt><trkpt lat="44.94620331576001" lon="5.693773576512389"><ele>782.0</ele><time>2026-04-25T10:27:14.999Z</time></trkpt><trkpt lat="44.94634988167487" lon="5.693858358218831"><ele>779.0</ele><time>2026-04-25T10:27:15.999Z</time></trkpt><trkpt lat="44.94650477652435" lon="5.693959971734376"><ele>779.0</ele><time>2026-04-25T10:27:16.999Z</time></trkpt><trkpt lat="44.94663561703775" lon="5.694084791638701"><ele>779.0</ele><time>2026-04-25T10:27:17.999Z</time></trkpt><trkpt lat="44.94677590399431" lon="5.694173159034018"><ele>779.0</ele><time>2026-04-25T10:27:18.999Z</time></trkpt><trkpt lat="44.94691715452137" lon="5.694225061331785"><ele>776.3333333333334</ele><time>2026-04-25T10:27:19.999Z</time></trkpt><trkpt lat="44.947080877781474" lon="5.694189919954002"><ele>773.6666666666667</ele><time>2026-04-25T10:27:20.999Z</time></trkpt><trkpt lat="44.94723575328885" lon="5.694123718087222"><ele>771.0</ele><time>2026-04-25T10:27:21.999Z</time></trkpt><trkpt lat="44.94738355462199" lon="5.694072372308823"><ele>771.0</ele><time>2026-04-25T10:27:22.999Z</time></trkpt><trkpt lat="44.94752843831785" lon="5.69403329129973"><ele>771.0</ele><time>2026-04-25T10:27:23.999Z</time></trkpt><trkpt lat="44.94766826056563" lon="5.693970135702147"><ele>771.0</ele><time>2026-04-25T10:27:24.999Z</time></trkpt><trkpt lat="44.94782115238298" lon="5.693950451145934"><ele>771.0</ele><time>2026-04-25T10:27:25.999Z</time></trkpt><trkpt lat="44.9479793962299" lon="5.693940835048329"><ele>771.3333333333333</ele><time>2026-04-25T10:27:26.999Z</time></trkpt><trkpt lat="44.94813692017677" lon="5.6939438707911405"><ele>771.6666666666666</ele><time>2026-04-25T10:27:27.999Z</time></trkpt><trkpt lat="44.94828593594778" lon="5.693973065131552"><ele>772.0</ele><time>2026-04-25T10:27:28.999Z</time></trkpt><trkpt lat="44.948422868649374" lon="5.694048923124532"><ele>764.75</ele><time>2026-04-25T10:27:29.999Z</time></trkpt><trkpt lat="44.94856549060106" lon="5.694109665428393"><ele>757.5</ele><time>2026-04-25T10:27:30.998Z</time></trkpt><trkpt lat="44.94870229439559" lon="5.694194123397565"><ele>750.25</ele><time>2026-04-25T10:27:31.998Z</time></trkpt><trkpt lat="44.94882814316501" lon="5.694302337187441"><ele>743.0</ele><time>2026-04-25T10:27:32.998Z</time></trkpt><trkpt lat="44.948937004849476" lon="5.694375395706421"><ele>744.8</ele><time>2026-04-25T10:27:33.998Z</time></trkpt><trkpt lat="44.94898498090931" lon="5.694511836566655"><ele>746.5999999999999</ele><time>2026-04-25T10:27:34.998Z</time></trkpt><trkpt lat="44.94899894958067" lon="5.694642522729687"><ele>748.4000000000001</ele><time>2026-04-25T10:27:35.998Z</time></trkpt><trkpt lat="44.948981845665394" lon="5.6947755748234306"><ele>750.2</ele><time>2026-04-25T10:27:36.998Z</time></trkpt><trkpt lat="44.948941862120684" lon="5.694914850541632"><ele>752.0</ele><time>2026-04-25T10:27:37.998Z</time></trkpt><trkpt lat="44.948895696320015" lon="5.69509244198692"><ele>751.3333333333333</ele><time>2026-04-25T10:27:38.998Z</time></trkpt><trkpt lat="44.94883696564162" lon="5.6953171480639035"><ele>750.6666666666666</ele><time>2026-04-25T10:27:39.998Z</time></trkpt><trkpt lat="44.94879915891595" lon="5.695546991447211"><ele>750.0</ele><time>2026-04-25T10:27:40.998Z</time></trkpt><trkpt lat="44.948742751169576" lon="5.695777766775769"><ele>750.0</ele><time>2026-04-25T10:27:41.998Z</time></trkpt><trkpt lat="44.94869378553027" lon="5.696018509783072"><ele>750.0</ele><time>2026-04-25T10:27:42.998Z</time></trkpt><trkpt lat="44.94867549798023" lon="5.696248354811486"><ele>750.0</ele><time>2026-04-25T10:27:43.998Z</time></trkpt><trkpt lat="44.94864064676223" lon="5.696520365341103"><ele>748.6666666666666</ele><time>2026-04-25T10:27:44.998Z</time></trkpt><trkpt lat="44.948641117916644" lon="5.696764628132"><ele>747.3333333333333</ele><time>2026-04-25T10:27:45.998Z</time></trkpt><trkpt lat="44.948610244068455" lon="5.697003458809379"><ele>746.0</ele><time>2026-04-25T10:27:46.998Z</time></trkpt><trkpt lat="44.94860978834227" lon="5.6972323319625895"><ele>743.0</ele><time>2026-04-25T10:27:48Z</time></trkpt><trkpt lat="44.94859017261563" lon="5.697485280943886"><ele>740.0</ele><time>2026-04-25T10:27:49Z</time></trkpt><trkpt lat="44.94856828981365" lon="5.697716916764645"><ele>737.0</ele><time>2026-04-25T10:27:50Z</time></trkpt><trkpt lat="44.94853255778113" lon="5.697930402461519"><ele>735.25</ele><time>2026-04-25T10:27:51Z</time></trkpt><trkpt lat="44.94847943345007" lon="5.698131846531027"><ele>733.5</ele><time>2026-04-25T10:27:52Z</time></trkpt><trkpt lat="44.94843477131035" lon="5.698323651529696"><ele>731.75</ele><time>2026-04-25T10:27:53Z</time></trkpt><trkpt lat="44.94838860956246" lon="5.698482815397905"><ele>730.0</ele><time>2026-04-25T10:27:54Z</time></trkpt><trkpt lat="44.94836134927471" lon="5.698639143529383"><ele>732.5</ele><time>2026-04-25T10:27:55Z</time></trkpt><trkpt lat="44.94838241041224" lon="5.6987877337941635"><ele>735.0</ele><time>2026-04-25T10:27:56Z</time></trkpt><trkpt lat="44.94845074490008" lon="5.698896784356882"><ele>737.5</ele><time>2026-04-25T10:27:57Z</time></trkpt><trkpt lat="44.94857216305701" lon="5.699006045726412"><ele>740.0</ele><time>2026-04-25T10:27:58Z</time></trkpt><trkpt lat="44.948675842804164" lon="5.6991692579064175"><ele>740.0</ele><time>2026-04-25T10:27:59Z</time></trkpt><trkpt lat="44.94875874372078" lon="5.69930632444399"><ele>740.0</ele><time>2026-04-25T10:28:00Z</time></trkpt><trkpt lat="44.94882505203007" lon="5.699432712610878"><ele>740.0</ele><time>2026-04-25T10:28:01Z</time></trkpt><trkpt lat="44.94890714893144" lon="5.699636002572998"><ele>740.0</ele><time>2026-04-25T10:28:02Z</time></trkpt><trkpt lat="44.948972216812145" lon="5.69983442166676"><ele>745.0</ele><time>2026-04-25T10:28:03Z</time></trkpt><trkpt lat="44.94902733713056" lon="5.7000355081667236"><ele>750.0</ele><time>2026-04-25T10:28:04Z</time></trkpt><trkpt lat="44.94907740084272" lon="5.7002264588216995"><ele>755.0</ele><time>2026-04-25T10:28:05Z</time></trkpt><trkpt lat="44.94912843113699" lon="5.700424186556234"><ele>760.0</ele><time>2026-04-25T10:28:06Z</time></trkpt><trkpt lat="44.949151350142245" lon="5.700620415366604"><ele>764.3333333333334</ele><time>2026-04-25T10:28:07Z</time></trkpt><trkpt lat="44.94915228388969" lon="5.700828004461403"><ele>768.6666666666667</ele><time>2026-04-25T10:28:08Z</time></trkpt><trkpt lat="44.949180536126555" lon="5.701038855077199"><ele>773.0</ele><time>2026-04-25T10:28:09Z</time></trkpt><trkpt lat="44.9492675489632" lon="5.701222844190286"><ele>753.0</ele><time>2026-04-25T10:28:10Z</time></trkpt><trkpt lat="44.949393278225486" lon="5.701437364593863"><ele>733.0</ele><time>2026-04-25T10:28:11Z</time></trkpt><trkpt lat="44.94945687917267" lon="5.701621022790024"><ele>713.0</ele><time>2026-04-25T10:28:12Z</time></trkpt><trkpt lat="44.94948947263476" lon="5.701801945167384"><ele>716.6666666666666</ele><time>2026-04-25T10:28:13Z</time></trkpt><trkpt lat="44.949493713878184" lon="5.702025019558633"><ele>720.3333333333334</ele><time>2026-04-25T10:28:14Z</time></trkpt><trkpt lat="44.94950354773871" lon="5.7022803432673586"><ele>724.0</ele><time>2026-04-25T10:28:15Z</time></trkpt><trkpt lat="44.949522265481505" lon="5.702547854219043"><ele>727.3333333333334</ele><time>2026-04-25T10:28:16Z</time></trkpt><trkpt lat="44.949539792650484" lon="5.702791435084336"><ele>730.6666666666666</ele><time>2026-04-25T10:28:17Z</time></trkpt><trkpt lat="44.94954922513496" lon="5.703023568134945"><ele>734.0</ele><time>2026-04-25T10:28:18Z</time></trkpt><trkpt lat="44.94955570280031" lon="5.703234928775215"><ele>734.0</ele><time>2026-04-25T10:28:19Z</time></trkpt><trkpt lat="44.949583975497156" lon="5.703433605821752"><ele>734.0</ele><time>2026-04-25T10:28:20Z</time></trkpt><trkpt lat="44.94961835393023" lon="5.703617868550485"><ele>734.0</ele><time>2026-04-25T10:28:21Z</time></trkpt><trkpt lat="44.94968081120857" lon="5.703778985276313"><ele>734.0</ele><time>2026-04-25T10:28:22Z</time></trkpt><trkpt lat="44.949751570839865" lon="5.703953277983629"><ele>736.0</ele><time>2026-04-25T10:28:23Z</time></trkpt><trkpt lat="44.94981199826431" lon="5.704146457309011"><ele>738.0</ele><time>2026-04-25T10:28:24Z</time></trkpt><trkpt lat="44.949876848342605" lon="5.704333714107374"><ele>740.0</ele><time>2026-04-25T10:28:25Z</time></trkpt><trkpt lat="44.94993600146135" lon="5.704529794921433"><ele>742.0</ele><time>2026-04-25T10:28:26Z</time></trkpt><trkpt lat="44.949977415381326" lon="5.704734315454792"><ele>744.0</ele><time>2026-04-25T10:28:27Z</time></trkpt><trkpt lat="44.94998839885265" lon="5.704937320849816"><ele>746.0</ele><time>2026-04-25T10:28:28Z</time></trkpt><trkpt lat="44.949979711733874" lon="5.7051411455208285"><ele>748.0</ele><time>2026-04-25T10:28:29Z</time></trkpt><trkpt lat="44.949949165821266" lon="5.705339744381799"><ele>750.0</ele><time>2026-04-25T10:28:30Z</time></trkpt><trkpt lat="44.94989652688101" lon="5.705565124915199"><ele>750.0</ele><time>2026-04-25T10:28:31Z</time></trkpt><trkpt lat="44.94983893209905" lon="5.70581380705527"><ele>750.0</ele><time>2026-04-25T10:28:32Z</time></trkpt><trkpt lat="44.949783177798786" lon="5.706071184917151"><ele>750.0</ele><time>2026-04-25T10:28:33Z</time></trkpt><trkpt lat="44.94973250121039" lon="5.706299605218268"><ele>745.75</ele><time>2026-04-25T10:28:34Z</time></trkpt><trkpt lat="44.94968143380645" lon="5.706500120008393"><ele>741.5</ele><time>2026-04-25T10:28:35Z</time></trkpt><trkpt lat="44.94961869080168" lon="5.706681494864445"><ele>737.25</ele><time>2026-04-25T10:28:36Z</time></trkpt><trkpt lat="44.949549333946464" lon="5.706862725764179"><ele>733.0</ele><time>2026-04-25T10:28:36.999Z</time></trkpt><trkpt lat="44.94947714327095" lon="5.707008097661701"><ele>736.75</ele><time>2026-04-25T10:28:37.999Z</time></trkpt><trkpt lat="44.94939401442825" lon="5.707169948424117"><ele>740.5</ele><time>2026-04-25T10:28:38.999Z</time></trkpt><trkpt lat="44.94930391503158" lon="5.707323221408011"><ele>744.25</ele><time>2026-04-25T10:28:39.999Z</time></trkpt><trkpt lat="44.94921000100738" lon="5.707468333492633"><ele>748.0</ele><time>2026-04-25T10:28:40.999Z</time></trkpt><trkpt lat="44.94910530735466" lon="5.707611100661968"><ele>739.6666666666667</ele><time>2026-04-25T10:28:41.999Z</time></trkpt><trkpt lat="44.94899303477062" lon="5.707748292431307"><ele>731.3333333333334</ele><time>2026-04-25T10:28:42.999Z</time></trkpt><trkpt lat="44.94887178473075" lon="5.707884354529906"><ele>723.0</ele><time>2026-04-25T10:28:43.999Z</time></trkpt><trkpt lat="44.94875096136449" lon="5.708012938927752"><ele>723.0</ele><time>2026-04-25T10:28:44.999Z</time></trkpt><trkpt lat="44.94862278443165" lon="5.708126195267062"><ele>723.0</ele><time>2026-04-25T10:28:45.999Z</time></trkpt><trkpt lat="44.9484937385245" lon="5.708239377920729"><ele>723.0</ele><time>2026-04-25T10:28:46.999Z</time></trkpt><trkpt lat="44.948372814219184" lon="5.708346230153221"><ele>723.0</ele><time>2026-04-25T10:28:47.999Z</time></trkpt><trkpt lat="44.94826818870934" lon="5.708437594845683"><ele>722.75</ele><time>2026-04-25T10:28:48.999Z</time></trkpt><trkpt lat="44.94816228145709" lon="5.708517018164532"><ele>722.5</ele><time>2026-04-25T10:28:49.999Z</time></trkpt><trkpt lat="44.94805278869437" lon="5.708571161449678"><ele>722.25</ele><time>2026-04-25T10:28:50.999Z</time></trkpt><trkpt lat="44.947921903003156" lon="5.708631510215127"><ele>722.0</ele><time>2026-04-25T10:28:51.999Z</time></trkpt><trkpt lat="44.94780982884655" lon="5.708720450999831"><ele>722.0</ele><time>2026-04-25T10:28:52.999Z</time></trkpt><trkpt lat="44.94771783158732" lon="5.708823098399955"><ele>722.0</ele><time>2026-04-25T10:28:53.999Z</time></trkpt><trkpt lat="44.947622688886696" lon="5.708938307189236"><ele>722.0</ele><time>2026-04-25T10:28:54.999Z</time></trkpt><trkpt lat="44.94754762695757" lon="5.709120455612562"><ele>722.0</ele><time>2026-04-25T10:28:55.999Z</time></trkpt><trkpt lat="44.94750636701032" lon="5.709305572128017"><ele>724.25</ele><time>2026-04-25T10:28:56.999Z</time></trkpt><trkpt lat="44.94744516179497" lon="5.709481199507174"><ele>726.5</ele><time>2026-04-25T10:28:57.999Z</time></trkpt><trkpt lat="44.94738260043473" lon="5.709617421918022"><ele>728.75</ele><time>2026-04-25T10:28:58.999Z</time></trkpt><trkpt lat="44.94731930556413" lon="5.709753538696564"><ele>731.0</ele><time>2026-04-25T10:28:59.999Z</time></trkpt><trkpt lat="44.94721826934898" lon="5.709853672328971"><ele>731.0</ele><time>2026-04-25T10:29:00.999Z</time></trkpt><trkpt lat="44.947151782770696" lon="5.710005574018236"><ele>731.0</ele><time>2026-04-25T10:29:01.999Z</time></trkpt><trkpt lat="44.947088514736706" lon="5.71015932597477"><ele>731.0</ele><time>2026-04-25T10:29:02.999Z</time></trkpt><trkpt lat="44.94703046400766" lon="5.710302928701575"><ele>731.0</ele><time>2026-04-25T10:29:03.999Z</time></trkpt><trkpt lat="44.946978876575635" lon="5.71043220452394"><ele>730.1999999999999</ele><time>2026-04-25T10:29:04.999Z</time></trkpt><trkpt lat="44.94695219516525" lon="5.7105708067398"><ele>729.4</ele><time>2026-04-25T10:29:05.999Z</time></trkpt><trkpt lat="44.946902205778244" lon="5.710696443052092"><ele>728.6</ele><time>2026-04-25T10:29:06.999Z</time></trkpt><trkpt lat="44.94684746285158" lon="5.710807977647323"><ele>727.8</ele><time>2026-04-25T10:29:07.999Z</time></trkpt><trkpt lat="44.94679646191793" lon="5.7109157147784035"><ele>727.0</ele><time>2026-04-25T10:29:08.999Z</time></trkpt><trkpt lat="44.946779244863876" lon="5.711010909111428"><ele>726.2</ele><time>2026-04-25T10:29:09.999Z</time></trkpt><trkpt lat="44.94680264619569" lon="5.711109202209598"><ele>725.4000000000001</ele><time>2026-04-25T10:29:10.999Z</time></trkpt><trkpt lat="44.946805008326315" lon="5.711221689332295"><ele>724.5999999999999</ele><time>2026-04-25T10:29:11.999Z</time></trkpt><trkpt lat="44.94679731708101" lon="5.71134975469717"><ele>723.8</ele><time>2026-04-25T10:29:12.999Z</time></trkpt><trkpt lat="44.946777219922254" lon="5.711491187839344"><ele>723.0</ele><time>2026-04-25T10:29:13.999Z</time></trkpt><trkpt lat="44.94675504981703" lon="5.711656539774066"><ele>725.0</ele><time>2026-04-25T10:29:14.999Z</time></trkpt><trkpt lat="44.946684664834606" lon="5.711828903902802"><ele>727.0</ele><time>2026-04-25T10:29:15.999Z</time></trkpt><trkpt lat="44.94660813089645" lon="5.7120013796449145"><ele>729.0</ele><time>2026-04-25T10:29:16.999Z</time></trkpt><trkpt lat="44.94654007306146" lon="5.712170358307919"><ele>731.0</ele><time>2026-04-25T10:29:17.999Z</time></trkpt><trkpt lat="44.946449908131044" lon="5.7123324530122"><ele>731.0</ele><time>2026-04-25T10:29:18.999Z</time></trkpt><trkpt lat="44.94637676195274" lon="5.7125252668168915"><ele>731.0</ele><time>2026-04-25T10:29:19.999Z</time></trkpt><trkpt lat="44.94630138142899" lon="5.712711982593767"><ele>731.0</ele><time>2026-04-25T10:29:20.999Z</time></trkpt><trkpt lat="44.94622596022254" lon="5.712876144334748"><ele>731.0</ele><time>2026-04-25T10:29:21.999Z</time></trkpt><trkpt lat="44.94614794583793" lon="5.713017492682805"><ele>727.75</ele><time>2026-04-25T10:29:22.999Z</time></trkpt><trkpt lat="44.94606496191698" lon="5.713146083329001"><ele>724.5</ele><time>2026-04-25T10:29:23.999Z</time></trkpt><trkpt lat="44.94598388894286" lon="5.713258312045988"><ele>721.25</ele><time>2026-04-25T10:29:24.999Z</time></trkpt><trkpt lat="44.94588881810392" lon="5.71336901237508"><ele>718.0</ele><time>2026-04-25T10:29:25.999Z</time></trkpt><trkpt lat="44.9457989159084" lon="5.713494019969202"><ele>723.75</ele><time>2026-04-25T10:29:26.999Z</time></trkpt><trkpt lat="44.94574162609844" lon="5.713672828859706"><ele>729.5</ele><time>2026-04-25T10:29:27.999Z</time></trkpt><trkpt lat="44.94571858952218" lon="5.7138835735871085"><ele>735.25</ele><time>2026-04-25T10:29:28.999Z</time></trkpt><trkpt lat="44.94568219556308" lon="5.7140575750344285"><ele>741.0</ele><time>2026-04-25T10:29:29.999Z</time></trkpt><trkpt lat="44.945617123262004" lon="5.7142155588295545"><ele>741.0</ele><time>2026-04-25T10:29:30.999Z</time></trkpt><trkpt lat="44.94560315054016" lon="5.714394136554681"><ele>741.0</ele><time>2026-04-25T10:29:31.999Z</time></trkpt><trkpt lat="44.94563477405582" lon="5.714574357342608"><ele>741.0</ele><time>2026-04-25T10:29:32.999Z</time></trkpt><trkpt lat="44.94568787556871" lon="5.714774779266403"><ele>741.0</ele><time>2026-04-25T10:29:33.999Z</time></trkpt><trkpt lat="44.94571669293877" lon="5.715009102293034"><ele>737.0</ele><time>2026-04-25T10:29:34.999Z</time></trkpt><trkpt lat="44.94574902313653" lon="5.715259599467627"><ele>733.0</ele><time>2026-04-25T10:29:35.999Z</time></trkpt><trkpt lat="44.945817570179834" lon="5.715488903324556"><ele>729.0</ele><time>2026-04-25T10:29:36.999Z</time></trkpt><trkpt lat="44.945900056594695" lon="5.715667015609422"><ele>723.0</ele><time>2026-04-25T10:29:37.999Z</time></trkpt><trkpt lat="44.94596008566182" lon="5.715850657042581"><ele>717.0</ele><time>2026-04-25T10:29:38.999Z</time></trkpt><trkpt lat="44.945972559016624" lon="5.716032269765292"><ele>711.0</ele><time>2026-04-25T10:29:39.998Z</time></trkpt><trkpt lat="44.945952461485184" lon="5.716202264346592"><ele>705.0</ele><time>2026-04-25T10:29:40.998Z</time></trkpt><trkpt lat="44.945932443487656" lon="5.716383241261887"><ele>707.3333333333334</ele><time>2026-04-25T10:29:41.998Z</time></trkpt><trkpt lat="44.94588426985848" lon="5.71656150901828"><ele>709.6666666666667</ele><time>2026-04-25T10:29:42.998Z</time></trkpt><trkpt lat="44.94578524437838" lon="5.716712026311072"><ele>712.0</ele><time>2026-04-25T10:29:43.998Z</time></trkpt><trkpt lat="44.945667178974894" lon="5.716926043507309"><ele>712.0</ele><time>2026-04-25T10:29:44.998Z</time></trkpt><trkpt lat="44.945561128472896" lon="5.717155029118627"><ele>712.0</ele><time>2026-04-25T10:29:45.998Z</time></trkpt><trkpt lat="44.945463361897495" lon="5.717341005090837"><ele>712.0</ele><time>2026-04-25T10:29:46.998Z</time></trkpt><trkpt lat="44.94536028684101" lon="5.717498715047878"><ele>712.0</ele><time>2026-04-25T10:29:47.998Z</time></trkpt><trkpt lat="44.94527577705815" lon="5.717652812974452"><ele>712.0</ele><time>2026-04-25T10:29:48.998Z</time></trkpt><trkpt lat="44.9452267152551" lon="5.717815939007894"><ele>712.0</ele><time>2026-04-25T10:29:49.998Z</time></trkpt><trkpt lat="44.945209989197565" lon="5.717961971809547"><ele>712.0</ele><time>2026-04-25T10:29:50.998Z</time></trkpt><trkpt lat="44.9452197261509" lon="5.718097427645726"><ele>714.4000000000001</ele><time>2026-04-25T10:29:51.998Z</time></trkpt><trkpt lat="44.94532994576422" lon="5.718204325186185"><ele>716.8000000000001</ele><time>2026-04-25T10:29:52.998Z</time></trkpt><trkpt lat="44.945405556774624" lon="5.718306096215612"><ele>719.2</ele><time>2026-04-25T10:29:54Z</time></trkpt><trkpt lat="44.945494674611105" lon="5.718346003776776"><ele>721.6</ele><time>2026-04-25T10:29:55Z</time></trkpt><trkpt lat="44.94560171173339" lon="5.718304616731909"><ele>724.0</ele><time>2026-04-25T10:29:56Z</time></trkpt><trkpt lat="44.94571749684379" lon="5.718200904702872"><ele>724.0</ele><time>2026-04-25T10:29:57Z</time></trkpt><trkpt lat="44.9458241509354" lon="5.718066489765316"><ele>724.0</ele><time>2026-04-25T10:29:58Z</time></trkpt><trkpt lat="44.94592296557878" lon="5.717945349875928"><ele>724.0</ele><time>2026-04-25T10:29:59Z</time></trkpt><trkpt lat="44.94602865565164" lon="5.71785798342895"><ele>724.0</ele><time>2026-04-25T10:30:00Z</time></trkpt><trkpt lat="44.946135823094" lon="5.717824333593687"><ele>721.2</ele><time>2026-04-25T10:30:01Z</time></trkpt><trkpt lat="44.946230403092436" lon="5.717855340125851"><ele>718.4000000000001</ele><time>2026-04-25T10:30:02Z</time></trkpt><trkpt lat="44.94630737803391" lon="5.717936506067154"><ele>715.6</ele><time>2026-04-25T10:30:03Z</time></trkpt><trkpt lat="44.94633496847651" lon="5.718076235322051"><ele>712.8</ele><time>2026-04-25T10:30:04Z</time></trkpt><trkpt lat="44.94632385787684" lon="5.718207788134214"><ele>710.0</ele><time>2026-04-25T10:30:05Z</time></trkpt><trkpt lat="44.946350885530656" lon="5.718312324826546"><ele>710.0</ele><time>2026-04-25T10:30:06Z</time></trkpt><trkpt lat="44.94645521548893" lon="5.718352692495789"><ele>710.0</ele><time>2026-04-25T10:30:07Z</time></trkpt><trkpt lat="44.9465383320119" lon="5.718430774632304"><ele>710.0</ele><time>2026-04-25T10:30:08Z</time></trkpt><trkpt lat="44.94662695215529" lon="5.718552166570291"><ele>710.0</ele><time>2026-04-25T10:30:09Z</time></trkpt><trkpt lat="44.94672869281308" lon="5.718663424866056"><ele>712.25</ele><time>2026-04-25T10:30:10Z</time></trkpt><trkpt lat="44.94684579811379" lon="5.7187614878915"><ele>714.5</ele><time>2026-04-25T10:30:11Z</time></trkpt><trkpt lat="44.94697502319034" lon="5.718843912371643"><ele>716.75</ele><time>2026-04-25T10:30:12Z</time></trkpt><trkpt lat="44.947105856216474" lon="5.718909094402213"><ele>719.0</ele><time>2026-04-25T10:30:13Z</time></trkpt><trkpt lat="44.94723223443316" lon="5.718934841701569"><ele>719.0</ele><time>2026-04-25T10:30:14Z</time></trkpt><trkpt lat="44.94736310869899" lon="5.718932610978406"><ele>719.0</ele><time>2026-04-25T10:30:15Z</time></trkpt><trkpt lat="44.94748536037844" lon="5.718929791883812"><ele>719.0</ele><time>2026-04-25T10:30:16Z</time></trkpt><trkpt lat="44.94758306592392" lon="5.718925764246098"><ele>719.0</ele><time>2026-04-25T10:30:17Z</time></trkpt><trkpt lat="44.947659934771565" lon="5.718926063345825"><ele>719.0</ele><time>2026-04-25T10:30:18Z</time></trkpt><trkpt lat="44.947731252313865" lon="5.7189144870978375"><ele>717.9999999999999</ele><time>2026-04-25T10:30:19Z</time></trkpt><trkpt lat="44.94779461818969" lon="5.718885754926108"><ele>717.0</ele><time>2026-04-25T10:30:20Z</time></trkpt><trkpt lat="44.94786321193204" lon="5.718841663170457"><ele>716.0</ele><time>2026-04-25T10:30:21Z</time></trkpt><trkpt lat="44.94791342626364" lon="5.718779049405752"><ele>715.0</ele><time>2026-04-25T10:30:22Z</time></trkpt><trkpt lat="44.94795446140467" lon="5.718700681608747"><ele>714.0</ele><time>2026-04-25T10:30:23Z</time></trkpt><trkpt lat="44.94800732983901" lon="5.7186232678833315"><ele>712.9999999999999</ele><time>2026-04-25T10:30:24Z</time></trkpt><trkpt lat="44.94805900634717" lon="5.718560608880319"><ele>712.0</ele><time>2026-04-25T10:30:25Z</time></trkpt><trkpt lat="44.9481289709912" lon="5.718510310948689"><ele>710.3333333333334</ele><time>2026-04-25T10:30:26Z</time></trkpt><trkpt lat="44.94820036288164" lon="5.718465932625241"><ele>708.6666666666667</ele><time>2026-04-25T10:30:27Z</time></trkpt><trkpt lat="44.94827986548407" lon="5.718425210067105"><ele>707.0</ele><time>2026-04-25T10:30:28Z</time></trkpt><trkpt lat="44.94836139179222" lon="5.718387168154416"><ele>705.3333333333334</ele><time>2026-04-25T10:30:29Z</time></trkpt><trkpt lat="44.94844268159993" lon="5.718344248487978"><ele>703.6666666666666</ele><time>2026-04-25T10:30:30Z</time></trkpt><trkpt lat="44.94852479782876" lon="5.718299770375123"><ele>702.0</ele><time>2026-04-25T10:30:31Z</time></trkpt><trkpt lat="44.948613182254064" lon="5.718272152440217"><ele>702.0</ele><time>2026-04-25T10:30:32Z</time></trkpt><trkpt lat="44.9487026739562" lon="5.718265183415855"><ele>702.0</ele><time>2026-04-25T10:30:33Z</time></trkpt><trkpt lat="44.94879293651937" lon="5.718261621088956"><ele>702.0</ele><time>2026-04-25T10:30:34Z</time></trkpt><trkpt lat="44.948879664449414" lon="5.718255336177506"><ele>702.0</ele><time>2026-04-25T10:30:35Z</time></trkpt><trkpt lat="44.94896271039609" lon="5.71824320462"><ele>702.0</ele><time>2026-04-25T10:30:36Z</time></trkpt><trkpt lat="44.949048736368766" lon="5.718199470424011"><ele>702.0</ele><time>2026-04-25T10:30:37Z</time></trkpt><trkpt lat="44.949134553340905" lon="5.718124721391742"><ele>701.5</ele><time>2026-04-25T10:30:38Z</time></trkpt><trkpt lat="44.94922766806723" lon="5.718020822498613"><ele>701.0</ele><time>2026-04-25T10:30:39Z</time></trkpt><trkpt lat="44.949327134068376" lon="5.717910939272771"><ele>700.5</ele><time>2026-04-25T10:30:40Z</time></trkpt><trkpt lat="44.94942525950969" lon="5.717805306092942"><ele>700.0</ele><time>2026-04-25T10:30:41Z</time></trkpt><trkpt lat="44.949513517433296" lon="5.717705238837745"><ele>700.0</ele><time>2026-04-25T10:30:42Z</time></trkpt><trkpt lat="44.94959644827263" lon="5.717623865247582"><ele>700.0</ele><time>2026-04-25T10:30:42.999Z</time></trkpt><trkpt lat="44.949677928361474" lon="5.7175716722225545"><ele>700.0</ele><time>2026-04-25T10:30:43.999Z</time></trkpt><trkpt lat="44.94974942021" lon="5.71752872681264"><ele>700.0</ele><time>2026-04-25T10:30:44.999Z</time></trkpt><trkpt lat="44.949813676669294" lon="5.717478001032302"><ele>700.0</ele><time>2026-04-25T10:30:45.999Z</time></trkpt><trkpt lat="44.94987505463524" lon="5.717422007727453"><ele>700.0</ele><time>2026-04-25T10:30:46.999Z</time></trkpt><trkpt lat="44.94994114053074" lon="5.717357206689924"><ele>700.0</ele><time>2026-04-25T10:30:47.999Z</time></trkpt><trkpt lat="44.95000127167107" lon="5.7172929157909"><ele>700.0</ele><time>2026-04-25T10:30:48.999Z</time></trkpt><trkpt lat="44.950064903129395" lon="5.717240018786751"><ele>700.0</ele><time>2026-04-25T10:30:49.999Z</time></trkpt><trkpt lat="44.95014205777655" lon="5.717226507033489"><ele>700.0</ele><time>2026-04-25T10:30:50.999Z</time></trkpt><trkpt lat="44.95022059455992" lon="5.71727249271457"><ele>700.0</ele><time>2026-04-25T10:30:51.999Z</time></trkpt><trkpt lat="44.95031699546845" lon="5.717294695858631"><ele>700.0</ele><time>2026-04-25T10:30:52.999Z</time></trkpt><trkpt lat="44.95040665896434" lon="5.717339747546124"><ele>699.8</ele><time>2026-04-25T10:30:53.999Z</time></trkpt><trkpt lat="44.95050209126263" lon="5.717376408783076"><ele>699.6</ele><time>2026-04-25T10:30:54.999Z</time></trkpt><trkpt lat="44.95060491436639" lon="5.717413613592584"><ele>699.4000000000001</ele><time>2026-04-25T10:30:55.999Z</time></trkpt><trkpt lat="44.950710352426" lon="5.717450407315316"><ele>699.2</ele><time>2026-04-25T10:30:56.999Z</time></trkpt><trkpt lat="44.95081799406559" lon="5.717480977546984"><ele>699.0</ele><time>2026-04-25T10:30:57.999Z</time></trkpt><trkpt lat="44.95092438974606" lon="5.717469484513984"><ele>701.25</ele><time>2026-04-25T10:30:58.999Z</time></trkpt><trkpt lat="44.951029323355364" lon="5.717386630578608"><ele>703.5</ele><time>2026-04-25T10:30:59.999Z</time></trkpt><trkpt lat="44.95109187438778" lon="5.717234765768033"><ele>705.75</ele><time>2026-04-25T10:31:00.999Z</time></trkpt><trkpt lat="44.951128334915005" lon="5.717064429770708"><ele>708.0</ele><time>2026-04-25T10:31:01.999Z</time></trkpt><trkpt lat="44.95117440752167" lon="5.716898564030248"><ele>708.0</ele><time>2026-04-25T10:31:02.999Z</time></trkpt><trkpt lat="44.95123962013799" lon="5.716723339374568"><ele>708.0</ele><time>2026-04-25T10:31:03.999Z</time></trkpt><trkpt lat="44.95131698182392" lon="5.7165444100621015"><ele>708.0</ele><time>2026-04-25T10:31:04.999Z</time></trkpt><trkpt lat="44.951387312487405" lon="5.716342259046974"><ele>708.0</ele><time>2026-04-25T10:31:05.999Z</time></trkpt><trkpt lat="44.951427829525876" lon="5.7161137358159895"><ele>700.6666666666666</ele><time>2026-04-25T10:31:06.999Z</time></trkpt><trkpt lat="44.95145796151828" lon="5.715880488773385"><ele>693.3333333333333</ele><time>2026-04-25T10:31:07.999Z</time></trkpt><trkpt lat="44.951534542489206" lon="5.715690115755508"><ele>686.0</ele><time>2026-04-25T10:31:08.999Z</time></trkpt><trkpt lat="44.95162859116482" lon="5.715513361999065"><ele>683.6666666666666</ele><time>2026-04-25T10:31:09.999Z</time></trkpt><trkpt lat="44.95174853070166" lon="5.715350714372728"><ele>681.3333333333334</ele><time>2026-04-25T10:31:10.999Z</time></trkpt><trkpt lat="44.95187324026851" lon="5.715189581130369"><ele>679.0</ele><time>2026-04-25T10:31:11.999Z</time></trkpt><trkpt lat="44.9520130363551" lon="5.715055336879735"><ele>679.0</ele><time>2026-04-25T10:31:12.999Z</time></trkpt><trkpt lat="44.95215812403251" lon="5.714972467239418"><ele>679.0</ele><time>2026-04-25T10:31:13.999Z</time></trkpt><trkpt lat="44.952308736277274" lon="5.714925486272701"><ele>679.0</ele><time>2026-04-25T10:31:14.999Z</time></trkpt><trkpt lat="44.95244420537341" lon="5.7148630246734715"><ele>677.0</ele><time>2026-04-25T10:31:15.999Z</time></trkpt><trkpt lat="44.95255170190225" lon="5.714751611940759"><ele>675.0</ele><time>2026-04-25T10:31:16.999Z</time></trkpt><trkpt lat="44.95265503783067" lon="5.7146289216055814"><ele>673.0</ele><time>2026-04-25T10:31:17.999Z</time></trkpt><trkpt lat="44.95276982054566" lon="5.714543882489979"><ele>671.0</ele><time>2026-04-25T10:31:18.999Z</time></trkpt><trkpt lat="44.9528987525136" lon="5.714514439787563"><ele>671.0</ele><time>2026-04-25T10:31:19.999Z</time></trkpt><trkpt lat="44.953035612961" lon="5.714583867085658"><ele>671.0</ele><time>2026-04-25T10:31:20.999Z</time></trkpt><trkpt lat="44.95316048701627" lon="5.71462797376405"><ele>671.0</ele><time>2026-04-25T10:31:21.999Z</time></trkpt><trkpt lat="44.95329961825887" lon="5.714738889796885"><ele>671.0</ele><time>2026-04-25T10:31:22.999Z</time></trkpt><trkpt lat="44.95344243469476" lon="5.714817471985561"><ele>665.6666666666666</ele><time>2026-04-25T10:31:23.999Z</time></trkpt><trkpt lat="44.95359829766815" lon="5.714872302908072"><ele>660.3333333333334</ele><time>2026-04-25T10:31:24.999Z</time></trkpt><trkpt lat="44.953766778765086" lon="5.71488869457896"><ele>655.0</ele><time>2026-04-25T10:31:25.999Z</time></trkpt><trkpt lat="44.95393731898322" lon="5.714840031395184"><ele>655.0</ele><time>2026-04-25T10:31:26.999Z</time></trkpt><trkpt lat="44.95410496979388" lon="5.714778181323378"><ele>655.0</ele><time>2026-04-25T10:31:27.999Z</time></trkpt><trkpt lat="44.954269862491046" lon="5.714818018170248"><ele>655.0</ele><time>2026-04-25T10:31:28.999Z</time></trkpt><trkpt lat="44.954429096019744" lon="5.714869376439505"><ele>651.0</ele><time>2026-04-25T10:31:29.999Z</time></trkpt><trkpt lat="44.954571893897395" lon="5.714937037705711"><ele>647.0</ele><time>2026-04-25T10:31:30.999Z</time></trkpt><trkpt lat="44.9546790527268" lon="5.715057292327287"><ele>643.0</ele><time>2026-04-25T10:31:31.999Z</time></trkpt><trkpt lat="44.95476473002138" lon="5.7152195786107916"><ele>639.0</ele><time>2026-04-25T10:31:32.999Z</time></trkpt><trkpt lat="44.9548167336667" lon="5.7154118374143525"><ele>639.0</ele><time>2026-04-25T10:31:33.999Z</time></trkpt><trkpt lat="44.954861584023284" lon="5.715595292441777"><ele>639.0</ele><time>2026-04-25T10:31:34.999Z</time></trkpt><trkpt lat="44.954923887368594" lon="5.715776671242622"><ele>639.0</ele><time>2026-04-25T10:31:35.999Z</time></trkpt><trkpt lat="44.95496710290981" lon="5.71595028512924"><ele>639.0</ele><time>2026-04-25T10:31:36.999Z</time></trkpt><trkpt lat="44.955012411181585" lon="5.716122393010003"><ele>638.0</ele><time>2026-04-25T10:31:37.999Z</time></trkpt><trkpt lat="44.955038379353034" lon="5.716290761876559"><ele>637.0</ele><time>2026-04-25T10:31:38.999Z</time></trkpt><trkpt lat="44.95506661098565" lon="5.716460475594487"><ele>636.0</ele><time>2026-04-25T10:31:39.999Z</time></trkpt><trkpt lat="44.955097643605235" lon="5.716623657420272"><ele>635.0</ele><time>2026-04-25T10:31:40.999Z</time></trkpt><trkpt lat="44.95513153276599" lon="5.716777219333982"><ele>635.6</ele><time>2026-04-25T10:31:41.999Z</time></trkpt><trkpt lat="44.95517950635124" lon="5.7169178163540435"><ele>636.2</ele><time>2026-04-25T10:31:42.999Z</time></trkpt><trkpt lat="44.955228858819716" lon="5.717045772845743"><ele>636.8</ele><time>2026-04-25T10:31:43.999Z</time></trkpt><trkpt lat="44.95527397004468" lon="5.717167582570089"><ele>637.4</ele><time>2026-04-25T10:31:44.998Z</time></trkpt><trkpt lat="44.95532514744867" lon="5.717287186356968"><ele>638.0</ele><time>2026-04-25T10:31:45.998Z</time></trkpt><trkpt lat="44.95538167200115" lon="5.717390669886714"><ele>638.0</ele><time>2026-04-25T10:31:46.998Z</time></trkpt><trkpt lat="44.955455670808426" lon="5.717455918636485"><ele>638.0</ele><time>2026-04-25T10:31:47.998Z</time></trkpt><trkpt lat="44.95556505939913" lon="5.717471928950602"><ele>638.0</ele><time>2026-04-25T10:31:48.998Z</time></trkpt><trkpt lat="44.95568287931629" lon="5.717435773087194"><ele>638.0</ele><time>2026-04-25T10:31:49.998Z</time></trkpt><trkpt lat="44.955782521743906" lon="5.717336528419725"><ele>638.0</ele><time>2026-04-25T10:31:50.998Z</time></trkpt><trkpt lat="44.955840802006485" lon="5.717175995101313"><ele>640.8</ele><time>2026-04-25T10:31:51.998Z</time></trkpt><trkpt lat="44.95588865438873" lon="5.7170234676855065"><ele>643.5999999999999</ele><time>2026-04-25T10:31:52.998Z</time></trkpt><trkpt lat="44.9559415348992" lon="5.716906027848173"><ele>646.4000000000001</ele><time>2026-04-25T10:31:53.998Z</time></trkpt><trkpt lat="44.955989136311175" lon="5.7167940597266105"><ele>649.2</ele><time>2026-04-25T10:31:54.998Z</time></trkpt><trkpt lat="44.956055585831926" lon="5.716732591530293"><ele>652.0</ele><time>2026-04-25T10:31:55.998Z</time></trkpt><trkpt lat="44.95611414852967" lon="5.716647104306327"><ele>652.2</ele><time>2026-04-25T10:31:56.998Z</time></trkpt><trkpt lat="44.95618293513163" lon="5.716558717494885"><ele>652.4000000000001</ele><time>2026-04-25T10:31:57.998Z</time></trkpt><trkpt lat="44.95622875659153" lon="5.716430208215544"><ele>652.5999999999999</ele><time>2026-04-25T10:31:58.998Z</time></trkpt><trkpt lat="44.956263090545086" lon="5.716282296965328"><ele>652.8</ele><time>2026-04-25T10:32:00Z</time></trkpt><trkpt lat="44.956295370610775" lon="5.716139221038991"><ele>653.0</ele><time>2026-04-25T10:32:01Z</time></trkpt><trkpt lat="44.95632377521841" lon="5.716019367453889"><ele>653.8333333333333</ele><time>2026-04-25T10:32:02Z</time></trkpt><trkpt lat="44.95634767121013" lon="5.715923978331146"><ele>654.6666666666666</ele><time>2026-04-25T10:32:03Z</time></trkpt><trkpt lat="44.956366452503" lon="5.715824137793322"><ele>655.5</ele><time>2026-04-25T10:32:04Z</time></trkpt><trkpt lat="44.956375062466456" lon="5.715716388857908"><ele>656.3333333333334</ele><time>2026-04-25T10:32:05Z</time></trkpt><trkpt lat="44.956373194077734" lon="5.715595673309208"><ele>657.1666666666667</ele><time>2026-04-25T10:32:06Z</time></trkpt><trkpt lat="44.95635478303843" lon="5.715475966198857"><ele>658.0</ele><time>2026-04-25T10:32:07Z</time></trkpt><trkpt lat="44.95633980402595" lon="5.71532660511832"><ele>658.8</ele><time>2026-04-25T10:32:08Z</time></trkpt><trkpt lat="44.95635278967917" lon="5.715184923520396"><ele>659.5999999999999</ele><time>2026-04-25T10:32:09Z</time></trkpt><trkpt lat="44.95637953022495" lon="5.715037036867451"><ele>660.4000000000001</ele><time>2026-04-25T10:32:10Z</time></trkpt><trkpt lat="44.956369401935405" lon="5.7148860449025"><ele>661.2</ele><time>2026-04-25T10:32:11Z</time></trkpt><trkpt lat="44.9563468613189" lon="5.71472585986681"><ele>662.0</ele><time>2026-04-25T10:32:12Z</time></trkpt><trkpt lat="44.95633716515278" lon="5.714569067327116"><ele>662.0</ele><time>2026-04-25T10:32:13Z</time></trkpt><trkpt lat="44.956337203296904" lon="5.714419497095984"><ele>662.0</ele><time>2026-04-25T10:32:14Z</time></trkpt><trkpt lat="44.95634203612908" lon="5.714268624614688"><ele>662.0</ele><time>2026-04-25T10:32:15Z</time></trkpt><trkpt lat="44.956384696089934" lon="5.714129647602902"><ele>662.0</ele><time>2026-04-25T10:32:16Z</time></trkpt><trkpt lat="44.956446879323785" lon="5.714003658251487"><ele>662.0</ele><time>2026-04-25T10:32:17Z</time></trkpt><trkpt lat="44.95648156148237" lon="5.713839169832957"><ele>664.0</ele><time>2026-04-25T10:32:18Z</time></trkpt><trkpt lat="44.95647228151502" lon="5.71362558034848"><ele>666.0</ele><time>2026-04-25T10:32:19Z</time></trkpt><trkpt lat="44.95642843240004" lon="5.713399317579194"><ele>668.0</ele><time>2026-04-25T10:32:20Z</time></trkpt><trkpt lat="44.95637438254751" lon="5.713198906562499"><ele>670.0</ele><time>2026-04-25T10:32:21Z</time></trkpt><trkpt lat="44.9563178374302" lon="5.713019809450349"><ele>672.0</ele><time>2026-04-25T10:32:22Z</time></trkpt><trkpt lat="44.956259896842575" lon="5.712844143353818"><ele>674.0</ele><time>2026-04-25T10:32:23Z</time></trkpt><trkpt lat="44.95615236604683" lon="5.712709661250979"><ele>676.0</ele><time>2026-04-25T10:32:24Z</time></trkpt><trkpt lat="44.95609251850311" lon="5.712536486121404"><ele>678.0</ele><time>2026-04-25T10:32:25Z</time></trkpt><trkpt lat="44.95604972347201" lon="5.712312953970721"><ele>680.0</ele><time>2026-04-25T10:32:26Z</time></trkpt><trkpt lat="44.955998124975316" lon="5.712131375932584"><ele>682.0</ele><time>2026-04-25T10:32:27Z</time></trkpt><trkpt lat="44.955927053696655" lon="5.711985618385166"><ele>684.0</ele><time>2026-04-25T10:32:28Z</time></trkpt><trkpt lat="44.955868318706734" lon="5.711873011688723"><ele>684.0</ele><time>2026-04-25T10:32:29Z</time></trkpt><trkpt lat="44.9558308676089" lon="5.711792946555525"><ele>684.0</ele><time>2026-04-25T10:32:30Z</time></trkpt><trkpt lat="44.95589903809935" lon="5.711681997668284"><ele>684.0</ele><time>2026-04-25T10:32:32Z</time></trkpt><trkpt lat="44.95598231089983" lon="5.7118319001760405"><ele>684.0</ele><time>2026-04-25T10:32:33Z</time></trkpt><trkpt lat="44.956073289722966" lon="5.711915888353823"><ele>684.0</ele><time>2026-04-25T10:32:34Z</time></trkpt><trkpt lat="44.95617670201378" lon="5.712023054648607"><ele>684.0</ele><time>2026-04-25T10:32:35Z</time></trkpt><trkpt lat="44.956289617563456" lon="5.712135434250606"><ele>684.0</ele><time>2026-04-25T10:32:36Z</time></trkpt><trkpt lat="44.9563717390692" lon="5.712298425780853"><ele>684.0</ele><time>2026-04-25T10:32:37Z</time></trkpt><trkpt lat="44.956433594166434" lon="5.712494219843757"><ele>684.0</ele><time>2026-04-25T10:32:38Z</time></trkpt><trkpt lat="44.95652993438781" lon="5.712661042383308"><ele>681.3333333333334</ele><time>2026-04-25T10:32:39Z</time></trkpt><trkpt lat="44.956610000840755" lon="5.712829305176704"><ele>678.6666666666667</ele><time>2026-04-25T10:32:40Z</time></trkpt><trkpt lat="44.95668121210866" lon="5.713032867560292"><ele>676.0</ele><time>2026-04-25T10:32:41Z</time></trkpt><trkpt lat="44.956749415366154" lon="5.713271601536899"><ele>684.3333333333334</ele><time>2026-04-25T10:32:42Z</time></trkpt><trkpt lat="44.95680387067287" lon="5.713541389003986"><ele>692.6666666666666</ele><time>2026-04-25T10:32:43Z</time></trkpt><trkpt lat="44.956879970548854" lon="5.713753778354164"><ele>701.0</ele><time>2026-04-25T10:32:44Z</time></trkpt><trkpt lat="44.95693765608948" lon="5.71391616150392"><ele>701.0</ele><time>2026-04-25T10:32:45Z</time></trkpt><trkpt lat="44.95698115988634" lon="5.7140439362967745"><ele>701.0</ele><time>2026-04-25T10:32:46Z</time></trkpt><trkpt lat="44.957004513341396" lon="5.714150873536694"><ele>701.0</ele><time>2026-04-25T10:32:47Z</time></trkpt><trkpt lat="44.9570992208955" lon="5.714216099058634"><ele>701.0</ele><time>2026-04-25T10:32:48.999Z</time></trkpt><trkpt lat="44.95714523111827" lon="5.714094723691451"><ele>701.0</ele><time>2026-04-25T10:32:49.999Z</time></trkpt><trkpt lat="44.95711680650462" lon="5.713952698903873"><ele>701.0</ele><time>2026-04-25T10:32:50.999Z</time></trkpt><trkpt lat="44.95703114043096" lon="5.7138312152345625"><ele>701.0</ele><time>2026-04-25T10:32:51.999Z</time></trkpt><trkpt lat="44.956982520903296" lon="5.71366844993262"><ele>701.0</ele><time>2026-04-25T10:32:52.999Z</time></trkpt><trkpt lat="44.95693920219111" lon="5.713474157721066"><ele>701.0</ele><time>2026-04-25T10:32:53.999Z</time></trkpt><trkpt lat="44.95694690881882" lon="5.713249985359198"><ele>703.5</ele><time>2026-04-25T10:32:54.999Z</time></trkpt><trkpt lat="44.95695003965014" lon="5.713042637191967"><ele>706.0</ele><time>2026-04-25T10:32:55.999Z</time></trkpt><trkpt lat="44.95693608602484" lon="5.712846019484841"><ele>708.5</ele><time>2026-04-25T10:32:56.999Z</time></trkpt><trkpt lat="44.956915371460255" lon="5.71262149413471"><ele>711.0</ele><time>2026-04-25T10:32:57.999Z</time></trkpt><trkpt lat="44.95693805901826" lon="5.712388703489066"><ele>711.6666666666666</ele><time>2026-04-25T10:32:58.999Z</time></trkpt><trkpt lat="44.95698633790058" lon="5.712166641236961"><ele>712.3333333333333</ele><time>2026-04-25T10:32:59.999Z</time></trkpt><trkpt lat="44.957059555060745" lon="5.711953546833742"><ele>713.0</ele><time>2026-04-25T10:33:00.999Z</time></trkpt><trkpt lat="44.957119214040496" lon="5.711732715194316"><ele>713.0</ele><time>2026-04-25T10:33:01.999Z</time></trkpt><trkpt lat="44.957130837945364" lon="5.711522962847889"><ele>713.0</ele><time>2026-04-25T10:33:02.999Z</time></trkpt><trkpt lat="44.957118363475196" lon="5.711319053762433"><ele>713.0</ele><time>2026-04-25T10:33:03.999Z</time></trkpt><trkpt lat="44.957098593322534" lon="5.711140222934135"><ele>713.0</ele><time>2026-04-25T10:33:04.999Z</time></trkpt><trkpt lat="44.95707483967081" lon="5.710991656997871"><ele>713.5999999999999</ele><time>2026-04-25T10:33:05.999Z</time></trkpt><trkpt lat="44.957066297342216" lon="5.710865909340031"><ele>714.1999999999999</ele><time>2026-04-25T10:33:06.999Z</time></trkpt><trkpt lat="44.9570703264491" lon="5.710743307355227"><ele>714.8</ele><time>2026-04-25T10:33:07.999Z</time></trkpt><trkpt lat="44.957055725843446" lon="5.7105975498821735"><ele>715.4</ele><time>2026-04-25T10:33:08.999Z</time></trkpt><trkpt lat="44.9570018443753" lon="5.7104393975014425"><ele>716.0</ele><time>2026-04-25T10:33:09.999Z</time></trkpt><trkpt lat="44.95693271773921" lon="5.710272037628151"><ele>718.25</ele><time>2026-04-25T10:33:10.999Z</time></trkpt><trkpt lat="44.95691135802715" lon="5.710075209463215"><ele>720.5</ele><time>2026-04-25T10:33:11.999Z</time></trkpt><trkpt lat="44.95691923324284" lon="5.709853484509692"><ele>722.75</ele><time>2026-04-25T10:33:12.999Z</time></trkpt><trkpt lat="44.95692213894624" lon="5.709660998084748"><ele>725.0</ele><time>2026-04-25T10:33:13.999Z</time></trkpt><trkpt lat="44.956906410280894" lon="5.709521996993295"><ele>725.0</ele><time>2026-04-25T10:33:14.999Z</time></trkpt><trkpt lat="44.95690838450521" lon="5.709400178358933"><ele>725.0</ele><time>2026-04-25T10:33:15.999Z</time></trkpt><trkpt lat="44.95692765882098" lon="5.709298907765791"><ele>725.0</ele><time>2026-04-25T10:33:17.999Z</time></trkpt><trkpt lat="44.95703226209205" lon="5.709317385688448"><ele>725.0</ele><time>2026-04-25T10:33:18.999Z</time></trkpt><trkpt lat="44.9570267101408" lon="5.709512422337639"><ele>725.0</ele><time>2026-04-25T10:33:19.999Z</time></trkpt><trkpt lat="44.957069988164605" lon="5.709673959030697"><ele>725.0</ele><time>2026-04-25T10:33:20.999Z</time></trkpt><trkpt lat="44.95714375430225" lon="5.709853501458217"><ele>725.0</ele><time>2026-04-25T10:33:21.999Z</time></trkpt><trkpt lat="44.957229229794365" lon="5.710040580718263"><ele>725.0</ele><time>2026-04-25T10:33:22.999Z</time></trkpt><trkpt lat="44.95731548816376" lon="5.7102184852429945"><ele>722.0</ele><time>2026-04-25T10:33:23.999Z</time></trkpt><trkpt lat="44.957418608050894" lon="5.710365448910968"><ele>719.0</ele><time>2026-04-25T10:33:24.999Z</time></trkpt><trkpt lat="44.95756331745534" lon="5.710469698723366"><ele>716.0</ele><time>2026-04-25T10:33:25.999Z</time></trkpt><trkpt lat="44.957729938207095" lon="5.710600319995937"><ele>723.6666666666666</ele><time>2026-04-25T10:33:26.999Z</time></trkpt><trkpt lat="44.957843646123116" lon="5.710813816880819"><ele>731.3333333333334</ele><time>2026-04-25T10:33:27.999Z</time></trkpt><trkpt lat="44.95793200024535" lon="5.71104060375716"><ele>739.0</ele><time>2026-04-25T10:33:28.999Z</time></trkpt><trkpt lat="44.958006281885915" lon="5.711306224217616"><ele>739.0</ele><time>2026-04-25T10:33:29.999Z</time></trkpt><trkpt lat="44.95803370443139" lon="5.7115968513387125"><ele>739.0</ele><time>2026-04-25T10:33:30.999Z</time></trkpt><trkpt lat="44.958024757351744" lon="5.711893830965094"><ele>739.0</ele><time>2026-04-25T10:33:31.999Z</time></trkpt><trkpt lat="44.95803587139092" lon="5.712168640857234"><ele>740.0</ele><time>2026-04-25T10:33:32.999Z</time></trkpt><trkpt lat="44.9580402739343" lon="5.712394094033472"><ele>741.0</ele><time>2026-04-25T10:33:33.999Z</time></trkpt><trkpt lat="44.958074222684026" lon="5.712616399059145"><ele>742.0</ele><time>2026-04-25T10:33:34.999Z</time></trkpt><trkpt lat="44.95813157998321" lon="5.712856525094257"><ele>739.6666666666667</ele><time>2026-04-25T10:33:35.999Z</time></trkpt><trkpt lat="44.958211990726355" lon="5.713070822937423"><ele>737.3333333333334</ele><time>2026-04-25T10:33:36.999Z</time></trkpt><trkpt lat="44.95833180487991" lon="5.713235989608935"><ele>735.0</ele><time>2026-04-25T10:33:37.999Z</time></trkpt><trkpt lat="44.958483930263995" lon="5.713365257900618"><ele>740.6666666666666</ele><time>2026-04-25T10:33:38.999Z</time></trkpt><trkpt lat="44.958664879461054" lon="5.713513013292363"><ele>746.3333333333333</ele><time>2026-04-25T10:33:39.999Z</time></trkpt><trkpt lat="44.958820873426625" lon="5.71373782696793"><ele>752.0</ele><time>2026-04-25T10:33:40.999Z</time></trkpt><trkpt lat="44.95895838829749" lon="5.7139628701513345"><ele>752.0</ele><time>2026-04-25T10:33:41.999Z</time></trkpt><trkpt lat="44.95905841423712" lon="5.71417096752229"><ele>752.0</ele><time>2026-04-25T10:33:42.999Z</time></trkpt><trkpt lat="44.95916198616139" lon="5.714343321033662"><ele>752.0</ele><time>2026-04-25T10:33:43.999Z</time></trkpt><trkpt lat="44.959243510533206" lon="5.714542299542252"><ele>760.3333333333333</ele><time>2026-04-25T10:33:44.999Z</time></trkpt><trkpt lat="44.9592981895591" lon="5.714754300592915"><ele>768.6666666666666</ele><time>2026-04-25T10:33:45.999Z</time></trkpt><trkpt lat="44.95936451482085" lon="5.714956215712294"><ele>777.0</ele><time>2026-04-25T10:33:46.998Z</time></trkpt><trkpt lat="44.959417137956294" lon="5.715155052231326"><ele>778.25</ele><time>2026-04-25T10:33:47.998Z</time></trkpt><trkpt lat="44.959436336458445" lon="5.7153554574666785"><ele>779.5</ele><time>2026-04-25T10:33:48.998Z</time></trkpt><trkpt lat="44.959406166228206" lon="5.715554065544822"><ele>780.75</ele><time>2026-04-25T10:33:49.998Z</time></trkpt><trkpt lat="44.959331521578925" lon="5.715726904216258"><ele>782.0</ele><time>2026-04-25T10:33:50.998Z</time></trkpt><trkpt lat="44.95930665130209" lon="5.715881567299128"><ele>782.0</ele><time>2026-04-25T10:33:51.998Z</time></trkpt><trkpt lat="44.959313301107834" lon="5.716012658320502"><ele>782.0</ele><time>2026-04-25T10:33:52.998Z</time></trkpt><trkpt lat="44.959382185366465" lon="5.7161502420583075"><ele>782.0</ele><time>2026-04-25T10:33:53.998Z</time></trkpt><trkpt lat="44.95950741494985" lon="5.716248842199713"><ele>782.0</ele><time>2026-04-25T10:33:54.998Z</time></trkpt><trkpt lat="44.9596579509496" lon="5.71628783051949"><ele>780.25</ele><time>2026-04-25T10:33:55.998Z</time></trkpt><trkpt lat="44.95979334250041" lon="5.716324877215655"><ele>778.5</ele><time>2026-04-25T10:33:56.998Z</time></trkpt><trkpt lat="44.959836761359476" lon="5.716500355046324"><ele>776.75</ele><time>2026-04-25T10:33:57.998Z</time></trkpt><trkpt lat="44.9598996319681" lon="5.716702407747567"><ele>775.0</ele><time>2026-04-25T10:33:58.998Z</time></trkpt><trkpt lat="44.95998519709901" lon="5.71685792190861"><ele>776.8</ele><time>2026-04-25T10:33:59.998Z</time></trkpt><trkpt lat="44.96006733512577" lon="5.71699586202735"><ele>778.6</ele><time>2026-04-25T10:34:00.998Z</time></trkpt><trkpt lat="44.960113432899554" lon="5.7171168414137306"><ele>780.4000000000001</ele><time>2026-04-25T10:34:01.998Z</time></trkpt><trkpt lat="44.96014355381535" lon="5.717223803185192"><ele>782.2</ele><time>2026-04-25T10:34:02.998Z</time></trkpt><trkpt lat="44.96019862811254" lon="5.717280191652132"><ele>784.0</ele><time>2026-04-25T10:34:03.998Z</time></trkpt><trkpt lat="44.96027236198932" lon="5.717254126192589"><ele>784.0</ele><time>2026-04-25T10:34:04.998Z</time></trkpt><trkpt lat="44.96029215766522" lon="5.717040685206609"><ele>784.0</ele><time>2026-04-25T10:34:07Z</time></trkpt><trkpt lat="44.960169764184485" lon="5.716903928428357"><ele>784.0</ele><time>2026-04-25T10:34:08Z</time></trkpt><trkpt lat="44.960104905350626" lon="5.716734443465448"><ele>784.0</ele><time>2026-04-25T10:34:09Z</time></trkpt><trkpt lat="44.960056997751614" lon="5.716546683414213"><ele>783.5</ele><time>2026-04-25T10:34:10Z</time></trkpt><trkpt lat="44.96000835743803" lon="5.716330300572607"><ele>783.0</ele><time>2026-04-25T10:34:11Z</time></trkpt><trkpt lat="44.95997354150401" lon="5.716143591333545"><ele>782.5</ele><time>2026-04-25T10:34:12Z</time></trkpt><trkpt lat="44.959915171638606" lon="5.715961269795022"><ele>782.0</ele><time>2026-04-25T10:34:13Z</time></trkpt><trkpt lat="44.95987127558901" lon="5.715805041490004"><ele>782.0</ele><time>2026-04-25T10:34:14Z</time></trkpt><trkpt lat="44.95987048516687" lon="5.715648708049069"><ele>782.0</ele><time>2026-04-25T10:34:15Z</time></trkpt><trkpt lat="44.959915993444156" lon="5.715490219978866"><ele>782.0</ele><time>2026-04-25T10:34:16Z</time></trkpt><trkpt lat="44.96000844730433" lon="5.7153154363633565"><ele>782.0</ele><time>2026-04-25T10:34:17Z</time></trkpt><trkpt lat="44.96008155542673" lon="5.715196025764694"><ele>793.3333333333334</ele><time>2026-04-25T10:34:18Z</time></trkpt><trkpt lat="44.96021232821609" lon="5.715033112627057"><ele>804.6666666666667</ele><time>2026-04-25T10:34:19Z</time></trkpt><trkpt lat="44.960364872542065" lon="5.714845724318071"><ele>816.0</ele><time>2026-04-25T10:34:20Z</time></trkpt><trkpt lat="44.96049411217709" lon="5.71462364948474"><ele>816.0</ele><time>2026-04-25T10:34:21Z</time></trkpt><trkpt lat="44.96061703833382" lon="5.714415640367582"><ele>816.0</ele><time>2026-04-25T10:34:22Z</time></trkpt><trkpt lat="44.96071564627986" lon="5.714202478834615"><ele>816.0</ele><time>2026-04-25T10:34:23Z</time></trkpt><trkpt lat="44.96074699499726" lon="5.713958005576608"><ele>811.6666666666667</ele><time>2026-04-25T10:34:24Z</time></trkpt><trkpt lat="44.960795976468916" lon="5.71371055786256"><ele>807.3333333333334</ele><time>2026-04-25T10:34:25Z</time></trkpt><trkpt lat="44.96080708759009" lon="5.713450463182048"><ele>803.0</ele><time>2026-04-25T10:34:26Z</time></trkpt><trkpt lat="44.96080049964765" lon="5.713195384548083"><ele>802.6666666666667</ele><time>2026-04-25T10:34:27Z</time></trkpt><trkpt lat="44.960796524093986" lon="5.712933733688186"><ele>802.3333333333333</ele><time>2026-04-25T10:34:28Z</time></trkpt><trkpt lat="44.96082903424298" lon="5.712656821475975"><ele>802.0</ele><time>2026-04-25T10:34:29Z</time></trkpt><trkpt lat="44.96088082611734" lon="5.712363032443844"><ele>819.0</ele><time>2026-04-25T10:34:30Z</time></trkpt><trkpt lat="44.96097389230651" lon="5.712053671216698"><ele>836.0</ele><time>2026-04-25T10:34:31Z</time></trkpt><trkpt lat="44.96104518387247" lon="5.71172630556717"><ele>836.0</ele><time>2026-04-25T10:34:32Z</time></trkpt><trkpt lat="44.96111726595685" lon="5.711413788606488"><ele>836.0</ele><time>2026-04-25T10:34:33Z</time></trkpt><trkpt lat="44.96115685351929" lon="5.7110903627535965"><ele>838.0</ele><time>2026-04-25T10:34:34Z</time></trkpt><trkpt lat="44.96116612347858" lon="5.7107551936299865"><ele>840.0</ele><time>2026-04-25T10:34:35Z</time></trkpt><trkpt lat="44.961164982858" lon="5.710433523303804"><ele>840.3333333333333</ele><time>2026-04-25T10:34:36Z</time></trkpt><trkpt lat="44.96118441737562" lon="5.710129957640094"><ele>840.6666666666666</ele><time>2026-04-25T10:34:37Z</time></trkpt><trkpt lat="44.961198150102895" lon="5.709841658449872"><ele>841.0</ele><time>2026-04-25T10:34:38Z</time></trkpt><trkpt lat="44.961176081529956" lon="5.709551756253393"><ele>843.3333333333333</ele><time>2026-04-25T10:34:39Z</time></trkpt><trkpt lat="44.96113764247286" lon="5.709261548989802"><ele>845.6666666666667</ele><time>2026-04-25T10:34:40Z</time></trkpt><trkpt lat="44.96107101217905" lon="5.708976724593536"><ele>848.0</ele><time>2026-04-25T10:34:41Z</time></trkpt><trkpt lat="44.961023892877805" lon="5.708707206970644"><ele>851.0</ele><time>2026-04-25T10:34:42Z</time></trkpt><trkpt lat="44.96098404046493" lon="5.708448344296999"><ele>854.0</ele><time>2026-04-25T10:34:43Z</time></trkpt><trkpt lat="44.960957842404106" lon="5.70818972684134"><ele>857.0</ele><time>2026-04-25T10:34:44Z</time></trkpt><trkpt lat="44.96095121296796" lon="5.707936634391466"><ele>859.3333333333334</ele><time>2026-04-25T10:34:45Z</time></trkpt><trkpt lat="44.960952946483005" lon="5.707680521210885"><ele>861.6666666666667</ele><time>2026-04-25T10:34:46Z</time></trkpt><trkpt lat="44.960955426346416" lon="5.707431763890521"><ele>864.0</ele><time>2026-04-25T10:34:47Z</time></trkpt><trkpt lat="44.96095441182647" lon="5.707184503657037"><ele>864.0</ele><time>2026-04-25T10:34:48Z</time></trkpt><trkpt lat="44.960947005938124" lon="5.706946148223078"><ele>864.0</ele><time>2026-04-25T10:34:49Z</time></trkpt><trkpt lat="44.960938285156764" lon="5.706707269355391"><ele>864.0</ele><time>2026-04-25T10:34:49.999Z</time></trkpt><trkpt lat="44.960929196537116" lon="5.70647035293291"><ele>864.3333333333333</ele><time>2026-04-25T10:34:50.999Z</time></trkpt><trkpt lat="44.960932011412915" lon="5.706221906298988"><ele>864.6666666666666</ele><time>2026-04-25T10:34:51.999Z</time></trkpt><trkpt lat="44.96095734299497" lon="5.705943758969597"><ele>865.0</ele><time>2026-04-25T10:34:52.999Z</time></trkpt><trkpt lat="44.96099831907328" lon="5.705656905764583"><ele>864.3333333333333</ele><time>2026-04-25T10:34:53.999Z</time></trkpt><trkpt lat="44.96103320293204" lon="5.7053744728552696"><ele>863.6666666666667</ele><time>2026-04-25T10:34:54.999Z</time></trkpt><trkpt lat="44.96104612415988" lon="5.705095981858052"><ele>863.0</ele><time>2026-04-25T10:34:55.999Z</time></trkpt><trkpt lat="44.961044909794865" lon="5.704846691536895"><ele>862.4</ele><time>2026-04-25T10:34:56.999Z</time></trkpt><trkpt lat="44.96105100598181" lon="5.704646468424602"><ele>861.8</ele><time>2026-04-25T10:34:57.999Z</time></trkpt><trkpt lat="44.96107927430585" lon="5.704474855607168"><ele>861.2</ele><time>2026-04-25T10:34:58.999Z</time></trkpt><trkpt lat="44.96110202900186" lon="5.704347835292317"><ele>860.6</ele><time>2026-04-25T10:34:59.999Z</time></trkpt><trkpt lat="44.96116309294775" lon="5.704269762209024"><ele>860.0</ele><time>2026-04-25T10:35:00.999Z</time></trkpt><trkpt lat="44.96123556723169" lon="5.704227620448912"><ele>857.3333333333334</ele><time>2026-04-25T10:35:01.999Z</time></trkpt><trkpt lat="44.96131560434608" lon="5.704223679694817"><ele>854.6666666666667</ele><time>2026-04-25T10:35:02.999Z</time></trkpt><trkpt lat="44.96139430696056" lon="5.704227380919214"><ele>852.0</ele><time>2026-04-25T10:35:03.999Z</time></trkpt><trkpt lat="44.961475805371805" lon="5.704233602945823"><ele>849.3333333333333</ele><time>2026-04-25T10:35:04.999Z</time></trkpt><trkpt lat="44.961543800853086" lon="5.704240554039502"><ele>846.6666666666666</ele><time>2026-04-25T10:35:05.999Z</time></trkpt><trkpt lat="44.96161055215465" lon="5.704307713804457"><ele>844.0</ele><time>2026-04-25T10:35:07.999Z</time></trkpt><trkpt lat="44.961708109481265" lon="5.704380124392161"><ele>844.0</ele><time>2026-04-25T10:35:15.999Z</time></trkpt><trkpt lat="44.96180102571614" lon="5.704383088892662"><ele>844.0</ele><time>2026-04-25T10:35:16.999Z</time></trkpt><trkpt lat="44.96194087470206" lon="5.704356915087084"><ele>844.0</ele><time>2026-04-25T10:35:17.999Z</time></trkpt><trkpt lat="44.96211437365385" lon="5.704353521514217"><ele>844.0</ele><time>2026-04-25T10:35:18.999Z</time></trkpt><trkpt lat="44.96228482332557" lon="5.704341252979462"><ele>844.0</ele><time>2026-04-25T10:35:19.999Z</time></trkpt><trkpt lat="44.96244825363754" lon="5.704316027329879"><ele>844.0</ele><time>2026-04-25T10:35:20.999Z</time></trkpt><trkpt lat="44.962622846277625" lon="5.704281663398733"><ele>844.0</ele><time>2026-04-25T10:35:21.999Z</time></trkpt><trkpt lat="44.96279890523265" lon="5.704231418455308"><ele>846.0</ele><time>2026-04-25T10:35:22.999Z</time></trkpt><trkpt lat="44.962969125761" lon="5.704179469497948"><ele>848.0</ele><time>2026-04-25T10:35:23.999Z</time></trkpt><trkpt lat="44.96313672878472" lon="5.704120916588719"><ele>850.0</ele><time>2026-04-25T10:35:24.999Z</time></trkpt><trkpt lat="44.963303104364705" lon="5.704051840462723"><ele>853.0</ele><time>2026-04-25T10:35:25.999Z</time></trkpt><trkpt lat="44.963469566479425" lon="5.70398121613259"><ele>856.0</ele><time>2026-04-25T10:35:26.999Z</time></trkpt><trkpt lat="44.96362793029711" lon="5.703900031545864"><ele>859.0</ele><time>2026-04-25T10:35:27.999Z</time></trkpt><trkpt lat="44.963768863088525" lon="5.703781136206229"><ele>859.0</ele><time>2026-04-25T10:35:28.999Z</time></trkpt><trkpt lat="44.96391184168632" lon="5.703656823898194"><ele>859.0</ele><time>2026-04-25T10:35:29.999Z</time></trkpt><trkpt lat="44.964060011269645" lon="5.703527277290666"><ele>859.0</ele><time>2026-04-25T10:35:30.999Z</time></trkpt><trkpt lat="44.964172442011495" lon="5.703380294262431"><ele>856.6666666666666</ele><time>2026-04-25T10:35:31.999Z</time></trkpt><trkpt lat="44.96429576079655" lon="5.70320641976901"><ele>854.3333333333333</ele><time>2026-04-25T10:35:32.999Z</time></trkpt><trkpt lat="44.96437956457926" lon="5.703023045665565"><ele>852.0</ele><time>2026-04-25T10:35:33.999Z</time></trkpt><trkpt lat="44.96445801187254" lon="5.702820800465689"><ele>851.25</ele><time>2026-04-25T10:35:34.999Z</time></trkpt><trkpt lat="44.96452521906035" lon="5.702628638908768"><ele>850.5</ele><time>2026-04-25T10:35:35.999Z</time></trkpt><trkpt lat="44.96458220820208" lon="5.702449067457275"><ele>849.75</ele><time>2026-04-25T10:35:36.999Z</time></trkpt><trkpt lat="44.964632961267796" lon="5.70227155389716"><ele>849.0</ele><time>2026-04-25T10:35:37.999Z</time></trkpt><trkpt lat="44.96467760964044" lon="5.702099879763357"><ele>849.0</ele><time>2026-04-25T10:35:38.999Z</time></trkpt><trkpt lat="44.96472010681717" lon="5.701941853890242"><ele>849.0</ele><time>2026-04-25T10:35:39.999Z</time></trkpt><trkpt lat="44.96475932393002" lon="5.701801459035533"><ele>849.0</ele><time>2026-04-25T10:35:40.999Z</time></trkpt><trkpt lat="44.964800647436626" lon="5.701671161204922"><ele>849.0</ele><time>2026-04-25T10:35:41.999Z</time></trkpt><trkpt lat="44.964839935413885" lon="5.701552867149858"><ele>849.0</ele><time>2026-04-25T10:35:42.999Z</time></trkpt><trkpt lat="44.9648754313512" lon="5.701435554507019"><ele>848.0</ele><time>2026-04-25T10:35:43.999Z</time></trkpt><trkpt lat="44.96491081812724" lon="5.701316511783135"><ele>847.0</ele><time>2026-04-25T10:35:44.999Z</time></trkpt><trkpt lat="44.96494755080647" lon="5.701189372597658"><ele>846.0</ele><time>2026-04-25T10:35:45.999Z</time></trkpt><trkpt lat="44.964988879040305" lon="5.701057574654947"><ele>845.0</ele><time>2026-04-25T10:35:46.999Z</time></trkpt><trkpt lat="44.96502968440042" lon="5.700918793264958"><ele>844.0</ele><time>2026-04-25T10:35:47.999Z</time></trkpt><trkpt lat="44.96507625060478" lon="5.700778748590963"><ele>843.4000000000001</ele><time>2026-04-25T10:35:48.999Z</time></trkpt><trkpt lat="44.96513940219603" lon="5.7006564905091865"><ele>842.8</ele><time>2026-04-25T10:35:49.998Z</time></trkpt><trkpt lat="44.96522041921932" lon="5.700567120662648"><ele>842.2</ele><time>2026-04-25T10:35:50.998Z</time></trkpt><trkpt lat="44.965308218421875" lon="5.700512472066821"><ele>841.5999999999999</ele><time>2026-04-25T10:35:51.998Z</time></trkpt><trkpt lat="44.965411128703145" lon="5.700497744848985"><ele>841.0</ele><time>2026-04-25T10:35:52.998Z</time></trkpt><trkpt lat="44.96552841283814" lon="5.700511461134429"><ele>841.0</ele><time>2026-04-25T10:35:53.998Z</time></trkpt><trkpt lat="44.96564905978218" lon="5.700540749205135"><ele>841.0</ele><time>2026-04-25T10:35:54.998Z</time></trkpt><trkpt lat="44.96576428174202" lon="5.700580896339964"><ele>841.0</ele><time>2026-04-25T10:35:55.998Z</time></trkpt><trkpt lat="44.9658803377804" lon="5.700624551552842"><ele>841.0</ele><time>2026-04-25T10:35:56.998Z</time></trkpt><trkpt lat="44.96599579555864" lon="5.70067734988165"><ele>839.75</ele><time>2026-04-25T10:35:57.998Z</time></trkpt><trkpt lat="44.96610761102751" lon="5.7007409543456795"><ele>838.5</ele><time>2026-04-25T10:35:58.998Z</time></trkpt><trkpt lat="44.966203755258945" lon="5.70084177952153"><ele>837.25</ele><time>2026-04-25T10:35:59.998Z</time></trkpt><trkpt lat="44.96631202272205" lon="5.7009296024786025"><ele>836.0</ele><time>2026-04-25T10:36:00.998Z</time></trkpt><trkpt lat="44.96641895380236" lon="5.701038850229123"><ele>836.5</ele><time>2026-04-25T10:36:01.998Z</time></trkpt><trkpt lat="44.966527936011495" lon="5.70114038328396"><ele>837.0</ele><time>2026-04-25T10:36:02.998Z</time></trkpt><trkpt lat="44.966634833794814" lon="5.701239883667057"><ele>837.5</ele><time>2026-04-25T10:36:03.998Z</time></trkpt><trkpt lat="44.966742402073606" lon="5.701331866434642"><ele>838.0</ele><time>2026-04-25T10:36:04.998Z</time></trkpt><trkpt lat="44.96685496019047" lon="5.701434088268748"><ele>836.25</ele><time>2026-04-25T10:36:05.998Z</time></trkpt><trkpt lat="44.96696739640103" lon="5.7015325868498135"><ele>834.5</ele><time>2026-04-25T10:36:06.998Z</time></trkpt><trkpt lat="44.967080871339896" lon="5.701634180856014"><ele>832.75</ele><time>2026-04-25T10:36:07.998Z</time></trkpt><trkpt lat="44.967201318700276" lon="5.701741504184041"><ele>831.0</ele><time>2026-04-25T10:36:08.998Z</time></trkpt><trkpt lat="44.96732097528503" lon="5.701850894963966"><ele>831.5</ele><time>2026-04-25T10:36:09.998Z</time></trkpt><trkpt lat="44.96744004233038" lon="5.701959013758637"><ele>832.0</ele><time>2026-04-25T10:36:10.998Z</time></trkpt><trkpt lat="44.96756041368932" lon="5.702068962129123"><ele>832.5</ele><time>2026-04-25T10:36:12Z</time></trkpt><trkpt lat="44.96768228132541" lon="5.702178430811499"><ele>833.0</ele><time>2026-04-25T10:36:13Z</time></trkpt><trkpt lat="44.96780651182257" lon="5.702291189709334"><ele>830.3333333333334</ele><time>2026-04-25T10:36:14Z</time></trkpt><trkpt lat="44.967934297681516" lon="5.7024036014362744"><ele>827.6666666666667</ele><time>2026-04-25T10:36:15Z</time></trkpt><trkpt lat="44.96806137332777" lon="5.7025166554121745"><ele>825.0</ele><time>2026-04-25T10:36:16Z</time></trkpt><trkpt lat="44.96819163328641" lon="5.702633986200644"><ele>825.3333333333333</ele><time>2026-04-25T10:36:17Z</time></trkpt><trkpt lat="44.9683223161544" lon="5.702749689867474"><ele>825.6666666666666</ele><time>2026-04-25T10:36:18Z</time></trkpt><trkpt lat="44.96845647709893" lon="5.702863632613577"><ele>826.0</ele><time>2026-04-25T10:36:19Z</time></trkpt><trkpt lat="44.96858609219607" lon="5.702985199237314"><ele>824.0</ele><time>2026-04-25T10:36:20Z</time></trkpt><trkpt lat="44.96871084340501" lon="5.7030938256714006"><ele>822.0</ele><time>2026-04-25T10:36:21Z</time></trkpt><trkpt lat="44.96884310139419" lon="5.703204064301973"><ele>820.0</ele><time>2026-04-25T10:36:22Z</time></trkpt><trkpt lat="44.968975024728906" lon="5.703319326602477"><ele>820.0</ele><time>2026-04-25T10:36:23Z</time></trkpt><trkpt lat="44.96910442948496" lon="5.703437340752929"><ele>820.0</ele><time>2026-04-25T10:36:24Z</time></trkpt><trkpt lat="44.969223402646364" lon="5.703548400295601"><ele>820.0</ele><time>2026-04-25T10:36:25Z</time></trkpt><trkpt lat="44.96935049181776" lon="5.703658463140298"><ele>820.0</ele><time>2026-04-25T10:36:26Z</time></trkpt><trkpt lat="44.969485153312164" lon="5.703751702791209"><ele>818.6666666666666</ele><time>2026-04-25T10:36:27Z</time></trkpt><trkpt lat="44.96962864865114" lon="5.703818129520469"><ele>817.3333333333333</ele><time>2026-04-25T10:36:28Z</time></trkpt><trkpt lat="44.9697807308418" lon="5.703855918945686"><ele>816.0</ele><time>2026-04-25T10:36:29Z</time></trkpt><trkpt lat="44.96995138155664" lon="5.7038680974313785"><ele>814.0</ele><time>2026-04-25T10:36:30Z</time></trkpt><trkpt lat="44.97012640894366" lon="5.703861933912952"><ele>812.0</ele><time>2026-04-25T10:36:31Z</time></trkpt><trkpt lat="44.970295404011374" lon="5.7038571978987305"><ele>810.0</ele><time>2026-04-25T10:36:32Z</time></trkpt><trkpt lat="44.970474775867956" lon="5.70385551779508"><ele>810.0</ele><time>2026-04-25T10:36:33Z</time></trkpt><trkpt lat="44.970653405631474" lon="5.703854943916019"><ele>810.0</ele><time>2026-04-25T10:36:34Z</time></trkpt><trkpt lat="44.97084138183007" lon="5.703863807789938"><ele>810.0</ele><time>2026-04-25T10:36:35Z</time></trkpt><trkpt lat="44.97102191067013" lon="5.703866985170367"><ele>807.0</ele><time>2026-04-25T10:36:36Z</time></trkpt><trkpt lat="44.97119867550969" lon="5.703869298564644"><ele>804.0</ele><time>2026-04-25T10:36:37Z</time></trkpt><trkpt lat="44.971366870613494" lon="5.703877498087997"><ele>801.0</ele><time>2026-04-25T10:36:38Z</time></trkpt><trkpt lat="44.97153653028445" lon="5.703884581305243"><ele>799.0</ele><time>2026-04-25T10:36:39Z</time></trkpt><trkpt lat="44.971703308992126" lon="5.703889497731756"><ele>797.0</ele><time>2026-04-25T10:36:40Z</time></trkpt><trkpt lat="44.971857449855655" lon="5.703892495015404"><ele>795.0</ele><time>2026-04-25T10:36:41Z</time></trkpt><trkpt lat="44.972009014166076" lon="5.703896313557871"><ele>795.0</ele><time>2026-04-25T10:36:42Z</time></trkpt><trkpt lat="44.972159718053376" lon="5.703896935389991"><ele>795.0</ele><time>2026-04-25T10:36:43Z</time></trkpt><trkpt lat="44.97230191754463" lon="5.703896485270752"><ele>795.0</ele><time>2026-04-25T10:36:44Z</time></trkpt><trkpt lat="44.97244375677797" lon="5.703894120473949"><ele>795.0</ele><time>2026-04-25T10:36:45Z</time></trkpt><trkpt lat="44.9725835919398" lon="5.7038954336866405"><ele>795.25</ele><time>2026-04-25T10:36:46Z</time></trkpt><trkpt lat="44.97272260889431" lon="5.703902445835363"><ele>795.5</ele><time>2026-04-25T10:36:47Z</time></trkpt><trkpt lat="44.972845562681435" lon="5.703906836541822"><ele>795.75</ele><time>2026-04-25T10:36:48Z</time></trkpt><trkpt lat="44.97296922375712" lon="5.703911943280716"><ele>796.0</ele><time>2026-04-25T10:36:49Z</time></trkpt><trkpt lat="44.97308951746461" lon="5.703914818824196"><ele>796.0</ele><time>2026-04-25T10:36:50Z</time></trkpt><trkpt lat="44.97321105986931" lon="5.7039196427478664"><ele>796.0</ele><time>2026-04-25T10:36:51Z</time></trkpt><trkpt lat="44.973323470408246" lon="5.703925682636533"><ele>796.0</ele><time>2026-04-25T10:36:52Z</time></trkpt><trkpt lat="44.97343470486098" lon="5.703934281710341"><ele>796.0</ele><time>2026-04-25T10:36:53Z</time></trkpt><trkpt lat="44.97353970253607" lon="5.703933995334761"><ele>794.5999999999999</ele><time>2026-04-25T10:36:54Z</time></trkpt><trkpt lat="44.97364411642408" lon="5.703942375434973"><ele>793.2</ele><time>2026-04-25T10:36:54.999Z</time></trkpt><trkpt lat="44.97373382483178" lon="5.703941264690113"><ele>791.8</ele><time>2026-04-25T10:36:55.999Z</time></trkpt><trkpt lat="44.97382974285047" lon="5.7039406728451665"><ele>790.4000000000001</ele><time>2026-04-25T10:36:56.999Z</time></trkpt><trkpt lat="44.97391977510349" lon="5.703941071409932"><ele>789.0</ele><time>2026-04-25T10:36:57.999Z</time></trkpt><trkpt lat="44.974010636348865" lon="5.70394014687583"><ele>789.0</ele><time>2026-04-25T10:36:58.999Z</time></trkpt><trkpt lat="44.97409394017413" lon="5.703950083307848"><ele>789.0</ele><time>2026-04-25T10:36:59.999Z</time></trkpt><trkpt lat="44.97417042055261" lon="5.703937137885487"><ele>789.0</ele><time>2026-04-25T10:37:00.999Z</time></trkpt><trkpt lat="44.97424616867081" lon="5.703942420750354"><ele>789.0</ele><time>2026-04-25T10:37:01.999Z</time></trkpt><trkpt lat="44.97432931802616" lon="5.703944658301582"><ele>789.0</ele><time>2026-04-25T10:37:02.999Z</time></trkpt><trkpt lat="44.97441297250176" lon="5.703952363591469"><ele>789.0</ele><time>2026-04-25T10:37:03.999Z</time></trkpt><trkpt lat="44.97449691095166" lon="5.7039590888434235"><ele>787.4000000000001</ele><time>2026-04-25T10:37:04.999Z</time></trkpt><trkpt lat="44.974573941712485" lon="5.703961842994165"><ele>785.8</ele><time>2026-04-25T10:37:05.999Z</time></trkpt><trkpt lat="44.974658613375226" lon="5.7039744398822165"><ele>784.2</ele><time>2026-04-25T10:37:06.999Z</time></trkpt><trkpt lat="44.974756440744315" lon="5.703980879534471"><ele>782.5999999999999</ele><time>2026-04-25T10:37:07.999Z</time></trkpt><trkpt lat="44.9748613064309" lon="5.703979972471226"><ele>781.0</ele><time>2026-04-25T10:37:08.999Z</time></trkpt><trkpt lat="44.974958340007056" lon="5.703977511439061"><ele>780.6666666666666</ele><time>2026-04-25T10:37:09.999Z</time></trkpt><trkpt lat="44.97505359632983" lon="5.703976235699002"><ele>780.3333333333333</ele><time>2026-04-25T10:37:10.999Z</time></trkpt><trkpt lat="44.97513152409761" lon="5.703978780937336"><ele>780.0</ele><time>2026-04-25T10:37:11.999Z</time></trkpt><trkpt lat="44.97519986220136" lon="5.7039766014212905"><ele>779.6666666666667</ele><time>2026-04-25T10:37:12.999Z</time></trkpt><trkpt lat="44.97531925120996" lon="5.7039775468922365"><ele>779.3333333333334</ele><time>2026-04-25T10:37:14.999Z</time></trkpt><trkpt lat="44.97538407893021" lon="5.703983704874782"><ele>779.0</ele><time>2026-04-25T10:37:15.999Z</time></trkpt><trkpt lat="44.97545237464628" lon="5.703983565778416"><ele>779.0000000000001</ele><time>2026-04-25T10:37:16.999Z</time></trkpt><trkpt lat="44.975528018250785" lon="5.703983683263303"><ele>779.0</ele><time>2026-04-25T10:37:17.999Z</time></trkpt><trkpt lat="44.9755959334691" lon="5.703982197052399"><ele>779.0</ele><time>2026-04-25T10:37:18.999Z</time></trkpt><trkpt lat="44.97566327729369" lon="5.703985876196302"><ele>779.0</ele><time>2026-04-25T10:37:19.999Z</time></trkpt><trkpt lat="44.97573766534758" lon="5.703993415061792"><ele>779.0000000000001</ele><time>2026-04-25T10:37:20.999Z</time></trkpt><trkpt lat="44.97581810434103" lon="5.703992749232268"><ele>779.0</ele><time>2026-04-25T10:37:21.999Z</time></trkpt><trkpt lat="44.9759151844284" lon="5.703995127367044"><ele>778.0</ele><time>2026-04-25T10:37:22.999Z</time></trkpt><trkpt lat="44.976023104634365" lon="5.703993603316951"><ele>777.0</ele><time>2026-04-25T10:37:23.999Z</time></trkpt><trkpt lat="44.97613228344588" lon="5.703985941044475"><ele>776.0</ele><time>2026-04-25T10:37:24.999Z</time></trkpt><trkpt lat="44.97624291642004" lon="5.703976830737448"><ele>775.0</ele><time>2026-04-25T10:37:25.999Z</time></trkpt><trkpt lat="44.976359228118454" lon="5.703971843252229"><ele>774.0</ele><time>2026-04-25T10:37:26.999Z</time></trkpt><trkpt lat="44.976477151185925" lon="5.703957562506151"><ele>774.0</ele><time>2026-04-25T10:37:27.999Z</time></trkpt><trkpt lat="44.97659417165942" lon="5.703945876945043"><ele>774.0</ele><time>2026-04-25T10:37:28.999Z</time></trkpt><trkpt lat="44.97670061663506" lon="5.703931466632007"><ele>774.0</ele><time>2026-04-25T10:37:29.999Z</time></trkpt><trkpt lat="44.97680055534517" lon="5.70391269796413"><ele>774.0</ele><time>2026-04-25T10:37:30.999Z</time></trkpt><trkpt lat="44.97689971790724" lon="5.703902269509672"><ele>774.0</ele><time>2026-04-25T10:37:31.999Z</time></trkpt><trkpt lat="44.97699633175569" lon="5.703896464211588"><ele>773.0</ele><time>2026-04-25T10:37:32.999Z</time></trkpt><trkpt lat="44.97708598411287" lon="5.703893016827029"><ele>772.0</ele><time>2026-04-25T10:37:33.999Z</time></trkpt><trkpt lat="44.97716264843685" lon="5.703884352857574"><ele>771.0</ele><time>2026-04-25T10:37:34.999Z</time></trkpt><trkpt lat="44.97723281879606" lon="5.70386992957183"><ele>770.0</ele><time>2026-04-25T10:37:35.999Z</time></trkpt><trkpt lat="44.97731284817337" lon="5.703858720684664"><ele>769.0</ele><time>2026-04-25T10:37:36.999Z</time></trkpt><trkpt lat="44.97739846568754" lon="5.703850042214558"><ele>768.0</ele><time>2026-04-25T10:37:37.999Z</time></trkpt><trkpt lat="44.97748845300265" lon="5.703838363416358"><ele>767.5</ele><time>2026-04-25T10:37:38.999Z</time></trkpt><trkpt lat="44.97759761924642" lon="5.703820067324689"><ele>767.0</ele><time>2026-04-25T10:37:39.999Z</time></trkpt><trkpt lat="44.9777345788316" lon="5.703798362245927"><ele>766.5</ele><time>2026-04-25T10:37:40.999Z</time></trkpt><trkpt lat="44.977904338649" lon="5.703772800792727"><ele>766.0</ele><time>2026-04-25T10:37:41.999Z</time></trkpt><trkpt lat="44.97808973620081" lon="5.703761598845127"><ele>766.0</ele><time>2026-04-25T10:37:42.999Z</time></trkpt><trkpt lat="44.97828756832463" lon="5.70374595644009"><ele>766.0</ele><time>2026-04-25T10:37:43.999Z</time></trkpt><trkpt lat="44.978473108574306" lon="5.703739756635459"><ele>766.0</ele><time>2026-04-25T10:37:44.999Z</time></trkpt><trkpt lat="44.97864328382282" lon="5.703756161506415"><ele>764.6666666666667</ele><time>2026-04-25T10:37:45.999Z</time></trkpt><trkpt lat="44.97879614577447" lon="5.7037831162050505"><ele>763.3333333333334</ele><time>2026-04-25T10:37:46.999Z</time></trkpt><trkpt lat="44.97894700809592" lon="5.703789103605512"><ele>762.0</ele><time>2026-04-25T10:37:47.999Z</time></trkpt><trkpt lat="44.979099797032056" lon="5.703801493041537"><ele>762.0</ele><time>2026-04-25T10:37:48.999Z</time></trkpt><trkpt lat="44.97947934651225" lon="5.703736003640291"><ele>762.0</ele><time>2026-04-25T10:37:49.999Z</time></trkpt><trkpt lat="44.97966306871406" lon="5.703662423209964"><ele>762.0</ele><time>2026-04-25T10:37:50.999Z</time></trkpt><trkpt lat="44.97982806929254" lon="5.703589916419991"><ele>762.0</ele><time>2026-04-25T10:37:51.999Z</time></trkpt><trkpt lat="44.97998674437704" lon="5.703527362125561"><ele>762.0</ele><time>2026-04-25T10:37:52.999Z</time></trkpt><trkpt lat="44.980137942628055" lon="5.703498112803144"><ele>758.0</ele><time>2026-04-25T10:37:53.999Z</time></trkpt><trkpt lat="44.98027414965021" lon="5.703480455223117"><ele>754.0</ele><time>2026-04-25T10:37:54.999Z</time></trkpt><trkpt lat="44.9803927508345" lon="5.703488690945154"><ele>750.0</ele><time>2026-04-25T10:37:55.998Z</time></trkpt><trkpt lat="44.98050426442438" lon="5.703520740377017"><ele>746.0</ele><time>2026-04-25T10:37:56.998Z</time></trkpt><trkpt lat="44.980592215096834" lon="5.703525436634716"><ele>746.0</ele><time>2026-04-25T10:37:57.998Z</time></trkpt><trkpt lat="44.98068499587951" lon="5.703545630110003"><ele>746.0</ele><time>2026-04-25T10:37:58.998Z</time></trkpt><trkpt lat="44.98077455944107" lon="5.703557293616877"><ele>746.0</ele><time>2026-04-25T10:37:59.998Z</time></trkpt><trkpt lat="44.98087037180433" lon="5.703561536195028"><ele>746.0</ele><time>2026-04-25T10:38:00.998Z</time></trkpt><trkpt lat="44.980988705749965" lon="5.703539129114484"><ele>746.0</ele><time>2026-04-25T10:38:01.998Z</time></trkpt><trkpt lat="44.98110255447604" lon="5.7034082231516665"><ele>746.5</ele><time>2026-04-25T10:38:02.998Z</time></trkpt><trkpt lat="44.98123282809413" lon="5.703353126905363"><ele>747.0</ele><time>2026-04-25T10:38:03.998Z</time></trkpt><trkpt lat="44.98134849718086" lon="5.70329484662475"><ele>747.5</ele><time>2026-04-25T10:38:04.998Z</time></trkpt><trkpt lat="44.98146788581041" lon="5.70324487274724"><ele>748.0</ele><time>2026-04-25T10:38:05.998Z</time></trkpt><trkpt lat="44.98159967904188" lon="5.703183360814686"><ele>747.5</ele><time>2026-04-25T10:38:06.998Z</time></trkpt><trkpt lat="44.98173038438766" lon="5.7031261092846055"><ele>747.0</ele><time>2026-04-25T10:38:07.998Z</time></trkpt><trkpt lat="44.98186132871001" lon="5.703071608621835"><ele>746.5</ele><time>2026-04-25T10:38:08.998Z</time></trkpt><trkpt lat="44.98199341121136" lon="5.703012359849316"><ele>746.0</ele><time>2026-04-25T10:38:09.998Z</time></trkpt><trkpt lat="44.98213483278112" lon="5.70295678589827"><ele>746.0</ele><time>2026-04-25T10:38:10.998Z</time></trkpt><trkpt lat="44.98227307927436" lon="5.702897436141448"><ele>746.0</ele><time>2026-04-25T10:38:11.998Z</time></trkpt><trkpt lat="44.982416564175246" lon="5.702868301347249"><ele>746.0</ele><time>2026-04-25T10:38:12.998Z</time></trkpt><trkpt lat="44.98256755397383" lon="5.702898029792774"><ele>746.0</ele><time>2026-04-25T10:38:13.998Z</time></trkpt><trkpt lat="44.982721056544925" lon="5.702965281405712"><ele>747.3333333333333</ele><time>2026-04-25T10:38:14.998Z</time></trkpt><trkpt lat="44.98286461291153" lon="5.703007619233423"><ele>748.6666666666666</ele><time>2026-04-25T10:38:15.998Z</time></trkpt><trkpt lat="44.983020042551644" lon="5.70300728890802"><ele>750.0</ele><time>2026-04-25T10:38:16.998Z</time></trkpt><trkpt lat="44.98316809827398" lon="5.702955084363752"><ele>750.0</ele><time>2026-04-25T10:38:18Z</time></trkpt><trkpt lat="44.9833064738015" lon="5.702873708728775"><ele>750.0</ele><time>2026-04-25T10:38:19Z</time></trkpt><trkpt lat="44.98343937621651" lon="5.702786442952509"><ele>750.0</ele><time>2026-04-25T10:38:20Z</time></trkpt><trkpt lat="44.98357436103271" lon="5.702716158632678"><ele>750.0</ele><time>2026-04-25T10:38:21Z</time></trkpt><trkpt lat="44.983702837420445" lon="5.702629452278623"><ele>745.3333333333334</ele><time>2026-04-25T10:38:22Z</time></trkpt><trkpt lat="44.98383184707939" lon="5.702507264459175"><ele>740.6666666666667</ele><time>2026-04-25T10:38:23Z</time></trkpt><trkpt lat="44.983942672628224" lon="5.70234866275103"><ele>736.0</ele><time>2026-04-25T10:38:24Z</time></trkpt><trkpt lat="44.98405541337006" lon="5.70218186002862"><ele>740.3333333333334</ele><time>2026-04-25T10:38:25Z</time></trkpt><trkpt lat="44.98418791824759" lon="5.702050993264176"><ele>744.6666666666666</ele><time>2026-04-25T10:38:26Z</time></trkpt><trkpt lat="44.98435448291632" lon="5.701976377704249"><ele>749.0</ele><time>2026-04-25T10:38:27Z</time></trkpt><trkpt lat="44.98457388981423" lon="5.701921156647277"><ele>738.0</ele><time>2026-04-25T10:38:28Z</time></trkpt><trkpt lat="44.98481851971397" lon="5.701838115725143"><ele>727.0</ele><time>2026-04-25T10:38:29Z</time></trkpt><trkpt lat="44.98506938996015" lon="5.701711853208028"><ele>727.0</ele><time>2026-04-25T10:38:30Z</time></trkpt><trkpt lat="44.98532651594491" lon="5.70162034195278"><ele>727.0</ele><time>2026-04-25T10:38:31Z</time></trkpt><trkpt lat="44.985547227801554" lon="5.701523687230862"><ele>727.0</ele><time>2026-04-25T10:38:32Z</time></trkpt><trkpt lat="44.98576740242345" lon="5.7014249085326805"><ele>727.0</ele><time>2026-04-25T10:38:33Z</time></trkpt><trkpt lat="44.985971617043184" lon="5.70131012242824"><ele>722.6666666666667</ele><time>2026-04-25T10:38:34Z</time></trkpt><trkpt lat="44.98615481318097" lon="5.701140049950188"><ele>718.3333333333334</ele><time>2026-04-25T10:38:35Z</time></trkpt><trkpt lat="44.98632437174852" lon="5.7009472562580035"><ele>714.0</ele><time>2026-04-25T10:38:36Z</time></trkpt><trkpt lat="44.98647063056358" lon="5.70072978692207"><ele>714.0</ele><time>2026-04-25T10:38:37Z</time></trkpt><trkpt lat="44.986587164870656" lon="5.700496316410391"><ele>714.0</ele><time>2026-04-25T10:38:38Z</time></trkpt><trkpt lat="44.98668578801231" lon="5.7002872097074615"><ele>714.0</ele><time>2026-04-25T10:38:39Z</time></trkpt><trkpt lat="44.98677507026142" lon="5.700086233560723"><ele>710.0</ele><time>2026-04-25T10:38:40Z</time></trkpt><trkpt lat="44.98686138824182" lon="5.699919658871552"><ele>706.0</ele><time>2026-04-25T10:38:41Z</time></trkpt><trkpt lat="44.98697554587381" lon="5.699803653741713"><ele>702.0</ele><time>2026-04-25T10:38:42Z</time></trkpt><trkpt lat="44.98711081043813" lon="5.699773860235837"><ele>698.0</ele><time>2026-04-25T10:38:43Z</time></trkpt><trkpt lat="44.987246834888246" lon="5.699840721305719"><ele>698.0</ele><time>2026-04-25T10:38:44Z</time></trkpt><trkpt lat="44.987396074700186" lon="5.699910153929426"><ele>698.0</ele><time>2026-04-25T10:38:45Z</time></trkpt><trkpt lat="44.98753600389289" lon="5.699924187168329"><ele>698.0</ele><time>2026-04-25T10:38:46Z</time></trkpt><trkpt lat="44.98767974521228" lon="5.699840460080382"><ele>695.6666666666666</ele><time>2026-04-25T10:38:47Z</time></trkpt><trkpt lat="44.98780402422821" lon="5.699687200747758"><ele>693.3333333333334</ele><time>2026-04-25T10:38:48Z</time></trkpt><trkpt lat="44.987895193528054" lon="5.699465031112605"><ele>691.0</ele><time>2026-04-25T10:38:49Z</time></trkpt><trkpt lat="44.987964724972606" lon="5.699214903584845"><ele>691.0</ele><time>2026-04-25T10:38:50Z</time></trkpt><trkpt lat="44.98805519601957" lon="5.698991288918516"><ele>691.0</ele><time>2026-04-25T10:38:51Z</time></trkpt><trkpt lat="44.98819949288383" lon="5.698817968711183"><ele>691.0</ele><time>2026-04-25T10:38:52Z</time></trkpt><trkpt lat="44.98840207157286" lon="5.6987202929327605"><ele>691.0</ele><time>2026-04-25T10:38:53Z</time></trkpt><trkpt lat="44.9886361735605" lon="5.698632030226877"><ele>691.0</ele><time>2026-04-25T10:38:54Z</time></trkpt><trkpt lat="44.98886391858333" lon="5.698561418368493"><ele>682.6666666666667</ele><time>2026-04-25T10:38:55Z</time></trkpt><trkpt lat="44.989068381270286" lon="5.698520408167388"><ele>674.3333333333334</ele><time>2026-04-25T10:38:56Z</time></trkpt><trkpt lat="44.98925755452371" lon="5.698504479520609"><ele>666.0</ele><time>2026-04-25T10:38:57Z</time></trkpt><trkpt lat="44.98942993276039" lon="5.698529874994449"><ele>666.6666666666666</ele><time>2026-04-25T10:38:58Z</time></trkpt><trkpt lat="44.989583664482694" lon="5.698627991587303"><ele>667.3333333333333</ele><time>2026-04-25T10:38:59Z</time></trkpt><trkpt lat="44.98973402658269" lon="5.698711652014544"><ele>668.0</ele><time>2026-04-25T10:38:59.999Z</time></trkpt><trkpt lat="44.9898211082906" lon="5.698969137595216"><ele>668.0</ele><time>2026-04-25T10:39:00.999Z</time></trkpt><trkpt lat="44.98976733570984" lon="5.699223593238998"><ele>668.0</ele><time>2026-04-25T10:39:01.999Z</time></trkpt><trkpt lat="44.98977891234187" lon="5.699436970202486"><ele>668.0</ele><time>2026-04-25T10:39:02.999Z</time></trkpt><trkpt lat="44.98984953859774" lon="5.699611910540394"><ele>673.75</ele><time>2026-04-25T10:39:03.999Z</time></trkpt><trkpt lat="44.989970354586696" lon="5.6997190354783545"><ele>679.5</ele><time>2026-04-25T10:39:04.999Z</time></trkpt><trkpt lat="44.99010376548316" lon="5.69974499875063"><ele>685.25</ele><time>2026-04-25T10:39:05.999Z</time></trkpt><trkpt lat="44.99022923491339" lon="5.699685254134893"><ele>691.0</ele><time>2026-04-25T10:39:06.999Z</time></trkpt><trkpt lat="44.9903510608747" lon="5.699611340940144"><ele>697.3333333333334</ele><time>2026-04-25T10:39:07.999Z</time></trkpt><trkpt lat="44.99047517701235" lon="5.699494263039845"><ele>703.6666666666666</ele><time>2026-04-25T10:39:08.999Z</time></trkpt><trkpt lat="44.990610129410406" lon="5.6993353005489285"><ele>710.0</ele><time>2026-04-25T10:39:09.999Z</time></trkpt><trkpt lat="44.99075032627349" lon="5.699157630798909"><ele>709.6666666666666</ele><time>2026-04-25T10:39:10.999Z</time></trkpt><trkpt lat="44.99088628360481" lon="5.698973252783491"><ele>709.3333333333334</ele><time>2026-04-25T10:39:11.999Z</time></trkpt><trkpt lat="44.99100143790131" lon="5.698770369465067"><ele>709.0</ele><time>2026-04-25T10:39:12.999Z</time></trkpt><trkpt lat="44.99109011750159" lon="5.698535356218643"><ele>697.0</ele><time>2026-04-25T10:39:13.999Z</time></trkpt><trkpt lat="44.99118042139155" lon="5.698319229924551"><ele>685.0</ele><time>2026-04-25T10:39:14.999Z</time></trkpt><trkpt lat="44.991324700897565" lon="5.698191274184256"><ele>673.0</ele><time>2026-04-25T10:39:15.999Z</time></trkpt><trkpt lat="44.991455597903915" lon="5.6980375271019055"><ele>673.0</ele><time>2026-04-25T10:39:16.999Z</time></trkpt><trkpt lat="44.99156021355471" lon="5.697859976146383"><ele>673.0</ele><time>2026-04-25T10:39:17.999Z</time></trkpt><trkpt lat="44.991643433580535" lon="5.6976678490720145"><ele>673.0</ele><time>2026-04-25T10:39:18.999Z</time></trkpt><trkpt lat="44.991750551921434" lon="5.697535118253228"><ele>665.3333333333334</ele><time>2026-04-25T10:39:19.999Z</time></trkpt><trkpt lat="44.991908698671935" lon="5.697487518013438"><ele>657.6666666666666</ele><time>2026-04-25T10:39:20.999Z</time></trkpt><trkpt lat="44.99209758975023" lon="5.697491181805074"><ele>650.0</ele><time>2026-04-25T10:39:21.999Z</time></trkpt><trkpt lat="44.99231165622462" lon="5.6974777852714364"><ele>647.6666666666666</ele><time>2026-04-25T10:39:22.999Z</time></trkpt><trkpt lat="44.99252833008155" lon="5.6974612280735"><ele>645.3333333333334</ele><time>2026-04-25T10:39:23.999Z</time></trkpt><trkpt lat="44.992746414341084" lon="5.697449987121567"><ele>643.0</ele><time>2026-04-25T10:39:24.999Z</time></trkpt><trkpt lat="44.99295937232689" lon="5.697511740808105"><ele>643.0</ele><time>2026-04-25T10:39:25.999Z</time></trkpt><trkpt lat="44.99316672270241" lon="5.697563796411114"><ele>643.0</ele><time>2026-04-25T10:39:26.999Z</time></trkpt><trkpt lat="44.993392869344525" lon="5.697573326410107"><ele>643.0</ele><time>2026-04-25T10:39:27.999Z</time></trkpt><trkpt lat="44.993629886343534" lon="5.697575056480921"><ele>637.0</ele><time>2026-04-25T10:39:28.999Z</time></trkpt><trkpt lat="44.9938817560491" lon="5.697587436473596"><ele>631.0</ele><time>2026-04-25T10:39:29.999Z</time></trkpt><trkpt lat="44.994117857497436" lon="5.697600387764124"><ele>627.0</ele><time>2026-04-25T10:39:30.999Z</time></trkpt><trkpt lat="44.99435314023771" lon="5.697616528727296"><ele>623.0</ele><time>2026-04-25T10:39:31.999Z</time></trkpt><trkpt lat="44.99457156172283" lon="5.69763662766895"><ele>623.0</ele><time>2026-04-25T10:39:32.999Z</time></trkpt><trkpt lat="44.9947886332256" lon="5.697654203385421"><ele>623.0</ele><time>2026-04-25T10:39:33.999Z</time></trkpt><trkpt lat="44.99499843522336" lon="5.697671953764006"><ele>623.0</ele><time>2026-04-25T10:39:34.999Z</time></trkpt><trkpt lat="44.99520076774813" lon="5.697689793612393"><ele>628.3333333333333</ele><time>2026-04-25T10:39:35.999Z</time></trkpt><trkpt lat="44.99540472051449" lon="5.697723254451153"><ele>633.6666666666666</ele><time>2026-04-25T10:39:36.999Z</time></trkpt><trkpt lat="44.99561105947432" lon="5.697812382341968"><ele>639.0</ele><time>2026-04-25T10:39:37.999Z</time></trkpt><trkpt lat="44.99582695840383" lon="5.697924906748991"><ele>629.5</ele><time>2026-04-25T10:39:38.999Z</time></trkpt><trkpt lat="44.996048542678025" lon="5.697980130537397"><ele>620.0</ele><time>2026-04-25T10:39:39.999Z</time></trkpt><trkpt lat="44.996276898984924" lon="5.698025355918462"><ele>620.0</ele><time>2026-04-25T10:39:40.999Z</time></trkpt><trkpt lat="44.99649878093748" lon="5.69809685661666"><ele>620.0</ele><time>2026-04-25T10:39:41.999Z</time></trkpt><trkpt lat="44.996710519390994" lon="5.698168171166573"><ele>620.0</ele><time>2026-04-25T10:39:42.999Z</time></trkpt><trkpt lat="44.996902952820015" lon="5.698277275877345"><ele>625.3333333333333</ele><time>2026-04-25T10:39:43.999Z</time></trkpt><trkpt lat="44.997093283852195" lon="5.698390428784075"><ele>630.6666666666666</ele><time>2026-04-25T10:39:44.999Z</time></trkpt><trkpt lat="44.99727676672191" lon="5.698503542638427"><ele>636.0</ele><time>2026-04-25T10:39:45.999Z</time></trkpt><trkpt lat="44.99744448749161" lon="5.698629859553081"><ele>617.5</ele><time>2026-04-25T10:39:46.999Z</time></trkpt><trkpt lat="44.99762038930796" lon="5.698776498917095"><ele>599.0</ele><time>2026-04-25T10:39:47.999Z</time></trkpt><trkpt lat="44.99783480936138" lon="5.6989690427617195"><ele>599.0</ele><time>2026-04-25T10:39:48.999Z</time></trkpt><trkpt lat="44.998035956491435" lon="5.699147690061145"><ele>599.0</ele><time>2026-04-25T10:39:49.999Z</time></trkpt><trkpt lat="44.99823007421231" lon="5.699298489312758"><ele>615.6666666666666</ele><time>2026-04-25T10:39:50.999Z</time></trkpt><trkpt lat="44.9984144479277" lon="5.699447952666625"><ele>632.3333333333334</ele><time>2026-04-25T10:39:51.999Z</time></trkpt><trkpt lat="44.99861407117924" lon="5.699544463298085"><ele>649.0</ele><time>2026-04-25T10:39:52.999Z</time></trkpt><trkpt lat="44.99884611192781" lon="5.699570229807405"><ele>649.0</ele><time>2026-04-25T10:39:53.999Z</time></trkpt><trkpt lat="44.99907608781451" lon="5.699550816339161"><ele>649.0</ele><time>2026-04-25T10:39:54.999Z</time></trkpt><trkpt lat="44.999282070968015" lon="5.699511469249454"><ele>649.0</ele><time>2026-04-25T10:39:55.999Z</time></trkpt><trkpt lat="44.99948523394877" lon="5.699461237227643"><ele>624.6666666666667</ele><time>2026-04-25T10:39:56.999Z</time></trkpt><trkpt lat="44.9996844432916" lon="5.699404946694848"><ele>600.3333333333334</ele><time>2026-04-25T10:39:57.999Z</time></trkpt><trkpt lat="44.999867356196525" lon="5.6993140495467145"><ele>576.0</ele><time>2026-04-25T10:39:58.999Z</time></trkpt><trkpt lat="45.000036274329204" lon="5.699189580495681"><ele>576.0</ele><time>2026-04-25T10:39:59.999Z</time></trkpt><trkpt lat="45.000214478029136" lon="5.699154385188309"><ele>576.0</ele><time>2026-04-25T10:40:00.999Z</time></trkpt><trkpt lat="45.0004197396275" lon="5.699150572399966"><ele>576.0</ele><time>2026-04-25T10:40:01.998Z</time></trkpt><trkpt lat="45.000651127813654" lon="5.6991967303065"><ele>578.0</ele><time>2026-04-25T10:40:02.998Z</time></trkpt><trkpt lat="45.000891796348476" lon="5.699237567400288"><ele>580.0</ele><time>2026-04-25T10:40:03.998Z</time></trkpt><trkpt lat="45.00113006141189" lon="5.699286287892038"><ele>580.0</ele><time>2026-04-25T10:40:04.998Z</time></trkpt><trkpt lat="45.00137288165429" lon="5.699294360910883"><ele>580.0</ele><time>2026-04-25T10:40:05.998Z</time></trkpt><trkpt lat="45.001610773586094" lon="5.699258832286874"><ele>572.0</ele><time>2026-04-25T10:40:06.998Z</time></trkpt><trkpt lat="45.001849976085126" lon="5.699238114491505"><ele>564.0</ele><time>2026-04-25T10:40:07.998Z</time></trkpt><trkpt lat="45.00209415567511" lon="5.6992679828426"><ele>564.0</ele><time>2026-04-25T10:40:08.998Z</time></trkpt><trkpt lat="45.00233258348476" lon="5.699360662745652"><ele>564.0</ele><time>2026-04-25T10:40:09.998Z</time></trkpt><trkpt lat="45.00255798521348" lon="5.6994738175115645"><ele>567.6666666666666</ele><time>2026-04-25T10:40:10.998Z</time></trkpt><trkpt lat="45.00274488974917" lon="5.69959128686998"><ele>571.3333333333333</ele><time>2026-04-25T10:40:11.998Z</time></trkpt><trkpt lat="45.00289018453299" lon="5.699776483926683"><ele>575.0</ele><time>2026-04-25T10:40:12.998Z</time></trkpt><trkpt lat="45.00300144164654" lon="5.6999995888837205"><ele>575.0</ele><time>2026-04-25T10:40:13.998Z</time></trkpt><trkpt lat="45.00310738814953" lon="5.700225589648566"><ele>575.0</ele><time>2026-04-25T10:40:14.998Z</time></trkpt><trkpt lat="45.00321237372231" lon="5.700436906043862"><ele>575.0</ele><time>2026-04-25T10:40:15.998Z</time></trkpt><trkpt lat="45.00329744650865" lon="5.700651608189704"><ele>570.6666666666666</ele><time>2026-04-25T10:40:16.998Z</time></trkpt><trkpt lat="45.0033355379153" lon="5.700880603967559"><ele>566.3333333333334</ele><time>2026-04-25T10:40:17.998Z</time></trkpt><trkpt lat="45.00337672914305" lon="5.7010972735424215"><ele>562.0</ele><time>2026-04-25T10:40:18.998Z</time></trkpt><trkpt lat="45.00343105811881" lon="5.701298758178518"><ele>572.0</ele><time>2026-04-25T10:40:19.998Z</time></trkpt><trkpt lat="45.00353069692743" lon="5.701454156011364"><ele>582.0</ele><time>2026-04-25T10:40:20.998Z</time></trkpt><trkpt lat="45.00366749878952" lon="5.701567291205843"><ele>592.0</ele><time>2026-04-25T10:40:21.998Z</time></trkpt><trkpt lat="45.003776397870965" lon="5.701703885758619"><ele>592.0</ele><time>2026-04-25T10:40:22.998Z</time></trkpt><trkpt lat="45.003883854106974" lon="5.701824943590856"><ele>592.0</ele><time>2026-04-25T10:40:24Z</time></trkpt><trkpt lat="45.00426221753587" lon="5.7014826744299025"><ele>584.6666666666667</ele><time>2026-04-25T10:40:25Z</time></trkpt><trkpt lat="45.00444924389319" lon="5.701402209499745"><ele>577.3333333333334</ele><time>2026-04-25T10:40:26Z</time></trkpt><trkpt lat="45.004619941093466" lon="5.701301377080873"><ele>570.0</ele><time>2026-04-25T10:40:27Z</time></trkpt><trkpt lat="45.00478079251509" lon="5.701182659366507"><ele>560.3333333333334</ele><time>2026-04-25T10:40:28Z</time></trkpt><trkpt lat="45.004930897316044" lon="5.70107502193559"><ele>550.6666666666667</ele><time>2026-04-25T10:40:29Z</time></trkpt><trkpt lat="45.00507894488745" lon="5.700968455852535"><ele>541.0</ele><time>2026-04-25T10:40:30Z</time></trkpt><trkpt lat="45.00522131409809" lon="5.700862251439562"><ele>541.0</ele><time>2026-04-25T10:40:31Z</time></trkpt><trkpt lat="45.005382416056236" lon="5.700769331380577"><ele>541.0</ele><time>2026-04-25T10:40:32Z</time></trkpt><trkpt lat="45.00554076429833" lon="5.700754419685787"><ele>541.0</ele><time>2026-04-25T10:40:33Z</time></trkpt><trkpt lat="45.00568797173022" lon="5.700781647116472"><ele>541.5</ele><time>2026-04-25T10:40:34Z</time></trkpt><trkpt lat="45.00583086556752" lon="5.700817340006969"><ele>542.0</ele><time>2026-04-25T10:40:35Z</time></trkpt><trkpt lat="45.00597061031266" lon="5.700836241830669"><ele>542.5</ele><time>2026-04-25T10:40:36Z</time></trkpt><trkpt lat="45.006110863751914" lon="5.7008444584265785"><ele>543.0</ele><time>2026-04-25T10:40:37Z</time></trkpt><trkpt lat="45.00624534624136" lon="5.700835973213255"><ele>543.0</ele><time>2026-04-25T10:40:38Z</time></trkpt><trkpt lat="45.006388249494805" lon="5.700823072680862"><ele>543.0</ele><time>2026-04-25T10:40:39Z</time></trkpt><trkpt lat="45.00654211627416" lon="5.700798014981183"><ele>543.0</ele><time>2026-04-25T10:40:40Z</time></trkpt><trkpt lat="45.00668693264165" lon="5.700753441921577"><ele>543.0</ele><time>2026-04-25T10:40:41Z</time></trkpt><trkpt lat="45.006843478666134" lon="5.700714926371739"><ele>541.0</ele><time>2026-04-25T10:40:42Z</time></trkpt><trkpt lat="45.00699621521095" lon="5.700646878464556"><ele>539.0</ele><time>2026-04-25T10:40:43Z</time></trkpt><trkpt lat="45.00714613386533" lon="5.700570307520535"><ele>537.0</ele><time>2026-04-25T10:40:44Z</time></trkpt><trkpt lat="45.00730023024088" lon="5.700495714190473"><ele>537.0</ele><time>2026-04-25T10:40:45Z</time></trkpt><trkpt lat="45.00745591037676" lon="5.700448809789829"><ele>537.0</ele><time>2026-04-25T10:40:46Z</time></trkpt><trkpt lat="45.00759723216124" lon="5.70042908986777"><ele>537.0</ele><time>2026-04-25T10:40:47Z</time></trkpt><trkpt lat="45.00772422732269" lon="5.7004230223672705"><ele>537.0</ele><time>2026-04-25T10:40:48Z</time></trkpt><trkpt lat="45.00781965166508" lon="5.700426969816782"><ele>535.8000000000001</ele><time>2026-04-25T10:40:49Z</time></trkpt><trkpt lat="45.00788843848998" lon="5.700430007191504"><ele>534.6</ele><time>2026-04-25T10:40:50Z</time></trkpt><trkpt lat="45.007973101184795" lon="5.700419664798222"><ele>533.4000000000001</ele><time>2026-04-25T10:40:52Z</time></trkpt><trkpt lat="45.00808903156504" lon="5.700403177331012"><ele>532.2</ele><time>2026-04-25T10:40:54Z</time></trkpt><trkpt lat="45.00822396772821" lon="5.700399628397989"><ele>531.0</ele><time>2026-04-25T10:40:56Z</time></trkpt><trkpt lat="45.00830502923894" lon="5.700392717549438"><ele>529.8333333333334</ele><time>2026-04-25T10:40:57Z</time></trkpt><trkpt lat="45.00839082026217" lon="5.700387109288947"><ele>528.6666666666666</ele><time>2026-04-25T10:40:58Z</time></trkpt><trkpt lat="45.008471138775995" lon="5.700386030798572"><ele>527.5</ele><time>2026-04-25T10:40:59Z</time></trkpt><trkpt lat="45.008546573514174" lon="5.700387646344418"><ele>526.3333333333333</ele><time>2026-04-25T10:41:00Z</time></trkpt><trkpt lat="45.008623898094854" lon="5.700369277630302"><ele>525.1666666666666</ele><time>2026-04-25T10:41:01Z</time></trkpt><trkpt lat="45.00871100773658" lon="5.700359152014507"><ele>524.0</ele><time>2026-04-25T10:41:02Z</time></trkpt><trkpt lat="45.008815146815024" lon="5.700350298571038"><ele>524.0</ele><time>2026-04-25T10:41:03Z</time></trkpt><trkpt lat="45.0089245238907" lon="5.700340834468011"><ele>524.0</ele><time>2026-04-25T10:41:04Z</time></trkpt><trkpt lat="45.00901754647282" lon="5.700326458658651"><ele>524.0</ele><time>2026-04-25T10:41:04.999Z</time></trkpt><trkpt lat="45.009127588676606" lon="5.700326504636679"><ele>524.0</ele><time>2026-04-25T10:41:05.999Z</time></trkpt><trkpt lat="45.009244658613376" lon="5.700315341148623"><ele>524.0</ele><time>2026-04-25T10:41:06.999Z</time></trkpt><trkpt lat="45.00936938406009" lon="5.700300345903417"><ele>522.25</ele><time>2026-04-25T10:41:07.999Z</time></trkpt><trkpt lat="45.009495120533636" lon="5.700291129327527"><ele>520.5</ele><time>2026-04-25T10:41:08.999Z</time></trkpt><trkpt lat="45.00962179830843" lon="5.700279801481362"><ele>518.75</ele><time>2026-04-25T10:41:09.999Z</time></trkpt><trkpt lat="45.0097402518392" lon="5.7002665660109155"><ele>517.0</ele><time>2026-04-25T10:41:10.999Z</time></trkpt><trkpt lat="45.009855434412614" lon="5.70025618589681"><ele>517.0</ele><time>2026-04-25T10:41:11.999Z</time></trkpt><trkpt lat="45.00996430436562" lon="5.700252578933274"><ele>517.0</ele><time>2026-04-25T10:41:12.999Z</time></trkpt><trkpt lat="45.01007116648793" lon="5.700252529759955"><ele>517.0</ele><time>2026-04-25T10:41:13.999Z</time></trkpt><trkpt lat="45.01018139769931" lon="5.700279600867228"><ele>517.0</ele><time>2026-04-25T10:41:14.999Z</time></trkpt><trkpt lat="45.010294391443146" lon="5.700332272159816"><ele>517.0</ele><time>2026-04-25T10:41:15.999Z</time></trkpt><trkpt lat="45.010407403331044" lon="5.700417700998683"><ele>516.0</ele><time>2026-04-25T10:41:16.999Z</time></trkpt><trkpt lat="45.010520013308074" lon="5.700510907654593"><ele>515.0</ele><time>2026-04-25T10:41:17.999Z</time></trkpt><trkpt lat="45.01063417016793" lon="5.70060021456323"><ele>514.0</ele><time>2026-04-25T10:41:18.999Z</time></trkpt><trkpt lat="45.010745120038585" lon="5.700710846344837"><ele>513.0</ele><time>2026-04-25T10:41:19.999Z</time></trkpt><trkpt lat="45.01085783876238" lon="5.700843189565479"><ele>511.75</ele><time>2026-04-25T10:41:20.999Z</time></trkpt><trkpt lat="45.01096961218627" lon="5.7009699235142195"><ele>510.5</ele><time>2026-04-25T10:41:21.999Z</time></trkpt><trkpt lat="45.011074390312125" lon="5.70110430427184"><ele>509.25</ele><time>2026-04-25T10:41:22.999Z</time></trkpt><trkpt lat="45.011177376251375" lon="5.701237954194506"><ele>508.0</ele><time>2026-04-25T10:41:23.999Z</time></trkpt><trkpt lat="45.011276249647096" lon="5.701379980525318"><ele>508.0</ele><time>2026-04-25T10:41:24.999Z</time></trkpt><trkpt lat="45.01137153638425" lon="5.701504676282091"><ele>508.0</ele><time>2026-04-25T10:41:25.999Z</time></trkpt><trkpt lat="45.01147054987927" lon="5.701616034182417"><ele>508.0</ele><time>2026-04-25T10:41:26.999Z</time></trkpt><trkpt lat="45.011579324430144" lon="5.701721506860182"><ele>508.0</ele><time>2026-04-25T10:41:27.999Z</time></trkpt><trkpt lat="45.01168713852597" lon="5.701822097073013"><ele>507.5</ele><time>2026-04-25T10:41:28.999Z</time></trkpt><trkpt lat="45.01180685957426" lon="5.701925168401218"><ele>507.0</ele><time>2026-04-25T10:41:29.999Z</time></trkpt><trkpt lat="45.01191746445169" lon="5.702017084917603"><ele>506.5</ele><time>2026-04-25T10:41:30.999Z</time></trkpt><trkpt lat="45.0120281676767" lon="5.70210753802078"><ele>506.0</ele><time>2026-04-25T10:41:31.999Z</time></trkpt><trkpt lat="45.01214228282868" lon="5.702192528274558"><ele>506.0</ele><time>2026-04-25T10:41:32.999Z</time></trkpt><trkpt lat="45.01227108867824" lon="5.702263181456622"><ele>506.0</ele><time>2026-04-25T10:41:33.999Z</time></trkpt><trkpt lat="45.01238997390721" lon="5.702285264884592"><ele>506.0</ele><time>2026-04-25T10:41:34.999Z</time></trkpt><trkpt lat="45.012513006436535" lon="5.702258680137622"><ele>506.0</ele><time>2026-04-25T10:41:35.999Z</time></trkpt><trkpt lat="45.01263831389995" lon="5.702191574188767"><ele>505.75</ele><time>2026-04-25T10:41:36.999Z</time></trkpt><trkpt lat="45.01275591027778" lon="5.702113648061614"><ele>505.5</ele><time>2026-04-25T10:41:37.999Z</time></trkpt><trkpt lat="45.01286679488559" lon="5.702045792287656"><ele>505.25</ele><time>2026-04-25T10:41:38.999Z</time></trkpt><trkpt lat="45.01298686064876" lon="5.701989275468843"><ele>505.0</ele><time>2026-04-25T10:41:39.999Z</time></trkpt><trkpt lat="45.01310572372207" lon="5.701942406465001"><ele>502.75</ele><time>2026-04-25T10:41:40.999Z</time></trkpt><trkpt lat="45.013235097456885" lon="5.701894657882213"><ele>500.5</ele><time>2026-04-25T10:41:41.999Z</time></trkpt><trkpt lat="45.0133483561317" lon="5.701857090553839"><ele>498.25</ele><time>2026-04-25T10:41:42.999Z</time></trkpt><trkpt lat="45.01345286287028" lon="5.701823675145662"><ele>496.0</ele><time>2026-04-25T10:41:43.999Z</time></trkpt><trkpt lat="45.01356134516579" lon="5.701811291661781"><ele>495.0</ele><time>2026-04-25T10:41:44.999Z</time></trkpt><trkpt lat="45.013662256412715" lon="5.701844650536085"><ele>494.0</ele><time>2026-04-25T10:41:45.999Z</time></trkpt><trkpt lat="45.01375167090983" lon="5.701944308541541"><ele>493.0</ele><time>2026-04-25T10:41:46.999Z</time></trkpt><trkpt lat="45.01380661123987" lon="5.702091288836605"><ele>492.0</ele><time>2026-04-25T10:41:47.999Z</time></trkpt><trkpt lat="45.013801957917806" lon="5.702272986431368"><ele>494.75</ele><time>2026-04-25T10:41:48.999Z</time></trkpt><trkpt lat="45.01380016662449" lon="5.702446608184108"><ele>497.5</ele><time>2026-04-25T10:41:49.999Z</time></trkpt><trkpt lat="45.0138129515661" lon="5.702609297957817"><ele>500.25</ele><time>2026-04-25T10:41:50.999Z</time></trkpt><trkpt lat="45.01381342061477" lon="5.702763184101853"><ele>503.0</ele><time>2026-04-25T10:41:51.999Z</time></trkpt><trkpt lat="45.013835440418724" lon="5.70293350578281"><ele>505.0</ele><time>2026-04-25T10:41:52.999Z</time></trkpt><trkpt lat="45.0138786094043" lon="5.703077044523561"><ele>507.0</ele><time>2026-04-25T10:41:53.999Z</time></trkpt><trkpt lat="45.01394936791097" lon="5.703223422329879"><ele>509.0</ele><time>2026-04-25T10:41:54.999Z</time></trkpt><trkpt lat="45.01407638547654" lon="5.703364056786488"><ele>511.0</ele><time>2026-04-25T10:41:55.999Z</time></trkpt><trkpt lat="45.01424395050214" lon="5.7035163822943575"><ele>509.33333333333337</ele><time>2026-04-25T10:41:56.999Z</time></trkpt><trkpt lat="45.0144485910295" lon="5.703699700578296"><ele>507.66666666666663</ele><time>2026-04-25T10:41:57.999Z</time></trkpt><trkpt lat="45.014615771750265" lon="5.703868152543477"><ele>506.0</ele><time>2026-04-25T10:41:58.999Z</time></trkpt><trkpt lat="45.01476717061395" lon="5.704038365367546"><ele>506.0</ele><time>2026-04-25T10:41:59.999Z</time></trkpt><trkpt lat="45.014879566434466" lon="5.70423174008914"><ele>506.0</ele><time>2026-04-25T10:42:00.999Z</time></trkpt><trkpt lat="45.01499062839726" lon="5.704368879304044"><ele>506.0</ele><time>2026-04-25T10:42:01.999Z</time></trkpt><trkpt lat="45.01512660204014" lon="5.704456897822612"><ele>505.0</ele><time>2026-04-25T10:42:02.999Z</time></trkpt><trkpt lat="45.01528473085368" lon="5.704479910251397"><ele>504.0</ele><time>2026-04-25T10:42:03.999Z</time></trkpt><trkpt lat="45.015450774618756" lon="5.704424485760612"><ele>503.0</ele><time>2026-04-25T10:42:04.999Z</time></trkpt><trkpt lat="45.015646597026794" lon="5.70431600784506"><ele>495.5</ele><time>2026-04-25T10:42:05.999Z</time></trkpt><trkpt lat="45.0158423173326" lon="5.704181966931123"><ele>488.0</ele><time>2026-04-25T10:42:06.999Z</time></trkpt><trkpt lat="45.01605493094514" lon="5.704050313396592"><ele>488.0</ele><time>2026-04-25T10:42:07.998Z</time></trkpt><trkpt lat="45.016275396480566" lon="5.703946265798902"><ele>488.0</ele><time>2026-04-25T10:42:08.998Z</time></trkpt><trkpt lat="45.01649904913662" lon="5.70388414935923"><ele>487.0</ele><time>2026-04-25T10:42:09.998Z</time></trkpt><trkpt lat="45.016716357272955" lon="5.703863881680775"><ele>486.0</ele><time>2026-04-25T10:42:10.998Z</time></trkpt><trkpt lat="45.01692782579068" lon="5.703875057737358"><ele>485.0</ele><time>2026-04-25T10:42:11.998Z</time></trkpt><trkpt lat="45.017116477337034" lon="5.703934394213425"><ele>485.0</ele><time>2026-04-25T10:42:12.998Z</time></trkpt><trkpt lat="45.01730039904789" lon="5.703980959513326"><ele>485.0</ele><time>2026-04-25T10:42:13.998Z</time></trkpt><trkpt lat="45.01749542262853" lon="5.704114757356955"><ele>485.0</ele><time>2026-04-25T10:42:14.998Z</time></trkpt><trkpt lat="45.01768748069307" lon="5.704252178011782"><ele>483.0</ele><time>2026-04-25T10:42:15.998Z</time></trkpt><trkpt lat="45.017859986785375" lon="5.704362137232421"><ele>481.0</ele><time>2026-04-25T10:42:16.998Z</time></trkpt><trkpt lat="45.01801742360571" lon="5.70447678258707"><ele>479.0</ele><time>2026-04-25T10:42:17.998Z</time></trkpt><trkpt lat="45.01817069761151" lon="5.704574293335953"><ele>481.66666666666663</ele><time>2026-04-25T10:42:18.998Z</time></trkpt><trkpt lat="45.0183119548982" lon="5.704701382975483"><ele>484.33333333333337</ele><time>2026-04-25T10:42:19.998Z</time></trkpt><trkpt lat="45.018444991740964" lon="5.704839241691277"><ele>487.0</ele><time>2026-04-25T10:42:20.998Z</time></trkpt><trkpt lat="45.01856926345559" lon="5.7049816065762"><ele>487.0</ele><time>2026-04-25T10:42:21.998Z</time></trkpt><trkpt lat="45.01867127236978" lon="5.705157418405599"><ele>487.0</ele><time>2026-04-25T10:42:22.998Z</time></trkpt><trkpt lat="45.0187890672434" lon="5.705293065639612"><ele>487.0</ele><time>2026-04-25T10:42:23.998Z</time></trkpt><trkpt lat="45.01891969091036" lon="5.705393934960895"><ele>489.6666666666667</ele><time>2026-04-25T10:42:24.998Z</time></trkpt><trkpt lat="45.01907627842815" lon="5.705444253777508"><ele>492.33333333333337</ele><time>2026-04-25T10:42:25.998Z</time></trkpt><trkpt lat="45.01927578425512" lon="5.7054761624546195"><ele>495.0</ele><time>2026-04-25T10:42:26.998Z</time></trkpt><trkpt lat="45.019501941594335" lon="5.7054912949976915"><ele>495.0</ele><time>2026-04-25T10:42:27.998Z</time></trkpt><trkpt lat="45.01971552294771" lon="5.705502912126536"><ele>495.0</ele><time>2026-04-25T10:42:28.998Z</time></trkpt><trkpt lat="45.01991012265824" lon="5.705515522541889"><ele>495.0</ele><time>2026-04-25T10:42:30Z</time></trkpt><trkpt lat="45.020083315427144" lon="5.705547097114862"><ele>491.66666666666663</ele><time>2026-04-25T10:42:31Z</time></trkpt><trkpt lat="45.02024098689339" lon="5.705590391890396"><ele>488.3333333333333</ele><time>2026-04-25T10:42:32Z</time></trkpt><trkpt lat="45.02042586090881" lon="5.7056191186410325"><ele>485.0</ele><time>2026-04-25T10:42:33Z</time></trkpt><trkpt lat="45.02058312691071" lon="5.705632372921566"><ele>485.0</ele><time>2026-04-25T10:42:34Z</time></trkpt><trkpt lat="45.02072596625296" lon="5.705629375927394"><ele>485.0</ele><time>2026-04-25T10:42:35Z</time></trkpt><trkpt lat="45.02086086245365" lon="5.70561380614809"><ele>485.0</ele><time>2026-04-25T10:42:36Z</time></trkpt><trkpt lat="45.02098605811347" lon="5.705572285868255"><ele>485.0</ele><time>2026-04-25T10:42:37Z</time></trkpt><trkpt lat="45.02109911521832" lon="5.7055254211190265"><ele>482.25</ele><time>2026-04-25T10:42:38Z</time></trkpt><trkpt lat="45.02121031123534" lon="5.705504945367762"><ele>479.5</ele><time>2026-04-25T10:42:39Z</time></trkpt><trkpt lat="45.02131649010675" lon="5.705523888535732"><ele>476.75</ele><time>2026-04-25T10:42:40Z</time></trkpt><trkpt lat="45.02142106088807" lon="5.705578872547907"><ele>474.0</ele><time>2026-04-25T10:42:41Z</time></trkpt><trkpt lat="45.02154296374713" lon="5.705635843885753"><ele>473.0</ele><time>2026-04-25T10:42:42Z</time></trkpt><trkpt lat="45.021669759933495" lon="5.705687023479916"><ele>472.0</ele><time>2026-04-25T10:42:43Z</time></trkpt><trkpt lat="45.02180772640296" lon="5.705731962714527"><ele>471.0</ele><time>2026-04-25T10:42:44Z</time></trkpt><trkpt lat="45.02194587315873" lon="5.705774931702704"><ele>470.0</ele><time>2026-04-25T10:42:45Z</time></trkpt><trkpt lat="45.02208513751291" lon="5.705824884581064"><ele>470.0</ele><time>2026-04-25T10:42:46Z</time></trkpt><trkpt lat="45.022235072601475" lon="5.705881107704716"><ele>470.0</ele><time>2026-04-25T10:42:47Z</time></trkpt><trkpt lat="45.022375838819954" lon="5.705955136855475"><ele>470.0</ele><time>2026-04-25T10:42:48Z</time></trkpt><trkpt lat="45.02251843746414" lon="5.706032066831138"><ele>469.0</ele><time>2026-04-25T10:42:49Z</time></trkpt><trkpt lat="45.02267258679567" lon="5.70607400550418"><ele>468.0</ele><time>2026-04-25T10:42:50Z</time></trkpt><trkpt lat="45.02283500994847" lon="5.706104236808104"><ele>467.0</ele><time>2026-04-25T10:42:51Z</time></trkpt><trkpt lat="45.022995295852056" lon="5.706153032809804"><ele>467.0</ele><time>2026-04-25T10:42:52Z</time></trkpt><trkpt lat="45.02315614648637" lon="5.706222578867172"><ele>467.0</ele><time>2026-04-25T10:42:53Z</time></trkpt><trkpt lat="45.02331412582504" lon="5.706280592248309"><ele>467.0</ele><time>2026-04-25T10:42:54Z</time></trkpt><trkpt lat="45.02347784262734" lon="5.706362471374634"><ele>463.66666666666663</ele><time>2026-04-25T10:42:55Z</time></trkpt><trkpt lat="45.02364755816709" lon="5.706426338551815"><ele>460.33333333333337</ele><time>2026-04-25T10:42:56Z</time></trkpt><trkpt lat="45.02381839003358" lon="5.706485564567695"><ele>457.0</ele><time>2026-04-25T10:42:57Z</time></trkpt><trkpt lat="45.02399006859168" lon="5.706524485368286"><ele>455.0</ele><time>2026-04-25T10:42:58Z</time></trkpt><trkpt lat="45.02415926625921" lon="5.706550257422494"><ele>453.0</ele><time>2026-04-25T10:42:59Z</time></trkpt><trkpt lat="45.0243250088409" lon="5.7065706734965165"><ele>451.0</ele><time>2026-04-25T10:43:00Z</time></trkpt><trkpt lat="45.02448316769864" lon="5.706576843136846"><ele>451.0</ele><time>2026-04-25T10:43:01Z</time></trkpt><trkpt lat="45.024626177400236" lon="5.706586601524237"><ele>451.0</ele><time>2026-04-25T10:43:02Z</time></trkpt><trkpt lat="45.02476596276677" lon="5.706591909583411"><ele>451.0</ele><time>2026-04-25T10:43:03Z</time></trkpt><trkpt lat="45.02491297895025" lon="5.706615618855926"><ele>451.0</ele><time>2026-04-25T10:43:04Z</time></trkpt><trkpt lat="45.02506324478763" lon="5.706645300989583"><ele>450.0</ele><time>2026-04-25T10:43:05Z</time></trkpt><trkpt lat="45.025224899247874" lon="5.706660586429007"><ele>449.0</ele><time>2026-04-25T10:43:06Z</time></trkpt><trkpt lat="45.02538882612623" lon="5.70670332111191"><ele>448.0</ele><time>2026-04-25T10:43:07Z</time></trkpt><trkpt lat="45.02554583847205" lon="5.706756649201282"><ele>448.0</ele><time>2026-04-25T10:43:08Z</time></trkpt><trkpt lat="45.02569029482599" lon="5.706810831210409"><ele>448.0</ele><time>2026-04-25T10:43:09Z</time></trkpt><trkpt lat="45.025832883854335" lon="5.7068678828913635"><ele>448.0</ele><time>2026-04-25T10:43:10Z</time></trkpt><trkpt lat="45.025959103125075" lon="5.706909709043904"><ele>448.0</ele><time>2026-04-25T10:43:11Z</time></trkpt><trkpt lat="45.026093923526496" lon="5.706922858546157"><ele>446.75</ele><time>2026-04-25T10:43:12Z</time></trkpt><trkpt lat="45.026224212397466" lon="5.706895354936093"><ele>445.5</ele><time>2026-04-25T10:43:13Z</time></trkpt><trkpt lat="45.02636412041047" lon="5.706845970960325"><ele>444.25</ele><time>2026-04-25T10:43:14Z</time></trkpt><trkpt lat="45.026503726205554" lon="5.706764503778723"><ele>443.0</ele><time>2026-04-25T10:43:15Z</time></trkpt><trkpt lat="45.02663759289711" lon="5.706701858829806"><ele>443.0</ele><time>2026-04-25T10:43:15.999Z</time></trkpt><trkpt lat="45.02676307201609" lon="5.706655206102872"><ele>443.0</ele><time>2026-04-25T10:43:16.999Z</time></trkpt><trkpt lat="45.0268704725452" lon="5.706590021808411"><ele>443.0</ele><time>2026-04-25T10:43:17.999Z</time></trkpt><trkpt lat="45.02696276880547" lon="5.706497024877847"><ele>443.0</ele><time>2026-04-25T10:43:18.999Z</time></trkpt><trkpt lat="45.0270358756425" lon="5.70636718960598"><ele>443.0</ele><time>2026-04-25T10:43:19.999Z</time></trkpt><trkpt lat="45.027104546069374" lon="5.706218095121738"><ele>443.0</ele><time>2026-04-25T10:43:20.999Z</time></trkpt><trkpt lat="45.027164412228636" lon="5.706067077152589"><ele>443.0</ele><time>2026-04-25T10:43:21.999Z</time></trkpt><trkpt lat="45.02722226640291" lon="5.70593011317999"><ele>443.0</ele><time>2026-04-25T10:43:22.999Z</time></trkpt><trkpt lat="45.02730266970608" lon="5.70584148914853"><ele>443.25</ele><time>2026-04-25T10:43:23.999Z</time></trkpt><trkpt lat="45.027405970464116" lon="5.705813067444687"><ele>443.5</ele><time>2026-04-25T10:43:24.999Z</time></trkpt><trkpt lat="45.02751871953039" lon="5.705865170109931"><ele>443.75</ele><time>2026-04-25T10:43:25.999Z</time></trkpt><trkpt lat="45.027649642782606" lon="5.705920584859326"><ele>444.0</ele><time>2026-04-25T10:43:26.999Z</time></trkpt><trkpt lat="45.027787985597485" lon="5.705974766652868"><ele>444.0</ele><time>2026-04-25T10:43:27.999Z</time></trkpt><trkpt lat="45.02791796627679" lon="5.706037929395729"><ele>444.0</ele><time>2026-04-25T10:43:28.999Z</time></trkpt><trkpt lat="45.02804615901504" lon="5.706072639801079"><ele>444.0</ele><time>2026-04-25T10:43:29.999Z</time></trkpt><trkpt lat="45.02818028541964" lon="5.706063084795079"><ele>444.0</ele><time>2026-04-25T10:43:30.999Z</time></trkpt><trkpt lat="45.028329769294146" lon="5.7060021841522"><ele>443.66666666666663</ele><time>2026-04-25T10:43:31.999Z</time></trkpt><trkpt lat="45.02847658984298" lon="5.705946886921391"><ele>443.3333333333333</ele><time>2026-04-25T10:43:32.999Z</time></trkpt><trkpt lat="45.02863197059106" lon="5.7059017778822"><ele>443.0</ele><time>2026-04-25T10:43:33.999Z</time></trkpt><trkpt lat="45.028791721944806" lon="5.705858123211523"><ele>443.0</ele><time>2026-04-25T10:43:34.999Z</time></trkpt><trkpt lat="45.028948672300594" lon="5.705811496635367"><ele>443.0</ele><time>2026-04-25T10:43:35.999Z</time></trkpt><trkpt lat="45.02912156679127" lon="5.705786587774521"><ele>443.0</ele><time>2026-04-25T10:43:36.999Z</time></trkpt><trkpt lat="45.02927959925957" lon="5.705777925451961"><ele>442.79999999999995</ele><time>2026-04-25T10:43:37.999Z</time></trkpt><trkpt lat="45.02939654544978" lon="5.70577888020895"><ele>442.59999999999997</ele><time>2026-04-25T10:43:38.999Z</time></trkpt><trkpt lat="45.02947600251157" lon="5.7058003276845"><ele>442.40000000000003</ele><time>2026-04-25T10:43:39.999Z</time></trkpt><trkpt lat="45.02954213626102" lon="5.705795139844291"><ele>442.20000000000005</ele><time>2026-04-25T10:43:45.999Z</time></trkpt><trkpt lat="45.02963567862068" lon="5.705807793647397"><ele>442.0</ele><time>2026-04-25T10:43:46.999Z</time></trkpt><trkpt lat="45.02975533980485" lon="5.705828774620794"><ele>442.0</ele><time>2026-04-25T10:43:47.999Z</time></trkpt><trkpt lat="45.029891566054076" lon="5.705850419415618"><ele>442.0</ele><time>2026-04-25T10:43:48.999Z</time></trkpt><trkpt lat="45.02999553785945" lon="5.705871110663466"><ele>442.0</ele><time>2026-04-25T10:43:49.999Z</time></trkpt><trkpt lat="45.03011236178064" lon="5.705846330948701"><ele>442.0</ele><time>2026-04-25T10:43:50.999Z</time></trkpt><trkpt lat="45.030233588495726" lon="5.70583231506291"><ele>441.0</ele><time>2026-04-25T10:43:51.999Z</time></trkpt><trkpt lat="45.0303495000148" lon="5.7058303878503365"><ele>440.0</ele><time>2026-04-25T10:43:52.999Z</time></trkpt><trkpt lat="45.03044717903507" lon="5.705794329758392"><ele>439.0</ele><time>2026-04-25T10:43:53.999Z</time></trkpt><trkpt lat="45.03055442495023" lon="5.705744406528401"><ele>438.0</ele><time>2026-04-25T10:43:54.999Z</time></trkpt><trkpt lat="45.030685166824405" lon="5.705678723854155"><ele>438.0</ele><time>2026-04-25T10:43:55.999Z</time></trkpt><trkpt lat="45.030807651718725" lon="5.705570630840987"><ele>438.0</ele><time>2026-04-25T10:43:56.999Z</time></trkpt><trkpt lat="45.03090248038123" lon="5.705442657086997"><ele>438.0</ele><time>2026-04-25T10:43:57.999Z</time></trkpt><trkpt lat="45.03103803465806" lon="5.705385732626672"><ele>438.0</ele><time>2026-04-25T10:43:58.999Z</time></trkpt><trkpt lat="45.03107586721186" lon="5.7051912777182965"><ele>436.0</ele><time>2026-04-25T10:43:59.999Z</time></trkpt><trkpt lat="45.03114508868225" lon="5.705033523634416"><ele>434.0</ele><time>2026-04-25T10:44:00.999Z</time></trkpt><trkpt lat="45.03120095415964" lon="5.704858122493924"><ele>432.0</ele><time>2026-04-25T10:44:01.999Z</time></trkpt><trkpt lat="45.031269665867704" lon="5.704715029089108"><ele>430.0</ele><time>2026-04-25T10:44:02.999Z</time></trkpt><trkpt lat="45.031355835261934" lon="5.704605477173824"><ele>430.0</ele><time>2026-04-25T10:44:03.999Z</time></trkpt><trkpt lat="45.03147084985972" lon="5.704559990757599"><ele>430.0</ele><time>2026-04-25T10:44:04.999Z</time></trkpt><trkpt lat="45.03160307306527" lon="5.704581118789901"><ele>430.0</ele><time>2026-04-25T10:44:05.999Z</time></trkpt><trkpt lat="45.03175022946059" lon="5.7046749267784795"><ele>430.0</ele><time>2026-04-25T10:44:06.999Z</time></trkpt><trkpt lat="45.03191951610035" lon="5.704841963892922"><ele>429.33333333333337</ele><time>2026-04-25T10:44:07.999Z</time></trkpt><trkpt lat="45.032089808984985" lon="5.705003158797539"><ele>428.66666666666663</ele><time>2026-04-25T10:44:08.999Z</time></trkpt><trkpt lat="45.032280132746756" lon="5.705124653209995"><ele>428.0</ele><time>2026-04-25T10:44:09.999Z</time></trkpt><trkpt lat="45.032467953276246" lon="5.705174354631098"><ele>424.0</ele><time>2026-04-25T10:44:10.999Z</time></trkpt><trkpt lat="45.03267153943056" lon="5.7051669334856"><ele>420.0</ele><time>2026-04-25T10:44:11.999Z</time></trkpt><trkpt lat="45.0328722638377" lon="5.705085582692811"><ele>416.0</ele><time>2026-04-25T10:44:12.999Z</time></trkpt><trkpt lat="45.03305126779988" lon="5.704982448383711"><ele>416.0</ele><time>2026-04-25T10:44:13.999Z</time></trkpt><trkpt lat="45.03323663239858" lon="5.704910086914624"><ele>416.0</ele><time>2026-04-25T10:44:14.999Z</time></trkpt><trkpt lat="45.03342467061927" lon="5.704904610508849"><ele>416.0</ele><time>2026-04-25T10:44:15.999Z</time></trkpt><trkpt lat="45.03360056979459" lon="5.704903519354701"><ele>415.3333333333333</ele><time>2026-04-25T10:44:16.999Z</time></trkpt><trkpt lat="45.033774896396515" lon="5.705039175806504"><ele>414.66666666666663</ele><time>2026-04-25T10:44:17.999Z</time></trkpt><trkpt lat="45.033960988844434" lon="5.70516436316642"><ele>414.0</ele><time>2026-04-25T10:44:18.999Z</time></trkpt><trkpt lat="45.03415867148515" lon="5.705252497604241"><ele>415.66666666666663</ele><time>2026-04-25T10:44:19.998Z</time></trkpt><trkpt lat="45.034375489028776" lon="5.70525461337863"><ele>417.3333333333333</ele><time>2026-04-25T10:44:20.998Z</time></trkpt><trkpt lat="45.03459408935863" lon="5.705181994394325"><ele>419.0</ele><time>2026-04-25T10:44:21.998Z</time></trkpt><trkpt lat="45.03478959080918" lon="5.70503908724085"><ele>413.0</ele><time>2026-04-25T10:44:22.998Z</time></trkpt><trkpt lat="45.03495685023405" lon="5.704833078471724"><ele>407.0</ele><time>2026-04-25T10:44:23.998Z</time></trkpt><trkpt lat="45.03510239745925" lon="5.704574951517193"><ele>406.0</ele><time>2026-04-25T10:44:24.998Z</time></trkpt><trkpt lat="45.03523729704627" lon="5.704294926065362"><ele>405.0</ele><time>2026-04-25T10:44:25.998Z</time></trkpt><trkpt lat="45.03536630583411" lon="5.704061730136735"><ele>404.0</ele><time>2026-04-25T10:44:26.998Z</time></trkpt><trkpt lat="45.03551830636624" lon="5.703871378151747"><ele>404.0</ele><time>2026-04-25T10:44:27.998Z</time></trkpt><trkpt lat="45.03567230656845" lon="5.703765003777342"><ele>404.0</ele><time>2026-04-25T10:44:28.998Z</time></trkpt><trkpt lat="45.03583213426429" lon="5.703749157694561"><ele>404.0</ele><time>2026-04-25T10:44:29.998Z</time></trkpt><trkpt lat="45.03598601309282" lon="5.703696096260608"><ele>402.75</ele><time>2026-04-25T10:44:30.998Z</time></trkpt><trkpt lat="45.03611151080889" lon="5.703590756901377"><ele>401.5</ele><time>2026-04-25T10:44:31.998Z</time></trkpt><trkpt lat="45.03618900279674" lon="5.703420949409958"><ele>400.25</ele><time>2026-04-25T10:44:32.998Z</time></trkpt><trkpt lat="45.03620270977139" lon="5.7032219526990895"><ele>399.0</ele><time>2026-04-25T10:44:33.998Z</time></trkpt><trkpt lat="45.036169981873854" lon="5.703033364258495"><ele>399.0</ele><time>2026-04-25T10:44:34.998Z</time></trkpt><trkpt lat="45.03611631931458" lon="5.702873502207174"><ele>399.0</ele><time>2026-04-25T10:44:36Z</time></trkpt><trkpt lat="45.03609924769529" lon="5.7027249299795075"><ele>399.0</ele><time>2026-04-25T10:44:37Z</time></trkpt><trkpt lat="45.03615948063527" lon="5.702610418903242"><ele>399.0</ele><time>2026-04-25T10:44:38Z</time></trkpt><trkpt lat="45.036257431672006" lon="5.702565946617904"><ele>399.0</ele><time>2026-04-25T10:44:39Z</time></trkpt><trkpt lat="45.03634263970303" lon="5.702559329803124"><ele>399.4</ele><time>2026-04-25T10:44:40Z</time></trkpt><trkpt lat="45.036452333385135" lon="5.702565917073019"><ele>399.79999999999995</ele><time>2026-04-25T10:44:41Z</time></trkpt><trkpt lat="45.03656799689303" lon="5.702601202352265"><ele>400.20000000000005</ele><time>2026-04-25T10:44:42Z</time></trkpt><trkpt lat="45.03667214623435" lon="5.702667496127828"><ele>400.6</ele><time>2026-04-25T10:44:43Z</time></trkpt><trkpt lat="45.0367551966912" lon="5.702754673188308"><ele>401.0</ele><time>2026-04-25T10:44:44Z</time></trkpt><trkpt lat="45.03683449765433" lon="5.702852968732059"><ele>401.0</ele><time>2026-04-25T10:44:45Z</time></trkpt><trkpt lat="45.03690738780351" lon="5.702958599360091"><ele>401.0</ele><time>2026-04-25T10:44:46Z</time></trkpt><trkpt lat="45.03697051878313" lon="5.703063662250927"><ele>401.0</ele><time>2026-04-25T10:44:47Z</time></trkpt><trkpt lat="45.03703182013088" lon="5.703170130312173"><ele>401.0</ele><time>2026-04-25T10:44:48Z</time></trkpt><trkpt lat="45.03709604396264" lon="5.703278964205783"><ele>401.0</ele><time>2026-04-25T10:44:49Z</time></trkpt><trkpt lat="45.03717843573752" lon="5.703387620479577"><ele>401.0</ele><time>2026-04-25T10:44:50Z</time></trkpt><trkpt lat="45.03727441456199" lon="5.703492678780996"><ele>401.0</ele><time>2026-04-25T10:44:51Z</time></trkpt><trkpt lat="45.03737348665039" lon="5.703602260124475"><ele>401.0</ele><time>2026-04-25T10:44:52Z</time></trkpt><trkpt lat="45.03747441621441" lon="5.703691612274804"><ele>401.0</ele><time>2026-04-25T10:44:53Z</time></trkpt><trkpt lat="45.03758695853957" lon="5.703765534179952"><ele>400.20000000000005</ele><time>2026-04-25T10:44:54Z</time></trkpt><trkpt lat="45.03770722352277" lon="5.703827048935498"><ele>399.40000000000003</ele><time>2026-04-25T10:44:55Z</time></trkpt><trkpt lat="45.03781655487449" lon="5.703871216706978"><ele>398.6</ele><time>2026-04-25T10:44:56Z</time></trkpt><trkpt lat="45.037918308895755" lon="5.703920625086433"><ele>397.8</ele><time>2026-04-25T10:44:57Z</time></trkpt><trkpt lat="45.03800323810753" lon="5.703972187869914"><ele>397.0</ele><time>2026-04-25T10:44:58Z</time></trkpt><trkpt lat="45.038075504085135" lon="5.704016766939391"><ele>397.0</ele><time>2026-04-25T10:44:59Z</time></trkpt><trkpt lat="45.03815941519606" lon="5.704069792900655"><ele>397.0</ele><time>2026-04-25T10:45:00Z</time></trkpt><trkpt lat="45.03823148992913" lon="5.704150319476151"><ele>397.0</ele><time>2026-04-25T10:45:01Z</time></trkpt><trkpt lat="45.03827090622883" lon="5.704281594341551"><ele>397.0</ele><time>2026-04-25T10:45:02Z</time></trkpt><trkpt lat="45.038216647746914" lon="5.704426713250355"><ele>397.0</ele><time>2026-04-25T10:45:03Z</time></trkpt><trkpt lat="45.03819030479686" lon="5.704608681624878"><ele>401.25</ele><time>2026-04-25T10:45:04Z</time></trkpt><trkpt lat="45.0381695209395" lon="5.704820179687598"><ele>405.5</ele><time>2026-04-25T10:45:05Z</time></trkpt><trkpt lat="45.03817787904363" lon="5.705034168753383"><ele>409.75</ele><time>2026-04-25T10:45:06Z</time></trkpt><trkpt lat="45.03817771638228" lon="5.705230270192603"><ele>414.0</ele><time>2026-04-25T10:45:07Z</time></trkpt><trkpt lat="45.03814942236704" lon="5.70541149010533"><ele>415.4</ele><time>2026-04-25T10:45:08Z</time></trkpt><trkpt lat="45.03810677226168" lon="5.705567279195902"><ele>416.79999999999995</ele><time>2026-04-25T10:45:09Z</time></trkpt><trkpt lat="45.03808359909837" lon="5.705706524285325"><ele>418.20000000000005</ele><time>2026-04-25T10:45:10Z</time></trkpt><trkpt lat="45.03807481050112" lon="5.705849560692973"><ele>419.6</ele><time>2026-04-25T10:45:11Z</time></trkpt><trkpt lat="45.03810718791309" lon="5.705971594927265"><ele>421.0</ele><time>2026-04-25T10:45:12Z</time></trkpt><trkpt lat="45.03820570417273" lon="5.7060281506568575"><ele>412.75</ele><time>2026-04-25T10:45:13Z</time></trkpt><trkpt lat="45.03832500594746" lon="5.705982384130729"><ele>404.5</ele><time>2026-04-25T10:45:14Z</time></trkpt><trkpt lat="45.038428112339965" lon="5.705928245434477"><ele>396.25</ele><time>2026-04-25T10:45:15Z</time></trkpt><trkpt lat="45.03852968211584" lon="5.705761219979582"><ele>388.0</ele><time>2026-04-25T10:45:16Z</time></trkpt><trkpt lat="45.03867457872932" lon="5.7057041416440635"><ele>388.0</ele><time>2026-04-25T10:45:17Z</time></trkpt><trkpt lat="45.038834618910066" lon="5.705673320135432"><ele>388.0</ele><time>2026-04-25T10:45:17.999Z</time></trkpt><trkpt lat="45.0389886886649" lon="5.705574698394188"><ele>388.0</ele><time>2026-04-25T10:45:18.999Z</time></trkpt><trkpt lat="45.03912380660582" lon="5.70542215636983"><ele>388.0</ele><time>2026-04-25T10:45:19.999Z</time></trkpt><trkpt lat="45.03924912137669" lon="5.705296863626269"><ele>388.0</ele><time>2026-04-25T10:45:20.999Z</time></trkpt><trkpt lat="45.03939955718589" lon="5.705249011326012"><ele>388.0</ele><time>2026-04-25T10:45:21.999Z</time></trkpt><trkpt lat="45.03956956124714" lon="5.705278277208394"><ele>388.0</ele><time>2026-04-25T10:45:22.999Z</time></trkpt><trkpt lat="45.03975492310698" lon="5.705363623208057"><ele>388.0</ele><time>2026-04-25T10:45:23.999Z</time></trkpt><trkpt lat="45.03994178749721" lon="5.705397149526719"><ele>388.0</ele><time>2026-04-25T10:45:24.999Z</time></trkpt><trkpt lat="45.04012642635186" lon="5.705449684848546"><ele>387.33333333333337</ele><time>2026-04-25T10:45:25.999Z</time></trkpt><trkpt lat="45.04031212041844" lon="5.705524003965548"><ele>386.66666666666663</ele><time>2026-04-25T10:45:26.999Z</time></trkpt><trkpt lat="45.04052473313201" lon="5.705567126468117"><ele>386.0</ele><time>2026-04-25T10:45:27.999Z</time></trkpt><trkpt lat="45.04071582373708" lon="5.705631288876906"><ele>382.3333333333333</ele><time>2026-04-25T10:45:28.999Z</time></trkpt><trkpt lat="45.04090252587354" lon="5.705628049576226"><ele>378.66666666666663</ele><time>2026-04-25T10:45:29.999Z</time></trkpt><trkpt lat="45.04107237368587" lon="5.705535295579883"><ele>375.0</ele><time>2026-04-25T10:45:30.999Z</time></trkpt><trkpt lat="45.04122638523911" lon="5.705390519905631"><ele>375.0</ele><time>2026-04-25T10:45:31.999Z</time></trkpt><trkpt lat="45.041402360489464" lon="5.705376237475597"><ele>375.0</ele><time>2026-04-25T10:45:32.999Z</time></trkpt><trkpt lat="45.041585410365855" lon="5.705390708396067"><ele>375.0</ele><time>2026-04-25T10:45:33.999Z</time></trkpt><trkpt lat="45.041770147797756" lon="5.705465109506813"><ele>372.3333333333333</ele><time>2026-04-25T10:45:34.999Z</time></trkpt><trkpt lat="45.04196361975887" lon="5.705565214403047"><ele>369.66666666666663</ele><time>2026-04-25T10:45:35.999Z</time></trkpt><trkpt lat="45.042155804131596" lon="5.705664295066631"><ele>367.0</ele><time>2026-04-25T10:45:36.999Z</time></trkpt><trkpt lat="45.04235610607449" lon="5.7057514242951095"><ele>363.3333333333333</ele><time>2026-04-25T10:45:37.999Z</time></trkpt><trkpt lat="45.04253946206817" lon="5.7058326344982255"><ele>359.6666666666667</ele><time>2026-04-25T10:45:38.999Z</time></trkpt><trkpt lat="45.042714220643155" lon="5.70591165172515"><ele>356.0</ele><time>2026-04-25T10:45:39.999Z</time></trkpt><trkpt lat="45.04287914746821" lon="5.706006452257649"><ele>356.0</ele><time>2026-04-25T10:45:40.999Z</time></trkpt><trkpt lat="45.04303914782523" lon="5.706073078326999"><ele>356.0</ele><time>2026-04-25T10:45:41.999Z</time></trkpt><trkpt lat="45.04318282380734" lon="5.706171684199453"><ele>356.0</ele><time>2026-04-25T10:45:42.999Z</time></trkpt><trkpt lat="45.0433095841836" lon="5.706256080262778"><ele>356.5</ele><time>2026-04-25T10:45:43.999Z</time></trkpt><trkpt lat="45.043440357217314" lon="5.706351151035718"><ele>357.0</ele><time>2026-04-25T10:45:44.999Z</time></trkpt><trkpt lat="45.043567588344686" lon="5.706429672991169"><ele>357.5</ele><time>2026-04-25T10:45:45.999Z</time></trkpt><trkpt lat="45.0436917367202" lon="5.7065312261125145"><ele>358.0</ele><time>2026-04-25T10:45:46.999Z</time></trkpt><trkpt lat="45.04382849880256" lon="5.706632991354898"><ele>358.0</ele><time>2026-04-25T10:45:47.999Z</time></trkpt><trkpt lat="45.043976748643246" lon="5.706734469543863"><ele>358.0</ele><time>2026-04-25T10:45:48.999Z</time></trkpt><trkpt lat="45.044130345005286" lon="5.706840030252155"><ele>358.0</ele><time>2026-04-25T10:45:49.999Z</time></trkpt><trkpt lat="45.04428405969347" lon="5.7069574863308015"><ele>356.66666666666663</ele><time>2026-04-25T10:45:50.999Z</time></trkpt><trkpt lat="45.04444440511684" lon="5.707079297907886"><ele>355.3333333333333</ele><time>2026-04-25T10:45:51.999Z</time></trkpt><trkpt lat="45.04460212826172" lon="5.707209232898471"><ele>354.0</ele><time>2026-04-25T10:45:52.999Z</time></trkpt><trkpt lat="45.04475647685553" lon="5.707328974455497"><ele>354.0</ele><time>2026-04-25T10:45:53.999Z</time></trkpt><trkpt lat="45.044910440154545" lon="5.707446225875614"><ele>354.0</ele><time>2026-04-25T10:45:54.999Z</time></trkpt><trkpt lat="45.04507017323266" lon="5.707554175955253"><ele>354.0</ele><time>2026-04-25T10:45:55.999Z</time></trkpt><trkpt lat="45.04523904087163" lon="5.70766210048027"><ele>356.0</ele><time>2026-04-25T10:45:56.999Z</time></trkpt><trkpt lat="45.045414124558604" lon="5.707761940893701"><ele>358.0</ele><time>2026-04-25T10:45:57.999Z</time></trkpt><trkpt lat="45.04559095815858" lon="5.707871435797202"><ele>360.0</ele><time>2026-04-25T10:45:58.999Z</time></trkpt><trkpt lat="45.045772394220975" lon="5.707977735382208"><ele>356.0</ele><time>2026-04-25T10:45:59.999Z</time></trkpt><trkpt lat="45.0459737533652" lon="5.708041135659797"><ele>352.0</ele><time>2026-04-25T10:46:00.999Z</time></trkpt><trkpt lat="45.04619368775085" lon="5.708049337196435"><ele>348.0</ele><time>2026-04-25T10:46:01.999Z</time></trkpt><trkpt lat="45.04642033351153" lon="5.70804709142324"><ele>345.0</ele><time>2026-04-25T10:46:02.999Z</time></trkpt><trkpt lat="45.04663277274245" lon="5.7080559790091305"><ele>342.0</ele><time>2026-04-25T10:46:03.999Z</time></trkpt><trkpt lat="45.04683383603724" lon="5.7080805708148885"><ele>339.0</ele><time>2026-04-25T10:46:04.999Z</time></trkpt><trkpt lat="45.04701445697414" lon="5.7081284708389"><ele>339.0</ele><time>2026-04-25T10:46:05.999Z</time></trkpt><trkpt lat="45.04716914857725" lon="5.708257212105933"><ele>339.0</ele><time>2026-04-25T10:46:06.999Z</time></trkpt><trkpt lat="45.04729120805921" lon="5.708445643837073"><ele>339.0</ele><time>2026-04-25T10:46:07.999Z</time></trkpt><trkpt lat="45.047418986680746" lon="5.70867477493033"><ele>339.0</ele><time>2026-04-25T10:46:08.999Z</time></trkpt><trkpt lat="45.04754788188795" lon="5.708914903046076"><ele>339.0</ele><time>2026-04-25T10:46:09.999Z</time></trkpt><trkpt lat="45.047662590738256" lon="5.709135269640881"><ele>339.0</ele><time>2026-04-25T10:46:10.999Z</time></trkpt><trkpt lat="45.04780616006893" lon="5.70928969335208"><ele>339.0</ele><time>2026-04-25T10:46:11.999Z</time></trkpt><trkpt lat="45.0479795130451" lon="5.7093505769256465"><ele>339.0</ele><time>2026-04-25T10:46:12.999Z</time></trkpt><trkpt lat="45.04815728620742" lon="5.709361173223316"><ele>339.0</ele><time>2026-04-25T10:46:13.999Z</time></trkpt><trkpt lat="45.04836691377097" lon="5.709307464344497"><ele>335.6666666666667</ele><time>2026-04-25T10:46:14.999Z</time></trkpt><trkpt lat="45.0485863390503" lon="5.709236535317857"><ele>332.33333333333337</ele><time>2026-04-25T10:46:15.999Z</time></trkpt><trkpt lat="45.04880095901018" lon="5.709186053970887"><ele>329.0</ele><time>2026-04-25T10:46:16.999Z</time></trkpt><trkpt lat="45.0489984782383" lon="5.70915044663641"><ele>326.0</ele><time>2026-04-25T10:46:17.999Z</time></trkpt><trkpt lat="45.0491932972381" lon="5.709120567350156"><ele>323.0</ele><time>2026-04-25T10:46:18.999Z</time></trkpt><trkpt lat="45.049373902674844" lon="5.709072396124581"><ele>320.0</ele><time>2026-04-25T10:46:19.999Z</time></trkpt><trkpt lat="45.049561383641844" lon="5.709088222121824"><ele>320.0</ele><time>2026-04-25T10:46:20.999Z</time></trkpt><trkpt lat="45.04974769168685" lon="5.7092016795422165"><ele>320.0</ele><time>2026-04-25T10:46:21.999Z</time></trkpt><trkpt lat="45.04993642178357" lon="5.709392616303963"><ele>320.0</ele><time>2026-04-25T10:46:22.998Z</time></trkpt><trkpt lat="45.05013460891651" lon="5.709621356902721"><ele>321.0</ele><time>2026-04-25T10:46:23.998Z</time></trkpt><trkpt lat="45.05033673570336" lon="5.709840948513262"><ele>322.0</ele><time>2026-04-25T10:46:24.998Z</time></trkpt><trkpt lat="45.05054393058787" lon="5.710047019392897"><ele>322.0</ele><time>2026-04-25T10:46:25.998Z</time></trkpt><trkpt lat="45.05072969803434" lon="5.710231285872844"><ele>322.0</ele><time>2026-04-25T10:46:26.998Z</time></trkpt><trkpt lat="45.050916281773" lon="5.710390907692892"><ele>322.0</ele><time>2026-04-25T10:46:27.998Z</time></trkpt><trkpt lat="45.05110353718598" lon="5.7105449077467005"><ele>321.3333333333333</ele><time>2026-04-25T10:46:28.998Z</time></trkpt><trkpt lat="45.05128638811662" lon="5.710685131947792"><ele>320.6666666666667</ele><time>2026-04-25T10:46:29.998Z</time></trkpt><trkpt lat="45.05146164284185" lon="5.710821594554309"><ele>320.0</ele><time>2026-04-25T10:46:30.998Z</time></trkpt><trkpt lat="45.05162505007258" lon="5.710959094446419"><ele>319.33333333333337</ele><time>2026-04-25T10:46:31.998Z</time></trkpt><trkpt lat="45.051773347222046" lon="5.711079908533567"><ele>318.6666666666667</ele><time>2026-04-25T10:46:32.998Z</time></trkpt><trkpt lat="45.051901785232296" lon="5.711189340716227"><ele>318.0</ele><time>2026-04-25T10:46:33.998Z</time></trkpt><trkpt lat="45.052020176057084" lon="5.71129042319133"><ele>318.0</ele><time>2026-04-25T10:46:34.998Z</time></trkpt><trkpt lat="45.052128622650955" lon="5.711380981107277"><ele>318.0</ele><time>2026-04-25T10:46:35.998Z</time></trkpt><trkpt lat="45.052223025899856" lon="5.711459490662128"><ele>318.0</ele><time>2026-04-25T10:46:36.998Z</time></trkpt><trkpt lat="45.05232082872339" lon="5.711518573528844"><ele>318.0</ele><time>2026-04-25T10:46:37.998Z</time></trkpt><trkpt lat="45.05244879899741" lon="5.711572832103951"><ele>316.6666666666667</ele><time>2026-04-25T10:46:38.998Z</time></trkpt><trkpt lat="45.052562512018305" lon="5.711633443461377"><ele>315.33333333333337</ele><time>2026-04-25T10:46:39.998Z</time></trkpt><trkpt lat="45.05265380313996" lon="5.711835291842814"><ele>314.0</ele><time>2026-04-25T10:46:40.998Z</time></trkpt><trkpt lat="45.05275924162425" lon="5.712013137469149"><ele>314.0</ele><time>2026-04-25T10:46:42Z</time></trkpt><trkpt lat="45.05289809131011" lon="5.712177684114353"><ele>314.0</ele><time>2026-04-25T10:46:43Z</time></trkpt><trkpt lat="45.053052191151494" lon="5.712340675279369"><ele>314.0</ele><time>2026-04-25T10:46:44Z</time></trkpt><trkpt lat="45.05319872740297" lon="5.712490883538932"><ele>314.0</ele><time>2026-04-25T10:46:45Z</time></trkpt><trkpt lat="45.053353436823244" lon="5.712635051307392"><ele>314.0</ele><time>2026-04-25T10:46:46Z</time></trkpt><trkpt lat="45.053520663199286" lon="5.712791031769704"><ele>314.0</ele><time>2026-04-25T10:46:47Z</time></trkpt><trkpt lat="45.05370126906687" lon="5.712952863607399"><ele>314.0</ele><time>2026-04-25T10:46:48Z</time></trkpt><trkpt lat="45.053878927756145" lon="5.713145064643884"><ele>314.0</ele><time>2026-04-25T10:46:49Z</time></trkpt><trkpt lat="45.05405918520227" lon="5.7133218163115345"><ele>314.0</ele><time>2026-04-25T10:46:50Z</time></trkpt><trkpt lat="45.05424333844816" lon="5.713502387965048"><ele>315.0</ele><time>2026-04-25T10:46:51Z</time></trkpt><trkpt lat="45.05443031758822" lon="5.713685595508408"><ele>316.0</ele><time>2026-04-25T10:46:52Z</time></trkpt><trkpt lat="45.05462037154527" lon="5.713855455488611"><ele>316.0</ele><time>2026-04-25T10:46:53Z</time></trkpt><trkpt lat="45.05480167407206" lon="5.714044571950335"><ele>316.0</ele><time>2026-04-25T10:46:54Z</time></trkpt><trkpt lat="45.05498592631665" lon="5.714228997854304"><ele>317.66666666666663</ele><time>2026-04-25T10:46:55Z</time></trkpt><trkpt lat="45.055164531128106" lon="5.714410231497782"><ele>319.3333333333333</ele><time>2026-04-25T10:46:56Z</time></trkpt><trkpt lat="45.055346640953914" lon="5.714583769727568"><ele>321.0</ele><time>2026-04-25T10:46:57Z</time></trkpt><trkpt lat="45.05552554204396" lon="5.7147617271758095"><ele>321.0</ele><time>2026-04-25T10:46:58Z</time></trkpt><trkpt lat="45.055705073548765" lon="5.714945143482402"><ele>321.0</ele><time>2026-04-25T10:46:59Z</time></trkpt><trkpt lat="45.05588571296397" lon="5.715124411186266"><ele>321.0</ele><time>2026-04-25T10:47:00Z</time></trkpt><trkpt lat="45.056082207453684" lon="5.715289740279221"><ele>320.5</ele><time>2026-04-25T10:47:01Z</time></trkpt><trkpt lat="45.05627881605531" lon="5.715452255219732"><ele>320.0</ele><time>2026-04-25T10:47:02Z</time></trkpt><trkpt lat="45.05648772662898" lon="5.715615500383521"><ele>307.5</ele><time>2026-04-25T10:47:03Z</time></trkpt><trkpt lat="45.05669408801423" lon="5.71578253141447"><ele>295.0</ele><time>2026-04-25T10:47:04Z</time></trkpt><trkpt lat="45.0568748364443" lon="5.7159439568130574"><ele>307.5</ele><time>2026-04-25T10:47:05Z</time></trkpt><trkpt lat="45.057071140499225" lon="5.716112485509508"><ele>320.0</ele><time>2026-04-25T10:47:06Z</time></trkpt><trkpt lat="45.057271226928094" lon="5.71627446046673"><ele>309.5</ele><time>2026-04-25T10:47:07Z</time></trkpt><trkpt lat="45.05746793351934" lon="5.716438722543182"><ele>299.0</ele><time>2026-04-25T10:47:08Z</time></trkpt><trkpt lat="45.05766708893105" lon="5.716603434677254"><ele>299.0</ele><time>2026-04-25T10:47:09Z</time></trkpt><trkpt lat="45.057867739807044" lon="5.716767737024813"><ele>299.0</ele><time>2026-04-25T10:47:10Z</time></trkpt><trkpt lat="45.05806593451281" lon="5.716935517137371"><ele>299.0</ele><time>2026-04-25T10:47:11Z</time></trkpt><trkpt lat="45.05826150137283" lon="5.717105246596695"><ele>299.0</ele><time>2026-04-25T10:47:12Z</time></trkpt><trkpt lat="45.05845621219181" lon="5.717273872485863"><ele>299.0</ele><time>2026-04-25T10:47:13Z</time></trkpt><trkpt lat="45.058656361094485" lon="5.717444474714987"><ele>299.0</ele><time>2026-04-25T10:47:14Z</time></trkpt><trkpt lat="45.058852678691885" lon="5.7176149467140664"><ele>301.5</ele><time>2026-04-25T10:47:15Z</time></trkpt><trkpt lat="45.05905498703518" lon="5.717770299110762"><ele>304.0</ele><time>2026-04-25T10:47:16Z</time></trkpt><trkpt lat="45.05924903676552" lon="5.717931266341124"><ele>304.0</ele><time>2026-04-25T10:47:17Z</time></trkpt><trkpt lat="45.059455804661326" lon="5.718082911107949"><ele>304.0</ele><time>2026-04-25T10:47:18Z</time></trkpt><trkpt lat="45.059661090039256" lon="5.718237277566562"><ele>304.0</ele><time>2026-04-25T10:47:19Z</time></trkpt><trkpt lat="45.05986508750477" lon="5.718391872433868"><ele>304.0</ele><time>2026-04-25T10:47:20Z</time></trkpt><trkpt lat="45.06006959153297" lon="5.718548668354071"><ele>305.0</ele><time>2026-04-25T10:47:21Z</time></trkpt><trkpt lat="45.060273533527045" lon="5.718704244687574"><ele>306.0</ele><time>2026-04-25T10:47:22Z</time></trkpt><trkpt lat="45.0604814181262" lon="5.718854055773638"><ele>306.0</ele><time>2026-04-25T10:47:22.999Z</time></trkpt><trkpt lat="45.06069035633548" lon="5.7190016855915"><ele>306.0</ele><time>2026-04-25T10:47:23.999Z</time></trkpt><trkpt lat="45.06089949926512" lon="5.719147119167058"><ele>306.5</ele><time>2026-04-25T10:47:24.999Z</time></trkpt><trkpt lat="45.061108280002394" lon="5.719294611824562"><ele>307.0</ele><time>2026-04-25T10:47:25.999Z</time></trkpt><trkpt lat="45.06131588974628" lon="5.719442625422698"><ele>307.0</ele><time>2026-04-25T10:47:26.999Z</time></trkpt><trkpt lat="45.061521978518066" lon="5.719597728192795"><ele>307.0</ele><time>2026-04-25T10:47:27.999Z</time></trkpt><trkpt lat="45.06173182314892" lon="5.71974896947465"><ele>296.0</ele><time>2026-04-25T10:47:28.999Z</time></trkpt><trkpt lat="45.06194181050649" lon="5.719897641563484"><ele>285.0</ele><time>2026-04-25T10:47:29.999Z</time></trkpt><trkpt lat="45.06214789727924" lon="5.720058808029405"><ele>283.5</ele><time>2026-04-25T10:47:30.999Z</time></trkpt><trkpt lat="45.06234635193032" lon="5.72023879364104"><ele>282.0</ele><time>2026-04-25T10:47:31.999Z</time></trkpt><trkpt lat="45.06253546141017" lon="5.720431875030873"><ele>282.0</ele><time>2026-04-25T10:47:32.999Z</time></trkpt><trkpt lat="45.0627229427927" lon="5.720624030014911"><ele>282.0</ele><time>2026-04-25T10:47:33.999Z</time></trkpt><trkpt lat="45.062909255177196" lon="5.720813351298093"><ele>282.0</ele><time>2026-04-25T10:47:34.999Z</time></trkpt><trkpt lat="45.063095459058566" lon="5.721004884914628"><ele>282.0</ele><time>2026-04-25T10:47:35.999Z</time></trkpt><trkpt lat="45.06327901396586" lon="5.721195182987531"><ele>282.0</ele><time>2026-04-25T10:47:36.999Z</time></trkpt><trkpt lat="45.06345283595784" lon="5.721382150016132"><ele>282.0</ele><time>2026-04-25T10:47:37.999Z</time></trkpt><trkpt lat="45.063618261422114" lon="5.721540047421386"><ele>282.0</ele><time>2026-04-25T10:47:38.999Z</time></trkpt><trkpt lat="45.0637921961783" lon="5.721652106066144"><ele>282.0</ele><time>2026-04-25T10:47:39.999Z</time></trkpt><trkpt lat="45.0639765429715" lon="5.721697668555176"><ele>282.0</ele><time>2026-04-25T10:47:40.999Z</time></trkpt><trkpt lat="45.06416880045493" lon="5.721673882599907"><ele>282.0</ele><time>2026-04-25T10:47:41.999Z</time></trkpt><trkpt lat="45.064352154091985" lon="5.721581916244944"><ele>281.3333333333333</ele><time>2026-04-25T10:47:42.999Z</time></trkpt><trkpt lat="45.06453372860653" lon="5.721469468002666"><ele>280.66666666666663</ele><time>2026-04-25T10:47:43.999Z</time></trkpt><trkpt lat="45.064728337560744" lon="5.721350625140387"><ele>280.0</ele><time>2026-04-25T10:47:44.999Z</time></trkpt><trkpt lat="45.064933602613266" lon="5.721250088289903"><ele>280.0</ele><time>2026-04-25T10:47:45.999Z</time></trkpt><trkpt lat="45.06513637123317" lon="5.7211612878485525"><ele>280.0</ele><time>2026-04-25T10:47:46.999Z</time></trkpt><trkpt lat="45.06534244322827" lon="5.72106290612793"><ele>280.0</ele><time>2026-04-25T10:47:47.999Z</time></trkpt><trkpt lat="45.065549150803584" lon="5.720976408453402"><ele>280.0</ele><time>2026-04-25T10:47:48.999Z</time></trkpt><trkpt lat="45.065755100187815" lon="5.720882489160394"><ele>280.0</ele><time>2026-04-25T10:47:49.999Z</time></trkpt><trkpt lat="45.06595222552776" lon="5.720793025483442"><ele>280.0</ele><time>2026-04-25T10:47:50.999Z</time></trkpt><trkpt lat="45.0661605670691" lon="5.720765258484319"><ele>280.0</ele><time>2026-04-25T10:47:51.999Z</time></trkpt><trkpt lat="45.06634975627698" lon="5.720827459551791"><ele>280.0</ele><time>2026-04-25T10:47:52.999Z</time></trkpt><trkpt lat="45.06654473576977" lon="5.720907934460599"><ele>280.0</ele><time>2026-04-25T10:47:53.999Z</time></trkpt><trkpt lat="45.066711955411606" lon="5.720986982790606"><ele>278.66666666666663</ele><time>2026-04-25T10:47:54.999Z</time></trkpt><trkpt lat="45.06688334952984" lon="5.721064959131121"><ele>277.3333333333333</ele><time>2026-04-25T10:47:55.999Z</time></trkpt><trkpt lat="45.0670574307467" lon="5.721144091240136"><ele>276.0</ele><time>2026-04-25T10:47:56.999Z</time></trkpt><trkpt lat="45.0672265163779" lon="5.7212268182046975"><ele>276.0</ele><time>2026-04-25T10:47:57.999Z</time></trkpt><trkpt lat="45.06739247990304" lon="5.72131525399262"><ele>276.0</ele><time>2026-04-25T10:47:58.999Z</time></trkpt><trkpt lat="45.067560507238944" lon="5.721399148513848"><ele>276.0</ele><time>2026-04-25T10:47:59.999Z</time></trkpt><trkpt lat="45.06773209978181" lon="5.721481402456028"><ele>276.0</ele><time>2026-04-25T10:48:00.999Z</time></trkpt><trkpt lat="45.067906124642896" lon="5.721567651417364"><ele>276.0</ele><time>2026-04-25T10:48:01.999Z</time></trkpt><trkpt lat="45.0680925693405" lon="5.721652024828733"><ele>276.0</ele><time>2026-04-25T10:48:02.999Z</time></trkpt><trkpt lat="45.06827031053579" lon="5.721734242133498"><ele>276.0</ele><time>2026-04-25T10:48:03.999Z</time></trkpt><trkpt lat="45.0684461472699" lon="5.721811093599441"><ele>276.0</ele><time>2026-04-25T10:48:04.999Z</time></trkpt><trkpt lat="45.06862511228532" lon="5.721896407597508"><ele>276.0</ele><time>2026-04-25T10:48:05.999Z</time></trkpt><trkpt lat="45.06880394924919" lon="5.721972226558816"><ele>276.0</ele><time>2026-04-25T10:48:06.999Z</time></trkpt><trkpt lat="45.06898160142742" lon="5.72204987235462"><ele>276.0</ele><time>2026-04-25T10:48:07.999Z</time></trkpt><trkpt lat="45.06915711321347" lon="5.722126996317716"><ele>276.0</ele><time>2026-04-25T10:48:08.999Z</time></trkpt><trkpt lat="45.0693314681595" lon="5.722204219985838"><ele>276.0</ele><time>2026-04-25T10:48:09.999Z</time></trkpt><trkpt lat="45.06950824271321" lon="5.722275164156967"><ele>276.0</ele><time>2026-04-25T10:48:10.999Z</time></trkpt><trkpt lat="45.06968381984173" lon="5.7223518550357"><ele>276.0</ele><time>2026-04-25T10:48:11.999Z</time></trkpt><trkpt lat="45.06985934157822" lon="5.72242685157577"><ele>276.0</ele><time>2026-04-25T10:48:12.999Z</time></trkpt><trkpt lat="45.07003601668858" lon="5.722496468832429"><ele>276.0</ele><time>2026-04-25T10:48:13.999Z</time></trkpt><trkpt lat="45.070210720493144" lon="5.7225662852001"><ele>276.0</ele><time>2026-04-25T10:48:14.999Z</time></trkpt><trkpt lat="45.0703814241307" lon="5.722638937615366"><ele>276.0</ele><time>2026-04-25T10:48:15.999Z</time></trkpt><trkpt lat="45.07055096318189" lon="5.722711863796297"><ele>276.0</ele><time>2026-04-25T10:48:16.999Z</time></trkpt><trkpt lat="45.07071767510832" lon="5.722780069914017"><ele>276.0</ele><time>2026-04-25T10:48:17.999Z</time></trkpt><trkpt lat="45.07088716050922" lon="5.722847694468814"><ele>275.3333333333333</ele><time>2026-04-25T10:48:18.999Z</time></trkpt><trkpt lat="45.07105274354403" lon="5.722919905459522"><ele>274.66666666666663</ele><time>2026-04-25T10:48:19.999Z</time></trkpt><trkpt lat="45.071219285022316" lon="5.722999609560527"><ele>274.0</ele><time>2026-04-25T10:48:20.999Z</time></trkpt><trkpt lat="45.07138059482753" lon="5.723069163866185"><ele>274.0</ele><time>2026-04-25T10:48:21.999Z</time></trkpt><trkpt lat="45.07152854742514" lon="5.723134614285982"><ele>274.0</ele><time>2026-04-25T10:48:22.999Z</time></trkpt><trkpt lat="45.07166625715374" lon="5.723199708532721"><ele>274.0</ele><time>2026-04-25T10:48:23.999Z</time></trkpt><trkpt lat="45.07180254331868" lon="5.7232536071009905"><ele>274.0</ele><time>2026-04-25T10:48:24.999Z</time></trkpt><trkpt lat="45.07192930861015" lon="5.723311067835355"><ele>274.3333333333333</ele><time>2026-04-25T10:48:25.999Z</time></trkpt><trkpt lat="45.072078360073505" lon="5.7233827364100405"><ele>274.6666666666667</ele><time>2026-04-25T10:48:26.999Z</time></trkpt><trkpt lat="45.072223381521646" lon="5.723453546775462"><ele>275.0</ele><time>2026-04-25T10:48:27.999Z</time></trkpt><trkpt lat="45.072370835587186" lon="5.723525439335305"><ele>275.0</ele><time>2026-04-25T10:48:28.999Z</time></trkpt><trkpt lat="45.07252091029326" lon="5.723587747095568"><ele>275.0</ele><time>2026-04-25T10:48:29.998Z</time></trkpt><trkpt lat="45.0726710055416" lon="5.7236453986158855"><ele>275.0</ele><time>2026-04-25T10:48:30.998Z</time></trkpt><trkpt lat="45.072817543442575" lon="5.7237038208462625"><ele>275.0</ele><time>2026-04-25T10:48:31.998Z</time></trkpt><trkpt lat="45.07296508494086" lon="5.723775155285433"><ele>275.0</ele><time>2026-04-25T10:48:32.998Z</time></trkpt><trkpt lat="45.07311255163572" lon="5.723851343743325"><ele>275.0</ele><time>2026-04-25T10:48:33.998Z</time></trkpt><trkpt lat="45.07326100874424" lon="5.723914552235248"><ele>274.0</ele><time>2026-04-25T10:48:34.998Z</time></trkpt><trkpt lat="45.073415982170104" lon="5.7239819302081205"><ele>273.0</ele><time>2026-04-25T10:48:35.998Z</time></trkpt><trkpt lat="45.07357100924366" lon="5.724048396500948"><ele>272.0</ele><time>2026-04-25T10:48:36.998Z</time></trkpt><trkpt lat="45.0737242226384" lon="5.724119098602631"><ele>272.0</ele><time>2026-04-25T10:48:37.998Z</time></trkpt><trkpt lat="45.07388012927429" lon="5.724186884316209"><ele>272.0</ele><time>2026-04-25T10:48:38.998Z</time></trkpt><trkpt lat="45.074042563461575" lon="5.724262287317544"><ele>272.0</ele><time>2026-04-25T10:48:39.998Z</time></trkpt><trkpt lat="45.07419655400252" lon="5.724340650734997"><ele>272.0</ele><time>2026-04-25T10:48:40.998Z</time></trkpt><trkpt lat="45.07435844481388" lon="5.724409722839822"><ele>272.0</ele><time>2026-04-25T10:48:41.998Z</time></trkpt><trkpt lat="45.07451563676504" lon="5.724477812284577"><ele>272.0</ele><time>2026-04-25T10:48:42.998Z</time></trkpt><trkpt lat="45.074666921100786" lon="5.724532052689555"><ele>272.0</ele><time>2026-04-25T10:48:43.998Z</time></trkpt><trkpt lat="45.07482356801124" lon="5.724605783538193"><ele>272.0</ele><time>2026-04-25T10:48:44.998Z</time></trkpt><trkpt lat="45.07498756449567" lon="5.724690863891192"><ele>272.0</ele><time>2026-04-25T10:48:45.998Z</time></trkpt><trkpt lat="45.07514758946811" lon="5.724767338750577"><ele>271.33333333333337</ele><time>2026-04-25T10:48:46.998Z</time></trkpt><trkpt lat="45.07530875580569" lon="5.7248360646937835"><ele>270.6666666666667</ele><time>2026-04-25T10:48:48Z</time></trkpt><trkpt lat="45.0754628693556" lon="5.724900364187769"><ele>270.0</ele><time>2026-04-25T10:48:49Z</time></trkpt><trkpt lat="45.07561990087143" lon="5.724975126790565"><ele>269.6666666666667</ele><time>2026-04-25T10:48:50Z</time></trkpt><trkpt lat="45.075777027797486" lon="5.725042493249035"><ele>269.33333333333337</ele><time>2026-04-25T10:48:51Z</time></trkpt><trkpt lat="45.075929000041405" lon="5.725109305198768"><ele>269.0</ele><time>2026-04-25T10:48:52Z</time></trkpt><trkpt lat="45.076083890146855" lon="5.725185643251608"><ele>269.33333333333337</ele><time>2026-04-25T10:48:53Z</time></trkpt><trkpt lat="45.07623678056277" lon="5.7252601332302735"><ele>269.6666666666667</ele><time>2026-04-25T10:48:54Z</time></trkpt><trkpt lat="45.07638957746887" lon="5.72532594329661"><ele>270.0</ele><time>2026-04-25T10:48:55Z</time></trkpt><trkpt lat="45.07654311320156" lon="5.725389451385027"><ele>270.0</ele><time>2026-04-25T10:48:56Z</time></trkpt><trkpt lat="45.07669818420524" lon="5.725460584130432"><ele>270.0</ele><time>2026-04-25T10:48:57Z</time></trkpt><trkpt lat="45.076849870846985" lon="5.725533507484665"><ele>270.0</ele><time>2026-04-25T10:48:58Z</time></trkpt><trkpt lat="45.07700343153173" lon="5.72560427266756"><ele>270.0</ele><time>2026-04-25T10:48:59Z</time></trkpt><trkpt lat="45.07715896125368" lon="5.725663988757364"><ele>270.0</ele><time>2026-04-25T10:49:00Z</time></trkpt><trkpt lat="45.07731993623162" lon="5.725721030779509"><ele>270.0</ele><time>2026-04-25T10:49:01Z</time></trkpt><trkpt lat="45.07747616868962" lon="5.725789199327913"><ele>269.3333333333333</ele><time>2026-04-25T10:49:02Z</time></trkpt><trkpt lat="45.07764019801413" lon="5.7258720627816375"><ele>268.66666666666663</ele><time>2026-04-25T10:49:03Z</time></trkpt><trkpt lat="45.077791571463" lon="5.725945361650127"><ele>268.0</ele><time>2026-04-25T10:49:04Z</time></trkpt><trkpt lat="45.07794963020271" lon="5.726017063367757"><ele>268.0</ele><time>2026-04-25T10:49:05Z</time></trkpt><trkpt lat="45.07810833016364" lon="5.726089073506334"><ele>268.0</ele><time>2026-04-25T10:49:06Z</time></trkpt><trkpt lat="45.07827034184031" lon="5.726156590905756"><ele>268.0</ele><time>2026-04-25T10:49:07Z</time></trkpt><trkpt lat="45.07843361657605" lon="5.726228074284827"><ele>268.3333333333333</ele><time>2026-04-25T10:49:08Z</time></trkpt><trkpt lat="45.0785952503148" lon="5.726300647714583"><ele>268.6666666666667</ele><time>2026-04-25T10:49:09Z</time></trkpt><trkpt lat="45.07875509370046" lon="5.72637527113807"><ele>269.0</ele><time>2026-04-25T10:49:10Z</time></trkpt><trkpt lat="45.0789162276374" lon="5.726448756247121"><ele>269.0</ele><time>2026-04-25T10:49:11Z</time></trkpt><trkpt lat="45.07908177055745" lon="5.726516211626938"><ele>269.0</ele><time>2026-04-25T10:49:12Z</time></trkpt><trkpt lat="45.07924950415584" lon="5.726582968151163"><ele>269.0</ele><time>2026-04-25T10:49:13Z</time></trkpt><trkpt lat="45.079416167701936" lon="5.726661337261604"><ele>268.6666666666667</ele><time>2026-04-25T10:49:14Z</time></trkpt><trkpt lat="45.07957720523948" lon="5.726739888062847"><ele>268.3333333333333</ele><time>2026-04-25T10:49:15Z</time></trkpt><trkpt lat="45.07973660962015" lon="5.7268175362394675"><ele>268.0</ele><time>2026-04-25T10:49:16Z</time></trkpt><trkpt lat="45.07990756782987" lon="5.726880845883095"><ele>268.66666666666663</ele><time>2026-04-25T10:49:17Z</time></trkpt><trkpt lat="45.08007491226231" lon="5.726948340980688"><ele>269.3333333333333</ele><time>2026-04-25T10:49:18Z</time></trkpt><trkpt lat="45.080241849099004" lon="5.727023909065626"><ele>270.0</ele><time>2026-04-25T10:49:19Z</time></trkpt><trkpt lat="45.08040378616429" lon="5.727101385687116"><ele>270.0</ele><time>2026-04-25T10:49:20Z</time></trkpt><trkpt lat="45.08054264685317" lon="5.727167221855064"><ele>270.0</ele><time>2026-04-25T10:49:21Z</time></trkpt><trkpt lat="45.08067846203586" lon="5.7272180334435765"><ele>270.0</ele><time>2026-04-25T10:49:22Z</time></trkpt><trkpt lat="45.080816628756764" lon="5.727280152572671"><ele>270.0</ele><time>2026-04-25T10:49:23Z</time></trkpt><trkpt lat="45.08094638554853" lon="5.727342455867327"><ele>269.25</ele><time>2026-04-25T10:49:24Z</time></trkpt><trkpt lat="45.081059966220614" lon="5.727395555699022"><ele>268.5</ele><time>2026-04-25T10:49:25Z</time></trkpt><trkpt lat="45.08118393794283" lon="5.727444855128385"><ele>267.75</ele><time>2026-04-25T10:49:26Z</time></trkpt><trkpt lat="45.081309407880774" lon="5.727498497147453"><ele>267.0</ele><time>2026-04-25T10:49:27Z</time></trkpt><trkpt lat="45.08144060898346" lon="5.727564798462492"><ele>267.0</ele><time>2026-04-25T10:49:28Z</time></trkpt><trkpt lat="45.081569243359745" lon="5.7276221100291265"><ele>267.0</ele><time>2026-04-25T10:49:29Z</time></trkpt><trkpt lat="45.08170062842837" lon="5.727683773069834"><ele>267.0</ele><time>2026-04-25T10:49:30Z</time></trkpt><trkpt lat="45.081835140414434" lon="5.727741991809931"><ele>267.0</ele><time>2026-04-25T10:49:31Z</time></trkpt><trkpt lat="45.081968304246715" lon="5.727799127246922"><ele>266.75</ele><time>2026-04-25T10:49:32Z</time></trkpt><trkpt lat="45.08209981004301" lon="5.72785689204863"><ele>266.5</ele><time>2026-04-25T10:49:33Z</time></trkpt><trkpt lat="45.08223675199505" lon="5.727927712560732"><ele>266.25</ele><time>2026-04-25T10:49:33.999Z</time></trkpt><trkpt lat="45.082352747121696" lon="5.727986001556323"><ele>266.0</ele><time>2026-04-25T10:49:34.999Z</time></trkpt><trkpt lat="45.08246035748526" lon="5.728019503663884"><ele>267.0</ele><time>2026-04-25T10:49:35.999Z</time></trkpt><trkpt lat="45.08258379826804" lon="5.728068620684721"><ele>268.0</ele><time>2026-04-25T10:49:36.999Z</time></trkpt><trkpt lat="45.08271002523461" lon="5.728124254927011"><ele>269.0</ele><time>2026-04-25T10:49:37.999Z</time></trkpt><trkpt lat="45.082841636033386" lon="5.728160204932729"><ele>270.0</ele><time>2026-04-25T10:49:38.999Z</time></trkpt><trkpt lat="45.08297245178194" lon="5.728201029352365"><ele>270.0</ele><time>2026-04-25T10:49:39.999Z</time></trkpt><trkpt lat="45.083095876514896" lon="5.72827978010747"><ele>270.0</ele><time>2026-04-25T10:49:40.999Z</time></trkpt><trkpt lat="45.08322293662535" lon="5.72834594485284"><ele>270.0</ele><time>2026-04-25T10:49:41.999Z</time></trkpt><trkpt lat="45.08332747871924" lon="5.728399213355934"><ele>270.0</ele><time>2026-04-25T10:49:42.999Z</time></trkpt><trkpt lat="45.08344977657088" lon="5.728456408626477"><ele>270.3333333333333</ele><time>2026-04-25T10:49:43.999Z</time></trkpt><trkpt lat="45.08361283184364" lon="5.728573045173459"><ele>270.66666666666663</ele><time>2026-04-25T10:49:44.999Z</time></trkpt><trkpt lat="45.08375404729325" lon="5.728642902258297"><ele>271.0</ele><time>2026-04-25T10:49:45.999Z</time></trkpt><trkpt lat="45.083887303546305" lon="5.728710967743712"><ele>271.0</ele><time>2026-04-25T10:49:46.999Z</time></trkpt><trkpt lat="45.084031990118675" lon="5.728771321542691"><ele>271.0</ele><time>2026-04-25T10:49:47.999Z</time></trkpt><trkpt lat="45.084165677006915" lon="5.72882991844854"><ele>271.0</ele><time>2026-04-25T10:49:48.999Z</time></trkpt><trkpt lat="45.08428488059456" lon="5.728871125918118"><ele>271.0</ele><time>2026-04-25T10:49:49.999Z</time></trkpt><trkpt lat="45.0844083450804" lon="5.728913978592532"><ele>270.5</ele><time>2026-04-25T10:49:50.999Z</time></trkpt><trkpt lat="45.08454005048282" lon="5.7289618335836545"><ele>270.0</ele><time>2026-04-25T10:49:51.999Z</time></trkpt><trkpt lat="45.084668798326184" lon="5.729020444704231"><ele>269.5</ele><time>2026-04-25T10:49:52.999Z</time></trkpt><trkpt lat="45.08479472477336" lon="5.729089339336386"><ele>269.0</ele><time>2026-04-25T10:49:53.999Z</time></trkpt><trkpt lat="45.08492167457911" lon="5.729159183035377"><ele>269.25</ele><time>2026-04-25T10:49:54.999Z</time></trkpt><trkpt lat="45.0850494101755" lon="5.729225227778828"><ele>269.5</ele><time>2026-04-25T10:49:55.999Z</time></trkpt><trkpt lat="45.0851838751007" lon="5.7292899237663315"><ele>269.75</ele><time>2026-04-25T10:49:56.999Z</time></trkpt><trkpt lat="45.08531454251011" lon="5.729342570129963"><ele>270.0</ele><time>2026-04-25T10:49:57.999Z</time></trkpt><trkpt lat="45.0854472446968" lon="5.729387364706729"><ele>270.0</ele><time>2026-04-25T10:49:58.999Z</time></trkpt><trkpt lat="45.08558570308715" lon="5.729429616582569"><ele>270.0</ele><time>2026-04-25T10:49:59.999Z</time></trkpt><trkpt lat="45.085723416552455" lon="5.72947564854871"><ele>270.0</ele><time>2026-04-25T10:50:00.999Z</time></trkpt><trkpt lat="45.08586113379307" lon="5.729527364565406"><ele>270.0</ele><time>2026-04-25T10:50:01.999Z</time></trkpt><trkpt lat="45.08599483146809" lon="5.7295867712245006"><ele>270.0</ele><time>2026-04-25T10:50:02.999Z</time></trkpt><trkpt lat="45.08613185105684" lon="5.729648216476006"><ele>270.0</ele><time>2026-04-25T10:50:03.999Z</time></trkpt><trkpt lat="45.08627265943847" lon="5.729715572855175"><ele>270.0</ele><time>2026-04-25T10:50:04.999Z</time></trkpt><trkpt lat="45.08641300663688" lon="5.729783540138995"><ele>270.0</ele><time>2026-04-25T10:50:05.999Z</time></trkpt><trkpt lat="45.08654104317166" lon="5.729862957595474"><ele>269.25</ele><time>2026-04-25T10:50:06.999Z</time></trkpt><trkpt lat="45.08665499334894" lon="5.729955113766826"><ele>268.5</ele><time>2026-04-25T10:50:07.999Z</time></trkpt><trkpt lat="45.086781199614684" lon="5.730037772961649"><ele>267.75</ele><time>2026-04-25T10:50:08.999Z</time></trkpt><trkpt lat="45.08692927564305" lon="5.730084923817125"><ele>267.0</ele><time>2026-04-25T10:50:09.999Z</time></trkpt><trkpt lat="45.087073973347906" lon="5.730122070182652"><ele>267.0</ele><time>2026-04-25T10:50:10.999Z</time></trkpt><trkpt lat="45.087215405911" lon="5.730179276563411"><ele>267.0</ele><time>2026-04-25T10:50:11.999Z</time></trkpt><trkpt lat="45.08735407358198" lon="5.730246319190769"><ele>267.0</ele><time>2026-04-25T10:50:12.999Z</time></trkpt><trkpt lat="45.0874722093447" lon="5.730345314158568"><ele>267.0</ele><time>2026-04-25T10:50:13.999Z</time></trkpt><trkpt lat="45.08756817230434" lon="5.730461766962418"><ele>266.8</ele><time>2026-04-25T10:50:14.999Z</time></trkpt><trkpt lat="45.08766668488402" lon="5.730565428627345"><ele>266.6</ele><time>2026-04-25T10:50:15.999Z</time></trkpt><trkpt lat="45.08775863845424" lon="5.7306521855914365"><ele>266.40000000000003</ele><time>2026-04-25T10:50:16.999Z</time></trkpt><trkpt lat="45.08784561836018" lon="5.73072899342546"><ele>266.2</ele><time>2026-04-25T10:50:17.999Z</time></trkpt><trkpt lat="45.08794071971992" lon="5.730805562410077"><ele>266.0</ele><time>2026-04-25T10:50:18.999Z</time></trkpt><trkpt lat="45.08803738260991" lon="5.730883666246778"><ele>266.0</ele><time>2026-04-25T10:50:19.999Z</time></trkpt><trkpt lat="45.088127431982564" lon="5.730953951452829"><ele>266.0</ele><time>2026-04-25T10:50:20.999Z</time></trkpt><trkpt lat="45.08819607058715" lon="5.731009388133942"><ele>266.0</ele><time>2026-04-25T10:50:21.999Z</time></trkpt><trkpt lat="45.08825453860123" lon="5.731059514001678"><ele>266.0</ele><time>2026-04-25T10:50:23.999Z</time></trkpt><trkpt lat="45.088312817582135" lon="5.73113205931774"><ele>266.0</ele><time>2026-04-25T10:50:30.999Z</time></trkpt><trkpt lat="45.088363525629184" lon="5.731197107926545"><ele>266.0</ele><time>2026-04-25T10:50:31.999Z</time></trkpt><trkpt lat="45.0884501063993" lon="5.731262342247769"><ele>265.2</ele><time>2026-04-25T10:50:33.999Z</time></trkpt><trkpt lat="45.08852406333484" lon="5.73115659202322"><ele>264.40000000000003</ele><time>2026-04-25T10:50:35.999Z</time></trkpt><trkpt lat="45.08853649401594" lon="5.731037026569554"><ele>263.6</ele><time>2026-04-25T10:50:36.999Z</time></trkpt><trkpt lat="45.088555290167584" lon="5.730922190204885"><ele>262.8</ele><time>2026-04-25T10:50:37.999Z</time></trkpt><trkpt lat="45.08859538015658" lon="5.730799680598532"><ele>262.0</ele><time>2026-04-25T10:50:38.999Z</time></trkpt><trkpt lat="45.08863766571819" lon="5.730686945937344"><ele>262.0</ele><time>2026-04-25T10:50:39.999Z</time></trkpt><trkpt lat="45.08869326953506" lon="5.7305511689569775"><ele>262.0</ele><time>2026-04-25T10:50:40.999Z</time></trkpt><trkpt lat="45.08875441451783" lon="5.730390493398982"><ele>262.0</ele><time>2026-04-25T10:50:41.998Z</time></trkpt><trkpt lat="45.08882689522794" lon="5.730208258525514"><ele>262.0</ele><time>2026-04-25T10:50:42.998Z</time></trkpt><trkpt lat="45.08890450225532" lon="5.73000127968098"><ele>262.3333333333333</ele><time>2026-04-25T10:50:43.998Z</time></trkpt><trkpt lat="45.08897661704098" lon="5.729804544605393"><ele>262.6666666666667</ele><time>2026-04-25T10:50:44.998Z</time></trkpt><trkpt lat="45.089053753353475" lon="5.7295998892510855"><ele>263.0</ele><time>2026-04-25T10:50:45.998Z</time></trkpt><trkpt lat="45.0891343569996" lon="5.729379021999466"><ele>262.0</ele><time>2026-04-25T10:50:46.998Z</time></trkpt><trkpt lat="45.08922515237002" lon="5.729158403834911"><ele>261.0</ele><time>2026-04-25T10:50:47.998Z</time></trkpt><trkpt lat="45.08931699572569" lon="5.7289273025832035"><ele>260.0</ele><time>2026-04-25T10:50:48.998Z</time></trkpt><trkpt lat="45.089406606216116" lon="5.728704258872667"><ele>260.33333333333337</ele><time>2026-04-25T10:50:49.998Z</time></trkpt><trkpt lat="45.08950641711938" lon="5.728480280136331"><ele>260.6666666666667</ele><time>2026-04-25T10:50:50.998Z</time></trkpt><trkpt lat="45.08961627993195" lon="5.728227724386471"><ele>261.0</ele><time>2026-04-25T10:50:51.998Z</time></trkpt><trkpt lat="45.089725236936076" lon="5.7279534842188236"><ele>262.0</ele><time>2026-04-25T10:50:52.998Z</time></trkpt><trkpt lat="45.08982979653303" lon="5.727690406450199"><ele>263.0</ele><time>2026-04-25T10:50:54Z</time></trkpt><trkpt lat="45.08993752389312" lon="5.727423675264456"><ele>264.0</ele><time>2026-04-25T10:50:55Z</time></trkpt><trkpt lat="45.090043136124144" lon="5.7271537352917266"><ele>264.6666666666667</ele><time>2026-04-25T10:50:56Z</time></trkpt><trkpt lat="45.09014407009327" lon="5.726892969124836"><ele>265.33333333333337</ele><time>2026-04-25T10:50:57Z</time></trkpt><trkpt lat="45.09024640595507" lon="5.726628234138698"><ele>266.0</ele><time>2026-04-25T10:50:58Z</time></trkpt><trkpt lat="45.09035266486017" lon="5.726364538097967"><ele>266.0</ele><time>2026-04-25T10:50:59Z</time></trkpt><trkpt lat="45.09046831379767" lon="5.726101848910377"><ele>266.0</ele><time>2026-04-25T10:51:00Z</time></trkpt><trkpt lat="45.090584474429676" lon="5.725834685889972"><ele>266.0</ele><time>2026-04-25T10:51:01Z</time></trkpt><trkpt lat="45.09070374470128" lon="5.725567889333092"><ele>266.33333333333337</ele><time>2026-04-25T10:51:02Z</time></trkpt><trkpt lat="45.09082880882602" lon="5.725312015492182"><ele>266.6666666666667</ele><time>2026-04-25T10:51:03Z</time></trkpt><trkpt lat="45.09094888679195" lon="5.725063866988517"><ele>267.0</ele><time>2026-04-25T10:51:04Z</time></trkpt><trkpt lat="45.09106589211407" lon="5.7248159590470395"><ele>267.0</ele><time>2026-04-25T10:51:05Z</time></trkpt><trkpt lat="45.09118764538286" lon="5.724591656522325"><ele>267.0</ele><time>2026-04-25T10:51:06Z</time></trkpt><trkpt lat="45.09131997897779" lon="5.724381303736576"><ele>267.0</ele><time>2026-04-25T10:51:07Z</time></trkpt><trkpt lat="45.09146125184345" lon="5.724188135659457"><ele>270.3333333333333</ele><time>2026-04-25T10:51:08Z</time></trkpt><trkpt lat="45.09160953474777" lon="5.724016180653507"><ele>273.66666666666663</ele><time>2026-04-25T10:51:09Z</time></trkpt><trkpt lat="45.091766846178544" lon="5.723859360450998"><ele>277.0</ele><time>2026-04-25T10:51:10Z</time></trkpt><trkpt lat="45.09191644480482" lon="5.7237176355003845"><ele>277.0</ele><time>2026-04-25T10:51:11Z</time></trkpt><trkpt lat="45.092066076687615" lon="5.723596209144544"><ele>277.0</ele><time>2026-04-25T10:51:12Z</time></trkpt><trkpt lat="45.09220117631598" lon="5.72348047304448"><ele>277.0</ele><time>2026-04-25T10:51:13Z</time></trkpt><trkpt lat="45.09233662127845" lon="5.723365218275804"><ele>274.5</ele><time>2026-04-25T10:51:14Z</time></trkpt><trkpt lat="45.09245796668824" lon="5.723247521288097"><ele>272.0</ele><time>2026-04-25T10:51:15Z</time></trkpt><trkpt lat="45.09256573829985" lon="5.723134608695575"><ele>269.5</ele><time>2026-04-25T10:51:16Z</time></trkpt><trkpt lat="45.092662182373836" lon="5.7230202111778965"><ele>267.0</ele><time>2026-04-25T10:51:17Z</time></trkpt><trkpt lat="45.09277416386744" lon="5.722938572855367"><ele>267.0</ele><time>2026-04-25T10:51:18Z</time></trkpt><trkpt lat="45.09287515618631" lon="5.722827572593281"><ele>267.0</ele><time>2026-04-25T10:51:19Z</time></trkpt><trkpt lat="45.09299447750412" lon="5.722714910194307"><ele>267.0</ele><time>2026-04-25T10:51:20Z</time></trkpt><trkpt lat="45.093089395231715" lon="5.722624378523891"><ele>267.0</ele><time>2026-04-25T10:51:21Z</time></trkpt><trkpt lat="45.09339472317435" lon="5.722380729015726"><ele>265.6666666666667</ele><time>2026-04-25T10:51:22Z</time></trkpt><trkpt lat="45.09352958705501" lon="5.7222556028816705"><ele>264.33333333333337</ele><time>2026-04-25T10:51:23Z</time></trkpt><trkpt lat="45.0936749799286" lon="5.7221377191319975"><ele>263.0</ele><time>2026-04-25T10:51:24Z</time></trkpt><trkpt lat="45.093824008302036" lon="5.722022962686341"><ele>263.0</ele><time>2026-04-25T10:51:25Z</time></trkpt><trkpt lat="45.09398114479863" lon="5.721898760906239"><ele>263.0</ele><time>2026-04-25T10:51:26Z</time></trkpt><trkpt lat="45.094144338769226" lon="5.721776868772788"><ele>263.0</ele><time>2026-04-25T10:51:27Z</time></trkpt><trkpt lat="45.09431364912487" lon="5.721653875442983"><ele>262.33333333333337</ele><time>2026-04-25T10:51:28Z</time></trkpt><trkpt lat="45.09448146557685" lon="5.721529541638375"><ele>261.6666666666667</ele><time>2026-04-25T10:51:29Z</time></trkpt><trkpt lat="45.09464797384362" lon="5.721406371789895"><ele>261.0</ele><time>2026-04-25T10:51:30Z</time></trkpt><trkpt lat="45.09481807000173" lon="5.721281183263869"><ele>261.0</ele><time>2026-04-25T10:51:31Z</time></trkpt><trkpt lat="45.09498452739419" lon="5.721149004906499"><ele>261.0</ele><time>2026-04-25T10:51:32Z</time></trkpt><trkpt lat="45.095151741632755" lon="5.721015239913683"><ele>261.0</ele><time>2026-04-25T10:51:33Z</time></trkpt><trkpt lat="45.09532116343053" lon="5.720880446472023"><ele>261.0</ele><time>2026-04-25T10:51:33.999Z</time></trkpt><trkpt lat="45.09549192185086" lon="5.7207481739465615"><ele>261.0</ele><time>2026-04-25T10:51:34.999Z</time></trkpt><trkpt lat="45.095661405613924" lon="5.720604257908749"><ele>261.0</ele><time>2026-04-25T10:51:35.999Z</time></trkpt><trkpt lat="45.095831975004934" lon="5.720462011517067"><ele>260.3333333333333</ele><time>2026-04-25T10:51:36.999Z</time></trkpt><trkpt lat="45.09600674001877" lon="5.720315622537376"><ele>259.66666666666663</ele><time>2026-04-25T10:51:37.999Z</time></trkpt><trkpt lat="45.096181387438804" lon="5.720167665637224"><ele>259.0</ele><time>2026-04-25T10:51:38.999Z</time></trkpt><trkpt lat="45.09636154054721" lon="5.720018166761658"><ele>258.66666666666663</ele><time>2026-04-25T10:51:39.999Z</time></trkpt><trkpt lat="45.096549065871606" lon="5.71987051188963"><ele>258.3333333333333</ele><time>2026-04-25T10:51:40.999Z</time></trkpt><trkpt lat="45.096734051908626" lon="5.719727516917892"><ele>258.0</ele><time>2026-04-25T10:51:41.999Z</time></trkpt><trkpt lat="45.096920038786855" lon="5.719584111247745"><ele>258.0</ele><time>2026-04-25T10:51:42.999Z</time></trkpt><trkpt lat="45.097110434098916" lon="5.719431283127339"><ele>258.0</ele><time>2026-04-25T10:51:43.999Z</time></trkpt><trkpt lat="45.097292566044985" lon="5.71927688041977"><ele>258.0</ele><time>2026-04-25T10:51:44.999Z</time></trkpt><trkpt lat="45.097474637860536" lon="5.719125269277882"><ele>258.0</ele><time>2026-04-25T10:51:45.999Z</time></trkpt><trkpt lat="45.097654738250824" lon="5.718971964988049"><ele>258.0</ele><time>2026-04-25T10:51:46.999Z</time></trkpt><trkpt lat="45.09783387617754" lon="5.718823240001278"><ele>258.0</ele><time>2026-04-25T10:51:47.999Z</time></trkpt><trkpt lat="45.09801043137809" lon="5.718681046002076"><ele>258.0</ele><time>2026-04-25T10:51:48.999Z</time></trkpt><trkpt lat="45.09818556711485" lon="5.718539164513657"><ele>258.0</ele><time>2026-04-25T10:51:49.999Z</time></trkpt><trkpt lat="45.09835457159082" lon="5.718402182208015"><ele>258.0</ele><time>2026-04-25T10:51:50.999Z</time></trkpt><trkpt lat="45.098523767870326" lon="5.718274495796756"><ele>257.6666666666667</ele><time>2026-04-25T10:51:51.999Z</time></trkpt><trkpt lat="45.09868836273314" lon="5.718141170579209"><ele>257.33333333333337</ele><time>2026-04-25T10:51:52.999Z</time></trkpt><trkpt lat="45.098851263016776" lon="5.7180060259786565"><ele>257.0</ele><time>2026-04-25T10:51:53.999Z</time></trkpt><trkpt lat="45.099009537014254" lon="5.717881855086477"><ele>256.6666666666667</ele><time>2026-04-25T10:51:54.999Z</time></trkpt><trkpt lat="45.09917096463485" lon="5.717755701989393"><ele>256.3333333333333</ele><time>2026-04-25T10:51:55.999Z</time></trkpt><trkpt lat="45.09932975997022" lon="5.717625694253138"><ele>256.0</ele><time>2026-04-25T10:51:56.999Z</time></trkpt><trkpt lat="45.099490507978096" lon="5.717499113542856"><ele>255.66666666666666</ele><time>2026-04-25T10:51:57.999Z</time></trkpt><trkpt lat="45.09965448244209" lon="5.717365655299102"><ele>255.33333333333331</ele><time>2026-04-25T10:51:58.999Z</time></trkpt><trkpt lat="45.09982151999309" lon="5.717231166191597"><ele>255.0</ele><time>2026-04-25T10:51:59.999Z</time></trkpt><trkpt lat="45.099989271945" lon="5.717093711342124"><ele>254.66666666666669</ele><time>2026-04-25T10:52:00.999Z</time></trkpt><trkpt lat="45.10015508591471" lon="5.716952035940706"><ele>254.33333333333334</ele><time>2026-04-25T10:52:01.999Z</time></trkpt><trkpt lat="45.10031414244075" lon="5.716795384182973"><ele>254.0</ele><time>2026-04-25T10:52:02.999Z</time></trkpt><trkpt lat="45.10046588917764" lon="5.716626703718555"><ele>254.0</ele><time>2026-04-25T10:52:03.999Z</time></trkpt><trkpt lat="45.10061625470776" lon="5.716453638901655"><ele>254.0</ele><time>2026-04-25T10:52:04.999Z</time></trkpt><trkpt lat="45.10076800988948" lon="5.716282732996627"><ele>254.0</ele><time>2026-04-25T10:52:05.999Z</time></trkpt><trkpt lat="45.100920843606254" lon="5.71611604722861"><ele>254.66666666666669</ele><time>2026-04-25T10:52:06.999Z</time></trkpt><trkpt lat="45.10107513138022" lon="5.71595040607382"><ele>255.33333333333331</ele><time>2026-04-25T10:52:07.999Z</time></trkpt><trkpt lat="45.10123414246875" lon="5.715798981305456"><ele>256.0</ele><time>2026-04-25T10:52:08.999Z</time></trkpt><trkpt lat="45.10140046175085" lon="5.71566037905363"><ele>256.0</ele><time>2026-04-25T10:52:09.999Z</time></trkpt><trkpt lat="45.10157555113429" lon="5.715545489734903"><ele>256.0</ele><time>2026-04-25T10:52:10.999Z</time></trkpt><trkpt lat="45.10174253189162" lon="5.715460327452005"><ele>256.0</ele><time>2026-04-25T10:52:11.999Z</time></trkpt><trkpt lat="45.1018929280905" lon="5.715360994996125"><ele>255.66666666666666</ele><time>2026-04-25T10:52:12.999Z</time></trkpt><trkpt lat="45.10203491811825" lon="5.715245021513743"><ele>255.33333333333331</ele><time>2026-04-25T10:52:13.999Z</time></trkpt><trkpt lat="45.10215553749384" lon="5.715121133934386"><ele>255.0</ele><time>2026-04-25T10:52:14.999Z</time></trkpt><trkpt lat="45.10225718480203" lon="5.714984728059475"><ele>255.0</ele><time>2026-04-25T10:52:15.999Z</time></trkpt><trkpt lat="45.10234282473819" lon="5.7148356244504015"><ele>255.0</ele><time>2026-04-25T10:52:16.999Z</time></trkpt><trkpt lat="45.10241492003372" lon="5.714682515612106"><ele>255.0</ele><time>2026-04-25T10:52:17.999Z</time></trkpt><trkpt lat="45.10248444390352" lon="5.7145295344518265"><ele>255.0</ele><time>2026-04-25T10:52:18.999Z</time></trkpt><trkpt lat="45.10254652822649" lon="5.714380494130801"><ele>255.0</ele><time>2026-04-25T10:52:19.999Z</time></trkpt><trkpt lat="45.10260394889476" lon="5.714239776701506"><ele>255.0</ele><time>2026-04-25T10:52:20.999Z</time></trkpt><trkpt lat="45.10267670303408" lon="5.714104624072215"><ele>255.0</ele><time>2026-04-25T10:52:21.999Z</time></trkpt><trkpt lat="45.10278259381363" lon="5.714011515016719"><ele>255.0</ele><time>2026-04-25T10:52:22.999Z</time></trkpt><trkpt lat="45.102912176991495" lon="5.7139287166495"><ele>255.0</ele><time>2026-04-25T10:52:23.999Z</time></trkpt><trkpt lat="45.103056145924015" lon="5.713837547065646"><ele>255.0</ele><time>2026-04-25T10:52:24.999Z</time></trkpt><trkpt lat="45.10322017766751" lon="5.713799013124146"><ele>255.0</ele><time>2026-04-25T10:52:25.999Z</time></trkpt><trkpt lat="45.10341086090681" lon="5.713815519471286"><ele>255.0</ele><time>2026-04-25T10:52:26.999Z</time></trkpt><trkpt lat="45.10362198679607" lon="5.713831799659755"><ele>255.0</ele><time>2026-04-25T10:52:27.999Z</time></trkpt><trkpt lat="45.1038408141414" lon="5.713801622199414"><ele>255.0</ele><time>2026-04-25T10:52:28.999Z</time></trkpt><trkpt lat="45.104064399783105" lon="5.713726434308506"><ele>255.0</ele><time>2026-04-25T10:52:29.999Z</time></trkpt><trkpt lat="45.10428484974177" lon="5.713611085521683"><ele>255.0</ele><time>2026-04-25T10:52:30.999Z</time></trkpt><trkpt lat="45.104492770038526" lon="5.71346843087633"><ele>255.0</ele><time>2026-04-25T10:52:31.999Z</time></trkpt><trkpt lat="45.104698948693446" lon="5.713298255091634"><ele>255.0</ele><time>2026-04-25T10:52:32.999Z</time></trkpt><trkpt lat="45.104907484560364" lon="5.713131568995476"><ele>255.5</ele><time>2026-04-25T10:52:33.999Z</time></trkpt><trkpt lat="45.10511582772892" lon="5.712965902636667"><ele>256.0</ele><time>2026-04-25T10:52:34.999Z</time></trkpt><trkpt lat="45.10532489056469" lon="5.712799443491246"><ele>255.5</ele><time>2026-04-25T10:52:35.999Z</time></trkpt><trkpt lat="45.10552152540749" lon="5.712638671181338"><ele>255.0</ele><time>2026-04-25T10:52:36.999Z</time></trkpt><trkpt lat="45.105718100330606" lon="5.712486036097329"><ele>255.0</ele><time>2026-04-25T10:52:37.999Z</time></trkpt><trkpt lat="45.10591391545531" lon="5.712329097788535"><ele>255.0</ele><time>2026-04-25T10:52:38.999Z</time></trkpt><trkpt lat="45.106110807408236" lon="5.7121647357973035"><ele>255.0</ele><time>2026-04-25T10:52:39.999Z</time></trkpt><trkpt lat="45.106306754105674" lon="5.711996846066753"><ele>255.0</ele><time>2026-04-25T10:52:40.999Z</time></trkpt><trkpt lat="45.10650517933887" lon="5.711838430966221"><ele>253.5</ele><time>2026-04-25T10:52:41.999Z</time></trkpt><trkpt lat="45.106703700758864" lon="5.711680810811223"><ele>252.0</ele><time>2026-04-25T10:52:42.998Z</time></trkpt><trkpt lat="45.10690121034163" lon="5.711518329323795"><ele>252.0</ele><time>2026-04-25T10:52:43.998Z</time></trkpt><trkpt lat="45.1070988947977" lon="5.711358579461646"><ele>252.0</ele><time>2026-04-25T10:52:44.998Z</time></trkpt><trkpt lat="45.10729834051552" lon="5.7111970926062945"><ele>252.5</ele><time>2026-04-25T10:52:45.998Z</time></trkpt><trkpt lat="45.10750284854023" lon="5.711034310803714"><ele>253.0</ele><time>2026-04-25T10:52:46.998Z</time></trkpt><trkpt lat="45.10770303563593" lon="5.710873607589853"><ele>253.0</ele><time>2026-04-25T10:52:47.998Z</time></trkpt><trkpt lat="45.10789900772938" lon="5.710715801289729"><ele>253.0</ele><time>2026-04-25T10:52:48.998Z</time></trkpt><trkpt lat="45.108095064256986" lon="5.710557011859546"><ele>254.5</ele><time>2026-04-25T10:52:49.998Z</time></trkpt><trkpt lat="45.10829309862997" lon="5.7104002034488905"><ele>256.0</ele><time>2026-04-25T10:52:50.998Z</time></trkpt><trkpt lat="45.10849148630372" lon="5.710241940376639"><ele>255.33333333333331</ele><time>2026-04-25T10:52:51.998Z</time></trkpt><trkpt lat="45.10868556638077" lon="5.710086454248595"><ele>254.66666666666669</ele><time>2026-04-25T10:52:52.998Z</time></trkpt><trkpt lat="45.108879358943376" lon="5.7099265258266785"><ele>254.0</ele><time>2026-04-25T10:52:53.998Z</time></trkpt><trkpt lat="45.109076479324216" lon="5.709773999503148"><ele>254.33333333333334</ele><time>2026-04-25T10:52:54.998Z</time></trkpt><trkpt lat="45.109265422476206" lon="5.709616677458352"><ele>254.66666666666669</ele><time>2026-04-25T10:52:55.998Z</time></trkpt><trkpt lat="45.10944479399119" lon="5.709454496319298"><ele>255.0</ele><time>2026-04-25T10:52:56.998Z</time></trkpt><trkpt lat="45.109623025118154" lon="5.709291072564111"><ele>255.0</ele><time>2026-04-25T10:52:57.998Z</time></trkpt><trkpt lat="45.10979180962092" lon="5.709144857104143"><ele>255.0</ele><time>2026-04-25T10:52:58.998Z</time></trkpt><trkpt lat="45.10995865936556" lon="5.709024315414201"><ele>255.0</ele><time>2026-04-25T10:53:00Z</time></trkpt><trkpt lat="45.11011116903457" lon="5.708894157822871"><ele>254.0</ele><time>2026-04-25T10:53:01Z</time></trkpt><trkpt lat="45.11025954692049" lon="5.7087782572678"><ele>253.0</ele><time>2026-04-25T10:53:02Z</time></trkpt><trkpt lat="45.11039494975438" lon="5.708666691689033"><ele>252.0</ele><time>2026-04-25T10:53:03Z</time></trkpt><trkpt lat="45.1105246517378" lon="5.708560132507803"><ele>252.0</ele><time>2026-04-25T10:53:04Z</time></trkpt><trkpt lat="45.11065332051452" lon="5.708458623557148"><ele>252.0</ele><time>2026-04-25T10:53:05Z</time></trkpt><trkpt lat="45.1107827510568" lon="5.708357558094098"><ele>252.0</ele><time>2026-04-25T10:53:06Z</time></trkpt><trkpt lat="45.11092012998071" lon="5.708244776245886"><ele>253.0</ele><time>2026-04-25T10:53:07Z</time></trkpt><trkpt lat="45.11105482344755" lon="5.708141344968279"><ele>254.0</ele><time>2026-04-25T10:53:08Z</time></trkpt><trkpt lat="45.11118969928387" lon="5.708038373950589"><ele>255.0</ele><time>2026-04-25T10:53:09Z</time></trkpt><trkpt lat="45.11132804598459" lon="5.70793323445104"><ele>255.0</ele><time>2026-04-25T10:53:10Z</time></trkpt><trkpt lat="45.111465690338335" lon="5.707824748473897"><ele>255.0</ele><time>2026-04-25T10:53:11Z</time></trkpt><trkpt lat="45.11160268966065" lon="5.707709807010992"><ele>255.0</ele><time>2026-04-25T10:53:12Z</time></trkpt><trkpt lat="45.11174101229305" lon="5.707592445691916"><ele>254.33333333333331</ele><time>2026-04-25T10:53:13Z</time></trkpt><trkpt lat="45.11187907292747" lon="5.707478567450705"><ele>253.66666666666666</ele><time>2026-04-25T10:53:14Z</time></trkpt><trkpt lat="45.11201837908469" lon="5.707369891923875"><ele>253.0</ele><time>2026-04-25T10:53:15Z</time></trkpt><trkpt lat="45.11215581952239" lon="5.707254339926587"><ele>253.0</ele><time>2026-04-25T10:53:16Z</time></trkpt><trkpt lat="45.11229149152293" lon="5.707144404374714"><ele>253.0</ele><time>2026-04-25T10:53:17Z</time></trkpt><trkpt lat="45.11243017108139" lon="5.707031843363881"><ele>253.0</ele><time>2026-04-25T10:53:18Z</time></trkpt><trkpt lat="45.11257004835117" lon="5.706920423390071"><ele>253.25</ele><time>2026-04-25T10:53:19Z</time></trkpt><trkpt lat="45.11270680377932" lon="5.706811744768946"><ele>253.5</ele><time>2026-04-25T10:53:20Z</time></trkpt><trkpt lat="45.11283557854052" lon="5.706707814759595"><ele>253.75</ele><time>2026-04-25T10:53:21Z</time></trkpt><trkpt lat="45.11295921104615" lon="5.706613479385977"><ele>254.0</ele><time>2026-04-25T10:53:22Z</time></trkpt><trkpt lat="45.11307345574854" lon="5.706522005235128"><ele>254.0</ele><time>2026-04-25T10:53:23Z</time></trkpt><trkpt lat="45.11318293770639" lon="5.706431636496058"><ele>254.0</ele><time>2026-04-25T10:53:24Z</time></trkpt><trkpt lat="45.11330001185414" lon="5.706360897083385"><ele>254.0</ele><time>2026-04-25T10:53:25Z</time></trkpt><trkpt lat="45.113422558228685" lon="5.7063051317696445"><ele>254.0</ele><time>2026-04-25T10:53:26Z</time></trkpt><trkpt lat="45.11354515872423" lon="5.706242654893237"><ele>253.25</ele><time>2026-04-25T10:53:27Z</time></trkpt><trkpt lat="45.11366789796413" lon="5.706153188724104"><ele>252.5</ele><time>2026-04-25T10:53:28Z</time></trkpt><trkpt lat="45.113773853078314" lon="5.706056511698102"><ele>251.75</ele><time>2026-04-25T10:53:29Z</time></trkpt><trkpt lat="45.11387458332508" lon="5.705958321710269"><ele>251.0</ele><time>2026-04-25T10:53:30Z</time></trkpt><trkpt lat="45.11396239436749" lon="5.705880007612058"><ele>251.0</ele><time>2026-04-25T10:53:31Z</time></trkpt><trkpt lat="45.11404563015531" lon="5.705804163495236"><ele>251.00000000000003</ele><time>2026-04-25T10:53:32Z</time></trkpt><trkpt lat="45.11411837059904" lon="5.705725608106065"><ele>251.00000000000003</ele><time>2026-04-25T10:53:33Z</time></trkpt><trkpt lat="45.114204057735904" lon="5.705660115275471"><ele>251.0</ele><time>2026-04-25T10:53:34Z</time></trkpt><trkpt lat="45.114311654111106" lon="5.705671421342286"><ele>251.0</ele><time>2026-04-25T10:53:35Z</time></trkpt><trkpt lat="45.11441520311404" lon="5.705719889543074"><ele>251.0</ele><time>2026-04-25T10:53:36Z</time></trkpt><trkpt lat="45.11450705983026" lon="5.705798992764266"><ele>251.00000000000003</ele><time>2026-04-25T10:53:37Z</time></trkpt><trkpt lat="45.114560437862885" lon="5.705917815314651"><ele>251.00000000000003</ele><time>2026-04-25T10:53:38Z</time></trkpt><trkpt lat="45.11456171746515" lon="5.706058671935138"><ele>251.0</ele><time>2026-04-25T10:53:39Z</time></trkpt><trkpt lat="45.11451468643055" lon="5.7061840785377544"><ele>251.0</ele><time>2026-04-25T10:53:40Z</time></trkpt><trkpt lat="45.11442147445657" lon="5.7062917266666995"><ele>250.75</ele><time>2026-04-25T10:53:40.999Z</time></trkpt><trkpt lat="45.11433446135315" lon="5.706397000817266"><ele>250.5</ele><time>2026-04-25T10:53:41.999Z</time></trkpt><trkpt lat="45.114246700857755" lon="5.706515164172896"><ele>250.25</ele><time>2026-04-25T10:53:42.999Z</time></trkpt><trkpt lat="45.11416184926139" lon="5.7066493734695145"><ele>250.0</ele><time>2026-04-25T10:53:43.999Z</time></trkpt><trkpt lat="45.11407447208368" lon="5.706795314817734"><ele>250.75</ele><time>2026-04-25T10:53:44.999Z</time></trkpt><trkpt lat="45.113984025200374" lon="5.706938846910233"><ele>251.5</ele><time>2026-04-25T10:53:45.999Z</time></trkpt><trkpt lat="45.11388137936841" lon="5.7070830660727365"><ele>252.25</ele><time>2026-04-25T10:53:46.999Z</time></trkpt><trkpt lat="45.113776110506265" lon="5.707207231830822"><ele>253.0</ele><time>2026-04-25T10:53:47.999Z</time></trkpt><trkpt lat="45.113672668234955" lon="5.7072928979472195"><ele>253.0</ele><time>2026-04-25T10:53:48.999Z</time></trkpt><trkpt lat="45.113570543168926" lon="5.7073497897066305"><ele>253.0</ele><time>2026-04-25T10:53:49.999Z</time></trkpt><trkpt lat="45.1134819318481" lon="5.707425841593448"><ele>253.0</ele><time>2026-04-25T10:53:50.999Z</time></trkpt><trkpt lat="45.113414895255744" lon="5.707550486948657"><ele>253.0</ele><time>2026-04-25T10:53:51.999Z</time></trkpt><trkpt lat="45.11337781856785" lon="5.707698755035357"><ele>253.0</ele><time>2026-04-25T10:53:52.999Z</time></trkpt><trkpt lat="45.113358715821796" lon="5.7078266018549275"><ele>254.33333333333331</ele><time>2026-04-25T10:53:53.999Z</time></trkpt><trkpt lat="45.113359188839496" lon="5.7079417023469"><ele>255.66666666666666</ele><time>2026-04-25T10:53:54.999Z</time></trkpt><trkpt lat="45.11338597921521" lon="5.708031019300027"><ele>257.0</ele><time>2026-04-25T10:53:55.999Z</time></trkpt><trkpt lat="45.11344276644813" lon="5.7080933552495114"><ele>258.3333333333333</ele><time>2026-04-25T10:53:56.999Z</time></trkpt><trkpt lat="45.113529853042664" lon="5.708115003136303"><ele>259.6666666666667</ele><time>2026-04-25T10:53:57.999Z</time></trkpt><trkpt lat="45.11364137146753" lon="5.708099262708388"><ele>261.0</ele><time>2026-04-25T10:53:58.999Z</time></trkpt><trkpt lat="45.11378194671013" lon="5.708069074014557"><ele>261.0</ele><time>2026-04-25T10:53:59.999Z</time></trkpt><trkpt lat="45.113934034564345" lon="5.708035031604487"><ele>261.0</ele><time>2026-04-25T10:54:00.999Z</time></trkpt><trkpt lat="45.11410253643615" lon="5.7080069897331125"><ele>261.0</ele><time>2026-04-25T10:54:01.999Z</time></trkpt><trkpt lat="45.114278296459084" lon="5.707997478911281"><ele>260.6666666666667</ele><time>2026-04-25T10:54:02.999Z</time></trkpt><trkpt lat="45.11446027814088" lon="5.707989453883208"><ele>260.33333333333337</ele><time>2026-04-25T10:54:03.999Z</time></trkpt><trkpt lat="45.11464262819936" lon="5.707981288171881"><ele>260.0</ele><time>2026-04-25T10:54:04.999Z</time></trkpt><trkpt lat="45.114814206231046" lon="5.707973052739575"><ele>260.0</ele><time>2026-04-25T10:54:05.999Z</time></trkpt><trkpt lat="45.1149831383302" lon="5.707966691362795"><ele>260.0</ele><time>2026-04-25T10:54:06.999Z</time></trkpt><trkpt lat="45.11516146992031" lon="5.707951519733429"><ele>260.0</ele><time>2026-04-25T10:54:07.999Z</time></trkpt><trkpt lat="45.11534218097209" lon="5.707944925880752"><ele>260.0</ele><time>2026-04-25T10:54:08.999Z</time></trkpt><trkpt lat="45.115526949341934" lon="5.707935587460575"><ele>260.0</ele><time>2026-04-25T10:54:09.999Z</time></trkpt><trkpt lat="45.115709947310776" lon="5.707956669651035"><ele>260.0</ele><time>2026-04-25T10:54:10.999Z</time></trkpt><trkpt lat="45.11588924082205" lon="5.708005767177394"><ele>258.33333333333337</ele><time>2026-04-25T10:54:11.999Z</time></trkpt><trkpt lat="45.116072523564235" lon="5.708085837248618"><ele>256.6666666666667</ele><time>2026-04-25T10:54:12.999Z</time></trkpt><trkpt lat="45.11625169263408" lon="5.708184450115363"><ele>255.0</ele><time>2026-04-25T10:54:13.999Z</time></trkpt><trkpt lat="45.116433193410664" lon="5.708255035968529"><ele>256.0</ele><time>2026-04-25T10:54:14.999Z</time></trkpt><trkpt lat="45.11662250477149" lon="5.708336725645249"><ele>257.0</ele><time>2026-04-25T10:54:15.999Z</time></trkpt><trkpt lat="45.11681456718492" lon="5.708396691205193"><ele>258.0</ele><time>2026-04-25T10:54:16.999Z</time></trkpt><trkpt lat="45.117003555280256" lon="5.708477211149444"><ele>258.0</ele><time>2026-04-25T10:54:17.999Z</time></trkpt><trkpt lat="45.11717607020468" lon="5.708621682854107"><ele>258.0</ele><time>2026-04-25T10:54:18.999Z</time></trkpt><trkpt lat="45.11735577859048" lon="5.7087592657139865"><ele>258.0</ele><time>2026-04-25T10:54:19.999Z</time></trkpt><trkpt lat="45.11750876240197" lon="5.708959310875095"><ele>258.0</ele><time>2026-04-25T10:54:20.999Z</time></trkpt><trkpt lat="45.117664743624445" lon="5.70915848436817"><ele>258.0</ele><time>2026-04-25T10:54:21.999Z</time></trkpt><trkpt lat="45.11782950352948" lon="5.709351267595373"><ele>258.0</ele><time>2026-04-25T10:54:22.999Z</time></trkpt><trkpt lat="45.1179778876914" lon="5.709552951904497"><ele>259.0</ele><time>2026-04-25T10:54:23.999Z</time></trkpt><trkpt lat="45.1181333083207" lon="5.709760131829147"><ele>260.0</ele><time>2026-04-25T10:54:24.999Z</time></trkpt><trkpt lat="45.118300970869264" lon="5.709953383021856"><ele>261.0</ele><time>2026-04-25T10:54:25.999Z</time></trkpt><trkpt lat="45.11847719026814" lon="5.7101352573355335"><ele>265.3333333333333</ele><time>2026-04-25T10:54:26.999Z</time></trkpt><trkpt lat="45.118660833117346" lon="5.7102974725539575"><ele>269.66666666666663</ele><time>2026-04-25T10:54:27.999Z</time></trkpt><trkpt lat="45.118856348533676" lon="5.710446190775207"><ele>274.0</ele><time>2026-04-25T10:54:28.999Z</time></trkpt><trkpt lat="45.11905840769256" lon="5.710590209149295"><ele>270.66666666666663</ele><time>2026-04-25T10:54:29.999Z</time></trkpt><trkpt lat="45.119261893415015" lon="5.710705182097162"><ele>267.3333333333333</ele><time>2026-04-25T10:54:30.999Z</time></trkpt><trkpt lat="45.11946746555772" lon="5.710796839190447"><ele>264.0</ele><time>2026-04-25T10:54:31.999Z</time></trkpt><trkpt lat="45.119671499577976" lon="5.710872481201916"><ele>264.0</ele><time>2026-04-25T10:54:32.999Z</time></trkpt><trkpt lat="45.11988065857869" lon="5.7109328390968335"><ele>264.0</ele><time>2026-04-25T10:54:33.999Z</time></trkpt><trkpt lat="45.12009661061288" lon="5.710974920006282"><ele>264.0</ele><time>2026-04-25T10:54:34.999Z</time></trkpt><trkpt lat="45.12031209181147" lon="5.71100248825682"><ele>260.3333333333333</ele><time>2026-04-25T10:54:35.999Z</time></trkpt><trkpt lat="45.120528969846426" lon="5.711002754402172"><ele>256.66666666666663</ele><time>2026-04-25T10:54:36.999Z</time></trkpt><trkpt lat="45.12074732387799" lon="5.711008798148488"><ele>253.0</ele><time>2026-04-25T10:54:37.999Z</time></trkpt><trkpt lat="45.120962037404546" lon="5.711013656230093"><ele>251.33333333333331</ele><time>2026-04-25T10:54:38.999Z</time></trkpt><trkpt lat="45.12118120975475" lon="5.711032011202047"><ele>249.66666666666669</ele><time>2026-04-25T10:54:39.999Z</time></trkpt><trkpt lat="45.121401449019196" lon="5.71103699586963"><ele>248.0</ele><time>2026-04-25T10:54:40.999Z</time></trkpt><trkpt lat="45.12161388670958" lon="5.711054789657736"><ele>248.0</ele><time>2026-04-25T10:54:41.999Z</time></trkpt><trkpt lat="45.121834875921785" lon="5.711068277897111"><ele>248.0</ele><time>2026-04-25T10:54:42.999Z</time></trkpt><trkpt lat="45.122056266917625" lon="5.711075123204218"><ele>248.0</ele><time>2026-04-25T10:54:43.999Z</time></trkpt><trkpt lat="45.122282956672024" lon="5.7110832198308135"><ele>258.33333333333337</ele><time>2026-04-25T10:54:44.999Z</time></trkpt><trkpt lat="45.12250238676045" lon="5.711103751274478"><ele>268.6666666666667</ele><time>2026-04-25T10:54:45.999Z</time></trkpt><trkpt lat="45.12272200598755" lon="5.711131438733394"><ele>279.0</ele><time>2026-04-25T10:54:46.999Z</time></trkpt><trkpt lat="45.12295003004278" lon="5.711136130590251"><ele>279.0</ele><time>2026-04-25T10:54:47.999Z</time></trkpt><trkpt lat="45.12317026717071" lon="5.711174177282446"><ele>279.0</ele><time>2026-04-25T10:54:48.999Z</time></trkpt><trkpt lat="45.123391064948024" lon="5.711156487878415"><ele>279.0</ele><time>2026-04-25T10:54:49.999Z</time></trkpt><trkpt lat="45.12360965498162" lon="5.711188036538517"><ele>276.0</ele><time>2026-04-25T10:54:50.999Z</time></trkpt><trkpt lat="45.12384725011792" lon="5.711217467602765"><ele>273.0</ele><time>2026-04-25T10:54:51.999Z</time></trkpt><trkpt lat="45.124077270110995" lon="5.711239840270926"><ele>269.0</ele><time>2026-04-25T10:54:52.999Z</time></trkpt><trkpt lat="45.12430619093753" lon="5.711268139012329"><ele>265.0</ele><time>2026-04-25T10:54:53.999Z</time></trkpt><trkpt lat="45.124532163306334" lon="5.711292000549678"><ele>265.0</ele><time>2026-04-25T10:54:54.998Z</time></trkpt><trkpt lat="45.124759338462134" lon="5.711313696491877"><ele>265.0</ele><time>2026-04-25T10:54:55.998Z</time></trkpt><trkpt lat="45.12498970783668" lon="5.711341667856196"><ele>268.0</ele><time>2026-04-25T10:54:56.998Z</time></trkpt><trkpt lat="45.12521681750389" lon="5.711361945902617"><ele>271.0</ele><time>2026-04-25T10:54:57.998Z</time></trkpt><trkpt lat="45.12544121059139" lon="5.711376642249673"><ele>271.0</ele><time>2026-04-25T10:54:58.998Z</time></trkpt><trkpt lat="45.12566525856087" lon="5.71140200394058"><ele>271.0</ele><time>2026-04-25T10:54:59.998Z</time></trkpt><trkpt lat="45.125898167569495" lon="5.71142538140783"><ele>269.66666666666663</ele><time>2026-04-25T10:55:00.998Z</time></trkpt><trkpt lat="45.1261219070764" lon="5.7114463201948755"><ele>268.3333333333333</ele><time>2026-04-25T10:55:01.998Z</time></trkpt><trkpt lat="45.12634193979808" lon="5.7114608223900385"><ele>267.0</ele><time>2026-04-25T10:55:02.998Z</time></trkpt><trkpt lat="45.12657273137937" lon="5.711477178920719"><ele>263.5</ele><time>2026-04-25T10:55:03.998Z</time></trkpt><trkpt lat="45.12679943065829" lon="5.711500204427128"><ele>260.0</ele><time>2026-04-25T10:55:04.998Z</time></trkpt><trkpt lat="45.12702700781548" lon="5.711508409651842"><ele>260.0</ele><time>2026-04-25T10:55:06Z</time></trkpt><trkpt lat="45.12725283651542" lon="5.711515118993473"><ele>260.0</ele><time>2026-04-25T10:55:07Z</time></trkpt><trkpt lat="45.12748422849223" lon="5.71151910215463"><ele>259.5</ele><time>2026-04-25T10:55:08Z</time></trkpt><trkpt lat="45.127710012988686" lon="5.711522988786033"><ele>259.0</ele><time>2026-04-25T10:55:09Z</time></trkpt><trkpt lat="45.12793871326011" lon="5.711525187745348"><ele>259.0</ele><time>2026-04-25T10:55:10Z</time></trkpt><trkpt lat="45.12816859291148" lon="5.711526171069371"><ele>259.0</ele><time>2026-04-25T10:55:11Z</time></trkpt><trkpt lat="45.12840180208113" lon="5.711527168640392"><ele>256.5</ele><time>2026-04-25T10:55:12Z</time></trkpt><trkpt lat="45.12863209139637" lon="5.71152993313173"><ele>254.0</ele><time>2026-04-25T10:55:13Z</time></trkpt><trkpt lat="45.128861467485365" lon="5.711532991477734"><ele>250.0</ele><time>2026-04-25T10:55:14Z</time></trkpt><trkpt lat="45.12909592867541" lon="5.711535047509341"><ele>246.0</ele><time>2026-04-25T10:55:15Z</time></trkpt><trkpt lat="45.1293342987928" lon="5.711533962728309"><ele>246.0</ele><time>2026-04-25T10:55:16Z</time></trkpt><trkpt lat="45.12956525156441" lon="5.711527164673102"><ele>246.0</ele><time>2026-04-25T10:55:17Z</time></trkpt><trkpt lat="45.12979230746365" lon="5.7115062174459235"><ele>246.5</ele><time>2026-04-25T10:55:18Z</time></trkpt><trkpt lat="45.130023818361174" lon="5.7114475678802235"><ele>247.0</ele><time>2026-04-25T10:55:19Z</time></trkpt><trkpt lat="45.13026428851413" lon="5.711419643188862"><ele>247.0</ele><time>2026-04-25T10:55:20Z</time></trkpt><trkpt lat="45.13049615154104" lon="5.711351659338492"><ele>247.0</ele><time>2026-04-25T10:55:21Z</time></trkpt><trkpt lat="45.13072553536835" lon="5.711248522519293"><ele>245.0</ele><time>2026-04-25T10:55:22Z</time></trkpt><trkpt lat="45.13094594070704" lon="5.711176691818006"><ele>243.0</ele><time>2026-04-25T10:55:23Z</time></trkpt><trkpt lat="45.13116141087965" lon="5.71110134705045"><ele>241.0</ele><time>2026-04-25T10:55:24Z</time></trkpt><trkpt lat="45.13135987408264" lon="5.711028538028199"><ele>241.0</ele><time>2026-04-25T10:55:25Z</time></trkpt><trkpt lat="45.13155596482112" lon="5.710994588424786"><ele>241.0</ele><time>2026-04-25T10:55:26Z</time></trkpt><trkpt lat="45.13173281511871" lon="5.710973398589054"><ele>241.0</ele><time>2026-04-25T10:55:27Z</time></trkpt><trkpt lat="45.13190580339253" lon="5.71097866698645"><ele>243.0</ele><time>2026-04-25T10:55:28Z</time></trkpt><trkpt lat="45.13208638079824" lon="5.711019638669064"><ele>245.0</ele><time>2026-04-25T10:55:29Z</time></trkpt><trkpt lat="45.13224892523444" lon="5.711108402936883"><ele>247.0</ele><time>2026-04-25T10:55:30Z</time></trkpt><trkpt lat="45.13241252127138" lon="5.711193937858682"><ele>254.0</ele><time>2026-04-25T10:55:31Z</time></trkpt><trkpt lat="45.13258490356484" lon="5.711269507749685"><ele>261.0</ele><time>2026-04-25T10:55:32Z</time></trkpt><trkpt lat="45.13277105971151" lon="5.711336216575601"><ele>268.0</ele><time>2026-04-25T10:55:33Z</time></trkpt><trkpt lat="45.132939361081256" lon="5.711420313451035"><ele>268.0</ele><time>2026-04-25T10:55:34Z</time></trkpt><trkpt lat="45.13307763183943" lon="5.7115296387788135"><ele>268.0</ele><time>2026-04-25T10:55:35Z</time></trkpt><trkpt lat="45.13319033463699" lon="5.711654491731243"><ele>268.0</ele><time>2026-04-25T10:55:36Z</time></trkpt><trkpt lat="45.133301402820514" lon="5.711801886133272"><ele>266.66666666666663</ele><time>2026-04-25T10:55:37Z</time></trkpt><trkpt lat="45.1334168555198" lon="5.711956996684298"><ele>265.3333333333333</ele><time>2026-04-25T10:55:38Z</time></trkpt><trkpt lat="45.133512732557534" lon="5.71213532700004"><ele>264.0</ele><time>2026-04-25T10:55:39Z</time></trkpt><trkpt lat="45.13360562460064" lon="5.712306871918427"><ele>264.0</ele><time>2026-04-25T10:55:40Z</time></trkpt><trkpt lat="45.13368456598461" lon="5.712468172592983"><ele>264.0</ele><time>2026-04-25T10:55:41Z</time></trkpt><trkpt lat="45.13376159501777" lon="5.712601347480233"><ele>264.0</ele><time>2026-04-25T10:55:42Z</time></trkpt><trkpt lat="45.13382629581673" lon="5.712735276647925"><ele>264.0</ele><time>2026-04-25T10:55:43Z</time></trkpt><trkpt lat="45.133904336780596" lon="5.712860618455079"><ele>267.8</ele><time>2026-04-25T10:55:44Z</time></trkpt><trkpt lat="45.133963232063216" lon="5.712979036654617"><ele>271.59999999999997</ele><time>2026-04-25T10:55:45Z</time></trkpt><trkpt lat="45.134027116816775" lon="5.713074001418148"><ele>275.4</ele><time>2026-04-25T10:55:46Z</time></trkpt><trkpt lat="45.13409658442554" lon="5.713166153475026"><ele>279.2</ele><time>2026-04-25T10:55:47Z</time></trkpt><trkpt lat="45.13418220331603" lon="5.713254211093155"><ele>283.0</ele><time>2026-04-25T10:55:48Z</time></trkpt><trkpt lat="45.13427766222187" lon="5.713334148443171"><ele>276.8</ele><time>2026-04-25T10:55:48.999Z</time></trkpt><trkpt lat="45.134361049352464" lon="5.713416271419038"><ele>270.6</ele><time>2026-04-25T10:55:49.999Z</time></trkpt><trkpt lat="45.13445376911565" lon="5.713471292536653"><ele>264.4</ele><time>2026-04-25T10:55:50.999Z</time></trkpt><trkpt lat="45.1345404818847" lon="5.713520874622644"><ele>258.2</ele><time>2026-04-25T10:55:51.999Z</time></trkpt><trkpt lat="45.1346418878913" lon="5.713603573015573"><ele>252.0</ele><time>2026-04-25T10:55:52.999Z</time></trkpt><trkpt lat="45.134708283837256" lon="5.713692593505885"><ele>252.0</ele><time>2026-04-25T10:55:53.999Z</time></trkpt><trkpt lat="45.1347621554847" lon="5.713774100964887"><ele>252.0</ele><time>2026-04-25T10:55:54.999Z</time></trkpt><trkpt lat="45.13480684798877" lon="5.713850215499267"><ele>252.0</ele><time>2026-04-25T10:55:55.999Z</time></trkpt><trkpt lat="45.13488782507538" lon="5.713968953742632"><ele>252.0</ele><time>2026-04-25T10:55:57.999Z</time></trkpt><trkpt lat="45.13491435998167" lon="5.714096238799556"><ele>252.0</ele><time>2026-04-25T10:55:59.999Z</time></trkpt><trkpt lat="45.13484730559923" lon="5.714213652601777"><ele>252.0</ele><time>2026-04-25T10:56:01.999Z</time></trkpt><trkpt lat="45.1348279718869" lon="5.71430097890116"><ele>252.0</ele><time>2026-04-25T10:56:02.999Z</time></trkpt><trkpt lat="45.13486546592848" lon="5.714441402773057"><ele>252.0</ele><time>2026-04-25T10:56:04.999Z</time></trkpt><trkpt lat="45.134963530255405" lon="5.714481187603579"><ele>252.0</ele><time>2026-04-25T10:56:06.999Z</time></trkpt><trkpt lat="45.13502418963732" lon="5.714509206597481"><ele>252.0</ele><time>2026-04-25T10:56:08.999Z</time></trkpt><trkpt lat="45.13508300051233" lon="5.714597566044284"><ele>252.0</ele><time>2026-04-25T10:56:10.999Z</time></trkpt><trkpt lat="45.13515384216827" lon="5.714704852515482"><ele>250.42857142857144</ele><time>2026-04-25T10:56:12.999Z</time></trkpt><trkpt lat="45.13519508173923" lon="5.714792070410518"><ele>248.85714285714286</ele><time>2026-04-25T10:56:13.999Z</time></trkpt><trkpt lat="45.13524962191476" lon="5.714875623746449"><ele>247.28571428571428</ele><time>2026-04-25T10:56:14.999Z</time></trkpt><trkpt lat="45.13529722481714" lon="5.714956738085242"><ele>245.71428571428572</ele><time>2026-04-25T10:56:15.999Z</time></trkpt><trkpt lat="45.13534285005799" lon="5.715029237080157"><ele>244.14285714285717</ele><time>2026-04-25T10:56:16.999Z</time></trkpt><trkpt lat="45.13539235761865" lon="5.715087271044762"><ele>242.57142857142858</ele><time>2026-04-25T10:56:17.999Z</time></trkpt><trkpt lat="45.13544576459226" lon="5.71513455135707"><ele>241.0</ele><time>2026-04-25T10:56:18.999Z</time></trkpt><trkpt lat="45.135499516881296" lon="5.7151874705826575"><ele>240.99999999999997</ele><time>2026-04-25T10:56:19.999Z</time></trkpt><trkpt lat="45.135581985104" lon="5.715233655164026"><ele>241.0</ele><time>2026-04-25T10:56:20.999Z</time></trkpt><trkpt lat="45.13567501469101" lon="5.7152661127164395"><ele>241.0</ele><time>2026-04-25T10:56:21.999Z</time></trkpt><trkpt lat="45.13576661847566" lon="5.7152715013740245"><ele>241.0</ele><time>2026-04-25T10:56:22.999Z</time></trkpt><trkpt lat="45.135856092802165" lon="5.715299339435779"><ele>240.99999999999997</ele><time>2026-04-25T10:56:23.999Z</time></trkpt><trkpt lat="45.1359281243315" lon="5.715328342091954"><ele>241.0</ele><time>2026-04-25T10:56:24.999Z</time></trkpt><trkpt lat="45.13601594869852" lon="5.715381658955979"><ele>241.20000000000002</ele><time>2026-04-25T10:56:25.999Z</time></trkpt><trkpt lat="45.13611049422741" lon="5.715437390937395"><ele>241.40000000000003</ele><time>2026-04-25T10:56:26.999Z</time></trkpt><trkpt lat="45.136195693341506" lon="5.715520385656326"><ele>241.6</ele><time>2026-04-25T10:56:27.999Z</time></trkpt><trkpt lat="45.1362624497785" lon="5.7156091923565535"><ele>241.8</ele><time>2026-04-25T10:56:28.999Z</time></trkpt><trkpt lat="45.13632210780808" lon="5.715684085668437"><ele>242.0</ele><time>2026-04-25T10:56:29.999Z</time></trkpt><trkpt lat="45.13637640551985" lon="5.715760682306827"><ele>242.00000000000003</ele><time>2026-04-25T10:56:30.999Z</time></trkpt><trkpt lat="45.13643544073201" lon="5.715830278030217"><ele>242.0</ele><time>2026-04-25T10:56:31.999Z</time></trkpt><trkpt lat="45.13648999918576" lon="5.715920636096408"><ele>242.0</ele><time>2026-04-25T10:56:32.999Z</time></trkpt><trkpt lat="45.13655326863658" lon="5.7160180860600525"><ele>242.0</ele><time>2026-04-25T10:56:33.999Z</time></trkpt><trkpt lat="45.136619374278794" lon="5.716100349944817"><ele>242.00000000000003</ele><time>2026-04-25T10:56:34.999Z</time></trkpt><trkpt lat="45.13668684789958" lon="5.716179741762403"><ele>242.0</ele><time>2026-04-25T10:56:35.999Z</time></trkpt><trkpt lat="45.136753418235536" lon="5.716251796816837"><ele>241.8</ele><time>2026-04-25T10:56:36.999Z</time></trkpt><trkpt lat="45.13680595530325" lon="5.716320844640393"><ele>241.6</ele><time>2026-04-25T10:56:37.999Z</time></trkpt><trkpt lat="45.1368768684201" lon="5.716409570315471"><ele>241.40000000000003</ele><time>2026-04-25T10:56:39.999Z</time></trkpt><trkpt lat="45.13695021389687" lon="5.716483460090497"><ele>241.20000000000002</ele><time>2026-04-25T10:56:41.999Z</time></trkpt><trkpt lat="45.13705966532478" lon="5.716577869054591"><ele>241.0</ele><time>2026-04-25T10:56:43.999Z</time></trkpt><trkpt lat="45.13710284556338" lon="5.716700519292616"><ele>240.99999999999997</ele><time>2026-04-25T10:56:44.999Z</time></trkpt><trkpt lat="45.137167994474304" lon="5.716772523269938"><ele>241.0</ele><time>2026-04-25T10:56:45.999Z</time></trkpt><trkpt lat="45.13723539036445" lon="5.716867251742374"><ele>241.0</ele><time>2026-04-25T10:56:46.999Z</time></trkpt><trkpt lat="45.13731307478067" lon="5.716940067691565"><ele>241.0</ele><time>2026-04-25T10:56:47.999Z</time></trkpt><trkpt lat="45.137376448422565" lon="5.717029976220203"><ele>240.99999999999997</ele><time>2026-04-25T10:56:48.999Z</time></trkpt><trkpt lat="45.13743765901958" lon="5.717102169919369"><ele>241.0</ele><time>2026-04-25T10:56:49.999Z</time></trkpt><trkpt lat="45.13748347762686" lon="5.717163621244207"><ele>240.20000000000002</ele><time>2026-04-25T10:56:50.999Z</time></trkpt><trkpt lat="45.13755346371082" lon="5.71723850294547"><ele>239.40000000000003</ele><time>2026-04-25T10:56:52.999Z</time></trkpt><trkpt lat="45.137647849023885" lon="5.717343198821489"><ele>238.6</ele><time>2026-04-25T10:56:54.999Z</time></trkpt><trkpt lat="45.13773173370698" lon="5.717414848540685"><ele>237.8</ele><time>2026-04-25T10:56:55.999Z</time></trkpt><trkpt lat="45.13781790446669" lon="5.71749938378615"><ele>237.0</ele><time>2026-04-25T10:56:56.999Z</time></trkpt><trkpt lat="45.137899769557094" lon="5.717587732150247"><ele>237.0</ele><time>2026-04-25T10:56:57.999Z</time></trkpt><trkpt lat="45.13797405225223" lon="5.717666420262372"><ele>237.0</ele><time>2026-04-25T10:56:58.999Z</time></trkpt><trkpt lat="45.1380370574323" lon="5.717728290533913"><ele>237.0</ele><time>2026-04-25T10:56:59.999Z</time></trkpt><trkpt lat="45.138108666675414" lon="5.71783437819974"><ele>237.0</ele><time>2026-04-25T10:57:01.999Z</time></trkpt><trkpt lat="45.13817520156335" lon="5.717922831736757"><ele>237.0</ele><time>2026-04-25T10:57:03.999Z</time></trkpt><trkpt lat="45.138221939086" lon="5.718092896421216"><ele>237.0</ele><time>2026-04-25T10:57:05.999Z</time></trkpt><trkpt lat="45.1382598824031" lon="5.7182011431383355"><ele>237.0</ele><time>2026-04-25T10:57:06.998Z</time></trkpt><trkpt lat="45.13830461432457" lon="5.718326042729855"><ele>237.0</ele><time>2026-04-25T10:57:07.998Z</time></trkpt><trkpt lat="45.13837632136436" lon="5.7184418335050475"><ele>237.0</ele><time>2026-04-25T10:57:08.998Z</time></trkpt><trkpt lat="45.13844292770426" lon="5.718556445163742"><ele>237.0</ele><time>2026-04-25T10:57:09.998Z</time></trkpt><trkpt lat="45.13850914203917" lon="5.718697758783369"><ele>237.0</ele><time>2026-04-25T10:57:10.998Z</time></trkpt><trkpt lat="45.13857026249904" lon="5.718842370899938"><ele>237.0</ele><time>2026-04-25T10:57:12Z</time></trkpt><trkpt lat="45.13861763237257" lon="5.718981359055228"><ele>237.0</ele><time>2026-04-25T10:57:13Z</time></trkpt><trkpt lat="45.1386770128167" lon="5.719116585094289"><ele>237.0</ele><time>2026-04-25T10:57:14Z</time></trkpt><trkpt lat="45.1387326203657" lon="5.71925766119243"><ele>237.0</ele><time>2026-04-25T10:57:15Z</time></trkpt><trkpt lat="45.13878825587554" lon="5.719399377146834"><ele>237.0</ele><time>2026-04-25T10:57:16Z</time></trkpt><trkpt lat="45.13884370754774" lon="5.719559142865322"><ele>237.0</ele><time>2026-04-25T10:57:17Z</time></trkpt><trkpt lat="45.138905506365624" lon="5.719741455365239"><ele>237.0</ele><time>2026-04-25T10:57:18Z</time></trkpt><trkpt lat="45.138952256374715" lon="5.719893352762074"><ele>237.33333333333334</ele><time>2026-04-25T10:57:19Z</time></trkpt><trkpt lat="45.13900193691201" lon="5.720022735628201"><ele>237.66666666666669</ele><time>2026-04-25T10:57:20Z</time></trkpt><trkpt lat="45.13903994338061" lon="5.7201452275168165"><ele>238.0</ele><time>2026-04-25T10:57:21Z</time></trkpt><trkpt lat="45.139058247702714" lon="5.720236673702679"><ele>238.33333333333334</ele><time>2026-04-25T10:57:22Z</time></trkpt><trkpt lat="45.139080574017335" lon="5.72034413511998"><ele>238.66666666666669</ele><time>2026-04-25T10:57:24Z</time></trkpt><trkpt lat="45.139080531848265" lon="5.720438536006512"><ele>239.0</ele><time>2026-04-25T10:57:28Z</time></trkpt><trkpt lat="45.139128193832725" lon="5.720568300402033"><ele>237.6</ele><time>2026-04-25T10:57:31Z</time></trkpt><trkpt lat="45.139233477576774" lon="5.720694130875995"><ele>236.2</ele><time>2026-04-25T10:57:33Z</time></trkpt><trkpt lat="45.13930426780708" lon="5.72075391337572"><ele>234.79999999999998</ele><time>2026-04-25T10:57:34Z</time></trkpt><trkpt lat="45.13935312836525" lon="5.720827478103281"><ele>233.39999999999998</ele><time>2026-04-25T10:57:35Z</time></trkpt><trkpt lat="45.13944043485451" lon="5.72093925015871"><ele>232.0</ele><time>2026-04-25T10:57:37Z</time></trkpt><trkpt lat="45.13952728645592" lon="5.7210623977972395"><ele>232.0</ele><time>2026-04-25T10:57:39Z</time></trkpt><trkpt lat="45.13958646875733" lon="5.721132009300263"><ele>232.0</ele><time>2026-04-25T10:57:40Z</time></trkpt><trkpt lat="45.139647561896766" lon="5.721228478830311"><ele>232.0</ele><time>2026-04-25T10:57:41Z</time></trkpt><trkpt lat="45.139722071839365" lon="5.721323858274148"><ele>232.0</ele><time>2026-04-25T10:57:42Z</time></trkpt><trkpt lat="45.13980549256057" lon="5.72143160984261"><ele>232.0</ele><time>2026-04-25T10:57:43Z</time></trkpt><trkpt lat="45.13988977693397" lon="5.721540779654541"><ele>231.75</ele><time>2026-04-25T10:57:44Z</time></trkpt><trkpt lat="45.13997252988379" lon="5.721648453168677"><ele>231.5</ele><time>2026-04-25T10:57:45Z</time></trkpt><trkpt lat="45.14005503089806" lon="5.721768173155946"><ele>231.25</ele><time>2026-04-25T10:57:46Z</time></trkpt><trkpt lat="45.14013728034056" lon="5.721888118469513"><ele>231.0</ele><time>2026-04-25T10:57:47Z</time></trkpt><trkpt lat="45.14021628255154" lon="5.72198433651675"><ele>231.0</ele><time>2026-04-25T10:57:48Z</time></trkpt><trkpt lat="45.140286423418196" lon="5.722057475029371"><ele>231.0</ele><time>2026-04-25T10:57:49Z</time></trkpt><trkpt lat="45.140348703934535" lon="5.722138887437356"><ele>231.0</ele><time>2026-04-25T10:57:50Z</time></trkpt><trkpt lat="45.14041860367841" lon="5.722240285450127"><ele>231.0</ele><time>2026-04-25T10:57:51Z</time></trkpt><trkpt lat="45.140473125353274" lon="5.722318226025495"><ele>231.0</ele><time>2026-04-25T10:57:52Z</time></trkpt><trkpt lat="45.140519491786584" lon="5.722397108242034"><ele>231.0</ele><time>2026-04-25T10:57:54Z</time></trkpt><trkpt lat="45.14058551446236" lon="5.722463291094309"><ele>231.0</ele><time>2026-04-25T10:57:58Z</time></trkpt><trkpt lat="45.1406749345941" lon="5.722575758523159"><ele>231.0</ele><time>2026-04-25T10:58:00.999Z</time></trkpt><trkpt lat="45.140730483215464" lon="5.722652683046631"><ele>231.0</ele><time>2026-04-25T10:58:01.999Z</time></trkpt><trkpt lat="45.14078045658942" lon="5.72272452977062"><ele>231.0</ele><time>2026-04-25T10:58:02.999Z</time></trkpt><trkpt lat="45.14082678813751" lon="5.722792960807361"><ele>231.0</ele><time>2026-04-25T10:58:03.999Z</time></trkpt><trkpt lat="45.14087295323752" lon="5.722860440717017"><ele>231.0</ele><time>2026-04-25T10:58:04.999Z</time></trkpt><trkpt lat="45.14092029455221" lon="5.72292101120844"><ele>230.83333333333334</ele><time>2026-04-25T10:58:05.999Z</time></trkpt><trkpt lat="45.14097343208484" lon="5.722989252849122"><ele>230.66666666666669</ele><time>2026-04-25T10:58:06.999Z</time></trkpt><trkpt lat="45.14103382944297" lon="5.723069855413661"><ele>230.5</ele><time>2026-04-25T10:58:07.999Z</time></trkpt><trkpt lat="45.14109593200918" lon="5.723155316556119"><ele>230.33333333333334</ele><time>2026-04-25T10:58:08.999Z</time></trkpt><trkpt lat="45.14115651503666" lon="5.7232297188934265"><ele>230.16666666666669</ele><time>2026-04-25T10:58:09.999Z</time></trkpt><trkpt lat="45.14121001336131" lon="5.723303229063217"><ele>230.0</ele><time>2026-04-25T10:58:10.999Z</time></trkpt><trkpt lat="45.14126193757649" lon="5.723370752474226"><ele>230.0</ele><time>2026-04-25T10:58:11.999Z</time></trkpt><trkpt lat="45.141304685574816" lon="5.723436362895634"><ele>230.0</ele><time>2026-04-25T10:58:12.999Z</time></trkpt><trkpt lat="45.14137618903888" lon="5.7235637285844465"><ele>230.0</ele><time>2026-04-25T10:58:14.999Z</time></trkpt><trkpt lat="45.14145993111384" lon="5.72370839525759"><ele>230.0</ele><time>2026-04-25T10:58:16.999Z</time></trkpt><trkpt lat="45.14151233022488" lon="5.723786567528658"><ele>230.0</ele><time>2026-04-25T10:58:17.999Z</time></trkpt><trkpt lat="45.14156771029869" lon="5.72384892271052"><ele>229.6</ele><time>2026-04-25T10:58:18.999Z</time></trkpt><trkpt lat="45.141616883336916" lon="5.723923320257091"><ele>229.2</ele><time>2026-04-25T10:58:19.999Z</time></trkpt><trkpt lat="45.14166238765637" lon="5.724037588152798"><ele>228.8</ele><time>2026-04-25T10:58:20.999Z</time></trkpt><trkpt lat="45.14173094045171" lon="5.724138424438239"><ele>228.4</ele><time>2026-04-25T10:58:21.999Z</time></trkpt><trkpt lat="45.141781355052885" lon="5.724262004051992"><ele>228.0</ele><time>2026-04-25T10:58:22.999Z</time></trkpt><trkpt lat="45.14183430616644" lon="5.724388016870291"><ele>228.0</ele><time>2026-04-25T10:58:23.999Z</time></trkpt><trkpt lat="45.14188443603754" lon="5.72451898133817"><ele>228.0</ele><time>2026-04-25T10:58:24.999Z</time></trkpt><trkpt lat="45.14195029233724" lon="5.724647866556325"><ele>228.0</ele><time>2026-04-25T10:58:25.999Z</time></trkpt><trkpt lat="45.14199448383929" lon="5.724789353164731"><ele>228.0</ele><time>2026-04-25T10:58:26.999Z</time></trkpt><trkpt lat="45.142047038793585" lon="5.724910643519013"><ele>228.0</ele><time>2026-04-25T10:58:27.999Z</time></trkpt><trkpt lat="45.14211537963994" lon="5.725054055172935"><ele>228.0</ele><time>2026-04-25T10:58:28.999Z</time></trkpt><trkpt lat="45.14218831221078" lon="5.725191510694242"><ele>228.0</ele><time>2026-04-25T10:58:29.999Z</time></trkpt><trkpt lat="45.14224866603436" lon="5.725331589809544"><ele>228.0</ele><time>2026-04-25T10:58:30.999Z</time></trkpt><trkpt lat="45.142287013628774" lon="5.725457796218858"><ele>228.0</ele><time>2026-04-25T10:58:31.999Z</time></trkpt><trkpt lat="45.142322977069284" lon="5.725565709940335"><ele>228.0</ele><time>2026-04-25T10:58:32.999Z</time></trkpt><trkpt lat="45.14236431988981" lon="5.725661074718456"><ele>228.33333333333334</ele><time>2026-04-25T10:58:33.999Z</time></trkpt><trkpt lat="45.14240565785486" lon="5.72575510584123"><ele>228.66666666666669</ele><time>2026-04-25T10:58:34.999Z</time></trkpt><trkpt lat="45.14244345771166" lon="5.725861460696738"><ele>229.0</ele><time>2026-04-25T10:58:35.999Z</time></trkpt><trkpt lat="45.142477287274744" lon="5.725978342259797"><ele>229.33333333333334</ele><time>2026-04-25T10:58:36.999Z</time></trkpt><trkpt lat="45.14250215252379" lon="5.72606909955785"><ele>229.66666666666669</ele><time>2026-04-25T10:58:37.999Z</time></trkpt><trkpt lat="45.14253090676202" lon="5.726150478670206"><ele>230.0</ele><time>2026-04-25T10:58:38.999Z</time></trkpt><trkpt lat="45.142559283146966" lon="5.726247681066245"><ele>230.2</ele><time>2026-04-25T10:58:40.999Z</time></trkpt><trkpt lat="45.14258436161826" lon="5.726337872488489"><ele>230.4</ele><time>2026-04-25T10:58:44.999Z</time></trkpt><trkpt lat="45.142618899561604" lon="5.726416291162871"><ele>230.60000000000002</ele><time>2026-04-25T10:58:45.999Z</time></trkpt><trkpt lat="45.142656699840124" lon="5.726577068254911"><ele>230.8</ele><time>2026-04-25T10:58:47.999Z</time></trkpt><trkpt lat="45.142688486982735" lon="5.726756104919748"><ele>231.0</ele><time>2026-04-25T10:58:49.999Z</time></trkpt><trkpt lat="45.142713532266626" lon="5.7268636780198765"><ele>230.83333333333334</ele><time>2026-04-25T10:58:50.999Z</time></trkpt><trkpt lat="45.14274359861333" lon="5.726975362764687"><ele>230.66666666666669</ele><time>2026-04-25T10:58:51.999Z</time></trkpt><trkpt lat="45.14276966588729" lon="5.7270932858511125"><ele>230.5</ele><time>2026-04-25T10:58:52.999Z</time></trkpt><trkpt lat="45.14279390295407" lon="5.72719432345493"><ele>230.33333333333334</ele><time>2026-04-25T10:58:53.999Z</time></trkpt><trkpt lat="45.14281739850746" lon="5.727288664094413"><ele>230.16666666666669</ele><time>2026-04-25T10:58:54.999Z</time></trkpt><trkpt lat="45.14284616915644" lon="5.727381675439813"><ele>230.0</ele><time>2026-04-25T10:58:55.999Z</time></trkpt><trkpt lat="45.142864587391735" lon="5.727480956121909"><ele>230.0</ele><time>2026-04-25T10:58:56.999Z</time></trkpt><trkpt lat="45.142891010159765" lon="5.727596897566206"><ele>230.0</ele><time>2026-04-25T10:58:57.999Z</time></trkpt><trkpt lat="45.1429191422428" lon="5.727724440625062"><ele>230.0</ele><time>2026-04-25T10:58:58.999Z</time></trkpt><trkpt lat="45.142948888741884" lon="5.72785312867994"><ele>230.0</ele><time>2026-04-25T10:58:59.999Z</time></trkpt><trkpt lat="45.14298549622013" lon="5.727980980032296"><ele>230.0</ele><time>2026-04-25T10:59:00.999Z</time></trkpt><trkpt lat="45.143017782007355" lon="5.728112696652478"><ele>229.0</ele><time>2026-04-25T10:59:01.999Z</time></trkpt><trkpt lat="45.14305586541981" lon="5.728244042141469"><ele>228.0</ele><time>2026-04-25T10:59:02.999Z</time></trkpt><trkpt lat="45.143091627251756" lon="5.728367900094583"><ele>227.0</ele><time>2026-04-25T10:59:03.999Z</time></trkpt><trkpt lat="45.143118977934144" lon="5.728472985298445"><ele>226.0</ele><time>2026-04-25T10:59:04.999Z</time></trkpt><trkpt lat="45.14314433267436" lon="5.7285612070411265"><ele>225.0</ele><time>2026-04-25T10:59:05.999Z</time></trkpt><trkpt lat="45.143181696253166" lon="5.728706661196987"><ele>225.0</ele><time>2026-04-25T10:59:07.999Z</time></trkpt><trkpt lat="45.14320158256379" lon="5.728813551422865"><ele>225.0</ele><time>2026-04-25T10:59:11.999Z</time></trkpt><trkpt lat="45.1431980400072" lon="5.728967314748114"><ele>225.0</ele><time>2026-04-25T10:59:13.999Z</time></trkpt><trkpt lat="45.14311222810918" lon="5.7290686900546035"><ele>225.0</ele><time>2026-04-25T10:59:14.999Z</time></trkpt><trkpt lat="45.14306847954235" lon="5.729161362851488"><ele>225.0</ele><time>2026-04-25T10:59:15.999Z</time></trkpt><trkpt lat="45.14302377667988" lon="5.729252364071463"><ele>225.0</ele><time>2026-04-25T10:59:16.999Z</time></trkpt><trkpt lat="45.142969371773745" lon="5.7293512833525275"><ele>225.0</ele><time>2026-04-25T10:59:18Z</time></trkpt><trkpt lat="45.14290129738653" lon="5.729452142599705"><ele>225.0</ele><time>2026-04-25T10:59:19Z</time></trkpt><trkpt lat="45.14283456117351" lon="5.729548214164118"><ele>225.0</ele><time>2026-04-25T10:59:20Z</time></trkpt><trkpt lat="45.14276024219583" lon="5.729640571289661"><ele>225.0</ele><time>2026-04-25T10:59:21Z</time></trkpt><trkpt lat="45.14267443574299" lon="5.729743203238184"><ele>225.4</ele><time>2026-04-25T10:59:22Z</time></trkpt><trkpt lat="45.142589736250955" lon="5.729856101831298"><ele>225.8</ele><time>2026-04-25T10:59:23Z</time></trkpt><trkpt lat="45.14251542699787" lon="5.729950295683021"><ele>226.2</ele><time>2026-04-25T10:59:24Z</time></trkpt><trkpt lat="45.142443096671954" lon="5.7300611735792835"><ele>226.6</ele><time>2026-04-25T10:59:25Z</time></trkpt><trkpt lat="45.142380901620356" lon="5.730185597364337"><ele>227.0</ele><time>2026-04-25T10:59:26Z</time></trkpt><trkpt lat="45.14234398824629" lon="5.730316925511248"><ele>227.16666666666669</ele><time>2026-04-25T10:59:27Z</time></trkpt><trkpt lat="45.14232630686322" lon="5.730434876707163"><ele>227.33333333333334</ele><time>2026-04-25T10:59:28Z</time></trkpt><trkpt lat="45.14231298967893" lon="5.73052978525415"><ele>227.5</ele><time>2026-04-25T10:59:29Z</time></trkpt><trkpt lat="45.142187917336734" lon="5.730537984550742"><ele>227.66666666666669</ele><time>2026-04-25T10:59:32Z</time></trkpt><trkpt lat="45.14210846741099" lon="5.730541305414871"><ele>227.83333333333334</ele><time>2026-04-25T10:59:33Z</time></trkpt><trkpt lat="45.14202289458941" lon="5.73055289657225"><ele>228.0</ele><time>2026-04-25T10:59:34Z</time></trkpt><trkpt lat="45.141941105780795" lon="5.730579489036859"><ele>228.0</ele><time>2026-04-25T10:59:35Z</time></trkpt><trkpt lat="45.14186287526535" lon="5.730598709501866"><ele>228.0</ele><time>2026-04-25T10:59:36Z</time></trkpt><trkpt lat="45.14176731397913" lon="5.730584491326966"><ele>228.0</ele><time>2026-04-25T10:59:38Z</time></trkpt></trkseg></trk></gpx>